<?xml version='1.0' encoding='UTF-8'?><gpx version="1.1" creator="JPX - https://github.com/jenetics/jpx" xmlns="http://www.topografix.com/GPX/1/1"><trk><trkseg><trkpt lat="42.5221037" lon="14.1527468"><ele>1.9999999999999998</ele><time>2026-04-26T07:14:22.29Z</time></trkpt><trkpt lat="42.5221162" lon="14.152844"><ele>2.0</ele><time>2026-04-26T07:14:24.29Z</time></trkpt><trkpt lat="42.5221645" lon="14.1529818"><ele>2.0</ele><time>2026-04-26T07:14:26.29Z</time></trkpt><trkpt lat="42.5221953" lon="14.1530648"><ele>2.0</ele><time>2026-04-26T07:14:27.289Z</time></trkpt><trkpt lat="42.5222487" lon="14.1531892"><ele>1.9999999999999998</ele><time>2026-04-26T07:14:29.289Z</time></trkpt><trkpt lat="42.522283" lon="14.153297"><ele>2.0</ele><time>2026-04-26T07:14:31.293Z</time></trkpt><trkpt lat="42.5222298" lon="14.1533783"><ele>2.0</ele><time>2026-04-26T07:14:33.288Z</time></trkpt><trkpt lat="42.5221195" lon="14.1534728"><ele>2.0</ele><time>2026-04-26T07:14:35.287Z</time></trkpt><trkpt lat="42.5220295" lon="14.153549"><ele>2.0</ele><time>2026-04-26T07:14:37.29Z</time></trkpt><trkpt lat="42.5219742" lon="14.1535923"><ele>2.0</ele><time>2026-04-26T07:14:39.291Z</time></trkpt><trkpt lat="42.5219135" lon="14.1536353"><ele>2.0</ele><time>2026-04-26T07:14:49.288Z</time></trkpt><trkpt lat="42.5219097" lon="14.1537915"><ele>1.8333333333333333</ele><time>2026-04-26T07:14:52.287Z</time></trkpt><trkpt lat="42.5219308" lon="14.1538723"><ele>1.6666666666666665</ele><time>2026-04-26T07:14:53.289Z</time></trkpt><trkpt lat="42.5219648" lon="14.1539678"><ele>1.5</ele><time>2026-04-26T07:14:54.29Z</time></trkpt><trkpt lat="42.5220038" lon="14.1540765"><ele>1.3333333333333333</ele><time>2026-04-26T07:14:55.29Z</time></trkpt><trkpt lat="42.5220425" lon="14.1542033"><ele>1.1666666666666665</ele><time>2026-04-26T07:14:56.288Z</time></trkpt><trkpt lat="42.5220765" lon="14.154341"><ele>1.0</ele><time>2026-04-26T07:14:57.286Z</time></trkpt><trkpt lat="42.5221108" lon="14.1544848"><ele>2.75</ele><time>2026-04-26T07:14:58.287Z</time></trkpt><trkpt lat="42.5221383" lon="14.1546378"><ele>4.5</ele><time>2026-04-26T07:14:59.284Z</time></trkpt><trkpt lat="42.5221567" lon="14.1547993"><ele>6.25</ele><time>2026-04-26T07:15:00.286Z</time></trkpt><trkpt lat="42.5221628" lon="14.1549645"><ele>8.0</ele><time>2026-04-26T07:15:01.289Z</time></trkpt><trkpt lat="42.5221613" lon="14.1551265"><ele>7.5</ele><time>2026-04-26T07:15:02.289Z</time></trkpt><trkpt lat="42.5221487" lon="14.1552867"><ele>7.0</ele><time>2026-04-26T07:15:03.292Z</time></trkpt><trkpt lat="42.5221302" lon="14.1554423"><ele>6.5</ele><time>2026-04-26T07:15:04.29Z</time></trkpt><trkpt lat="42.5221067" lon="14.1555915"><ele>6.0</ele><time>2026-04-26T07:15:05.288Z</time></trkpt><trkpt lat="42.5220775" lon="14.1557363"><ele>5.25</ele><time>2026-04-26T07:15:06.29Z</time></trkpt><trkpt lat="42.5220402" lon="14.1558787"><ele>4.5</ele><time>2026-04-26T07:15:07.289Z</time></trkpt><trkpt lat="42.521993" lon="14.1560208"><ele>3.75</ele><time>2026-04-26T07:15:08.29Z</time></trkpt><trkpt lat="42.5219363" lon="14.1561615"><ele>3.0</ele><time>2026-04-26T07:15:09.29Z</time></trkpt><trkpt lat="42.521872" lon="14.1562978"><ele>3.0</ele><time>2026-04-26T07:15:10.289Z</time></trkpt><trkpt lat="42.5217993" lon="14.156426"><ele>3.0</ele><time>2026-04-26T07:15:11.289Z</time></trkpt><trkpt lat="42.5217192" lon="14.1565462"><ele>3.0</ele><time>2026-04-26T07:15:12.29Z</time></trkpt><trkpt lat="42.521633" lon="14.1566597"><ele>3.0</ele><time>2026-04-26T07:15:13.29Z</time></trkpt><trkpt lat="42.5215435" lon="14.1567658"><ele>3.0</ele><time>2026-04-26T07:15:14.29Z</time></trkpt><trkpt lat="42.5214517" lon="14.1568683"><ele>3.0</ele><time>2026-04-26T07:15:15.29Z</time></trkpt><trkpt lat="42.521357" lon="14.1569705"><ele>3.0</ele><time>2026-04-26T07:15:16.29Z</time></trkpt><trkpt lat="42.5212603" lon="14.1570753"><ele>3.0</ele><time>2026-04-26T07:15:17.288Z</time></trkpt><trkpt lat="42.5211638" lon="14.1571812"><ele>3.0</ele><time>2026-04-26T07:15:18.291Z</time></trkpt><trkpt lat="42.5210678" lon="14.1572862"><ele>3.0</ele><time>2026-04-26T07:15:19.29Z</time></trkpt><trkpt lat="42.5209705" lon="14.157391"><ele>3.0</ele><time>2026-04-26T07:15:20.29Z</time></trkpt><trkpt lat="42.5208735" lon="14.1574958"><ele>3.0</ele><time>2026-04-26T07:15:21.289Z</time></trkpt><trkpt lat="42.5207757" lon="14.157602"><ele>3.0</ele><time>2026-04-26T07:15:22.288Z</time></trkpt><trkpt lat="42.5206778" lon="14.157708"><ele>3.0</ele><time>2026-04-26T07:15:23.288Z</time></trkpt><trkpt lat="42.5205793" lon="14.1578135"><ele>3.0</ele><time>2026-04-26T07:15:24.286Z</time></trkpt><trkpt lat="42.5204798" lon="14.157919"><ele>3.0</ele><time>2026-04-26T07:15:25.288Z</time></trkpt><trkpt lat="42.520381" lon="14.1580255"><ele>3.0</ele><time>2026-04-26T07:15:26.289Z</time></trkpt><trkpt lat="42.520282" lon="14.1581335"><ele>3.0</ele><time>2026-04-26T07:15:27.29Z</time></trkpt><trkpt lat="42.520183" lon="14.158241"><ele>3.0</ele><time>2026-04-26T07:15:28.289Z</time></trkpt><trkpt lat="42.5200847" lon="14.1583477"><ele>3.0</ele><time>2026-04-26T07:15:29.291Z</time></trkpt><trkpt lat="42.519986" lon="14.1584548"><ele>3.0</ele><time>2026-04-26T07:15:30.29Z</time></trkpt><trkpt lat="42.5198875" lon="14.1585635"><ele>3.0</ele><time>2026-04-26T07:15:31.29Z</time></trkpt><trkpt lat="42.5197888" lon="14.158672"><ele>3.0</ele><time>2026-04-26T07:15:32.289Z</time></trkpt><trkpt lat="42.5196887" lon="14.1587787"><ele>3.0</ele><time>2026-04-26T07:15:33.291Z</time></trkpt><trkpt lat="42.5195887" lon="14.158883"><ele>2.75</ele><time>2026-04-26T07:15:34.29Z</time></trkpt><trkpt lat="42.5194907" lon="14.1589882"><ele>2.5</ele><time>2026-04-26T07:15:35.29Z</time></trkpt><trkpt lat="42.5193912" lon="14.1590948"><ele>2.25</ele><time>2026-04-26T07:15:36.29Z</time></trkpt><trkpt lat="42.5192908" lon="14.1592005"><ele>2.0</ele><time>2026-04-26T07:15:37.287Z</time></trkpt><trkpt lat="42.5191893" lon="14.1593058"><ele>2.0</ele><time>2026-04-26T07:15:38.289Z</time></trkpt><trkpt lat="42.5190923" lon="14.1594085"><ele>2.0</ele><time>2026-04-26T07:15:39.289Z</time></trkpt><trkpt lat="42.5190043" lon="14.1595067"><ele>2.0</ele><time>2026-04-26T07:15:40.29Z</time></trkpt><trkpt lat="42.5189102" lon="14.1596083"><ele>2.0</ele><time>2026-04-26T07:15:41.289Z</time></trkpt><trkpt lat="42.5188107" lon="14.1597132"><ele>1.75</ele><time>2026-04-26T07:15:42.289Z</time></trkpt><trkpt lat="42.5187095" lon="14.1598212"><ele>1.5</ele><time>2026-04-26T07:15:43.288Z</time></trkpt><trkpt lat="42.5186078" lon="14.1599315"><ele>1.25</ele><time>2026-04-26T07:15:44.291Z</time></trkpt><trkpt lat="42.5185057" lon="14.1600415"><ele>1.0</ele><time>2026-04-26T07:15:45.29Z</time></trkpt><trkpt lat="42.5184073" lon="14.1601472"><ele>0.5</ele><time>2026-04-26T07:15:46.288Z</time></trkpt><trkpt lat="42.5183152" lon="14.1602445"><ele>0.0</ele><time>2026-04-26T07:15:47.288Z</time></trkpt><trkpt lat="42.5182248" lon="14.1603402"><ele>-0.5</ele><time>2026-04-26T07:15:48.288Z</time></trkpt><trkpt lat="42.5181342" lon="14.1604373"><ele>-1.0</ele><time>2026-04-26T07:15:49.288Z</time></trkpt><trkpt lat="42.518043" lon="14.1605347"><ele>-1.0</ele><time>2026-04-26T07:15:50.288Z</time></trkpt><trkpt lat="42.5179517" lon="14.1606312"><ele>-1.0</ele><time>2026-04-26T07:15:51.29Z</time></trkpt><trkpt lat="42.5178598" lon="14.1607287"><ele>-1.0</ele><time>2026-04-26T07:15:52.29Z</time></trkpt><trkpt lat="42.5177692" lon="14.1608272"><ele>-1.0</ele><time>2026-04-26T07:15:53.289Z</time></trkpt><trkpt lat="42.5176813" lon="14.160923"><ele>-0.20000000000000007</ele><time>2026-04-26T07:15:54.288Z</time></trkpt><trkpt lat="42.5175967" lon="14.1610142"><ele>0.5999999999999999</ele><time>2026-04-26T07:15:55.287Z</time></trkpt><trkpt lat="42.5175165" lon="14.1611015"><ele>1.4</ele><time>2026-04-26T07:15:56.288Z</time></trkpt><trkpt lat="42.5174383" lon="14.1611873"><ele>2.1999999999999997</ele><time>2026-04-26T07:15:57.288Z</time></trkpt><trkpt lat="42.517363" lon="14.1612692"><ele>3.0</ele><time>2026-04-26T07:15:58.287Z</time></trkpt><trkpt lat="42.5172895" lon="14.1613475"><ele>3.0</ele><time>2026-04-26T07:15:59.29Z</time></trkpt><trkpt lat="42.5172188" lon="14.1614262"><ele>3.0</ele><time>2026-04-26T07:16:00.288Z</time></trkpt><trkpt lat="42.5171468" lon="14.1615038"><ele>3.0</ele><time>2026-04-26T07:16:01.288Z</time></trkpt><trkpt lat="42.5170722" lon="14.1615812"><ele>3.0</ele><time>2026-04-26T07:16:02.287Z</time></trkpt><trkpt lat="42.5169942" lon="14.1616657"><ele>3.0</ele><time>2026-04-26T07:16:03.288Z</time></trkpt><trkpt lat="42.5169197" lon="14.161744"><ele>3.25</ele><time>2026-04-26T07:16:04.292Z</time></trkpt><trkpt lat="42.516846" lon="14.1618193"><ele>3.5</ele><time>2026-04-26T07:16:05.289Z</time></trkpt><trkpt lat="42.5167638" lon="14.1619128"><ele>3.75</ele><time>2026-04-26T07:16:06.291Z</time></trkpt><trkpt lat="42.5166677" lon="14.1620257"><ele>4.0</ele><time>2026-04-26T07:16:07.29Z</time></trkpt><trkpt lat="42.5165593" lon="14.1621495"><ele>4.0</ele><time>2026-04-26T07:16:08.29Z</time></trkpt><trkpt lat="42.5164403" lon="14.1622818"><ele>4.0</ele><time>2026-04-26T07:16:09.289Z</time></trkpt><trkpt lat="42.5163135" lon="14.1624158"><ele>4.0</ele><time>2026-04-26T07:16:10.288Z</time></trkpt><trkpt lat="42.5161865" lon="14.1625423"><ele>4.0</ele><time>2026-04-26T07:16:11.288Z</time></trkpt><trkpt lat="42.516066" lon="14.1626648"><ele>4.0</ele><time>2026-04-26T07:16:12.286Z</time></trkpt><trkpt lat="42.5159487" lon="14.1627922"><ele>4.0</ele><time>2026-04-26T07:16:13.287Z</time></trkpt><trkpt lat="42.5158288" lon="14.1629177"><ele>4.0</ele><time>2026-04-26T07:16:14.291Z</time></trkpt><trkpt lat="42.5157097" lon="14.1630425"><ele>4.0</ele><time>2026-04-26T07:16:15.29Z</time></trkpt><trkpt lat="42.5155908" lon="14.163169"><ele>4.0</ele><time>2026-04-26T07:16:16.291Z</time></trkpt><trkpt lat="42.5154735" lon="14.1632913"><ele>3.5</ele><time>2026-04-26T07:16:17.293Z</time></trkpt><trkpt lat="42.5153577" lon="14.163415"><ele>3.0</ele><time>2026-04-26T07:16:18.29Z</time></trkpt><trkpt lat="42.5152435" lon="14.1635363"><ele>2.5</ele><time>2026-04-26T07:16:19.288Z</time></trkpt><trkpt lat="42.515134" lon="14.1636525"><ele>2.0</ele><time>2026-04-26T07:16:20.288Z</time></trkpt><trkpt lat="42.5150263" lon="14.1637675"><ele>2.0</ele><time>2026-04-26T07:16:21.289Z</time></trkpt><trkpt lat="42.514919" lon="14.163883"><ele>2.0</ele><time>2026-04-26T07:16:22.289Z</time></trkpt><trkpt lat="42.5148107" lon="14.1639993"><ele>2.0</ele><time>2026-04-26T07:16:23.289Z</time></trkpt><trkpt lat="42.5147023" lon="14.164116"><ele>2.0</ele><time>2026-04-26T07:16:24.293Z</time></trkpt><trkpt lat="42.5145947" lon="14.1642327"><ele>1.75</ele><time>2026-04-26T07:16:25.291Z</time></trkpt><trkpt lat="42.5144872" lon="14.1643482"><ele>1.5</ele><time>2026-04-26T07:16:26.291Z</time></trkpt><trkpt lat="42.51438" lon="14.1644623"><ele>1.25</ele><time>2026-04-26T07:16:27.292Z</time></trkpt><trkpt lat="42.514273" lon="14.1645757"><ele>1.0</ele><time>2026-04-26T07:16:28.291Z</time></trkpt><trkpt lat="42.5141673" lon="14.1646892"><ele>1.0</ele><time>2026-04-26T07:16:29.291Z</time></trkpt><trkpt lat="42.5140628" lon="14.1648008"><ele>1.0</ele><time>2026-04-26T07:16:30.291Z</time></trkpt><trkpt lat="42.5139655" lon="14.1649045"><ele>1.0</ele><time>2026-04-26T07:16:31.291Z</time></trkpt><trkpt lat="42.5138747" lon="14.1650035"><ele>1.0</ele><time>2026-04-26T07:16:32.291Z</time></trkpt><trkpt lat="42.5137858" lon="14.1651"><ele>1.25</ele><time>2026-04-26T07:16:33.293Z</time></trkpt><trkpt lat="42.5136967" lon="14.1651953"><ele>1.5</ele><time>2026-04-26T07:16:34.29Z</time></trkpt><trkpt lat="42.513607" lon="14.1652928"><ele>1.75</ele><time>2026-04-26T07:16:35.29Z</time></trkpt><trkpt lat="42.5135167" lon="14.1653917"><ele>2.0</ele><time>2026-04-26T07:16:36.288Z</time></trkpt><trkpt lat="42.513427" lon="14.1654897"><ele>2.0</ele><time>2026-04-26T07:16:37.287Z</time></trkpt><trkpt lat="42.5133388" lon="14.1655835"><ele>2.0</ele><time>2026-04-26T07:16:38.288Z</time></trkpt><trkpt lat="42.5132577" lon="14.1656693"><ele>2.0</ele><time>2026-04-26T07:16:39.291Z</time></trkpt><trkpt lat="42.5131827" lon="14.1657493"><ele>2.0</ele><time>2026-04-26T07:16:40.291Z</time></trkpt><trkpt lat="42.513108" lon="14.1658295"><ele>2.0</ele><time>2026-04-26T07:16:41.291Z</time></trkpt><trkpt lat="42.5130302" lon="14.1659123"><ele>2.0</ele><time>2026-04-26T07:16:42.292Z</time></trkpt><trkpt lat="42.5129537" lon="14.1659958"><ele>2.0</ele><time>2026-04-26T07:16:43.291Z</time></trkpt><trkpt lat="42.5128783" lon="14.1660783"><ele>2.0</ele><time>2026-04-26T07:16:44.291Z</time></trkpt><trkpt lat="42.5128067" lon="14.166158"><ele>2.0</ele><time>2026-04-26T07:16:45.291Z</time></trkpt><trkpt lat="42.51274" lon="14.1662305"><ele>2.0</ele><time>2026-04-26T07:16:46.29Z</time></trkpt><trkpt lat="42.5126775" lon="14.1662963"><ele>1.9999999999999998</ele><time>2026-04-26T07:16:47.29Z</time></trkpt><trkpt lat="42.5126138" lon="14.1663622"><ele>2.0</ele><time>2026-04-26T07:16:48.291Z</time></trkpt><trkpt lat="42.5125485" lon="14.1664297"><ele>2.0</ele><time>2026-04-26T07:16:49.291Z</time></trkpt><trkpt lat="42.5124825" lon="14.1664988"><ele>2.0</ele><time>2026-04-26T07:16:50.291Z</time></trkpt><trkpt lat="42.5124162" lon="14.1665692"><ele>1.9999999999999998</ele><time>2026-04-26T07:16:51.292Z</time></trkpt><trkpt lat="42.5123498" lon="14.1666412"><ele>2.0</ele><time>2026-04-26T07:16:52.291Z</time></trkpt><trkpt lat="42.5122927" lon="14.1667077"><ele>1.9999999999999998</ele><time>2026-04-26T07:16:53.292Z</time></trkpt><trkpt lat="42.5122183" lon="14.1668005"><ele>2.0</ele><time>2026-04-26T07:16:55.292Z</time></trkpt><trkpt lat="42.51215" lon="14.1668853"><ele>2.0</ele><time>2026-04-26T07:16:57.293Z</time></trkpt><trkpt lat="42.5120982" lon="14.1669395"><ele>2.0</ele><time>2026-04-26T07:16:59.289Z</time></trkpt><trkpt lat="42.512032" lon="14.1669973"><ele>1.9999999999999998</ele><time>2026-04-26T07:17:02.288Z</time></trkpt><trkpt lat="42.5119692" lon="14.167061"><ele>2.0</ele><time>2026-04-26T07:17:06.291Z</time></trkpt><trkpt lat="42.5119143" lon="14.1671157"><ele>1.9999999999999998</ele><time>2026-04-26T07:17:08.291Z</time></trkpt><trkpt lat="42.5118277" lon="14.1671967"><ele>2.0</ele><time>2026-04-26T07:17:10.291Z</time></trkpt><trkpt lat="42.5117772" lon="14.1672503"><ele>2.0</ele><time>2026-04-26T07:17:11.29Z</time></trkpt><trkpt lat="42.5117242" lon="14.167311"><ele>2.0</ele><time>2026-04-26T07:17:12.291Z</time></trkpt><trkpt lat="42.5116642" lon="14.1673772"><ele>1.9999999999999998</ele><time>2026-04-26T07:17:13.29Z</time></trkpt><trkpt lat="42.5116023" lon="14.1674435"><ele>2.0</ele><time>2026-04-26T07:17:14.291Z</time></trkpt><trkpt lat="42.5115385" lon="14.1675093"><ele>1.9999999999999998</ele><time>2026-04-26T07:17:15.292Z</time></trkpt><trkpt lat="42.5114735" lon="14.167575"><ele>2.0</ele><time>2026-04-26T07:17:16.29Z</time></trkpt><trkpt lat="42.511407" lon="14.1676418"><ele>2.0</ele><time>2026-04-26T07:17:17.29Z</time></trkpt><trkpt lat="42.5113423" lon="14.1677105"><ele>2.0</ele><time>2026-04-26T07:17:18.292Z</time></trkpt><trkpt lat="42.511275" lon="14.1677818"><ele>1.9999999999999998</ele><time>2026-04-26T07:17:19.292Z</time></trkpt><trkpt lat="42.5112085" lon="14.1678522"><ele>2.0</ele><time>2026-04-26T07:17:20.29Z</time></trkpt><trkpt lat="42.5111483" lon="14.1679163"><ele>1.9999999999999998</ele><time>2026-04-26T07:17:21.291Z</time></trkpt><trkpt lat="42.5110923" lon="14.1679758"><ele>2.0</ele><time>2026-04-26T07:17:22.291Z</time></trkpt><trkpt lat="42.5110318" lon="14.1680383"><ele>2.0</ele><time>2026-04-26T07:17:23.288Z</time></trkpt><trkpt lat="42.5109675" lon="14.1681048"><ele>2.0</ele><time>2026-04-26T07:17:24.288Z</time></trkpt><trkpt lat="42.5109002" lon="14.1681765"><ele>1.9999999999999998</ele><time>2026-04-26T07:17:25.291Z</time></trkpt><trkpt lat="42.5108297" lon="14.1682512"><ele>2.0</ele><time>2026-04-26T07:17:26.287Z</time></trkpt><trkpt lat="42.5107578" lon="14.1683273"><ele>1.9999999999999998</ele><time>2026-04-26T07:17:27.291Z</time></trkpt><trkpt lat="42.5106877" lon="14.1684022"><ele>2.0</ele><time>2026-04-26T07:17:28.291Z</time></trkpt><trkpt lat="42.510622" lon="14.1684732"><ele>2.0</ele><time>2026-04-26T07:17:29.291Z</time></trkpt><trkpt lat="42.510558" lon="14.1685418"><ele>2.0</ele><time>2026-04-26T07:17:30.291Z</time></trkpt><trkpt lat="42.5104933" lon="14.1686105"><ele>1.9999999999999998</ele><time>2026-04-26T07:17:31.292Z</time></trkpt><trkpt lat="42.5104298" lon="14.1686787"><ele>2.0</ele><time>2026-04-26T07:17:32.29Z</time></trkpt><trkpt lat="42.5103732" lon="14.1687387"><ele>1.8333333333333333</ele><time>2026-04-26T07:17:33.291Z</time></trkpt><trkpt lat="42.5102785" lon="14.1688385"><ele>1.6666666666666665</ele><time>2026-04-26T07:17:35.293Z</time></trkpt><trkpt lat="42.510226" lon="14.1688878"><ele>1.5</ele><time>2026-04-26T07:17:36.29Z</time></trkpt><trkpt lat="42.5101678" lon="14.1689323"><ele>1.3333333333333333</ele><time>2026-04-26T07:17:37.291Z</time></trkpt><trkpt lat="42.5101047" lon="14.1689657"><ele>1.1666666666666665</ele><time>2026-04-26T07:17:38.289Z</time></trkpt><trkpt lat="42.5099845" lon="14.1689633"><ele>1.0</ele><time>2026-04-26T07:17:40.291Z</time></trkpt><trkpt lat="42.5099255" lon="14.168924"><ele>0.9999999999999999</ele><time>2026-04-26T07:17:41.291Z</time></trkpt><trkpt lat="42.5098737" lon="14.1688623"><ele>1.0</ele><time>2026-04-26T07:17:42.291Z</time></trkpt><trkpt lat="42.5098285" lon="14.1687902"><ele>1.0</ele><time>2026-04-26T07:17:43.292Z</time></trkpt><trkpt lat="42.509781" lon="14.168715"><ele>1.0</ele><time>2026-04-26T07:17:44.29Z</time></trkpt><trkpt lat="42.5097277" lon="14.1686358"><ele>0.9999999999999999</ele><time>2026-04-26T07:17:45.289Z</time></trkpt><trkpt lat="42.5096703" lon="14.1685485"><ele>1.0</ele><time>2026-04-26T07:17:46.289Z</time></trkpt><trkpt lat="42.5096112" lon="14.1684563"><ele>1.1666666666666665</ele><time>2026-04-26T07:17:47.288Z</time></trkpt><trkpt lat="42.5095507" lon="14.1683615"><ele>1.3333333333333333</ele><time>2026-04-26T07:17:48.287Z</time></trkpt><trkpt lat="42.509492" lon="14.1682685"><ele>1.5</ele><time>2026-04-26T07:17:49.285Z</time></trkpt><trkpt lat="42.509437" lon="14.1681798"><ele>1.6666666666666665</ele><time>2026-04-26T07:17:50.286Z</time></trkpt><trkpt lat="42.5093835" lon="14.1680972"><ele>1.8333333333333333</ele><time>2026-04-26T07:17:51.287Z</time></trkpt><trkpt lat="42.5093307" lon="14.168016"><ele>2.0</ele><time>2026-04-26T07:17:52.286Z</time></trkpt><trkpt lat="42.5092773" lon="14.1679335"><ele>2.2</ele><time>2026-04-26T07:17:53.289Z</time></trkpt><trkpt lat="42.509212" lon="14.1678443"><ele>2.4000000000000004</ele><time>2026-04-26T07:17:54.29Z</time></trkpt><trkpt lat="42.5091377" lon="14.1677415"><ele>2.5999999999999996</ele><time>2026-04-26T07:17:55.287Z</time></trkpt><trkpt lat="42.5090672" lon="14.1676422"><ele>2.8</ele><time>2026-04-26T07:17:56.288Z</time></trkpt><trkpt lat="42.509005" lon="14.1675485"><ele>3.0</ele><time>2026-04-26T07:17:57.29Z</time></trkpt><trkpt lat="42.5089355" lon="14.167443"><ele>3.0</ele><time>2026-04-26T07:17:58.288Z</time></trkpt><trkpt lat="42.5088537" lon="14.1673193"><ele>3.0</ele><time>2026-04-26T07:17:59.288Z</time></trkpt><trkpt lat="42.508764" lon="14.1671803"><ele>3.0</ele><time>2026-04-26T07:18:00.29Z</time></trkpt><trkpt lat="42.5086735" lon="14.167027"><ele>3.0</ele><time>2026-04-26T07:18:01.29Z</time></trkpt><trkpt lat="42.508581" lon="14.1668657"><ele>2.75</ele><time>2026-04-26T07:18:02.288Z</time></trkpt><trkpt lat="42.5084865" lon="14.1667078"><ele>2.5</ele><time>2026-04-26T07:18:03.289Z</time></trkpt><trkpt lat="42.5083968" lon="14.1665652"><ele>2.25</ele><time>2026-04-26T07:18:04.288Z</time></trkpt><trkpt lat="42.5083202" lon="14.1664435"><ele>2.0</ele><time>2026-04-26T07:18:05.29Z</time></trkpt><trkpt lat="42.5082602" lon="14.1663492"><ele>2.5</ele><time>2026-04-26T07:18:06.29Z</time></trkpt><trkpt lat="42.5082133" lon="14.1662743"><ele>3.0</ele><time>2026-04-26T07:18:07.289Z</time></trkpt><trkpt lat="42.5081692" lon="14.1662035"><ele>3.5</ele><time>2026-04-26T07:18:08.289Z</time></trkpt><trkpt lat="42.5081215" lon="14.1661308"><ele>4.0</ele><time>2026-04-26T07:18:09.287Z</time></trkpt><trkpt lat="42.5080718" lon="14.1660517"><ele>4.5</ele><time>2026-04-26T07:18:10.286Z</time></trkpt><trkpt lat="42.5080175" lon="14.1659645"><ele>5.0</ele><time>2026-04-26T07:18:11.288Z</time></trkpt><trkpt lat="42.507957" lon="14.1658705"><ele>4.6</ele><time>2026-04-26T07:18:12.287Z</time></trkpt><trkpt lat="42.5078898" lon="14.1657705"><ele>4.2</ele><time>2026-04-26T07:18:13.286Z</time></trkpt><trkpt lat="42.5078195" lon="14.1656642"><ele>3.8</ele><time>2026-04-26T07:18:14.287Z</time></trkpt><trkpt lat="42.5077463" lon="14.165553"><ele>3.4</ele><time>2026-04-26T07:18:15.288Z</time></trkpt><trkpt lat="42.5076727" lon="14.1654395"><ele>3.0</ele><time>2026-04-26T07:18:16.287Z</time></trkpt><trkpt lat="42.5076013" lon="14.1653277"><ele>3.0</ele><time>2026-04-26T07:18:17.288Z</time></trkpt><trkpt lat="42.5075328" lon="14.1652212"><ele>3.0</ele><time>2026-04-26T07:18:18.289Z</time></trkpt><trkpt lat="42.5074697" lon="14.1651233"><ele>3.0</ele><time>2026-04-26T07:18:19.29Z</time></trkpt><trkpt lat="42.5074145" lon="14.1650397"><ele>3.0</ele><time>2026-04-26T07:18:20.289Z</time></trkpt><trkpt lat="42.5073672" lon="14.1649672"><ele>3.0</ele><time>2026-04-26T07:18:21.289Z</time></trkpt><trkpt lat="42.5073255" lon="14.164902"><ele>3.0</ele><time>2026-04-26T07:18:22.29Z</time></trkpt><trkpt lat="42.507236" lon="14.1647673"><ele>2.8</ele><time>2026-04-26T07:18:24.29Z</time></trkpt><trkpt lat="42.5071745" lon="14.1646908"><ele>2.5999999999999996</ele><time>2026-04-26T07:18:25.29Z</time></trkpt><trkpt lat="42.5071055" lon="14.1645998"><ele>2.4000000000000004</ele><time>2026-04-26T07:18:26.291Z</time></trkpt><trkpt lat="42.5070298" lon="14.1644878"><ele>2.2</ele><time>2026-04-26T07:18:27.29Z</time></trkpt><trkpt lat="42.506947" lon="14.1643658"><ele>2.0</ele><time>2026-04-26T07:18:28.287Z</time></trkpt><trkpt lat="42.5068568" lon="14.1642385"><ele>2.0</ele><time>2026-04-26T07:18:29.287Z</time></trkpt><trkpt lat="42.5067657" lon="14.1641017"><ele>2.0</ele><time>2026-04-26T07:18:30.287Z</time></trkpt><trkpt lat="42.5066722" lon="14.1639628"><ele>2.0</ele><time>2026-04-26T07:18:31.287Z</time></trkpt><trkpt lat="42.5065798" lon="14.1638257"><ele>2.0</ele><time>2026-04-26T07:18:32.287Z</time></trkpt><trkpt lat="42.5064928" lon="14.163697"><ele>2.0</ele><time>2026-04-26T07:18:33.288Z</time></trkpt><trkpt lat="42.5064132" lon="14.1635813"><ele>2.0</ele><time>2026-04-26T07:18:34.288Z</time></trkpt><trkpt lat="42.5063415" lon="14.1634755"><ele>2.0</ele><time>2026-04-26T07:18:35.287Z</time></trkpt><trkpt lat="42.506278" lon="14.1633792"><ele>2.0</ele><time>2026-04-26T07:18:36.29Z</time></trkpt><trkpt lat="42.5062188" lon="14.1632952"><ele>2.0</ele><time>2026-04-26T07:18:37.286Z</time></trkpt><trkpt lat="42.5061662" lon="14.1632192"><ele>2.0</ele><time>2026-04-26T07:18:38.288Z</time></trkpt><trkpt lat="42.5061183" lon="14.163151"><ele>2.0</ele><time>2026-04-26T07:18:39.287Z</time></trkpt><trkpt lat="42.5060388" lon="14.163028"><ele>2.0</ele><time>2026-04-26T07:18:41.288Z</time></trkpt><trkpt lat="42.5059635" lon="14.1629135"><ele>2.0</ele><time>2026-04-26T07:18:43.289Z</time></trkpt><trkpt lat="42.5058857" lon="14.1628535"><ele>2.0</ele><time>2026-04-26T07:18:45.293Z</time></trkpt><trkpt lat="42.5057875" lon="14.1629003"><ele>2.0</ele><time>2026-04-26T07:18:47.289Z</time></trkpt><trkpt lat="42.5057313" lon="14.1629648"><ele>2.0</ele><time>2026-04-26T07:18:48.29Z</time></trkpt><trkpt lat="42.5056675" lon="14.16305"><ele>2.0</ele><time>2026-04-26T07:18:49.29Z</time></trkpt><trkpt lat="42.5055953" lon="14.1631532"><ele>2.0</ele><time>2026-04-26T07:18:50.29Z</time></trkpt><trkpt lat="42.5055118" lon="14.163266"><ele>2.0</ele><time>2026-04-26T07:18:51.289Z</time></trkpt><trkpt lat="42.5054197" lon="14.1633885"><ele>2.25</ele><time>2026-04-26T07:18:52.289Z</time></trkpt><trkpt lat="42.5053227" lon="14.1635118"><ele>2.5</ele><time>2026-04-26T07:18:53.287Z</time></trkpt><trkpt lat="42.5052192" lon="14.1636362"><ele>2.75</ele><time>2026-04-26T07:18:54.288Z</time></trkpt><trkpt lat="42.5051123" lon="14.1637608"><ele>3.0</ele><time>2026-04-26T07:18:55.292Z</time></trkpt><trkpt lat="42.5050043" lon="14.1638855"><ele>3.0</ele><time>2026-04-26T07:18:56.288Z</time></trkpt><trkpt lat="42.5048967" lon="14.1640117"><ele>3.0</ele><time>2026-04-26T07:18:57.289Z</time></trkpt><trkpt lat="42.5047888" lon="14.1641405"><ele>3.0</ele><time>2026-04-26T07:18:58.289Z</time></trkpt><trkpt lat="42.5046808" lon="14.1642728"><ele>3.0</ele><time>2026-04-26T07:18:59.292Z</time></trkpt><trkpt lat="42.5045712" lon="14.1644075"><ele>3.0</ele><time>2026-04-26T07:19:00.289Z</time></trkpt><trkpt lat="42.5044597" lon="14.1645423"><ele>3.0</ele><time>2026-04-26T07:19:01.288Z</time></trkpt><trkpt lat="42.5043478" lon="14.1646785"><ele>3.0</ele><time>2026-04-26T07:19:02.286Z</time></trkpt><trkpt lat="42.504235" lon="14.1648157"><ele>2.75</ele><time>2026-04-26T07:19:03.287Z</time></trkpt><trkpt lat="42.5041233" lon="14.1649515"><ele>2.5</ele><time>2026-04-26T07:19:04.287Z</time></trkpt><trkpt lat="42.5040148" lon="14.1650832"><ele>2.25</ele><time>2026-04-26T07:19:05.287Z</time></trkpt><trkpt lat="42.503908" lon="14.1652123"><ele>2.0</ele><time>2026-04-26T07:19:06.29Z</time></trkpt><trkpt lat="42.5038025" lon="14.16534"><ele>2.75</ele><time>2026-04-26T07:19:07.291Z</time></trkpt><trkpt lat="42.5036972" lon="14.1654655"><ele>3.5</ele><time>2026-04-26T07:19:08.289Z</time></trkpt><trkpt lat="42.5035922" lon="14.1655908"><ele>4.25</ele><time>2026-04-26T07:19:09.29Z</time></trkpt><trkpt lat="42.503488" lon="14.1657158"><ele>5.0</ele><time>2026-04-26T07:19:10.289Z</time></trkpt><trkpt lat="42.5033845" lon="14.1658405"><ele>5.0</ele><time>2026-04-26T07:19:11.293Z</time></trkpt><trkpt lat="42.5032817" lon="14.165966"><ele>5.0</ele><time>2026-04-26T07:19:12.29Z</time></trkpt><trkpt lat="42.5031785" lon="14.1660918"><ele>5.0</ele><time>2026-04-26T07:19:13.289Z</time></trkpt><trkpt lat="42.5030743" lon="14.1662173"><ele>5.0</ele><time>2026-04-26T07:19:14.287Z</time></trkpt><trkpt lat="42.5029692" lon="14.1663422"><ele>4.75</ele><time>2026-04-26T07:19:15.291Z</time></trkpt><trkpt lat="42.5028625" lon="14.166468"><ele>4.5</ele><time>2026-04-26T07:19:16.29Z</time></trkpt><trkpt lat="42.5027572" lon="14.1665957"><ele>4.25</ele><time>2026-04-26T07:19:17.29Z</time></trkpt><trkpt lat="42.5026532" lon="14.1667233"><ele>4.0</ele><time>2026-04-26T07:19:18.288Z</time></trkpt><trkpt lat="42.5025595" lon="14.1668408"><ele>4.0</ele><time>2026-04-26T07:19:19.288Z</time></trkpt><trkpt lat="42.5024727" lon="14.1669563"><ele>4.0</ele><time>2026-04-26T07:19:20.289Z</time></trkpt><trkpt lat="42.5023828" lon="14.1670728"><ele>4.0</ele><time>2026-04-26T07:19:21.288Z</time></trkpt><trkpt lat="42.5022862" lon="14.1671875"><ele>4.0</ele><time>2026-04-26T07:19:22.289Z</time></trkpt><trkpt lat="42.5021857" lon="14.167303"><ele>4.0</ele><time>2026-04-26T07:19:23.289Z</time></trkpt><trkpt lat="42.502085" lon="14.1674227"><ele>4.0</ele><time>2026-04-26T07:19:24.29Z</time></trkpt><trkpt lat="42.5019843" lon="14.1675453"><ele>4.0</ele><time>2026-04-26T07:19:25.289Z</time></trkpt><trkpt lat="42.5018828" lon="14.1676695"><ele>4.0</ele><time>2026-04-26T07:19:26.287Z</time></trkpt><trkpt lat="42.5017808" lon="14.1677932"><ele>4.0</ele><time>2026-04-26T07:19:27.286Z</time></trkpt><trkpt lat="42.501678" lon="14.1679162"><ele>4.0</ele><time>2026-04-26T07:19:28.287Z</time></trkpt><trkpt lat="42.5015752" lon="14.1680402"><ele>4.0</ele><time>2026-04-26T07:19:29.284Z</time></trkpt><trkpt lat="42.5014715" lon="14.1681643"><ele>4.0</ele><time>2026-04-26T07:19:30.287Z</time></trkpt><trkpt lat="42.5013728" lon="14.1682837"><ele>4.0</ele><time>2026-04-26T07:19:31.287Z</time></trkpt><trkpt lat="42.5012753" lon="14.1684057"><ele>4.0</ele><time>2026-04-26T07:19:32.288Z</time></trkpt><trkpt lat="42.5011735" lon="14.1685307"><ele>4.0</ele><time>2026-04-26T07:19:33.287Z</time></trkpt><trkpt lat="42.5010687" lon="14.1686592"><ele>4.0</ele><time>2026-04-26T07:19:34.29Z</time></trkpt><trkpt lat="42.5009622" lon="14.1687905"><ele>4.0</ele><time>2026-04-26T07:19:35.287Z</time></trkpt><trkpt lat="42.500857" lon="14.168921"><ele>4.0</ele><time>2026-04-26T07:19:36.288Z</time></trkpt><trkpt lat="42.5007515" lon="14.1690472"><ele>4.0</ele><time>2026-04-26T07:19:37.289Z</time></trkpt><trkpt lat="42.500645" lon="14.1691727"><ele>4.0</ele><time>2026-04-26T07:19:38.289Z</time></trkpt><trkpt lat="42.50054" lon="14.1693002"><ele>4.0</ele><time>2026-04-26T07:19:39.289Z</time></trkpt><trkpt lat="42.500435" lon="14.1694282"><ele>4.0</ele><time>2026-04-26T07:19:40.288Z</time></trkpt><trkpt lat="42.5003305" lon="14.1695563"><ele>4.0</ele><time>2026-04-26T07:19:41.288Z</time></trkpt><trkpt lat="42.500225" lon="14.1696832"><ele>4.0</ele><time>2026-04-26T07:19:42.289Z</time></trkpt><trkpt lat="42.5001213" lon="14.1698093"><ele>3.6</ele><time>2026-04-26T07:19:43.299Z</time></trkpt><trkpt lat="42.500025" lon="14.1699263"><ele>3.2</ele><time>2026-04-26T07:19:44.289Z</time></trkpt><trkpt lat="42.4999378" lon="14.1700333"><ele>2.8000000000000003</ele><time>2026-04-26T07:19:45.29Z</time></trkpt><trkpt lat="42.4998592" lon="14.1701295"><ele>2.4000000000000004</ele><time>2026-04-26T07:19:46.289Z</time></trkpt><trkpt lat="42.4997888" lon="14.1702167"><ele>2.0</ele><time>2026-04-26T07:19:47.288Z</time></trkpt><trkpt lat="42.4997222" lon="14.1703012"><ele>2.0</ele><time>2026-04-26T07:19:48.29Z</time></trkpt><trkpt lat="42.4996542" lon="14.1703892"><ele>2.0</ele><time>2026-04-26T07:19:49.289Z</time></trkpt><trkpt lat="42.4995843" lon="14.1704817"><ele>2.0</ele><time>2026-04-26T07:19:50.288Z</time></trkpt><trkpt lat="42.499512" lon="14.1705773"><ele>2.0</ele><time>2026-04-26T07:19:51.286Z</time></trkpt><trkpt lat="42.4994325" lon="14.1706807"><ele>2.0</ele><time>2026-04-26T07:19:52.287Z</time></trkpt><trkpt lat="42.499348" lon="14.1707855"><ele>2.5</ele><time>2026-04-26T07:19:53.286Z</time></trkpt><trkpt lat="42.4992698" lon="14.1708822"><ele>3.0</ele><time>2026-04-26T07:19:54.288Z</time></trkpt><trkpt lat="42.499188" lon="14.1709818"><ele>3.5</ele><time>2026-04-26T07:19:55.291Z</time></trkpt><trkpt lat="42.4990997" lon="14.1710888"><ele>4.0</ele><time>2026-04-26T07:19:56.288Z</time></trkpt><trkpt lat="42.4990095" lon="14.1711938"><ele>4.0</ele><time>2026-04-26T07:19:57.291Z</time></trkpt><trkpt lat="42.4989192" lon="14.1712882"><ele>4.0</ele><time>2026-04-26T07:19:58.29Z</time></trkpt><trkpt lat="42.498837" lon="14.171372"><ele>4.0</ele><time>2026-04-26T07:19:59.289Z</time></trkpt><trkpt lat="42.4987577" lon="14.1714588"><ele>4.0</ele><time>2026-04-26T07:20:00.291Z</time></trkpt><trkpt lat="42.4986745" lon="14.171555"><ele>4.0</ele><time>2026-04-26T07:20:01.29Z</time></trkpt><trkpt lat="42.4985903" lon="14.171664"><ele>3.75</ele><time>2026-04-26T07:20:02.29Z</time></trkpt><trkpt lat="42.498502" lon="14.1717808"><ele>3.5</ele><time>2026-04-26T07:20:03.291Z</time></trkpt><trkpt lat="42.4984075" lon="14.1719002"><ele>3.25</ele><time>2026-04-26T07:20:04.292Z</time></trkpt><trkpt lat="42.4983102" lon="14.1720212"><ele>3.0</ele><time>2026-04-26T07:20:05.29Z</time></trkpt><trkpt lat="42.4982112" lon="14.172143"><ele>3.0</ele><time>2026-04-26T07:20:06.291Z</time></trkpt><trkpt lat="42.4981112" lon="14.1722655"><ele>3.0</ele><time>2026-04-26T07:20:07.29Z</time></trkpt><trkpt lat="42.49801" lon="14.1723882"><ele>3.0</ele><time>2026-04-26T07:20:08.288Z</time></trkpt><trkpt lat="42.4979098" lon="14.1725113"><ele>3.0</ele><time>2026-04-26T07:20:09.289Z</time></trkpt><trkpt lat="42.4978107" lon="14.1726308"><ele>3.5</ele><time>2026-04-26T07:20:10.288Z</time></trkpt><trkpt lat="42.4977138" lon="14.1727468"><ele>4.0</ele><time>2026-04-26T07:20:11.289Z</time></trkpt><trkpt lat="42.4976197" lon="14.1728593"><ele>4.5</ele><time>2026-04-26T07:20:12.29Z</time></trkpt><trkpt lat="42.4975322" lon="14.1729642"><ele>5.0</ele><time>2026-04-26T07:20:13.289Z</time></trkpt><trkpt lat="42.4974542" lon="14.1730585"><ele>5.0</ele><time>2026-04-26T07:20:14.288Z</time></trkpt><trkpt lat="42.4973838" lon="14.1731432"><ele>5.0</ele><time>2026-04-26T07:20:15.288Z</time></trkpt><trkpt lat="42.4973202" lon="14.1732187"><ele>5.0</ele><time>2026-04-26T07:20:16.286Z</time></trkpt><trkpt lat="42.4972635" lon="14.1732862"><ele>5.0</ele><time>2026-04-26T07:20:17.285Z</time></trkpt><trkpt lat="42.4972113" lon="14.1733513"><ele>5.0</ele><time>2026-04-26T07:20:18.287Z</time></trkpt><trkpt lat="42.4971595" lon="14.1734173"><ele>5.0</ele><time>2026-04-26T07:20:19.288Z</time></trkpt><trkpt lat="42.4971092" lon="14.1734798"><ele>5.0</ele><time>2026-04-26T07:20:20.289Z</time></trkpt><trkpt lat="42.497062" lon="14.1735385"><ele>5.0</ele><time>2026-04-26T07:20:21.29Z</time></trkpt><trkpt lat="42.4969788" lon="14.1736418"><ele>5.0</ele><time>2026-04-26T07:20:23.29Z</time></trkpt><trkpt lat="42.4969217" lon="14.1737155"><ele>5.0</ele><time>2026-04-26T07:20:25.29Z</time></trkpt><trkpt lat="42.4968753" lon="14.1737742"><ele>5.0</ele><time>2026-04-26T07:20:30.29Z</time></trkpt><trkpt lat="42.4968122" lon="14.1738713"><ele>5.0</ele><time>2026-04-26T07:21:02.286Z</time></trkpt><trkpt lat="42.4967768" lon="14.1739973"><ele>4.6</ele><time>2026-04-26T07:21:04.286Z</time></trkpt><trkpt lat="42.4968545" lon="14.1741387"><ele>4.2</ele><time>2026-04-26T07:21:06.286Z</time></trkpt><trkpt lat="42.4969182" lon="14.1742198"><ele>3.8</ele><time>2026-04-26T07:21:07.286Z</time></trkpt><trkpt lat="42.4969842" lon="14.1743168"><ele>3.4</ele><time>2026-04-26T07:21:08.286Z</time></trkpt><trkpt lat="42.4970532" lon="14.1744175"><ele>3.0</ele><time>2026-04-26T07:21:09.288Z</time></trkpt><trkpt lat="42.4971243" lon="14.1745267"><ele>3.0</ele><time>2026-04-26T07:21:10.29Z</time></trkpt><trkpt lat="42.4971983" lon="14.1746418"><ele>3.0</ele><time>2026-04-26T07:21:11.287Z</time></trkpt><trkpt lat="42.4972742" lon="14.1747602"><ele>3.0</ele><time>2026-04-26T07:21:12.287Z</time></trkpt><trkpt lat="42.4973518" lon="14.1748788"><ele>3.0</ele><time>2026-04-26T07:21:13.288Z</time></trkpt><trkpt lat="42.4974315" lon="14.1749975"><ele>3.0</ele><time>2026-04-26T07:21:14.287Z</time></trkpt><trkpt lat="42.4975112" lon="14.1751177"><ele>3.0</ele><time>2026-04-26T07:21:15.293Z</time></trkpt><trkpt lat="42.4975917" lon="14.1752385"><ele>3.0</ele><time>2026-04-26T07:21:16.29Z</time></trkpt><trkpt lat="42.4976725" lon="14.1753577"><ele>3.0</ele><time>2026-04-26T07:21:17.287Z</time></trkpt><trkpt lat="42.4977525" lon="14.1754728"><ele>3.0</ele><time>2026-04-26T07:21:18.287Z</time></trkpt><trkpt lat="42.497828" lon="14.1755877"><ele>3.0</ele><time>2026-04-26T07:21:19.287Z</time></trkpt><trkpt lat="42.4979013" lon="14.1756982"><ele>3.0</ele><time>2026-04-26T07:21:20.287Z</time></trkpt><trkpt lat="42.4979697" lon="14.1757947"><ele>3.0</ele><time>2026-04-26T07:21:21.289Z</time></trkpt><trkpt lat="42.4980293" lon="14.1758912"><ele>3.0</ele><time>2026-04-26T07:21:22.294Z</time></trkpt><trkpt lat="42.4980957" lon="14.1759928"><ele>3.2</ele><time>2026-04-26T07:21:23.289Z</time></trkpt><trkpt lat="42.4981693" lon="14.1761018"><ele>3.4</ele><time>2026-04-26T07:21:24.288Z</time></trkpt><trkpt lat="42.498248" lon="14.1762128"><ele>3.6000000000000005</ele><time>2026-04-26T07:21:25.288Z</time></trkpt><trkpt lat="42.4983233" lon="14.1763232"><ele>3.8000000000000003</ele><time>2026-04-26T07:21:26.293Z</time></trkpt><trkpt lat="42.4983982" lon="14.1764368"><ele>4.0</ele><time>2026-04-26T07:21:27.291Z</time></trkpt><trkpt lat="42.4984723" lon="14.1765517"><ele>4.2</ele><time>2026-04-26T07:21:28.288Z</time></trkpt><trkpt lat="42.4985397" lon="14.1766608"><ele>4.4</ele><time>2026-04-26T07:21:29.286Z</time></trkpt><trkpt lat="42.4986107" lon="14.1767727"><ele>4.6</ele><time>2026-04-26T07:21:30.287Z</time></trkpt><trkpt lat="42.4986863" lon="14.1768882"><ele>4.8</ele><time>2026-04-26T07:21:31.286Z</time></trkpt><trkpt lat="42.498763" lon="14.1770052"><ele>5.0</ele><time>2026-04-26T07:21:32.285Z</time></trkpt><trkpt lat="42.498842" lon="14.1771208"><ele>5.0</ele><time>2026-04-26T07:21:33.288Z</time></trkpt><trkpt lat="42.4989205" lon="14.1772437"><ele>5.0</ele><time>2026-04-26T07:21:34.291Z</time></trkpt><trkpt lat="42.4990028" lon="14.1773647"><ele>5.0</ele><time>2026-04-26T07:21:35.291Z</time></trkpt><trkpt lat="42.4990835" lon="14.177486"><ele>5.0</ele><time>2026-04-26T07:21:36.291Z</time></trkpt><trkpt lat="42.4991633" lon="14.1776042"><ele>5.166666666666667</ele><time>2026-04-26T07:21:37.288Z</time></trkpt><trkpt lat="42.4992398" lon="14.1777227"><ele>5.333333333333334</ele><time>2026-04-26T07:21:38.288Z</time></trkpt><trkpt lat="42.4993053" lon="14.1778313"><ele>5.5</ele><time>2026-04-26T07:21:39.288Z</time></trkpt><trkpt lat="42.4993555" lon="14.1779082"><ele>5.666666666666667</ele><time>2026-04-26T07:21:40.286Z</time></trkpt><trkpt lat="42.4993962" lon="14.1779743"><ele>5.833333333333333</ele><time>2026-04-26T07:21:41.287Z</time></trkpt><trkpt lat="42.4994415" lon="14.1780538"><ele>6.0</ele><time>2026-04-26T07:21:42.287Z</time></trkpt><trkpt lat="42.4994955" lon="14.1781463"><ele>5.833333333333333</ele><time>2026-04-26T07:21:43.288Z</time></trkpt><trkpt lat="42.499556" lon="14.1782422"><ele>5.666666666666667</ele><time>2026-04-26T07:21:44.287Z</time></trkpt><trkpt lat="42.4996138" lon="14.1783328"><ele>5.5</ele><time>2026-04-26T07:21:45.289Z</time></trkpt><trkpt lat="42.499665" lon="14.1784122"><ele>5.333333333333334</ele><time>2026-04-26T07:21:46.287Z</time></trkpt><trkpt lat="42.4997073" lon="14.1784802"><ele>5.166666666666667</ele><time>2026-04-26T07:21:47.287Z</time></trkpt><trkpt lat="42.4997512" lon="14.1786022"><ele>5.0</ele><time>2026-04-26T07:21:49.29Z</time></trkpt><trkpt lat="42.4997285" lon="14.1787335"><ele>5.0</ele><time>2026-04-26T07:21:51.291Z</time></trkpt><trkpt lat="42.4996817" lon="14.1788025"><ele>5.0</ele><time>2026-04-26T07:21:52.291Z</time></trkpt><trkpt lat="42.4996075" lon="14.1788823"><ele>5.0</ele><time>2026-04-26T07:21:53.286Z</time></trkpt><trkpt lat="42.4995182" lon="14.1789763"><ele>5.0</ele><time>2026-04-26T07:21:54.287Z</time></trkpt><trkpt lat="42.4994245" lon="14.1790785"><ele>5.0</ele><time>2026-04-26T07:21:55.288Z</time></trkpt><trkpt lat="42.4993242" lon="14.1791852"><ele>4.75</ele><time>2026-04-26T07:21:56.288Z</time></trkpt><trkpt lat="42.4992175" lon="14.179296"><ele>4.5</ele><time>2026-04-26T07:21:57.29Z</time></trkpt><trkpt lat="42.4991088" lon="14.1794108"><ele>4.25</ele><time>2026-04-26T07:21:58.291Z</time></trkpt><trkpt lat="42.4989995" lon="14.1795265"><ele>4.0</ele><time>2026-04-26T07:21:59.291Z</time></trkpt><trkpt lat="42.4988897" lon="14.1796422"><ele>4.0</ele><time>2026-04-26T07:22:00.289Z</time></trkpt><trkpt lat="42.498779" lon="14.1797568"><ele>4.0</ele><time>2026-04-26T07:22:01.29Z</time></trkpt><trkpt lat="42.498669" lon="14.1798712"><ele>4.0</ele><time>2026-04-26T07:22:02.29Z</time></trkpt><trkpt lat="42.4985578" lon="14.1799845"><ele>4.0</ele><time>2026-04-26T07:22:03.29Z</time></trkpt><trkpt lat="42.4984468" lon="14.1800982"><ele>4.25</ele><time>2026-04-26T07:22:04.29Z</time></trkpt><trkpt lat="42.4983347" lon="14.1802122"><ele>4.5</ele><time>2026-04-26T07:22:05.289Z</time></trkpt><trkpt lat="42.498222" lon="14.1803253"><ele>4.75</ele><time>2026-04-26T07:22:06.292Z</time></trkpt><trkpt lat="42.4981092" lon="14.18044"><ele>5.0</ele><time>2026-04-26T07:22:07.294Z</time></trkpt><trkpt lat="42.4979963" lon="14.1805548"><ele>5.25</ele><time>2026-04-26T07:22:08.289Z</time></trkpt><trkpt lat="42.4978845" lon="14.1806708"><ele>5.5</ele><time>2026-04-26T07:22:09.291Z</time></trkpt><trkpt lat="42.4977725" lon="14.1807882"><ele>5.75</ele><time>2026-04-26T07:22:10.288Z</time></trkpt><trkpt lat="42.49766" lon="14.1809065"><ele>6.0</ele><time>2026-04-26T07:22:11.288Z</time></trkpt><trkpt lat="42.497545" lon="14.1810252"><ele>6.0</ele><time>2026-04-26T07:22:12.289Z</time></trkpt><trkpt lat="42.4974288" lon="14.1811453"><ele>6.0</ele><time>2026-04-26T07:22:13.29Z</time></trkpt><trkpt lat="42.4973115" lon="14.181266"><ele>6.0</ele><time>2026-04-26T07:22:14.29Z</time></trkpt><trkpt lat="42.497194" lon="14.1813863"><ele>6.0</ele><time>2026-04-26T07:22:15.294Z</time></trkpt><trkpt lat="42.4970762" lon="14.1815078"><ele>5.75</ele><time>2026-04-26T07:22:16.29Z</time></trkpt><trkpt lat="42.4969582" lon="14.1816288"><ele>5.5</ele><time>2026-04-26T07:22:17.291Z</time></trkpt><trkpt lat="42.49684" lon="14.1817507"><ele>5.25</ele><time>2026-04-26T07:22:18.287Z</time></trkpt><trkpt lat="42.4967217" lon="14.1818712"><ele>5.0</ele><time>2026-04-26T07:22:19.288Z</time></trkpt><trkpt lat="42.4966055" lon="14.1819907"><ele>5.0</ele><time>2026-04-26T07:22:20.287Z</time></trkpt><trkpt lat="42.4964913" lon="14.1821115"><ele>5.0</ele><time>2026-04-26T07:22:21.288Z</time></trkpt><trkpt lat="42.4963815" lon="14.1822278"><ele>5.0</ele><time>2026-04-26T07:22:22.29Z</time></trkpt><trkpt lat="42.4962788" lon="14.1823385"><ele>5.0</ele><time>2026-04-26T07:22:23.289Z</time></trkpt><trkpt lat="42.4961733" lon="14.1824487"><ele>4.25</ele><time>2026-04-26T07:22:24.29Z</time></trkpt><trkpt lat="42.4960675" lon="14.182562"><ele>3.5</ele><time>2026-04-26T07:22:25.29Z</time></trkpt><trkpt lat="42.4959642" lon="14.1826755"><ele>2.75</ele><time>2026-04-26T07:22:26.29Z</time></trkpt><trkpt lat="42.4958615" lon="14.1827868"><ele>2.0</ele><time>2026-04-26T07:22:27.29Z</time></trkpt><trkpt lat="42.4957577" lon="14.1828993"><ele>2.0</ele><time>2026-04-26T07:22:28.29Z</time></trkpt><trkpt lat="42.4956498" lon="14.1830095"><ele>2.0</ele><time>2026-04-26T07:22:29.29Z</time></trkpt><trkpt lat="42.4955342" lon="14.1831152"><ele>2.0</ele><time>2026-04-26T07:22:30.294Z</time></trkpt><trkpt lat="42.4954167" lon="14.183227"><ele>2.0</ele><time>2026-04-26T07:22:31.289Z</time></trkpt><trkpt lat="42.4952992" lon="14.1833448"><ele>2.75</ele><time>2026-04-26T07:22:32.289Z</time></trkpt><trkpt lat="42.4951798" lon="14.183464"><ele>3.5</ele><time>2026-04-26T07:22:33.29Z</time></trkpt><trkpt lat="42.4950605" lon="14.183589"><ele>4.25</ele><time>2026-04-26T07:22:34.289Z</time></trkpt><trkpt lat="42.4949413" lon="14.183712"><ele>5.0</ele><time>2026-04-26T07:22:35.29Z</time></trkpt><trkpt lat="42.4948228" lon="14.183834"><ele>5.0</ele><time>2026-04-26T07:22:36.291Z</time></trkpt><trkpt lat="42.4947082" lon="14.183952"><ele>5.0</ele><time>2026-04-26T07:22:37.29Z</time></trkpt><trkpt lat="42.494603" lon="14.1840598"><ele>5.0</ele><time>2026-04-26T07:22:38.291Z</time></trkpt><trkpt lat="42.4945065" lon="14.1841608"><ele>5.0</ele><time>2026-04-26T07:22:39.29Z</time></trkpt><trkpt lat="42.494412" lon="14.1842598"><ele>5.0</ele><time>2026-04-26T07:22:40.291Z</time></trkpt><trkpt lat="42.4943157" lon="14.1843575"><ele>5.0</ele><time>2026-04-26T07:22:41.288Z</time></trkpt><trkpt lat="42.4942185" lon="14.1844522"><ele>5.0</ele><time>2026-04-26T07:22:42.288Z</time></trkpt><trkpt lat="42.4941197" lon="14.1845507"><ele>5.0</ele><time>2026-04-26T07:22:43.288Z</time></trkpt><trkpt lat="42.4940178" lon="14.1846522"><ele>5.0</ele><time>2026-04-26T07:22:44.287Z</time></trkpt><trkpt lat="42.4939158" lon="14.184758"><ele>5.0</ele><time>2026-04-26T07:22:45.287Z</time></trkpt><trkpt lat="42.493814" lon="14.1848658"><ele>5.0</ele><time>2026-04-26T07:22:46.291Z</time></trkpt><trkpt lat="42.4937123" lon="14.1849762"><ele>5.0</ele><time>2026-04-26T07:22:47.29Z</time></trkpt><trkpt lat="42.4936125" lon="14.1850848"><ele>4.75</ele><time>2026-04-26T07:22:48.291Z</time></trkpt><trkpt lat="42.4935212" lon="14.1851855"><ele>4.5</ele><time>2026-04-26T07:22:49.291Z</time></trkpt><trkpt lat="42.493433" lon="14.1852822"><ele>4.25</ele><time>2026-04-26T07:22:50.292Z</time></trkpt><trkpt lat="42.4933457" lon="14.185378"><ele>4.0</ele><time>2026-04-26T07:22:51.292Z</time></trkpt><trkpt lat="42.4932595" lon="14.1854722"><ele>4.0</ele><time>2026-04-26T07:22:52.291Z</time></trkpt><trkpt lat="42.4931738" lon="14.1855682"><ele>4.0</ele><time>2026-04-26T07:22:53.291Z</time></trkpt><trkpt lat="42.4930893" lon="14.1856655"><ele>4.0</ele><time>2026-04-26T07:22:54.29Z</time></trkpt><trkpt lat="42.4930128" lon="14.1857557"><ele>4.0</ele><time>2026-04-26T07:22:55.289Z</time></trkpt><trkpt lat="42.492952" lon="14.1858282"><ele>4.0</ele><time>2026-04-26T07:22:56.29Z</time></trkpt><trkpt lat="42.492867" lon="14.1859257"><ele>4.333333333333333</ele><time>2026-04-26T07:22:58.293Z</time></trkpt><trkpt lat="42.492796" lon="14.1860038"><ele>4.666666666666666</ele><time>2026-04-26T07:23:00.291Z</time></trkpt><trkpt lat="42.4927087" lon="14.1861017"><ele>5.0</ele><time>2026-04-26T07:23:02.289Z</time></trkpt><trkpt lat="42.4926565" lon="14.1861595"><ele>5.333333333333333</ele><time>2026-04-26T07:23:03.29Z</time></trkpt><trkpt lat="42.4925995" lon="14.1862228"><ele>5.666666666666667</ele><time>2026-04-26T07:23:04.295Z</time></trkpt><trkpt lat="42.4925458" lon="14.1862833"><ele>6.0</ele><time>2026-04-26T07:23:05.29Z</time></trkpt><trkpt lat="42.492491" lon="14.186346"><ele>5.999999999999999</ele><time>2026-04-26T07:23:06.289Z</time></trkpt><trkpt lat="42.4924327" lon="14.1864105"><ele>6.0</ele><time>2026-04-26T07:23:07.288Z</time></trkpt><trkpt lat="42.4923725" lon="14.1864758"><ele>6.0</ele><time>2026-04-26T07:23:08.286Z</time></trkpt><trkpt lat="42.4923158" lon="14.1865382"><ele>6.0</ele><time>2026-04-26T07:23:09.29Z</time></trkpt><trkpt lat="42.492261" lon="14.1866003"><ele>6.0</ele><time>2026-04-26T07:23:10.288Z</time></trkpt><trkpt lat="42.4922035" lon="14.186664"><ele>5.999999999999999</ele><time>2026-04-26T07:23:11.288Z</time></trkpt><trkpt lat="42.4921433" lon="14.1867287"><ele>6.0</ele><time>2026-04-26T07:23:12.289Z</time></trkpt><trkpt lat="42.4920773" lon="14.186799"><ele>5.666666666666667</ele><time>2026-04-26T07:23:13.289Z</time></trkpt><trkpt lat="42.492006" lon="14.1868763"><ele>5.333333333333333</ele><time>2026-04-26T07:23:14.288Z</time></trkpt><trkpt lat="42.4919373" lon="14.1869498"><ele>5.0</ele><time>2026-04-26T07:23:15.29Z</time></trkpt><trkpt lat="42.4918692" lon="14.1870267"><ele>4.666666666666666</ele><time>2026-04-26T07:23:16.293Z</time></trkpt><trkpt lat="42.4917997" lon="14.1871058"><ele>4.333333333333333</ele><time>2026-04-26T07:23:17.29Z</time></trkpt><trkpt lat="42.4917352" lon="14.1871792"><ele>4.0</ele><time>2026-04-26T07:23:18.289Z</time></trkpt><trkpt lat="42.4916757" lon="14.1872445"><ele>4.0</ele><time>2026-04-26T07:23:19.29Z</time></trkpt><trkpt lat="42.4916183" lon="14.1873065"><ele>4.0</ele><time>2026-04-26T07:23:20.291Z</time></trkpt><trkpt lat="42.4915638" lon="14.1873633"><ele>4.0</ele><time>2026-04-26T07:23:21.291Z</time></trkpt><trkpt lat="42.4915125" lon="14.1874135"><ele>4.0</ele><time>2026-04-26T07:23:22.29Z</time></trkpt><trkpt lat="42.4914175" lon="14.1875192"><ele>4.0</ele><time>2026-04-26T07:23:24.295Z</time></trkpt><trkpt lat="42.4913215" lon="14.187623"><ele>3.9999999999999996</ele><time>2026-04-26T07:23:26.291Z</time></trkpt><trkpt lat="42.4912658" lon="14.1876847"><ele>4.0</ele><time>2026-04-26T07:23:27.289Z</time></trkpt><trkpt lat="42.4912018" lon="14.1877543"><ele>4.0</ele><time>2026-04-26T07:23:28.29Z</time></trkpt><trkpt lat="42.4911327" lon="14.187828"><ele>4.0</ele><time>2026-04-26T07:23:29.29Z</time></trkpt><trkpt lat="42.4910618" lon="14.1879068"><ele>3.9999999999999996</ele><time>2026-04-26T07:23:30.29Z</time></trkpt><trkpt lat="42.49099" lon="14.1879887"><ele>4.0</ele><time>2026-04-26T07:23:31.288Z</time></trkpt><trkpt lat="42.490914" lon="14.1880732"><ele>4.2</ele><time>2026-04-26T07:23:32.287Z</time></trkpt><trkpt lat="42.4908363" lon="14.1881587"><ele>4.4</ele><time>2026-04-26T07:23:33.287Z</time></trkpt><trkpt lat="42.4907598" lon="14.1882435"><ele>4.6</ele><time>2026-04-26T07:23:34.286Z</time></trkpt><trkpt lat="42.490684" lon="14.1883278"><ele>4.8</ele><time>2026-04-26T07:23:35.289Z</time></trkpt><trkpt lat="42.4906087" lon="14.1884112"><ele>5.0</ele><time>2026-04-26T07:23:36.292Z</time></trkpt><trkpt lat="42.4905338" lon="14.1884932"><ele>5.2</ele><time>2026-04-26T07:23:37.289Z</time></trkpt><trkpt lat="42.4904593" lon="14.1885752"><ele>5.4</ele><time>2026-04-26T07:23:38.289Z</time></trkpt><trkpt lat="42.4903857" lon="14.188657"><ele>5.6</ele><time>2026-04-26T07:23:39.289Z</time></trkpt><trkpt lat="42.490313" lon="14.1887393"><ele>5.8</ele><time>2026-04-26T07:23:40.29Z</time></trkpt><trkpt lat="42.4902405" lon="14.1888205"><ele>6.0</ele><time>2026-04-26T07:23:41.289Z</time></trkpt><trkpt lat="42.4901712" lon="14.1888958"><ele>6.0</ele><time>2026-04-26T07:23:42.29Z</time></trkpt><trkpt lat="42.4901047" lon="14.1889688"><ele>6.0</ele><time>2026-04-26T07:23:43.289Z</time></trkpt><trkpt lat="42.4900365" lon="14.1890438"><ele>6.0</ele><time>2026-04-26T07:23:44.291Z</time></trkpt><trkpt lat="42.4899673" lon="14.1891195"><ele>6.0</ele><time>2026-04-26T07:23:45.29Z</time></trkpt><trkpt lat="42.489899" lon="14.1891962"><ele>6.0</ele><time>2026-04-26T07:23:46.289Z</time></trkpt><trkpt lat="42.48983" lon="14.189275"><ele>6.0</ele><time>2026-04-26T07:23:47.29Z</time></trkpt><trkpt lat="42.4897593" lon="14.1893532"><ele>6.0</ele><time>2026-04-26T07:23:48.289Z</time></trkpt><trkpt lat="42.4896912" lon="14.1894275"><ele>6.0</ele><time>2026-04-26T07:23:49.29Z</time></trkpt><trkpt lat="42.4896258" lon="14.1895017"><ele>6.0</ele><time>2026-04-26T07:23:50.289Z</time></trkpt><trkpt lat="42.4895613" lon="14.1895732"><ele>6.0</ele><time>2026-04-26T07:23:51.291Z</time></trkpt><trkpt lat="42.489498" lon="14.1896408"><ele>6.0</ele><time>2026-04-26T07:23:52.29Z</time></trkpt><trkpt lat="42.489434" lon="14.1897097"><ele>6.0</ele><time>2026-04-26T07:23:53.289Z</time></trkpt><trkpt lat="42.4893687" lon="14.1897803"><ele>5.333333333333333</ele><time>2026-04-26T07:23:54.292Z</time></trkpt><trkpt lat="42.4893012" lon="14.1898543"><ele>4.666666666666667</ele><time>2026-04-26T07:23:55.29Z</time></trkpt><trkpt lat="42.4892305" lon="14.1899317"><ele>4.0</ele><time>2026-04-26T07:23:56.287Z</time></trkpt><trkpt lat="42.4891597" lon="14.1900103"><ele>3.333333333333333</ele><time>2026-04-26T07:23:57.287Z</time></trkpt><trkpt lat="42.489089" lon="14.1900862"><ele>2.6666666666666665</ele><time>2026-04-26T07:23:58.287Z</time></trkpt><trkpt lat="42.4890203" lon="14.1901587"><ele>2.0</ele><time>2026-04-26T07:23:59.287Z</time></trkpt><trkpt lat="42.4889537" lon="14.1902305"><ele>1.9999999999999998</ele><time>2026-04-26T07:24:00.287Z</time></trkpt><trkpt lat="42.4888858" lon="14.1903057"><ele>2.0</ele><time>2026-04-26T07:24:01.289Z</time></trkpt><trkpt lat="42.4888168" lon="14.1903825"><ele>2.0</ele><time>2026-04-26T07:24:02.288Z</time></trkpt><trkpt lat="42.488748" lon="14.19046"><ele>2.0</ele><time>2026-04-26T07:24:03.292Z</time></trkpt><trkpt lat="42.48868" lon="14.1905343"><ele>1.9999999999999998</ele><time>2026-04-26T07:24:04.289Z</time></trkpt><trkpt lat="42.4886102" lon="14.1906082"><ele>2.0</ele><time>2026-04-26T07:24:05.288Z</time></trkpt><trkpt lat="42.4885398" lon="14.1906833"><ele>2.5</ele><time>2026-04-26T07:24:06.288Z</time></trkpt><trkpt lat="42.488469" lon="14.1907597"><ele>3.0</ele><time>2026-04-26T07:24:07.288Z</time></trkpt><trkpt lat="42.4883973" lon="14.1908325"><ele>3.5</ele><time>2026-04-26T07:24:08.291Z</time></trkpt><trkpt lat="42.4883272" lon="14.1909073"><ele>4.0</ele><time>2026-04-26T07:24:09.288Z</time></trkpt><trkpt lat="42.4882572" lon="14.1909818"><ele>4.5</ele><time>2026-04-26T07:24:10.289Z</time></trkpt><trkpt lat="42.4881873" lon="14.1910575"><ele>5.0</ele><time>2026-04-26T07:24:11.288Z</time></trkpt><trkpt lat="42.4881167" lon="14.1911347"><ele>5.0</ele><time>2026-04-26T07:24:12.291Z</time></trkpt><trkpt lat="42.4880443" lon="14.1912125"><ele>5.0</ele><time>2026-04-26T07:24:13.288Z</time></trkpt><trkpt lat="42.4879748" lon="14.19129"><ele>5.0</ele><time>2026-04-26T07:24:14.289Z</time></trkpt><trkpt lat="42.4879048" lon="14.1913683"><ele>5.0</ele><time>2026-04-26T07:24:15.289Z</time></trkpt><trkpt lat="42.4878357" lon="14.1914427"><ele>5.0</ele><time>2026-04-26T07:24:16.288Z</time></trkpt><trkpt lat="42.4877688" lon="14.1915152"><ele>5.0</ele><time>2026-04-26T07:24:17.288Z</time></trkpt><trkpt lat="42.4877015" lon="14.1915887"><ele>5.166666666666667</ele><time>2026-04-26T07:24:18.288Z</time></trkpt><trkpt lat="42.4876345" lon="14.1916645"><ele>5.333333333333334</ele><time>2026-04-26T07:24:19.289Z</time></trkpt><trkpt lat="42.487567" lon="14.191741"><ele>5.5</ele><time>2026-04-26T07:24:20.287Z</time></trkpt><trkpt lat="42.4874988" lon="14.1918177"><ele>5.666666666666667</ele><time>2026-04-26T07:24:21.287Z</time></trkpt><trkpt lat="42.4874293" lon="14.1918957"><ele>5.833333333333333</ele><time>2026-04-26T07:24:22.287Z</time></trkpt><trkpt lat="42.4873587" lon="14.1919747"><ele>6.0</ele><time>2026-04-26T07:24:23.286Z</time></trkpt><trkpt lat="42.4872885" lon="14.1920538"><ele>6.0</ele><time>2026-04-26T07:24:24.289Z</time></trkpt><trkpt lat="42.487217" lon="14.1921345"><ele>6.0</ele><time>2026-04-26T07:24:25.292Z</time></trkpt><trkpt lat="42.4871435" lon="14.1922153"><ele>6.0</ele><time>2026-04-26T07:24:26.291Z</time></trkpt><trkpt lat="42.4870688" lon="14.1922937"><ele>6.0</ele><time>2026-04-26T07:24:27.29Z</time></trkpt><trkpt lat="42.4869957" lon="14.1923708"><ele>6.0</ele><time>2026-04-26T07:24:28.289Z</time></trkpt><trkpt lat="42.486922" lon="14.1924477"><ele>5.3999999999999995</ele><time>2026-04-26T07:24:29.289Z</time></trkpt><trkpt lat="42.4868467" lon="14.1925253"><ele>4.8</ele><time>2026-04-26T07:24:30.29Z</time></trkpt><trkpt lat="42.4867695" lon="14.1926037"><ele>4.199999999999999</ele><time>2026-04-26T07:24:31.29Z</time></trkpt><trkpt lat="42.4866923" lon="14.1926823"><ele>3.5999999999999996</ele><time>2026-04-26T07:24:32.289Z</time></trkpt><trkpt lat="42.4866153" lon="14.1927615"><ele>3.0</ele><time>2026-04-26T07:24:33.29Z</time></trkpt><trkpt lat="42.4865387" lon="14.1928417"><ele>3.0</ele><time>2026-04-26T07:24:34.287Z</time></trkpt><trkpt lat="42.4864618" lon="14.192921"><ele>3.0</ele><time>2026-04-26T07:24:35.287Z</time></trkpt><trkpt lat="42.4863855" lon="14.192999"><ele>3.0</ele><time>2026-04-26T07:24:36.289Z</time></trkpt><trkpt lat="42.4863107" lon="14.193075"><ele>3.0</ele><time>2026-04-26T07:24:37.291Z</time></trkpt><trkpt lat="42.486237" lon="14.1931507"><ele>3.0</ele><time>2026-04-26T07:24:38.288Z</time></trkpt><trkpt lat="42.4861625" lon="14.1932268"><ele>3.2</ele><time>2026-04-26T07:24:39.289Z</time></trkpt><trkpt lat="42.4860895" lon="14.1933048"><ele>3.4</ele><time>2026-04-26T07:24:40.291Z</time></trkpt><trkpt lat="42.4860163" lon="14.193382"><ele>3.6000000000000005</ele><time>2026-04-26T07:24:41.289Z</time></trkpt><trkpt lat="42.4859438" lon="14.1934588"><ele>3.8000000000000003</ele><time>2026-04-26T07:24:42.289Z</time></trkpt><trkpt lat="42.4858733" lon="14.1935338"><ele>4.0</ele><time>2026-04-26T07:24:43.288Z</time></trkpt><trkpt lat="42.4858047" lon="14.193612"><ele>4.0</ele><time>2026-04-26T07:24:44.287Z</time></trkpt><trkpt lat="42.4857362" lon="14.1936917"><ele>4.0</ele><time>2026-04-26T07:24:45.286Z</time></trkpt><trkpt lat="42.485668" lon="14.1937735"><ele>4.0</ele><time>2026-04-26T07:24:46.288Z</time></trkpt><trkpt lat="42.4855995" lon="14.1938558"><ele>4.0</ele><time>2026-04-26T07:24:47.286Z</time></trkpt><trkpt lat="42.485531" lon="14.1939378"><ele>4.0</ele><time>2026-04-26T07:24:48.287Z</time></trkpt><trkpt lat="42.4854637" lon="14.19402"><ele>3.833333333333333</ele><time>2026-04-26T07:24:49.289Z</time></trkpt><trkpt lat="42.4853963" lon="14.1941017"><ele>3.6666666666666665</ele><time>2026-04-26T07:24:50.289Z</time></trkpt><trkpt lat="42.4853295" lon="14.1941837"><ele>3.5</ele><time>2026-04-26T07:24:51.289Z</time></trkpt><trkpt lat="42.485267" lon="14.1942593"><ele>3.333333333333333</ele><time>2026-04-26T07:24:52.29Z</time></trkpt><trkpt lat="42.485208" lon="14.1943272"><ele>3.1666666666666665</ele><time>2026-04-26T07:24:53.289Z</time></trkpt><trkpt lat="42.485151" lon="14.1943937"><ele>3.0</ele><time>2026-04-26T07:24:54.289Z</time></trkpt><trkpt lat="42.485099" lon="14.1944553"><ele>3.0</ele><time>2026-04-26T07:24:55.29Z</time></trkpt><trkpt lat="42.4850442" lon="14.1945255"><ele>3.0</ele><time>2026-04-26T07:24:56.289Z</time></trkpt><trkpt lat="42.484981" lon="14.1946073"><ele>3.0</ele><time>2026-04-26T07:24:57.291Z</time></trkpt><trkpt lat="42.4849097" lon="14.194694"><ele>3.0</ele><time>2026-04-26T07:24:58.289Z</time></trkpt><trkpt lat="42.4848332" lon="14.1947852"><ele>3.0</ele><time>2026-04-26T07:24:59.29Z</time></trkpt><trkpt lat="42.4847553" lon="14.194883"><ele>2.8</ele><time>2026-04-26T07:25:00.291Z</time></trkpt><trkpt lat="42.484677" lon="14.1949842"><ele>2.5999999999999996</ele><time>2026-04-26T07:25:01.29Z</time></trkpt><trkpt lat="42.4845975" lon="14.1950872"><ele>2.4000000000000004</ele><time>2026-04-26T07:25:02.29Z</time></trkpt><trkpt lat="42.4845163" lon="14.1951927"><ele>2.2</ele><time>2026-04-26T07:25:03.29Z</time></trkpt><trkpt lat="42.4844325" lon="14.1953027"><ele>2.0</ele><time>2026-04-26T07:25:04.29Z</time></trkpt><trkpt lat="42.4843492" lon="14.1954157"><ele>2.0</ele><time>2026-04-26T07:25:05.288Z</time></trkpt><trkpt lat="42.4842672" lon="14.1955288"><ele>2.0</ele><time>2026-04-26T07:25:06.29Z</time></trkpt><trkpt lat="42.4841835" lon="14.195643"><ele>2.0</ele><time>2026-04-26T07:25:07.29Z</time></trkpt><trkpt lat="42.4841" lon="14.1957588"><ele>2.0</ele><time>2026-04-26T07:25:08.289Z</time></trkpt><trkpt lat="42.4840172" lon="14.1958742"><ele>1.8</ele><time>2026-04-26T07:25:09.289Z</time></trkpt><trkpt lat="42.4839345" lon="14.195988"><ele>1.6</ele><time>2026-04-26T07:25:10.287Z</time></trkpt><trkpt lat="42.4838538" lon="14.1960978"><ele>1.4000000000000001</ele><time>2026-04-26T07:25:11.287Z</time></trkpt><trkpt lat="42.4837933" lon="14.196178"><ele>1.2000000000000002</ele><time>2026-04-26T07:25:12.287Z</time></trkpt><trkpt lat="42.4837352" lon="14.1962522"><ele>1.0</ele><time>2026-04-26T07:25:14.29Z</time></trkpt><trkpt lat="42.4836737" lon="14.1963382"><ele>1.8</ele><time>2026-04-26T07:25:16.288Z</time></trkpt><trkpt lat="42.4836217" lon="14.1964158"><ele>2.6</ele><time>2026-04-26T07:25:17.29Z</time></trkpt><trkpt lat="42.4835578" lon="14.196507"><ele>3.4</ele><time>2026-04-26T07:25:18.291Z</time></trkpt><trkpt lat="42.483484" lon="14.1966112"><ele>4.2</ele><time>2026-04-26T07:25:19.29Z</time></trkpt><trkpt lat="42.4834028" lon="14.1967268"><ele>5.0</ele><time>2026-04-26T07:25:20.289Z</time></trkpt><trkpt lat="42.4833165" lon="14.1968498"><ele>5.25</ele><time>2026-04-26T07:25:21.29Z</time></trkpt><trkpt lat="42.4832303" lon="14.1969767"><ele>5.5</ele><time>2026-04-26T07:25:22.289Z</time></trkpt><trkpt lat="42.4831472" lon="14.1971005"><ele>5.75</ele><time>2026-04-26T07:25:23.289Z</time></trkpt><trkpt lat="42.4830688" lon="14.1972173"><ele>6.0</ele><time>2026-04-26T07:25:24.289Z</time></trkpt><trkpt lat="42.4829917" lon="14.1973317"><ele>6.199999999999999</ele><time>2026-04-26T07:25:25.289Z</time></trkpt><trkpt lat="42.4829135" lon="14.1974445"><ele>6.3999999999999995</ele><time>2026-04-26T07:25:26.289Z</time></trkpt><trkpt lat="42.4828372" lon="14.197554"><ele>6.6</ele><time>2026-04-26T07:25:27.289Z</time></trkpt><trkpt lat="42.4827638" lon="14.1976613"><ele>6.8</ele><time>2026-04-26T07:25:28.291Z</time></trkpt><trkpt lat="42.4826923" lon="14.1977652"><ele>7.0</ele><time>2026-04-26T07:25:29.289Z</time></trkpt><trkpt lat="42.482622" lon="14.1978665"><ele>7.0</ele><time>2026-04-26T07:25:30.29Z</time></trkpt><trkpt lat="42.4825527" lon="14.1979673"><ele>6.999999999999999</ele><time>2026-04-26T07:25:31.289Z</time></trkpt><trkpt lat="42.4824847" lon="14.198068"><ele>6.999999999999999</ele><time>2026-04-26T07:25:32.289Z</time></trkpt><trkpt lat="42.482417" lon="14.1981672"><ele>7.0</ele><time>2026-04-26T07:25:33.29Z</time></trkpt><trkpt lat="42.4823487" lon="14.1982653"><ele>7.0</ele><time>2026-04-26T07:25:34.286Z</time></trkpt><trkpt lat="42.4822805" lon="14.1983642"><ele>6.3999999999999995</ele><time>2026-04-26T07:25:35.287Z</time></trkpt><trkpt lat="42.4822125" lon="14.1984625"><ele>5.799999999999999</ele><time>2026-04-26T07:25:36.289Z</time></trkpt><trkpt lat="42.4821465" lon="14.1985588"><ele>5.2</ele><time>2026-04-26T07:25:37.288Z</time></trkpt><trkpt lat="42.482081" lon="14.198652"><ele>4.6</ele><time>2026-04-26T07:25:38.289Z</time></trkpt><trkpt lat="42.4820168" lon="14.1987433"><ele>4.0</ele><time>2026-04-26T07:25:39.289Z</time></trkpt><trkpt lat="42.481955" lon="14.198833"><ele>4.5</ele><time>2026-04-26T07:25:40.289Z</time></trkpt><trkpt lat="42.4818957" lon="14.1989203"><ele>5.0</ele><time>2026-04-26T07:25:41.29Z</time></trkpt><trkpt lat="42.4818363" lon="14.1990068"><ele>5.5</ele><time>2026-04-26T07:25:42.29Z</time></trkpt><trkpt lat="42.4817775" lon="14.1990933"><ele>6.0</ele><time>2026-04-26T07:25:43.289Z</time></trkpt><trkpt lat="42.481718" lon="14.1991782"><ele>6.500000000000001</ele><time>2026-04-26T07:25:44.289Z</time></trkpt><trkpt lat="42.4816582" lon="14.1992647"><ele>7.0</ele><time>2026-04-26T07:25:45.288Z</time></trkpt><trkpt lat="42.4815975" lon="14.1993538"><ele>7.0</ele><time>2026-04-26T07:25:46.289Z</time></trkpt><trkpt lat="42.4815363" lon="14.1994453"><ele>6.999999999999999</ele><time>2026-04-26T07:25:47.292Z</time></trkpt><trkpt lat="42.4814733" lon="14.1995367"><ele>6.999999999999999</ele><time>2026-04-26T07:25:48.29Z</time></trkpt><trkpt lat="42.4814098" lon="14.1996283"><ele>7.0</ele><time>2026-04-26T07:25:49.29Z</time></trkpt><trkpt lat="42.4813467" lon="14.1997207"><ele>7.0</ele><time>2026-04-26T07:25:50.29Z</time></trkpt><trkpt lat="42.4812833" lon="14.1998135"><ele>6.199999999999999</ele><time>2026-04-26T07:25:51.292Z</time></trkpt><trkpt lat="42.4812197" lon="14.1999063"><ele>5.3999999999999995</ele><time>2026-04-26T07:25:52.291Z</time></trkpt><trkpt lat="42.4811575" lon="14.1999975"><ele>4.6</ele><time>2026-04-26T07:25:53.29Z</time></trkpt><trkpt lat="42.4810953" lon="14.2000887"><ele>3.8</ele><time>2026-04-26T07:25:54.29Z</time></trkpt><trkpt lat="42.4810337" lon="14.20018"><ele>3.0</ele><time>2026-04-26T07:25:55.289Z</time></trkpt><trkpt lat="42.4809725" lon="14.2002708"><ele>3.0</ele><time>2026-04-26T07:25:56.288Z</time></trkpt><trkpt lat="42.4809103" lon="14.2003593"><ele>3.0</ele><time>2026-04-26T07:25:57.29Z</time></trkpt><trkpt lat="42.4808497" lon="14.2004485"><ele>3.0</ele><time>2026-04-26T07:25:58.287Z</time></trkpt><trkpt lat="42.4807895" lon="14.2005363"><ele>3.0</ele><time>2026-04-26T07:25:59.286Z</time></trkpt><trkpt lat="42.4807303" lon="14.2006235"><ele>3.0</ele><time>2026-04-26T07:26:00.288Z</time></trkpt><trkpt lat="42.4806705" lon="14.2007115"><ele>3.0</ele><time>2026-04-26T07:26:01.286Z</time></trkpt><trkpt lat="42.4806095" lon="14.2008012"><ele>2.8333333333333335</ele><time>2026-04-26T07:26:02.287Z</time></trkpt><trkpt lat="42.4805485" lon="14.2008917"><ele>2.6666666666666665</ele><time>2026-04-26T07:26:03.289Z</time></trkpt><trkpt lat="42.4804878" lon="14.2009815"><ele>2.5</ele><time>2026-04-26T07:26:04.289Z</time></trkpt><trkpt lat="42.4804265" lon="14.2010698"><ele>2.333333333333333</ele><time>2026-04-26T07:26:05.289Z</time></trkpt><trkpt lat="42.4803648" lon="14.2011565"><ele>2.1666666666666665</ele><time>2026-04-26T07:26:06.29Z</time></trkpt><trkpt lat="42.4803037" lon="14.2012435"><ele>2.0</ele><time>2026-04-26T07:26:07.289Z</time></trkpt><trkpt lat="42.480244" lon="14.2013305"><ele>2.4285714285714284</ele><time>2026-04-26T07:26:08.29Z</time></trkpt><trkpt lat="42.4801848" lon="14.2014168"><ele>2.8571428571428568</ele><time>2026-04-26T07:26:09.29Z</time></trkpt><trkpt lat="42.480133" lon="14.2014945"><ele>3.2857142857142856</ele><time>2026-04-26T07:26:10.29Z</time></trkpt><trkpt lat="42.4800888" lon="14.2015618"><ele>3.7142857142857144</ele><time>2026-04-26T07:26:11.289Z</time></trkpt><trkpt lat="42.4800473" lon="14.2016262"><ele>4.142857142857143</ele><time>2026-04-26T07:26:12.29Z</time></trkpt><trkpt lat="42.4800037" lon="14.2016915"><ele>4.571428571428571</ele><time>2026-04-26T07:26:13.289Z</time></trkpt><trkpt lat="42.4799563" lon="14.2017607"><ele>5.0</ele><time>2026-04-26T07:26:14.289Z</time></trkpt><trkpt lat="42.479905" lon="14.2018347"><ele>5.0</ele><time>2026-04-26T07:26:15.289Z</time></trkpt><trkpt lat="42.479851" lon="14.2019123"><ele>5.0</ele><time>2026-04-26T07:26:16.289Z</time></trkpt><trkpt lat="42.4797953" lon="14.2019937"><ele>5.0</ele><time>2026-04-26T07:26:17.289Z</time></trkpt><trkpt lat="42.4797383" lon="14.2020775"><ele>5.0</ele><time>2026-04-26T07:26:18.291Z</time></trkpt><trkpt lat="42.47968" lon="14.2021645"><ele>5.0</ele><time>2026-04-26T07:26:19.291Z</time></trkpt><trkpt lat="42.479619" lon="14.202253"><ele>5.0</ele><time>2026-04-26T07:26:20.29Z</time></trkpt><trkpt lat="42.4795567" lon="14.2023425"><ele>4.8</ele><time>2026-04-26T07:26:21.292Z</time></trkpt><trkpt lat="42.4794945" lon="14.2024327"><ele>4.6</ele><time>2026-04-26T07:26:22.291Z</time></trkpt><trkpt lat="42.4794317" lon="14.2025248"><ele>4.4</ele><time>2026-04-26T07:26:23.286Z</time></trkpt><trkpt lat="42.4793693" lon="14.2026152"><ele>4.2</ele><time>2026-04-26T07:26:24.287Z</time></trkpt><trkpt lat="42.4793065" lon="14.2027062"><ele>4.0</ele><time>2026-04-26T07:26:25.287Z</time></trkpt><trkpt lat="42.4792428" lon="14.2027993"><ele>4.0</ele><time>2026-04-26T07:26:26.287Z</time></trkpt><trkpt lat="42.4791788" lon="14.2028947"><ele>4.0</ele><time>2026-04-26T07:26:27.292Z</time></trkpt><trkpt lat="42.4791142" lon="14.202991"><ele>4.0</ele><time>2026-04-26T07:26:28.29Z</time></trkpt><trkpt lat="42.4790483" lon="14.2030873"><ele>4.0</ele><time>2026-04-26T07:26:29.29Z</time></trkpt><trkpt lat="42.4789835" lon="14.2031832"><ele>4.0</ele><time>2026-04-26T07:26:30.291Z</time></trkpt><trkpt lat="42.4789178" lon="14.2032788"><ele>3.6666666666666665</ele><time>2026-04-26T07:26:31.29Z</time></trkpt><trkpt lat="42.4788523" lon="14.203373"><ele>3.333333333333333</ele><time>2026-04-26T07:26:32.292Z</time></trkpt><trkpt lat="42.4787885" lon="14.203463"><ele>3.0</ele><time>2026-04-26T07:26:33.29Z</time></trkpt><trkpt lat="42.4787312" lon="14.2035442"><ele>2.6666666666666665</ele><time>2026-04-26T07:26:34.29Z</time></trkpt><trkpt lat="42.4786777" lon="14.2036218"><ele>2.333333333333333</ele><time>2026-04-26T07:26:35.289Z</time></trkpt><trkpt lat="42.4786233" lon="14.2037035"><ele>2.0</ele><time>2026-04-26T07:26:36.292Z</time></trkpt><trkpt lat="42.4785665" lon="14.2037873"><ele>2.4000000000000004</ele><time>2026-04-26T07:26:37.289Z</time></trkpt><trkpt lat="42.4785073" lon="14.2038752"><ele>2.8000000000000003</ele><time>2026-04-26T07:26:38.289Z</time></trkpt><trkpt lat="42.4784455" lon="14.2039667"><ele>3.2</ele><time>2026-04-26T07:26:39.29Z</time></trkpt><trkpt lat="42.4783822" lon="14.2040608"><ele>3.6</ele><time>2026-04-26T07:26:40.291Z</time></trkpt><trkpt lat="42.4783172" lon="14.204156"><ele>4.0</ele><time>2026-04-26T07:26:41.289Z</time></trkpt><trkpt lat="42.4782517" lon="14.2042508"><ele>4.0</ele><time>2026-04-26T07:26:42.289Z</time></trkpt><trkpt lat="42.4781865" lon="14.204346"><ele>4.0</ele><time>2026-04-26T07:26:43.288Z</time></trkpt><trkpt lat="42.478121" lon="14.204441"><ele>4.0</ele><time>2026-04-26T07:26:44.291Z</time></trkpt><trkpt lat="42.4780557" lon="14.2045353"><ele>4.0</ele><time>2026-04-26T07:26:45.291Z</time></trkpt><trkpt lat="42.477991" lon="14.2046298"><ele>4.0</ele><time>2026-04-26T07:26:46.289Z</time></trkpt><trkpt lat="42.4779258" lon="14.2047235"><ele>4.4</ele><time>2026-04-26T07:26:47.287Z</time></trkpt><trkpt lat="42.4778612" lon="14.2048188"><ele>4.800000000000001</ele><time>2026-04-26T07:26:48.288Z</time></trkpt><trkpt lat="42.4777955" lon="14.2049145"><ele>5.199999999999999</ele><time>2026-04-26T07:26:49.287Z</time></trkpt><trkpt lat="42.4777292" lon="14.20501"><ele>5.6</ele><time>2026-04-26T07:26:50.285Z</time></trkpt><trkpt lat="42.4776645" lon="14.2051022"><ele>6.0</ele><time>2026-04-26T07:26:51.287Z</time></trkpt><trkpt lat="42.4776015" lon="14.2051947"><ele>6.0</ele><time>2026-04-26T07:26:52.289Z</time></trkpt><trkpt lat="42.4775385" lon="14.2052882"><ele>6.0</ele><time>2026-04-26T07:26:53.292Z</time></trkpt><trkpt lat="42.4774762" lon="14.2053802"><ele>6.0</ele><time>2026-04-26T07:26:54.288Z</time></trkpt><trkpt lat="42.4774158" lon="14.2054712"><ele>6.0</ele><time>2026-04-26T07:26:55.289Z</time></trkpt><trkpt lat="42.4773565" lon="14.2055603"><ele>6.0</ele><time>2026-04-26T07:26:56.289Z</time></trkpt><trkpt lat="42.4772975" lon="14.2056473"><ele>5.833333333333333</ele><time>2026-04-26T07:26:57.289Z</time></trkpt><trkpt lat="42.4772368" lon="14.2057357"><ele>5.666666666666667</ele><time>2026-04-26T07:26:58.29Z</time></trkpt><trkpt lat="42.4771772" lon="14.2058202"><ele>5.5</ele><time>2026-04-26T07:26:59.29Z</time></trkpt><trkpt lat="42.4771227" lon="14.205899"><ele>5.333333333333334</ele><time>2026-04-26T07:27:00.289Z</time></trkpt><trkpt lat="42.477068" lon="14.2059822"><ele>5.166666666666667</ele><time>2026-04-26T07:27:01.289Z</time></trkpt><trkpt lat="42.47701" lon="14.2060687"><ele>5.0</ele><time>2026-04-26T07:27:02.29Z</time></trkpt><trkpt lat="42.4769497" lon="14.206159"><ele>5.0</ele><time>2026-04-26T07:27:03.29Z</time></trkpt><trkpt lat="42.4768865" lon="14.2062527"><ele>5.0</ele><time>2026-04-26T07:27:04.293Z</time></trkpt><trkpt lat="42.4768205" lon="14.206349"><ele>5.0</ele><time>2026-04-26T07:27:05.289Z</time></trkpt><trkpt lat="42.4767545" lon="14.2064462"><ele>5.0</ele><time>2026-04-26T07:27:06.291Z</time></trkpt><trkpt lat="42.4766885" lon="14.2065433"><ele>5.0</ele><time>2026-04-26T07:27:07.29Z</time></trkpt><trkpt lat="42.4766222" lon="14.2066407"><ele>4.2</ele><time>2026-04-26T07:27:08.289Z</time></trkpt><trkpt lat="42.4765552" lon="14.206738"><ele>3.4</ele><time>2026-04-26T07:27:09.289Z</time></trkpt><trkpt lat="42.4764873" lon="14.2068353"><ele>2.6</ele><time>2026-04-26T07:27:10.289Z</time></trkpt><trkpt lat="42.4764202" lon="14.2069338"><ele>1.8</ele><time>2026-04-26T07:27:11.288Z</time></trkpt><trkpt lat="42.4763532" lon="14.2070332"><ele>1.0</ele><time>2026-04-26T07:27:12.287Z</time></trkpt><trkpt lat="42.4762855" lon="14.2071323"><ele>1.6</ele><time>2026-04-26T07:27:13.286Z</time></trkpt><trkpt lat="42.4762183" lon="14.2072313"><ele>2.2</ele><time>2026-04-26T07:27:14.287Z</time></trkpt><trkpt lat="42.4761508" lon="14.2073295"><ele>2.8000000000000003</ele><time>2026-04-26T07:27:15.29Z</time></trkpt><trkpt lat="42.4760828" lon="14.2074265"><ele>3.4000000000000004</ele><time>2026-04-26T07:27:16.29Z</time></trkpt><trkpt lat="42.4760155" lon="14.2075238"><ele>4.0</ele><time>2026-04-26T07:27:17.289Z</time></trkpt><trkpt lat="42.4759485" lon="14.2076215"><ele>4.0</ele><time>2026-04-26T07:27:18.289Z</time></trkpt><trkpt lat="42.4758813" lon="14.2077193"><ele>4.0</ele><time>2026-04-26T07:27:19.29Z</time></trkpt><trkpt lat="42.4758137" lon="14.2078175"><ele>4.0</ele><time>2026-04-26T07:27:20.289Z</time></trkpt><trkpt lat="42.4757457" lon="14.2079152"><ele>4.0</ele><time>2026-04-26T07:27:21.29Z</time></trkpt><trkpt lat="42.4756768" lon="14.2080127"><ele>4.0</ele><time>2026-04-26T07:27:22.289Z</time></trkpt><trkpt lat="42.4756095" lon="14.2081118"><ele>3.8000000000000003</ele><time>2026-04-26T07:27:23.289Z</time></trkpt><trkpt lat="42.4755418" lon="14.2082118"><ele>3.6000000000000005</ele><time>2026-04-26T07:27:24.29Z</time></trkpt><trkpt lat="42.4754743" lon="14.2083097"><ele>3.4</ele><time>2026-04-26T07:27:25.29Z</time></trkpt><trkpt lat="42.4754088" lon="14.2084037"><ele>3.2</ele><time>2026-04-26T07:27:26.289Z</time></trkpt><trkpt lat="42.475345" lon="14.2084957"><ele>3.0</ele><time>2026-04-26T07:27:27.292Z</time></trkpt><trkpt lat="42.4752828" lon="14.2085867"><ele>3.4</ele><time>2026-04-26T07:27:28.29Z</time></trkpt><trkpt lat="42.4752228" lon="14.2086777"><ele>3.8</ele><time>2026-04-26T07:27:29.289Z</time></trkpt><trkpt lat="42.475163" lon="14.2087687"><ele>4.2</ele><time>2026-04-26T07:27:30.29Z</time></trkpt><trkpt lat="42.4751018" lon="14.208859"><ele>4.6</ele><time>2026-04-26T07:27:31.29Z</time></trkpt><trkpt lat="42.4750397" lon="14.2089497"><ele>5.0</ele><time>2026-04-26T07:27:32.289Z</time></trkpt><trkpt lat="42.4749773" lon="14.2090398"><ele>4.0</ele><time>2026-04-26T07:27:33.289Z</time></trkpt><trkpt lat="42.4749148" lon="14.2091293"><ele>3.0</ele><time>2026-04-26T07:27:34.288Z</time></trkpt><trkpt lat="42.4748523" lon="14.2092192"><ele>2.0</ele><time>2026-04-26T07:27:35.29Z</time></trkpt><trkpt lat="42.4747902" lon="14.2093097"><ele>1.0</ele><time>2026-04-26T07:27:36.287Z</time></trkpt><trkpt lat="42.4747283" lon="14.2093998"><ele>0.0</ele><time>2026-04-26T07:27:37.287Z</time></trkpt><trkpt lat="42.4746678" lon="14.20949"><ele>0.0</ele><time>2026-04-26T07:27:38.287Z</time></trkpt><trkpt lat="42.474608" lon="14.2095785"><ele>0.0</ele><time>2026-04-26T07:27:39.286Z</time></trkpt><trkpt lat="42.4745482" lon="14.2096658"><ele>0.0</ele><time>2026-04-26T07:27:40.288Z</time></trkpt><trkpt lat="42.4744878" lon="14.2097555"><ele>0.0</ele><time>2026-04-26T07:27:41.29Z</time></trkpt><trkpt lat="42.4744263" lon="14.2098468"><ele>0.0</ele><time>2026-04-26T07:27:42.289Z</time></trkpt><trkpt lat="42.474364" lon="14.2099395"><ele>0.4</ele><time>2026-04-26T07:27:43.288Z</time></trkpt><trkpt lat="42.4743008" lon="14.2100323"><ele>0.8</ele><time>2026-04-26T07:27:44.287Z</time></trkpt><trkpt lat="42.4742372" lon="14.2101248"><ele>1.2000000000000002</ele><time>2026-04-26T07:27:45.288Z</time></trkpt><trkpt lat="42.4741718" lon="14.2102167"><ele>1.6</ele><time>2026-04-26T07:27:46.29Z</time></trkpt><trkpt lat="42.4741068" lon="14.2103088"><ele>2.0</ele><time>2026-04-26T07:27:47.288Z</time></trkpt><trkpt lat="42.4740422" lon="14.2104028"><ele>1.9999999999999998</ele><time>2026-04-26T07:27:48.291Z</time></trkpt><trkpt lat="42.473978" lon="14.2104962"><ele>2.0</ele><time>2026-04-26T07:27:49.29Z</time></trkpt><trkpt lat="42.4739152" lon="14.2105875"><ele>2.0</ele><time>2026-04-26T07:27:50.289Z</time></trkpt><trkpt lat="42.4738553" lon="14.210675"><ele>2.0</ele><time>2026-04-26T07:27:51.29Z</time></trkpt><trkpt lat="42.4738005" lon="14.2107538"><ele>1.9999999999999998</ele><time>2026-04-26T07:27:52.29Z</time></trkpt><trkpt lat="42.4737445" lon="14.2108373"><ele>2.0</ele><time>2026-04-26T07:27:53.29Z</time></trkpt><trkpt lat="42.4736863" lon="14.2109247"><ele>2.5</ele><time>2026-04-26T07:27:54.29Z</time></trkpt><trkpt lat="42.4736303" lon="14.2110128"><ele>3.0</ele><time>2026-04-26T07:27:55.289Z</time></trkpt><trkpt lat="42.4735783" lon="14.211101"><ele>3.5</ele><time>2026-04-26T07:27:56.29Z</time></trkpt><trkpt lat="42.4735337" lon="14.2111807"><ele>4.0</ele><time>2026-04-26T07:27:57.292Z</time></trkpt><trkpt lat="42.4734695" lon="14.2112925"><ele>4.5</ele><time>2026-04-26T07:27:59.29Z</time></trkpt><trkpt lat="42.4734253" lon="14.211359"><ele>5.0</ele><time>2026-04-26T07:28:02.288Z</time></trkpt><trkpt lat="42.4733747" lon="14.2114382"><ele>4.2</ele><time>2026-04-26T07:28:11.289Z</time></trkpt><trkpt lat="42.4733015" lon="14.2115477"><ele>3.4</ele><time>2026-04-26T07:28:13.291Z</time></trkpt><trkpt lat="42.4732293" lon="14.2116622"><ele>2.6</ele><time>2026-04-26T07:28:15.29Z</time></trkpt><trkpt lat="42.4731512" lon="14.2117977"><ele>1.8</ele><time>2026-04-26T07:28:17.289Z</time></trkpt><trkpt lat="42.4731058" lon="14.2118758"><ele>1.0</ele><time>2026-04-26T07:28:18.292Z</time></trkpt><trkpt lat="42.4730573" lon="14.2119597"><ele>0.9999999999999999</ele><time>2026-04-26T07:28:19.291Z</time></trkpt><trkpt lat="42.473008" lon="14.2120458"><ele>1.0</ele><time>2026-04-26T07:28:20.29Z</time></trkpt><trkpt lat="42.4729582" lon="14.2121313"><ele>1.0</ele><time>2026-04-26T07:28:21.29Z</time></trkpt><trkpt lat="42.4729085" lon="14.2122165"><ele>1.0</ele><time>2026-04-26T07:28:22.291Z</time></trkpt><trkpt lat="42.472861" lon="14.2122987"><ele>0.9999999999999999</ele><time>2026-04-26T07:28:23.289Z</time></trkpt><trkpt lat="42.4728135" lon="14.2123808"><ele>1.0</ele><time>2026-04-26T07:28:24.291Z</time></trkpt><trkpt lat="42.4727633" lon="14.2124667"><ele>1.3333333333333333</ele><time>2026-04-26T07:28:25.288Z</time></trkpt><trkpt lat="42.472712" lon="14.2125552"><ele>1.6666666666666665</ele><time>2026-04-26T07:28:26.289Z</time></trkpt><trkpt lat="42.4726612" lon="14.212644"><ele>2.0</ele><time>2026-04-26T07:28:27.288Z</time></trkpt><trkpt lat="42.4726093" lon="14.2127323"><ele>2.3333333333333335</ele><time>2026-04-26T07:28:28.287Z</time></trkpt><trkpt lat="42.472556" lon="14.212822"><ele>2.6666666666666665</ele><time>2026-04-26T07:28:29.289Z</time></trkpt><trkpt lat="42.4725027" lon="14.2129148"><ele>3.0</ele><time>2026-04-26T07:28:30.291Z</time></trkpt><trkpt lat="42.4724475" lon="14.2130092"><ele>3.0</ele><time>2026-04-26T07:28:31.29Z</time></trkpt><trkpt lat="42.4723907" lon="14.213105"><ele>3.0</ele><time>2026-04-26T07:28:32.289Z</time></trkpt><trkpt lat="42.472334" lon="14.2132025"><ele>3.0</ele><time>2026-04-26T07:28:33.29Z</time></trkpt><trkpt lat="42.472277" lon="14.213298"><ele>3.0</ele><time>2026-04-26T07:28:34.291Z</time></trkpt><trkpt lat="42.4722218" lon="14.2133958"><ele>3.0</ele><time>2026-04-26T07:28:35.289Z</time></trkpt><trkpt lat="42.4721652" lon="14.2134982"><ele>3.0</ele><time>2026-04-26T07:28:36.291Z</time></trkpt><trkpt lat="42.4721082" lon="14.2135977"><ele>3.0</ele><time>2026-04-26T07:28:37.289Z</time></trkpt><trkpt lat="42.4720517" lon="14.2136937"><ele>3.0</ele><time>2026-04-26T07:28:38.29Z</time></trkpt><trkpt lat="42.4719953" lon="14.2137917"><ele>3.0</ele><time>2026-04-26T07:28:39.29Z</time></trkpt><trkpt lat="42.4719372" lon="14.2138915"><ele>3.0</ele><time>2026-04-26T07:28:40.292Z</time></trkpt><trkpt lat="42.4718783" lon="14.213992"><ele>3.5999999999999996</ele><time>2026-04-26T07:28:41.288Z</time></trkpt><trkpt lat="42.4718197" lon="14.214092"><ele>4.199999999999999</ele><time>2026-04-26T07:28:42.29Z</time></trkpt><trkpt lat="42.4717612" lon="14.2141912"><ele>4.8</ele><time>2026-04-26T07:28:43.29Z</time></trkpt><trkpt lat="42.4717033" lon="14.2142898"><ele>5.3999999999999995</ele><time>2026-04-26T07:28:44.289Z</time></trkpt><trkpt lat="42.4716473" lon="14.2143857"><ele>6.0</ele><time>2026-04-26T07:28:45.289Z</time></trkpt><trkpt lat="42.4715915" lon="14.2144807"><ele>6.0</ele><time>2026-04-26T07:28:46.29Z</time></trkpt><trkpt lat="42.4715353" lon="14.2145753"><ele>6.0</ele><time>2026-04-26T07:28:47.291Z</time></trkpt><trkpt lat="42.4714795" lon="14.2146697"><ele>6.0</ele><time>2026-04-26T07:28:48.292Z</time></trkpt><trkpt lat="42.4714225" lon="14.2147635"><ele>6.0</ele><time>2026-04-26T07:28:49.29Z</time></trkpt><trkpt lat="42.4713658" lon="14.2148598"><ele>6.0</ele><time>2026-04-26T07:28:50.287Z</time></trkpt><trkpt lat="42.47131" lon="14.2149595"><ele>6.0</ele><time>2026-04-26T07:28:51.287Z</time></trkpt><trkpt lat="42.4712527" lon="14.2150595"><ele>6.0</ele><time>2026-04-26T07:28:52.287Z</time></trkpt><trkpt lat="42.4711938" lon="14.2151598"><ele>6.0</ele><time>2026-04-26T07:28:53.287Z</time></trkpt><trkpt lat="42.4711345" lon="14.2152623"><ele>6.0</ele><time>2026-04-26T07:28:54.29Z</time></trkpt><trkpt lat="42.4710767" lon="14.2153617"><ele>6.0</ele><time>2026-04-26T07:28:55.289Z</time></trkpt><trkpt lat="42.4710178" lon="14.2154613"><ele>6.0</ele><time>2026-04-26T07:28:56.291Z</time></trkpt><trkpt lat="42.4709588" lon="14.2155617"><ele>6.0</ele><time>2026-04-26T07:28:57.29Z</time></trkpt><trkpt lat="42.4709005" lon="14.2156622"><ele>6.0</ele><time>2026-04-26T07:28:58.289Z</time></trkpt><trkpt lat="42.4708413" lon="14.2157628"><ele>6.0</ele><time>2026-04-26T07:28:59.289Z</time></trkpt><trkpt lat="42.4707813" lon="14.2158628"><ele>6.0</ele><time>2026-04-26T07:29:00.29Z</time></trkpt><trkpt lat="42.4707217" lon="14.215963"><ele>6.0</ele><time>2026-04-26T07:29:01.29Z</time></trkpt><trkpt lat="42.470663" lon="14.2160645"><ele>6.0</ele><time>2026-04-26T07:29:02.29Z</time></trkpt><trkpt lat="42.470605" lon="14.2161697"><ele>6.0</ele><time>2026-04-26T07:29:03.29Z</time></trkpt><trkpt lat="42.470544" lon="14.2162745"><ele>6.0</ele><time>2026-04-26T07:29:04.29Z</time></trkpt><trkpt lat="42.4704815" lon="14.2163788"><ele>6.0</ele><time>2026-04-26T07:29:05.291Z</time></trkpt><trkpt lat="42.470419" lon="14.216483"><ele>5.6</ele><time>2026-04-26T07:29:06.29Z</time></trkpt><trkpt lat="42.470357" lon="14.2165882"><ele>5.199999999999999</ele><time>2026-04-26T07:29:07.292Z</time></trkpt><trkpt lat="42.4702953" lon="14.2166943"><ele>4.800000000000001</ele><time>2026-04-26T07:29:08.293Z</time></trkpt><trkpt lat="42.4702347" lon="14.2167993"><ele>4.4</ele><time>2026-04-26T07:29:09.291Z</time></trkpt><trkpt lat="42.4701762" lon="14.2169017"><ele>4.0</ele><time>2026-04-26T07:29:10.29Z</time></trkpt><trkpt lat="42.470119" lon="14.2170013"><ele>4.0</ele><time>2026-04-26T07:29:11.291Z</time></trkpt><trkpt lat="42.4700618" lon="14.2170993"><ele>4.0</ele><time>2026-04-26T07:29:12.291Z</time></trkpt><trkpt lat="42.4700052" lon="14.2171955"><ele>4.0</ele><time>2026-04-26T07:29:13.289Z</time></trkpt><trkpt lat="42.4699483" lon="14.2172898"><ele>4.0</ele><time>2026-04-26T07:29:14.288Z</time></trkpt><trkpt lat="42.469892" lon="14.2173837"><ele>4.0</ele><time>2026-04-26T07:29:15.288Z</time></trkpt><trkpt lat="42.469835" lon="14.2174802"><ele>4.0</ele><time>2026-04-26T07:29:16.288Z</time></trkpt><trkpt lat="42.4697783" lon="14.2175793"><ele>4.0</ele><time>2026-04-26T07:29:17.289Z</time></trkpt><trkpt lat="42.4697203" lon="14.217678"><ele>4.0</ele><time>2026-04-26T07:29:18.291Z</time></trkpt><trkpt lat="42.4696625" lon="14.2177743"><ele>4.0</ele><time>2026-04-26T07:29:19.289Z</time></trkpt><trkpt lat="42.4696037" lon="14.217869"><ele>4.0</ele><time>2026-04-26T07:29:20.291Z</time></trkpt><trkpt lat="42.4695457" lon="14.2179632"><ele>4.0</ele><time>2026-04-26T07:29:21.291Z</time></trkpt><trkpt lat="42.4694903" lon="14.218059"><ele>4.0</ele><time>2026-04-26T07:29:22.291Z</time></trkpt><trkpt lat="42.4693895" lon="14.2182347"><ele>4.0</ele><time>2026-04-26T07:29:24.295Z</time></trkpt><trkpt lat="42.4693427" lon="14.218316"><ele>4.0</ele><time>2026-04-26T07:29:25.292Z</time></trkpt><trkpt lat="42.4692952" lon="14.2184028"><ele>4.0</ele><time>2026-04-26T07:29:26.29Z</time></trkpt><trkpt lat="42.4692442" lon="14.218492"><ele>4.0</ele><time>2026-04-26T07:29:27.29Z</time></trkpt><trkpt lat="42.469192" lon="14.2185852"><ele>4.0</ele><time>2026-04-26T07:29:28.291Z</time></trkpt><trkpt lat="42.4691372" lon="14.2186805"><ele>4.0</ele><time>2026-04-26T07:29:29.29Z</time></trkpt><trkpt lat="42.4690817" lon="14.2187787"><ele>4.0</ele><time>2026-04-26T07:29:30.29Z</time></trkpt><trkpt lat="42.4690237" lon="14.2188778"><ele>4.0</ele><time>2026-04-26T07:29:31.29Z</time></trkpt><trkpt lat="42.468965" lon="14.2189778"><ele>4.2</ele><time>2026-04-26T07:29:32.291Z</time></trkpt><trkpt lat="42.468905" lon="14.2190773"><ele>4.4</ele><time>2026-04-26T07:29:33.29Z</time></trkpt><trkpt lat="42.4688448" lon="14.2191777"><ele>4.6</ele><time>2026-04-26T07:29:34.291Z</time></trkpt><trkpt lat="42.4687862" lon="14.2192795"><ele>4.8</ele><time>2026-04-26T07:29:35.289Z</time></trkpt><trkpt lat="42.4687262" lon="14.2193805"><ele>5.0</ele><time>2026-04-26T07:29:36.288Z</time></trkpt><trkpt lat="42.4686665" lon="14.2194828"><ele>5.0</ele><time>2026-04-26T07:29:37.289Z</time></trkpt><trkpt lat="42.4686057" lon="14.2195853"><ele>5.0</ele><time>2026-04-26T07:29:38.288Z</time></trkpt><trkpt lat="42.4685458" lon="14.219689"><ele>5.0</ele><time>2026-04-26T07:29:39.289Z</time></trkpt><trkpt lat="42.468486" lon="14.2197923"><ele>5.0</ele><time>2026-04-26T07:29:40.288Z</time></trkpt><trkpt lat="42.4684252" lon="14.2198967"><ele>5.0</ele><time>2026-04-26T07:29:41.288Z</time></trkpt><trkpt lat="42.4683647" lon="14.220001"><ele>4.6</ele><time>2026-04-26T07:29:42.288Z</time></trkpt><trkpt lat="42.4683048" lon="14.2201045"><ele>4.2</ele><time>2026-04-26T07:29:43.29Z</time></trkpt><trkpt lat="42.4682447" lon="14.2202068"><ele>3.8</ele><time>2026-04-26T07:29:44.29Z</time></trkpt><trkpt lat="42.4681848" lon="14.2203095"><ele>3.4</ele><time>2026-04-26T07:29:45.29Z</time></trkpt><trkpt lat="42.4681247" lon="14.2204117"><ele>3.0</ele><time>2026-04-26T07:29:46.29Z</time></trkpt><trkpt lat="42.4680647" lon="14.2205145"><ele>3.0</ele><time>2026-04-26T07:29:47.289Z</time></trkpt><trkpt lat="42.4680042" lon="14.220617"><ele>3.0</ele><time>2026-04-26T07:29:48.291Z</time></trkpt><trkpt lat="42.4679437" lon="14.2207207"><ele>3.0</ele><time>2026-04-26T07:29:49.288Z</time></trkpt><trkpt lat="42.4678813" lon="14.2208253"><ele>3.0</ele><time>2026-04-26T07:29:50.291Z</time></trkpt><trkpt lat="42.4678192" lon="14.2209315"><ele>3.0</ele><time>2026-04-26T07:29:51.291Z</time></trkpt><trkpt lat="42.4677572" lon="14.2210377"><ele>2.8</ele><time>2026-04-26T07:29:52.29Z</time></trkpt><trkpt lat="42.4676952" lon="14.2211442"><ele>2.5999999999999996</ele><time>2026-04-26T07:29:53.29Z</time></trkpt><trkpt lat="42.4676337" lon="14.2212512"><ele>2.4000000000000004</ele><time>2026-04-26T07:29:54.291Z</time></trkpt><trkpt lat="42.467573" lon="14.221359"><ele>2.2</ele><time>2026-04-26T07:29:55.29Z</time></trkpt><trkpt lat="42.4675132" lon="14.2214662"><ele>2.0</ele><time>2026-04-26T07:29:56.29Z</time></trkpt><trkpt lat="42.4674527" lon="14.221571"><ele>1.8333333333333333</ele><time>2026-04-26T07:29:57.294Z</time></trkpt><trkpt lat="42.4673988" lon="14.2216627"><ele>1.6666666666666665</ele><time>2026-04-26T07:29:58.29Z</time></trkpt><trkpt lat="42.4673412" lon="14.221758"><ele>1.5</ele><time>2026-04-26T07:30:00.291Z</time></trkpt><trkpt lat="42.467286" lon="14.2218498"><ele>1.3333333333333333</ele><time>2026-04-26T07:30:05.288Z</time></trkpt><trkpt lat="42.4672295" lon="14.2219298"><ele>1.1666666666666665</ele><time>2026-04-26T07:30:07.298Z</time></trkpt><trkpt lat="42.4671503" lon="14.2220158"><ele>1.0</ele><time>2026-04-26T07:30:09.291Z</time></trkpt><trkpt lat="42.4670685" lon="14.222081"><ele>1.4285714285714284</ele><time>2026-04-26T07:30:11.289Z</time></trkpt><trkpt lat="42.4669525" lon="14.2221223"><ele>1.857142857142857</ele><time>2026-04-26T07:30:13.291Z</time></trkpt><trkpt lat="42.4668833" lon="14.2221285"><ele>2.2857142857142856</ele><time>2026-04-26T07:30:14.29Z</time></trkpt><trkpt lat="42.4668182" lon="14.2221212"><ele>2.714285714285714</ele><time>2026-04-26T07:30:15.29Z</time></trkpt><trkpt lat="42.4667558" lon="14.2221053"><ele>3.1428571428571423</ele><time>2026-04-26T07:30:16.291Z</time></trkpt><trkpt lat="42.4666948" lon="14.2220822"><ele>3.571428571428571</ele><time>2026-04-26T07:30:17.291Z</time></trkpt><trkpt lat="42.4666343" lon="14.2220495"><ele>4.0</ele><time>2026-04-26T07:30:18.291Z</time></trkpt><trkpt lat="42.4665732" lon="14.222009"><ele>4.0</ele><time>2026-04-26T07:30:19.293Z</time></trkpt><trkpt lat="42.4665115" lon="14.221965"><ele>3.9999999999999996</ele><time>2026-04-26T07:30:20.29Z</time></trkpt><trkpt lat="42.4664475" lon="14.221921"><ele>4.0</ele><time>2026-04-26T07:30:21.291Z</time></trkpt><trkpt lat="42.4663818" lon="14.2218765"><ele>4.0</ele><time>2026-04-26T07:30:22.291Z</time></trkpt><trkpt lat="42.4663158" lon="14.2218298"><ele>3.9999999999999996</ele><time>2026-04-26T07:30:23.291Z</time></trkpt><trkpt lat="42.4662525" lon="14.2217823"><ele>4.0</ele><time>2026-04-26T07:30:24.292Z</time></trkpt><trkpt lat="42.466188" lon="14.2217323"><ele>4.0</ele><time>2026-04-26T07:30:25.29Z</time></trkpt><trkpt lat="42.4661223" lon="14.2216748"><ele>3.833333333333333</ele><time>2026-04-26T07:30:26.289Z</time></trkpt><trkpt lat="42.4660598" lon="14.221606"><ele>3.6666666666666665</ele><time>2026-04-26T07:30:27.29Z</time></trkpt><trkpt lat="42.4660032" lon="14.2215257"><ele>3.5</ele><time>2026-04-26T07:30:28.287Z</time></trkpt><trkpt lat="42.4659548" lon="14.2214357"><ele>3.333333333333333</ele><time>2026-04-26T07:30:29.29Z</time></trkpt><trkpt lat="42.4659147" lon="14.221338"><ele>3.1666666666666665</ele><time>2026-04-26T07:30:30.288Z</time></trkpt><trkpt lat="42.4658788" lon="14.221235"><ele>3.0</ele><time>2026-04-26T07:30:31.288Z</time></trkpt><trkpt lat="42.465845" lon="14.2211277"><ele>3.666666666666667</ele><time>2026-04-26T07:30:32.29Z</time></trkpt><trkpt lat="42.4658118" lon="14.221017"><ele>4.333333333333334</ele><time>2026-04-26T07:30:33.288Z</time></trkpt><trkpt lat="42.4657798" lon="14.220904"><ele>5.0</ele><time>2026-04-26T07:30:34.292Z</time></trkpt><trkpt lat="42.4657487" lon="14.2207893"><ele>5.666666666666667</ele><time>2026-04-26T07:30:35.293Z</time></trkpt><trkpt lat="42.4657168" lon="14.2206755"><ele>6.333333333333334</ele><time>2026-04-26T07:30:36.289Z</time></trkpt><trkpt lat="42.465686" lon="14.2205605"><ele>7.0</ele><time>2026-04-26T07:30:37.291Z</time></trkpt><trkpt lat="42.4656562" lon="14.2204447"><ele>6.666666666666667</ele><time>2026-04-26T07:30:38.288Z</time></trkpt><trkpt lat="42.4656267" lon="14.2203295"><ele>6.333333333333334</ele><time>2026-04-26T07:30:39.289Z</time></trkpt><trkpt lat="42.4655978" lon="14.2202175"><ele>6.0</ele><time>2026-04-26T07:30:40.289Z</time></trkpt><trkpt lat="42.4655725" lon="14.2201078"><ele>5.666666666666667</ele><time>2026-04-26T07:30:41.287Z</time></trkpt><trkpt lat="42.4655492" lon="14.2200008"><ele>5.333333333333334</ele><time>2026-04-26T07:30:42.288Z</time></trkpt><trkpt lat="42.4655267" lon="14.2198987"><ele>5.0</ele><time>2026-04-26T07:30:43.289Z</time></trkpt><trkpt lat="42.4655037" lon="14.2198008"><ele>5.0</ele><time>2026-04-26T07:30:44.287Z</time></trkpt><trkpt lat="42.4654787" lon="14.2197003"><ele>5.0</ele><time>2026-04-26T07:30:45.288Z</time></trkpt><trkpt lat="42.4654533" lon="14.2195983"><ele>5.0</ele><time>2026-04-26T07:30:46.286Z</time></trkpt><trkpt lat="42.4654273" lon="14.219499"><ele>5.0</ele><time>2026-04-26T07:30:47.287Z</time></trkpt><trkpt lat="42.465401" lon="14.219401"><ele>5.0</ele><time>2026-04-26T07:30:48.288Z</time></trkpt><trkpt lat="42.4653767" lon="14.2193067"><ele>5.0</ele><time>2026-04-26T07:30:49.287Z</time></trkpt><trkpt lat="42.4653528" lon="14.219213"><ele>4.8</ele><time>2026-04-26T07:30:50.286Z</time></trkpt><trkpt lat="42.4653302" lon="14.2191202"><ele>4.6</ele><time>2026-04-26T07:30:51.288Z</time></trkpt><trkpt lat="42.4653107" lon="14.219034"><ele>4.4</ele><time>2026-04-26T07:30:52.287Z</time></trkpt><trkpt lat="42.4652808" lon="14.218885"><ele>4.2</ele><time>2026-04-26T07:30:54.285Z</time></trkpt><trkpt lat="42.4652563" lon="14.2187433"><ele>4.0</ele><time>2026-04-26T07:30:56.286Z</time></trkpt><trkpt lat="42.4652222" lon="14.2186253"><ele>3.833333333333333</ele><time>2026-04-26T07:30:58.288Z</time></trkpt><trkpt lat="42.4651523" lon="14.2185985"><ele>3.6666666666666665</ele><time>2026-04-26T07:31:00.289Z</time></trkpt><trkpt lat="42.4650687" lon="14.2186133"><ele>3.5</ele><time>2026-04-26T07:31:02.29Z</time></trkpt><trkpt lat="42.4649812" lon="14.218569"><ele>3.333333333333333</ele><time>2026-04-26T07:31:04.29Z</time></trkpt><trkpt lat="42.4649215" lon="14.2184405"><ele>3.1666666666666665</ele><time>2026-04-26T07:31:06.289Z</time></trkpt><trkpt lat="42.4648912" lon="14.2183528"><ele>3.0</ele><time>2026-04-26T07:31:07.289Z</time></trkpt><trkpt lat="42.4648608" lon="14.2182593"><ele>3.0</ele><time>2026-04-26T07:31:08.289Z</time></trkpt><trkpt lat="42.46483" lon="14.2181553"><ele>3.0</ele><time>2026-04-26T07:31:09.287Z</time></trkpt><trkpt lat="42.4647987" lon="14.2180423"><ele>3.0</ele><time>2026-04-26T07:31:10.286Z</time></trkpt><trkpt lat="42.4647692" lon="14.2179235"><ele>3.0</ele><time>2026-04-26T07:31:11.287Z</time></trkpt><trkpt lat="42.4647392" lon="14.2178043"><ele>3.0</ele><time>2026-04-26T07:31:12.287Z</time></trkpt><trkpt lat="42.4647087" lon="14.2176852"><ele>3.2</ele><time>2026-04-26T07:31:13.289Z</time></trkpt><trkpt lat="42.4646785" lon="14.2175655"><ele>3.4</ele><time>2026-04-26T07:31:14.287Z</time></trkpt><trkpt lat="42.4646498" lon="14.2174458"><ele>3.6000000000000005</ele><time>2026-04-26T07:31:15.288Z</time></trkpt><trkpt lat="42.4646205" lon="14.2173273"><ele>3.8000000000000003</ele><time>2026-04-26T07:31:16.287Z</time></trkpt><trkpt lat="42.4645902" lon="14.217211"><ele>4.0</ele><time>2026-04-26T07:31:17.285Z</time></trkpt><trkpt lat="42.4645603" lon="14.2170987"><ele>3.9999999999999996</ele><time>2026-04-26T07:31:18.287Z</time></trkpt><trkpt lat="42.4645267" lon="14.2169885"><ele>4.0</ele><time>2026-04-26T07:31:19.285Z</time></trkpt><trkpt lat="42.4644867" lon="14.2168812"><ele>4.0</ele><time>2026-04-26T07:31:20.286Z</time></trkpt><trkpt lat="42.464439" lon="14.2167798"><ele>4.0</ele><time>2026-04-26T07:31:21.289Z</time></trkpt><trkpt lat="42.4643892" lon="14.216678"><ele>3.9999999999999996</ele><time>2026-04-26T07:31:22.288Z</time></trkpt><trkpt lat="42.4643445" lon="14.21657"><ele>4.0</ele><time>2026-04-26T07:31:23.287Z</time></trkpt><trkpt lat="42.4643022" lon="14.2164563"><ele>4.0</ele><time>2026-04-26T07:31:24.288Z</time></trkpt><trkpt lat="42.464258" lon="14.2163392"><ele>4.0</ele><time>2026-04-26T07:31:25.29Z</time></trkpt><trkpt lat="42.4642132" lon="14.2162178"><ele>4.0</ele><time>2026-04-26T07:31:26.288Z</time></trkpt><trkpt lat="42.46417" lon="14.216094"><ele>4.0</ele><time>2026-04-26T07:31:27.288Z</time></trkpt><trkpt lat="42.4641267" lon="14.215974"><ele>4.0</ele><time>2026-04-26T07:31:28.288Z</time></trkpt><trkpt lat="42.4640835" lon="14.2158508"><ele>4.0</ele><time>2026-04-26T07:31:29.29Z</time></trkpt><trkpt lat="42.4640397" lon="14.2157218"><ele>4.0</ele><time>2026-04-26T07:31:30.302Z</time></trkpt><trkpt lat="42.463995" lon="14.2155907"><ele>4.0</ele><time>2026-04-26T07:31:31.286Z</time></trkpt><trkpt lat="42.4639478" lon="14.215453"><ele>4.0</ele><time>2026-04-26T07:31:32.287Z</time></trkpt><trkpt lat="42.4639023" lon="14.2153167"><ele>4.0</ele><time>2026-04-26T07:31:33.287Z</time></trkpt><trkpt lat="42.4638518" lon="14.2151805"><ele>4.75</ele><time>2026-04-26T07:31:34.289Z</time></trkpt><trkpt lat="42.4637993" lon="14.2150457"><ele>5.5</ele><time>2026-04-26T07:31:35.288Z</time></trkpt><trkpt lat="42.463744" lon="14.2149108"><ele>6.25</ele><time>2026-04-26T07:31:36.289Z</time></trkpt><trkpt lat="42.4636848" lon="14.2147672"><ele>7.0</ele><time>2026-04-26T07:31:37.289Z</time></trkpt><trkpt lat="42.4636232" lon="14.2146177"><ele>7.5</ele><time>2026-04-26T07:31:38.288Z</time></trkpt><trkpt lat="42.4635575" lon="14.2144668"><ele>8.0</ele><time>2026-04-26T07:31:39.288Z</time></trkpt><trkpt lat="42.463491" lon="14.2143138"><ele>8.5</ele><time>2026-04-26T07:31:40.289Z</time></trkpt><trkpt lat="42.4634223" lon="14.2141582"><ele>9.0</ele><time>2026-04-26T07:31:41.284Z</time></trkpt><trkpt lat="42.4633502" lon="14.2140007"><ele>9.75</ele><time>2026-04-26T07:31:42.284Z</time></trkpt><trkpt lat="42.4632822" lon="14.2138407"><ele>10.5</ele><time>2026-04-26T07:31:43.284Z</time></trkpt><trkpt lat="42.4632115" lon="14.2136803"><ele>11.25</ele><time>2026-04-26T07:31:44.284Z</time></trkpt><trkpt lat="42.4631423" lon="14.2135202"><ele>12.0</ele><time>2026-04-26T07:31:45.286Z</time></trkpt><trkpt lat="42.4630727" lon="14.2133632"><ele>12.0</ele><time>2026-04-26T07:31:46.29Z</time></trkpt><trkpt lat="42.4630045" lon="14.213208"><ele>12.0</ele><time>2026-04-26T07:31:47.286Z</time></trkpt><trkpt lat="42.4629368" lon="14.2130555"><ele>12.0</ele><time>2026-04-26T07:31:48.288Z</time></trkpt><trkpt lat="42.4628682" lon="14.2129033"><ele>12.0</ele><time>2026-04-26T07:31:49.289Z</time></trkpt><trkpt lat="42.4627998" lon="14.2127522"><ele>10.75</ele><time>2026-04-26T07:31:50.288Z</time></trkpt><trkpt lat="42.462731" lon="14.2126012"><ele>9.5</ele><time>2026-04-26T07:31:51.289Z</time></trkpt><trkpt lat="42.462662" lon="14.2124512"><ele>8.25</ele><time>2026-04-26T07:31:52.288Z</time></trkpt><trkpt lat="42.462593" lon="14.2123025"><ele>7.0</ele><time>2026-04-26T07:31:53.287Z</time></trkpt><trkpt lat="42.4625252" lon="14.2121553"><ele>6.25</ele><time>2026-04-26T07:31:54.289Z</time></trkpt><trkpt lat="42.4624598" lon="14.2120077"><ele>5.5</ele><time>2026-04-26T07:31:55.288Z</time></trkpt><trkpt lat="42.4623958" lon="14.2118617"><ele>4.75</ele><time>2026-04-26T07:31:56.286Z</time></trkpt><trkpt lat="42.4623308" lon="14.2117178"><ele>4.0</ele><time>2026-04-26T07:31:57.287Z</time></trkpt><trkpt lat="42.462266" lon="14.2115745"><ele>4.0</ele><time>2026-04-26T07:31:58.287Z</time></trkpt><trkpt lat="42.4622022" lon="14.2114315"><ele>4.0</ele><time>2026-04-26T07:31:59.287Z</time></trkpt><trkpt lat="42.4621382" lon="14.2112882"><ele>4.0</ele><time>2026-04-26T07:32:00.288Z</time></trkpt><trkpt lat="42.4620748" lon="14.2111462"><ele>4.0</ele><time>2026-04-26T07:32:01.288Z</time></trkpt><trkpt lat="42.462012" lon="14.2110058"><ele>4.0</ele><time>2026-04-26T07:32:02.287Z</time></trkpt><trkpt lat="42.4619522" lon="14.2108637"><ele>4.0</ele><time>2026-04-26T07:32:03.287Z</time></trkpt><trkpt lat="42.4618952" lon="14.2107223"><ele>4.0</ele><time>2026-04-26T07:32:04.287Z</time></trkpt><trkpt lat="42.4618427" lon="14.2105893"><ele>4.0</ele><time>2026-04-26T07:32:05.286Z</time></trkpt><trkpt lat="42.461803" lon="14.210465"><ele>4.0</ele><time>2026-04-26T07:32:06.283Z</time></trkpt><trkpt lat="42.4617737" lon="14.2103352"><ele>4.0</ele><time>2026-04-26T07:32:07.284Z</time></trkpt><trkpt lat="42.4617657" lon="14.2102017"><ele>4.0</ele><time>2026-04-26T07:32:08.284Z</time></trkpt><trkpt lat="42.4617568" lon="14.2100683"><ele>4.0</ele><time>2026-04-26T07:32:09.283Z</time></trkpt><trkpt lat="42.4617447" lon="14.2099478"><ele>4.0</ele><time>2026-04-26T07:32:10.285Z</time></trkpt><trkpt lat="42.4617422" lon="14.2098443"><ele>4.166666666666666</ele><time>2026-04-26T07:32:11.285Z</time></trkpt><trkpt lat="42.4617503" lon="14.209738"><ele>4.333333333333333</ele><time>2026-04-26T07:32:12.287Z</time></trkpt><trkpt lat="42.4617822" lon="14.2096363"><ele>4.5</ele><time>2026-04-26T07:32:13.286Z</time></trkpt><trkpt lat="42.4618298" lon="14.2095428"><ele>4.666666666666667</ele><time>2026-04-26T07:32:14.287Z</time></trkpt><trkpt lat="42.4618855" lon="14.2094498"><ele>4.833333333333334</ele><time>2026-04-26T07:32:15.288Z</time></trkpt><trkpt lat="42.4619388" lon="14.2093423"><ele>5.0</ele><time>2026-04-26T07:32:16.289Z</time></trkpt><trkpt lat="42.461981" lon="14.2092248"><ele>5.0</ele><time>2026-04-26T07:32:17.29Z</time></trkpt><trkpt lat="42.4620162" lon="14.2091038"><ele>5.0</ele><time>2026-04-26T07:32:18.288Z</time></trkpt><trkpt lat="42.4620428" lon="14.208995"><ele>5.0</ele><time>2026-04-26T07:32:19.288Z</time></trkpt><trkpt lat="42.4620678" lon="14.2089042"><ele>5.0</ele><time>2026-04-26T07:32:20.289Z</time></trkpt><trkpt lat="42.4621157" lon="14.2087732"><ele>5.0</ele><time>2026-04-26T07:32:22.29Z</time></trkpt><trkpt lat="42.462161" lon="14.2086827"><ele>5.0</ele><time>2026-04-26T07:32:24.288Z</time></trkpt><trkpt lat="42.4622308" lon="14.2085722"><ele>5.0</ele><time>2026-04-26T07:32:26.288Z</time></trkpt><trkpt lat="42.462291" lon="14.208433"><ele>5.0</ele><time>2026-04-26T07:32:28.288Z</time></trkpt><trkpt lat="42.462286" lon="14.2082815"><ele>5.0</ele><time>2026-04-26T07:32:30.288Z</time></trkpt><trkpt lat="42.4621992" lon="14.2081925"><ele>5.0</ele><time>2026-04-26T07:32:32.289Z</time></trkpt><trkpt lat="42.4621292" lon="14.208178"><ele>5.0</ele><time>2026-04-26T07:32:33.287Z</time></trkpt><trkpt lat="42.462033" lon="14.2081717"><ele>5.0</ele><time>2026-04-26T07:32:34.29Z</time></trkpt><trkpt lat="42.461911" lon="14.2081665"><ele>5.0</ele><time>2026-04-26T07:32:35.29Z</time></trkpt><trkpt lat="42.4617735" lon="14.2081475"><ele>5.0</ele><time>2026-04-26T07:32:36.29Z</time></trkpt><trkpt lat="42.4616308" lon="14.2081175"><ele>5.0</ele><time>2026-04-26T07:32:37.289Z</time></trkpt><trkpt lat="42.4614985" lon="14.2080823"><ele>5.0</ele><time>2026-04-26T07:32:38.289Z</time></trkpt><trkpt lat="42.4613805" lon="14.2080462"><ele>5.0</ele><time>2026-04-26T07:32:39.289Z</time></trkpt><trkpt lat="42.4612792" lon="14.2080108"><ele>5.0</ele><time>2026-04-26T07:32:40.293Z</time></trkpt><trkpt lat="42.4611965" lon="14.2079702"><ele>5.0</ele><time>2026-04-26T07:32:41.292Z</time></trkpt><trkpt lat="42.4611323" lon="14.2079198"><ele>5.0</ele><time>2026-04-26T07:32:42.292Z</time></trkpt><trkpt lat="42.4610733" lon="14.207857"><ele>5.166666666666667</ele><time>2026-04-26T07:32:43.288Z</time></trkpt><trkpt lat="42.46101" lon="14.2078022"><ele>5.333333333333334</ele><time>2026-04-26T07:32:44.286Z</time></trkpt><trkpt lat="42.4609442" lon="14.2077722"><ele>5.5</ele><time>2026-04-26T07:32:45.288Z</time></trkpt><trkpt lat="42.460829" lon="14.2078062"><ele>5.666666666666667</ele><time>2026-04-26T07:32:47.288Z</time></trkpt><trkpt lat="42.4607907" lon="14.2078743"><ele>5.833333333333333</ele><time>2026-04-26T07:32:48.293Z</time></trkpt><trkpt lat="42.4607715" lon="14.2079673"><ele>6.0</ele><time>2026-04-26T07:32:49.288Z</time></trkpt><trkpt lat="42.4607758" lon="14.2080762"><ele>6.0</ele><time>2026-04-26T07:32:50.29Z</time></trkpt><trkpt lat="42.4607925" lon="14.208199"><ele>6.0</ele><time>2026-04-26T07:32:51.29Z</time></trkpt><trkpt lat="42.4607983" lon="14.208329"><ele>6.0</ele><time>2026-04-26T07:32:52.289Z</time></trkpt><trkpt lat="42.4607788" lon="14.2084502"><ele>6.0</ele><time>2026-04-26T07:32:53.287Z</time></trkpt><trkpt lat="42.4607378" lon="14.2085583"><ele>6.0</ele><time>2026-04-26T07:32:54.287Z</time></trkpt><trkpt lat="42.460686" lon="14.2086412"><ele>6.0</ele><time>2026-04-26T07:32:55.285Z</time></trkpt><trkpt lat="42.4606242" lon="14.2087065"><ele>6.0</ele><time>2026-04-26T07:32:56.285Z</time></trkpt><trkpt lat="42.4605355" lon="14.208765"><ele>6.0</ele><time>2026-04-26T07:32:57.285Z</time></trkpt><trkpt lat="42.4604285" lon="14.2088177"><ele>6.0</ele><time>2026-04-26T07:32:58.285Z</time></trkpt><trkpt lat="42.4603083" lon="14.2088813"><ele>6.0</ele><time>2026-04-26T07:32:59.286Z</time></trkpt><trkpt lat="42.4601773" lon="14.2089645"><ele>5.25</ele><time>2026-04-26T07:33:00.286Z</time></trkpt><trkpt lat="42.4600357" lon="14.2090608"><ele>4.5</ele><time>2026-04-26T07:33:01.286Z</time></trkpt><trkpt lat="42.4598983" lon="14.209155"><ele>3.75</ele><time>2026-04-26T07:33:02.287Z</time></trkpt><trkpt lat="42.4597777" lon="14.2092345"><ele>3.0</ele><time>2026-04-26T07:33:03.287Z</time></trkpt><trkpt lat="42.459671" lon="14.2093082"><ele>3.5</ele><time>2026-04-26T07:33:04.287Z</time></trkpt><trkpt lat="42.4595523" lon="14.2093892"><ele>4.0</ele><time>2026-04-26T07:33:05.285Z</time></trkpt><trkpt lat="42.4594245" lon="14.2094825"><ele>4.5</ele><time>2026-04-26T07:33:06.285Z</time></trkpt><trkpt lat="42.4592875" lon="14.2095718"><ele>5.0</ele><time>2026-04-26T07:33:07.286Z</time></trkpt><trkpt lat="42.4591443" lon="14.2096558"><ele>5.0</ele><time>2026-04-26T07:33:08.285Z</time></trkpt><trkpt lat="42.4589998" lon="14.209751"><ele>5.0</ele><time>2026-04-26T07:33:09.285Z</time></trkpt><trkpt lat="42.4588613" lon="14.2098498"><ele>5.0</ele><time>2026-04-26T07:33:10.283Z</time></trkpt><trkpt lat="42.4587297" lon="14.209939"><ele>5.2</ele><time>2026-04-26T07:33:11.283Z</time></trkpt><trkpt lat="42.4586142" lon="14.21002"><ele>5.4</ele><time>2026-04-26T07:33:12.285Z</time></trkpt><trkpt lat="42.4585173" lon="14.2100877"><ele>5.6</ele><time>2026-04-26T07:33:13.285Z</time></trkpt><trkpt lat="42.4584443" lon="14.2101438"><ele>5.8</ele><time>2026-04-26T07:33:14.286Z</time></trkpt><trkpt lat="42.4583907" lon="14.2101918"><ele>6.0</ele><time>2026-04-26T07:33:15.286Z</time></trkpt><trkpt lat="42.4583157" lon="14.210285"><ele>6.0</ele><time>2026-04-26T07:33:17.288Z</time></trkpt><trkpt lat="42.458285" lon="14.2104407"><ele>6.0</ele><time>2026-04-26T07:33:19.286Z</time></trkpt><trkpt lat="42.4583083" lon="14.2105257"><ele>6.0</ele><time>2026-04-26T07:33:20.285Z</time></trkpt><trkpt lat="42.45836" lon="14.2106198"><ele>6.0</ele><time>2026-04-26T07:33:21.285Z</time></trkpt><trkpt lat="42.4584322" lon="14.2107232"><ele>6.0</ele><time>2026-04-26T07:33:22.287Z</time></trkpt><trkpt lat="42.458504" lon="14.2108233"><ele>6.199999999999999</ele><time>2026-04-26T07:33:23.288Z</time></trkpt><trkpt lat="42.4585543" lon="14.2109027"><ele>6.3999999999999995</ele><time>2026-04-26T07:33:24.287Z</time></trkpt><trkpt lat="42.4585527" lon="14.211051"><ele>6.6</ele><time>2026-04-26T07:33:26.289Z</time></trkpt><trkpt lat="42.4584405" lon="14.2111605"><ele>6.8</ele><time>2026-04-26T07:33:28.287Z</time></trkpt><trkpt lat="42.4583413" lon="14.2112207"><ele>7.0</ele><time>2026-04-26T07:33:29.285Z</time></trkpt><trkpt lat="42.4582208" lon="14.2112955"><ele>7.0</ele><time>2026-04-26T07:33:30.286Z</time></trkpt><trkpt lat="42.4580883" lon="14.2113788"><ele>7.0</ele><time>2026-04-26T07:33:31.285Z</time></trkpt><trkpt lat="42.4579485" lon="14.2114657"><ele>7.0</ele><time>2026-04-26T07:33:32.283Z</time></trkpt><trkpt lat="42.4578012" lon="14.2115575"><ele>6.0</ele><time>2026-04-26T07:33:33.285Z</time></trkpt><trkpt lat="42.4576487" lon="14.2116562"><ele>5.0</ele><time>2026-04-26T07:33:34.29Z</time></trkpt><trkpt lat="42.4574922" lon="14.2117555"><ele>4.0</ele><time>2026-04-26T07:33:35.285Z</time></trkpt><trkpt lat="42.4573327" lon="14.2118532"><ele>4.0</ele><time>2026-04-26T07:33:36.289Z</time></trkpt><trkpt lat="42.4571712" lon="14.2119448"><ele>4.0</ele><time>2026-04-26T07:33:37.286Z</time></trkpt><trkpt lat="42.4570078" lon="14.2120322"><ele>4.0</ele><time>2026-04-26T07:33:38.286Z</time></trkpt><trkpt lat="42.4568427" lon="14.2121173"><ele>4.0</ele><time>2026-04-26T07:33:39.284Z</time></trkpt><trkpt lat="42.4566767" lon="14.2122002"><ele>4.0</ele><time>2026-04-26T07:33:40.283Z</time></trkpt><trkpt lat="42.4565107" lon="14.2122823"><ele>4.0</ele><time>2026-04-26T07:33:41.285Z</time></trkpt><trkpt lat="42.4563442" lon="14.212361"><ele>3.6666666666666665</ele><time>2026-04-26T07:33:42.287Z</time></trkpt><trkpt lat="42.4561772" lon="14.2124297"><ele>3.333333333333333</ele><time>2026-04-26T07:33:43.286Z</time></trkpt><trkpt lat="42.4560137" lon="14.212484"><ele>3.0</ele><time>2026-04-26T07:33:44.283Z</time></trkpt><trkpt lat="42.4558605" lon="14.2125178"><ele>3.0</ele><time>2026-04-26T07:33:45.286Z</time></trkpt><trkpt lat="42.4557225" lon="14.212536"><ele>3.0</ele><time>2026-04-26T07:33:46.285Z</time></trkpt><trkpt lat="42.4555893" lon="14.2125495"><ele>3.0</ele><time>2026-04-26T07:33:47.285Z</time></trkpt><trkpt lat="42.4554552" lon="14.2125667"><ele>3.0</ele><time>2026-04-26T07:33:48.29Z</time></trkpt><trkpt lat="42.4553192" lon="14.2125845"><ele>3.0</ele><time>2026-04-26T07:33:49.29Z</time></trkpt><trkpt lat="42.4551898" lon="14.2125947"><ele>3.0</ele><time>2026-04-26T07:33:50.289Z</time></trkpt><trkpt lat="42.4550627" lon="14.2126025"><ele>3.0</ele><time>2026-04-26T07:33:51.29Z</time></trkpt><trkpt lat="42.4549483" lon="14.2126093"><ele>3.0</ele><time>2026-04-26T07:33:52.29Z</time></trkpt><trkpt lat="42.4548535" lon="14.2126208"><ele>2.9999999999999996</ele><time>2026-04-26T07:33:53.289Z</time></trkpt><trkpt lat="42.4547783" lon="14.2126472"><ele>3.0</ele><time>2026-04-26T07:33:54.29Z</time></trkpt><trkpt lat="42.454724" lon="14.2126975"><ele>3.0</ele><time>2026-04-26T07:33:55.289Z</time></trkpt><trkpt lat="42.454692" lon="14.2127725"><ele>3.0</ele><time>2026-04-26T07:33:56.288Z</time></trkpt><trkpt lat="42.4546747" lon="14.2128662"><ele>3.0</ele><time>2026-04-26T07:33:57.291Z</time></trkpt><trkpt lat="42.4546527" lon="14.212977"><ele>2.9999999999999996</ele><time>2026-04-26T07:33:58.289Z</time></trkpt><trkpt lat="42.4546175" lon="14.2130815"><ele>3.0</ele><time>2026-04-26T07:33:59.289Z</time></trkpt><trkpt lat="42.4545612" lon="14.213165"><ele>3.0</ele><time>2026-04-26T07:34:00.29Z</time></trkpt><trkpt lat="42.454481" lon="14.2132258"><ele>3.0</ele><time>2026-04-26T07:34:01.288Z</time></trkpt><trkpt lat="42.4543822" lon="14.213277"><ele>3.0</ele><time>2026-04-26T07:34:02.286Z</time></trkpt><trkpt lat="42.4542698" lon="14.2133315"><ele>3.0</ele><time>2026-04-26T07:34:03.288Z</time></trkpt><trkpt lat="42.4541448" lon="14.2133902"><ele>3.0</ele><time>2026-04-26T07:34:04.289Z</time></trkpt><trkpt lat="42.4540123" lon="14.2134532"><ele>3.0</ele><time>2026-04-26T07:34:05.288Z</time></trkpt><trkpt lat="42.4538737" lon="14.2135212"><ele>3.0</ele><time>2026-04-26T07:34:06.288Z</time></trkpt><trkpt lat="42.4537308" lon="14.2135898"><ele>3.0</ele><time>2026-04-26T07:34:07.289Z</time></trkpt><trkpt lat="42.4535857" lon="14.2136585"><ele>2.75</ele><time>2026-04-26T07:34:08.286Z</time></trkpt><trkpt lat="42.4534443" lon="14.2137273"><ele>2.5</ele><time>2026-04-26T07:34:09.285Z</time></trkpt><trkpt lat="42.4533113" lon="14.2137913"><ele>2.25</ele><time>2026-04-26T07:34:10.286Z</time></trkpt><trkpt lat="42.4531828" lon="14.2138505"><ele>2.0</ele><time>2026-04-26T07:34:11.287Z</time></trkpt><trkpt lat="42.453062" lon="14.2139082"><ele>1.5</ele><time>2026-04-26T07:34:12.289Z</time></trkpt><trkpt lat="42.45295" lon="14.2139608"><ele>1.0</ele><time>2026-04-26T07:34:13.288Z</time></trkpt><trkpt lat="42.4528385" lon="14.2140142"><ele>0.5</ele><time>2026-04-26T07:34:14.289Z</time></trkpt><trkpt lat="42.4527237" lon="14.2140698"><ele>0.0</ele><time>2026-04-26T07:34:15.289Z</time></trkpt><trkpt lat="42.4526065" lon="14.2141265"><ele>0.0</ele><time>2026-04-26T07:34:16.289Z</time></trkpt><trkpt lat="42.4524903" lon="14.2141805"><ele>0.0</ele><time>2026-04-26T07:34:17.288Z</time></trkpt><trkpt lat="42.452383" lon="14.2142298"><ele>0.0</ele><time>2026-04-26T07:34:18.29Z</time></trkpt><trkpt lat="42.4522785" lon="14.214281"><ele>0.0</ele><time>2026-04-26T07:34:19.288Z</time></trkpt><trkpt lat="42.452173" lon="14.214341"><ele>0.25</ele><time>2026-04-26T07:34:20.289Z</time></trkpt><trkpt lat="42.4520747" lon="14.2144128"><ele>0.5</ele><time>2026-04-26T07:34:21.291Z</time></trkpt><trkpt lat="42.4519812" lon="14.2144967"><ele>0.75</ele><time>2026-04-26T07:34:22.289Z</time></trkpt><trkpt lat="42.451891" lon="14.2145903"><ele>1.0</ele><time>2026-04-26T07:34:23.287Z</time></trkpt><trkpt lat="42.4518075" lon="14.2146985"><ele>1.0</ele><time>2026-04-26T07:34:24.289Z</time></trkpt><trkpt lat="42.451732" lon="14.2148198"><ele>1.0</ele><time>2026-04-26T07:34:25.289Z</time></trkpt><trkpt lat="42.4516593" lon="14.2149502"><ele>1.0</ele><time>2026-04-26T07:34:26.29Z</time></trkpt><trkpt lat="42.4515865" lon="14.2150867"><ele>1.0</ele><time>2026-04-26T07:34:27.289Z</time></trkpt><trkpt lat="42.4515117" lon="14.2152267"><ele>1.0</ele><time>2026-04-26T07:34:28.287Z</time></trkpt><trkpt lat="42.4514348" lon="14.2153717"><ele>1.0</ele><time>2026-04-26T07:34:29.29Z</time></trkpt><trkpt lat="42.4513615" lon="14.2155125"><ele>1.0</ele><time>2026-04-26T07:34:30.289Z</time></trkpt><trkpt lat="42.4512918" lon="14.2156447"><ele>1.0</ele><time>2026-04-26T07:34:31.29Z</time></trkpt><trkpt lat="42.4512217" lon="14.2157758"><ele>1.4</ele><time>2026-04-26T07:34:32.287Z</time></trkpt><trkpt lat="42.4511523" lon="14.2159035"><ele>1.8</ele><time>2026-04-26T07:34:33.285Z</time></trkpt><trkpt lat="42.4510852" lon="14.2160283"><ele>2.1999999999999997</ele><time>2026-04-26T07:34:34.285Z</time></trkpt><trkpt lat="42.4510205" lon="14.2161472"><ele>2.6</ele><time>2026-04-26T07:34:35.283Z</time></trkpt><trkpt lat="42.4509578" lon="14.216262"><ele>3.0</ele><time>2026-04-26T07:34:36.287Z</time></trkpt><trkpt lat="42.4508963" lon="14.2163717"><ele>3.0</ele><time>2026-04-26T07:34:37.288Z</time></trkpt><trkpt lat="42.450836" lon="14.2164752"><ele>3.0</ele><time>2026-04-26T07:34:38.287Z</time></trkpt><trkpt lat="42.4507783" lon="14.2165768"><ele>3.0</ele><time>2026-04-26T07:34:39.286Z</time></trkpt><trkpt lat="42.4507235" lon="14.2166672"><ele>3.0</ele><time>2026-04-26T07:34:40.287Z</time></trkpt><trkpt lat="42.4506755" lon="14.2167482"><ele>3.0</ele><time>2026-04-26T07:34:41.288Z</time></trkpt><trkpt lat="42.4506123" lon="14.2168565"><ele>3.1666666666666665</ele><time>2026-04-26T07:34:43.289Z</time></trkpt><trkpt lat="42.4505563" lon="14.2169173"><ele>3.333333333333333</ele><time>2026-04-26T07:34:45.289Z</time></trkpt><trkpt lat="42.4504737" lon="14.2169098"><ele>3.5</ele><time>2026-04-26T07:34:47.289Z</time></trkpt><trkpt lat="42.4503773" lon="14.2168025"><ele>3.6666666666666665</ele><time>2026-04-26T07:34:49.289Z</time></trkpt><trkpt lat="42.4503158" lon="14.2167287"><ele>3.833333333333333</ele><time>2026-04-26T07:34:50.288Z</time></trkpt><trkpt lat="42.4502547" lon="14.2166442"><ele>4.0</ele><time>2026-04-26T07:34:51.288Z</time></trkpt><trkpt lat="42.4501957" lon="14.2165612"><ele>4.0</ele><time>2026-04-26T07:34:52.288Z</time></trkpt><trkpt lat="42.450138" lon="14.2164758"><ele>4.0</ele><time>2026-04-26T07:34:53.288Z</time></trkpt><trkpt lat="42.450078" lon="14.2163855"><ele>4.0</ele><time>2026-04-26T07:34:54.287Z</time></trkpt><trkpt lat="42.4500122" lon="14.2162913"><ele>4.0</ele><time>2026-04-26T07:34:55.288Z</time></trkpt><trkpt lat="42.4499447" lon="14.2161917"><ele>4.0</ele><time>2026-04-26T07:34:56.289Z</time></trkpt><trkpt lat="42.4498802" lon="14.2160955"><ele>3.9999999999999996</ele><time>2026-04-26T07:34:57.286Z</time></trkpt><trkpt lat="42.4498158" lon="14.2160048"><ele>4.0</ele><time>2026-04-26T07:34:58.286Z</time></trkpt><trkpt lat="42.4497565" lon="14.2159167"><ele>4.0</ele><time>2026-04-26T07:34:59.285Z</time></trkpt><trkpt lat="42.4497042" lon="14.2158358"><ele>4.0</ele><time>2026-04-26T07:35:00.286Z</time></trkpt><trkpt lat="42.4496567" lon="14.2157615"><ele>3.9999999999999996</ele><time>2026-04-26T07:35:01.287Z</time></trkpt><trkpt lat="42.4496155" lon="14.215689"><ele>4.0</ele><time>2026-04-26T07:35:02.287Z</time></trkpt><trkpt lat="42.4495815" lon="14.2156142"><ele>3.9999999999999996</ele><time>2026-04-26T07:35:03.29Z</time></trkpt><trkpt lat="42.449521" lon="14.2154958"><ele>4.0</ele><time>2026-04-26T07:35:05.289Z</time></trkpt><trkpt lat="42.4494557" lon="14.2154438"><ele>4.0</ele><time>2026-04-26T07:35:07.289Z</time></trkpt><trkpt lat="42.449392" lon="14.2154592"><ele>4.0</ele><time>2026-04-26T07:35:09.288Z</time></trkpt><trkpt lat="42.4493217" lon="14.2155327"><ele>3.9999999999999996</ele><time>2026-04-26T07:35:11.289Z</time></trkpt><trkpt lat="42.4492638" lon="14.215591"><ele>4.0</ele><time>2026-04-26T07:35:12.287Z</time></trkpt><trkpt lat="42.4491857" lon="14.2156638"><ele>4.0</ele><time>2026-04-26T07:35:13.287Z</time></trkpt><trkpt lat="42.4490888" lon="14.2157375"><ele>4.0</ele><time>2026-04-26T07:35:14.284Z</time></trkpt><trkpt lat="42.448977" lon="14.2158112"><ele>4.0</ele><time>2026-04-26T07:35:15.285Z</time></trkpt><trkpt lat="42.4488527" lon="14.2158825"><ele>4.0</ele><time>2026-04-26T07:35:16.285Z</time></trkpt><trkpt lat="42.4487197" lon="14.2159557"><ele>5.0</ele><time>2026-04-26T07:35:17.287Z</time></trkpt><trkpt lat="42.4485773" lon="14.2160367"><ele>6.0</ele><time>2026-04-26T07:35:18.287Z</time></trkpt><trkpt lat="42.4484292" lon="14.2161227"><ele>7.0</ele><time>2026-04-26T07:35:19.286Z</time></trkpt><trkpt lat="42.4482742" lon="14.2162127"><ele>7.0</ele><time>2026-04-26T07:35:20.286Z</time></trkpt><trkpt lat="42.4481182" lon="14.2163028"><ele>7.0</ele><time>2026-04-26T07:35:21.286Z</time></trkpt><trkpt lat="42.447961" lon="14.2163925"><ele>7.0</ele><time>2026-04-26T07:35:22.285Z</time></trkpt><trkpt lat="42.4478063" lon="14.2164807"><ele>7.0</ele><time>2026-04-26T07:35:23.283Z</time></trkpt><trkpt lat="42.4476618" lon="14.2165602"><ele>7.0</ele><time>2026-04-26T07:35:24.283Z</time></trkpt><trkpt lat="42.4475247" lon="14.2166388"><ele>7.0</ele><time>2026-04-26T07:35:25.283Z</time></trkpt><trkpt lat="42.44739" lon="14.2167165"><ele>7.0</ele><time>2026-04-26T07:35:26.285Z</time></trkpt><trkpt lat="42.4472568" lon="14.216794"><ele>7.0</ele><time>2026-04-26T07:35:27.285Z</time></trkpt><trkpt lat="42.4471283" lon="14.2168685"><ele>7.0</ele><time>2026-04-26T07:35:28.285Z</time></trkpt><trkpt lat="42.4470127" lon="14.2169363"><ele>7.0</ele><time>2026-04-26T07:35:29.283Z</time></trkpt><trkpt lat="42.4469078" lon="14.2169965"><ele>7.199999999999999</ele><time>2026-04-26T07:35:30.285Z</time></trkpt><trkpt lat="42.4468093" lon="14.2170453"><ele>7.3999999999999995</ele><time>2026-04-26T07:35:31.286Z</time></trkpt><trkpt lat="42.4467102" lon="14.217092"><ele>7.6000000000000005</ele><time>2026-04-26T07:35:32.286Z</time></trkpt><trkpt lat="42.4466102" lon="14.2171413"><ele>7.800000000000001</ele><time>2026-04-26T07:35:33.289Z</time></trkpt><trkpt lat="42.4465177" lon="14.217194"><ele>8.0</ele><time>2026-04-26T07:35:34.287Z</time></trkpt><trkpt lat="42.4464377" lon="14.217248"><ele>8.0</ele><time>2026-04-26T07:35:35.287Z</time></trkpt><trkpt lat="42.4463682" lon="14.2172977"><ele>8.0</ele><time>2026-04-26T07:35:36.288Z</time></trkpt><trkpt lat="42.4463048" lon="14.2173388"><ele>8.0</ele><time>2026-04-26T07:35:37.288Z</time></trkpt><trkpt lat="42.4462055" lon="14.2173593"><ele>8.0</ele><time>2026-04-26T07:35:39.289Z</time></trkpt><trkpt lat="42.4461128" lon="14.217236"><ele>8.0</ele><time>2026-04-26T07:35:41.288Z</time></trkpt><trkpt lat="42.4460433" lon="14.2171372"><ele>7.0</ele><time>2026-04-26T07:35:42.289Z</time></trkpt><trkpt lat="42.4459505" lon="14.2170308"><ele>6.0</ele><time>2026-04-26T07:35:43.288Z</time></trkpt><trkpt lat="42.4458412" lon="14.2169202"><ele>5.0</ele><time>2026-04-26T07:35:44.287Z</time></trkpt><trkpt lat="42.4457212" lon="14.2168032"><ele>4.0</ele><time>2026-04-26T07:35:45.291Z</time></trkpt><trkpt lat="42.4455938" lon="14.2166818"><ele>4.0</ele><time>2026-04-26T07:35:46.285Z</time></trkpt><trkpt lat="42.4454637" lon="14.2165555"><ele>4.0</ele><time>2026-04-26T07:35:47.284Z</time></trkpt><trkpt lat="42.4453338" lon="14.2164297"><ele>4.0</ele><time>2026-04-26T07:35:48.285Z</time></trkpt><trkpt lat="42.4452082" lon="14.2163108"><ele>5.0</ele><time>2026-04-26T07:35:49.286Z</time></trkpt><trkpt lat="42.4450887" lon="14.2161973"><ele>6.0</ele><time>2026-04-26T07:35:50.286Z</time></trkpt><trkpt lat="42.4449698" lon="14.2160877"><ele>7.0</ele><time>2026-04-26T07:35:51.287Z</time></trkpt><trkpt lat="42.4448527" lon="14.2159792"><ele>8.0</ele><time>2026-04-26T07:35:52.288Z</time></trkpt><trkpt lat="42.4447403" lon="14.2158687"><ele>8.0</ele><time>2026-04-26T07:35:53.286Z</time></trkpt><trkpt lat="42.444633" lon="14.2157635"><ele>8.0</ele><time>2026-04-26T07:35:54.29Z</time></trkpt><trkpt lat="42.444528" lon="14.215658"><ele>8.0</ele><time>2026-04-26T07:35:55.287Z</time></trkpt><trkpt lat="42.4444247" lon="14.2155563"><ele>8.0</ele><time>2026-04-26T07:35:56.285Z</time></trkpt><trkpt lat="42.444322" lon="14.2154575"><ele>7.5</ele><time>2026-04-26T07:35:57.289Z</time></trkpt><trkpt lat="42.444218" lon="14.2153583"><ele>7.0</ele><time>2026-04-26T07:35:58.286Z</time></trkpt><trkpt lat="42.4441155" lon="14.2152592"><ele>6.5</ele><time>2026-04-26T07:35:59.285Z</time></trkpt><trkpt lat="42.4440187" lon="14.2151642"><ele>6.0</ele><time>2026-04-26T07:36:00.287Z</time></trkpt><trkpt lat="42.4439312" lon="14.2150793"><ele>6.0</ele><time>2026-04-26T07:36:01.288Z</time></trkpt><trkpt lat="42.4438503" lon="14.2150048"><ele>6.0</ele><time>2026-04-26T07:36:02.287Z</time></trkpt><trkpt lat="42.4437775" lon="14.2149368"><ele>6.0</ele><time>2026-04-26T07:36:03.288Z</time></trkpt><trkpt lat="42.4437025" lon="14.21487"><ele>6.0</ele><time>2026-04-26T07:36:04.288Z</time></trkpt><trkpt lat="42.4436207" lon="14.214795"><ele>6.0</ele><time>2026-04-26T07:36:05.288Z</time></trkpt><trkpt lat="42.4435383" lon="14.2147143"><ele>6.166666666666667</ele><time>2026-04-26T07:36:06.288Z</time></trkpt><trkpt lat="42.4434628" lon="14.2146353"><ele>6.333333333333334</ele><time>2026-04-26T07:36:07.289Z</time></trkpt><trkpt lat="42.4433905" lon="14.2145513"><ele>6.5</ele><time>2026-04-26T07:36:08.288Z</time></trkpt><trkpt lat="42.443327" lon="14.2144628"><ele>6.666666666666667</ele><time>2026-04-26T07:36:09.288Z</time></trkpt><trkpt lat="42.4432747" lon="14.2143797"><ele>6.833333333333334</ele><time>2026-04-26T07:36:10.288Z</time></trkpt><trkpt lat="42.443233" lon="14.2143088"><ele>7.0</ele><time>2026-04-26T07:36:11.285Z</time></trkpt><trkpt lat="42.4431942" lon="14.2142357"><ele>7.0</ele><time>2026-04-26T07:36:13.285Z</time></trkpt><trkpt lat="42.4431508" lon="14.2141672"><ele>6.999999999999999</ele><time>2026-04-26T07:36:17.289Z</time></trkpt><trkpt lat="42.4430882" lon="14.214048"><ele>6.999999999999999</ele><time>2026-04-26T07:36:32.289Z</time></trkpt><trkpt lat="42.4430193" lon="14.213964"><ele>7.0</ele><time>2026-04-26T07:36:34.288Z</time></trkpt><trkpt lat="42.4428858" lon="14.2139207"><ele>7.0</ele><time>2026-04-26T07:36:36.286Z</time></trkpt><trkpt lat="42.4427922" lon="14.2139125"><ele>7.5</ele><time>2026-04-26T07:36:37.287Z</time></trkpt><trkpt lat="42.4426885" lon="14.2139032"><ele>8.0</ele><time>2026-04-26T07:36:38.284Z</time></trkpt><trkpt lat="42.4425775" lon="14.2138928"><ele>8.5</ele><time>2026-04-26T07:36:39.285Z</time></trkpt><trkpt lat="42.4424585" lon="14.2138833"><ele>9.0</ele><time>2026-04-26T07:36:40.286Z</time></trkpt><trkpt lat="42.4423308" lon="14.2138772"><ele>9.0</ele><time>2026-04-26T07:36:41.29Z</time></trkpt><trkpt lat="42.4421967" lon="14.2138762"><ele>9.0</ele><time>2026-04-26T07:36:42.287Z</time></trkpt><trkpt lat="42.4420552" lon="14.2138725"><ele>9.0</ele><time>2026-04-26T07:36:43.288Z</time></trkpt><trkpt lat="42.441908" lon="14.2138687"><ele>9.0</ele><time>2026-04-26T07:36:44.289Z</time></trkpt><trkpt lat="42.4417562" lon="14.2138613"><ele>8.666666666666666</ele><time>2026-04-26T07:36:45.288Z</time></trkpt><trkpt lat="42.4416027" lon="14.2138495"><ele>8.333333333333332</ele><time>2026-04-26T07:36:46.288Z</time></trkpt><trkpt lat="42.4414517" lon="14.2138357"><ele>8.0</ele><time>2026-04-26T07:36:47.289Z</time></trkpt><trkpt lat="42.4413018" lon="14.2138207"><ele>11.0</ele><time>2026-04-26T07:36:48.288Z</time></trkpt><trkpt lat="42.4411543" lon="14.2138028"><ele>14.0</ele><time>2026-04-26T07:36:49.288Z</time></trkpt><trkpt lat="42.4410068" lon="14.2137852"><ele>17.0</ele><time>2026-04-26T07:36:50.288Z</time></trkpt><trkpt lat="42.4408617" lon="14.2137653"><ele>20.0</ele><time>2026-04-26T07:36:51.287Z</time></trkpt><trkpt lat="42.4407173" lon="14.2137502"><ele>20.0</ele><time>2026-04-26T07:36:52.286Z</time></trkpt><trkpt lat="42.4405753" lon="14.2137512"><ele>20.0</ele><time>2026-04-26T07:36:53.286Z</time></trkpt><trkpt lat="42.4404382" lon="14.2137722"><ele>20.0</ele><time>2026-04-26T07:36:54.287Z</time></trkpt><trkpt lat="42.4403068" lon="14.213817"><ele>20.0</ele><time>2026-04-26T07:36:55.286Z</time></trkpt><trkpt lat="42.4401797" lon="14.2138913"><ele>20.25</ele><time>2026-04-26T07:36:56.287Z</time></trkpt><trkpt lat="42.440059" lon="14.213993"><ele>20.5</ele><time>2026-04-26T07:36:57.287Z</time></trkpt><trkpt lat="42.4399348" lon="14.2140927"><ele>20.75</ele><time>2026-04-26T07:36:58.285Z</time></trkpt><trkpt lat="42.4398027" lon="14.2141868"><ele>21.0</ele><time>2026-04-26T07:36:59.286Z</time></trkpt><trkpt lat="42.4396655" lon="14.2142755"><ele>24.0</ele><time>2026-04-26T07:37:00.286Z</time></trkpt><trkpt lat="42.439525" lon="14.2143625"><ele>27.0</ele><time>2026-04-26T07:37:01.288Z</time></trkpt><trkpt lat="42.4393783" lon="14.214454"><ele>30.0</ele><time>2026-04-26T07:37:02.285Z</time></trkpt><trkpt lat="42.4392297" lon="14.214555"><ele>30.0</ele><time>2026-04-26T07:37:03.286Z</time></trkpt><trkpt lat="42.4390788" lon="14.2146653"><ele>30.0</ele><time>2026-04-26T07:37:04.289Z</time></trkpt><trkpt lat="42.4389277" lon="14.214777"><ele>30.0</ele><time>2026-04-26T07:37:05.288Z</time></trkpt><trkpt lat="42.4387798" lon="14.2148768"><ele>34.333333333333336</ele><time>2026-04-26T07:37:06.288Z</time></trkpt><trkpt lat="42.43863" lon="14.2149573"><ele>38.66666666666667</ele><time>2026-04-26T07:37:07.287Z</time></trkpt><trkpt lat="42.4384792" lon="14.2150208"><ele>43.0</ele><time>2026-04-26T07:37:08.286Z</time></trkpt><trkpt lat="42.4383273" lon="14.2150677"><ele>43.0</ele><time>2026-04-26T07:37:09.286Z</time></trkpt><trkpt lat="42.4381722" lon="14.2150862"><ele>43.0</ele><time>2026-04-26T07:37:10.287Z</time></trkpt><trkpt lat="42.4380107" lon="14.2150853"><ele>43.0</ele><time>2026-04-26T07:37:11.29Z</time></trkpt><trkpt lat="42.4378525" lon="14.2150688"><ele>43.5</ele><time>2026-04-26T07:37:12.285Z</time></trkpt><trkpt lat="42.4377018" lon="14.215049"><ele>44.0</ele><time>2026-04-26T07:37:13.289Z</time></trkpt><trkpt lat="42.437566" lon="14.2150358"><ele>44.5</ele><time>2026-04-26T07:37:14.285Z</time></trkpt><trkpt lat="42.4374392" lon="14.2150363"><ele>45.0</ele><time>2026-04-26T07:37:15.285Z</time></trkpt><trkpt lat="42.4373182" lon="14.2150598"><ele>45.0</ele><time>2026-04-26T07:37:16.288Z</time></trkpt><trkpt lat="42.4372013" lon="14.2151097"><ele>45.0</ele><time>2026-04-26T07:37:17.286Z</time></trkpt><trkpt lat="42.437087" lon="14.215184"><ele>45.0</ele><time>2026-04-26T07:37:18.286Z</time></trkpt><trkpt lat="42.4369782" lon="14.2152815"><ele>45.0</ele><time>2026-04-26T07:37:19.286Z</time></trkpt><trkpt lat="42.4368755" lon="14.2154007"><ele>44.25</ele><time>2026-04-26T07:37:20.285Z</time></trkpt><trkpt lat="42.4367793" lon="14.2155405"><ele>43.5</ele><time>2026-04-26T07:37:21.285Z</time></trkpt><trkpt lat="42.4366818" lon="14.2156907"><ele>42.75</ele><time>2026-04-26T07:37:22.286Z</time></trkpt><trkpt lat="42.4365838" lon="14.2158465"><ele>42.0</ele><time>2026-04-26T07:37:23.286Z</time></trkpt><trkpt lat="42.4364853" lon="14.2160063"><ele>44.5</ele><time>2026-04-26T07:37:24.285Z</time></trkpt><trkpt lat="42.436387" lon="14.2161635"><ele>47.0</ele><time>2026-04-26T07:37:25.285Z</time></trkpt><trkpt lat="42.4362955" lon="14.2163048"><ele>49.5</ele><time>2026-04-26T07:37:26.285Z</time></trkpt><trkpt lat="42.436201" lon="14.2164347"><ele>52.0</ele><time>2026-04-26T07:37:27.286Z</time></trkpt><trkpt lat="42.4361062" lon="14.2165498"><ele>52.33333333333333</ele><time>2026-04-26T07:37:28.287Z</time></trkpt><trkpt lat="42.4360162" lon="14.2166432"><ele>52.666666666666664</ele><time>2026-04-26T07:37:29.287Z</time></trkpt><trkpt lat="42.4359362" lon="14.216709"><ele>53.0</ele><time>2026-04-26T07:37:30.291Z</time></trkpt><trkpt lat="42.4358637" lon="14.2167578"><ele>53.33333333333333</ele><time>2026-04-26T07:37:31.287Z</time></trkpt><trkpt lat="42.4357957" lon="14.21679"><ele>53.666666666666664</ele><time>2026-04-26T07:37:32.288Z</time></trkpt><trkpt lat="42.4357252" lon="14.2168032"><ele>54.0</ele><time>2026-04-26T07:37:33.288Z</time></trkpt><trkpt lat="42.4356425" lon="14.2167935"><ele>54.0</ele><time>2026-04-26T07:37:34.287Z</time></trkpt><trkpt lat="42.4355493" lon="14.2167697"><ele>54.00000000000001</ele><time>2026-04-26T07:37:35.286Z</time></trkpt><trkpt lat="42.4354565" lon="14.2167457"><ele>54.00000000000001</ele><time>2026-04-26T07:37:36.286Z</time></trkpt><trkpt lat="42.4353767" lon="14.2167292"><ele>54.0</ele><time>2026-04-26T07:37:37.289Z</time></trkpt><trkpt lat="42.4352707" lon="14.2167143"><ele>54.0</ele><time>2026-04-26T07:37:39.286Z</time></trkpt><trkpt lat="42.4351587" lon="14.2167267"><ele>54.6</ele><time>2026-04-26T07:37:41.287Z</time></trkpt><trkpt lat="42.4350733" lon="14.2167445"><ele>55.2</ele><time>2026-04-26T07:37:42.286Z</time></trkpt><trkpt lat="42.4349717" lon="14.2167737"><ele>55.800000000000004</ele><time>2026-04-26T07:37:43.287Z</time></trkpt><trkpt lat="42.434868" lon="14.2168115"><ele>56.400000000000006</ele><time>2026-04-26T07:37:44.289Z</time></trkpt><trkpt lat="42.4347828" lon="14.2168513"><ele>57.0</ele><time>2026-04-26T07:37:45.287Z</time></trkpt><trkpt lat="42.4346968" lon="14.2169065"><ele>57.0</ele><time>2026-04-26T07:37:47.286Z</time></trkpt><trkpt lat="42.4347683" lon="14.2169075"><ele>57.0</ele><time>2026-04-26T07:37:50.284Z</time></trkpt><trkpt lat="42.4349038" lon="14.2168347"><ele>57.0</ele><time>2026-04-26T07:37:52.286Z</time></trkpt><trkpt lat="42.4349975" lon="14.2167972"><ele>57.0</ele><time>2026-04-26T07:37:53.287Z</time></trkpt><trkpt lat="42.4350912" lon="14.2167697"><ele>57.0</ele><time>2026-04-26T07:37:54.288Z</time></trkpt><trkpt lat="42.4351678" lon="14.2167545"><ele>57.0</ele><time>2026-04-26T07:37:55.286Z</time></trkpt><trkpt lat="42.4352548" lon="14.2167112"><ele>57.0</ele><time>2026-04-26T07:37:57.287Z</time></trkpt><trkpt lat="42.4352192" lon="14.2166173"><ele>57.0</ele><time>2026-04-26T07:38:00.287Z</time></trkpt><trkpt lat="42.4351037" lon="14.2165252"><ele>57.0</ele><time>2026-04-26T07:38:02.286Z</time></trkpt><trkpt lat="42.4350328" lon="14.2164532"><ele>57.0</ele><time>2026-04-26T07:38:03.287Z</time></trkpt><trkpt lat="42.4349612" lon="14.2163638"><ele>58.25</ele><time>2026-04-26T07:38:04.287Z</time></trkpt><trkpt lat="42.434885" lon="14.21627"><ele>59.5</ele><time>2026-04-26T07:38:05.288Z</time></trkpt><trkpt lat="42.4347905" lon="14.216185"><ele>60.75</ele><time>2026-04-26T07:38:06.289Z</time></trkpt><trkpt lat="42.4346852" lon="14.2160982"><ele>62.0</ele><time>2026-04-26T07:38:07.288Z</time></trkpt><trkpt lat="42.4345783" lon="14.2159982"><ele>62.0</ele><time>2026-04-26T07:38:08.286Z</time></trkpt><trkpt lat="42.434474" lon="14.215892"><ele>62.0</ele><time>2026-04-26T07:38:09.289Z</time></trkpt><trkpt lat="42.4343852" lon="14.2157953"><ele>62.0</ele><time>2026-04-26T07:38:10.288Z</time></trkpt><trkpt lat="42.4343038" lon="14.2157143"><ele>62.0</ele><time>2026-04-26T07:38:11.286Z</time></trkpt><trkpt lat="42.4342087" lon="14.21565"><ele>65.4</ele><time>2026-04-26T07:38:12.288Z</time></trkpt><trkpt lat="42.4341088" lon="14.215594"><ele>68.80000000000001</ele><time>2026-04-26T07:38:13.286Z</time></trkpt><trkpt lat="42.4340008" lon="14.2155515"><ele>72.2</ele><time>2026-04-26T07:38:14.285Z</time></trkpt><trkpt lat="42.4338922" lon="14.2155215"><ele>75.60000000000001</ele><time>2026-04-26T07:38:15.284Z</time></trkpt><trkpt lat="42.4337925" lon="14.2155082"><ele>79.0</ele><time>2026-04-26T07:38:16.283Z</time></trkpt><trkpt lat="42.4337032" lon="14.2155032"><ele>79.0</ele><time>2026-04-26T07:38:17.289Z</time></trkpt><trkpt lat="42.433617" lon="14.2154997"><ele>79.0</ele><time>2026-04-26T07:38:18.286Z</time></trkpt><trkpt lat="42.4335258" lon="14.2154968"><ele>79.0</ele><time>2026-04-26T07:38:19.289Z</time></trkpt><trkpt lat="42.4334303" lon="14.2154935"><ele>79.0</ele><time>2026-04-26T07:38:20.289Z</time></trkpt><trkpt lat="42.4333308" lon="14.21549"><ele>79.0</ele><time>2026-04-26T07:38:21.289Z</time></trkpt><trkpt lat="42.4332292" lon="14.215488"><ele>79.0</ele><time>2026-04-26T07:38:22.288Z</time></trkpt><trkpt lat="42.4331172" lon="14.2154802"><ele>79.0</ele><time>2026-04-26T07:38:23.286Z</time></trkpt><trkpt lat="42.4329997" lon="14.215456"><ele>79.0</ele><time>2026-04-26T07:38:24.288Z</time></trkpt><trkpt lat="42.4328868" lon="14.215416"><ele>79.0</ele><time>2026-04-26T07:38:25.287Z</time></trkpt><trkpt lat="42.4327747" lon="14.2153625"><ele>78.0</ele><time>2026-04-26T07:38:26.287Z</time></trkpt><trkpt lat="42.4326612" lon="14.2153152"><ele>77.0</ele><time>2026-04-26T07:38:27.286Z</time></trkpt><trkpt lat="42.4325558" lon="14.2152917"><ele>76.0</ele><time>2026-04-26T07:38:28.284Z</time></trkpt><trkpt lat="42.4324578" lon="14.2153078"><ele>75.0</ele><time>2026-04-26T07:38:29.285Z</time></trkpt><trkpt lat="42.4323543" lon="14.2153565"><ele>74.0</ele><time>2026-04-26T07:38:30.286Z</time></trkpt><trkpt lat="42.4322332" lon="14.2154022"><ele>73.0</ele><time>2026-04-26T07:38:31.287Z</time></trkpt><trkpt lat="42.432123" lon="14.2154322"><ele>72.0</ele><time>2026-04-26T07:38:32.285Z</time></trkpt><trkpt lat="42.4320585" lon="14.2154335"><ele>71.0</ele><time>2026-04-26T07:38:33.288Z</time></trkpt><trkpt lat="42.4320075" lon="14.2153228"><ele>70.0</ele><time>2026-04-26T07:38:36.287Z</time></trkpt><trkpt lat="42.4318797" lon="14.2152167"><ele>69.0</ele><time>2026-04-26T07:38:38.284Z</time></trkpt><trkpt lat="42.431775" lon="14.2151387"><ele>69.0</ele><time>2026-04-26T07:38:39.284Z</time></trkpt><trkpt lat="42.4316513" lon="14.2150553"><ele>69.0</ele><time>2026-04-26T07:38:40.286Z</time></trkpt><trkpt lat="42.431506" lon="14.2149825"><ele>69.0</ele><time>2026-04-26T07:38:41.285Z</time></trkpt><trkpt lat="42.4313653" lon="14.2149388"><ele>69.0</ele><time>2026-04-26T07:38:42.287Z</time></trkpt><trkpt lat="42.431235" lon="14.214917"><ele>69.0</ele><time>2026-04-26T07:38:43.287Z</time></trkpt><trkpt lat="42.4311258" lon="14.2148642"><ele>69.0</ele><time>2026-04-26T07:38:44.288Z</time></trkpt><trkpt lat="42.4310272" lon="14.214783"><ele>69.0</ele><time>2026-04-26T07:38:45.287Z</time></trkpt><trkpt lat="42.4309172" lon="14.2146818"><ele>69.0</ele><time>2026-04-26T07:38:46.289Z</time></trkpt><trkpt lat="42.4307883" lon="14.2145823"><ele>70.5</ele><time>2026-04-26T07:38:47.288Z</time></trkpt><trkpt lat="42.4306515" lon="14.2144858"><ele>72.0</ele><time>2026-04-26T07:38:48.29Z</time></trkpt><trkpt lat="42.4305423" lon="14.2143753"><ele>73.5</ele><time>2026-04-26T07:38:49.291Z</time></trkpt><trkpt lat="42.4304552" lon="14.2142625"><ele>75.0</ele><time>2026-04-26T07:38:50.287Z</time></trkpt><trkpt lat="42.4303692" lon="14.2141787"><ele>75.25</ele><time>2026-04-26T07:38:51.287Z</time></trkpt><trkpt lat="42.430266" lon="14.2141137"><ele>75.5</ele><time>2026-04-26T07:38:52.288Z</time></trkpt><trkpt lat="42.4301567" lon="14.2140283"><ele>75.75</ele><time>2026-04-26T07:38:53.286Z</time></trkpt><trkpt lat="42.430049" lon="14.2139147"><ele>76.0</ele><time>2026-04-26T07:38:54.287Z</time></trkpt><trkpt lat="42.4299307" lon="14.2137845"><ele>76.33333333333333</ele><time>2026-04-26T07:38:55.287Z</time></trkpt><trkpt lat="42.4298082" lon="14.213644"><ele>76.66666666666667</ele><time>2026-04-26T07:38:56.285Z</time></trkpt><trkpt lat="42.429677" lon="14.2134955"><ele>77.0</ele><time>2026-04-26T07:38:57.286Z</time></trkpt><trkpt lat="42.4295493" lon="14.213362"><ele>77.0</ele><time>2026-04-26T07:38:58.286Z</time></trkpt><trkpt lat="42.4294322" lon="14.2132357"><ele>77.0</ele><time>2026-04-26T07:38:59.286Z</time></trkpt><trkpt lat="42.4293023" lon="14.2131095"><ele>77.0</ele><time>2026-04-26T07:39:00.287Z</time></trkpt><trkpt lat="42.4291628" lon="14.2129883"><ele>78.66666666666667</ele><time>2026-04-26T07:39:01.287Z</time></trkpt><trkpt lat="42.4290235" lon="14.2128518"><ele>80.33333333333333</ele><time>2026-04-26T07:39:02.285Z</time></trkpt><trkpt lat="42.4288828" lon="14.2127243"><ele>82.0</ele><time>2026-04-26T07:39:03.284Z</time></trkpt><trkpt lat="42.4287427" lon="14.2126033"><ele>82.33333333333333</ele><time>2026-04-26T07:39:04.284Z</time></trkpt><trkpt lat="42.4286135" lon="14.2124863"><ele>82.66666666666667</ele><time>2026-04-26T07:39:05.284Z</time></trkpt><trkpt lat="42.4284815" lon="14.2123598"><ele>83.0</ele><time>2026-04-26T07:39:06.285Z</time></trkpt><trkpt lat="42.4283457" lon="14.2122542"><ele>84.0</ele><time>2026-04-26T07:39:07.285Z</time></trkpt><trkpt lat="42.4282202" lon="14.2121477"><ele>85.0</ele><time>2026-04-26T07:39:08.284Z</time></trkpt><trkpt lat="42.4280888" lon="14.2120127"><ele>86.0</ele><time>2026-04-26T07:39:09.286Z</time></trkpt><trkpt lat="42.4279597" lon="14.2118872"><ele>86.75</ele><time>2026-04-26T07:39:10.286Z</time></trkpt><trkpt lat="42.4278508" lon="14.211761"><ele>87.5</ele><time>2026-04-26T07:39:11.285Z</time></trkpt><trkpt lat="42.4277663" lon="14.2116108"><ele>88.25</ele><time>2026-04-26T07:39:12.285Z</time></trkpt><trkpt lat="42.4276755" lon="14.2114595"><ele>89.0</ele><time>2026-04-26T07:39:13.285Z</time></trkpt><trkpt lat="42.4275707" lon="14.2113117"><ele>89.0</ele><time>2026-04-26T07:39:14.284Z</time></trkpt><trkpt lat="42.4274548" lon="14.2111695"><ele>89.0</ele><time>2026-04-26T07:39:15.287Z</time></trkpt><trkpt lat="42.4273363" lon="14.2110542"><ele>89.0</ele><time>2026-04-26T07:39:16.288Z</time></trkpt><trkpt lat="42.4272315" lon="14.2109817"><ele>89.0</ele><time>2026-04-26T07:39:17.286Z</time></trkpt><trkpt lat="42.4271238" lon="14.2109412"><ele>90.25</ele><time>2026-04-26T07:39:18.289Z</time></trkpt><trkpt lat="42.4270063" lon="14.2108983"><ele>91.5</ele><time>2026-04-26T07:39:19.289Z</time></trkpt><trkpt lat="42.4268822" lon="14.2108545"><ele>92.75</ele><time>2026-04-26T07:39:20.289Z</time></trkpt><trkpt lat="42.4267527" lon="14.2108003"><ele>94.0</ele><time>2026-04-26T07:39:21.287Z</time></trkpt><trkpt lat="42.4266233" lon="14.2107482"><ele>94.0</ele><time>2026-04-26T07:39:22.286Z</time></trkpt><trkpt lat="42.4264938" lon="14.2106873"><ele>94.0</ele><time>2026-04-26T07:39:23.285Z</time></trkpt><trkpt lat="42.4263643" lon="14.2106333"><ele>94.0</ele><time>2026-04-26T07:39:24.287Z</time></trkpt><trkpt lat="42.4262492" lon="14.2105773"><ele>94.0</ele><time>2026-04-26T07:39:25.287Z</time></trkpt><trkpt lat="42.4261403" lon="14.2105125"><ele>93.75</ele><time>2026-04-26T07:39:26.286Z</time></trkpt><trkpt lat="42.4260142" lon="14.2104413"><ele>93.5</ele><time>2026-04-26T07:39:27.285Z</time></trkpt><trkpt lat="42.425879" lon="14.2103733"><ele>93.25</ele><time>2026-04-26T07:39:28.286Z</time></trkpt><trkpt lat="42.4257382" lon="14.2102907"><ele>93.0</ele><time>2026-04-26T07:39:29.284Z</time></trkpt><trkpt lat="42.4256075" lon="14.2102095"><ele>93.0</ele><time>2026-04-26T07:39:30.285Z</time></trkpt><trkpt lat="42.4255095" lon="14.2101468"><ele>93.0</ele><time>2026-04-26T07:39:31.293Z</time></trkpt><trkpt lat="42.4254455" lon="14.2101005"><ele>93.0</ele><time>2026-04-26T07:39:32.287Z</time></trkpt><trkpt lat="42.4253593" lon="14.210091"><ele>93.0</ele><time>2026-04-26T07:39:34.287Z</time></trkpt><trkpt lat="42.4252933" lon="14.2101488"><ele>93.0</ele><time>2026-04-26T07:39:36.288Z</time></trkpt><trkpt lat="42.4252432" lon="14.210261"><ele>93.0</ele><time>2026-04-26T07:39:38.287Z</time></trkpt><trkpt lat="42.4251672" lon="14.2104013"><ele>93.0</ele><time>2026-04-26T07:39:40.287Z</time></trkpt><trkpt lat="42.4251298" lon="14.2104773"><ele>93.0</ele><time>2026-04-26T07:39:41.287Z</time></trkpt><trkpt lat="42.4250997" lon="14.2105762"><ele>93.0</ele><time>2026-04-26T07:39:42.287Z</time></trkpt><trkpt lat="42.4250692" lon="14.2107045"><ele>93.0</ele><time>2026-04-26T07:39:43.289Z</time></trkpt><trkpt lat="42.4250313" lon="14.2108495"><ele>93.0</ele><time>2026-04-26T07:39:44.289Z</time></trkpt><trkpt lat="42.4249857" lon="14.2110073"><ele>95.75</ele><time>2026-04-26T07:39:45.288Z</time></trkpt><trkpt lat="42.424939" lon="14.2111742"><ele>98.5</ele><time>2026-04-26T07:39:46.288Z</time></trkpt><trkpt lat="42.4249023" lon="14.2113542"><ele>101.25</ele><time>2026-04-26T07:39:47.287Z</time></trkpt><trkpt lat="42.424878" lon="14.2115425"><ele>104.0</ele><time>2026-04-26T07:39:48.29Z</time></trkpt><trkpt lat="42.4248605" lon="14.2117415"><ele>105.0</ele><time>2026-04-26T07:39:49.287Z</time></trkpt><trkpt lat="42.4248427" lon="14.2119633"><ele>106.0</ele><time>2026-04-26T07:39:50.287Z</time></trkpt><trkpt lat="42.4248075" lon="14.2121932"><ele>107.0</ele><time>2026-04-26T07:39:51.286Z</time></trkpt><trkpt lat="42.4247577" lon="14.212416"><ele>108.25</ele><time>2026-04-26T07:39:52.286Z</time></trkpt><trkpt lat="42.4246968" lon="14.212614"><ele>109.5</ele><time>2026-04-26T07:39:53.285Z</time></trkpt><trkpt lat="42.4246555" lon="14.212801"><ele>110.75</ele><time>2026-04-26T07:39:54.286Z</time></trkpt><trkpt lat="42.4246205" lon="14.2129833"><ele>112.0</ele><time>2026-04-26T07:39:55.286Z</time></trkpt><trkpt lat="42.4245677" lon="14.213127"><ele>113.6</ele><time>2026-04-26T07:39:56.288Z</time></trkpt><trkpt lat="42.4244937" lon="14.2132332"><ele>115.19999999999999</ele><time>2026-04-26T07:39:57.288Z</time></trkpt><trkpt lat="42.4244085" lon="14.213333"><ele>116.8</ele><time>2026-04-26T07:39:58.289Z</time></trkpt><trkpt lat="42.424334" lon="14.2134258"><ele>118.4</ele><time>2026-04-26T07:39:59.288Z</time></trkpt><trkpt lat="42.4242772" lon="14.2135103"><ele>120.0</ele><time>2026-04-26T07:40:00.288Z</time></trkpt><trkpt lat="42.424239" lon="14.2136133"><ele>120.0</ele><time>2026-04-26T07:40:01.286Z</time></trkpt><trkpt lat="42.4242233" lon="14.213732"><ele>120.0</ele><time>2026-04-26T07:40:02.286Z</time></trkpt><trkpt lat="42.424209" lon="14.21384"><ele>120.0</ele><time>2026-04-26T07:40:03.285Z</time></trkpt><trkpt lat="42.4241725" lon="14.2139447"><ele>120.0</ele><time>2026-04-26T07:40:04.286Z</time></trkpt><trkpt lat="42.424117" lon="14.214046"><ele>120.0</ele><time>2026-04-26T07:40:05.286Z</time></trkpt><trkpt lat="42.4240465" lon="14.2141525"><ele>122.5</ele><time>2026-04-26T07:40:06.287Z</time></trkpt><trkpt lat="42.4239612" lon="14.2142635"><ele>125.0</ele><time>2026-04-26T07:40:07.284Z</time></trkpt><trkpt lat="42.4238777" lon="14.2143935"><ele>127.5</ele><time>2026-04-26T07:40:08.284Z</time></trkpt><trkpt lat="42.4237952" lon="14.214533"><ele>130.0</ele><time>2026-04-26T07:40:09.288Z</time></trkpt><trkpt lat="42.4237117" lon="14.214679"><ele>131.0</ele><time>2026-04-26T07:40:10.287Z</time></trkpt><trkpt lat="42.4236337" lon="14.2148205"><ele>132.0</ele><time>2026-04-26T07:40:11.287Z</time></trkpt><trkpt lat="42.423569" lon="14.214954"><ele>133.0</ele><time>2026-04-26T07:40:12.287Z</time></trkpt><trkpt lat="42.4235147" lon="14.2150895"><ele>134.0</ele><time>2026-04-26T07:40:13.286Z</time></trkpt><trkpt lat="42.4234622" lon="14.2152282"><ele>134.0</ele><time>2026-04-26T07:40:14.286Z</time></trkpt><trkpt lat="42.4234137" lon="14.2153707"><ele>134.0</ele><time>2026-04-26T07:40:15.286Z</time></trkpt><trkpt lat="42.4233642" lon="14.2155183"><ele>134.0</ele><time>2026-04-26T07:40:16.285Z</time></trkpt><trkpt lat="42.4233095" lon="14.2156688"><ele>134.0</ele><time>2026-04-26T07:40:17.284Z</time></trkpt><trkpt lat="42.4232527" lon="14.2158142"><ele>135.4</ele><time>2026-04-26T07:40:18.285Z</time></trkpt><trkpt lat="42.4232005" lon="14.2159468"><ele>136.8</ele><time>2026-04-26T07:40:19.285Z</time></trkpt><trkpt lat="42.4231528" lon="14.2160767"><ele>138.2</ele><time>2026-04-26T07:40:20.287Z</time></trkpt><trkpt lat="42.4231115" lon="14.2162102"><ele>139.6</ele><time>2026-04-26T07:40:21.287Z</time></trkpt><trkpt lat="42.4230758" lon="14.2163495"><ele>141.0</ele><time>2026-04-26T07:40:22.289Z</time></trkpt><trkpt lat="42.423039" lon="14.2164942"><ele>142.8</ele><time>2026-04-26T07:40:23.288Z</time></trkpt><trkpt lat="42.4229995" lon="14.216642"><ele>144.6</ele><time>2026-04-26T07:40:24.289Z</time></trkpt><trkpt lat="42.422959" lon="14.2167797"><ele>146.4</ele><time>2026-04-26T07:40:25.289Z</time></trkpt><trkpt lat="42.4229235" lon="14.2168882"><ele>148.2</ele><time>2026-04-26T07:40:26.288Z</time></trkpt><trkpt lat="42.4228745" lon="14.217017"><ele>150.0</ele><time>2026-04-26T07:40:28.291Z</time></trkpt><trkpt lat="42.4228518" lon="14.2171657"><ele>150.0</ele><time>2026-04-26T07:40:30.291Z</time></trkpt><trkpt lat="42.4228703" lon="14.2172738"><ele>150.0</ele><time>2026-04-26T07:40:31.29Z</time></trkpt><trkpt lat="42.4228962" lon="14.2173642"><ele>150.0</ele><time>2026-04-26T07:40:32.289Z</time></trkpt><trkpt lat="42.4229387" lon="14.217488"><ele>150.0</ele><time>2026-04-26T07:40:34.29Z</time></trkpt><trkpt lat="42.4229842" lon="14.217604"><ele>150.0</ele><time>2026-04-26T07:40:36.288Z</time></trkpt><trkpt lat="42.4230478" lon="14.2177163"><ele>151.6</ele><time>2026-04-26T07:40:38.286Z</time></trkpt><trkpt lat="42.4231043" lon="14.2177873"><ele>153.2</ele><time>2026-04-26T07:40:39.29Z</time></trkpt><trkpt lat="42.4231737" lon="14.2178653"><ele>154.8</ele><time>2026-04-26T07:40:40.285Z</time></trkpt><trkpt lat="42.4232465" lon="14.217954"><ele>156.4</ele><time>2026-04-26T07:40:41.287Z</time></trkpt><trkpt lat="42.42332" lon="14.2180588"><ele>158.0</ele><time>2026-04-26T07:40:42.29Z</time></trkpt><trkpt lat="42.4233828" lon="14.2181768"><ele>154.20000000000002</ele><time>2026-04-26T07:40:43.286Z</time></trkpt><trkpt lat="42.4234297" lon="14.2183043"><ele>150.4</ele><time>2026-04-26T07:40:44.288Z</time></trkpt><trkpt lat="42.4234647" lon="14.2184348"><ele>146.60000000000002</ele><time>2026-04-26T07:40:45.289Z</time></trkpt><trkpt lat="42.4234977" lon="14.2185568"><ele>142.8</ele><time>2026-04-26T07:40:46.287Z</time></trkpt><trkpt lat="42.423537" lon="14.2186687"><ele>139.0</ele><time>2026-04-26T07:40:47.287Z</time></trkpt><trkpt lat="42.4235787" lon="14.2187633"><ele>139.0</ele><time>2026-04-26T07:40:48.287Z</time></trkpt><trkpt lat="42.4236232" lon="14.2188373"><ele>139.0</ele><time>2026-04-26T07:40:49.29Z</time></trkpt><trkpt lat="42.4236855" lon="14.218938"><ele>139.0</ele><time>2026-04-26T07:40:51.29Z</time></trkpt><trkpt lat="42.4236248" lon="14.2189695"><ele>139.0</ele><time>2026-04-26T07:40:54.289Z</time></trkpt><trkpt lat="42.4235277" lon="14.2188607"><ele>139.0</ele><time>2026-04-26T07:40:56.288Z</time></trkpt><trkpt lat="42.4234632" lon="14.2187763"><ele>139.0</ele><time>2026-04-26T07:40:57.29Z</time></trkpt><trkpt lat="42.4233912" lon="14.2186805"><ele>139.0</ele><time>2026-04-26T07:40:58.288Z</time></trkpt><trkpt lat="42.4233148" lon="14.2185743"><ele>139.0</ele><time>2026-04-26T07:40:59.287Z</time></trkpt><trkpt lat="42.4232332" lon="14.2184655"><ele>139.0</ele><time>2026-04-26T07:41:00.29Z</time></trkpt><trkpt lat="42.4231487" lon="14.2183667"><ele>139.0</ele><time>2026-04-26T07:41:01.29Z</time></trkpt><trkpt lat="42.423055" lon="14.2182858"><ele>139.0</ele><time>2026-04-26T07:41:02.289Z</time></trkpt><trkpt lat="42.4229508" lon="14.2182295"><ele>135.0</ele><time>2026-04-26T07:41:03.288Z</time></trkpt><trkpt lat="42.4228368" lon="14.218202"><ele>131.0</ele><time>2026-04-26T07:41:04.288Z</time></trkpt><trkpt lat="42.422717" lon="14.2181955"><ele>127.0</ele><time>2026-04-26T07:41:05.289Z</time></trkpt><trkpt lat="42.4225985" lon="14.2181997"><ele>123.0</ele><time>2026-04-26T07:41:06.287Z</time></trkpt><trkpt lat="42.4224782" lon="14.2181888"><ele>123.0</ele><time>2026-04-26T07:41:07.286Z</time></trkpt><trkpt lat="42.4223582" lon="14.2181522"><ele>123.0</ele><time>2026-04-26T07:41:08.288Z</time></trkpt><trkpt lat="42.4222443" lon="14.2180855"><ele>123.0</ele><time>2026-04-26T07:41:09.29Z</time></trkpt><trkpt lat="42.4221333" lon="14.2179973"><ele>123.0</ele><time>2026-04-26T07:41:10.289Z</time></trkpt><trkpt lat="42.4220235" lon="14.2179"><ele>122.0</ele><time>2026-04-26T07:41:11.29Z</time></trkpt><trkpt lat="42.4219065" lon="14.2178137"><ele>121.0</ele><time>2026-04-26T07:41:12.292Z</time></trkpt><trkpt lat="42.4217775" lon="14.2177415"><ele>120.0</ele><time>2026-04-26T07:41:13.289Z</time></trkpt><trkpt lat="42.4216408" lon="14.217674"><ele>119.0</ele><time>2026-04-26T07:41:14.292Z</time></trkpt><trkpt lat="42.4215063" lon="14.2176092"><ele>119.0</ele><time>2026-04-26T07:41:15.29Z</time></trkpt><trkpt lat="42.4213785" lon="14.2175425"><ele>119.0</ele><time>2026-04-26T07:41:16.29Z</time></trkpt><trkpt lat="42.4212602" lon="14.217465"><ele>119.0</ele><time>2026-04-26T07:41:17.29Z</time></trkpt><trkpt lat="42.4211533" lon="14.2173727"><ele>119.0</ele><time>2026-04-26T07:41:18.29Z</time></trkpt><trkpt lat="42.4210657" lon="14.2172633"><ele>118.0</ele><time>2026-04-26T07:41:19.29Z</time></trkpt><trkpt lat="42.4209988" lon="14.2171323"><ele>117.0</ele><time>2026-04-26T07:41:20.29Z</time></trkpt><trkpt lat="42.4209687" lon="14.2169913"><ele>116.0</ele><time>2026-04-26T07:41:21.288Z</time></trkpt><trkpt lat="42.4209625" lon="14.2168397"><ele>115.0</ele><time>2026-04-26T07:41:22.291Z</time></trkpt><trkpt lat="42.4209495" lon="14.216692"><ele>114.0</ele><time>2026-04-26T07:41:23.288Z</time></trkpt><trkpt lat="42.4209197" lon="14.2165695"><ele>114.0</ele><time>2026-04-26T07:41:24.292Z</time></trkpt><trkpt lat="42.4208808" lon="14.2164855"><ele>114.0</ele><time>2026-04-26T07:41:25.289Z</time></trkpt><trkpt lat="42.4208083" lon="14.2164683"><ele>114.0</ele><time>2026-04-26T07:41:27.289Z</time></trkpt><trkpt lat="42.4207967" lon="14.216602"><ele>114.0</ele><time>2026-04-26T07:41:29.288Z</time></trkpt><trkpt lat="42.4207992" lon="14.2167157"><ele>114.0</ele><time>2026-04-26T07:41:30.287Z</time></trkpt><trkpt lat="42.4207973" lon="14.216851"><ele>114.0</ele><time>2026-04-26T07:41:31.287Z</time></trkpt><trkpt lat="42.4207945" lon="14.2169842"><ele>114.0</ele><time>2026-04-26T07:41:32.286Z</time></trkpt><trkpt lat="42.4208022" lon="14.2171157"><ele>114.0</ele><time>2026-04-26T07:41:33.291Z</time></trkpt><trkpt lat="42.4208218" lon="14.217256"><ele>114.0</ele><time>2026-04-26T07:41:34.289Z</time></trkpt><trkpt lat="42.4208465" lon="14.2174018"><ele>114.0</ele><time>2026-04-26T07:41:35.289Z</time></trkpt><trkpt lat="42.4208735" lon="14.2175457"><ele>114.0</ele><time>2026-04-26T07:41:36.287Z</time></trkpt><trkpt lat="42.4209042" lon="14.2176817"><ele>111.6</ele><time>2026-04-26T07:41:37.287Z</time></trkpt><trkpt lat="42.4209333" lon="14.2178075"><ele>109.2</ele><time>2026-04-26T07:41:38.289Z</time></trkpt><trkpt lat="42.4209493" lon="14.2179317"><ele>106.8</ele><time>2026-04-26T07:41:39.291Z</time></trkpt><trkpt lat="42.420946" lon="14.2180482"><ele>104.39999999999999</ele><time>2026-04-26T07:41:40.289Z</time></trkpt><trkpt lat="42.4209352" lon="14.2181475"><ele>102.0</ele><time>2026-04-26T07:41:41.29Z</time></trkpt><trkpt lat="42.420905" lon="14.2182758"><ele>100.5</ele><time>2026-04-26T07:41:43.292Z</time></trkpt><trkpt lat="42.4209048" lon="14.2183813"><ele>99.0</ele><time>2026-04-26T07:41:45.288Z</time></trkpt><trkpt lat="42.4209737" lon="14.2184673"><ele>97.5</ele><time>2026-04-26T07:41:47.288Z</time></trkpt><trkpt lat="42.4210323" lon="14.2184988"><ele>96.0</ele><time>2026-04-26T07:41:48.289Z</time></trkpt><trkpt lat="42.4211017" lon="14.2185343"><ele>94.5</ele><time>2026-04-26T07:41:49.287Z</time></trkpt><trkpt lat="42.4211763" lon="14.2185735"><ele>93.0</ele><time>2026-04-26T07:41:50.289Z</time></trkpt><trkpt lat="42.4212517" lon="14.2186077"><ele>93.0</ele><time>2026-04-26T07:41:51.29Z</time></trkpt><trkpt lat="42.4213317" lon="14.2186348"><ele>93.0</ele><time>2026-04-26T07:42:00.291Z</time></trkpt><trkpt lat="42.4212495" lon="14.2186145"><ele>93.0</ele><time>2026-04-26T07:42:13.294Z</time></trkpt><trkpt lat="42.421139" lon="14.2185677"><ele>93.0</ele><time>2026-04-26T07:42:15.29Z</time></trkpt><trkpt lat="42.4210418" lon="14.2185198"><ele>93.0</ele><time>2026-04-26T07:42:17.288Z</time></trkpt><trkpt lat="42.4209567" lon="14.2184787"><ele>93.0</ele><time>2026-04-26T07:42:19.287Z</time></trkpt><trkpt lat="42.4208898" lon="14.218396"><ele>93.0</ele><time>2026-04-26T07:42:21.286Z</time></trkpt><trkpt lat="42.4208515" lon="14.218298"><ele>93.0</ele><time>2026-04-26T07:42:24.289Z</time></trkpt><trkpt lat="42.4207762" lon="14.2182997"><ele>93.0</ele><time>2026-04-26T07:42:27.289Z</time></trkpt><trkpt lat="42.4207157" lon="14.218349"><ele>93.0</ele><time>2026-04-26T07:42:29.288Z</time></trkpt><trkpt lat="42.4206588" lon="14.2184592"><ele>93.0</ele><time>2026-04-26T07:42:31.29Z</time></trkpt><trkpt lat="42.4206203" lon="14.218554"><ele>93.0</ele><time>2026-04-26T07:42:33.288Z</time></trkpt><trkpt lat="42.4205823" lon="14.2186452"><ele>93.0</ele><time>2026-04-26T07:42:35.288Z</time></trkpt><trkpt lat="42.4205427" lon="14.218767"><ele>93.0</ele><time>2026-04-26T07:42:37.289Z</time></trkpt><trkpt lat="42.4205135" lon="14.2189205"><ele>93.0</ele><time>2026-04-26T07:42:39.29Z</time></trkpt><trkpt lat="42.4204627" lon="14.2190808"><ele>93.0</ele><time>2026-04-26T07:42:41.289Z</time></trkpt><trkpt lat="42.4204293" lon="14.219171"><ele>89.5</ele><time>2026-04-26T07:42:42.288Z</time></trkpt><trkpt lat="42.4203912" lon="14.2192607"><ele>86.0</ele><time>2026-04-26T07:42:43.285Z</time></trkpt><trkpt lat="42.420354" lon="14.2193672"><ele>82.5</ele><time>2026-04-26T07:42:44.285Z</time></trkpt><trkpt lat="42.4203167" lon="14.2194788"><ele>79.0</ele><time>2026-04-26T07:42:45.285Z</time></trkpt><trkpt lat="42.4202803" lon="14.2195837"><ele>75.5</ele><time>2026-04-26T07:42:46.284Z</time></trkpt><trkpt lat="42.4202443" lon="14.2196838"><ele>72.0</ele><time>2026-04-26T07:42:47.285Z</time></trkpt><trkpt lat="42.420201" lon="14.2197873"><ele>70.0</ele><time>2026-04-26T07:42:48.289Z</time></trkpt><trkpt lat="42.4201513" lon="14.2198955"><ele>68.0</ele><time>2026-04-26T07:42:49.289Z</time></trkpt><trkpt lat="42.420101" lon="14.2200152"><ele>66.0</ele><time>2026-04-26T07:42:50.285Z</time></trkpt><trkpt lat="42.420053" lon="14.2201373"><ele>64.0</ele><time>2026-04-26T07:42:51.285Z</time></trkpt><trkpt lat="42.4200097" lon="14.2202592"><ele>62.0</ele><time>2026-04-26T07:42:52.287Z</time></trkpt><trkpt lat="42.4199692" lon="14.2203868"><ele>62.00000000000001</ele><time>2026-04-26T07:42:53.286Z</time></trkpt><trkpt lat="42.4199327" lon="14.2205168"><ele>62.0</ele><time>2026-04-26T07:42:54.286Z</time></trkpt><trkpt lat="42.4198987" lon="14.2206445"><ele>62.0</ele><time>2026-04-26T07:42:55.289Z</time></trkpt><trkpt lat="42.4198625" lon="14.2207618"><ele>62.0</ele><time>2026-04-26T07:42:56.288Z</time></trkpt><trkpt lat="42.4198277" lon="14.2208593"><ele>62.00000000000001</ele><time>2026-04-26T07:42:57.289Z</time></trkpt><trkpt lat="42.4197943" lon="14.220942"><ele>62.0</ele><time>2026-04-26T07:42:58.288Z</time></trkpt><trkpt lat="42.4197223" lon="14.2210452"><ele>59.6</ele><time>2026-04-26T07:43:00.29Z</time></trkpt><trkpt lat="42.4196468" lon="14.2210125"><ele>57.2</ele><time>2026-04-26T07:43:02.286Z</time></trkpt><trkpt lat="42.4195945" lon="14.2209513"><ele>54.8</ele><time>2026-04-26T07:43:03.287Z</time></trkpt><trkpt lat="42.4195127" lon="14.220879"><ele>52.4</ele><time>2026-04-26T07:43:04.286Z</time></trkpt><trkpt lat="42.419405" lon="14.2208"><ele>50.0</ele><time>2026-04-26T07:43:05.287Z</time></trkpt><trkpt lat="42.4192805" lon="14.2207205"><ele>51.2</ele><time>2026-04-26T07:43:06.289Z</time></trkpt><trkpt lat="42.4191707" lon="14.2206348"><ele>52.4</ele><time>2026-04-26T07:43:07.288Z</time></trkpt><trkpt lat="42.419092" lon="14.2205272"><ele>53.599999999999994</ele><time>2026-04-26T07:43:08.287Z</time></trkpt><trkpt lat="42.419026" lon="14.2204247"><ele>54.8</ele><time>2026-04-26T07:43:09.285Z</time></trkpt><trkpt lat="42.4189482" lon="14.2203553"><ele>56.0</ele><time>2026-04-26T07:43:10.288Z</time></trkpt><trkpt lat="42.4188545" lon="14.2203173"><ele>55.0</ele><time>2026-04-26T07:43:11.288Z</time></trkpt><trkpt lat="42.4187477" lon="14.220302"><ele>54.0</ele><time>2026-04-26T07:43:12.288Z</time></trkpt><trkpt lat="42.4186297" lon="14.220293"><ele>53.0</ele><time>2026-04-26T07:43:13.288Z</time></trkpt><trkpt lat="42.4185063" lon="14.2202562"><ele>52.0</ele><time>2026-04-26T07:43:14.292Z</time></trkpt><trkpt lat="42.418398" lon="14.2201828"><ele>52.0</ele><time>2026-04-26T07:43:15.289Z</time></trkpt><trkpt lat="42.4183002" lon="14.220081"><ele>52.0</ele><time>2026-04-26T07:43:16.286Z</time></trkpt><trkpt lat="42.418219" lon="14.2199495"><ele>52.0</ele><time>2026-04-26T07:43:17.285Z</time></trkpt><trkpt lat="42.4181445" lon="14.219835"><ele>52.0</ele><time>2026-04-26T07:43:18.285Z</time></trkpt><trkpt lat="42.4180488" lon="14.2197383"><ele>52.0</ele><time>2026-04-26T07:43:19.286Z</time></trkpt><trkpt lat="42.417928" lon="14.2196615"><ele>52.0</ele><time>2026-04-26T07:43:20.285Z</time></trkpt><trkpt lat="42.4178092" lon="14.2196132"><ele>52.0</ele><time>2026-04-26T07:43:21.286Z</time></trkpt><trkpt lat="42.4177192" lon="14.2195767"><ele>52.0</ele><time>2026-04-26T07:43:22.287Z</time></trkpt><trkpt lat="42.4176623" lon="14.2195052"><ele>52.0</ele><time>2026-04-26T07:43:24.287Z</time></trkpt><trkpt lat="42.4176688" lon="14.2193872"><ele>51.99999999999999</ele><time>2026-04-26T07:43:26.288Z</time></trkpt><trkpt lat="42.4176017" lon="14.2193245"><ele>52.0</ele><time>2026-04-26T07:43:29.287Z</time></trkpt><trkpt lat="42.4175223" lon="14.219302"><ele>52.0</ele><time>2026-04-26T07:43:31.287Z</time></trkpt><trkpt lat="42.4174622" lon="14.219244"><ele>52.0</ele><time>2026-04-26T07:43:33.284Z</time></trkpt><trkpt lat="42.417375" lon="14.2191228"><ele>51.99999999999999</ele><time>2026-04-26T07:43:35.284Z</time></trkpt><trkpt lat="42.417316" lon="14.2190578"><ele>52.0</ele><time>2026-04-26T07:43:36.287Z</time></trkpt><trkpt lat="42.4172565" lon="14.218985"><ele>52.8</ele><time>2026-04-26T07:43:37.286Z</time></trkpt><trkpt lat="42.4171962" lon="14.2188933"><ele>53.6</ele><time>2026-04-26T07:43:38.285Z</time></trkpt><trkpt lat="42.4171408" lon="14.2187913"><ele>54.39999999999999</ele><time>2026-04-26T07:43:39.286Z</time></trkpt><trkpt lat="42.4170807" lon="14.2186987"><ele>55.199999999999996</ele><time>2026-04-26T07:43:40.286Z</time></trkpt><trkpt lat="42.4170012" lon="14.2186263"><ele>56.0</ele><time>2026-04-26T07:43:41.287Z</time></trkpt><trkpt lat="42.4169022" lon="14.2185697"><ele>56.0</ele><time>2026-04-26T07:43:42.286Z</time></trkpt><trkpt lat="42.4168155" lon="14.2185112"><ele>55.99999999999999</ele><time>2026-04-26T07:43:43.287Z</time></trkpt><trkpt lat="42.4167583" lon="14.2184352"><ele>55.99999999999999</ele><time>2026-04-26T07:43:44.285Z</time></trkpt><trkpt lat="42.4167138" lon="14.2183262"><ele>56.0</ele><time>2026-04-26T07:43:45.286Z</time></trkpt><trkpt lat="42.4166602" lon="14.2181888"><ele>56.0</ele><time>2026-04-26T07:43:46.285Z</time></trkpt><trkpt lat="42.416593" lon="14.2180415"><ele>56.75</ele><time>2026-04-26T07:43:47.286Z</time></trkpt><trkpt lat="42.4165157" lon="14.217888"><ele>57.5</ele><time>2026-04-26T07:43:48.287Z</time></trkpt><trkpt lat="42.4164257" lon="14.217722"><ele>58.25</ele><time>2026-04-26T07:43:49.288Z</time></trkpt><trkpt lat="42.4163387" lon="14.2175702"><ele>59.0</ele><time>2026-04-26T07:43:50.285Z</time></trkpt><trkpt lat="42.4162372" lon="14.2174312"><ele>58.66666666666667</ele><time>2026-04-26T07:43:51.287Z</time></trkpt><trkpt lat="42.4161228" lon="14.2172882"><ele>58.33333333333333</ele><time>2026-04-26T07:43:52.288Z</time></trkpt><trkpt lat="42.4159977" lon="14.2171493"><ele>58.0</ele><time>2026-04-26T07:43:53.287Z</time></trkpt><trkpt lat="42.4158875" lon="14.217023"><ele>58.0</ele><time>2026-04-26T07:43:54.287Z</time></trkpt><trkpt lat="42.4157985" lon="14.2169043"><ele>58.0</ele><time>2026-04-26T07:43:55.287Z</time></trkpt><trkpt lat="42.4157098" lon="14.2168035"><ele>58.0</ele><time>2026-04-26T07:43:56.284Z</time></trkpt><trkpt lat="42.4156137" lon="14.216734"><ele>58.0</ele><time>2026-04-26T07:43:57.285Z</time></trkpt><trkpt lat="42.415512" lon="14.2166805"><ele>58.4</ele><time>2026-04-26T07:43:58.284Z</time></trkpt><trkpt lat="42.4154323" lon="14.2166185"><ele>58.8</ele><time>2026-04-26T07:43:59.285Z</time></trkpt><trkpt lat="42.4153742" lon="14.2165372"><ele>59.2</ele><time>2026-04-26T07:44:00.287Z</time></trkpt><trkpt lat="42.4153375" lon="14.2164145"><ele>59.6</ele><time>2026-04-26T07:44:01.286Z</time></trkpt><trkpt lat="42.4152805" lon="14.2162813"><ele>60.0</ele><time>2026-04-26T07:44:02.284Z</time></trkpt><trkpt lat="42.4152067" lon="14.2161665"><ele>60.0</ele><time>2026-04-26T07:44:03.285Z</time></trkpt><trkpt lat="42.4151183" lon="14.2160665"><ele>60.0</ele><time>2026-04-26T07:44:04.284Z</time></trkpt><trkpt lat="42.415017" lon="14.2159687"><ele>60.0</ele><time>2026-04-26T07:44:05.286Z</time></trkpt><trkpt lat="42.4149245" lon="14.2158558"><ele>60.0</ele><time>2026-04-26T07:44:06.287Z</time></trkpt><trkpt lat="42.4148658" lon="14.2157273"><ele>61.25</ele><time>2026-04-26T07:44:07.288Z</time></trkpt><trkpt lat="42.4148357" lon="14.2155678"><ele>62.5</ele><time>2026-04-26T07:44:08.285Z</time></trkpt><trkpt lat="42.4148" lon="14.2153893"><ele>63.75</ele><time>2026-04-26T07:44:09.284Z</time></trkpt><trkpt lat="42.41477" lon="14.215204"><ele>65.0</ele><time>2026-04-26T07:44:10.286Z</time></trkpt><trkpt lat="42.4147528" lon="14.2150349"><ele>65.0</ele><time>2026-04-26T07:44:11.286Z</time></trkpt><trkpt lat="42.4147551" lon="14.2148808"><ele>65.0</ele><time>2026-04-26T07:44:12.286Z</time></trkpt><trkpt lat="42.4147689" lon="14.2147249"><ele>65.0</ele><time>2026-04-26T07:44:13.286Z</time></trkpt><trkpt lat="42.4147687" lon="14.2145814"><ele>65.0</ele><time>2026-04-26T07:44:14.287Z</time></trkpt><trkpt lat="42.4147389" lon="14.2144631"><ele>65.0</ele><time>2026-04-26T07:44:15.288Z</time></trkpt><trkpt lat="42.4146815" lon="14.21435"><ele>65.25</ele><time>2026-04-26T07:44:16.287Z</time></trkpt><trkpt lat="42.4146065" lon="14.2142254"><ele>65.5</ele><time>2026-04-26T07:44:17.286Z</time></trkpt><trkpt lat="42.4145291" lon="14.2140841"><ele>65.75</ele><time>2026-04-26T07:44:18.286Z</time></trkpt><trkpt lat="42.4144528" lon="14.2139413"><ele>66.0</ele><time>2026-04-26T07:44:19.285Z</time></trkpt><trkpt lat="42.4144031" lon="14.2138072"><ele>66.2</ele><time>2026-04-26T07:44:20.286Z</time></trkpt><trkpt lat="42.4144042" lon="14.2136829"><ele>66.39999999999999</ele><time>2026-04-26T07:44:21.285Z</time></trkpt><trkpt lat="42.4144438" lon="14.2135585"><ele>66.6</ele><time>2026-04-26T07:44:22.283Z</time></trkpt><trkpt lat="42.4144927" lon="14.2134171"><ele>66.8</ele><time>2026-04-26T07:44:23.285Z</time></trkpt><trkpt lat="42.4145242" lon="14.213259"><ele>67.0</ele><time>2026-04-26T07:44:24.285Z</time></trkpt><trkpt lat="42.4145266" lon="14.2130857"><ele>67.0</ele><time>2026-04-26T07:44:25.286Z</time></trkpt><trkpt lat="42.4145079" lon="14.2129092"><ele>67.0</ele><time>2026-04-26T07:44:26.286Z</time></trkpt><trkpt lat="42.4144691" lon="14.212741"><ele>67.0</ele><time>2026-04-26T07:44:27.287Z</time></trkpt><trkpt lat="42.4144107" lon="14.212587"><ele>67.0</ele><time>2026-04-26T07:44:28.287Z</time></trkpt><trkpt lat="42.4143473" lon="14.2124419"><ele>67.25</ele><time>2026-04-26T07:44:29.285Z</time></trkpt><trkpt lat="42.4142801" lon="14.2123055"><ele>67.5</ele><time>2026-04-26T07:44:30.284Z</time></trkpt><trkpt lat="42.4142103" lon="14.2121615"><ele>67.75</ele><time>2026-04-26T07:44:31.285Z</time></trkpt><trkpt lat="42.414148" lon="14.2120036"><ele>68.0</ele><time>2026-04-26T07:44:32.284Z</time></trkpt><trkpt lat="42.4140861" lon="14.2118321"><ele>68.0</ele><time>2026-04-26T07:44:33.285Z</time></trkpt><trkpt lat="42.4140189" lon="14.2116508"><ele>68.0</ele><time>2026-04-26T07:44:34.286Z</time></trkpt><trkpt lat="42.4139499" lon="14.2114621"><ele>68.0</ele><time>2026-04-26T07:44:35.288Z</time></trkpt><trkpt lat="42.4138777" lon="14.211273"><ele>68.75</ele><time>2026-04-26T07:44:36.288Z</time></trkpt><trkpt lat="42.4138057" lon="14.2110933"><ele>69.5</ele><time>2026-04-26T07:44:37.289Z</time></trkpt><trkpt lat="42.4137502" lon="14.2109215"><ele>70.25</ele><time>2026-04-26T07:44:38.287Z</time></trkpt><trkpt lat="42.4137242" lon="14.210771"><ele>71.0</ele><time>2026-04-26T07:44:39.286Z</time></trkpt><trkpt lat="42.4137251" lon="14.2106319"><ele>71.2</ele><time>2026-04-26T07:44:40.288Z</time></trkpt><trkpt lat="42.4137217" lon="14.2105046"><ele>71.39999999999999</ele><time>2026-04-26T07:44:41.288Z</time></trkpt><trkpt lat="42.4136927" lon="14.21038"><ele>71.6</ele><time>2026-04-26T07:44:42.288Z</time></trkpt><trkpt lat="42.4136384" lon="14.2102531"><ele>71.8</ele><time>2026-04-26T07:44:43.286Z</time></trkpt><trkpt lat="42.4135641" lon="14.2101441"><ele>72.0</ele><time>2026-04-26T07:44:44.288Z</time></trkpt><trkpt lat="42.413479" lon="14.2100624"><ele>72.0</ele><time>2026-04-26T07:44:45.285Z</time></trkpt><trkpt lat="42.4133917" lon="14.2100087"><ele>72.0</ele><time>2026-04-26T07:44:46.286Z</time></trkpt><trkpt lat="42.4133133" lon="14.2099605"><ele>72.0</ele><time>2026-04-26T07:44:47.285Z</time></trkpt><trkpt lat="42.4132514" lon="14.2099113"><ele>72.0</ele><time>2026-04-26T07:44:48.288Z</time></trkpt><trkpt lat="42.4131701" lon="14.209896"><ele>72.0</ele><time>2026-04-26T07:44:50.287Z</time></trkpt><trkpt lat="42.4130857" lon="14.2099673"><ele>72.0</ele><time>2026-04-26T07:44:52.286Z</time></trkpt><trkpt lat="42.413016" lon="14.2100178"><ele>73.16666666666667</ele><time>2026-04-26T07:44:53.288Z</time></trkpt><trkpt lat="42.4129382" lon="14.2100755"><ele>74.33333333333333</ele><time>2026-04-26T07:44:54.289Z</time></trkpt><trkpt lat="42.4128697" lon="14.2101202"><ele>75.5</ele><time>2026-04-26T07:44:55.288Z</time></trkpt><trkpt lat="42.4128123" lon="14.2101747"><ele>76.66666666666666</ele><time>2026-04-26T07:44:57.288Z</time></trkpt><trkpt lat="42.4128345" lon="14.210282"><ele>77.83333333333333</ele><time>2026-04-26T07:44:59.287Z</time></trkpt><trkpt lat="42.4128525" lon="14.2103713"><ele>79.0</ele><time>2026-04-26T07:45:00.288Z</time></trkpt><trkpt lat="42.4128633" lon="14.2108008"><ele>80.0</ele><time>2026-04-26T07:45:04.288Z</time></trkpt><trkpt lat="42.4128523" lon="14.2110498"><ele>81.0</ele><time>2026-04-26T07:45:06.291Z</time></trkpt><trkpt lat="42.4128475" lon="14.2111925"><ele>82.0</ele><time>2026-04-26T07:45:07.287Z</time></trkpt><trkpt lat="42.4129062" lon="14.2118433"><ele>74.0</ele><time>2026-04-26T07:45:11.286Z</time></trkpt><trkpt lat="42.4130087" lon="14.2124868"><ele>74.0</ele><time>2026-04-26T07:45:15.287Z</time></trkpt><trkpt lat="42.4130517" lon="14.2126468"><ele>74.0</ele><time>2026-04-26T07:45:16.288Z</time></trkpt><trkpt lat="42.4131035" lon="14.2128247"><ele>74.0</ele><time>2026-04-26T07:45:17.289Z</time></trkpt><trkpt lat="42.4131643" lon="14.2130243"><ele>74.0</ele><time>2026-04-26T07:45:18.287Z</time></trkpt><trkpt lat="42.4132302" lon="14.2132382"><ele>74.33333333333334</ele><time>2026-04-26T07:45:19.286Z</time></trkpt><trkpt lat="42.4132977" lon="14.2134592"><ele>74.66666666666667</ele><time>2026-04-26T07:45:20.285Z</time></trkpt><trkpt lat="42.413352" lon="14.213677"><ele>75.0</ele><time>2026-04-26T07:45:21.286Z</time></trkpt><trkpt lat="42.4133813" lon="14.2138975"><ele>78.0</ele><time>2026-04-26T07:45:22.286Z</time></trkpt><trkpt lat="42.4134187" lon="14.2141017"><ele>81.0</ele><time>2026-04-26T07:45:23.285Z</time></trkpt><trkpt lat="42.4134692" lon="14.2142952"><ele>84.0</ele><time>2026-04-26T07:45:24.289Z</time></trkpt><trkpt lat="42.4135395" lon="14.2144953"><ele>84.0</ele><time>2026-04-26T07:45:25.285Z</time></trkpt><trkpt lat="42.413621" lon="14.2146992"><ele>84.0</ele><time>2026-04-26T07:45:26.288Z</time></trkpt><trkpt lat="42.4137095" lon="14.2149012"><ele>84.0</ele><time>2026-04-26T07:45:27.284Z</time></trkpt><trkpt lat="42.413793" lon="14.2151073"><ele>81.0</ele><time>2026-04-26T07:45:28.285Z</time></trkpt><trkpt lat="42.4138685" lon="14.2153123"><ele>78.0</ele><time>2026-04-26T07:45:29.284Z</time></trkpt><trkpt lat="42.4139368" lon="14.2155168"><ele>75.0</ele><time>2026-04-26T07:45:30.286Z</time></trkpt><trkpt lat="42.4140118" lon="14.2157223"><ele>75.0</ele><time>2026-04-26T07:45:31.285Z</time></trkpt><trkpt lat="42.4140925" lon="14.2159267"><ele>75.0</ele><time>2026-04-26T07:45:32.286Z</time></trkpt><trkpt lat="42.4141757" lon="14.2161272"><ele>75.0</ele><time>2026-04-26T07:45:33.287Z</time></trkpt><trkpt lat="42.414255" lon="14.216319"><ele>76.5</ele><time>2026-04-26T07:45:34.283Z</time></trkpt><trkpt lat="42.4143293" lon="14.216504"><ele>78.0</ele><time>2026-04-26T07:45:35.282Z</time></trkpt><trkpt lat="42.4143992" lon="14.2166818"><ele>79.5</ele><time>2026-04-26T07:45:36.283Z</time></trkpt><trkpt lat="42.4144632" lon="14.2168477"><ele>81.0</ele><time>2026-04-26T07:45:37.283Z</time></trkpt><trkpt lat="42.4145137" lon="14.2170018"><ele>81.0</ele><time>2026-04-26T07:45:38.284Z</time></trkpt><trkpt lat="42.4145453" lon="14.2171577"><ele>81.0</ele><time>2026-04-26T07:45:39.285Z</time></trkpt><trkpt lat="42.4145633" lon="14.2173168"><ele>81.0</ele><time>2026-04-26T07:45:40.285Z</time></trkpt><trkpt lat="42.4145752" lon="14.2174642"><ele>81.0</ele><time>2026-04-26T07:45:41.285Z</time></trkpt><trkpt lat="42.414574" lon="14.2175877"><ele>81.0</ele><time>2026-04-26T07:45:42.288Z</time></trkpt><trkpt lat="42.4145483" lon="14.2176838"><ele>83.19999999999999</ele><time>2026-04-26T07:45:43.288Z</time></trkpt><trkpt lat="42.4144985" lon="14.2177613"><ele>85.39999999999999</ele><time>2026-04-26T07:45:44.287Z</time></trkpt><trkpt lat="42.41443" lon="14.2178268"><ele>87.6</ele><time>2026-04-26T07:45:45.29Z</time></trkpt><trkpt lat="42.4143512" lon="14.2178963"><ele>89.8</ele><time>2026-04-26T07:45:46.287Z</time></trkpt><trkpt lat="42.4142698" lon="14.2179702"><ele>92.0</ele><time>2026-04-26T07:45:47.288Z</time></trkpt><trkpt lat="42.4141935" lon="14.2180553"><ele>90.6</ele><time>2026-04-26T07:45:48.287Z</time></trkpt><trkpt lat="42.4141263" lon="14.2181617"><ele>89.19999999999999</ele><time>2026-04-26T07:45:49.289Z</time></trkpt><trkpt lat="42.4140662" lon="14.2182882"><ele>87.8</ele><time>2026-04-26T07:45:50.289Z</time></trkpt><trkpt lat="42.4140063" lon="14.2184185"><ele>86.4</ele><time>2026-04-26T07:45:51.287Z</time></trkpt><trkpt lat="42.4139487" lon="14.2185402"><ele>85.0</ele><time>2026-04-26T07:45:52.287Z</time></trkpt><trkpt lat="42.4138837" lon="14.218668"><ele>89.4</ele><time>2026-04-26T07:45:53.287Z</time></trkpt><trkpt lat="42.4138067" lon="14.2187747"><ele>93.8</ele><time>2026-04-26T07:45:54.287Z</time></trkpt><trkpt lat="42.4137165" lon="14.2188557"><ele>98.19999999999999</ele><time>2026-04-26T07:45:55.285Z</time></trkpt><trkpt lat="42.4136223" lon="14.2189072"><ele>102.6</ele><time>2026-04-26T07:45:56.284Z</time></trkpt><trkpt lat="42.4135337" lon="14.2189213"><ele>107.0</ele><time>2026-04-26T07:45:57.285Z</time></trkpt><trkpt lat="42.4134423" lon="14.218914"><ele>106.99999999999999</ele><time>2026-04-26T07:45:58.285Z</time></trkpt><trkpt lat="42.4133463" lon="14.2188942"><ele>107.0</ele><time>2026-04-26T07:45:59.283Z</time></trkpt><trkpt lat="42.4132603" lon="14.2188767"><ele>107.0</ele><time>2026-04-26T07:46:00.284Z</time></trkpt><trkpt lat="42.4131923" lon="14.2188552"><ele>107.0</ele><time>2026-04-26T07:46:01.284Z</time></trkpt><trkpt lat="42.4130913" lon="14.2188413"><ele>106.99999999999999</ele><time>2026-04-26T07:46:03.288Z</time></trkpt><trkpt lat="42.4131625" lon="14.2188527"><ele>107.0</ele><time>2026-04-26T07:46:12.288Z</time></trkpt><trkpt lat="42.4132353" lon="14.2188692"><ele>106.99999999999999</ele><time>2026-04-26T07:46:14.285Z</time></trkpt><trkpt lat="42.4133443" lon="14.2189102"><ele>107.0</ele><time>2026-04-26T07:46:16.287Z</time></trkpt><trkpt lat="42.4134083" lon="14.2189268"><ele>107.0</ele><time>2026-04-26T07:46:17.285Z</time></trkpt><trkpt lat="42.4134758" lon="14.2189393"><ele>107.0</ele><time>2026-04-26T07:46:18.285Z</time></trkpt><trkpt lat="42.4135518" lon="14.21894"><ele>106.99999999999999</ele><time>2026-04-26T07:46:20.288Z</time></trkpt><trkpt lat="42.4136272" lon="14.218916"><ele>107.0</ele><time>2026-04-26T07:46:24.285Z</time></trkpt><trkpt lat="42.4136875" lon="14.2188532"><ele>107.0</ele><time>2026-04-26T07:46:26.285Z</time></trkpt><trkpt lat="42.4137707" lon="14.2187487"><ele>106.99999999999999</ele><time>2026-04-26T07:46:28.287Z</time></trkpt><trkpt lat="42.4138147" lon="14.2188278"><ele>106.99999999999999</ele><time>2026-04-26T07:46:31.288Z</time></trkpt><trkpt lat="42.4137928" lon="14.2189812"><ele>107.0</ele><time>2026-04-26T07:46:33.286Z</time></trkpt><trkpt lat="42.4137673" lon="14.2191192"><ele>107.0</ele><time>2026-04-26T07:46:35.286Z</time></trkpt><trkpt lat="42.4137195" lon="14.2192058"><ele>104.00000000000001</ele><time>2026-04-26T07:46:37.284Z</time></trkpt><trkpt lat="42.413684" lon="14.2192775"><ele>101.0</ele><time>2026-04-26T07:46:39.286Z</time></trkpt><trkpt lat="42.4136393" lon="14.2193457"><ele>98.0</ele><time>2026-04-26T07:46:41.283Z</time></trkpt><trkpt lat="42.413599" lon="14.219416"><ele>95.0</ele><time>2026-04-26T07:46:43.288Z</time></trkpt><trkpt lat="42.4135727" lon="14.2195213"><ele>92.0</ele><time>2026-04-26T07:46:46.286Z</time></trkpt><trkpt lat="42.4135715" lon="14.2196172"><ele>89.00000000000001</ele><time>2026-04-26T07:46:48.282Z</time></trkpt><trkpt lat="42.4135785" lon="14.2197165"><ele>86.0</ele><time>2026-04-26T07:46:50.283Z</time></trkpt><trkpt lat="42.4135893" lon="14.219861"><ele>84.0</ele><time>2026-04-26T07:46:52.287Z</time></trkpt><trkpt lat="42.4136077" lon="14.2200157"><ele>82.0</ele><time>2026-04-26T07:46:54.288Z</time></trkpt><trkpt lat="42.4136218" lon="14.2200993"><ele>80.0</ele><time>2026-04-26T07:46:55.285Z</time></trkpt><trkpt lat="42.4136368" lon="14.2201883"><ele>78.0</ele><time>2026-04-26T07:46:56.285Z</time></trkpt><trkpt lat="42.413647" lon="14.2202922"><ele>76.0</ele><time>2026-04-26T07:46:57.284Z</time></trkpt><trkpt lat="42.413653" lon="14.2204012"><ele>74.0</ele><time>2026-04-26T07:46:58.288Z</time></trkpt><trkpt lat="42.4136622" lon="14.2205217"><ele>74.0</ele><time>2026-04-26T07:46:59.284Z</time></trkpt><trkpt lat="42.4136642" lon="14.2206428"><ele>74.0</ele><time>2026-04-26T07:47:00.285Z</time></trkpt><trkpt lat="42.4136545" lon="14.2207667"><ele>74.0</ele><time>2026-04-26T07:47:01.286Z</time></trkpt><trkpt lat="42.4136305" lon="14.2208738"><ele>74.0</ele><time>2026-04-26T07:47:02.285Z</time></trkpt><trkpt lat="42.4136027" lon="14.2209537"><ele>74.0</ele><time>2026-04-26T07:47:03.283Z</time></trkpt><trkpt lat="42.4135097" lon="14.2210095"><ele>74.0</ele><time>2026-04-26T07:47:05.284Z</time></trkpt><trkpt lat="42.4133828" lon="14.2210418"><ele>74.16666666666667</ele><time>2026-04-26T07:47:07.284Z</time></trkpt><trkpt lat="42.4133202" lon="14.221134"><ele>74.33333333333334</ele><time>2026-04-26T07:47:09.283Z</time></trkpt><trkpt lat="42.4133567" lon="14.2212612"><ele>74.5</ele><time>2026-04-26T07:47:11.283Z</time></trkpt><trkpt lat="42.4134113" lon="14.221304"><ele>74.66666666666667</ele><time>2026-04-26T07:47:12.284Z</time></trkpt><trkpt lat="42.4134827" lon="14.2213253"><ele>74.83333333333333</ele><time>2026-04-26T07:47:13.281Z</time></trkpt><trkpt lat="42.4135517" lon="14.2213365"><ele>75.0</ele><time>2026-04-26T07:47:14.282Z</time></trkpt><trkpt lat="42.4136258" lon="14.2213605"><ele>75.0</ele><time>2026-04-26T07:47:15.282Z</time></trkpt><trkpt lat="42.4136918" lon="14.2214037"><ele>75.0</ele><time>2026-04-26T07:47:16.283Z</time></trkpt><trkpt lat="42.4137427" lon="14.2214667"><ele>75.0</ele><time>2026-04-26T07:47:17.283Z</time></trkpt><trkpt lat="42.4137948" lon="14.221563"><ele>75.0</ele><time>2026-04-26T07:47:18.284Z</time></trkpt><trkpt lat="42.4138433" lon="14.2216335"><ele>75.0</ele><time>2026-04-26T07:47:19.284Z</time></trkpt><trkpt lat="42.4139008" lon="14.2216697"><ele>75.0</ele><time>2026-04-26T07:47:20.283Z</time></trkpt><trkpt lat="42.4139662" lon="14.2217557"><ele>77.83333333333333</ele><time>2026-04-26T07:47:22.284Z</time></trkpt><trkpt lat="42.4139807" lon="14.2218465"><ele>80.66666666666667</ele><time>2026-04-26T07:47:23.284Z</time></trkpt><trkpt lat="42.4140063" lon="14.221959"><ele>83.5</ele><time>2026-04-26T07:47:24.286Z</time></trkpt><trkpt lat="42.4140363" lon="14.2220643"><ele>86.33333333333334</ele><time>2026-04-26T07:47:25.285Z</time></trkpt><trkpt lat="42.4140745" lon="14.2221487"><ele>89.16666666666667</ele><time>2026-04-26T07:47:26.285Z</time></trkpt><trkpt lat="42.4141363" lon="14.2221705"><ele>92.0</ele><time>2026-04-26T07:47:28.284Z</time></trkpt><trkpt lat="42.4142585" lon="14.2221707"><ele>92.0</ele><time>2026-04-26T07:47:30.284Z</time></trkpt><trkpt lat="42.414341" lon="14.222256"><ele>92.0</ele><time>2026-04-26T07:47:32.285Z</time></trkpt><trkpt lat="42.4143718" lon="14.2223313"><ele>92.0</ele><time>2026-04-26T07:47:33.285Z</time></trkpt><trkpt lat="42.4144133" lon="14.2224198"><ele>92.0</ele><time>2026-04-26T07:47:34.287Z</time></trkpt><trkpt lat="42.4144405" lon="14.2225202"><ele>92.0</ele><time>2026-04-26T07:47:35.285Z</time></trkpt><trkpt lat="42.4144463" lon="14.2226218"><ele>92.0</ele><time>2026-04-26T07:47:36.285Z</time></trkpt><trkpt lat="42.4144487" lon="14.2227293"><ele>94.6</ele><time>2026-04-26T07:47:37.284Z</time></trkpt><trkpt lat="42.414445" lon="14.222841"><ele>97.19999999999999</ele><time>2026-04-26T07:47:38.283Z</time></trkpt><trkpt lat="42.414426" lon="14.2229595"><ele>99.8</ele><time>2026-04-26T07:47:39.283Z</time></trkpt><trkpt lat="42.4144007" lon="14.2230788"><ele>102.4</ele><time>2026-04-26T07:47:40.283Z</time></trkpt><trkpt lat="42.4143778" lon="14.2232082"><ele>105.0</ele><time>2026-04-26T07:47:41.286Z</time></trkpt><trkpt lat="42.4143493" lon="14.223332"><ele>107.8</ele><time>2026-04-26T07:47:42.285Z</time></trkpt><trkpt lat="42.414312" lon="14.223442"><ele>110.6</ele><time>2026-04-26T07:47:43.285Z</time></trkpt><trkpt lat="42.4142667" lon="14.223537"><ele>113.4</ele><time>2026-04-26T07:47:44.284Z</time></trkpt><trkpt lat="42.4142475" lon="14.2236713"><ele>116.2</ele><time>2026-04-26T07:47:46.285Z</time></trkpt><trkpt lat="42.4143235" lon="14.2237808"><ele>119.0</ele><time>2026-04-26T07:47:48.287Z</time></trkpt><trkpt lat="42.4143688" lon="14.2238537"><ele>118.99999999999999</ele><time>2026-04-26T07:47:49.283Z</time></trkpt><trkpt lat="42.4143948" lon="14.223936"><ele>119.0</ele><time>2026-04-26T07:47:50.284Z</time></trkpt><trkpt lat="42.4144243" lon="14.2240158"><ele>119.0</ele><time>2026-04-26T07:47:51.285Z</time></trkpt><trkpt lat="42.4145032" lon="14.2240773"><ele>119.0</ele><time>2026-04-26T07:47:53.284Z</time></trkpt><trkpt lat="42.4146257" lon="14.2240632"><ele>118.99999999999999</ele><time>2026-04-26T07:47:55.283Z</time></trkpt><trkpt lat="42.4147108" lon="14.2240312"><ele>119.0</ele><time>2026-04-26T07:47:56.283Z</time></trkpt><trkpt lat="42.4148033" lon="14.223978"><ele>121.0</ele><time>2026-04-26T07:47:57.283Z</time></trkpt><trkpt lat="42.4148943" lon="14.223917"><ele>123.0</ele><time>2026-04-26T07:47:58.283Z</time></trkpt><trkpt lat="42.4149847" lon="14.2238223"><ele>125.0</ele><time>2026-04-26T07:47:59.282Z</time></trkpt><trkpt lat="42.4150763" lon="14.2237057"><ele>127.0</ele><time>2026-04-26T07:48:00.282Z</time></trkpt><trkpt lat="42.4151512" lon="14.223579"><ele>127.00000000000001</ele><time>2026-04-26T07:48:01.282Z</time></trkpt><trkpt lat="42.4152165" lon="14.223476"><ele>127.0</ele><time>2026-04-26T07:48:02.282Z</time></trkpt><trkpt lat="42.4152797" lon="14.2233945"><ele>127.0</ele><time>2026-04-26T07:48:03.281Z</time></trkpt><trkpt lat="42.4153555" lon="14.2233383"><ele>127.0</ele><time>2026-04-26T07:48:04.281Z</time></trkpt><trkpt lat="42.4154212" lon="14.2233018"><ele>127.00000000000001</ele><time>2026-04-26T07:48:05.281Z</time></trkpt><trkpt lat="42.4154882" lon="14.2233107"><ele>127.0</ele><time>2026-04-26T07:48:06.282Z</time></trkpt><trkpt lat="42.415551" lon="14.2233515"><ele>127.00000000000001</ele><time>2026-04-26T07:48:07.284Z</time></trkpt><trkpt lat="42.4155468" lon="14.2234454"><ele>127.0</ele><time>2026-04-26T07:48:10.285Z</time></trkpt><trkpt lat="42.4154598" lon="14.2234886"><ele>127.0</ele><time>2026-04-26T07:48:12.285Z</time></trkpt><trkpt lat="42.4153901" lon="14.223526"><ele>127.0</ele><time>2026-04-26T07:48:13.285Z</time></trkpt><trkpt lat="42.4153219" lon="14.2235996"><ele>127.00000000000001</ele><time>2026-04-26T07:48:14.283Z</time></trkpt><trkpt lat="42.4152647" lon="14.2237151"><ele>127.0</ele><time>2026-04-26T07:48:15.285Z</time></trkpt><trkpt lat="42.4152215" lon="14.2238632"><ele>132.25</ele><time>2026-04-26T07:48:16.285Z</time></trkpt><trkpt lat="42.4151796" lon="14.2240273"><ele>137.5</ele><time>2026-04-26T07:48:17.283Z</time></trkpt><trkpt lat="42.4151348" lon="14.2241696"><ele>142.75</ele><time>2026-04-26T07:48:18.286Z</time></trkpt><trkpt lat="42.4150634" lon="14.2242963"><ele>148.0</ele><time>2026-04-26T07:48:19.283Z</time></trkpt><trkpt lat="42.4149751" lon="14.2244123"><ele>148.0</ele><time>2026-04-26T07:48:20.283Z</time></trkpt><trkpt lat="42.4148723" lon="14.2245296"><ele>148.0</ele><time>2026-04-26T07:48:21.283Z</time></trkpt><trkpt lat="42.4147718" lon="14.2246449"><ele>148.0</ele><time>2026-04-26T07:48:22.284Z</time></trkpt><trkpt lat="42.4146786" lon="14.2247354"><ele>148.0</ele><time>2026-04-26T07:48:23.284Z</time></trkpt><trkpt lat="42.4146035" lon="14.2248126"><ele>148.66666666666669</ele><time>2026-04-26T07:48:24.285Z</time></trkpt><trkpt lat="42.4145417" lon="14.2249"><ele>149.33333333333334</ele><time>2026-04-26T07:48:25.284Z</time></trkpt><trkpt lat="42.4144957" lon="14.2250105"><ele>150.0</ele><time>2026-04-26T07:48:26.283Z</time></trkpt><trkpt lat="42.414476" lon="14.2251189"><ele>150.66666666666666</ele><time>2026-04-26T07:48:27.285Z</time></trkpt><trkpt lat="42.4144907" lon="14.2252138"><ele>151.33333333333331</ele><time>2026-04-26T07:48:29.283Z</time></trkpt><trkpt lat="42.4145088" lon="14.2253313"><ele>152.0</ele><time>2026-04-26T07:56:14.284Z</time></trkpt><trkpt lat="42.4145742" lon="14.2254867"><ele>152.0</ele><time>2026-04-26T07:56:16.288Z</time></trkpt><trkpt lat="42.4146315" lon="14.225571"><ele>152.0</ele><time>2026-04-26T07:56:17.285Z</time></trkpt><trkpt lat="42.4146903" lon="14.225671"><ele>152.0</ele><time>2026-04-26T07:56:18.286Z</time></trkpt><trkpt lat="42.4147272" lon="14.2257655"><ele>152.0</ele><time>2026-04-26T07:56:19.286Z</time></trkpt><trkpt lat="42.414745" lon="14.2258615"><ele>152.0</ele><time>2026-04-26T07:56:20.286Z</time></trkpt><trkpt lat="42.4147467" lon="14.2259475"><ele>152.0</ele><time>2026-04-26T07:56:21.287Z</time></trkpt><trkpt lat="42.4146782" lon="14.2260345"><ele>153.5</ele><time>2026-04-26T07:56:23.286Z</time></trkpt><trkpt lat="42.4145532" lon="14.2260245"><ele>155.0</ele><time>2026-04-26T07:56:25.286Z</time></trkpt><trkpt lat="42.4144697" lon="14.2260222"><ele>156.5</ele><time>2026-04-26T07:56:26.286Z</time></trkpt><trkpt lat="42.4143862" lon="14.2260278"><ele>158.0</ele><time>2026-04-26T07:56:27.287Z</time></trkpt><trkpt lat="42.4143212" lon="14.2260655"><ele>159.5</ele><time>2026-04-26T07:56:28.286Z</time></trkpt><trkpt lat="42.4142802" lon="14.2261315"><ele>161.0</ele><time>2026-04-26T07:56:29.287Z</time></trkpt><trkpt lat="42.4142498" lon="14.2262337"><ele>161.0</ele><time>2026-04-26T07:56:30.287Z</time></trkpt><trkpt lat="42.414206" lon="14.226375"><ele>161.0</ele><time>2026-04-26T07:56:31.286Z</time></trkpt><trkpt lat="42.4141588" lon="14.2265325"><ele>161.0</ele><time>2026-04-26T07:56:32.287Z</time></trkpt><trkpt lat="42.4141152" lon="14.2267035"><ele>161.0</ele><time>2026-04-26T07:56:33.288Z</time></trkpt><trkpt lat="42.4140638" lon="14.226883"><ele>162.5</ele><time>2026-04-26T07:56:34.288Z</time></trkpt><trkpt lat="42.414013" lon="14.227063"><ele>164.0</ele><time>2026-04-26T07:56:35.288Z</time></trkpt><trkpt lat="42.4139642" lon="14.227221"><ele>165.5</ele><time>2026-04-26T07:56:36.288Z</time></trkpt><trkpt lat="42.4139148" lon="14.2273585"><ele>167.0</ele><time>2026-04-26T07:56:37.286Z</time></trkpt><trkpt lat="42.4138695" lon="14.2274795"><ele>167.33333333333331</ele><time>2026-04-26T07:56:38.286Z</time></trkpt><trkpt lat="42.413839" lon="14.2275745"><ele>167.66666666666666</ele><time>2026-04-26T07:56:39.287Z</time></trkpt><trkpt lat="42.4138138" lon="14.2276678"><ele>168.0</ele><time>2026-04-26T07:56:41.292Z</time></trkpt><trkpt lat="42.4138787" lon="14.2277917"><ele>168.33333333333334</ele><time>2026-04-26T07:56:44.286Z</time></trkpt><trkpt lat="42.413952" lon="14.2278417"><ele>168.66666666666669</ele><time>2026-04-26T07:56:45.288Z</time></trkpt><trkpt lat="42.4140398" lon="14.2278932"><ele>169.0</ele><time>2026-04-26T07:56:46.287Z</time></trkpt><trkpt lat="42.414133" lon="14.2279468"><ele>169.0</ele><time>2026-04-26T07:56:47.29Z</time></trkpt><trkpt lat="42.4142312" lon="14.2280065"><ele>169.0</ele><time>2026-04-26T07:56:48.29Z</time></trkpt><trkpt lat="42.4143342" lon="14.2280678"><ele>169.0</ele><time>2026-04-26T07:56:49.292Z</time></trkpt><trkpt lat="42.4144398" lon="14.2281338"><ele>169.0</ele><time>2026-04-26T07:56:50.29Z</time></trkpt><trkpt lat="42.414548" lon="14.2282142"><ele>169.25</ele><time>2026-04-26T07:56:51.289Z</time></trkpt><trkpt lat="42.414659" lon="14.2283087"><ele>169.5</ele><time>2026-04-26T07:56:52.291Z</time></trkpt><trkpt lat="42.4147693" lon="14.2284118"><ele>169.75</ele><time>2026-04-26T07:56:53.292Z</time></trkpt><trkpt lat="42.4148807" lon="14.2285207"><ele>170.0</ele><time>2026-04-26T07:56:54.291Z</time></trkpt><trkpt lat="42.414994" lon="14.228633"><ele>170.0</ele><time>2026-04-26T07:56:55.289Z</time></trkpt><trkpt lat="42.4151107" lon="14.2287495"><ele>170.0</ele><time>2026-04-26T07:56:56.289Z</time></trkpt><trkpt lat="42.4152338" lon="14.2288738"><ele>170.0</ele><time>2026-04-26T07:56:57.29Z</time></trkpt><trkpt lat="42.4153615" lon="14.2290053"><ele>169.33333333333331</ele><time>2026-04-26T07:56:58.289Z</time></trkpt><trkpt lat="42.4154922" lon="14.2291438"><ele>168.66666666666666</ele><time>2026-04-26T07:56:59.289Z</time></trkpt><trkpt lat="42.4156248" lon="14.2292857"><ele>168.0</ele><time>2026-04-26T07:57:00.288Z</time></trkpt><trkpt lat="42.4157573" lon="14.2294285"><ele>168.0</ele><time>2026-04-26T07:57:01.288Z</time></trkpt><trkpt lat="42.41589" lon="14.2295732"><ele>168.0</ele><time>2026-04-26T07:57:02.288Z</time></trkpt><trkpt lat="42.4160208" lon="14.2297212"><ele>168.0</ele><time>2026-04-26T07:57:03.287Z</time></trkpt><trkpt lat="42.4161522" lon="14.2298685"><ele>168.0</ele><time>2026-04-26T07:57:04.289Z</time></trkpt><trkpt lat="42.4162783" lon="14.2300155"><ele>168.0</ele><time>2026-04-26T07:57:05.29Z</time></trkpt><trkpt lat="42.4163862" lon="14.2301528"><ele>168.0</ele><time>2026-04-26T07:57:06.292Z</time></trkpt><trkpt lat="42.4164732" lon="14.2302745"><ele>168.0</ele><time>2026-04-26T07:57:07.289Z</time></trkpt><trkpt lat="42.4165462" lon="14.2303815"><ele>168.0</ele><time>2026-04-26T07:57:08.29Z</time></trkpt><trkpt lat="42.4166168" lon="14.2304903"><ele>168.0</ele><time>2026-04-26T07:57:09.291Z</time></trkpt><trkpt lat="42.4166822" lon="14.2305945"><ele>168.0</ele><time>2026-04-26T07:57:10.292Z</time></trkpt><trkpt lat="42.4167467" lon="14.2307008"><ele>168.0</ele><time>2026-04-26T07:57:11.29Z</time></trkpt><trkpt lat="42.4168085" lon="14.2308093"><ele>168.0</ele><time>2026-04-26T07:57:12.291Z</time></trkpt><trkpt lat="42.41686" lon="14.2309027"><ele>168.0</ele><time>2026-04-26T07:57:13.29Z</time></trkpt><trkpt lat="42.4169037" lon="14.2309798"><ele>168.0</ele><time>2026-04-26T07:57:14.292Z</time></trkpt><trkpt lat="42.416943" lon="14.2310517"><ele>168.0</ele><time>2026-04-26T07:57:15.291Z</time></trkpt><trkpt lat="42.4170038" lon="14.2311723"><ele>168.0</ele><time>2026-04-26T07:57:17.293Z</time></trkpt><trkpt lat="42.4169413" lon="14.2312808"><ele>168.0</ele><time>2026-04-26T07:57:20.291Z</time></trkpt><trkpt lat="42.416878" lon="14.2313323"><ele>168.0</ele><time>2026-04-26T07:57:21.293Z</time></trkpt><trkpt lat="42.4167918" lon="14.2313983"><ele>167.5</ele><time>2026-04-26T07:57:22.291Z</time></trkpt><trkpt lat="42.4166927" lon="14.2314767"><ele>167.0</ele><time>2026-04-26T07:57:23.291Z</time></trkpt><trkpt lat="42.416586" lon="14.2315628"><ele>166.5</ele><time>2026-04-26T07:57:24.291Z</time></trkpt><trkpt lat="42.4164682" lon="14.2316523"><ele>166.0</ele><time>2026-04-26T07:57:25.288Z</time></trkpt><trkpt lat="42.4163442" lon="14.2317468"><ele>166.75</ele><time>2026-04-26T07:57:26.288Z</time></trkpt><trkpt lat="42.416219" lon="14.2318418"><ele>167.5</ele><time>2026-04-26T07:57:27.276Z</time></trkpt><trkpt lat="42.4160968" lon="14.2319385"><ele>168.25</ele><time>2026-04-26T07:57:28.289Z</time></trkpt><trkpt lat="42.4159833" lon="14.23203"><ele>169.0</ele><time>2026-04-26T07:57:29.29Z</time></trkpt><trkpt lat="42.4158705" lon="14.2321177"><ele>169.0</ele><time>2026-04-26T07:57:30.291Z</time></trkpt><trkpt lat="42.415759" lon="14.2322035"><ele>169.0</ele><time>2026-04-26T07:57:31.29Z</time></trkpt><trkpt lat="42.415648" lon="14.232288"><ele>169.0</ele><time>2026-04-26T07:57:32.291Z</time></trkpt><trkpt lat="42.4155345" lon="14.2323702"><ele>169.0</ele><time>2026-04-26T07:57:33.29Z</time></trkpt><trkpt lat="42.415419" lon="14.2324518"><ele>167.0</ele><time>2026-04-26T07:57:34.293Z</time></trkpt><trkpt lat="42.4153062" lon="14.2325337"><ele>165.0</ele><time>2026-04-26T07:57:35.291Z</time></trkpt><trkpt lat="42.4151978" lon="14.2326143"><ele>163.0</ele><time>2026-04-26T07:57:36.29Z</time></trkpt><trkpt lat="42.4150973" lon="14.2326842"><ele>161.0</ele><time>2026-04-26T07:57:37.29Z</time></trkpt><trkpt lat="42.415005" lon="14.2327312"><ele>161.0</ele><time>2026-04-26T07:57:38.292Z</time></trkpt><trkpt lat="42.4149173" lon="14.2327562"><ele>161.0</ele><time>2026-04-26T07:57:39.29Z</time></trkpt><trkpt lat="42.4148453" lon="14.2327697"><ele>161.0</ele><time>2026-04-26T07:57:40.29Z</time></trkpt><trkpt lat="42.4147777" lon="14.2327712"><ele>161.0</ele><time>2026-04-26T07:57:42.288Z</time></trkpt><trkpt lat="42.4148237" lon="14.2326577"><ele>161.0</ele><time>2026-04-26T07:57:46.288Z</time></trkpt><trkpt lat="42.4148722" lon="14.2325818"><ele>161.0</ele><time>2026-04-26T07:57:47.288Z</time></trkpt><trkpt lat="42.4149162" lon="14.2324812"><ele>161.0</ele><time>2026-04-26T07:57:48.29Z</time></trkpt><trkpt lat="42.4149402" lon="14.232373"><ele>161.0</ele><time>2026-04-26T07:57:49.286Z</time></trkpt><trkpt lat="42.4149448" lon="14.232265"><ele>161.0</ele><time>2026-04-26T07:57:50.285Z</time></trkpt><trkpt lat="42.4149267" lon="14.2321675"><ele>161.0</ele><time>2026-04-26T07:57:51.284Z</time></trkpt><trkpt lat="42.4148857" lon="14.2320822"><ele>161.0</ele><time>2026-04-26T07:57:52.285Z</time></trkpt><trkpt lat="42.4148268" lon="14.2319922"><ele>161.0</ele><time>2026-04-26T07:57:53.285Z</time></trkpt><trkpt lat="42.4147713" lon="14.2318937"><ele>161.0</ele><time>2026-04-26T07:57:54.287Z</time></trkpt><trkpt lat="42.4147363" lon="14.2317883"><ele>161.0</ele><time>2026-04-26T07:57:55.286Z</time></trkpt><trkpt lat="42.414715" lon="14.2316615"><ele>161.0</ele><time>2026-04-26T07:57:56.285Z</time></trkpt><trkpt lat="42.4146965" lon="14.2315167"><ele>161.0</ele><time>2026-04-26T07:57:57.287Z</time></trkpt><trkpt lat="42.4146827" lon="14.2313617"><ele>161.0</ele><time>2026-04-26T07:57:58.288Z</time></trkpt><trkpt lat="42.4146677" lon="14.2311937"><ele>161.0</ele><time>2026-04-26T07:57:59.292Z</time></trkpt><trkpt lat="42.4146562" lon="14.2310513"><ele>161.0</ele><time>2026-04-26T07:58:00.288Z</time></trkpt><trkpt lat="42.4146542" lon="14.2309352"><ele>161.0</ele><time>2026-04-26T07:58:01.289Z</time></trkpt><trkpt lat="42.4146522" lon="14.230829"><ele>161.0</ele><time>2026-04-26T07:58:02.288Z</time></trkpt><trkpt lat="42.414646" lon="14.2307098"><ele>161.0</ele><time>2026-04-26T07:58:03.287Z</time></trkpt><trkpt lat="42.4146378" lon="14.2305823"><ele>156.8</ele><time>2026-04-26T07:58:04.289Z</time></trkpt><trkpt lat="42.4146265" lon="14.2304502"><ele>152.60000000000002</ele><time>2026-04-26T07:58:05.286Z</time></trkpt><trkpt lat="42.4146072" lon="14.2303122"><ele>148.4</ele><time>2026-04-26T07:58:06.287Z</time></trkpt><trkpt lat="42.4145783" lon="14.2301725"><ele>144.2</ele><time>2026-04-26T07:58:07.284Z</time></trkpt><trkpt lat="42.41455" lon="14.2300263"><ele>140.0</ele><time>2026-04-26T07:58:08.285Z</time></trkpt><trkpt lat="42.414519" lon="14.229881"><ele>142.8</ele><time>2026-04-26T07:58:09.286Z</time></trkpt><trkpt lat="42.4144833" lon="14.2297302"><ele>145.6</ele><time>2026-04-26T07:58:10.286Z</time></trkpt><trkpt lat="42.4144407" lon="14.229594"><ele>148.4</ele><time>2026-04-26T07:58:11.285Z</time></trkpt><trkpt lat="42.4144018" lon="14.2294872"><ele>151.2</ele><time>2026-04-26T07:58:12.286Z</time></trkpt><trkpt lat="42.4143562" lon="14.229421"><ele>154.0</ele><time>2026-04-26T07:58:13.285Z</time></trkpt><trkpt lat="42.4142185" lon="14.2293795"><ele>154.0</ele><time>2026-04-26T07:58:15.285Z</time></trkpt><trkpt lat="42.4141363" lon="14.2293745"><ele>154.0</ele><time>2026-04-26T07:58:16.285Z</time></trkpt><trkpt lat="42.4140565" lon="14.2293963"><ele>154.0</ele><time>2026-04-26T07:58:17.285Z</time></trkpt><trkpt lat="42.4139692" lon="14.2294348"><ele>154.0</ele><time>2026-04-26T07:58:18.289Z</time></trkpt><trkpt lat="42.4138878" lon="14.2294798"><ele>154.0</ele><time>2026-04-26T07:58:19.289Z</time></trkpt><trkpt lat="42.4138332" lon="14.2295368"><ele>154.0</ele><time>2026-04-26T07:58:20.286Z</time></trkpt><trkpt lat="42.41381" lon="14.2296173"><ele>155.75</ele><time>2026-04-26T07:58:21.286Z</time></trkpt><trkpt lat="42.413818" lon="14.2297263"><ele>157.5</ele><time>2026-04-26T07:58:22.284Z</time></trkpt><trkpt lat="42.4138388" lon="14.2298663"><ele>159.25</ele><time>2026-04-26T07:58:23.287Z</time></trkpt><trkpt lat="42.4138628" lon="14.23004"><ele>161.0</ele><time>2026-04-26T07:58:24.286Z</time></trkpt><trkpt lat="42.4138867" lon="14.2302413"><ele>154.0</ele><time>2026-04-26T07:58:25.286Z</time></trkpt><trkpt lat="42.413904" lon="14.230442"><ele>147.0</ele><time>2026-04-26T07:58:26.285Z</time></trkpt><trkpt lat="42.4139098" lon="14.2306483"><ele>140.0</ele><time>2026-04-26T07:58:27.289Z</time></trkpt><trkpt lat="42.4139083" lon="14.2308627"><ele>139.66666666666666</ele><time>2026-04-26T07:58:28.287Z</time></trkpt><trkpt lat="42.4139078" lon="14.2310893"><ele>139.33333333333334</ele><time>2026-04-26T07:58:29.287Z</time></trkpt><trkpt lat="42.413909" lon="14.2313233"><ele>139.0</ele><time>2026-04-26T07:58:30.287Z</time></trkpt><trkpt lat="42.4139152" lon="14.2315495"><ele>137.33333333333334</ele><time>2026-04-26T07:58:31.287Z</time></trkpt><trkpt lat="42.4139192" lon="14.2317688"><ele>135.66666666666666</ele><time>2026-04-26T07:58:32.286Z</time></trkpt><trkpt lat="42.4139177" lon="14.2319808"><ele>134.0</ele><time>2026-04-26T07:58:33.286Z</time></trkpt><trkpt lat="42.4139115" lon="14.2321903"><ele>136.5</ele><time>2026-04-26T07:58:34.283Z</time></trkpt><trkpt lat="42.4139023" lon="14.2323875"><ele>139.0</ele><time>2026-04-26T07:58:35.285Z</time></trkpt><trkpt lat="42.413892" lon="14.2325567"><ele>141.5</ele><time>2026-04-26T07:58:36.288Z</time></trkpt><trkpt lat="42.4138882" lon="14.2326953"><ele>144.0</ele><time>2026-04-26T07:58:37.288Z</time></trkpt><trkpt lat="42.4138893" lon="14.2328278"><ele>144.0</ele><time>2026-04-26T07:58:38.285Z</time></trkpt><trkpt lat="42.413887" lon="14.2329685"><ele>144.0</ele><time>2026-04-26T07:58:39.286Z</time></trkpt><trkpt lat="42.4138887" lon="14.233114"><ele>144.0</ele><time>2026-04-26T07:58:40.286Z</time></trkpt><trkpt lat="42.4138982" lon="14.2332622"><ele>144.0</ele><time>2026-04-26T07:58:41.285Z</time></trkpt><trkpt lat="42.4139178" lon="14.2334085"><ele>144.0</ele><time>2026-04-26T07:58:42.288Z</time></trkpt><trkpt lat="42.413948" lon="14.2335468"><ele>145.0</ele><time>2026-04-26T07:58:43.289Z</time></trkpt><trkpt lat="42.4139862" lon="14.2336832"><ele>146.0</ele><time>2026-04-26T07:58:44.291Z</time></trkpt><trkpt lat="42.414027" lon="14.233815"><ele>147.0</ele><time>2026-04-26T07:58:45.289Z</time></trkpt><trkpt lat="42.4140693" lon="14.2339457"><ele>148.0</ele><time>2026-04-26T07:58:46.288Z</time></trkpt><trkpt lat="42.4140923" lon="14.2340853"><ele>149.0</ele><time>2026-04-26T07:58:47.288Z</time></trkpt><trkpt lat="42.4140992" lon="14.2342308"><ele>145.5</ele><time>2026-04-26T07:58:48.288Z</time></trkpt><trkpt lat="42.4141005" lon="14.2343925"><ele>142.0</ele><time>2026-04-26T07:58:49.285Z</time></trkpt><trkpt lat="42.4141018" lon="14.2345492"><ele>138.5</ele><time>2026-04-26T07:58:50.288Z</time></trkpt><trkpt lat="42.414108" lon="14.234698"><ele>135.0</ele><time>2026-04-26T07:58:51.288Z</time></trkpt><trkpt lat="42.4141107" lon="14.2348497"><ele>131.0</ele><time>2026-04-26T07:58:52.287Z</time></trkpt><trkpt lat="42.4141202" lon="14.2350208"><ele>127.0</ele><time>2026-04-26T07:58:53.286Z</time></trkpt><trkpt lat="42.4141293" lon="14.235213"><ele>123.0</ele><time>2026-04-26T07:58:54.286Z</time></trkpt><trkpt lat="42.4141397" lon="14.2354052"><ele>119.0</ele><time>2026-04-26T07:58:55.287Z</time></trkpt><trkpt lat="42.414155" lon="14.2355893"><ele>117.2</ele><time>2026-04-26T07:58:56.287Z</time></trkpt><trkpt lat="42.414177" lon="14.2357768"><ele>115.4</ele><time>2026-04-26T07:58:57.288Z</time></trkpt><trkpt lat="42.4142023" lon="14.2359473"><ele>113.6</ele><time>2026-04-26T07:58:58.287Z</time></trkpt><trkpt lat="42.4142168" lon="14.236065"><ele>111.8</ele><time>2026-04-26T07:58:59.286Z</time></trkpt><trkpt lat="42.414185" lon="14.2361443"><ele>110.0</ele><time>2026-04-26T07:59:05.285Z</time></trkpt><trkpt lat="42.4141123" lon="14.2361117"><ele>109.99999999999999</ele><time>2026-04-26T07:59:08.288Z</time></trkpt><trkpt lat="42.4140373" lon="14.2360135"><ele>110.0</ele><time>2026-04-26T07:59:10.287Z</time></trkpt><trkpt lat="42.4139918" lon="14.2359398"><ele>110.0</ele><time>2026-04-26T07:59:11.287Z</time></trkpt><trkpt lat="42.4139437" lon="14.235858"><ele>110.0</ele><time>2026-04-26T07:59:12.288Z</time></trkpt><trkpt lat="42.4138945" lon="14.2357782"><ele>109.99999999999999</ele><time>2026-04-26T07:59:13.286Z</time></trkpt><trkpt lat="42.4138487" lon="14.235703"><ele>110.0</ele><time>2026-04-26T07:59:14.285Z</time></trkpt><trkpt lat="42.4137475" lon="14.2356203"><ele>107.83333333333333</ele><time>2026-04-26T07:59:16.285Z</time></trkpt><trkpt lat="42.4136822" lon="14.2356128"><ele>105.66666666666666</ele><time>2026-04-26T07:59:17.286Z</time></trkpt><trkpt lat="42.4136138" lon="14.2355927"><ele>103.5</ele><time>2026-04-26T07:59:18.286Z</time></trkpt><trkpt lat="42.4135547" lon="14.235533"><ele>101.33333333333334</ele><time>2026-04-26T07:59:19.285Z</time></trkpt><trkpt lat="42.4134948" lon="14.2354458"><ele>99.16666666666667</ele><time>2026-04-26T07:59:20.284Z</time></trkpt><trkpt lat="42.4134388" lon="14.235372"><ele>97.0</ele><time>2026-04-26T07:59:21.285Z</time></trkpt><trkpt lat="42.4133492" lon="14.2352938"><ele>97.0</ele><time>2026-04-26T07:59:23.285Z</time></trkpt><trkpt lat="42.4132423" lon="14.2352328"><ele>97.0</ele><time>2026-04-26T07:59:25.285Z</time></trkpt><trkpt lat="42.4131428" lon="14.2351963"><ele>97.0</ele><time>2026-04-26T07:59:27.285Z</time></trkpt><trkpt lat="42.4130553" lon="14.2352288"><ele>97.0</ele><time>2026-04-26T07:59:29.283Z</time></trkpt><trkpt lat="42.4129877" lon="14.2352613"><ele>97.0</ele><time>2026-04-26T07:59:30.285Z</time></trkpt><trkpt lat="42.4129158" lon="14.2352982"><ele>93.39999999999999</ele><time>2026-04-26T07:59:31.285Z</time></trkpt><trkpt lat="42.412848" lon="14.2353343"><ele>89.8</ele><time>2026-04-26T07:59:32.286Z</time></trkpt><trkpt lat="42.4127858" lon="14.2354227"><ele>86.2</ele><time>2026-04-26T07:59:34.287Z</time></trkpt><trkpt lat="42.412814" lon="14.235575"><ele>82.6</ele><time>2026-04-26T07:59:36.287Z</time></trkpt><trkpt lat="42.4128445" lon="14.2356865"><ele>79.0</ele><time>2026-04-26T07:59:37.286Z</time></trkpt><trkpt lat="42.4128798" lon="14.2358118"><ele>78.2</ele><time>2026-04-26T07:59:38.286Z</time></trkpt><trkpt lat="42.4129222" lon="14.2359365"><ele>77.4</ele><time>2026-04-26T07:59:39.288Z</time></trkpt><trkpt lat="42.4129723" lon="14.2360577"><ele>76.6</ele><time>2026-04-26T07:59:40.288Z</time></trkpt><trkpt lat="42.4130282" lon="14.2361772"><ele>75.8</ele><time>2026-04-26T07:59:41.287Z</time></trkpt><trkpt lat="42.4130803" lon="14.2362828"><ele>75.0</ele><time>2026-04-26T07:59:42.287Z</time></trkpt><trkpt lat="42.413137" lon="14.2363748"><ele>75.16666666666667</ele><time>2026-04-26T07:59:43.289Z</time></trkpt><trkpt lat="42.4131973" lon="14.2364545"><ele>75.33333333333333</ele><time>2026-04-26T07:59:44.286Z</time></trkpt><trkpt lat="42.413255" lon="14.2365187"><ele>75.5</ele><time>2026-04-26T07:59:45.286Z</time></trkpt><trkpt lat="42.4133148" lon="14.2365788"><ele>75.66666666666666</ele><time>2026-04-26T07:59:46.286Z</time></trkpt><trkpt lat="42.4133767" lon="14.2366532"><ele>75.83333333333333</ele><time>2026-04-26T07:59:47.286Z</time></trkpt><trkpt lat="42.4134305" lon="14.2367425"><ele>76.0</ele><time>2026-04-26T07:59:48.288Z</time></trkpt><trkpt lat="42.4134805" lon="14.236849"><ele>76.0</ele><time>2026-04-26T07:59:49.287Z</time></trkpt><trkpt lat="42.413534" lon="14.2369627"><ele>76.0</ele><time>2026-04-26T07:59:50.285Z</time></trkpt><trkpt lat="42.413591" lon="14.237084"><ele>76.0</ele><time>2026-04-26T07:59:51.286Z</time></trkpt><trkpt lat="42.413647" lon="14.23721"><ele>76.0</ele><time>2026-04-26T07:59:52.285Z</time></trkpt><trkpt lat="42.4137035" lon="14.2373415"><ele>76.0</ele><time>2026-04-26T07:59:53.285Z</time></trkpt><trkpt lat="42.4137557" lon="14.2374772"><ele>74.6</ele><time>2026-04-26T07:59:54.284Z</time></trkpt><trkpt lat="42.4137993" lon="14.2376223"><ele>73.19999999999999</ele><time>2026-04-26T07:59:55.284Z</time></trkpt><trkpt lat="42.4138333" lon="14.2377687"><ele>71.80000000000001</ele><time>2026-04-26T07:59:56.286Z</time></trkpt><trkpt lat="42.4138662" lon="14.237901"><ele>70.4</ele><time>2026-04-26T07:59:57.287Z</time></trkpt><trkpt lat="42.4139028" lon="14.2380193"><ele>69.0</ele><time>2026-04-26T07:59:58.287Z</time></trkpt><trkpt lat="42.4139422" lon="14.2381397"><ele>71.83333333333333</ele><time>2026-04-26T07:59:59.291Z</time></trkpt><trkpt lat="42.4139693" lon="14.2382532"><ele>74.66666666666667</ele><time>2026-04-26T08:00:00.285Z</time></trkpt><trkpt lat="42.413951" lon="14.2383412"><ele>77.5</ele><time>2026-04-26T08:00:09.286Z</time></trkpt><trkpt lat="42.4139523" lon="14.2384708"><ele>80.33333333333334</ele><time>2026-04-26T08:00:12.286Z</time></trkpt><trkpt lat="42.413951" lon="14.2385563"><ele>83.16666666666667</ele><time>2026-04-26T08:00:13.287Z</time></trkpt><trkpt lat="42.413959" lon="14.238644"><ele>86.0</ele><time>2026-04-26T08:00:14.285Z</time></trkpt><trkpt lat="42.4139972" lon="14.238793"><ele>86.00000000000001</ele><time>2026-04-26T08:00:16.283Z</time></trkpt><trkpt lat="42.4140093" lon="14.2388863"><ele>86.0</ele><time>2026-04-26T08:00:17.282Z</time></trkpt><trkpt lat="42.414018" lon="14.2389753"><ele>86.0</ele><time>2026-04-26T08:00:18.283Z</time></trkpt><trkpt lat="42.4140392" lon="14.2390635"><ele>86.0</ele><time>2026-04-26T08:00:19.283Z</time></trkpt><trkpt lat="42.4140793" lon="14.239144"><ele>86.0</ele><time>2026-04-26T08:00:20.283Z</time></trkpt><trkpt lat="42.4141415" lon="14.2392132"><ele>86.00000000000001</ele><time>2026-04-26T08:00:21.285Z</time></trkpt><trkpt lat="42.4142022" lon="14.239277"><ele>86.0</ele><time>2026-04-26T08:00:22.285Z</time></trkpt><trkpt lat="42.4142572" lon="14.2393565"><ele>85.16666666666667</ele><time>2026-04-26T08:00:23.285Z</time></trkpt><trkpt lat="42.4142737" lon="14.2394567"><ele>84.33333333333334</ele><time>2026-04-26T08:00:24.286Z</time></trkpt><trkpt lat="42.4142697" lon="14.2395758"><ele>83.5</ele><time>2026-04-26T08:00:25.285Z</time></trkpt><trkpt lat="42.4142575" lon="14.2397135"><ele>82.66666666666667</ele><time>2026-04-26T08:00:26.285Z</time></trkpt><trkpt lat="42.4142532" lon="14.2398412"><ele>81.83333333333333</ele><time>2026-04-26T08:00:27.286Z</time></trkpt><trkpt lat="42.4142675" lon="14.2399422"><ele>81.0</ele><time>2026-04-26T08:00:28.286Z</time></trkpt><trkpt lat="42.4143045" lon="14.240032"><ele>79.6</ele><time>2026-04-26T08:00:29.285Z</time></trkpt><trkpt lat="42.4143662" lon="14.2401427"><ele>78.19999999999999</ele><time>2026-04-26T08:00:30.286Z</time></trkpt><trkpt lat="42.4144353" lon="14.2402748"><ele>76.80000000000001</ele><time>2026-04-26T08:00:31.288Z</time></trkpt><trkpt lat="42.414509" lon="14.2403957"><ele>75.4</ele><time>2026-04-26T08:00:32.285Z</time></trkpt><trkpt lat="42.4145797" lon="14.2405105"><ele>74.0</ele><time>2026-04-26T08:00:33.284Z</time></trkpt><trkpt lat="42.4146243" lon="14.2406357"><ele>72.66666666666667</ele><time>2026-04-26T08:00:34.284Z</time></trkpt><trkpt lat="42.4146542" lon="14.2407732"><ele>71.33333333333334</ele><time>2026-04-26T08:00:35.286Z</time></trkpt><trkpt lat="42.4146733" lon="14.2409005"><ele>70.0</ele><time>2026-04-26T08:00:36.286Z</time></trkpt><trkpt lat="42.4147033" lon="14.241006"><ele>68.66666666666667</ele><time>2026-04-26T08:00:37.284Z</time></trkpt><trkpt lat="42.4147375" lon="14.2410958"><ele>67.33333333333333</ele><time>2026-04-26T08:00:38.285Z</time></trkpt><trkpt lat="42.4147823" lon="14.241178"><ele>66.0</ele><time>2026-04-26T08:00:39.285Z</time></trkpt><trkpt lat="42.4148427" lon="14.241255"><ele>66.25</ele><time>2026-04-26T08:00:40.285Z</time></trkpt><trkpt lat="42.4149217" lon="14.2413485"><ele>66.5</ele><time>2026-04-26T08:00:41.283Z</time></trkpt><trkpt lat="42.4150097" lon="14.2414602"><ele>66.75</ele><time>2026-04-26T08:00:42.283Z</time></trkpt><trkpt lat="42.4151073" lon="14.241573"><ele>67.0</ele><time>2026-04-26T08:00:43.283Z</time></trkpt><trkpt lat="42.4151932" lon="14.2416802"><ele>67.0</ele><time>2026-04-26T08:00:44.283Z</time></trkpt><trkpt lat="42.4152705" lon="14.241795"><ele>67.0</ele><time>2026-04-26T08:00:45.285Z</time></trkpt><trkpt lat="42.4153328" lon="14.2419223"><ele>67.0</ele><time>2026-04-26T08:00:46.288Z</time></trkpt><trkpt lat="42.4153905" lon="14.2420533"><ele>67.0</ele><time>2026-04-26T08:00:47.285Z</time></trkpt><trkpt lat="42.4154395" lon="14.242207"><ele>68.75</ele><time>2026-04-26T08:00:48.286Z</time></trkpt><trkpt lat="42.415478" lon="14.2423628"><ele>70.5</ele><time>2026-04-26T08:00:49.286Z</time></trkpt><trkpt lat="42.4155117" lon="14.2425085"><ele>72.25</ele><time>2026-04-26T08:00:50.285Z</time></trkpt><trkpt lat="42.4155562" lon="14.2426458"><ele>74.0</ele><time>2026-04-26T08:00:51.285Z</time></trkpt><trkpt lat="42.415605" lon="14.2427758"><ele>74.0</ele><time>2026-04-26T08:00:52.285Z</time></trkpt><trkpt lat="42.4156448" lon="14.2428915"><ele>74.0</ele><time>2026-04-26T08:00:53.286Z</time></trkpt><trkpt lat="42.4156807" lon="14.2429722"><ele>74.0</ele><time>2026-04-26T08:00:54.286Z</time></trkpt><trkpt lat="42.4157547" lon="14.2430635"><ele>74.0</ele><time>2026-04-26T08:00:56.287Z</time></trkpt><trkpt lat="42.4158265" lon="14.2430618"><ele>74.0</ele><time>2026-04-26T08:00:58.286Z</time></trkpt><trkpt lat="42.4159475" lon="14.2430563"><ele>74.0</ele><time>2026-04-26T08:01:00.289Z</time></trkpt><trkpt lat="42.4160208" lon="14.2430948"><ele>74.0</ele><time>2026-04-26T08:01:01.288Z</time></trkpt><trkpt lat="42.4160958" lon="14.2431507"><ele>74.0</ele><time>2026-04-26T08:01:02.288Z</time></trkpt><trkpt lat="42.4161797" lon="14.2431978"><ele>74.0</ele><time>2026-04-26T08:01:03.288Z</time></trkpt><trkpt lat="42.4162705" lon="14.2432388"><ele>74.0</ele><time>2026-04-26T08:01:04.287Z</time></trkpt><trkpt lat="42.416371" lon="14.2432855"><ele>75.0</ele><time>2026-04-26T08:01:05.283Z</time></trkpt><trkpt lat="42.4164657" lon="14.2433367"><ele>76.0</ele><time>2026-04-26T08:01:06.284Z</time></trkpt><trkpt lat="42.4165548" lon="14.2434057"><ele>77.0</ele><time>2026-04-26T08:01:07.284Z</time></trkpt><trkpt lat="42.4166335" lon="14.2434972"><ele>78.0</ele><time>2026-04-26T08:01:08.284Z</time></trkpt><trkpt lat="42.4167035" lon="14.2436052"><ele>79.0</ele><time>2026-04-26T08:01:09.285Z</time></trkpt><trkpt lat="42.4167635" lon="14.2437158"><ele>79.0</ele><time>2026-04-26T08:01:10.286Z</time></trkpt><trkpt lat="42.4168163" lon="14.2438457"><ele>79.0</ele><time>2026-04-26T08:01:11.287Z</time></trkpt><trkpt lat="42.4168748" lon="14.2439618"><ele>79.0</ele><time>2026-04-26T08:01:12.286Z</time></trkpt><trkpt lat="42.4169275" lon="14.2440645"><ele>79.0</ele><time>2026-04-26T08:01:13.285Z</time></trkpt><trkpt lat="42.4169718" lon="14.2441402"><ele>79.0</ele><time>2026-04-26T08:01:14.284Z</time></trkpt><trkpt lat="42.416992" lon="14.2442315"><ele>79.0</ele><time>2026-04-26T08:01:18.285Z</time></trkpt><trkpt lat="42.41703" lon="14.2443037"><ele>79.6</ele><time>2026-04-26T08:01:29.285Z</time></trkpt><trkpt lat="42.4170327" lon="14.2441957"><ele>80.2</ele><time>2026-04-26T08:01:37.286Z</time></trkpt><trkpt lat="42.417094" lon="14.2441227"><ele>80.8</ele><time>2026-04-26T08:01:39.284Z</time></trkpt><trkpt lat="42.4171958" lon="14.2439877"><ele>81.39999999999999</ele><time>2026-04-26T08:01:41.28Z</time></trkpt><trkpt lat="42.417243" lon="14.2438775"><ele>82.0</ele><time>2026-04-26T08:01:42.283Z</time></trkpt><trkpt lat="42.4173135" lon="14.2438282"><ele>83.66666666666666</ele><time>2026-04-26T08:01:43.283Z</time></trkpt><trkpt lat="42.4173748" lon="14.2437868"><ele>85.33333333333333</ele><time>2026-04-26T08:01:44.284Z</time></trkpt><trkpt lat="42.4174578" lon="14.2436873"><ele>87.0</ele><time>2026-04-26T08:01:46.283Z</time></trkpt><trkpt lat="42.4175107" lon="14.2435777"><ele>88.66666666666667</ele><time>2026-04-26T08:01:48.293Z</time></trkpt><trkpt lat="42.417604" lon="14.243551"><ele>90.33333333333334</ele><time>2026-04-26T08:01:50.283Z</time></trkpt><trkpt lat="42.417681" lon="14.2435412"><ele>92.0</ele><time>2026-04-26T08:01:51.284Z</time></trkpt><trkpt lat="42.4177717" lon="14.2435193"><ele>92.0</ele><time>2026-04-26T08:01:52.284Z</time></trkpt><trkpt lat="42.417866" lon="14.2434993"><ele>92.0</ele><time>2026-04-26T08:01:53.284Z</time></trkpt><trkpt lat="42.4179572" lon="14.2435088"><ele>92.0</ele><time>2026-04-26T08:01:54.284Z</time></trkpt><trkpt lat="42.4180392" lon="14.2435477"><ele>92.0</ele><time>2026-04-26T08:01:55.282Z</time></trkpt><trkpt lat="42.4181087" lon="14.2436205"><ele>92.0</ele><time>2026-04-26T08:01:56.282Z</time></trkpt><trkpt lat="42.4181585" lon="14.2437107"><ele>92.0</ele><time>2026-04-26T08:01:57.284Z</time></trkpt><trkpt lat="42.4182083" lon="14.243806"><ele>94.19999999999999</ele><time>2026-04-26T08:01:58.282Z</time></trkpt><trkpt lat="42.418252" lon="14.243896"><ele>96.4</ele><time>2026-04-26T08:01:59.283Z</time></trkpt><trkpt lat="42.4182975" lon="14.2439788"><ele>98.6</ele><time>2026-04-26T08:02:00.286Z</time></trkpt><trkpt lat="42.4183782" lon="14.2440605"><ele>100.80000000000001</ele><time>2026-04-26T08:02:02.287Z</time></trkpt><trkpt lat="42.4185047" lon="14.2441093"><ele>103.0</ele><time>2026-04-26T08:02:04.286Z</time></trkpt><trkpt lat="42.4185857" lon="14.2441483"><ele>103.00000000000001</ele><time>2026-04-26T08:02:05.286Z</time></trkpt><trkpt lat="42.4186703" lon="14.2441945"><ele>103.0</ele><time>2026-04-26T08:02:06.287Z</time></trkpt><trkpt lat="42.4187453" lon="14.2442288"><ele>103.0</ele><time>2026-04-26T08:02:07.286Z</time></trkpt><trkpt lat="42.4188077" lon="14.2442603"><ele>103.0</ele><time>2026-04-26T08:02:08.288Z</time></trkpt><trkpt lat="42.418894" lon="14.2443045"><ele>103.00000000000001</ele><time>2026-04-26T08:02:10.287Z</time></trkpt><trkpt lat="42.4189303" lon="14.244416"><ele>103.0</ele><time>2026-04-26T08:02:12.286Z</time></trkpt><trkpt lat="42.4189397" lon="14.2445258"><ele>104.16666666666667</ele><time>2026-04-26T08:02:13.284Z</time></trkpt><trkpt lat="42.4189492" lon="14.2446397"><ele>105.33333333333334</ele><time>2026-04-26T08:02:14.285Z</time></trkpt><trkpt lat="42.4189608" lon="14.2447248"><ele>106.5</ele><time>2026-04-26T08:02:15.287Z</time></trkpt><trkpt lat="42.4190572" lon="14.2446792"><ele>107.66666666666666</ele><time>2026-04-26T08:02:18.285Z</time></trkpt><trkpt lat="42.4191042" lon="14.2445907"><ele>108.83333333333333</ele><time>2026-04-26T08:02:19.284Z</time></trkpt><trkpt lat="42.4191622" lon="14.2445202"><ele>110.0</ele><time>2026-04-26T08:02:20.283Z</time></trkpt><trkpt lat="42.4192208" lon="14.2444858"><ele>110.0</ele><time>2026-04-26T08:02:21.285Z</time></trkpt><trkpt lat="42.4193053" lon="14.2445312"><ele>110.0</ele><time>2026-04-26T08:02:23.286Z</time></trkpt><trkpt lat="42.4193712" lon="14.2447022"><ele>110.0</ele><time>2026-04-26T08:02:25.286Z</time></trkpt><trkpt lat="42.419403" lon="14.2448408"><ele>110.0</ele><time>2026-04-26T08:02:26.285Z</time></trkpt><trkpt lat="42.419447" lon="14.2450052"><ele>107.0</ele><time>2026-04-26T08:02:27.288Z</time></trkpt><trkpt lat="42.419503" lon="14.2451927"><ele>104.0</ele><time>2026-04-26T08:02:28.285Z</time></trkpt><trkpt lat="42.419559" lon="14.2453932"><ele>101.0</ele><time>2026-04-26T08:02:29.286Z</time></trkpt><trkpt lat="42.4196202" lon="14.245602"><ele>105.33333333333333</ele><time>2026-04-26T08:02:30.285Z</time></trkpt><trkpt lat="42.4196828" lon="14.2458132"><ele>109.66666666666666</ele><time>2026-04-26T08:02:31.286Z</time></trkpt><trkpt lat="42.4197455" lon="14.2460288"><ele>114.0</ele><time>2026-04-26T08:02:32.285Z</time></trkpt><trkpt lat="42.4198023" lon="14.2462322"><ele>114.0</ele><time>2026-04-26T08:02:33.285Z</time></trkpt><trkpt lat="42.4198487" lon="14.2463987"><ele>114.0</ele><time>2026-04-26T08:02:34.286Z</time></trkpt><trkpt lat="42.4198837" lon="14.246512"><ele>114.0</ele><time>2026-04-26T08:02:35.286Z</time></trkpt><trkpt lat="42.4199182" lon="14.2466252"><ele>114.0</ele><time>2026-04-26T08:02:37.286Z</time></trkpt><trkpt lat="42.4199473" lon="14.2467768"><ele>114.0</ele><time>2026-04-26T08:02:40.291Z</time></trkpt><trkpt lat="42.4199463" lon="14.2468903"><ele>114.25</ele><time>2026-04-26T08:02:41.287Z</time></trkpt><trkpt lat="42.419944" lon="14.2470395"><ele>114.5</ele><time>2026-04-26T08:02:42.288Z</time></trkpt><trkpt lat="42.4199505" lon="14.24721"><ele>114.75</ele><time>2026-04-26T08:02:43.298Z</time></trkpt><trkpt lat="42.4199665" lon="14.2473973"><ele>115.0</ele><time>2026-04-26T08:02:44.287Z</time></trkpt><trkpt lat="42.4199912" lon="14.2475968"><ele>113.66666666666667</ele><time>2026-04-26T08:02:45.286Z</time></trkpt><trkpt lat="42.4200212" lon="14.2478045"><ele>112.33333333333334</ele><time>2026-04-26T08:02:46.285Z</time></trkpt><trkpt lat="42.4200537" lon="14.2480082"><ele>111.0</ele><time>2026-04-26T08:02:47.289Z</time></trkpt><trkpt lat="42.4200863" lon="14.2481972"><ele>109.8</ele><time>2026-04-26T08:02:48.288Z</time></trkpt><trkpt lat="42.4201168" lon="14.2483688"><ele>108.6</ele><time>2026-04-26T08:02:49.288Z</time></trkpt><trkpt lat="42.420143" lon="14.248519"><ele>107.4</ele><time>2026-04-26T08:02:50.289Z</time></trkpt><trkpt lat="42.4201673" lon="14.248633"><ele>106.2</ele><time>2026-04-26T08:02:51.292Z</time></trkpt><trkpt lat="42.4201897" lon="14.2487148"><ele>105.0</ele><time>2026-04-26T08:02:52.289Z</time></trkpt><trkpt lat="42.4201935" lon="14.2488073"><ele>105.0</ele><time>2026-04-26T08:02:54.288Z</time></trkpt><trkpt lat="42.4201083" lon="14.2489127"><ele>105.0</ele><time>2026-04-26T08:02:57.291Z</time></trkpt><trkpt lat="42.4200398" lon="14.24898"><ele>105.0</ele><time>2026-04-26T08:02:58.289Z</time></trkpt><trkpt lat="42.4199683" lon="14.2490535"><ele>105.0</ele><time>2026-04-26T08:02:59.289Z</time></trkpt><trkpt lat="42.419895" lon="14.2491242"><ele>105.0</ele><time>2026-04-26T08:03:00.288Z</time></trkpt><trkpt lat="42.4198252" lon="14.2491942"><ele>104.0</ele><time>2026-04-26T08:03:01.289Z</time></trkpt><trkpt lat="42.4197628" lon="14.24926"><ele>103.0</ele><time>2026-04-26T08:03:02.289Z</time></trkpt><trkpt lat="42.4197122" lon="14.2493135"><ele>102.0</ele><time>2026-04-26T08:03:03.289Z</time></trkpt><trkpt lat="42.419627" lon="14.2494538"><ele>101.0</ele><time>2026-04-26T08:03:05.287Z</time></trkpt><trkpt lat="42.4195853" lon="14.2495525"><ele>100.0</ele><time>2026-04-26T08:03:06.288Z</time></trkpt><trkpt lat="42.4195495" lon="14.2496417"><ele>99.0</ele><time>2026-04-26T08:03:07.287Z</time></trkpt><trkpt lat="42.4195127" lon="14.2497157"><ele>96.85714285714286</ele><time>2026-04-26T08:03:08.29Z</time></trkpt><trkpt lat="42.419474" lon="14.2497915"><ele>94.71428571428571</ele><time>2026-04-26T08:03:09.289Z</time></trkpt><trkpt lat="42.4194358" lon="14.249866"><ele>92.57142857142857</ele><time>2026-04-26T08:03:10.286Z</time></trkpt><trkpt lat="42.419384" lon="14.2499518"><ele>90.42857142857143</ele><time>2026-04-26T08:03:12.286Z</time></trkpt><trkpt lat="42.419342" lon="14.2500528"><ele>88.28571428571428</ele><time>2026-04-26T08:03:14.287Z</time></trkpt><trkpt lat="42.419335" lon="14.250148"><ele>86.14285714285714</ele><time>2026-04-26T08:03:17.286Z</time></trkpt><trkpt lat="42.4193275" lon="14.2500518"><ele>84.0</ele><time>2026-04-26T08:03:24.287Z</time></trkpt><trkpt lat="42.4193712" lon="14.2499583"><ele>84.0</ele><time>2026-04-26T08:03:26.285Z</time></trkpt><trkpt lat="42.4194197" lon="14.2498713"><ele>84.0</ele><time>2026-04-26T08:03:28.288Z</time></trkpt><trkpt lat="42.4194847" lon="14.2497458"><ele>84.0</ele><time>2026-04-26T08:03:30.287Z</time></trkpt><trkpt lat="42.4195508" lon="14.2496062"><ele>84.0</ele><time>2026-04-26T08:03:32.283Z</time></trkpt><trkpt lat="42.4196167" lon="14.2494635"><ele>84.0</ele><time>2026-04-26T08:03:34.284Z</time></trkpt><trkpt lat="42.4196335" lon="14.249346"><ele>84.0</ele><time>2026-04-26T08:03:36.286Z</time></trkpt><trkpt lat="42.4195667" lon="14.249293"><ele>84.0</ele><time>2026-04-26T08:03:38.286Z</time></trkpt><trkpt lat="42.4194533" lon="14.2492505"><ele>84.0</ele><time>2026-04-26T08:03:40.287Z</time></trkpt><trkpt lat="42.4193908" lon="14.249227"><ele>84.0</ele><time>2026-04-26T08:03:41.286Z</time></trkpt><trkpt lat="42.4193238" lon="14.2492025"><ele>84.0</ele><time>2026-04-26T08:03:42.287Z</time></trkpt><trkpt lat="42.419257" lon="14.2491803"><ele>84.0</ele><time>2026-04-26T08:03:43.286Z</time></trkpt><trkpt lat="42.4191852" lon="14.2491647"><ele>84.0</ele><time>2026-04-26T08:03:44.284Z</time></trkpt><trkpt lat="42.4191065" lon="14.2491487"><ele>84.0</ele><time>2026-04-26T08:03:45.286Z</time></trkpt><trkpt lat="42.4190242" lon="14.249128"><ele>84.0</ele><time>2026-04-26T08:03:46.288Z</time></trkpt><trkpt lat="42.418935" lon="14.2491072"><ele>84.0</ele><time>2026-04-26T08:03:47.287Z</time></trkpt><trkpt lat="42.4188423" lon="14.2490855"><ele>84.0</ele><time>2026-04-26T08:03:48.288Z</time></trkpt><trkpt lat="42.4187502" lon="14.2490642"><ele>84.0</ele><time>2026-04-26T08:03:49.286Z</time></trkpt><trkpt lat="42.4186592" lon="14.249043"><ele>81.2</ele><time>2026-04-26T08:03:50.288Z</time></trkpt><trkpt lat="42.418572" lon="14.2490185"><ele>78.4</ele><time>2026-04-26T08:03:51.285Z</time></trkpt><trkpt lat="42.4184883" lon="14.2490042"><ele>75.6</ele><time>2026-04-26T08:03:52.286Z</time></trkpt><trkpt lat="42.4183995" lon="14.2489985"><ele>72.8</ele><time>2026-04-26T08:03:53.284Z</time></trkpt><trkpt lat="42.4182938" lon="14.2489973"><ele>70.0</ele><time>2026-04-26T08:03:54.283Z</time></trkpt><trkpt lat="42.4181573" lon="14.2489902"><ele>65.75</ele><time>2026-04-26T08:03:55.276Z</time></trkpt><trkpt lat="42.4179658" lon="14.2489392"><ele>61.5</ele><time>2026-04-26T08:03:56.891Z</time></trkpt><trkpt lat="42.4178692" lon="14.2488535"><ele>57.25</ele><time>2026-04-26T08:03:59.283Z</time></trkpt><trkpt lat="42.4178185" lon="14.2487935"><ele>53.0</ele><time>2026-04-26T08:04:00.285Z</time></trkpt><trkpt lat="42.4177658" lon="14.248726"><ele>53.00000000000001</ele><time>2026-04-26T08:04:02.285Z</time></trkpt><trkpt lat="42.417664" lon="14.2486663"><ele>53.0</ele><time>2026-04-26T08:04:09.287Z</time></trkpt><trkpt lat="42.4175955" lon="14.248633"><ele>53.0</ele><time>2026-04-26T08:04:10.29Z</time></trkpt><trkpt lat="42.4175165" lon="14.2485982"><ele>53.0</ele><time>2026-04-26T08:04:11.287Z</time></trkpt><trkpt lat="42.4174348" lon="14.2485593"><ele>53.00000000000001</ele><time>2026-04-26T08:04:12.288Z</time></trkpt><trkpt lat="42.4173637" lon="14.2485073"><ele>53.0</ele><time>2026-04-26T08:04:13.289Z</time></trkpt><trkpt lat="42.4173053" lon="14.2484268"><ele>53.0</ele><time>2026-04-26T08:04:14.288Z</time></trkpt><trkpt lat="42.417266" lon="14.2483318"><ele>53.0</ele><time>2026-04-26T08:04:15.287Z</time></trkpt><trkpt lat="42.4172502" lon="14.2482367"><ele>53.0</ele><time>2026-04-26T08:04:16.29Z</time></trkpt><trkpt lat="42.4172525" lon="14.2481365"><ele>53.0</ele><time>2026-04-26T08:04:17.286Z</time></trkpt><trkpt lat="42.4172578" lon="14.2480462"><ele>53.0</ele><time>2026-04-26T08:04:18.289Z</time></trkpt><trkpt lat="42.4172417" lon="14.2479617"><ele>53.0</ele><time>2026-04-26T08:04:20.288Z</time></trkpt><trkpt lat="42.417164" lon="14.2479387"><ele>53.0</ele><time>2026-04-26T08:04:23.285Z</time></trkpt><trkpt lat="42.4170538" lon="14.247917"><ele>51.0</ele><time>2026-04-26T08:04:25.286Z</time></trkpt><trkpt lat="42.4169333" lon="14.2478852"><ele>49.0</ele><time>2026-04-26T08:04:27.286Z</time></trkpt><trkpt lat="42.4168347" lon="14.2478617"><ele>47.0</ele><time>2026-04-26T08:04:29.287Z</time></trkpt><trkpt lat="42.4167468" lon="14.247832"><ele>45.0</ele><time>2026-04-26T08:04:31.288Z</time></trkpt><trkpt lat="42.4166518" lon="14.2478317"><ele>43.0</ele><time>2026-04-26T08:04:33.286Z</time></trkpt><trkpt lat="42.4165402" lon="14.2478407"><ele>43.0</ele><time>2026-04-26T08:04:35.287Z</time></trkpt><trkpt lat="42.4164523" lon="14.2479462"><ele>43.0</ele><time>2026-04-26T08:04:37.285Z</time></trkpt><trkpt lat="42.4163917" lon="14.248034"><ele>43.0</ele><time>2026-04-26T08:04:38.286Z</time></trkpt><trkpt lat="42.4163175" lon="14.2481352"><ele>43.0</ele><time>2026-04-26T08:04:39.286Z</time></trkpt><trkpt lat="42.4162378" lon="14.2482457"><ele>43.0</ele><time>2026-04-26T08:04:40.287Z</time></trkpt><trkpt lat="42.4161517" lon="14.2483562"><ele>45.75</ele><time>2026-04-26T08:04:41.287Z</time></trkpt><trkpt lat="42.4160608" lon="14.2484667"><ele>48.5</ele><time>2026-04-26T08:04:42.285Z</time></trkpt><trkpt lat="42.4159645" lon="14.2485805"><ele>51.25</ele><time>2026-04-26T08:04:43.286Z</time></trkpt><trkpt lat="42.415865" lon="14.2486918"><ele>54.0</ele><time>2026-04-26T08:04:44.287Z</time></trkpt><trkpt lat="42.4157657" lon="14.2487945"><ele>54.0</ele><time>2026-04-26T08:04:45.287Z</time></trkpt><trkpt lat="42.4156697" lon="14.2488888"><ele>54.0</ele><time>2026-04-26T08:04:46.284Z</time></trkpt><trkpt lat="42.4155807" lon="14.2489825"><ele>54.0</ele><time>2026-04-26T08:04:47.287Z</time></trkpt><trkpt lat="42.4154957" lon="14.2490822"><ele>54.0</ele><time>2026-04-26T08:04:48.284Z</time></trkpt><trkpt lat="42.41542" lon="14.249193"><ele>58.400000000000006</ele><time>2026-04-26T08:04:49.284Z</time></trkpt><trkpt lat="42.4153568" lon="14.249307"><ele>62.800000000000004</ele><time>2026-04-26T08:04:50.287Z</time></trkpt><trkpt lat="42.4152946" lon="14.2494129"><ele>67.19999999999999</ele><time>2026-04-26T08:04:51.288Z</time></trkpt><trkpt lat="42.4152283" lon="14.2495077"><ele>71.6</ele><time>2026-04-26T08:04:52.288Z</time></trkpt><trkpt lat="42.4151623" lon="14.2495944"><ele>76.0</ele><time>2026-04-26T08:04:53.29Z</time></trkpt><trkpt lat="42.4150947" lon="14.2496696"><ele>76.0</ele><time>2026-04-26T08:04:54.287Z</time></trkpt><trkpt lat="42.415018" lon="14.249731"><ele>76.0</ele><time>2026-04-26T08:04:55.289Z</time></trkpt><trkpt lat="42.4149361" lon="14.249791"><ele>76.0</ele><time>2026-04-26T08:04:56.286Z</time></trkpt><trkpt lat="42.4148508" lon="14.2498565"><ele>76.0</ele><time>2026-04-26T08:04:57.287Z</time></trkpt><trkpt lat="42.4147674" lon="14.2499253"><ele>76.0</ele><time>2026-04-26T08:04:58.288Z</time></trkpt><trkpt lat="42.414683" lon="14.2499986"><ele>78.0</ele><time>2026-04-26T08:04:59.288Z</time></trkpt><trkpt lat="42.414598" lon="14.2500781"><ele>80.0</ele><time>2026-04-26T08:05:00.286Z</time></trkpt><trkpt lat="42.4145179" lon="14.2501584"><ele>82.0</ele><time>2026-04-26T08:05:01.286Z</time></trkpt><trkpt lat="42.4144389" lon="14.2502358"><ele>84.0</ele><time>2026-04-26T08:05:02.287Z</time></trkpt><trkpt lat="42.4143712" lon="14.2502897"><ele>86.0</ele><time>2026-04-26T08:05:03.286Z</time></trkpt><trkpt lat="42.4142662" lon="14.2502619"><ele>86.0</ele><time>2026-04-26T08:05:05.288Z</time></trkpt><trkpt lat="42.4142295" lon="14.2501925"><ele>86.0</ele><time>2026-04-26T08:05:06.29Z</time></trkpt><trkpt lat="42.4141894" lon="14.2501114"><ele>86.0</ele><time>2026-04-26T08:05:07.289Z</time></trkpt><trkpt lat="42.4141345" lon="14.2500348"><ele>86.0</ele><time>2026-04-26T08:05:08.288Z</time></trkpt><trkpt lat="42.4140685" lon="14.2499665"><ele>86.0</ele><time>2026-04-26T08:05:09.288Z</time></trkpt><trkpt lat="42.4140077" lon="14.2499108"><ele>86.0</ele><time>2026-04-26T08:05:10.287Z</time></trkpt><trkpt lat="42.4139167" lon="14.2498382"><ele>86.5</ele><time>2026-04-26T08:05:12.287Z</time></trkpt><trkpt lat="42.4137957" lon="14.2497915"><ele>87.0</ele><time>2026-04-26T08:05:14.287Z</time></trkpt><trkpt lat="42.4137225" lon="14.2497822"><ele>87.5</ele><time>2026-04-26T08:05:15.29Z</time></trkpt><trkpt lat="42.413646" lon="14.2497784"><ele>88.0</ele><time>2026-04-26T08:05:16.287Z</time></trkpt><trkpt lat="42.4135692" lon="14.2497847"><ele>88.5</ele><time>2026-04-26T08:05:17.292Z</time></trkpt><trkpt lat="42.4134922" lon="14.2498005"><ele>89.0</ele><time>2026-04-26T08:05:18.301Z</time></trkpt><trkpt lat="42.4134184" lon="14.2498208"><ele>89.0</ele><time>2026-04-26T08:05:19.288Z</time></trkpt><trkpt lat="42.4133516" lon="14.2498454"><ele>89.0</ele><time>2026-04-26T08:05:20.286Z</time></trkpt><trkpt lat="42.4132566" lon="14.2498898"><ele>89.0</ele><time>2026-04-26T08:05:22.29Z</time></trkpt><trkpt lat="42.4131837" lon="14.2498782"><ele>89.0</ele><time>2026-04-26T08:05:25.288Z</time></trkpt><trkpt lat="42.4131599" lon="14.2497497"><ele>89.0</ele><time>2026-04-26T08:05:27.288Z</time></trkpt><trkpt lat="42.4131523" lon="14.2496429"><ele>89.0</ele><time>2026-04-26T08:05:28.291Z</time></trkpt><trkpt lat="42.4131401" lon="14.249511"><ele>90.25</ele><time>2026-04-26T08:05:29.288Z</time></trkpt><trkpt lat="42.4131272" lon="14.2493661"><ele>91.5</ele><time>2026-04-26T08:05:30.288Z</time></trkpt><trkpt lat="42.4131115" lon="14.2492127"><ele>92.75</ele><time>2026-04-26T08:05:31.287Z</time></trkpt><trkpt lat="42.4130924" lon="14.2490534"><ele>94.0</ele><time>2026-04-26T08:05:32.289Z</time></trkpt><trkpt lat="42.4130695" lon="14.2488928"><ele>95.0</ele><time>2026-04-26T08:05:33.287Z</time></trkpt><trkpt lat="42.4130434" lon="14.2487359"><ele>96.0</ele><time>2026-04-26T08:05:34.287Z</time></trkpt><trkpt lat="42.4130158" lon="14.2485851"><ele>97.0</ele><time>2026-04-26T08:05:35.284Z</time></trkpt><trkpt lat="42.4129894" lon="14.248439"><ele>98.0</ele><time>2026-04-26T08:05:36.284Z</time></trkpt><trkpt lat="42.4129634" lon="14.2482938"><ele>97.75</ele><time>2026-04-26T08:05:37.293Z</time></trkpt><trkpt lat="42.4129385" lon="14.2481486"><ele>97.5</ele><time>2026-04-26T08:05:38.284Z</time></trkpt><trkpt lat="42.4129133" lon="14.2480023"><ele>97.25</ele><time>2026-04-26T08:05:39.287Z</time></trkpt><trkpt lat="42.4128855" lon="14.2478508"><ele>97.0</ele><time>2026-04-26T08:05:40.286Z</time></trkpt><trkpt lat="42.4128583" lon="14.247697"><ele>97.0</ele><time>2026-04-26T08:05:41.284Z</time></trkpt><trkpt lat="42.4128293" lon="14.247544"><ele>97.0</ele><time>2026-04-26T08:05:42.284Z</time></trkpt><trkpt lat="42.4127995" lon="14.2474067"><ele>97.0</ele><time>2026-04-26T08:05:43.286Z</time></trkpt><trkpt lat="42.4127788" lon="14.2472925"><ele>97.0</ele><time>2026-04-26T08:05:44.284Z</time></trkpt><trkpt lat="42.4127748" lon="14.2471857"><ele>97.0</ele><time>2026-04-26T08:05:46.286Z</time></trkpt><trkpt lat="42.4128135" lon="14.2471105"><ele>98.28571428571428</ele><time>2026-04-26T08:05:49.286Z</time></trkpt><trkpt lat="42.4128702" lon="14.2470733"><ele>99.57142857142858</ele><time>2026-04-26T08:05:51.287Z</time></trkpt><trkpt lat="42.4129432" lon="14.247086"><ele>100.85714285714286</ele><time>2026-04-26T08:06:03.285Z</time></trkpt><trkpt lat="42.4130295" lon="14.247041"><ele>102.14285714285714</ele><time>2026-04-26T08:06:05.287Z</time></trkpt><trkpt lat="42.4130907" lon="14.2470085"><ele>103.42857142857142</ele><time>2026-04-26T08:06:06.287Z</time></trkpt><trkpt lat="42.4131577" lon="14.2469722"><ele>104.71428571428572</ele><time>2026-04-26T08:06:07.289Z</time></trkpt><trkpt lat="42.4132293" lon="14.246927"><ele>106.0</ele><time>2026-04-26T08:06:08.287Z</time></trkpt><trkpt lat="42.4133053" lon="14.2468797"><ele>106.50000000000001</ele><time>2026-04-26T08:06:09.288Z</time></trkpt><trkpt lat="42.4133817" lon="14.246836"><ele>107.0</ele><time>2026-04-26T08:06:10.288Z</time></trkpt><trkpt lat="42.4134607" lon="14.2467867"><ele>107.5</ele><time>2026-04-26T08:06:11.286Z</time></trkpt><trkpt lat="42.4135357" lon="14.2467453"><ele>108.0</ele><time>2026-04-26T08:06:12.287Z</time></trkpt><trkpt lat="42.4136037" lon="14.2466997"><ele>108.50000000000001</ele><time>2026-04-26T08:06:13.287Z</time></trkpt><trkpt lat="42.4136555" lon="14.246642"><ele>109.0</ele><time>2026-04-26T08:06:14.285Z</time></trkpt><trkpt lat="42.4137063" lon="14.2464808"><ele>110.16666666666667</ele><time>2026-04-26T08:06:16.287Z</time></trkpt><trkpt lat="42.4137298" lon="14.2463693"><ele>111.33333333333334</ele><time>2026-04-26T08:06:17.285Z</time></trkpt><trkpt lat="42.4137487" lon="14.2462668"><ele>112.5</ele><time>2026-04-26T08:06:18.286Z</time></trkpt><trkpt lat="42.4137623" lon="14.2461672"><ele>113.66666666666666</ele><time>2026-04-26T08:06:19.286Z</time></trkpt><trkpt lat="42.4137675" lon="14.2460478"><ele>114.83333333333333</ele><time>2026-04-26T08:06:20.285Z</time></trkpt><trkpt lat="42.4137767" lon="14.2459132"><ele>116.0</ele><time>2026-04-26T08:06:21.286Z</time></trkpt><trkpt lat="42.4137707" lon="14.2457767"><ele>116.0</ele><time>2026-04-26T08:06:22.285Z</time></trkpt><trkpt lat="42.4137468" lon="14.2456327"><ele>116.0</ele><time>2026-04-26T08:06:23.284Z</time></trkpt><trkpt lat="42.4137" lon="14.2454818"><ele>116.0</ele><time>2026-04-26T08:06:24.283Z</time></trkpt><trkpt lat="42.4136487" lon="14.2453273"><ele>116.0</ele><time>2026-04-26T08:06:25.282Z</time></trkpt><trkpt lat="42.4135942" lon="14.2452138"><ele>117.0</ele><time>2026-04-26T08:06:26.282Z</time></trkpt><trkpt lat="42.4135607" lon="14.2451203"><ele>118.0</ele><time>2026-04-26T08:06:27.284Z</time></trkpt><trkpt lat="42.413528" lon="14.2449813"><ele>119.0</ele><time>2026-04-26T08:06:29.286Z</time></trkpt><trkpt lat="42.4135335" lon="14.2448158"><ele>120.0</ele><time>2026-04-26T08:06:31.286Z</time></trkpt><trkpt lat="42.4135325" lon="14.2447107"><ele>121.0</ele><time>2026-04-26T08:06:32.286Z</time></trkpt><trkpt lat="42.4135173" lon="14.2446142"><ele>121.4</ele><time>2026-04-26T08:06:33.287Z</time></trkpt><trkpt lat="42.4134908" lon="14.2445187"><ele>121.8</ele><time>2026-04-26T08:06:34.287Z</time></trkpt><trkpt lat="42.4134545" lon="14.2444132"><ele>122.20000000000002</ele><time>2026-04-26T08:06:35.287Z</time></trkpt><trkpt lat="42.4134083" lon="14.2442955"><ele>122.60000000000001</ele><time>2026-04-26T08:06:36.287Z</time></trkpt><trkpt lat="42.4133527" lon="14.244155"><ele>123.0</ele><time>2026-04-26T08:06:37.286Z</time></trkpt><trkpt lat="42.4132935" lon="14.2440038"><ele>121.5</ele><time>2026-04-26T08:06:38.286Z</time></trkpt><trkpt lat="42.4132275" lon="14.2438728"><ele>120.0</ele><time>2026-04-26T08:06:39.287Z</time></trkpt><trkpt lat="42.4131692" lon="14.2437455"><ele>118.5</ele><time>2026-04-26T08:06:40.285Z</time></trkpt><trkpt lat="42.413123" lon="14.2435983"><ele>117.0</ele><time>2026-04-26T08:06:41.286Z</time></trkpt><trkpt lat="42.4130832" lon="14.2434248"><ele>117.0</ele><time>2026-04-26T08:06:42.286Z</time></trkpt><trkpt lat="42.4130707" lon="14.2432393"><ele>117.0</ele><time>2026-04-26T08:06:43.285Z</time></trkpt><trkpt lat="42.413073" lon="14.2430442"><ele>117.0</ele><time>2026-04-26T08:06:44.286Z</time></trkpt><trkpt lat="42.4130818" lon="14.2428482"><ele>117.0</ele><time>2026-04-26T08:06:45.286Z</time></trkpt><trkpt lat="42.4130808" lon="14.2426663"><ele>115.75</ele><time>2026-04-26T08:06:46.286Z</time></trkpt><trkpt lat="42.4130572" lon="14.2424922"><ele>114.5</ele><time>2026-04-26T08:06:47.285Z</time></trkpt><trkpt lat="42.4130082" lon="14.242321"><ele>113.25</ele><time>2026-04-26T08:06:48.285Z</time></trkpt><trkpt lat="42.4129373" lon="14.242143"><ele>112.0</ele><time>2026-04-26T08:06:49.287Z</time></trkpt><trkpt lat="42.4128638" lon="14.2419562"><ele>113.5</ele><time>2026-04-26T08:06:50.285Z</time></trkpt><trkpt lat="42.4128023" lon="14.2417618"><ele>115.0</ele><time>2026-04-26T08:06:51.284Z</time></trkpt><trkpt lat="42.4127505" lon="14.2415805"><ele>116.5</ele><time>2026-04-26T08:06:52.287Z</time></trkpt><trkpt lat="42.412694" lon="14.24141"><ele>118.0</ele><time>2026-04-26T08:06:53.286Z</time></trkpt><trkpt lat="42.4126225" lon="14.2412397"><ele>118.0</ele><time>2026-04-26T08:06:54.287Z</time></trkpt><trkpt lat="42.4125363" lon="14.2410853"><ele>118.0</ele><time>2026-04-26T08:06:55.286Z</time></trkpt><trkpt lat="42.4124375" lon="14.2409467"><ele>118.0</ele><time>2026-04-26T08:06:56.285Z</time></trkpt><trkpt lat="42.412328" lon="14.240804"><ele>118.0</ele><time>2026-04-26T08:06:57.286Z</time></trkpt><trkpt lat="42.4122247" lon="14.240672"><ele>119.4</ele><time>2026-04-26T08:06:58.287Z</time></trkpt><trkpt lat="42.4121282" lon="14.2405568"><ele>120.80000000000001</ele><time>2026-04-26T08:06:59.287Z</time></trkpt><trkpt lat="42.4120277" lon="14.2404653"><ele>122.2</ele><time>2026-04-26T08:07:00.287Z</time></trkpt><trkpt lat="42.4119487" lon="14.2404162"><ele>123.6</ele><time>2026-04-26T08:07:01.288Z</time></trkpt><trkpt lat="42.411892" lon="14.2403753"><ele>125.0</ele><time>2026-04-26T08:07:02.288Z</time></trkpt><trkpt lat="42.41185" lon="14.2402915"><ele>125.0</ele><time>2026-04-26T08:07:04.286Z</time></trkpt><trkpt lat="42.411816" lon="14.2401978"><ele>125.0</ele><time>2026-04-26T08:07:11.286Z</time></trkpt><trkpt lat="42.4117507" lon="14.2400443"><ele>125.0</ele><time>2026-04-26T08:07:13.285Z</time></trkpt><trkpt lat="42.411708" lon="14.239943"><ele>125.0</ele><time>2026-04-26T08:07:14.285Z</time></trkpt><trkpt lat="42.411659" lon="14.2398303"><ele>125.0</ele><time>2026-04-26T08:07:15.285Z</time></trkpt><trkpt lat="42.4116112" lon="14.239725"><ele>123.4</ele><time>2026-04-26T08:07:16.285Z</time></trkpt><trkpt lat="42.4115812" lon="14.2396183"><ele>121.8</ele><time>2026-04-26T08:07:17.286Z</time></trkpt><trkpt lat="42.4115388" lon="14.2394862"><ele>120.19999999999999</ele><time>2026-04-26T08:07:18.287Z</time></trkpt><trkpt lat="42.4114907" lon="14.2393418"><ele>118.6</ele><time>2026-04-26T08:07:19.287Z</time></trkpt><trkpt lat="42.4114345" lon="14.2391927"><ele>117.0</ele><time>2026-04-26T08:07:20.286Z</time></trkpt><trkpt lat="42.4113708" lon="14.2390372"><ele>123.25</ele><time>2026-04-26T08:07:21.287Z</time></trkpt><trkpt lat="42.4113043" lon="14.2388725"><ele>129.5</ele><time>2026-04-26T08:07:22.287Z</time></trkpt><trkpt lat="42.4112295" lon="14.2387025"><ele>135.75</ele><time>2026-04-26T08:07:23.288Z</time></trkpt><trkpt lat="42.4111492" lon="14.2385345"><ele>142.0</ele><time>2026-04-26T08:07:24.289Z</time></trkpt><trkpt lat="42.4110722" lon="14.2383673"><ele>142.0</ele><time>2026-04-26T08:07:25.288Z</time></trkpt><trkpt lat="42.4110045" lon="14.2382037"><ele>142.0</ele><time>2026-04-26T08:07:26.287Z</time></trkpt><trkpt lat="42.4109435" lon="14.238041"><ele>142.0</ele><time>2026-04-26T08:07:27.288Z</time></trkpt><trkpt lat="42.4108913" lon="14.2378877"><ele>142.0</ele><time>2026-04-26T08:07:28.287Z</time></trkpt><trkpt lat="42.4108465" lon="14.2377345"><ele>142.0</ele><time>2026-04-26T08:07:29.289Z</time></trkpt><trkpt lat="42.4108052" lon="14.2376013"><ele>142.0</ele><time>2026-04-26T08:07:30.286Z</time></trkpt><trkpt lat="42.4107502" lon="14.2374892"><ele>142.0</ele><time>2026-04-26T08:07:31.286Z</time></trkpt><trkpt lat="42.4106953" lon="14.2373972"><ele>142.0</ele><time>2026-04-26T08:07:32.286Z</time></trkpt><trkpt lat="42.410653" lon="14.2373253"><ele>142.0</ele><time>2026-04-26T08:07:33.286Z</time></trkpt><trkpt lat="42.4105852" lon="14.2372217"><ele>143.83333333333334</ele><time>2026-04-26T08:07:35.285Z</time></trkpt><trkpt lat="42.4105382" lon="14.2371523"><ele>145.66666666666669</ele><time>2026-04-26T08:07:37.285Z</time></trkpt><trkpt lat="42.4104983" lon="14.2370772"><ele>147.5</ele><time>2026-04-26T08:07:39.286Z</time></trkpt><trkpt lat="42.4104415" lon="14.2369595"><ele>149.33333333333334</ele><time>2026-04-26T08:07:41.284Z</time></trkpt><trkpt lat="42.4104138" lon="14.2368717"><ele>151.16666666666666</ele><time>2026-04-26T08:07:42.286Z</time></trkpt><trkpt lat="42.4103837" lon="14.2367695"><ele>153.0</ele><time>2026-04-26T08:07:43.286Z</time></trkpt><trkpt lat="42.4103472" lon="14.2366573"><ele>153.0</ele><time>2026-04-26T08:07:44.286Z</time></trkpt><trkpt lat="42.410305" lon="14.236544"><ele>153.0</ele><time>2026-04-26T08:07:45.287Z</time></trkpt><trkpt lat="42.4102563" lon="14.2364328"><ele>153.0</ele><time>2026-04-26T08:07:46.286Z</time></trkpt><trkpt lat="42.4101982" lon="14.2363272"><ele>153.0</ele><time>2026-04-26T08:07:47.287Z</time></trkpt><trkpt lat="42.4101287" lon="14.236229"><ele>153.0</ele><time>2026-04-26T08:07:48.287Z</time></trkpt><trkpt lat="42.4100523" lon="14.2361377"><ele>153.0</ele><time>2026-04-26T08:07:49.288Z</time></trkpt><trkpt lat="42.4099745" lon="14.2360483"><ele>153.0</ele><time>2026-04-26T08:07:50.288Z</time></trkpt><trkpt lat="42.4098952" lon="14.2359633"><ele>153.0</ele><time>2026-04-26T08:07:51.288Z</time></trkpt><trkpt lat="42.409816" lon="14.2358772"><ele>153.0</ele><time>2026-04-26T08:07:52.286Z</time></trkpt><trkpt lat="42.409736" lon="14.2357828"><ele>153.0</ele><time>2026-04-26T08:07:53.284Z</time></trkpt><trkpt lat="42.4096585" lon="14.2356863"><ele>152.0</ele><time>2026-04-26T08:07:54.287Z</time></trkpt><trkpt lat="42.409579" lon="14.2355862"><ele>151.0</ele><time>2026-04-26T08:07:55.287Z</time></trkpt><trkpt lat="42.4095005" lon="14.235486"><ele>150.0</ele><time>2026-04-26T08:07:56.285Z</time></trkpt><trkpt lat="42.4094213" lon="14.2353767"><ele>149.0</ele><time>2026-04-26T08:07:57.286Z</time></trkpt><trkpt lat="42.409344" lon="14.2352738"><ele>148.0</ele><time>2026-04-26T08:07:58.286Z</time></trkpt><trkpt lat="42.4092685" lon="14.2351815"><ele>148.0</ele><time>2026-04-26T08:07:59.286Z</time></trkpt><trkpt lat="42.4091983" lon="14.2351072"><ele>148.0</ele><time>2026-04-26T08:08:00.287Z</time></trkpt><trkpt lat="42.409135" lon="14.2350452"><ele>148.0</ele><time>2026-04-26T08:08:01.284Z</time></trkpt><trkpt lat="42.4090788" lon="14.2349695"><ele>148.0</ele><time>2026-04-26T08:08:02.283Z</time></trkpt><trkpt lat="42.4090517" lon="14.2348407"><ele>148.0</ele><time>2026-04-26T08:08:04.282Z</time></trkpt><trkpt lat="42.4090327" lon="14.234735"><ele>148.0</ele><time>2026-04-26T08:08:06.285Z</time></trkpt><trkpt lat="42.4089398" lon="14.2346413"><ele>149.6</ele><time>2026-04-26T08:08:08.284Z</time></trkpt><trkpt lat="42.4088737" lon="14.2345783"><ele>151.20000000000002</ele><time>2026-04-26T08:08:09.287Z</time></trkpt><trkpt lat="42.4087997" lon="14.2344972"><ele>152.8</ele><time>2026-04-26T08:08:10.285Z</time></trkpt><trkpt lat="42.4087263" lon="14.234413"><ele>154.4</ele><time>2026-04-26T08:08:11.285Z</time></trkpt><trkpt lat="42.4086407" lon="14.234318"><ele>156.0</ele><time>2026-04-26T08:08:12.287Z</time></trkpt><trkpt lat="42.4085482" lon="14.2342187"><ele>156.0</ele><time>2026-04-26T08:08:13.286Z</time></trkpt><trkpt lat="42.4084555" lon="14.2341133"><ele>156.0</ele><time>2026-04-26T08:08:14.286Z</time></trkpt><trkpt lat="42.4083758" lon="14.2340012"><ele>156.0</ele><time>2026-04-26T08:08:15.287Z</time></trkpt><trkpt lat="42.408313" lon="14.2338725"><ele>156.0</ele><time>2026-04-26T08:08:16.286Z</time></trkpt><trkpt lat="42.4082613" lon="14.2337252"><ele>154.5</ele><time>2026-04-26T08:08:17.285Z</time></trkpt><trkpt lat="42.4082095" lon="14.2335652"><ele>153.0</ele><time>2026-04-26T08:08:18.286Z</time></trkpt><trkpt lat="42.4081572" lon="14.2333983"><ele>151.5</ele><time>2026-04-26T08:08:19.286Z</time></trkpt><trkpt lat="42.4080948" lon="14.233233"><ele>150.0</ele><time>2026-04-26T08:08:20.286Z</time></trkpt><trkpt lat="42.4080333" lon="14.2330708"><ele>153.25</ele><time>2026-04-26T08:08:21.286Z</time></trkpt><trkpt lat="42.4079592" lon="14.2329162"><ele>156.5</ele><time>2026-04-26T08:08:22.286Z</time></trkpt><trkpt lat="42.4078593" lon="14.2327702"><ele>159.75</ele><time>2026-04-26T08:08:23.285Z</time></trkpt><trkpt lat="42.4077488" lon="14.2326165"><ele>163.0</ele><time>2026-04-26T08:08:24.286Z</time></trkpt><trkpt lat="42.4076362" lon="14.2324593"><ele>159.66666666666669</ele><time>2026-04-26T08:08:25.287Z</time></trkpt><trkpt lat="42.4075238" lon="14.2322947"><ele>156.33333333333334</ele><time>2026-04-26T08:08:26.284Z</time></trkpt><trkpt lat="42.4074127" lon="14.2321287"><ele>153.0</ele><time>2026-04-26T08:08:27.283Z</time></trkpt><trkpt lat="42.4073058" lon="14.2319633"><ele>153.0</ele><time>2026-04-26T08:08:28.285Z</time></trkpt><trkpt lat="42.407218" lon="14.231798"><ele>153.0</ele><time>2026-04-26T08:08:29.285Z</time></trkpt><trkpt lat="42.4071587" lon="14.231649"><ele>153.0</ele><time>2026-04-26T08:08:30.286Z</time></trkpt><trkpt lat="42.4071223" lon="14.2315005"><ele>153.0</ele><time>2026-04-26T08:08:31.284Z</time></trkpt><trkpt lat="42.4070868" lon="14.231361"><ele>156.25</ele><time>2026-04-26T08:08:32.284Z</time></trkpt><trkpt lat="42.4070338" lon="14.2312377"><ele>159.5</ele><time>2026-04-26T08:08:33.284Z</time></trkpt><trkpt lat="42.4069617" lon="14.2311063"><ele>162.75</ele><time>2026-04-26T08:08:34.284Z</time></trkpt><trkpt lat="42.4068692" lon="14.2309727"><ele>166.0</ele><time>2026-04-26T08:08:35.285Z</time></trkpt><trkpt lat="42.406763" lon="14.2308437"><ele>166.0</ele><time>2026-04-26T08:08:36.286Z</time></trkpt><trkpt lat="42.4066475" lon="14.2307172"><ele>166.0</ele><time>2026-04-26T08:08:37.287Z</time></trkpt><trkpt lat="42.4065313" lon="14.2305828"><ele>166.0</ele><time>2026-04-26T08:08:38.287Z</time></trkpt><trkpt lat="42.4064203" lon="14.2304368"><ele>167.0</ele><time>2026-04-26T08:08:39.287Z</time></trkpt><trkpt lat="42.4063137" lon="14.2302898"><ele>168.0</ele><time>2026-04-26T08:08:40.287Z</time></trkpt><trkpt lat="42.4062178" lon="14.2301562"><ele>169.0</ele><time>2026-04-26T08:08:41.286Z</time></trkpt><trkpt lat="42.4061355" lon="14.2300383"><ele>170.0</ele><time>2026-04-26T08:08:42.286Z</time></trkpt><trkpt lat="42.4060688" lon="14.2299318"><ele>170.0</ele><time>2026-04-26T08:08:43.287Z</time></trkpt><trkpt lat="42.4060097" lon="14.229841"><ele>170.0</ele><time>2026-04-26T08:08:44.286Z</time></trkpt><trkpt lat="42.405947" lon="14.2297725"><ele>170.0</ele><time>2026-04-26T08:08:45.288Z</time></trkpt><trkpt lat="42.4058823" lon="14.2297273"><ele>170.0</ele><time>2026-04-26T08:08:46.288Z</time></trkpt><trkpt lat="42.4057672" lon="14.2297065"><ele>170.0</ele><time>2026-04-26T08:08:48.284Z</time></trkpt><trkpt lat="42.4056403" lon="14.2297175"><ele>170.42857142857144</ele><time>2026-04-26T08:08:50.285Z</time></trkpt><trkpt lat="42.4055717" lon="14.2297182"><ele>170.85714285714283</ele><time>2026-04-26T08:08:51.285Z</time></trkpt><trkpt lat="42.405493" lon="14.2297152"><ele>171.28571428571428</ele><time>2026-04-26T08:08:53.284Z</time></trkpt><trkpt lat="42.4054197" lon="14.229746"><ele>171.71428571428572</ele><time>2026-04-26T08:08:58.288Z</time></trkpt><trkpt lat="42.4053567" lon="14.2297925"><ele>172.14285714285717</ele><time>2026-04-26T08:09:00.29Z</time></trkpt><trkpt lat="42.4052945" lon="14.2298235"><ele>172.57142857142856</ele><time>2026-04-26T08:09:02.286Z</time></trkpt><trkpt lat="42.4052272" lon="14.2298563"><ele>173.0</ele><time>2026-04-26T08:09:04.289Z</time></trkpt><trkpt lat="42.4051708" lon="14.2299077"><ele>173.0</ele><time>2026-04-26T08:09:08.288Z</time></trkpt><trkpt lat="42.4052212" lon="14.2299602"><ele>173.0</ele><time>2026-04-26T08:09:15.288Z</time></trkpt><trkpt lat="42.4052843" lon="14.2298782"><ele>173.0</ele><time>2026-04-26T08:09:17.284Z</time></trkpt><trkpt lat="42.405342" lon="14.229806"><ele>173.0</ele><time>2026-04-26T08:09:19.288Z</time></trkpt><trkpt lat="42.4054205" lon="14.2297583"><ele>173.0</ele><time>2026-04-26T08:09:21.287Z</time></trkpt><trkpt lat="42.4054795" lon="14.2296965"><ele>173.0</ele><time>2026-04-26T08:09:24.288Z</time></trkpt><trkpt lat="42.4054307" lon="14.229603"><ele>173.0</ele><time>2026-04-26T08:09:27.289Z</time></trkpt><trkpt lat="42.4053562" lon="14.2295182"><ele>173.0</ele><time>2026-04-26T08:09:29.287Z</time></trkpt><trkpt lat="42.4052665" lon="14.2294128"><ele>173.0</ele><time>2026-04-26T08:09:31.287Z</time></trkpt><trkpt lat="42.4052227" lon="14.2293507"><ele>173.0</ele><time>2026-04-26T08:09:32.286Z</time></trkpt><trkpt lat="42.4051792" lon="14.2292863"><ele>173.0</ele><time>2026-04-26T08:09:33.288Z</time></trkpt><trkpt lat="42.4051355" lon="14.2292172"><ele>173.0</ele><time>2026-04-26T08:09:34.286Z</time></trkpt><trkpt lat="42.4050905" lon="14.229146"><ele>173.0</ele><time>2026-04-26T08:09:35.287Z</time></trkpt><trkpt lat="42.4050455" lon="14.229077"><ele>173.0</ele><time>2026-04-26T08:09:36.289Z</time></trkpt><trkpt lat="42.4049687" lon="14.2289755"><ele>173.0</ele><time>2026-04-26T08:09:38.287Z</time></trkpt><trkpt lat="42.4048965" lon="14.2289708"><ele>173.0</ele><time>2026-04-26T08:09:40.285Z</time></trkpt><trkpt lat="42.4049888" lon="14.2289885"><ele>173.0</ele><time>2026-04-26T08:09:46.288Z</time></trkpt><trkpt lat="42.4050433" lon="14.2290743"><ele>173.0</ele><time>2026-04-26T08:09:47.288Z</time></trkpt><trkpt lat="42.405107" lon="14.2291697"><ele>173.0</ele><time>2026-04-26T08:09:48.289Z</time></trkpt><trkpt lat="42.4051733" lon="14.2292703"><ele>173.0</ele><time>2026-04-26T08:09:49.287Z</time></trkpt><trkpt lat="42.4052437" lon="14.2293715"><ele>173.0</ele><time>2026-04-26T08:09:50.289Z</time></trkpt><trkpt lat="42.4053132" lon="14.229466"><ele>173.0</ele><time>2026-04-26T08:09:51.289Z</time></trkpt><trkpt lat="42.4053813" lon="14.2295457"><ele>173.0</ele><time>2026-04-26T08:09:52.289Z</time></trkpt><trkpt lat="42.405445" lon="14.2296118"><ele>170.16666666666666</ele><time>2026-04-26T08:09:53.287Z</time></trkpt><trkpt lat="42.4055128" lon="14.2296657"><ele>167.33333333333331</ele><time>2026-04-26T08:09:54.287Z</time></trkpt><trkpt lat="42.4055883" lon="14.2297002"><ele>164.5</ele><time>2026-04-26T08:09:55.286Z</time></trkpt><trkpt lat="42.4056617" lon="14.2297178"><ele>161.66666666666666</ele><time>2026-04-26T08:09:56.286Z</time></trkpt><trkpt lat="42.4057513" lon="14.2296852"><ele>158.83333333333334</ele><time>2026-04-26T08:09:58.285Z</time></trkpt><trkpt lat="42.4057212" lon="14.2295957"><ele>156.0</ele><time>2026-04-26T08:10:01.288Z</time></trkpt><trkpt lat="42.405602" lon="14.229562"><ele>156.0</ele><time>2026-04-26T08:10:03.286Z</time></trkpt><trkpt lat="42.4055298" lon="14.2295092"><ele>156.0</ele><time>2026-04-26T08:10:04.286Z</time></trkpt><trkpt lat="42.4054493" lon="14.2294262"><ele>156.0</ele><time>2026-04-26T08:10:05.285Z</time></trkpt><trkpt lat="42.4053793" lon="14.2293167"><ele>156.0</ele><time>2026-04-26T08:10:06.284Z</time></trkpt><trkpt lat="42.4053195" lon="14.2291875"><ele>156.0</ele><time>2026-04-26T08:10:07.284Z</time></trkpt><trkpt lat="42.4052575" lon="14.2290543"><ele>157.5</ele><time>2026-04-26T08:10:08.284Z</time></trkpt><trkpt lat="42.405176" lon="14.2289425"><ele>159.0</ele><time>2026-04-26T08:10:09.285Z</time></trkpt><trkpt lat="42.4050877" lon="14.2288215"><ele>160.5</ele><time>2026-04-26T08:10:10.286Z</time></trkpt><trkpt lat="42.4050015" lon="14.2287098"><ele>162.0</ele><time>2026-04-26T08:10:11.284Z</time></trkpt><trkpt lat="42.4049305" lon="14.228606"><ele>162.0</ele><time>2026-04-26T08:10:12.285Z</time></trkpt><trkpt lat="42.4048767" lon="14.2285133"><ele>162.0</ele><time>2026-04-26T08:10:13.284Z</time></trkpt><trkpt lat="42.4048387" lon="14.2284057"><ele>162.0</ele><time>2026-04-26T08:10:14.285Z</time></trkpt><trkpt lat="42.4048105" lon="14.2282873"><ele>162.0</ele><time>2026-04-26T08:10:15.285Z</time></trkpt><trkpt lat="42.4047757" lon="14.228156"><ele>162.0</ele><time>2026-04-26T08:10:16.286Z</time></trkpt><trkpt lat="42.4047303" lon="14.2280215"><ele>164.5</ele><time>2026-04-26T08:10:17.284Z</time></trkpt><trkpt lat="42.4046842" lon="14.2278807"><ele>167.0</ele><time>2026-04-26T08:10:18.285Z</time></trkpt><trkpt lat="42.4046318" lon="14.2277505"><ele>169.5</ele><time>2026-04-26T08:10:19.284Z</time></trkpt><trkpt lat="42.4045645" lon="14.2276067"><ele>172.0</ele><time>2026-04-26T08:10:20.284Z</time></trkpt><trkpt lat="42.404493" lon="14.2274675"><ele>172.0</ele><time>2026-04-26T08:10:21.285Z</time></trkpt><trkpt lat="42.4044255" lon="14.2273353"><ele>172.0</ele><time>2026-04-26T08:10:22.284Z</time></trkpt><trkpt lat="42.4043768" lon="14.2272067"><ele>172.0</ele><time>2026-04-26T08:10:23.283Z</time></trkpt><trkpt lat="42.4043512" lon="14.2270628"><ele>172.0</ele><time>2026-04-26T08:10:24.283Z</time></trkpt><trkpt lat="42.4043328" lon="14.2269312"><ele>172.0</ele><time>2026-04-26T08:10:25.283Z</time></trkpt><trkpt lat="42.4043018" lon="14.2268078"><ele>169.0</ele><time>2026-04-26T08:10:26.284Z</time></trkpt><trkpt lat="42.4042543" lon="14.226713"><ele>166.0</ele><time>2026-04-26T08:10:27.283Z</time></trkpt><trkpt lat="42.4041972" lon="14.2266653"><ele>163.0</ele><time>2026-04-26T08:10:28.282Z</time></trkpt><trkpt lat="42.404116" lon="14.2266338"><ele>160.0</ele><time>2026-04-26T08:10:29.279Z</time></trkpt><trkpt lat="42.4040297" lon="14.2265645"><ele>157.0</ele><time>2026-04-26T08:10:30.282Z</time></trkpt><trkpt lat="42.4039435" lon="14.226462"><ele>155.0</ele><time>2026-04-26T08:10:31.281Z</time></trkpt><trkpt lat="42.403856" lon="14.226337"><ele>153.0</ele><time>2026-04-26T08:10:32.282Z</time></trkpt><trkpt lat="42.4037758" lon="14.2261997"><ele>151.0</ele><time>2026-04-26T08:10:33.284Z</time></trkpt><trkpt lat="42.4037048" lon="14.226063"><ele>149.0</ele><time>2026-04-26T08:10:34.282Z</time></trkpt><trkpt lat="42.4036448" lon="14.2259182"><ele>154.5</ele><time>2026-04-26T08:10:35.283Z</time></trkpt><trkpt lat="42.4035993" lon="14.2257703"><ele>160.0</ele><time>2026-04-26T08:10:36.282Z</time></trkpt><trkpt lat="42.403553" lon="14.2255985"><ele>165.5</ele><time>2026-04-26T08:10:37.283Z</time></trkpt><trkpt lat="42.4035147" lon="14.2254287"><ele>171.0</ele><time>2026-04-26T08:10:38.282Z</time></trkpt><trkpt lat="42.403501" lon="14.2252427"><ele>171.0</ele><time>2026-04-26T08:10:39.283Z</time></trkpt><trkpt lat="42.4034948" lon="14.2250725"><ele>171.0</ele><time>2026-04-26T08:10:40.285Z</time></trkpt><trkpt lat="42.4034677" lon="14.2249172"><ele>171.0</ele><time>2026-04-26T08:10:41.284Z</time></trkpt><trkpt lat="42.4034105" lon="14.2247882"><ele>171.0</ele><time>2026-04-26T08:10:42.283Z</time></trkpt><trkpt lat="42.4033472" lon="14.2246767"><ele>169.0</ele><time>2026-04-26T08:10:43.284Z</time></trkpt><trkpt lat="42.4032848" lon="14.2245582"><ele>167.0</ele><time>2026-04-26T08:10:44.284Z</time></trkpt><trkpt lat="42.4032193" lon="14.2244237"><ele>165.0</ele><time>2026-04-26T08:10:45.285Z</time></trkpt><trkpt lat="42.4031543" lon="14.2242907"><ele>163.0</ele><time>2026-04-26T08:10:46.284Z</time></trkpt><trkpt lat="42.4030862" lon="14.2241843"><ele>161.0</ele><time>2026-04-26T08:10:47.285Z</time></trkpt><trkpt lat="42.4030112" lon="14.2240848"><ele>162.20000000000002</ele><time>2026-04-26T08:10:48.285Z</time></trkpt><trkpt lat="42.4029247" lon="14.2240188"><ele>163.4</ele><time>2026-04-26T08:10:49.284Z</time></trkpt><trkpt lat="42.4028223" lon="14.2239868"><ele>164.6</ele><time>2026-04-26T08:10:50.284Z</time></trkpt><trkpt lat="42.4027145" lon="14.2239663"><ele>165.8</ele><time>2026-04-26T08:10:51.285Z</time></trkpt><trkpt lat="42.4026328" lon="14.2239273"><ele>167.0</ele><time>2026-04-26T08:10:52.285Z</time></trkpt><trkpt lat="42.4025783" lon="14.223877"><ele>167.0</ele><time>2026-04-26T08:10:53.284Z</time></trkpt><trkpt lat="42.4025272" lon="14.22382"><ele>167.0</ele><time>2026-04-26T08:10:54.284Z</time></trkpt><trkpt lat="42.4024763" lon="14.2237545"><ele>167.0</ele><time>2026-04-26T08:10:55.285Z</time></trkpt><trkpt lat="42.4024152" lon="14.2236772"><ele>167.0</ele><time>2026-04-26T08:10:56.287Z</time></trkpt><trkpt lat="42.4023402" lon="14.2235883"><ele>167.0</ele><time>2026-04-26T08:10:57.288Z</time></trkpt><trkpt lat="42.4022553" lon="14.2235073"><ele>167.0</ele><time>2026-04-26T08:10:58.288Z</time></trkpt><trkpt lat="42.4021693" lon="14.2234665"><ele>169.8</ele><time>2026-04-26T08:10:59.29Z</time></trkpt><trkpt lat="42.4020878" lon="14.2234708"><ele>172.6</ele><time>2026-04-26T08:11:00.288Z</time></trkpt><trkpt lat="42.4019998" lon="14.2235092"><ele>175.4</ele><time>2026-04-26T08:11:01.291Z</time></trkpt><trkpt lat="42.4018997" lon="14.2235702"><ele>178.20000000000002</ele><time>2026-04-26T08:11:02.286Z</time></trkpt><trkpt lat="42.4017905" lon="14.2236373"><ele>181.0</ele><time>2026-04-26T08:11:03.287Z</time></trkpt><trkpt lat="42.4016782" lon="14.2237073"><ele>181.0</ele><time>2026-04-26T08:11:04.287Z</time></trkpt><trkpt lat="42.401564" lon="14.2237778"><ele>181.0</ele><time>2026-04-26T08:11:05.287Z</time></trkpt><trkpt lat="42.4014503" lon="14.2238438"><ele>181.0</ele><time>2026-04-26T08:11:06.289Z</time></trkpt><trkpt lat="42.4013422" lon="14.2239062"><ele>181.0</ele><time>2026-04-26T08:11:07.289Z</time></trkpt><trkpt lat="42.401248" lon="14.2239648"><ele>183.20000000000002</ele><time>2026-04-26T08:11:08.294Z</time></trkpt><trkpt lat="42.4011688" lon="14.2240193"><ele>185.4</ele><time>2026-04-26T08:11:09.286Z</time></trkpt><trkpt lat="42.4010915" lon="14.2240785"><ele>187.6</ele><time>2026-04-26T08:11:10.286Z</time></trkpt><trkpt lat="42.4010015" lon="14.2241465"><ele>189.8</ele><time>2026-04-26T08:11:11.288Z</time></trkpt><trkpt lat="42.4009067" lon="14.22422"><ele>192.0</ele><time>2026-04-26T08:11:12.287Z</time></trkpt><trkpt lat="42.4008158" lon="14.2242973"><ele>192.0</ele><time>2026-04-26T08:11:13.288Z</time></trkpt><trkpt lat="42.4007395" lon="14.2243657"><ele>192.0</ele><time>2026-04-26T08:11:14.288Z</time></trkpt><trkpt lat="42.4006797" lon="14.224416"><ele>192.0</ele><time>2026-04-26T08:11:15.289Z</time></trkpt><trkpt lat="42.4006132" lon="14.2244272"><ele>192.0</ele><time>2026-04-26T08:11:17.288Z</time></trkpt><trkpt lat="42.4005433" lon="14.2243408"><ele>192.0</ele><time>2026-04-26T08:11:19.288Z</time></trkpt><trkpt lat="42.4005023" lon="14.2242508"><ele>192.0</ele><time>2026-04-26T08:11:20.286Z</time></trkpt><trkpt lat="42.4004495" lon="14.2241407"><ele>192.0</ele><time>2026-04-26T08:11:21.288Z</time></trkpt><trkpt lat="42.4003863" lon="14.2240172"><ele>192.0</ele><time>2026-04-26T08:11:22.289Z</time></trkpt><trkpt lat="42.4003122" lon="14.223884"><ele>192.0</ele><time>2026-04-26T08:11:23.289Z</time></trkpt><trkpt lat="42.400228" lon="14.2237507"><ele>192.0</ele><time>2026-04-26T08:11:24.29Z</time></trkpt><trkpt lat="42.4001355" lon="14.2236155"><ele>191.75</ele><time>2026-04-26T08:11:25.288Z</time></trkpt><trkpt lat="42.4000337" lon="14.2234833"><ele>191.5</ele><time>2026-04-26T08:11:26.289Z</time></trkpt><trkpt lat="42.3999245" lon="14.2233543"><ele>191.25</ele><time>2026-04-26T08:11:27.289Z</time></trkpt><trkpt lat="42.3998082" lon="14.2232215"><ele>191.0</ele><time>2026-04-26T08:11:28.288Z</time></trkpt><trkpt lat="42.399688" lon="14.2230847"><ele>192.0</ele><time>2026-04-26T08:11:29.29Z</time></trkpt><trkpt lat="42.3995653" lon="14.2229435"><ele>193.0</ele><time>2026-04-26T08:11:30.289Z</time></trkpt><trkpt lat="42.3994408" lon="14.2228002"><ele>194.0</ele><time>2026-04-26T08:11:31.292Z</time></trkpt><trkpt lat="42.3993157" lon="14.2226585"><ele>194.0</ele><time>2026-04-26T08:11:32.289Z</time></trkpt><trkpt lat="42.3991923" lon="14.2225185"><ele>194.0</ele><time>2026-04-26T08:11:33.291Z</time></trkpt><trkpt lat="42.3990747" lon="14.222384"><ele>194.0</ele><time>2026-04-26T08:11:34.291Z</time></trkpt><trkpt lat="42.3989628" lon="14.2222552"><ele>194.25</ele><time>2026-04-26T08:11:35.29Z</time></trkpt><trkpt lat="42.3988575" lon="14.222129"><ele>194.5</ele><time>2026-04-26T08:11:36.292Z</time></trkpt><trkpt lat="42.3987603" lon="14.2220032"><ele>194.75</ele><time>2026-04-26T08:11:37.293Z</time></trkpt><trkpt lat="42.398674" lon="14.2218723"><ele>195.0</ele><time>2026-04-26T08:11:38.289Z</time></trkpt><trkpt lat="42.3985943" lon="14.221739"><ele>195.0</ele><time>2026-04-26T08:11:39.29Z</time></trkpt><trkpt lat="42.3985193" lon="14.2216045"><ele>195.0</ele><time>2026-04-26T08:11:40.291Z</time></trkpt><trkpt lat="42.3984555" lon="14.2214762"><ele>195.0</ele><time>2026-04-26T08:11:41.289Z</time></trkpt><trkpt lat="42.3983943" lon="14.2213487"><ele>195.0</ele><time>2026-04-26T08:11:42.287Z</time></trkpt><trkpt lat="42.398331" lon="14.2212178"><ele>195.66666666666666</ele><time>2026-04-26T08:11:43.288Z</time></trkpt><trkpt lat="42.3982713" lon="14.221101"><ele>196.33333333333331</ele><time>2026-04-26T08:11:44.287Z</time></trkpt><trkpt lat="42.398223" lon="14.2210017"><ele>197.0</ele><time>2026-04-26T08:11:45.288Z</time></trkpt><trkpt lat="42.3981842" lon="14.2209227"><ele>197.66666666666666</ele><time>2026-04-26T08:11:46.288Z</time></trkpt><trkpt lat="42.3981295" lon="14.220811"><ele>198.33333333333331</ele><time>2026-04-26T08:11:48.288Z</time></trkpt><trkpt lat="42.3980552" lon="14.2208195"><ele>199.0</ele><time>2026-04-26T08:11:50.289Z</time></trkpt><trkpt lat="42.397964" lon="14.2209458"><ele>199.0</ele><time>2026-04-26T08:11:52.287Z</time></trkpt><trkpt lat="42.3979028" lon="14.2210308"><ele>199.0</ele><time>2026-04-26T08:11:53.288Z</time></trkpt><trkpt lat="42.3978312" lon="14.2211168"><ele>199.0</ele><time>2026-04-26T08:11:54.288Z</time></trkpt><trkpt lat="42.3977533" lon="14.2212012"><ele>199.0</ele><time>2026-04-26T08:11:55.286Z</time></trkpt><trkpt lat="42.3976703" lon="14.2212917"><ele>199.0</ele><time>2026-04-26T08:11:56.289Z</time></trkpt><trkpt lat="42.3975858" lon="14.2213842"><ele>199.0</ele><time>2026-04-26T08:11:57.29Z</time></trkpt><trkpt lat="42.3974975" lon="14.221478"><ele>199.0</ele><time>2026-04-26T08:11:58.287Z</time></trkpt><trkpt lat="42.3974073" lon="14.2215713"><ele>199.0</ele><time>2026-04-26T08:11:59.287Z</time></trkpt><trkpt lat="42.397318" lon="14.2216595"><ele>199.0</ele><time>2026-04-26T08:12:00.288Z</time></trkpt><trkpt lat="42.3972397" lon="14.2217428"><ele>199.0</ele><time>2026-04-26T08:12:01.289Z</time></trkpt><trkpt lat="42.397181" lon="14.221826"><ele>198.33333333333331</ele><time>2026-04-26T08:12:02.289Z</time></trkpt><trkpt lat="42.3971448" lon="14.2219147"><ele>197.66666666666666</ele><time>2026-04-26T08:12:03.291Z</time></trkpt><trkpt lat="42.3971305" lon="14.2220055"><ele>197.0</ele><time>2026-04-26T08:12:04.292Z</time></trkpt><trkpt lat="42.3971417" lon="14.2220988"><ele>196.33333333333331</ele><time>2026-04-26T08:12:05.288Z</time></trkpt><trkpt lat="42.397175" lon="14.2221983"><ele>195.66666666666666</ele><time>2026-04-26T08:12:06.288Z</time></trkpt><trkpt lat="42.397223" lon="14.2223067"><ele>195.0</ele><time>2026-04-26T08:12:07.289Z</time></trkpt><trkpt lat="42.3972802" lon="14.2224238"><ele>194.6</ele><time>2026-04-26T08:12:08.288Z</time></trkpt><trkpt lat="42.397338" lon="14.222541"><ele>194.2</ele><time>2026-04-26T08:12:09.287Z</time></trkpt><trkpt lat="42.397393" lon="14.2226428"><ele>193.8</ele><time>2026-04-26T08:12:10.29Z</time></trkpt><trkpt lat="42.3974477" lon="14.2227397"><ele>193.4</ele><time>2026-04-26T08:12:11.288Z</time></trkpt><trkpt lat="42.3975007" lon="14.2228468"><ele>193.0</ele><time>2026-04-26T08:12:12.288Z</time></trkpt><trkpt lat="42.3975575" lon="14.2229608"><ele>193.0</ele><time>2026-04-26T08:12:13.287Z</time></trkpt><trkpt lat="42.3976177" lon="14.2230855"><ele>193.0</ele><time>2026-04-26T08:12:14.288Z</time></trkpt><trkpt lat="42.39767" lon="14.22321"><ele>193.0</ele><time>2026-04-26T08:12:15.289Z</time></trkpt><trkpt lat="42.3977127" lon="14.2233247"><ele>193.0</ele><time>2026-04-26T08:12:16.289Z</time></trkpt><trkpt lat="42.3977513" lon="14.2234237"><ele>193.0</ele><time>2026-04-26T08:12:17.288Z</time></trkpt><trkpt lat="42.3977982" lon="14.2235138"><ele>192.4</ele><time>2026-04-26T08:12:18.29Z</time></trkpt><trkpt lat="42.3978608" lon="14.22361"><ele>191.8</ele><time>2026-04-26T08:12:19.291Z</time></trkpt><trkpt lat="42.3979422" lon="14.2237145"><ele>191.2</ele><time>2026-04-26T08:12:20.29Z</time></trkpt><trkpt lat="42.3980333" lon="14.2238225"><ele>190.6</ele><time>2026-04-26T08:12:21.289Z</time></trkpt><trkpt lat="42.3981048" lon="14.2239097"><ele>190.0</ele><time>2026-04-26T08:12:22.29Z</time></trkpt><trkpt lat="42.3981505" lon="14.2239728"><ele>190.0</ele><time>2026-04-26T08:12:23.289Z</time></trkpt><trkpt lat="42.3982135" lon="14.2240443"><ele>190.0</ele><time>2026-04-26T08:12:25.29Z</time></trkpt><trkpt lat="42.3983048" lon="14.2240993"><ele>190.0</ele><time>2026-04-26T08:12:27.288Z</time></trkpt><trkpt lat="42.3982137" lon="14.2240537"><ele>190.0</ele><time>2026-04-26T08:12:34.287Z</time></trkpt><trkpt lat="42.3981438" lon="14.223958"><ele>190.0</ele><time>2026-04-26T08:12:35.29Z</time></trkpt><trkpt lat="42.3980545" lon="14.2238452"><ele>190.0</ele><time>2026-04-26T08:12:36.288Z</time></trkpt><trkpt lat="42.3979515" lon="14.2237232"><ele>190.0</ele><time>2026-04-26T08:12:37.289Z</time></trkpt><trkpt lat="42.3978597" lon="14.2236117"><ele>190.0</ele><time>2026-04-26T08:12:38.289Z</time></trkpt><trkpt lat="42.397799" lon="14.2235425"><ele>190.0</ele><time>2026-04-26T08:12:39.288Z</time></trkpt><trkpt lat="42.3977272" lon="14.2235568"><ele>190.0</ele><time>2026-04-26T08:12:41.291Z</time></trkpt><trkpt lat="42.3976942" lon="14.2236948"><ele>190.0</ele><time>2026-04-26T08:12:43.29Z</time></trkpt><trkpt lat="42.3976723" lon="14.2238085"><ele>190.0</ele><time>2026-04-26T08:12:44.29Z</time></trkpt><trkpt lat="42.3976448" lon="14.2239443"><ele>190.0</ele><time>2026-04-26T08:12:45.29Z</time></trkpt><trkpt lat="42.3976187" lon="14.224103"><ele>190.0</ele><time>2026-04-26T08:12:46.288Z</time></trkpt><trkpt lat="42.3975948" lon="14.2242752"><ele>190.0</ele><time>2026-04-26T08:12:47.289Z</time></trkpt><trkpt lat="42.3975645" lon="14.2244505"><ele>188.25</ele><time>2026-04-26T08:12:48.289Z</time></trkpt><trkpt lat="42.3975335" lon="14.224622"><ele>186.5</ele><time>2026-04-26T08:12:49.288Z</time></trkpt><trkpt lat="42.3975095" lon="14.2247892"><ele>184.75</ele><time>2026-04-26T08:12:50.288Z</time></trkpt><trkpt lat="42.3975032" lon="14.2249573"><ele>183.0</ele><time>2026-04-26T08:12:51.288Z</time></trkpt><trkpt lat="42.397512" lon="14.225121"><ele>181.4</ele><time>2026-04-26T08:12:52.288Z</time></trkpt><trkpt lat="42.3975332" lon="14.2252803"><ele>179.8</ele><time>2026-04-26T08:12:53.289Z</time></trkpt><trkpt lat="42.3975573" lon="14.2254325"><ele>178.2</ele><time>2026-04-26T08:12:54.289Z</time></trkpt><trkpt lat="42.3975792" lon="14.225575"><ele>176.6</ele><time>2026-04-26T08:12:55.289Z</time></trkpt><trkpt lat="42.397593" lon="14.225695"><ele>175.0</ele><time>2026-04-26T08:12:56.286Z</time></trkpt><trkpt lat="42.397599" lon="14.2257877"><ele>175.0</ele><time>2026-04-26T08:12:57.286Z</time></trkpt><trkpt lat="42.3975912" lon="14.22588"><ele>175.0</ele><time>2026-04-26T08:12:59.287Z</time></trkpt><trkpt lat="42.3975325" lon="14.225935"><ele>175.0</ele><time>2026-04-26T08:13:03.288Z</time></trkpt><trkpt lat="42.3974638" lon="14.2258963"><ele>175.0</ele><time>2026-04-26T08:13:05.286Z</time></trkpt><trkpt lat="42.3974152" lon="14.2258318"><ele>175.0</ele><time>2026-04-26T08:13:07.287Z</time></trkpt><trkpt lat="42.3973822" lon="14.2257518"><ele>175.0</ele><time>2026-04-26T08:13:09.288Z</time></trkpt><trkpt lat="42.3973345" lon="14.2256618"><ele>175.0</ele><time>2026-04-26T08:13:11.286Z</time></trkpt><trkpt lat="42.3972777" lon="14.225564"><ele>175.0</ele><time>2026-04-26T08:13:13.286Z</time></trkpt><trkpt lat="42.3972267" lon="14.225488"><ele>175.0</ele><time>2026-04-26T08:13:15.287Z</time></trkpt><trkpt lat="42.3971717" lon="14.2254308"><ele>175.0</ele><time>2026-04-26T08:13:17.287Z</time></trkpt><trkpt lat="42.3971048" lon="14.2253703"><ele>175.0</ele><time>2026-04-26T08:13:19.287Z</time></trkpt><trkpt lat="42.3970243" lon="14.225323"><ele>175.0</ele><time>2026-04-26T08:13:21.285Z</time></trkpt><trkpt lat="42.3969227" lon="14.2253097"><ele>175.0</ele><time>2026-04-26T08:13:23.29Z</time></trkpt><trkpt lat="42.3968108" lon="14.2253037"><ele>172.57142857142858</ele><time>2026-04-26T08:13:25.285Z</time></trkpt><trkpt lat="42.3967478" lon="14.225301"><ele>170.14285714285714</ele><time>2026-04-26T08:13:26.285Z</time></trkpt><trkpt lat="42.396681" lon="14.2253157"><ele>167.71428571428572</ele><time>2026-04-26T08:13:27.288Z</time></trkpt><trkpt lat="42.3966138" lon="14.2253228"><ele>165.28571428571428</ele><time>2026-04-26T08:13:28.285Z</time></trkpt><trkpt lat="42.3965458" lon="14.2253178"><ele>162.85714285714286</ele><time>2026-04-26T08:13:29.286Z</time></trkpt><trkpt lat="42.396478" lon="14.2252867"><ele>160.42857142857144</ele><time>2026-04-26T08:13:30.287Z</time></trkpt><trkpt lat="42.3964028" lon="14.2252518"><ele>158.0</ele><time>2026-04-26T08:13:31.286Z</time></trkpt><trkpt lat="42.3963208" lon="14.2252147"><ele>153.83333333333331</ele><time>2026-04-26T08:13:32.286Z</time></trkpt><trkpt lat="42.3962353" lon="14.2251738"><ele>149.66666666666666</ele><time>2026-04-26T08:13:33.287Z</time></trkpt><trkpt lat="42.3961498" lon="14.2251383"><ele>145.5</ele><time>2026-04-26T08:13:34.291Z</time></trkpt><trkpt lat="42.3960672" lon="14.2251053"><ele>141.33333333333334</ele><time>2026-04-26T08:13:35.287Z</time></trkpt><trkpt lat="42.395984" lon="14.2250737"><ele>137.16666666666669</ele><time>2026-04-26T08:13:36.287Z</time></trkpt><trkpt lat="42.3959113" lon="14.225042"><ele>133.0</ele><time>2026-04-26T08:13:37.286Z</time></trkpt><trkpt lat="42.3958423" lon="14.2250123"><ele>133.0</ele><time>2026-04-26T08:13:38.287Z</time></trkpt><trkpt lat="42.3957723" lon="14.2249842"><ele>133.0</ele><time>2026-04-26T08:13:39.288Z</time></trkpt><trkpt lat="42.3957037" lon="14.2249493"><ele>133.0</ele><time>2026-04-26T08:13:40.287Z</time></trkpt><trkpt lat="42.3956343" lon="14.2249122"><ele>133.0</ele><time>2026-04-26T08:13:41.287Z</time></trkpt><trkpt lat="42.395574" lon="14.2248727"><ele>133.0</ele><time>2026-04-26T08:13:42.287Z</time></trkpt><trkpt lat="42.395468" lon="14.2248228"><ele>133.0</ele><time>2026-04-26T08:13:44.286Z</time></trkpt><trkpt lat="42.3953563" lon="14.2247677"><ele>130.5</ele><time>2026-04-26T08:13:46.284Z</time></trkpt><trkpt lat="42.3952897" lon="14.2247427"><ele>128.0</ele><time>2026-04-26T08:13:47.285Z</time></trkpt><trkpt lat="42.395219" lon="14.2247318"><ele>125.5</ele><time>2026-04-26T08:13:48.285Z</time></trkpt><trkpt lat="42.3951443" lon="14.2247298"><ele>123.0</ele><time>2026-04-26T08:13:49.287Z</time></trkpt><trkpt lat="42.3950683" lon="14.2247307"><ele>120.50000000000001</ele><time>2026-04-26T08:13:50.287Z</time></trkpt><trkpt lat="42.3949877" lon="14.2247242"><ele>118.0</ele><time>2026-04-26T08:13:51.286Z</time></trkpt><trkpt lat="42.3949048" lon="14.224711"><ele>118.00000000000001</ele><time>2026-04-26T08:13:52.287Z</time></trkpt><trkpt lat="42.3948253" lon="14.224689"><ele>118.0</ele><time>2026-04-26T08:13:53.287Z</time></trkpt><trkpt lat="42.394749" lon="14.2246637"><ele>118.0</ele><time>2026-04-26T08:13:54.288Z</time></trkpt><trkpt lat="42.3946717" lon="14.2246295"><ele>118.0</ele><time>2026-04-26T08:13:55.289Z</time></trkpt><trkpt lat="42.3945995" lon="14.224585"><ele>118.00000000000001</ele><time>2026-04-26T08:13:56.286Z</time></trkpt><trkpt lat="42.3945307" lon="14.2245245"><ele>118.0</ele><time>2026-04-26T08:13:57.288Z</time></trkpt><trkpt lat="42.3944623" lon="14.2244578"><ele>115.83333333333334</ele><time>2026-04-26T08:13:58.288Z</time></trkpt><trkpt lat="42.3944" lon="14.2243878"><ele>113.66666666666667</ele><time>2026-04-26T08:13:59.288Z</time></trkpt><trkpt lat="42.3943513" lon="14.2243218"><ele>111.5</ele><time>2026-04-26T08:14:00.287Z</time></trkpt><trkpt lat="42.3943127" lon="14.224253"><ele>109.33333333333334</ele><time>2026-04-26T08:14:01.29Z</time></trkpt><trkpt lat="42.3942342" lon="14.2241392"><ele>107.16666666666667</ele><time>2026-04-26T08:14:03.284Z</time></trkpt><trkpt lat="42.3941522" lon="14.2240353"><ele>105.0</ele><time>2026-04-26T08:14:05.286Z</time></trkpt><trkpt lat="42.394073" lon="14.2239478"><ele>105.0</ele><time>2026-04-26T08:14:07.287Z</time></trkpt><trkpt lat="42.394013" lon="14.2238842"><ele>105.0</ele><time>2026-04-26T08:14:09.285Z</time></trkpt><trkpt lat="42.393941" lon="14.2239017"><ele>105.0</ele><time>2026-04-26T08:14:12.285Z</time></trkpt><trkpt lat="42.3938768" lon="14.2239417"><ele>105.0</ele><time>2026-04-26T08:14:14.287Z</time></trkpt><trkpt lat="42.3937838" lon="14.2239645"><ele>105.0</ele><time>2026-04-26T08:14:16.285Z</time></trkpt><trkpt lat="42.393653" lon="14.2239618"><ele>105.0</ele><time>2026-04-26T08:14:18.286Z</time></trkpt><trkpt lat="42.3935795" lon="14.2239717"><ele>105.4</ele><time>2026-04-26T08:14:20.288Z</time></trkpt><trkpt lat="42.3935993" lon="14.2240592"><ele>105.8</ele><time>2026-04-26T08:14:34.284Z</time></trkpt><trkpt lat="42.393661" lon="14.224222"><ele>106.19999999999999</ele><time>2026-04-26T08:14:36.284Z</time></trkpt><trkpt lat="42.3936953" lon="14.2243352"><ele>106.6</ele><time>2026-04-26T08:14:37.284Z</time></trkpt><trkpt lat="42.3937237" lon="14.2244633"><ele>107.0</ele><time>2026-04-26T08:14:38.286Z</time></trkpt><trkpt lat="42.3937522" lon="14.2246032"><ele>107.0</ele><time>2026-04-26T08:14:39.287Z</time></trkpt><trkpt lat="42.3937873" lon="14.2247582"><ele>107.0</ele><time>2026-04-26T08:14:40.289Z</time></trkpt><trkpt lat="42.3938308" lon="14.2249243"><ele>107.0</ele><time>2026-04-26T08:14:41.289Z</time></trkpt><trkpt lat="42.3938818" lon="14.2251035"><ele>107.0</ele><time>2026-04-26T08:14:42.287Z</time></trkpt><trkpt lat="42.393938" lon="14.2252925"><ele>103.66666666666666</ele><time>2026-04-26T08:14:43.287Z</time></trkpt><trkpt lat="42.393997" lon="14.225488"><ele>100.33333333333334</ele><time>2026-04-26T08:14:44.285Z</time></trkpt><trkpt lat="42.394057" lon="14.2256847"><ele>97.0</ele><time>2026-04-26T08:14:45.286Z</time></trkpt><trkpt lat="42.3941173" lon="14.2258792"><ele>97.0</ele><time>2026-04-26T08:14:46.29Z</time></trkpt><trkpt lat="42.3941788" lon="14.2260695"><ele>97.0</ele><time>2026-04-26T08:14:47.286Z</time></trkpt><trkpt lat="42.394242" lon="14.2262525"><ele>97.0</ele><time>2026-04-26T08:14:48.289Z</time></trkpt><trkpt lat="42.3943028" lon="14.2264303"><ele>97.0</ele><time>2026-04-26T08:14:49.289Z</time></trkpt><trkpt lat="42.3943642" lon="14.2266025"><ele>97.0</ele><time>2026-04-26T08:14:50.289Z</time></trkpt><trkpt lat="42.3944208" lon="14.2267748"><ele>97.0</ele><time>2026-04-26T08:14:51.293Z</time></trkpt><trkpt lat="42.394477" lon="14.2269493"><ele>97.0</ele><time>2026-04-26T08:14:52.289Z</time></trkpt><trkpt lat="42.3945358" lon="14.2271263"><ele>97.0</ele><time>2026-04-26T08:14:53.289Z</time></trkpt><trkpt lat="42.3945933" lon="14.227311"><ele>97.33333333333334</ele><time>2026-04-26T08:14:54.288Z</time></trkpt><trkpt lat="42.3946485" lon="14.2275065"><ele>97.66666666666666</ele><time>2026-04-26T08:14:55.289Z</time></trkpt><trkpt lat="42.3947025" lon="14.2277097"><ele>98.0</ele><time>2026-04-26T08:14:56.288Z</time></trkpt><trkpt lat="42.39476" lon="14.2279112"><ele>96.0</ele><time>2026-04-26T08:14:57.289Z</time></trkpt><trkpt lat="42.3948183" lon="14.2281047"><ele>94.0</ele><time>2026-04-26T08:14:58.286Z</time></trkpt><trkpt lat="42.394882" lon="14.2282917"><ele>92.0</ele><time>2026-04-26T08:14:59.287Z</time></trkpt><trkpt lat="42.3949467" lon="14.228465"><ele>91.5</ele><time>2026-04-26T08:15:00.287Z</time></trkpt><trkpt lat="42.3950113" lon="14.2286275"><ele>91.0</ele><time>2026-04-26T08:15:01.286Z</time></trkpt><trkpt lat="42.39507" lon="14.2287787"><ele>90.5</ele><time>2026-04-26T08:15:02.288Z</time></trkpt><trkpt lat="42.3951247" lon="14.2289177"><ele>90.0</ele><time>2026-04-26T08:15:03.288Z</time></trkpt><trkpt lat="42.3951722" lon="14.2290487"><ele>91.0</ele><time>2026-04-26T08:15:04.288Z</time></trkpt><trkpt lat="42.3952218" lon="14.2291773"><ele>92.0</ele><time>2026-04-26T08:15:05.289Z</time></trkpt><trkpt lat="42.395278" lon="14.2293127"><ele>93.0</ele><time>2026-04-26T08:15:06.288Z</time></trkpt><trkpt lat="42.3953365" lon="14.2294615"><ele>94.0</ele><time>2026-04-26T08:15:07.289Z</time></trkpt><trkpt lat="42.3953917" lon="14.2296342"><ele>94.33333333333333</ele><time>2026-04-26T08:15:08.289Z</time></trkpt><trkpt lat="42.3954508" lon="14.2298243"><ele>94.66666666666667</ele><time>2026-04-26T08:15:09.289Z</time></trkpt><trkpt lat="42.3955177" lon="14.2300268"><ele>95.0</ele><time>2026-04-26T08:15:10.289Z</time></trkpt><trkpt lat="42.3955873" lon="14.2302327"><ele>91.0</ele><time>2026-04-26T08:15:11.289Z</time></trkpt><trkpt lat="42.3956555" lon="14.230439"><ele>87.0</ele><time>2026-04-26T08:15:12.289Z</time></trkpt><trkpt lat="42.395725" lon="14.2306428"><ele>83.0</ele><time>2026-04-26T08:15:13.289Z</time></trkpt><trkpt lat="42.3957918" lon="14.2308425"><ele>82.33333333333334</ele><time>2026-04-26T08:15:14.291Z</time></trkpt><trkpt lat="42.395855" lon="14.231041"><ele>81.66666666666667</ele><time>2026-04-26T08:15:15.29Z</time></trkpt><trkpt lat="42.3959162" lon="14.2312397"><ele>81.0</ele><time>2026-04-26T08:15:16.289Z</time></trkpt><trkpt lat="42.3959802" lon="14.2314385"><ele>81.33333333333333</ele><time>2026-04-26T08:15:17.289Z</time></trkpt><trkpt lat="42.396042" lon="14.2316363"><ele>81.66666666666666</ele><time>2026-04-26T08:15:18.29Z</time></trkpt><trkpt lat="42.396102" lon="14.23183"><ele>82.0</ele><time>2026-04-26T08:15:19.29Z</time></trkpt><trkpt lat="42.3961578" lon="14.2320127"><ele>82.0</ele><time>2026-04-26T08:15:20.29Z</time></trkpt><trkpt lat="42.3962047" lon="14.2321858"><ele>82.0</ele><time>2026-04-26T08:15:21.29Z</time></trkpt><trkpt lat="42.396239" lon="14.2323515"><ele>82.0</ele><time>2026-04-26T08:15:22.288Z</time></trkpt><trkpt lat="42.3962575" lon="14.2325207"><ele>82.0</ele><time>2026-04-26T08:15:23.287Z</time></trkpt><trkpt lat="42.3962602" lon="14.2327025"><ele>82.25</ele><time>2026-04-26T08:15:24.286Z</time></trkpt><trkpt lat="42.3962512" lon="14.2328965"><ele>82.5</ele><time>2026-04-26T08:15:25.286Z</time></trkpt><trkpt lat="42.3962357" lon="14.2330875"><ele>82.75</ele><time>2026-04-26T08:15:26.287Z</time></trkpt><trkpt lat="42.3962207" lon="14.2332725"><ele>83.0</ele><time>2026-04-26T08:15:27.289Z</time></trkpt><trkpt lat="42.3962097" lon="14.2334648"><ele>82.0</ele><time>2026-04-26T08:15:28.288Z</time></trkpt><trkpt lat="42.3961985" lon="14.2336697"><ele>81.0</ele><time>2026-04-26T08:15:29.288Z</time></trkpt><trkpt lat="42.3961818" lon="14.2338782"><ele>80.0</ele><time>2026-04-26T08:15:30.291Z</time></trkpt><trkpt lat="42.396167" lon="14.234078"><ele>80.0</ele><time>2026-04-26T08:15:31.289Z</time></trkpt><trkpt lat="42.3961627" lon="14.2342707"><ele>80.0</ele><time>2026-04-26T08:15:32.286Z</time></trkpt><trkpt lat="42.3961797" lon="14.2344493"><ele>80.0</ele><time>2026-04-26T08:15:33.288Z</time></trkpt><trkpt lat="42.39622" lon="14.234608"><ele>80.0</ele><time>2026-04-26T08:15:34.287Z</time></trkpt><trkpt lat="42.396277" lon="14.2347613"><ele>79.5</ele><time>2026-04-26T08:15:35.288Z</time></trkpt><trkpt lat="42.3963337" lon="14.2349183"><ele>79.0</ele><time>2026-04-26T08:15:36.288Z</time></trkpt><trkpt lat="42.3963767" lon="14.2350807"><ele>78.5</ele><time>2026-04-26T08:15:37.288Z</time></trkpt><trkpt lat="42.3964083" lon="14.2352507"><ele>78.0</ele><time>2026-04-26T08:15:38.287Z</time></trkpt><trkpt lat="42.3964233" lon="14.2354215"><ele>77.25</ele><time>2026-04-26T08:15:39.289Z</time></trkpt><trkpt lat="42.3964133" lon="14.2355993"><ele>76.5</ele><time>2026-04-26T08:15:40.288Z</time></trkpt><trkpt lat="42.3963805" lon="14.2357808"><ele>75.75</ele><time>2026-04-26T08:15:41.287Z</time></trkpt><trkpt lat="42.3963258" lon="14.2359658"><ele>75.0</ele><time>2026-04-26T08:15:42.289Z</time></trkpt><trkpt lat="42.3962625" lon="14.2361573"><ele>75.0</ele><time>2026-04-26T08:15:43.287Z</time></trkpt><trkpt lat="42.3962042" lon="14.2363557"><ele>75.0</ele><time>2026-04-26T08:15:44.287Z</time></trkpt><trkpt lat="42.3961663" lon="14.2365593"><ele>75.0</ele><time>2026-04-26T08:15:45.288Z</time></trkpt><trkpt lat="42.3961388" lon="14.2367648"><ele>74.75</ele><time>2026-04-26T08:15:46.288Z</time></trkpt><trkpt lat="42.3961302" lon="14.2369642"><ele>74.5</ele><time>2026-04-26T08:15:47.285Z</time></trkpt><trkpt lat="42.3961373" lon="14.2371483"><ele>74.25</ele><time>2026-04-26T08:15:48.285Z</time></trkpt><trkpt lat="42.3961627" lon="14.2373262"><ele>74.0</ele><time>2026-04-26T08:15:49.286Z</time></trkpt><trkpt lat="42.3962062" lon="14.237505"><ele>73.0</ele><time>2026-04-26T08:15:50.285Z</time></trkpt><trkpt lat="42.3962643" lon="14.23769"><ele>72.0</ele><time>2026-04-26T08:15:51.286Z</time></trkpt><trkpt lat="42.3963068" lon="14.2378947"><ele>71.0</ele><time>2026-04-26T08:15:52.289Z</time></trkpt><trkpt lat="42.396344" lon="14.2381132"><ele>69.75</ele><time>2026-04-26T08:15:53.287Z</time></trkpt><trkpt lat="42.3963893" lon="14.2383278"><ele>68.5</ele><time>2026-04-26T08:15:54.29Z</time></trkpt><trkpt lat="42.396425" lon="14.2385118"><ele>67.25</ele><time>2026-04-26T08:15:55.294Z</time></trkpt><trkpt lat="42.3964535" lon="14.238648"><ele>66.0</ele><time>2026-04-26T08:15:56.29Z</time></trkpt><trkpt lat="42.3964653" lon="14.2387605"><ele>66.0</ele><time>2026-04-26T08:15:57.292Z</time></trkpt><trkpt lat="42.396472" lon="14.2388728"><ele>66.0</ele><time>2026-04-26T08:15:58.287Z</time></trkpt><trkpt lat="42.3964807" lon="14.2390027"><ele>66.0</ele><time>2026-04-26T08:15:59.288Z</time></trkpt><trkpt lat="42.3964797" lon="14.2391545"><ele>66.0</ele><time>2026-04-26T08:16:00.289Z</time></trkpt><trkpt lat="42.3964675" lon="14.2393248"><ele>66.0</ele><time>2026-04-26T08:16:01.294Z</time></trkpt><trkpt lat="42.3964455" lon="14.2395145"><ele>65.33333333333333</ele><time>2026-04-26T08:16:02.286Z</time></trkpt><trkpt lat="42.3964143" lon="14.2397177"><ele>64.66666666666666</ele><time>2026-04-26T08:16:03.288Z</time></trkpt><trkpt lat="42.3963793" lon="14.2399325"><ele>64.0</ele><time>2026-04-26T08:16:04.287Z</time></trkpt><trkpt lat="42.3963485" lon="14.2401615"><ele>62.33333333333333</ele><time>2026-04-26T08:16:05.288Z</time></trkpt><trkpt lat="42.3963132" lon="14.2404032"><ele>60.66666666666667</ele><time>2026-04-26T08:16:06.286Z</time></trkpt><trkpt lat="42.3962692" lon="14.2406532"><ele>59.0</ele><time>2026-04-26T08:16:07.287Z</time></trkpt><trkpt lat="42.3962115" lon="14.2409085"><ele>58.0</ele><time>2026-04-26T08:16:08.289Z</time></trkpt><trkpt lat="42.3961507" lon="14.2411648"><ele>57.0</ele><time>2026-04-26T08:16:09.288Z</time></trkpt><trkpt lat="42.3960897" lon="14.2414222"><ele>56.0</ele><time>2026-04-26T08:16:10.29Z</time></trkpt><trkpt lat="42.3960205" lon="14.2416737"><ele>55.0</ele><time>2026-04-26T08:16:11.289Z</time></trkpt><trkpt lat="42.3959385" lon="14.241892"><ele>54.0</ele><time>2026-04-26T08:16:12.288Z</time></trkpt><trkpt lat="42.39585" lon="14.2420783"><ele>53.0</ele><time>2026-04-26T08:16:13.287Z</time></trkpt><trkpt lat="42.3957707" lon="14.2422463"><ele>52.0</ele><time>2026-04-26T08:16:14.287Z</time></trkpt><trkpt lat="42.3957155" lon="14.242414"><ele>51.0</ele><time>2026-04-26T08:16:15.287Z</time></trkpt><trkpt lat="42.3956872" lon="14.2425937"><ele>50.0</ele><time>2026-04-26T08:16:16.288Z</time></trkpt><trkpt lat="42.3956728" lon="14.242797"><ele>49.0</ele><time>2026-04-26T08:16:17.289Z</time></trkpt><trkpt lat="42.3956643" lon="14.2430172"><ele>49.33333333333333</ele><time>2026-04-26T08:16:18.289Z</time></trkpt><trkpt lat="42.395658" lon="14.2432478"><ele>49.66666666666667</ele><time>2026-04-26T08:16:19.29Z</time></trkpt><trkpt lat="42.395651" lon="14.243486"><ele>50.0</ele><time>2026-04-26T08:16:20.29Z</time></trkpt><trkpt lat="42.3956518" lon="14.2437282"><ele>49.66666666666667</ele><time>2026-04-26T08:16:21.29Z</time></trkpt><trkpt lat="42.3956533" lon="14.2439718"><ele>49.33333333333333</ele><time>2026-04-26T08:16:22.289Z</time></trkpt><trkpt lat="42.3956485" lon="14.244219"><ele>49.0</ele><time>2026-04-26T08:16:23.291Z</time></trkpt><trkpt lat="42.395642" lon="14.2444683"><ele>49.0</ele><time>2026-04-26T08:16:24.29Z</time></trkpt><trkpt lat="42.3956312" lon="14.2447222"><ele>49.0</ele><time>2026-04-26T08:16:25.288Z</time></trkpt><trkpt lat="42.3956228" lon="14.2449727"><ele>49.0</ele><time>2026-04-26T08:16:26.291Z</time></trkpt><trkpt lat="42.3956257" lon="14.2452207"><ele>48.666666666666664</ele><time>2026-04-26T08:16:27.293Z</time></trkpt><trkpt lat="42.395623" lon="14.245457"><ele>48.33333333333333</ele><time>2026-04-26T08:16:28.292Z</time></trkpt><trkpt lat="42.395618" lon="14.2456843"><ele>48.0</ele><time>2026-04-26T08:16:29.288Z</time></trkpt><trkpt lat="42.3955968" lon="14.2459063"><ele>47.666666666666664</ele><time>2026-04-26T08:16:30.29Z</time></trkpt><trkpt lat="42.3955587" lon="14.2461253"><ele>47.33333333333333</ele><time>2026-04-26T08:16:31.29Z</time></trkpt><trkpt lat="42.3955022" lon="14.2463425"><ele>47.0</ele><time>2026-04-26T08:16:32.288Z</time></trkpt><trkpt lat="42.3954353" lon="14.246555"><ele>47.0</ele><time>2026-04-26T08:16:33.29Z</time></trkpt><trkpt lat="42.395379" lon="14.2467692"><ele>47.0</ele><time>2026-04-26T08:16:34.289Z</time></trkpt><trkpt lat="42.3953317" lon="14.2469908"><ele>47.0</ele><time>2026-04-26T08:16:35.288Z</time></trkpt><trkpt lat="42.3952912" lon="14.2472178"><ele>46.0</ele><time>2026-04-26T08:16:36.287Z</time></trkpt><trkpt lat="42.3952505" lon="14.2474467"><ele>45.0</ele><time>2026-04-26T08:16:37.286Z</time></trkpt><trkpt lat="42.3952215" lon="14.2476775"><ele>44.0</ele><time>2026-04-26T08:16:38.288Z</time></trkpt><trkpt lat="42.3952103" lon="14.2479082"><ele>43.0</ele><time>2026-04-26T08:16:39.29Z</time></trkpt><trkpt lat="42.3952205" lon="14.2481358"><ele>42.0</ele><time>2026-04-26T08:16:40.29Z</time></trkpt><trkpt lat="42.3952373" lon="14.2483603"><ele>41.0</ele><time>2026-04-26T08:16:41.288Z</time></trkpt><trkpt lat="42.3952393" lon="14.2485797"><ele>41.0</ele><time>2026-04-26T08:16:42.291Z</time></trkpt><trkpt lat="42.3952213" lon="14.248796"><ele>41.0</ele><time>2026-04-26T08:16:43.289Z</time></trkpt><trkpt lat="42.3951903" lon="14.249015"><ele>41.0</ele><time>2026-04-26T08:16:44.288Z</time></trkpt><trkpt lat="42.395154" lon="14.2492352"><ele>41.0</ele><time>2026-04-26T08:16:45.292Z</time></trkpt><trkpt lat="42.3951067" lon="14.2494512"><ele>41.0</ele><time>2026-04-26T08:16:46.29Z</time></trkpt><trkpt lat="42.3950455" lon="14.249663"><ele>41.0</ele><time>2026-04-26T08:16:47.303Z</time></trkpt><trkpt lat="42.3949802" lon="14.249873"><ele>40.0</ele><time>2026-04-26T08:16:48.291Z</time></trkpt><trkpt lat="42.3949147" lon="14.2500868"><ele>39.0</ele><time>2026-04-26T08:16:49.289Z</time></trkpt><trkpt lat="42.3948488" lon="14.2502985"><ele>38.0</ele><time>2026-04-26T08:16:50.291Z</time></trkpt><trkpt lat="42.394786" lon="14.2504902"><ele>37.5</ele><time>2026-04-26T08:16:51.293Z</time></trkpt><trkpt lat="42.3947292" lon="14.2506602"><ele>37.0</ele><time>2026-04-26T08:16:52.293Z</time></trkpt><trkpt lat="42.3946788" lon="14.2508092"><ele>36.5</ele><time>2026-04-26T08:16:53.297Z</time></trkpt><trkpt lat="42.39463" lon="14.2509493"><ele>36.0</ele><time>2026-04-26T08:16:54.291Z</time></trkpt><trkpt lat="42.39458" lon="14.2510878"><ele>36.75</ele><time>2026-04-26T08:16:55.289Z</time></trkpt><trkpt lat="42.3945323" lon="14.25123"><ele>37.5</ele><time>2026-04-26T08:16:56.29Z</time></trkpt><trkpt lat="42.3944862" lon="14.2513777"><ele>38.25</ele><time>2026-04-26T08:16:57.29Z</time></trkpt><trkpt lat="42.3944392" lon="14.2515263"><ele>39.0</ele><time>2026-04-26T08:16:58.291Z</time></trkpt><trkpt lat="42.3943958" lon="14.2516718"><ele>39.0</ele><time>2026-04-26T08:16:59.289Z</time></trkpt><trkpt lat="42.3943542" lon="14.251809"><ele>39.0</ele><time>2026-04-26T08:17:00.29Z</time></trkpt><trkpt lat="42.3943177" lon="14.2519332"><ele>39.0</ele><time>2026-04-26T08:17:01.288Z</time></trkpt><trkpt lat="42.394289" lon="14.252039"><ele>39.0</ele><time>2026-04-26T08:17:02.288Z</time></trkpt><trkpt lat="42.3942457" lon="14.2521558"><ele>39.0</ele><time>2026-04-26T08:17:04.287Z</time></trkpt><trkpt lat="42.3942322" lon="14.2522413"><ele>38.5</ele><time>2026-04-26T08:17:06.289Z</time></trkpt><trkpt lat="42.394229" lon="14.2523743"><ele>38.0</ele><time>2026-04-26T08:17:08.291Z</time></trkpt><trkpt lat="42.3942237" lon="14.2524747"><ele>37.5</ele><time>2026-04-26T08:17:09.285Z</time></trkpt><trkpt lat="42.3942205" lon="14.2525835"><ele>37.0</ele><time>2026-04-26T08:17:10.286Z</time></trkpt><trkpt lat="42.3942138" lon="14.2526773"><ele>36.5</ele><time>2026-04-26T08:17:11.288Z</time></trkpt><trkpt lat="42.3941913" lon="14.2527808"><ele>36.0</ele><time>2026-04-26T08:17:13.289Z</time></trkpt><trkpt lat="42.3941118" lon="14.2527795"><ele>36.0</ele><time>2026-04-26T08:17:16.29Z</time></trkpt><trkpt lat="42.3940518" lon="14.2527312"><ele>36.0</ele><time>2026-04-26T08:17:17.289Z</time></trkpt><trkpt lat="42.3939705" lon="14.2526652"><ele>36.0</ele><time>2026-04-26T08:17:18.289Z</time></trkpt><trkpt lat="42.3938698" lon="14.2525847"><ele>36.0</ele><time>2026-04-26T08:17:19.287Z</time></trkpt><trkpt lat="42.3937542" lon="14.2524887"><ele>36.0</ele><time>2026-04-26T08:17:20.292Z</time></trkpt><trkpt lat="42.3936293" lon="14.2523828"><ele>37.666666666666664</ele><time>2026-04-26T08:17:21.304Z</time></trkpt><trkpt lat="42.3934968" lon="14.2522708"><ele>39.33333333333333</ele><time>2026-04-26T08:17:22.293Z</time></trkpt><trkpt lat="42.3933573" lon="14.2521527"><ele>41.0</ele><time>2026-04-26T08:17:23.289Z</time></trkpt><trkpt lat="42.393206" lon="14.2520247"><ele>41.0</ele><time>2026-04-26T08:17:24.286Z</time></trkpt><trkpt lat="42.393043" lon="14.2518877"><ele>41.0</ele><time>2026-04-26T08:17:25.284Z</time></trkpt><trkpt lat="42.3928773" lon="14.2517475"><ele>41.0</ele><time>2026-04-26T08:17:26.285Z</time></trkpt><trkpt lat="42.392712" lon="14.251607"><ele>39.33333333333333</ele><time>2026-04-26T08:17:27.285Z</time></trkpt><trkpt lat="42.3925563" lon="14.2514743"><ele>37.666666666666664</ele><time>2026-04-26T08:17:28.285Z</time></trkpt><trkpt lat="42.3924022" lon="14.251343"><ele>36.0</ele><time>2026-04-26T08:17:29.287Z</time></trkpt><trkpt lat="42.392244" lon="14.2512058"><ele>35.666666666666664</ele><time>2026-04-26T08:17:30.289Z</time></trkpt><trkpt lat="42.3920838" lon="14.251066"><ele>35.33333333333333</ele><time>2026-04-26T08:17:31.289Z</time></trkpt><trkpt lat="42.391922" lon="14.2509273"><ele>35.0</ele><time>2026-04-26T08:17:32.29Z</time></trkpt><trkpt lat="42.3917585" lon="14.2507893"><ele>35.0</ele><time>2026-04-26T08:17:33.288Z</time></trkpt><trkpt lat="42.391595" lon="14.2506512"><ele>35.0</ele><time>2026-04-26T08:17:34.289Z</time></trkpt><trkpt lat="42.3914308" lon="14.2505142"><ele>35.0</ele><time>2026-04-26T08:17:35.287Z</time></trkpt><trkpt lat="42.3912673" lon="14.250377"><ele>35.666666666666664</ele><time>2026-04-26T08:17:36.289Z</time></trkpt><trkpt lat="42.3911045" lon="14.2502383"><ele>36.333333333333336</ele><time>2026-04-26T08:17:37.29Z</time></trkpt><trkpt lat="42.3909418" lon="14.2500988"><ele>37.0</ele><time>2026-04-26T08:17:38.29Z</time></trkpt><trkpt lat="42.390778" lon="14.2499615"><ele>37.0</ele><time>2026-04-26T08:17:39.289Z</time></trkpt><trkpt lat="42.3906157" lon="14.2498273"><ele>37.0</ele><time>2026-04-26T08:17:40.289Z</time></trkpt><trkpt lat="42.3904508" lon="14.2496995"><ele>37.0</ele><time>2026-04-26T08:17:41.289Z</time></trkpt><trkpt lat="42.3902812" lon="14.249581"><ele>38.0</ele><time>2026-04-26T08:17:42.29Z</time></trkpt><trkpt lat="42.3901068" lon="14.249473"><ele>39.0</ele><time>2026-04-26T08:17:43.289Z</time></trkpt><trkpt lat="42.389931" lon="14.2493695"><ele>40.0</ele><time>2026-04-26T08:17:44.287Z</time></trkpt><trkpt lat="42.3897532" lon="14.2492657"><ele>40.333333333333336</ele><time>2026-04-26T08:17:45.289Z</time></trkpt><trkpt lat="42.3895752" lon="14.2491582"><ele>40.666666666666664</ele><time>2026-04-26T08:17:46.289Z</time></trkpt><trkpt lat="42.3893977" lon="14.2490467"><ele>41.0</ele><time>2026-04-26T08:17:47.29Z</time></trkpt><trkpt lat="42.3892207" lon="14.2489307"><ele>41.0</ele><time>2026-04-26T08:17:48.29Z</time></trkpt><trkpt lat="42.3890482" lon="14.2488045"><ele>41.0</ele><time>2026-04-26T08:17:49.288Z</time></trkpt><trkpt lat="42.3888778" lon="14.2486653"><ele>41.0</ele><time>2026-04-26T08:17:50.288Z</time></trkpt><trkpt lat="42.388713" lon="14.248511"><ele>40.0</ele><time>2026-04-26T08:17:51.288Z</time></trkpt><trkpt lat="42.3885532" lon="14.2483445"><ele>39.0</ele><time>2026-04-26T08:17:52.287Z</time></trkpt><trkpt lat="42.3883978" lon="14.2481658"><ele>38.0</ele><time>2026-04-26T08:17:53.287Z</time></trkpt><trkpt lat="42.3882482" lon="14.247974"><ele>37.33333333333333</ele><time>2026-04-26T08:17:54.289Z</time></trkpt><trkpt lat="42.3881025" lon="14.2477723"><ele>36.666666666666664</ele><time>2026-04-26T08:17:55.292Z</time></trkpt><trkpt lat="42.3879578" lon="14.2475673"><ele>36.0</ele><time>2026-04-26T08:17:56.291Z</time></trkpt><trkpt lat="42.3878115" lon="14.2473635"><ele>38.333333333333336</ele><time>2026-04-26T08:17:57.294Z</time></trkpt><trkpt lat="42.387669" lon="14.2471632"><ele>40.66666666666667</ele><time>2026-04-26T08:17:58.293Z</time></trkpt><trkpt lat="42.3875435" lon="14.2469858"><ele>43.0</ele><time>2026-04-26T08:17:59.288Z</time></trkpt><trkpt lat="42.3874412" lon="14.2468397"><ele>43.0</ele><time>2026-04-26T08:18:00.293Z</time></trkpt><trkpt lat="42.3873612" lon="14.2467235"><ele>43.0</ele><time>2026-04-26T08:18:01.294Z</time></trkpt><trkpt lat="42.3872957" lon="14.2466267"><ele>43.0</ele><time>2026-04-26T08:18:02.292Z</time></trkpt><trkpt lat="42.3872363" lon="14.2465363"><ele>43.0</ele><time>2026-04-26T08:18:03.291Z</time></trkpt><trkpt lat="42.387188" lon="14.2464643"><ele>43.0</ele><time>2026-04-26T08:18:04.289Z</time></trkpt><trkpt lat="42.3871358" lon="14.246373"><ele>42.833333333333336</ele><time>2026-04-26T08:18:06.288Z</time></trkpt><trkpt lat="42.3871228" lon="14.2462503"><ele>42.66666666666667</ele><time>2026-04-26T08:18:09.29Z</time></trkpt><trkpt lat="42.3870795" lon="14.2461218"><ele>42.5</ele><time>2026-04-26T08:18:11.289Z</time></trkpt><trkpt lat="42.3870312" lon="14.2460422"><ele>42.333333333333336</ele><time>2026-04-26T08:18:12.289Z</time></trkpt><trkpt lat="42.3869822" lon="14.2459617"><ele>42.166666666666664</ele><time>2026-04-26T08:18:13.288Z</time></trkpt><trkpt lat="42.3869397" lon="14.245889"><ele>42.0</ele><time>2026-04-26T08:18:14.287Z</time></trkpt><trkpt lat="42.3868613" lon="14.2457672"><ele>42.666666666666664</ele><time>2026-04-26T08:18:16.286Z</time></trkpt><trkpt lat="42.3866683" lon="14.2455148"><ele>43.33333333333333</ele><time>2026-04-26T08:18:19.29Z</time></trkpt><trkpt lat="42.3865805" lon="14.2454032"><ele>44.0</ele><time>2026-04-26T08:18:20.29Z</time></trkpt><trkpt lat="42.3864823" lon="14.245287"><ele>46.0</ele><time>2026-04-26T08:18:21.288Z</time></trkpt><trkpt lat="42.3857588" lon="14.2446015"><ele>46.0</ele><time>2026-04-26T08:18:27.289Z</time></trkpt><trkpt lat="42.3856258" lon="14.2444867"><ele>46.0</ele><time>2026-04-26T08:18:28.286Z</time></trkpt><trkpt lat="42.3854863" lon="14.2443653"><ele>46.0</ele><time>2026-04-26T08:18:29.291Z</time></trkpt><trkpt lat="42.3853465" lon="14.2442375"><ele>46.66666666666667</ele><time>2026-04-26T08:18:30.292Z</time></trkpt><trkpt lat="42.3852133" lon="14.2441102"><ele>47.333333333333336</ele><time>2026-04-26T08:18:31.292Z</time></trkpt><trkpt lat="42.3850927" lon="14.2439857"><ele>48.0</ele><time>2026-04-26T08:18:32.292Z</time></trkpt><trkpt lat="42.38499" lon="14.2438562"><ele>48.0</ele><time>2026-04-26T08:18:33.29Z</time></trkpt><trkpt lat="42.3849106" lon="14.2437201"><ele>48.0</ele><time>2026-04-26T08:18:34.287Z</time></trkpt><trkpt lat="42.3848397" lon="14.2435935"><ele>48.0</ele><time>2026-04-26T08:18:35.288Z</time></trkpt><trkpt lat="42.3847544" lon="14.2434876"><ele>48.0</ele><time>2026-04-26T08:18:36.29Z</time></trkpt><trkpt lat="42.3846464" lon="14.2433959"><ele>45.666666666666664</ele><time>2026-04-26T08:18:37.289Z</time></trkpt><trkpt lat="42.3845189" lon="14.2433158"><ele>43.33333333333333</ele><time>2026-04-26T08:18:38.288Z</time></trkpt><trkpt lat="42.3843769" lon="14.2432411"><ele>41.0</ele><time>2026-04-26T08:18:39.287Z</time></trkpt><trkpt lat="42.3842257" lon="14.2431575"><ele>41.666666666666664</ele><time>2026-04-26T08:18:40.289Z</time></trkpt><trkpt lat="42.3840704" lon="14.2430509"><ele>42.333333333333336</ele><time>2026-04-26T08:18:41.29Z</time></trkpt><trkpt lat="42.3839123" lon="14.2429229"><ele>43.0</ele><time>2026-04-26T08:18:42.291Z</time></trkpt><trkpt lat="42.3837531" lon="14.24278"><ele>43.0</ele><time>2026-04-26T08:18:43.291Z</time></trkpt><trkpt lat="42.383594" lon="14.2426283"><ele>43.0</ele><time>2026-04-26T08:18:44.288Z</time></trkpt><trkpt lat="42.3834331" lon="14.2424721"><ele>43.0</ele><time>2026-04-26T08:18:45.29Z</time></trkpt><trkpt lat="42.383271" lon="14.2423148"><ele>44.0</ele><time>2026-04-26T08:18:46.289Z</time></trkpt><trkpt lat="42.3831097" lon="14.242159"><ele>45.0</ele><time>2026-04-26T08:18:47.29Z</time></trkpt><trkpt lat="42.3829575" lon="14.2420104"><ele>46.0</ele><time>2026-04-26T08:18:48.291Z</time></trkpt><trkpt lat="42.3828172" lon="14.2418714"><ele>46.0</ele><time>2026-04-26T08:18:49.289Z</time></trkpt><trkpt lat="42.3826858" lon="14.2417407"><ele>46.0</ele><time>2026-04-26T08:18:50.281Z</time></trkpt><trkpt lat="42.382558" lon="14.2416139"><ele>46.0</ele><time>2026-04-26T08:18:51.289Z</time></trkpt><trkpt lat="42.3824446" lon="14.2415008"><ele>46.4</ele><time>2026-04-26T08:18:52.288Z</time></trkpt><trkpt lat="42.3823465" lon="14.2414153"><ele>46.8</ele><time>2026-04-26T08:18:53.289Z</time></trkpt><trkpt lat="42.3822629" lon="14.2413473"><ele>47.199999999999996</ele><time>2026-04-26T08:18:54.289Z</time></trkpt><trkpt lat="42.3821928" lon="14.2412917"><ele>47.599999999999994</ele><time>2026-04-26T08:18:55.289Z</time></trkpt><trkpt lat="42.3821095" lon="14.241219"><ele>48.0</ele><time>2026-04-26T08:18:56.289Z</time></trkpt><trkpt lat="42.3820244" lon="14.241137"><ele>48.0</ele><time>2026-04-26T08:18:57.289Z</time></trkpt><trkpt lat="42.3819352" lon="14.2410494"><ele>48.0</ele><time>2026-04-26T08:18:58.289Z</time></trkpt><trkpt lat="42.3818531" lon="14.2409698"><ele>48.0</ele><time>2026-04-26T08:18:59.288Z</time></trkpt><trkpt lat="42.3817829" lon="14.2409022"><ele>48.0</ele><time>2026-04-26T08:19:00.289Z</time></trkpt><trkpt lat="42.3817081" lon="14.2408282"><ele>48.0</ele><time>2026-04-26T08:19:01.29Z</time></trkpt><trkpt lat="42.3816209" lon="14.2407469"><ele>48.0</ele><time>2026-04-26T08:19:02.288Z</time></trkpt><trkpt lat="42.3815199" lon="14.2406609"><ele>48.0</ele><time>2026-04-26T08:19:03.287Z</time></trkpt><trkpt lat="42.3814051" lon="14.2405635"><ele>48.0</ele><time>2026-04-26T08:19:04.287Z</time></trkpt><trkpt lat="42.38127" lon="14.2404485"><ele>48.0</ele><time>2026-04-26T08:19:05.287Z</time></trkpt><trkpt lat="42.3811332" lon="14.2403325"><ele>50.33333333333333</ele><time>2026-04-26T08:19:06.289Z</time></trkpt><trkpt lat="42.3809927" lon="14.2402082"><ele>52.666666666666664</ele><time>2026-04-26T08:19:07.291Z</time></trkpt><trkpt lat="42.3808557" lon="14.240081"><ele>55.0</ele><time>2026-04-26T08:19:08.294Z</time></trkpt><trkpt lat="42.3807308" lon="14.2399655"><ele>55.0</ele><time>2026-04-26T08:19:09.289Z</time></trkpt><trkpt lat="42.3806223" lon="14.2398643"><ele>55.0</ele><time>2026-04-26T08:19:10.288Z</time></trkpt><trkpt lat="42.3805208" lon="14.2397645"><ele>55.0</ele><time>2026-04-26T08:19:11.293Z</time></trkpt><trkpt lat="42.3804262" lon="14.2396492"><ele>55.0</ele><time>2026-04-26T08:19:12.292Z</time></trkpt><trkpt lat="42.3803373" lon="14.2395207"><ele>55.4</ele><time>2026-04-26T08:19:13.293Z</time></trkpt><trkpt lat="42.3802583" lon="14.2394023"><ele>55.8</ele><time>2026-04-26T08:19:14.29Z</time></trkpt><trkpt lat="42.3801945" lon="14.2393115"><ele>56.2</ele><time>2026-04-26T08:19:15.287Z</time></trkpt><trkpt lat="42.3801488" lon="14.2392472"><ele>56.6</ele><time>2026-04-26T08:19:16.288Z</time></trkpt><trkpt lat="42.3801015" lon="14.2391063"><ele>57.0</ele><time>2026-04-26T08:19:18.288Z</time></trkpt><trkpt lat="42.380089" lon="14.2389877"><ele>57.0</ele><time>2026-04-26T08:19:20.288Z</time></trkpt><trkpt lat="42.3800163" lon="14.239036"><ele>57.0</ele><time>2026-04-26T08:19:26.287Z</time></trkpt><trkpt lat="42.3799533" lon="14.2391885"><ele>57.0</ele><time>2026-04-26T08:19:28.288Z</time></trkpt><trkpt lat="42.3799072" lon="14.2392653"><ele>57.0</ele><time>2026-04-26T08:19:29.288Z</time></trkpt><trkpt lat="42.3798558" lon="14.2393282"><ele>57.0</ele><time>2026-04-26T08:19:30.286Z</time></trkpt><trkpt lat="42.3797932" lon="14.2393858"><ele>57.0</ele><time>2026-04-26T08:19:31.286Z</time></trkpt><trkpt lat="42.3797227" lon="14.239444"><ele>56.333333333333336</ele><time>2026-04-26T08:19:32.288Z</time></trkpt><trkpt lat="42.379646" lon="14.2395062"><ele>55.66666666666667</ele><time>2026-04-26T08:19:33.292Z</time></trkpt><trkpt lat="42.3795618" lon="14.239562"><ele>55.0</ele><time>2026-04-26T08:19:34.289Z</time></trkpt><trkpt lat="42.379477" lon="14.2396013"><ele>54.333333333333336</ele><time>2026-04-26T08:19:35.29Z</time></trkpt><trkpt lat="42.3793945" lon="14.2396272"><ele>53.66666666666667</ele><time>2026-04-26T08:19:36.291Z</time></trkpt><trkpt lat="42.379306" lon="14.2396513"><ele>53.0</ele><time>2026-04-26T08:19:37.289Z</time></trkpt><trkpt lat="42.3792097" lon="14.239682"><ele>53.00000000000001</ele><time>2026-04-26T08:19:38.29Z</time></trkpt><trkpt lat="42.379125" lon="14.2397253"><ele>53.0</ele><time>2026-04-26T08:19:39.292Z</time></trkpt><trkpt lat="42.37906" lon="14.2397872"><ele>53.0</ele><time>2026-04-26T08:19:40.29Z</time></trkpt><trkpt lat="42.379012" lon="14.2398607"><ele>53.0</ele><time>2026-04-26T08:19:41.294Z</time></trkpt><trkpt lat="42.3789677" lon="14.2399307"><ele>53.00000000000001</ele><time>2026-04-26T08:19:42.293Z</time></trkpt><trkpt lat="42.3788742" lon="14.2400073"><ele>53.0</ele><time>2026-04-26T08:19:44.29Z</time></trkpt><trkpt lat="42.3788048" lon="14.2400372"><ele>52.00000000000001</ele><time>2026-04-26T08:19:46.289Z</time></trkpt><trkpt lat="42.3787408" lon="14.2400418"><ele>51.0</ele><time>2026-04-26T08:19:48.29Z</time></trkpt><trkpt lat="42.3786507" lon="14.240026"><ele>50.0</ele><time>2026-04-26T08:19:50.289Z</time></trkpt><trkpt lat="42.3785355" lon="14.2399997"><ele>49.0</ele><time>2026-04-26T08:19:52.288Z</time></trkpt><trkpt lat="42.3784703" lon="14.2399835"><ele>48.0</ele><time>2026-04-26T08:19:53.287Z</time></trkpt><trkpt lat="42.378401" lon="14.239962"><ele>47.0</ele><time>2026-04-26T08:19:54.287Z</time></trkpt><trkpt lat="42.3783292" lon="14.2399393"><ele>47.0</ele><time>2026-04-26T08:19:55.288Z</time></trkpt><trkpt lat="42.3782583" lon="14.2399142"><ele>47.0</ele><time>2026-04-26T08:19:56.293Z</time></trkpt><trkpt lat="42.378191" lon="14.2398885"><ele>47.0</ele><time>2026-04-26T08:19:57.293Z</time></trkpt><trkpt lat="42.3780838" lon="14.2398475"><ele>47.0</ele><time>2026-04-26T08:19:59.291Z</time></trkpt><trkpt lat="42.3779693" lon="14.2397912"><ele>47.0</ele><time>2026-04-26T08:20:01.29Z</time></trkpt><trkpt lat="42.3779012" lon="14.2397527"><ele>47.0</ele><time>2026-04-26T08:20:02.292Z</time></trkpt><trkpt lat="42.3778323" lon="14.2397123"><ele>47.0</ele><time>2026-04-26T08:20:03.29Z</time></trkpt><trkpt lat="42.3777718" lon="14.2396755"><ele>47.0</ele><time>2026-04-26T08:20:04.291Z</time></trkpt><trkpt lat="42.3775838" lon="14.2395522"><ele>47.0</ele><time>2026-04-26T08:20:07.293Z</time></trkpt><trkpt lat="42.3774187" lon="14.2394402"><ele>47.0</ele><time>2026-04-26T08:20:10.293Z</time></trkpt><trkpt lat="42.3771883" lon="14.2392742"><ele>47.0</ele><time>2026-04-26T08:20:15.292Z</time></trkpt><trkpt lat="42.3771313" lon="14.2392255"><ele>47.0</ele><time>2026-04-26T08:20:17.288Z</time></trkpt><trkpt lat="42.377277" lon="14.239448"><ele>47.0</ele><time>2026-04-26T08:20:41.29Z</time></trkpt><trkpt lat="42.3776078" lon="14.2397282"><ele>47.0</ele><time>2026-04-26T08:20:44.285Z</time></trkpt><trkpt lat="42.3779437" lon="14.2400022"><ele>47.0</ele><time>2026-04-26T08:20:47.291Z</time></trkpt><trkpt lat="42.3784458" lon="14.240414"><ele>47.0</ele><time>2026-04-26T08:20:52.291Z</time></trkpt><trkpt lat="42.3785262" lon="14.2404787"><ele>47.0</ele><time>2026-04-26T08:20:53.291Z</time></trkpt><trkpt lat="42.3785967" lon="14.2405217"><ele>47.0</ele><time>2026-04-26T08:20:54.29Z</time></trkpt><trkpt lat="42.3786607" lon="14.2405352"><ele>47.0</ele><time>2026-04-26T08:20:55.289Z</time></trkpt><trkpt lat="42.3787263" lon="14.2405123"><ele>47.0</ele><time>2026-04-26T08:20:56.29Z</time></trkpt><trkpt lat="42.3787863" lon="14.2404502"><ele>47.0</ele><time>2026-04-26T08:20:57.289Z</time></trkpt><trkpt lat="42.3788555" lon="14.240281"><ele>47.0</ele><time>2026-04-26T08:20:59.286Z</time></trkpt><trkpt lat="42.3788462" lon="14.2401315"><ele>47.0</ele><time>2026-04-26T08:21:01.288Z</time></trkpt><trkpt lat="42.3787352" lon="14.2400373"><ele>47.0</ele><time>2026-04-26T08:21:03.289Z</time></trkpt><trkpt lat="42.3786488" lon="14.2400135"><ele>47.0</ele><time>2026-04-26T08:21:04.289Z</time></trkpt><trkpt lat="42.3785492" lon="14.2399882"><ele>47.0</ele><time>2026-04-26T08:21:05.288Z</time></trkpt><trkpt lat="42.3784412" lon="14.239958"><ele>47.0</ele><time>2026-04-26T08:21:06.291Z</time></trkpt><trkpt lat="42.3783417" lon="14.2399257"><ele>47.0</ele><time>2026-04-26T08:21:07.287Z</time></trkpt><trkpt lat="42.3782588" lon="14.2398855"><ele>47.0</ele><time>2026-04-26T08:21:08.287Z</time></trkpt><trkpt lat="42.3781823" lon="14.2398328"><ele>47.0</ele><time>2026-04-26T08:21:09.29Z</time></trkpt><trkpt lat="42.378104" lon="14.239774"><ele>47.0</ele><time>2026-04-26T08:21:10.296Z</time></trkpt><trkpt lat="42.3780177" lon="14.2397162"><ele>47.0</ele><time>2026-04-26T08:21:11.294Z</time></trkpt><trkpt lat="42.3779193" lon="14.2396527"><ele>47.0</ele><time>2026-04-26T08:21:12.293Z</time></trkpt><trkpt lat="42.3778077" lon="14.239579"><ele>47.0</ele><time>2026-04-26T08:21:13.289Z</time></trkpt><trkpt lat="42.3776877" lon="14.2394983"><ele>47.0</ele><time>2026-04-26T08:21:14.288Z</time></trkpt><trkpt lat="42.3775615" lon="14.2394072"><ele>47.0</ele><time>2026-04-26T08:21:15.29Z</time></trkpt><trkpt lat="42.377431" lon="14.2393052"><ele>47.0</ele><time>2026-04-26T08:21:16.29Z</time></trkpt><trkpt lat="42.3772968" lon="14.2391947"><ele>47.0</ele><time>2026-04-26T08:21:17.289Z</time></trkpt><trkpt lat="42.3771595" lon="14.2390783"><ele>49.33333333333333</ele><time>2026-04-26T08:21:18.289Z</time></trkpt><trkpt lat="42.377019" lon="14.238959"><ele>51.666666666666664</ele><time>2026-04-26T08:21:19.288Z</time></trkpt><trkpt lat="42.376876" lon="14.2388382"><ele>54.0</ele><time>2026-04-26T08:21:20.288Z</time></trkpt><trkpt lat="42.3767327" lon="14.2387172"><ele>54.0</ele><time>2026-04-26T08:21:21.289Z</time></trkpt><trkpt lat="42.3765912" lon="14.2385923"><ele>54.0</ele><time>2026-04-26T08:21:22.289Z</time></trkpt><trkpt lat="42.376461" lon="14.238471"><ele>54.0</ele><time>2026-04-26T08:21:23.288Z</time></trkpt><trkpt lat="42.3763422" lon="14.2383608"><ele>54.5</ele><time>2026-04-26T08:21:24.288Z</time></trkpt><trkpt lat="42.3762252" lon="14.2382658"><ele>55.0</ele><time>2026-04-26T08:21:25.287Z</time></trkpt><trkpt lat="42.376104" lon="14.2381828"><ele>55.5</ele><time>2026-04-26T08:21:26.289Z</time></trkpt><trkpt lat="42.3759827" lon="14.2380925"><ele>56.0</ele><time>2026-04-26T08:21:27.289Z</time></trkpt><trkpt lat="42.3758615" lon="14.2379885"><ele>56.0</ele><time>2026-04-26T08:21:28.289Z</time></trkpt><trkpt lat="42.3757367" lon="14.2378815"><ele>56.0</ele><time>2026-04-26T08:21:29.288Z</time></trkpt><trkpt lat="42.3756212" lon="14.2377813"><ele>56.0</ele><time>2026-04-26T08:21:30.287Z</time></trkpt><trkpt lat="42.3755317" lon="14.2377045"><ele>56.0</ele><time>2026-04-26T08:21:31.287Z</time></trkpt><trkpt lat="42.3754482" lon="14.2376357"><ele>56.0</ele><time>2026-04-26T08:21:32.288Z</time></trkpt><trkpt lat="42.3753453" lon="14.237557"><ele>56.0</ele><time>2026-04-26T08:21:33.288Z</time></trkpt><trkpt lat="42.3752307" lon="14.237469"><ele>56.0</ele><time>2026-04-26T08:21:34.288Z</time></trkpt><trkpt lat="42.3751048" lon="14.2373778"><ele>56.0</ele><time>2026-04-26T08:21:35.288Z</time></trkpt><trkpt lat="42.3749668" lon="14.2372835"><ele>56.0</ele><time>2026-04-26T08:21:36.288Z</time></trkpt><trkpt lat="42.374823" lon="14.2371828"><ele>56.0</ele><time>2026-04-26T08:21:37.288Z</time></trkpt><trkpt lat="42.374676" lon="14.2370765"><ele>56.0</ele><time>2026-04-26T08:21:38.288Z</time></trkpt><trkpt lat="42.3745263" lon="14.236966"><ele>55.333333333333336</ele><time>2026-04-26T08:21:39.288Z</time></trkpt><trkpt lat="42.3743758" lon="14.2368503"><ele>54.66666666666667</ele><time>2026-04-26T08:21:40.29Z</time></trkpt><trkpt lat="42.374221" lon="14.2367328"><ele>54.0</ele><time>2026-04-26T08:21:41.288Z</time></trkpt><trkpt lat="42.3740628" lon="14.2366115"><ele>54.0</ele><time>2026-04-26T08:21:42.29Z</time></trkpt><trkpt lat="42.3739032" lon="14.2364873"><ele>54.0</ele><time>2026-04-26T08:21:43.292Z</time></trkpt><trkpt lat="42.3737415" lon="14.2363645"><ele>54.0</ele><time>2026-04-26T08:21:44.291Z</time></trkpt><trkpt lat="42.373581" lon="14.2362452"><ele>56.66666666666667</ele><time>2026-04-26T08:21:45.29Z</time></trkpt><trkpt lat="42.3734243" lon="14.2361315"><ele>59.333333333333336</ele><time>2026-04-26T08:21:46.289Z</time></trkpt><trkpt lat="42.3732708" lon="14.2360243"><ele>62.0</ele><time>2026-04-26T08:21:47.288Z</time></trkpt><trkpt lat="42.373119" lon="14.2359215"><ele>59.66666666666667</ele><time>2026-04-26T08:21:48.29Z</time></trkpt><trkpt lat="42.372969" lon="14.2358213"><ele>57.33333333333333</ele><time>2026-04-26T08:21:49.289Z</time></trkpt><trkpt lat="42.3728285" lon="14.235733"><ele>55.0</ele><time>2026-04-26T08:21:50.287Z</time></trkpt><trkpt lat="42.3727028" lon="14.2356525"><ele>56.2</ele><time>2026-04-26T08:21:51.29Z</time></trkpt><trkpt lat="42.3725897" lon="14.2355802"><ele>57.4</ele><time>2026-04-26T08:21:52.288Z</time></trkpt><trkpt lat="42.372491" lon="14.2355087"><ele>58.599999999999994</ele><time>2026-04-26T08:21:53.29Z</time></trkpt><trkpt lat="42.3724015" lon="14.2354308"><ele>59.8</ele><time>2026-04-26T08:21:54.292Z</time></trkpt><trkpt lat="42.3723208" lon="14.2353388"><ele>61.0</ele><time>2026-04-26T08:21:55.29Z</time></trkpt><trkpt lat="42.3722677" lon="14.235234"><ele>60.99999999999999</ele><time>2026-04-26T08:21:56.289Z</time></trkpt><trkpt lat="42.3722555" lon="14.2351345"><ele>61.0</ele><time>2026-04-26T08:21:57.289Z</time></trkpt><trkpt lat="42.3722842" lon="14.2350567"><ele>61.0</ele><time>2026-04-26T08:21:58.287Z</time></trkpt><trkpt lat="42.37234" lon="14.235008"><ele>61.0</ele><time>2026-04-26T08:21:59.288Z</time></trkpt><trkpt lat="42.3724113" lon="14.234989"><ele>60.99999999999999</ele><time>2026-04-26T08:22:00.288Z</time></trkpt><trkpt lat="42.3724812" lon="14.234993"><ele>61.0</ele><time>2026-04-26T08:22:01.292Z</time></trkpt><trkpt lat="42.3725887" lon="14.2349937"><ele>60.99999999999999</ele><time>2026-04-26T08:22:03.288Z</time></trkpt><trkpt lat="42.372625" lon="14.2349235"><ele>61.0</ele><time>2026-04-26T08:22:10.288Z</time></trkpt><trkpt lat="42.3725613" lon="14.234845"><ele>61.0</ele><time>2026-04-26T08:22:12.289Z</time></trkpt><trkpt lat="42.372488" lon="14.2348193"><ele>61.0</ele><time>2026-04-26T08:22:13.289Z</time></trkpt><trkpt lat="42.3723943" lon="14.2348082"><ele>60.99999999999999</ele><time>2026-04-26T08:22:14.289Z</time></trkpt><trkpt lat="42.3722873" lon="14.2348078"><ele>61.0</ele><time>2026-04-26T08:22:15.289Z</time></trkpt><trkpt lat="42.3721697" lon="14.2348105"><ele>59.75</ele><time>2026-04-26T08:22:16.289Z</time></trkpt><trkpt lat="42.3720547" lon="14.234805"><ele>58.5</ele><time>2026-04-26T08:22:17.288Z</time></trkpt><trkpt lat="42.3719467" lon="14.2347878"><ele>57.25</ele><time>2026-04-26T08:22:18.289Z</time></trkpt><trkpt lat="42.3718462" lon="14.23476"><ele>56.0</ele><time>2026-04-26T08:22:19.289Z</time></trkpt><trkpt lat="42.371448" lon="14.2344805"><ele>54.333333333333336</ele><time>2026-04-26T08:22:23.287Z</time></trkpt><trkpt lat="42.3713368" lon="14.2343782"><ele>52.66666666666667</ele><time>2026-04-26T08:22:24.287Z</time></trkpt><trkpt lat="42.3712143" lon="14.234289"><ele>51.0</ele><time>2026-04-26T08:22:25.288Z</time></trkpt><trkpt lat="42.3709605" lon="14.2341677"><ele>51.0</ele><time>2026-04-26T08:22:27.29Z</time></trkpt><trkpt lat="42.3708235" lon="14.2341475"><ele>51.0</ele><time>2026-04-26T08:22:28.286Z</time></trkpt><trkpt lat="42.3703558" lon="14.2341972"><ele>48.5</ele><time>2026-04-26T08:22:31.288Z</time></trkpt><trkpt lat="42.3701843" lon="14.23422"><ele>46.0</ele><time>2026-04-26T08:22:32.289Z</time></trkpt><trkpt lat="42.3698297" lon="14.2342625"><ele>48.0</ele><time>2026-04-26T08:22:34.288Z</time></trkpt><trkpt lat="42.3696512" lon="14.2342908"><ele>50.0</ele><time>2026-04-26T08:22:35.286Z</time></trkpt><trkpt lat="42.369176" lon="14.2343595"><ele>50.0</ele><time>2026-04-26T08:22:38.287Z</time></trkpt><trkpt lat="42.3689095" lon="14.2344092"><ele>50.0</ele><time>2026-04-26T08:22:41.287Z</time></trkpt><trkpt lat="42.3690305" lon="14.2345088"><ele>50.0</ele><time>2026-04-26T08:22:46.285Z</time></trkpt><trkpt lat="42.3692142" lon="14.2345628"><ele>46.0</ele><time>2026-04-26T08:22:49.287Z</time></trkpt><trkpt lat="42.369712" lon="14.234637"><ele>46.0</ele><time>2026-04-26T08:22:55.288Z</time></trkpt><trkpt lat="42.36979" lon="14.2346382"><ele>46.0</ele><time>2026-04-26T08:22:56.29Z</time></trkpt><trkpt lat="42.3698587" lon="14.2346577"><ele>46.0</ele><time>2026-04-26T08:22:57.29Z</time></trkpt><trkpt lat="42.36995" lon="14.234769"><ele>46.0</ele><time>2026-04-26T08:22:59.288Z</time></trkpt><trkpt lat="42.3699712" lon="14.2348677"><ele>46.0</ele><time>2026-04-26T08:23:00.288Z</time></trkpt><trkpt lat="42.369977" lon="14.2349982"><ele>46.0</ele><time>2026-04-26T08:23:01.289Z</time></trkpt><trkpt lat="42.3699862" lon="14.2351498"><ele>45.0</ele><time>2026-04-26T08:23:02.288Z</time></trkpt><trkpt lat="42.3700155" lon="14.2353182"><ele>44.0</ele><time>2026-04-26T08:23:03.291Z</time></trkpt><trkpt lat="42.3700532" lon="14.235499"><ele>43.0</ele><time>2026-04-26T08:23:04.29Z</time></trkpt><trkpt lat="42.3700805" lon="14.2356692"><ele>42.0</ele><time>2026-04-26T08:23:05.288Z</time></trkpt><trkpt lat="42.370086" lon="14.2358345"><ele>42.0</ele><time>2026-04-26T08:23:06.288Z</time></trkpt><trkpt lat="42.3700702" lon="14.2360028"><ele>42.0</ele><time>2026-04-26T08:23:07.287Z</time></trkpt><trkpt lat="42.370038" lon="14.2361855"><ele>42.0</ele><time>2026-04-26T08:23:08.286Z</time></trkpt><trkpt lat="42.3699928" lon="14.2363795"><ele>42.0</ele><time>2026-04-26T08:23:09.284Z</time></trkpt><trkpt lat="42.369956" lon="14.2365748"><ele>42.25</ele><time>2026-04-26T08:23:10.284Z</time></trkpt><trkpt lat="42.3699477" lon="14.2367582"><ele>42.5</ele><time>2026-04-26T08:23:11.285Z</time></trkpt><trkpt lat="42.3699668" lon="14.236934"><ele>42.75</ele><time>2026-04-26T08:23:12.288Z</time></trkpt><trkpt lat="42.3700122" lon="14.2370853"><ele>43.0</ele><time>2026-04-26T08:23:13.289Z</time></trkpt><trkpt lat="42.3700852" lon="14.2372143"><ele>42.75</ele><time>2026-04-26T08:23:14.294Z</time></trkpt><trkpt lat="42.3701877" lon="14.2373238"><ele>42.5</ele><time>2026-04-26T08:23:15.29Z</time></trkpt><trkpt lat="42.3703128" lon="14.2374243"><ele>42.25</ele><time>2026-04-26T08:23:16.288Z</time></trkpt><trkpt lat="42.3704505" lon="14.2375332"><ele>42.0</ele><time>2026-04-26T08:23:17.288Z</time></trkpt><trkpt lat="42.3705973" lon="14.2376532"><ele>42.0</ele><time>2026-04-26T08:23:18.29Z</time></trkpt><trkpt lat="42.3707528" lon="14.2377807"><ele>42.0</ele><time>2026-04-26T08:23:19.289Z</time></trkpt><trkpt lat="42.3709088" lon="14.2379018"><ele>42.0</ele><time>2026-04-26T08:23:20.289Z</time></trkpt><trkpt lat="42.3710657" lon="14.2380195"><ele>42.333333333333336</ele><time>2026-04-26T08:23:21.291Z</time></trkpt><trkpt lat="42.3712227" lon="14.2381417"><ele>42.66666666666667</ele><time>2026-04-26T08:23:22.293Z</time></trkpt><trkpt lat="42.3713768" lon="14.2382735"><ele>43.0</ele><time>2026-04-26T08:23:23.293Z</time></trkpt><trkpt lat="42.3715217" lon="14.2384032"><ele>43.0</ele><time>2026-04-26T08:23:24.29Z</time></trkpt><trkpt lat="42.3716518" lon="14.2385343"><ele>43.0</ele><time>2026-04-26T08:23:25.29Z</time></trkpt><trkpt lat="42.3717703" lon="14.238682"><ele>43.0</ele><time>2026-04-26T08:23:26.287Z</time></trkpt><trkpt lat="42.3718878" lon="14.2388413"><ele>42.333333333333336</ele><time>2026-04-26T08:23:27.288Z</time></trkpt><trkpt lat="42.372005" lon="14.2390112"><ele>41.666666666666664</ele><time>2026-04-26T08:23:28.288Z</time></trkpt><trkpt lat="42.3721217" lon="14.2391838"><ele>41.0</ele><time>2026-04-26T08:23:29.288Z</time></trkpt><trkpt lat="42.3722392" lon="14.2393473"><ele>41.0</ele><time>2026-04-26T08:23:30.29Z</time></trkpt><trkpt lat="42.3723665" lon="14.2394938"><ele>41.0</ele><time>2026-04-26T08:23:31.291Z</time></trkpt><trkpt lat="42.3724998" lon="14.2396275"><ele>41.0</ele><time>2026-04-26T08:23:32.289Z</time></trkpt><trkpt lat="42.3726372" lon="14.239755"><ele>41.25</ele><time>2026-04-26T08:23:33.29Z</time></trkpt><trkpt lat="42.3727627" lon="14.2398742"><ele>41.5</ele><time>2026-04-26T08:23:34.286Z</time></trkpt><trkpt lat="42.3728813" lon="14.2399868"><ele>41.75</ele><time>2026-04-26T08:23:35.286Z</time></trkpt><trkpt lat="42.3729972" lon="14.2400937"><ele>42.0</ele><time>2026-04-26T08:23:36.286Z</time></trkpt><trkpt lat="42.3731213" lon="14.240188"><ele>41.0</ele><time>2026-04-26T08:23:37.288Z</time></trkpt><trkpt lat="42.3732477" lon="14.2402712"><ele>40.0</ele><time>2026-04-26T08:23:38.286Z</time></trkpt><trkpt lat="42.373368" lon="14.240356"><ele>39.0</ele><time>2026-04-26T08:23:39.29Z</time></trkpt><trkpt lat="42.3734833" lon="14.240464"><ele>38.0</ele><time>2026-04-26T08:23:40.29Z</time></trkpt><trkpt lat="42.3736022" lon="14.2405925"><ele>37.33333333333333</ele><time>2026-04-26T08:23:41.291Z</time></trkpt><trkpt lat="42.3737215" lon="14.2407303"><ele>36.666666666666664</ele><time>2026-04-26T08:23:42.289Z</time></trkpt><trkpt lat="42.3738403" lon="14.240874"><ele>36.0</ele><time>2026-04-26T08:23:43.289Z</time></trkpt><trkpt lat="42.3739565" lon="14.2410052"><ele>36.0</ele><time>2026-04-26T08:23:44.29Z</time></trkpt><trkpt lat="42.3740737" lon="14.2411083"><ele>36.0</ele><time>2026-04-26T08:23:45.292Z</time></trkpt><trkpt lat="42.3742045" lon="14.2411975"><ele>36.0</ele><time>2026-04-26T08:23:46.291Z</time></trkpt><trkpt lat="42.374347" lon="14.2412918"><ele>36.0</ele><time>2026-04-26T08:23:47.288Z</time></trkpt><trkpt lat="42.3744887" lon="14.2414058"><ele>35.333333333333336</ele><time>2026-04-26T08:23:48.289Z</time></trkpt><trkpt lat="42.3746272" lon="14.2415388"><ele>34.66666666666667</ele><time>2026-04-26T08:23:49.288Z</time></trkpt><trkpt lat="42.374761" lon="14.2416895"><ele>34.0</ele><time>2026-04-26T08:23:50.289Z</time></trkpt><trkpt lat="42.374894" lon="14.2418463"><ele>34.0</ele><time>2026-04-26T08:23:51.293Z</time></trkpt><trkpt lat="42.375022" lon="14.2420047"><ele>34.0</ele><time>2026-04-26T08:23:52.293Z</time></trkpt><trkpt lat="42.3751375" lon="14.2421547"><ele>34.0</ele><time>2026-04-26T08:23:53.296Z</time></trkpt><trkpt lat="42.3752248" lon="14.2423005"><ele>35.0</ele><time>2026-04-26T08:23:54.289Z</time></trkpt><trkpt lat="42.3752787" lon="14.2424472"><ele>36.0</ele><time>2026-04-26T08:23:55.29Z</time></trkpt><trkpt lat="42.3752995" lon="14.2425858"><ele>37.0</ele><time>2026-04-26T08:23:56.292Z</time></trkpt><trkpt lat="42.375283" lon="14.2427205"><ele>38.0</ele><time>2026-04-26T08:23:57.29Z</time></trkpt><trkpt lat="42.3752427" lon="14.242868"><ele>39.0</ele><time>2026-04-26T08:23:58.287Z</time></trkpt><trkpt lat="42.3751952" lon="14.2430337"><ele>41.0</ele><time>2026-04-26T08:23:59.287Z</time></trkpt><trkpt lat="42.3751433" lon="14.2432195"><ele>43.0</ele><time>2026-04-26T08:24:00.294Z</time></trkpt><trkpt lat="42.3750772" lon="14.2434198"><ele>45.0</ele><time>2026-04-26T08:24:01.293Z</time></trkpt><trkpt lat="42.3750065" lon="14.243634"><ele>45.0</ele><time>2026-04-26T08:24:02.293Z</time></trkpt><trkpt lat="42.374932" lon="14.243857"><ele>45.0</ele><time>2026-04-26T08:24:03.29Z</time></trkpt><trkpt lat="42.3748513" lon="14.2440853"><ele>45.0</ele><time>2026-04-26T08:24:04.291Z</time></trkpt><trkpt lat="42.374767" lon="14.244319"><ele>47.0</ele><time>2026-04-26T08:24:05.29Z</time></trkpt><trkpt lat="42.374691" lon="14.2445528"><ele>49.0</ele><time>2026-04-26T08:24:06.29Z</time></trkpt><trkpt lat="42.3746273" lon="14.2447952"><ele>51.0</ele><time>2026-04-26T08:24:07.293Z</time></trkpt><trkpt lat="42.3745663" lon="14.245057"><ele>56.33333333333333</ele><time>2026-04-26T08:24:08.294Z</time></trkpt><trkpt lat="42.3745082" lon="14.2453268"><ele>61.666666666666664</ele><time>2026-04-26T08:24:09.294Z</time></trkpt><trkpt lat="42.3744518" lon="14.2455935"><ele>67.0</ele><time>2026-04-26T08:24:10.293Z</time></trkpt><trkpt lat="42.3743947" lon="14.245845"><ele>69.0</ele><time>2026-04-26T08:24:11.29Z</time></trkpt><trkpt lat="42.3743373" lon="14.2460688"><ele>71.0</ele><time>2026-04-26T08:24:12.289Z</time></trkpt><trkpt lat="42.37427" lon="14.2462647"><ele>73.0</ele><time>2026-04-26T08:24:13.289Z</time></trkpt><trkpt lat="42.3741825" lon="14.2464517"><ele>73.5</ele><time>2026-04-26T08:24:14.292Z</time></trkpt><trkpt lat="42.3740957" lon="14.2466198"><ele>74.0</ele><time>2026-04-26T08:24:15.291Z</time></trkpt><trkpt lat="42.3740388" lon="14.2467645"><ele>74.5</ele><time>2026-04-26T08:24:16.292Z</time></trkpt><trkpt lat="42.3740238" lon="14.2469023"><ele>75.0</ele><time>2026-04-26T08:24:17.292Z</time></trkpt><trkpt lat="42.3740318" lon="14.247055"><ele>75.0</ele><time>2026-04-26T08:24:18.304Z</time></trkpt><trkpt lat="42.3740232" lon="14.2472263"><ele>75.0</ele><time>2026-04-26T08:24:19.289Z</time></trkpt><trkpt lat="42.3739853" lon="14.2474028"><ele>75.0</ele><time>2026-04-26T08:24:20.29Z</time></trkpt><trkpt lat="42.3739398" lon="14.2475865"><ele>75.0</ele><time>2026-04-26T08:24:21.288Z</time></trkpt><trkpt lat="42.3738965" lon="14.2477603"><ele>76.5</ele><time>2026-04-26T08:24:22.287Z</time></trkpt><trkpt lat="42.373872" lon="14.247907"><ele>78.0</ele><time>2026-04-26T08:24:23.29Z</time></trkpt><trkpt lat="42.3738677" lon="14.2480668"><ele>79.5</ele><time>2026-04-26T08:24:24.29Z</time></trkpt><trkpt lat="42.3738658" lon="14.248249"><ele>81.0</ele><time>2026-04-26T08:24:25.293Z</time></trkpt><trkpt lat="42.3738593" lon="14.248449"><ele>86.0</ele><time>2026-04-26T08:24:26.293Z</time></trkpt><trkpt lat="42.3738523" lon="14.2486427"><ele>91.0</ele><time>2026-04-26T08:24:27.288Z</time></trkpt><trkpt lat="42.3738382" lon="14.2488172"><ele>96.0</ele><time>2026-04-26T08:24:28.291Z</time></trkpt><trkpt lat="42.3738118" lon="14.2489708"><ele>101.0</ele><time>2026-04-26T08:24:29.288Z</time></trkpt><trkpt lat="42.3737738" lon="14.2491293"><ele>102.5</ele><time>2026-04-26T08:24:30.29Z</time></trkpt><trkpt lat="42.3737327" lon="14.249302"><ele>104.0</ele><time>2026-04-26T08:24:31.289Z</time></trkpt><trkpt lat="42.373698" lon="14.24949"><ele>105.5</ele><time>2026-04-26T08:24:32.288Z</time></trkpt><trkpt lat="42.3736642" lon="14.2496865"><ele>107.0</ele><time>2026-04-26T08:24:33.293Z</time></trkpt><trkpt lat="42.373623" lon="14.2498757"><ele>107.6</ele><time>2026-04-26T08:24:34.294Z</time></trkpt><trkpt lat="42.3735752" lon="14.2500417"><ele>108.19999999999999</ele><time>2026-04-26T08:24:35.295Z</time></trkpt><trkpt lat="42.3735447" lon="14.2501735"><ele>108.8</ele><time>2026-04-26T08:24:36.29Z</time></trkpt><trkpt lat="42.3735517" lon="14.2502668"><ele>109.4</ele><time>2026-04-26T08:24:37.291Z</time></trkpt><trkpt lat="42.373593" lon="14.250336"><ele>110.0</ele><time>2026-04-26T08:24:38.289Z</time></trkpt><trkpt lat="42.3736637" lon="14.2503968"><ele>110.0</ele><time>2026-04-26T08:24:39.293Z</time></trkpt><trkpt lat="42.3737522" lon="14.2504518"><ele>110.0</ele><time>2026-04-26T08:24:40.292Z</time></trkpt><trkpt lat="42.3738337" lon="14.250518"><ele>110.0</ele><time>2026-04-26T08:24:41.289Z</time></trkpt><trkpt lat="42.3739067" lon="14.250607"><ele>110.0</ele><time>2026-04-26T08:24:42.289Z</time></trkpt><trkpt lat="42.3739792" lon="14.2507193"><ele>110.0</ele><time>2026-04-26T08:24:43.295Z</time></trkpt><trkpt lat="42.3740462" lon="14.2508503"><ele>110.0</ele><time>2026-04-26T08:24:44.293Z</time></trkpt><trkpt lat="42.3740925" lon="14.2509862"><ele>110.0</ele><time>2026-04-26T08:24:45.293Z</time></trkpt><trkpt lat="42.374114" lon="14.2511323"><ele>110.0</ele><time>2026-04-26T08:24:46.291Z</time></trkpt><trkpt lat="42.3741143" lon="14.2513012"><ele>110.0</ele><time>2026-04-26T08:24:47.287Z</time></trkpt><trkpt lat="42.3740945" lon="14.2514863"><ele>113.0</ele><time>2026-04-26T08:24:48.286Z</time></trkpt><trkpt lat="42.374053" lon="14.2516843"><ele>116.0</ele><time>2026-04-26T08:24:49.284Z</time></trkpt><trkpt lat="42.3739978" lon="14.251894"><ele>119.0</ele><time>2026-04-26T08:24:50.285Z</time></trkpt><trkpt lat="42.3739447" lon="14.2521123"><ele>122.66666666666666</ele><time>2026-04-26T08:24:51.287Z</time></trkpt><trkpt lat="42.373894" lon="14.2523328"><ele>126.33333333333334</ele><time>2026-04-26T08:24:52.286Z</time></trkpt><trkpt lat="42.3738565" lon="14.2525597"><ele>130.0</ele><time>2026-04-26T08:24:53.286Z</time></trkpt><trkpt lat="42.3738277" lon="14.252785"><ele>134.33333333333334</ele><time>2026-04-26T08:24:54.289Z</time></trkpt><trkpt lat="42.373813" lon="14.2530132"><ele>138.66666666666666</ele><time>2026-04-26T08:24:55.286Z</time></trkpt><trkpt lat="42.373812" lon="14.2532467"><ele>143.0</ele><time>2026-04-26T08:24:56.287Z</time></trkpt><trkpt lat="42.373819" lon="14.2534835"><ele>143.66666666666666</ele><time>2026-04-26T08:24:57.286Z</time></trkpt><trkpt lat="42.3738372" lon="14.2537178"><ele>144.33333333333334</ele><time>2026-04-26T08:24:58.288Z</time></trkpt><trkpt lat="42.373862" lon="14.2539343"><ele>145.0</ele><time>2026-04-26T08:24:59.29Z</time></trkpt><trkpt lat="42.3738952" lon="14.2541285"><ele>148.66666666666669</ele><time>2026-04-26T08:25:00.289Z</time></trkpt><trkpt lat="42.373942" lon="14.2543185"><ele>152.33333333333334</ele><time>2026-04-26T08:25:01.29Z</time></trkpt><trkpt lat="42.3740038" lon="14.254502"><ele>156.0</ele><time>2026-04-26T08:25:02.289Z</time></trkpt><trkpt lat="42.374083" lon="14.2546818"><ele>158.66666666666666</ele><time>2026-04-26T08:25:03.287Z</time></trkpt><trkpt lat="42.3741697" lon="14.2548615"><ele>161.33333333333331</ele><time>2026-04-26T08:25:04.286Z</time></trkpt><trkpt lat="42.3742483" lon="14.2550325"><ele>164.0</ele><time>2026-04-26T08:25:05.288Z</time></trkpt><trkpt lat="42.3743125" lon="14.2552097"><ele>164.0</ele><time>2026-04-26T08:25:06.289Z</time></trkpt><trkpt lat="42.3743615" lon="14.2553932"><ele>164.0</ele><time>2026-04-26T08:25:07.289Z</time></trkpt><trkpt lat="42.3743982" lon="14.255559"><ele>164.0</ele><time>2026-04-26T08:25:08.285Z</time></trkpt><trkpt lat="42.3744172" lon="14.2557033"><ele>164.0</ele><time>2026-04-26T08:25:09.287Z</time></trkpt><trkpt lat="42.3744115" lon="14.255825"><ele>164.39999999999998</ele><time>2026-04-26T08:25:10.286Z</time></trkpt><trkpt lat="42.3743902" lon="14.2559463"><ele>164.8</ele><time>2026-04-26T08:25:12.29Z</time></trkpt><trkpt lat="42.3744218" lon="14.2560588"><ele>165.2</ele><time>2026-04-26T08:25:15.292Z</time></trkpt><trkpt lat="42.374478" lon="14.256117"><ele>165.60000000000002</ele><time>2026-04-26T08:25:16.293Z</time></trkpt><trkpt lat="42.3745598" lon="14.2561855"><ele>166.0</ele><time>2026-04-26T08:25:17.29Z</time></trkpt><trkpt lat="42.3746542" lon="14.2562763"><ele>166.5</ele><time>2026-04-26T08:25:18.291Z</time></trkpt><trkpt lat="42.374759" lon="14.2563832"><ele>167.0</ele><time>2026-04-26T08:25:19.291Z</time></trkpt><trkpt lat="42.3748773" lon="14.2565"><ele>167.5</ele><time>2026-04-26T08:25:20.29Z</time></trkpt><trkpt lat="42.3750033" lon="14.2566218"><ele>168.0</ele><time>2026-04-26T08:25:21.288Z</time></trkpt><trkpt lat="42.3751288" lon="14.2567525"><ele>168.0</ele><time>2026-04-26T08:25:22.287Z</time></trkpt><trkpt lat="42.3752478" lon="14.2568963"><ele>168.0</ele><time>2026-04-26T08:25:23.289Z</time></trkpt><trkpt lat="42.3753608" lon="14.2570543"><ele>168.0</ele><time>2026-04-26T08:25:24.292Z</time></trkpt><trkpt lat="42.3754693" lon="14.2572228"><ele>168.66666666666666</ele><time>2026-04-26T08:25:25.289Z</time></trkpt><trkpt lat="42.3755768" lon="14.2573955"><ele>169.33333333333331</ele><time>2026-04-26T08:25:26.288Z</time></trkpt><trkpt lat="42.3756848" lon="14.2575695"><ele>170.0</ele><time>2026-04-26T08:25:27.288Z</time></trkpt><trkpt lat="42.3757917" lon="14.2577395"><ele>170.0</ele><time>2026-04-26T08:25:28.29Z</time></trkpt><trkpt lat="42.3758962" lon="14.257905"><ele>170.0</ele><time>2026-04-26T08:25:29.291Z</time></trkpt><trkpt lat="42.3759965" lon="14.2580637"><ele>170.0</ele><time>2026-04-26T08:25:30.291Z</time></trkpt><trkpt lat="42.3760883" lon="14.2582082"><ele>171.2</ele><time>2026-04-26T08:25:31.295Z</time></trkpt><trkpt lat="42.3761568" lon="14.2583242"><ele>172.4</ele><time>2026-04-26T08:25:32.288Z</time></trkpt><trkpt lat="42.3762163" lon="14.2584298"><ele>173.60000000000002</ele><time>2026-04-26T08:25:33.289Z</time></trkpt><trkpt lat="42.3762903" lon="14.2585492"><ele>174.8</ele><time>2026-04-26T08:25:34.291Z</time></trkpt><trkpt lat="42.3763677" lon="14.2586752"><ele>176.0</ele><time>2026-04-26T08:25:35.29Z</time></trkpt><trkpt lat="42.3764418" lon="14.2587957"><ele>176.0</ele><time>2026-04-26T08:25:36.291Z</time></trkpt><trkpt lat="42.3765147" lon="14.2589108"><ele>176.0</ele><time>2026-04-26T08:25:37.289Z</time></trkpt><trkpt lat="42.3765848" lon="14.2590222"><ele>176.0</ele><time>2026-04-26T08:25:38.287Z</time></trkpt><trkpt lat="42.3766532" lon="14.2591318"><ele>176.0</ele><time>2026-04-26T08:25:39.29Z</time></trkpt><trkpt lat="42.3767137" lon="14.2592308"><ele>176.0</ele><time>2026-04-26T08:25:40.291Z</time></trkpt><trkpt lat="42.3767657" lon="14.259317"><ele>175.66666666666666</ele><time>2026-04-26T08:25:41.288Z</time></trkpt><trkpt lat="42.3768047" lon="14.2593975"><ele>175.33333333333331</ele><time>2026-04-26T08:25:42.291Z</time></trkpt><trkpt lat="42.3768205" lon="14.2594882"><ele>175.0</ele><time>2026-04-26T08:25:43.294Z</time></trkpt><trkpt lat="42.3768145" lon="14.259598"><ele>174.66666666666666</ele><time>2026-04-26T08:25:44.294Z</time></trkpt><trkpt lat="42.3768083" lon="14.2597312"><ele>174.33333333333334</ele><time>2026-04-26T08:25:45.294Z</time></trkpt><trkpt lat="42.3768075" lon="14.2598888"><ele>174.0</ele><time>2026-04-26T08:25:46.291Z</time></trkpt><trkpt lat="42.3768113" lon="14.2600672"><ele>172.33333333333334</ele><time>2026-04-26T08:25:47.29Z</time></trkpt><trkpt lat="42.3768172" lon="14.2602635"><ele>170.66666666666669</ele><time>2026-04-26T08:25:48.289Z</time></trkpt><trkpt lat="42.3768197" lon="14.2604703"><ele>169.0</ele><time>2026-04-26T08:25:49.288Z</time></trkpt><trkpt lat="42.3768092" lon="14.2606848"><ele>167.33333333333334</ele><time>2026-04-26T08:25:50.288Z</time></trkpt><trkpt lat="42.3767865" lon="14.260904"><ele>165.66666666666666</ele><time>2026-04-26T08:25:51.293Z</time></trkpt><trkpt lat="42.3767568" lon="14.2611163"><ele>164.0</ele><time>2026-04-26T08:25:52.288Z</time></trkpt><trkpt lat="42.376729" lon="14.2613085"><ele>163.0</ele><time>2026-04-26T08:25:53.289Z</time></trkpt><trkpt lat="42.3767167" lon="14.2614845"><ele>162.0</ele><time>2026-04-26T08:25:54.291Z</time></trkpt><trkpt lat="42.3767217" lon="14.2616742"><ele>161.0</ele><time>2026-04-26T08:25:55.289Z</time></trkpt><trkpt lat="42.3767428" lon="14.2618805"><ele>160.0</ele><time>2026-04-26T08:25:56.288Z</time></trkpt><trkpt lat="42.376769" lon="14.2620977"><ele>156.66666666666669</ele><time>2026-04-26T08:25:57.288Z</time></trkpt><trkpt lat="42.376791" lon="14.2623127"><ele>153.33333333333334</ele><time>2026-04-26T08:25:58.288Z</time></trkpt><trkpt lat="42.3768137" lon="14.262522"><ele>150.0</ele><time>2026-04-26T08:25:59.288Z</time></trkpt><trkpt lat="42.3768403" lon="14.2627228"><ele>150.0</ele><time>2026-04-26T08:26:00.289Z</time></trkpt><trkpt lat="42.3768825" lon="14.2629182"><ele>150.0</ele><time>2026-04-26T08:26:01.289Z</time></trkpt><trkpt lat="42.3769435" lon="14.2631168"><ele>150.0</ele><time>2026-04-26T08:26:02.289Z</time></trkpt><trkpt lat="42.377015" lon="14.2633222"><ele>147.66666666666666</ele><time>2026-04-26T08:26:03.294Z</time></trkpt><trkpt lat="42.3770898" lon="14.2635343"><ele>145.33333333333331</ele><time>2026-04-26T08:26:04.292Z</time></trkpt><trkpt lat="42.3771655" lon="14.263753"><ele>143.0</ele><time>2026-04-26T08:26:05.293Z</time></trkpt><trkpt lat="42.3772448" lon="14.2639742"><ele>143.0</ele><time>2026-04-26T08:26:06.292Z</time></trkpt><trkpt lat="42.3773298" lon="14.2641937"><ele>143.0</ele><time>2026-04-26T08:26:07.289Z</time></trkpt><trkpt lat="42.3774195" lon="14.2644035"><ele>143.0</ele><time>2026-04-26T08:26:08.292Z</time></trkpt><trkpt lat="42.3775097" lon="14.2645997"><ele>140.33333333333331</ele><time>2026-04-26T08:26:09.289Z</time></trkpt><trkpt lat="42.3775883" lon="14.2647855"><ele>137.66666666666666</ele><time>2026-04-26T08:26:10.288Z</time></trkpt><trkpt lat="42.3776443" lon="14.264976"><ele>135.0</ele><time>2026-04-26T08:26:11.291Z</time></trkpt><trkpt lat="42.377673" lon="14.265168"><ele>135.0</ele><time>2026-04-26T08:26:12.291Z</time></trkpt><trkpt lat="42.3776742" lon="14.2653607"><ele>135.0</ele><time>2026-04-26T08:26:13.294Z</time></trkpt><trkpt lat="42.3776698" lon="14.2655573"><ele>135.0</ele><time>2026-04-26T08:26:14.29Z</time></trkpt><trkpt lat="42.3776733" lon="14.2657483"><ele>135.0</ele><time>2026-04-26T08:26:15.294Z</time></trkpt><trkpt lat="42.3776835" lon="14.2659343"><ele>133.5</ele><time>2026-04-26T08:26:16.293Z</time></trkpt><trkpt lat="42.3776908" lon="14.2661187"><ele>132.0</ele><time>2026-04-26T08:26:17.292Z</time></trkpt><trkpt lat="42.3776902" lon="14.2663012"><ele>130.5</ele><time>2026-04-26T08:26:18.29Z</time></trkpt><trkpt lat="42.3776863" lon="14.2664713"><ele>129.0</ele><time>2026-04-26T08:26:19.29Z</time></trkpt><trkpt lat="42.3776857" lon="14.2666112"><ele>127.66666666666667</ele><time>2026-04-26T08:26:20.289Z</time></trkpt><trkpt lat="42.3776905" lon="14.2666993"><ele>126.33333333333334</ele><time>2026-04-26T08:26:21.289Z</time></trkpt><trkpt lat="42.3776977" lon="14.2668443"><ele>125.0</ele><time>2026-04-26T08:26:23.291Z</time></trkpt><trkpt lat="42.3777037" lon="14.2669503"><ele>123.66666666666667</ele><time>2026-04-26T08:26:24.286Z</time></trkpt><trkpt lat="42.377706" lon="14.267068"><ele>122.33333333333334</ele><time>2026-04-26T08:26:25.287Z</time></trkpt><trkpt lat="42.3776937" lon="14.2671695"><ele>121.0</ele><time>2026-04-26T08:26:26.288Z</time></trkpt><trkpt lat="42.3775957" lon="14.2672662"><ele>120.0</ele><time>2026-04-26T08:26:28.288Z</time></trkpt><trkpt lat="42.3775097" lon="14.2672887"><ele>119.0</ele><time>2026-04-26T08:26:29.287Z</time></trkpt><trkpt lat="42.3773957" lon="14.2673262"><ele>118.0</ele><time>2026-04-26T08:26:30.288Z</time></trkpt><trkpt lat="42.377259" lon="14.2673627"><ele>117.0</ele><time>2026-04-26T08:26:31.289Z</time></trkpt><trkpt lat="42.3771053" lon="14.2673895"><ele>114.66666666666666</ele><time>2026-04-26T08:26:32.287Z</time></trkpt><trkpt lat="42.3769433" lon="14.267412"><ele>112.33333333333333</ele><time>2026-04-26T08:26:33.287Z</time></trkpt><trkpt lat="42.3767793" lon="14.2674363"><ele>110.0</ele><time>2026-04-26T08:26:34.289Z</time></trkpt><trkpt lat="42.3766285" lon="14.2674647"><ele>110.0</ele><time>2026-04-26T08:26:35.291Z</time></trkpt><trkpt lat="42.3765083" lon="14.267508"><ele>110.0</ele><time>2026-04-26T08:26:36.291Z</time></trkpt><trkpt lat="42.3764222" lon="14.2675822"><ele>110.0</ele><time>2026-04-26T08:26:37.291Z</time></trkpt><trkpt lat="42.3763543" lon="14.267688"><ele>110.0</ele><time>2026-04-26T08:26:38.288Z</time></trkpt><trkpt lat="42.3762948" lon="14.2678255"><ele>110.0</ele><time>2026-04-26T08:26:39.287Z</time></trkpt><trkpt lat="42.3762452" lon="14.267984"><ele>114.75</ele><time>2026-04-26T08:26:40.286Z</time></trkpt><trkpt lat="42.3761935" lon="14.2681565"><ele>119.5</ele><time>2026-04-26T08:26:41.287Z</time></trkpt><trkpt lat="42.376147" lon="14.2683408"><ele>124.25</ele><time>2026-04-26T08:26:42.288Z</time></trkpt><trkpt lat="42.3760955" lon="14.268542"><ele>129.0</ele><time>2026-04-26T08:26:43.29Z</time></trkpt><trkpt lat="42.3760415" lon="14.2687525"><ele>128.0</ele><time>2026-04-26T08:26:44.29Z</time></trkpt><trkpt lat="42.3759802" lon="14.2689635"><ele>127.0</ele><time>2026-04-26T08:26:45.29Z</time></trkpt><trkpt lat="42.3759222" lon="14.2691828"><ele>126.0</ele><time>2026-04-26T08:26:46.286Z</time></trkpt><trkpt lat="42.3758612" lon="14.269403"><ele>126.0</ele><time>2026-04-26T08:26:47.289Z</time></trkpt><trkpt lat="42.3757935" lon="14.2696128"><ele>126.0</ele><time>2026-04-26T08:26:48.286Z</time></trkpt><trkpt lat="42.3757127" lon="14.2698087"><ele>126.0</ele><time>2026-04-26T08:26:49.285Z</time></trkpt><trkpt lat="42.3756312" lon="14.2699997"><ele>124.33333333333334</ele><time>2026-04-26T08:26:50.287Z</time></trkpt><trkpt lat="42.375561" lon="14.2701953"><ele>122.66666666666667</ele><time>2026-04-26T08:26:51.274Z</time></trkpt><trkpt lat="42.3754878" lon="14.2703917"><ele>121.0</ele><time>2026-04-26T08:26:52.289Z</time></trkpt><trkpt lat="42.3754033" lon="14.2705652"><ele>126.75</ele><time>2026-04-26T08:26:53.289Z</time></trkpt><trkpt lat="42.3753043" lon="14.2707248"><ele>132.5</ele><time>2026-04-26T08:26:54.289Z</time></trkpt><trkpt lat="42.3752268" lon="14.2708343"><ele>138.25</ele><time>2026-04-26T08:26:55.294Z</time></trkpt><trkpt lat="42.3751517" lon="14.2709052"><ele>144.0</ele><time>2026-04-26T08:26:56.288Z</time></trkpt><trkpt lat="42.3750645" lon="14.27095"><ele>144.0</ele><time>2026-04-26T08:26:57.288Z</time></trkpt><trkpt lat="42.3749727" lon="14.270974"><ele>144.0</ele><time>2026-04-26T08:26:58.287Z</time></trkpt><trkpt lat="42.374872" lon="14.2709642"><ele>144.0</ele><time>2026-04-26T08:26:59.288Z</time></trkpt><trkpt lat="42.3747618" lon="14.2709388"><ele>144.0</ele><time>2026-04-26T08:27:00.291Z</time></trkpt><trkpt lat="42.3746412" lon="14.2709127"><ele>144.0</ele><time>2026-04-26T08:27:01.291Z</time></trkpt><trkpt lat="42.3745195" lon="14.2708988"><ele>146.0</ele><time>2026-04-26T08:27:02.29Z</time></trkpt><trkpt lat="42.3744213" lon="14.2709073"><ele>148.0</ele><time>2026-04-26T08:27:03.294Z</time></trkpt><trkpt lat="42.3743228" lon="14.2709333"><ele>150.0</ele><time>2026-04-26T08:27:05.288Z</time></trkpt><trkpt lat="42.374234" lon="14.2709887"><ele>152.0</ele><time>2026-04-26T08:27:07.287Z</time></trkpt><trkpt lat="42.3741697" lon="14.2710495"><ele>154.0</ele><time>2026-04-26T08:27:08.288Z</time></trkpt><trkpt lat="42.3741122" lon="14.2711332"><ele>154.0</ele><time>2026-04-26T08:27:09.286Z</time></trkpt><trkpt lat="42.3740768" lon="14.2712353"><ele>154.0</ele><time>2026-04-26T08:27:10.29Z</time></trkpt><trkpt lat="42.3740488" lon="14.271345"><ele>154.0</ele><time>2026-04-26T08:27:11.294Z</time></trkpt><trkpt lat="42.374006" lon="14.2714528"><ele>154.0</ele><time>2026-04-26T08:27:12.288Z</time></trkpt><trkpt lat="42.3739408" lon="14.2715498"><ele>154.0</ele><time>2026-04-26T08:27:13.286Z</time></trkpt><trkpt lat="42.3738538" lon="14.2716412"><ele>149.5</ele><time>2026-04-26T08:27:14.287Z</time></trkpt><trkpt lat="42.3737473" lon="14.2717273"><ele>145.0</ele><time>2026-04-26T08:27:15.287Z</time></trkpt><trkpt lat="42.3736325" lon="14.2718045"><ele>140.5</ele><time>2026-04-26T08:27:16.284Z</time></trkpt><trkpt lat="42.3735163" lon="14.2718738"><ele>136.0</ele><time>2026-04-26T08:27:17.287Z</time></trkpt><trkpt lat="42.3733992" lon="14.2719287"><ele>136.0</ele><time>2026-04-26T08:27:18.288Z</time></trkpt><trkpt lat="42.3732755" lon="14.271961"><ele>136.0</ele><time>2026-04-26T08:27:19.289Z</time></trkpt><trkpt lat="42.3731373" lon="14.2719742"><ele>136.0</ele><time>2026-04-26T08:27:20.292Z</time></trkpt><trkpt lat="42.372988" lon="14.271979"><ele>136.0</ele><time>2026-04-26T08:27:21.29Z</time></trkpt><trkpt lat="42.3728325" lon="14.2719895"><ele>133.5</ele><time>2026-04-26T08:27:22.288Z</time></trkpt><trkpt lat="42.3726797" lon="14.272003"><ele>131.0</ele><time>2026-04-26T08:27:23.288Z</time></trkpt><trkpt lat="42.3725323" lon="14.2720175"><ele>128.5</ele><time>2026-04-26T08:27:24.288Z</time></trkpt><trkpt lat="42.3724063" lon="14.2720297"><ele>126.0</ele><time>2026-04-26T08:27:25.291Z</time></trkpt><trkpt lat="42.3723045" lon="14.2720308"><ele>126.0</ele><time>2026-04-26T08:27:26.291Z</time></trkpt><trkpt lat="42.3722145" lon="14.27204"><ele>126.0</ele><time>2026-04-26T08:27:27.291Z</time></trkpt><trkpt lat="42.3721292" lon="14.2720735"><ele>126.0</ele><time>2026-04-26T08:27:28.289Z</time></trkpt><trkpt lat="42.3720502" lon="14.2721437"><ele>126.0</ele><time>2026-04-26T08:27:29.288Z</time></trkpt><trkpt lat="42.3719772" lon="14.2722362"><ele>126.0</ele><time>2026-04-26T08:27:30.289Z</time></trkpt><trkpt lat="42.3719113" lon="14.2723413"><ele>121.0</ele><time>2026-04-26T08:27:31.289Z</time></trkpt><trkpt lat="42.3718503" lon="14.2724737"><ele>116.0</ele><time>2026-04-26T08:27:32.288Z</time></trkpt><trkpt lat="42.37179" lon="14.2726292"><ele>111.0</ele><time>2026-04-26T08:27:33.288Z</time></trkpt><trkpt lat="42.3717295" lon="14.272806"><ele>106.0</ele><time>2026-04-26T08:27:34.291Z</time></trkpt><trkpt lat="42.3716618" lon="14.2729958"><ele>104.33333333333334</ele><time>2026-04-26T08:27:35.29Z</time></trkpt><trkpt lat="42.371593" lon="14.2731868"><ele>102.66666666666666</ele><time>2026-04-26T08:27:36.289Z</time></trkpt><trkpt lat="42.3715258" lon="14.2733788"><ele>101.0</ele><time>2026-04-26T08:27:37.288Z</time></trkpt><trkpt lat="42.3714623" lon="14.2735735"><ele>101.0</ele><time>2026-04-26T08:27:38.286Z</time></trkpt><trkpt lat="42.3714007" lon="14.2737698"><ele>101.0</ele><time>2026-04-26T08:27:39.287Z</time></trkpt><trkpt lat="42.3713458" lon="14.2739725"><ele>101.0</ele><time>2026-04-26T08:27:40.285Z</time></trkpt><trkpt lat="42.3713032" lon="14.2741703"><ele>96.25</ele><time>2026-04-26T08:27:41.288Z</time></trkpt><trkpt lat="42.3712795" lon="14.27436"><ele>91.5</ele><time>2026-04-26T08:27:42.292Z</time></trkpt><trkpt lat="42.3712782" lon="14.274552"><ele>86.75</ele><time>2026-04-26T08:27:43.291Z</time></trkpt><trkpt lat="42.3712883" lon="14.274753"><ele>82.0</ele><time>2026-04-26T08:27:44.288Z</time></trkpt><trkpt lat="42.3712968" lon="14.2749578"><ele>81.0</ele><time>2026-04-26T08:27:45.287Z</time></trkpt><trkpt lat="42.3712928" lon="14.2751615"><ele>80.0</ele><time>2026-04-26T08:27:46.286Z</time></trkpt><trkpt lat="42.3712748" lon="14.275365"><ele>79.0</ele><time>2026-04-26T08:27:47.289Z</time></trkpt><trkpt lat="42.3712488" lon="14.2755662"><ele>79.0</ele><time>2026-04-26T08:27:48.288Z</time></trkpt><trkpt lat="42.3712127" lon="14.2757772"><ele>79.0</ele><time>2026-04-26T08:27:49.287Z</time></trkpt><trkpt lat="42.3711678" lon="14.2759942"><ele>79.0</ele><time>2026-04-26T08:27:50.287Z</time></trkpt><trkpt lat="42.371117" lon="14.2762142"><ele>79.0</ele><time>2026-04-26T08:27:51.29Z</time></trkpt><trkpt lat="42.3710652" lon="14.2764353"><ele>79.0</ele><time>2026-04-26T08:27:52.288Z</time></trkpt><trkpt lat="42.3710145" lon="14.2766582"><ele>79.0</ele><time>2026-04-26T08:27:53.288Z</time></trkpt><trkpt lat="42.370964" lon="14.2768802"><ele>78.33333333333333</ele><time>2026-04-26T08:27:54.289Z</time></trkpt><trkpt lat="42.370916" lon="14.2770943"><ele>77.66666666666667</ele><time>2026-04-26T08:27:55.288Z</time></trkpt><trkpt lat="42.3708702" lon="14.2772922"><ele>77.0</ele><time>2026-04-26T08:27:56.289Z</time></trkpt><trkpt lat="42.3708263" lon="14.2774793"><ele>77.0</ele><time>2026-04-26T08:27:57.288Z</time></trkpt><trkpt lat="42.3707795" lon="14.2776727"><ele>77.0</ele><time>2026-04-26T08:27:58.288Z</time></trkpt><trkpt lat="42.3707262" lon="14.2778705"><ele>77.0</ele><time>2026-04-26T08:27:59.286Z</time></trkpt><trkpt lat="42.3706663" lon="14.2780608"><ele>76.25</ele><time>2026-04-26T08:28:00.288Z</time></trkpt><trkpt lat="42.3706012" lon="14.2782373"><ele>75.5</ele><time>2026-04-26T08:28:01.29Z</time></trkpt><trkpt lat="42.3705302" lon="14.278392"><ele>74.75</ele><time>2026-04-26T08:28:02.287Z</time></trkpt><trkpt lat="42.370448" lon="14.278545"><ele>74.0</ele><time>2026-04-26T08:28:03.287Z</time></trkpt><trkpt lat="42.3703553" lon="14.2786918"><ele>72.75</ele><time>2026-04-26T08:28:04.289Z</time></trkpt><trkpt lat="42.3702483" lon="14.2788265"><ele>71.5</ele><time>2026-04-26T08:28:05.286Z</time></trkpt><trkpt lat="42.3701272" lon="14.2789447"><ele>70.25</ele><time>2026-04-26T08:28:06.288Z</time></trkpt><trkpt lat="42.3700072" lon="14.2790443"><ele>69.0</ele><time>2026-04-26T08:28:07.288Z</time></trkpt><trkpt lat="42.3698993" lon="14.2791312"><ele>68.60000000000001</ele><time>2026-04-26T08:28:08.287Z</time></trkpt><trkpt lat="42.3698125" lon="14.2792102"><ele>68.2</ele><time>2026-04-26T08:28:09.287Z</time></trkpt><trkpt lat="42.3697452" lon="14.2792957"><ele>67.80000000000001</ele><time>2026-04-26T08:28:10.288Z</time></trkpt><trkpt lat="42.3696993" lon="14.27939"><ele>67.4</ele><time>2026-04-26T08:28:11.291Z</time></trkpt><trkpt lat="42.3696775" lon="14.279506"><ele>67.0</ele><time>2026-04-26T08:28:12.292Z</time></trkpt><trkpt lat="42.3696763" lon="14.2796422"><ele>66.75</ele><time>2026-04-26T08:28:13.29Z</time></trkpt><trkpt lat="42.369682" lon="14.2797937"><ele>66.5</ele><time>2026-04-26T08:28:14.29Z</time></trkpt><trkpt lat="42.3696897" lon="14.2799438"><ele>66.25</ele><time>2026-04-26T08:28:15.29Z</time></trkpt><trkpt lat="42.3696968" lon="14.2801025"><ele>66.0</ele><time>2026-04-26T08:28:16.288Z</time></trkpt><trkpt lat="42.3697052" lon="14.2802735"><ele>65.5</ele><time>2026-04-26T08:28:17.287Z</time></trkpt><trkpt lat="42.3697107" lon="14.280454"><ele>65.0</ele><time>2026-04-26T08:28:18.289Z</time></trkpt><trkpt lat="42.3697137" lon="14.2806472"><ele>64.5</ele><time>2026-04-26T08:28:19.289Z</time></trkpt><trkpt lat="42.3697157" lon="14.2808522"><ele>64.0</ele><time>2026-04-26T08:28:20.288Z</time></trkpt><trkpt lat="42.3697178" lon="14.2810662"><ele>63.666666666666664</ele><time>2026-04-26T08:28:21.292Z</time></trkpt><trkpt lat="42.3697202" lon="14.2812818"><ele>63.33333333333333</ele><time>2026-04-26T08:28:22.29Z</time></trkpt><trkpt lat="42.3697227" lon="14.2814887"><ele>63.0</ele><time>2026-04-26T08:28:23.289Z</time></trkpt><trkpt lat="42.369724" lon="14.2816842"><ele>62.8</ele><time>2026-04-26T08:28:24.29Z</time></trkpt><trkpt lat="42.3697225" lon="14.2818637"><ele>62.599999999999994</ele><time>2026-04-26T08:28:25.288Z</time></trkpt><trkpt lat="42.369713" lon="14.2820198"><ele>62.400000000000006</ele><time>2026-04-26T08:28:26.288Z</time></trkpt><trkpt lat="42.3696958" lon="14.2821465"><ele>62.2</ele><time>2026-04-26T08:28:27.286Z</time></trkpt><trkpt lat="42.3696697" lon="14.2822297"><ele>62.0</ele><time>2026-04-26T08:28:28.286Z</time></trkpt><trkpt lat="42.3695972" lon="14.2822575"><ele>62.0</ele><time>2026-04-26T08:28:30.286Z</time></trkpt><trkpt lat="42.3695125" lon="14.282138"><ele>62.0</ele><time>2026-04-26T08:28:32.289Z</time></trkpt><trkpt lat="42.3694638" lon="14.2820362"><ele>62.0</ele><time>2026-04-26T08:28:33.29Z</time></trkpt><trkpt lat="42.3693995" lon="14.2819183"><ele>62.0</ele><time>2026-04-26T08:28:34.288Z</time></trkpt><trkpt lat="42.3693193" lon="14.2817863"><ele>62.0</ele><time>2026-04-26T08:28:35.29Z</time></trkpt><trkpt lat="42.3692302" lon="14.2816368"><ele>62.0</ele><time>2026-04-26T08:28:36.289Z</time></trkpt><trkpt lat="42.3691357" lon="14.2814712"><ele>62.0</ele><time>2026-04-26T08:28:37.289Z</time></trkpt><trkpt lat="42.3690343" lon="14.2812942"><ele>62.0</ele><time>2026-04-26T08:28:38.289Z</time></trkpt><trkpt lat="42.3689312" lon="14.2811125"><ele>62.333333333333336</ele><time>2026-04-26T08:28:39.29Z</time></trkpt><trkpt lat="42.3688317" lon="14.2809353"><ele>62.66666666666667</ele><time>2026-04-26T08:28:40.288Z</time></trkpt><trkpt lat="42.3687373" lon="14.2807652"><ele>63.0</ele><time>2026-04-26T08:28:41.289Z</time></trkpt><trkpt lat="42.3686463" lon="14.2806003"><ele>62.5</ele><time>2026-04-26T08:28:42.29Z</time></trkpt><trkpt lat="42.3685605" lon="14.2804475"><ele>62.0</ele><time>2026-04-26T08:28:43.288Z</time></trkpt><trkpt lat="42.3684825" lon="14.2803172"><ele>61.5</ele><time>2026-04-26T08:28:44.288Z</time></trkpt><trkpt lat="42.3684052" lon="14.280221"><ele>61.0</ele><time>2026-04-26T08:28:45.29Z</time></trkpt><trkpt lat="42.368319" lon="14.2801667"><ele>61.0</ele><time>2026-04-26T08:28:46.288Z</time></trkpt><trkpt lat="42.3682268" lon="14.2801553"><ele>60.99999999999999</ele><time>2026-04-26T08:28:47.288Z</time></trkpt><trkpt lat="42.3681288" lon="14.280179"><ele>60.99999999999999</ele><time>2026-04-26T08:28:48.288Z</time></trkpt><trkpt lat="42.3680265" lon="14.280231"><ele>61.0</ele><time>2026-04-26T08:28:49.29Z</time></trkpt><trkpt lat="42.367915" lon="14.2803015"><ele>61.0</ele><time>2026-04-26T08:28:50.287Z</time></trkpt><trkpt lat="42.3677925" lon="14.2803897"><ele>59.0</ele><time>2026-04-26T08:28:51.289Z</time></trkpt><trkpt lat="42.367659" lon="14.2804813"><ele>57.0</ele><time>2026-04-26T08:28:52.286Z</time></trkpt><trkpt lat="42.3675157" lon="14.2805713"><ele>55.0</ele><time>2026-04-26T08:28:53.287Z</time></trkpt><trkpt lat="42.3673612" lon="14.2806522"><ele>55.0</ele><time>2026-04-26T08:28:54.287Z</time></trkpt><trkpt lat="42.3671995" lon="14.2807157"><ele>55.0</ele><time>2026-04-26T08:28:55.289Z</time></trkpt><trkpt lat="42.3670303" lon="14.2807625"><ele>55.0</ele><time>2026-04-26T08:28:56.29Z</time></trkpt><trkpt lat="42.366858" lon="14.2808003"><ele>53.0</ele><time>2026-04-26T08:28:57.292Z</time></trkpt><trkpt lat="42.3666907" lon="14.2808358"><ele>51.0</ele><time>2026-04-26T08:28:58.29Z</time></trkpt><trkpt lat="42.3665302" lon="14.2808725"><ele>49.0</ele><time>2026-04-26T08:28:59.29Z</time></trkpt><trkpt lat="42.3663763" lon="14.2809093"><ele>48.0</ele><time>2026-04-26T08:29:00.289Z</time></trkpt><trkpt lat="42.3662283" lon="14.2809438"><ele>47.0</ele><time>2026-04-26T08:29:01.289Z</time></trkpt><trkpt lat="42.3660872" lon="14.2809762"><ele>46.0</ele><time>2026-04-26T08:29:02.29Z</time></trkpt><trkpt lat="42.3659547" lon="14.2810048"><ele>45.0</ele><time>2026-04-26T08:29:03.29Z</time></trkpt><trkpt lat="42.3658408" lon="14.2810302"><ele>45.0</ele><time>2026-04-26T08:29:04.29Z</time></trkpt><trkpt lat="42.3657422" lon="14.2810522"><ele>45.0</ele><time>2026-04-26T08:29:05.29Z</time></trkpt><trkpt lat="42.3656518" lon="14.2810712"><ele>45.0</ele><time>2026-04-26T08:29:06.289Z</time></trkpt><trkpt lat="42.365573" lon="14.2810753"><ele>45.0</ele><time>2026-04-26T08:29:07.291Z</time></trkpt><trkpt lat="42.3655117" lon="14.281053"><ele>45.0</ele><time>2026-04-26T08:29:08.29Z</time></trkpt><trkpt lat="42.3654565" lon="14.280999"><ele>45.0</ele><time>2026-04-26T08:29:09.289Z</time></trkpt><trkpt lat="42.3654055" lon="14.2809102"><ele>45.0</ele><time>2026-04-26T08:29:10.289Z</time></trkpt><trkpt lat="42.3653467" lon="14.2807955"><ele>45.0</ele><time>2026-04-26T08:29:11.29Z</time></trkpt><trkpt lat="42.3652798" lon="14.2806598"><ele>45.0</ele><time>2026-04-26T08:29:12.291Z</time></trkpt><trkpt lat="42.365205" lon="14.2805077"><ele>45.0</ele><time>2026-04-26T08:29:13.29Z</time></trkpt><trkpt lat="42.3651233" lon="14.2803452"><ele>45.0</ele><time>2026-04-26T08:29:14.291Z</time></trkpt><trkpt lat="42.365042" lon="14.2801792"><ele>45.0</ele><time>2026-04-26T08:29:15.289Z</time></trkpt><trkpt lat="42.3649607" lon="14.2800145"><ele>45.0</ele><time>2026-04-26T08:29:16.288Z</time></trkpt><trkpt lat="42.3648777" lon="14.2798487"><ele>45.0</ele><time>2026-04-26T08:29:17.286Z</time></trkpt><trkpt lat="42.364795" lon="14.279681"><ele>45.333333333333336</ele><time>2026-04-26T08:29:18.287Z</time></trkpt><trkpt lat="42.3647115" lon="14.2795127"><ele>45.66666666666667</ele><time>2026-04-26T08:29:19.287Z</time></trkpt><trkpt lat="42.3646257" lon="14.2793463"><ele>46.0</ele><time>2026-04-26T08:29:20.288Z</time></trkpt><trkpt lat="42.364537" lon="14.2791827"><ele>46.0</ele><time>2026-04-26T08:29:21.29Z</time></trkpt><trkpt lat="42.3644407" lon="14.2790252"><ele>46.0</ele><time>2026-04-26T08:29:22.288Z</time></trkpt><trkpt lat="42.3643328" lon="14.2788792"><ele>46.0</ele><time>2026-04-26T08:29:23.288Z</time></trkpt><trkpt lat="42.3642122" lon="14.2787483"><ele>46.333333333333336</ele><time>2026-04-26T08:29:24.288Z</time></trkpt><trkpt lat="42.3640828" lon="14.278628"><ele>46.666666666666664</ele><time>2026-04-26T08:29:25.289Z</time></trkpt><trkpt lat="42.3639437" lon="14.2785127"><ele>47.0</ele><time>2026-04-26T08:29:26.289Z</time></trkpt><trkpt lat="42.3638012" lon="14.2783973"><ele>47.0</ele><time>2026-04-26T08:29:27.29Z</time></trkpt><trkpt lat="42.3636572" lon="14.2782802"><ele>47.0</ele><time>2026-04-26T08:29:28.289Z</time></trkpt><trkpt lat="42.3635108" lon="14.2781625"><ele>47.0</ele><time>2026-04-26T08:29:29.29Z</time></trkpt><trkpt lat="42.3633628" lon="14.2780453"><ele>48.0</ele><time>2026-04-26T08:29:30.29Z</time></trkpt><trkpt lat="42.3632175" lon="14.2779337"><ele>49.0</ele><time>2026-04-26T08:29:31.289Z</time></trkpt><trkpt lat="42.3630715" lon="14.2778362"><ele>50.0</ele><time>2026-04-26T08:29:32.29Z</time></trkpt><trkpt lat="42.3629202" lon="14.2777638"><ele>50.0</ele><time>2026-04-26T08:29:33.289Z</time></trkpt><trkpt lat="42.362763" lon="14.2777207"><ele>50.0</ele><time>2026-04-26T08:29:34.289Z</time></trkpt><trkpt lat="42.3625998" lon="14.2777018"><ele>50.0</ele><time>2026-04-26T08:29:35.288Z</time></trkpt><trkpt lat="42.3624307" lon="14.277701"><ele>50.0</ele><time>2026-04-26T08:29:36.288Z</time></trkpt><trkpt lat="42.362257" lon="14.2777087"><ele>50.0</ele><time>2026-04-26T08:29:37.29Z</time></trkpt><trkpt lat="42.3620747" lon="14.2777223"><ele>50.0</ele><time>2026-04-26T08:29:38.289Z</time></trkpt><trkpt lat="42.3618942" lon="14.27774"><ele>50.0</ele><time>2026-04-26T08:29:39.288Z</time></trkpt><trkpt lat="42.3617187" lon="14.277756"><ele>50.0</ele><time>2026-04-26T08:29:40.287Z</time></trkpt><trkpt lat="42.3615427" lon="14.2777732"><ele>50.0</ele><time>2026-04-26T08:29:41.287Z</time></trkpt><trkpt lat="42.3613683" lon="14.2777908"><ele>50.0</ele><time>2026-04-26T08:29:42.285Z</time></trkpt><trkpt lat="42.3611943" lon="14.2778092"><ele>50.0</ele><time>2026-04-26T08:29:43.287Z</time></trkpt><trkpt lat="42.3610232" lon="14.277829"><ele>50.0</ele><time>2026-04-26T08:29:44.289Z</time></trkpt><trkpt lat="42.3608528" lon="14.277844"><ele>50.0</ele><time>2026-04-26T08:29:45.288Z</time></trkpt><trkpt lat="42.3606847" lon="14.2778568"><ele>50.0</ele><time>2026-04-26T08:29:46.29Z</time></trkpt><trkpt lat="42.3605257" lon="14.2778675"><ele>50.0</ele><time>2026-04-26T08:29:47.29Z</time></trkpt><trkpt lat="42.3603782" lon="14.2778703"><ele>50.25</ele><time>2026-04-26T08:29:48.289Z</time></trkpt><trkpt lat="42.3602405" lon="14.277859"><ele>50.5</ele><time>2026-04-26T08:29:49.288Z</time></trkpt><trkpt lat="42.3601153" lon="14.2778215"><ele>50.75</ele><time>2026-04-26T08:29:50.289Z</time></trkpt><trkpt lat="42.3600015" lon="14.2777507"><ele>51.0</ele><time>2026-04-26T08:29:51.288Z</time></trkpt><trkpt lat="42.359904" lon="14.2776457"><ele>51.0</ele><time>2026-04-26T08:29:52.289Z</time></trkpt><trkpt lat="42.3598303" lon="14.2775205"><ele>51.0</ele><time>2026-04-26T08:29:53.288Z</time></trkpt><trkpt lat="42.3597818" lon="14.2773875"><ele>51.0</ele><time>2026-04-26T08:29:54.287Z</time></trkpt><trkpt lat="42.3597477" lon="14.2772558"><ele>51.0</ele><time>2026-04-26T08:29:55.286Z</time></trkpt><trkpt lat="42.3597203" lon="14.2771417"><ele>51.0</ele><time>2026-04-26T08:29:56.289Z</time></trkpt><trkpt lat="42.3596963" lon="14.2770557"><ele>50.833333333333336</ele><time>2026-04-26T08:29:57.289Z</time></trkpt><trkpt lat="42.3596257" lon="14.2769638"><ele>50.66666666666667</ele><time>2026-04-26T08:29:59.288Z</time></trkpt><trkpt lat="42.3595573" lon="14.2770253"><ele>50.5</ele><time>2026-04-26T08:30:01.286Z</time></trkpt><trkpt lat="42.3595273" lon="14.277108"><ele>50.333333333333336</ele><time>2026-04-26T08:30:02.287Z</time></trkpt><trkpt lat="42.3595007" lon="14.2772212"><ele>50.16666666666667</ele><time>2026-04-26T08:30:03.286Z</time></trkpt><trkpt lat="42.3594905" lon="14.2773613"><ele>50.0</ele><time>2026-04-26T08:30:04.285Z</time></trkpt><trkpt lat="42.3595003" lon="14.277522"><ele>50.0</ele><time>2026-04-26T08:30:05.284Z</time></trkpt><trkpt lat="42.359528" lon="14.2776987"><ele>50.0</ele><time>2026-04-26T08:30:06.282Z</time></trkpt><trkpt lat="42.3595635" lon="14.2778877"><ele>50.0</ele><time>2026-04-26T08:30:07.286Z</time></trkpt><trkpt lat="42.3595928" lon="14.2780718"><ele>50.0</ele><time>2026-04-26T08:30:08.285Z</time></trkpt><trkpt lat="42.3596132" lon="14.2782535"><ele>49.0</ele><time>2026-04-26T08:30:09.286Z</time></trkpt><trkpt lat="42.3596233" lon="14.2784392"><ele>48.0</ele><time>2026-04-26T08:30:10.285Z</time></trkpt><trkpt lat="42.3595862" lon="14.2786288"><ele>47.0</ele><time>2026-04-26T08:30:11.289Z</time></trkpt><trkpt lat="42.3595322" lon="14.2788182"><ele>46.0</ele><time>2026-04-26T08:30:12.289Z</time></trkpt><trkpt lat="42.359469" lon="14.2790023"><ele>45.333333333333336</ele><time>2026-04-26T08:30:13.288Z</time></trkpt><trkpt lat="42.3594042" lon="14.2791883"><ele>44.666666666666664</ele><time>2026-04-26T08:30:14.285Z</time></trkpt><trkpt lat="42.3593375" lon="14.2793805"><ele>44.0</ele><time>2026-04-26T08:30:15.287Z</time></trkpt><trkpt lat="42.3592698" lon="14.2795738"><ele>44.0</ele><time>2026-04-26T08:30:16.288Z</time></trkpt><trkpt lat="42.3592007" lon="14.2797633"><ele>44.0</ele><time>2026-04-26T08:30:17.289Z</time></trkpt><trkpt lat="42.359131" lon="14.2799425"><ele>44.0</ele><time>2026-04-26T08:30:18.29Z</time></trkpt><trkpt lat="42.3590575" lon="14.2801017"><ele>44.0</ele><time>2026-04-26T08:30:19.286Z</time></trkpt><trkpt lat="42.358975" lon="14.280239"><ele>43.5</ele><time>2026-04-26T08:30:20.287Z</time></trkpt><trkpt lat="42.3588852" lon="14.28036"><ele>43.0</ele><time>2026-04-26T08:30:21.287Z</time></trkpt><trkpt lat="42.358784" lon="14.2804702"><ele>42.5</ele><time>2026-04-26T08:30:22.286Z</time></trkpt><trkpt lat="42.3586795" lon="14.2805768"><ele>42.0</ele><time>2026-04-26T08:30:23.287Z</time></trkpt><trkpt lat="42.3585808" lon="14.280671"><ele>41.833333333333336</ele><time>2026-04-26T08:30:24.286Z</time></trkpt><trkpt lat="42.3585007" lon="14.2807498"><ele>41.666666666666664</ele><time>2026-04-26T08:30:25.288Z</time></trkpt><trkpt lat="42.3584453" lon="14.2808055"><ele>41.5</ele><time>2026-04-26T08:30:26.286Z</time></trkpt><trkpt lat="42.3584038" lon="14.2808908"><ele>41.33333333333333</ele><time>2026-04-26T08:30:28.287Z</time></trkpt><trkpt lat="42.3585002" lon="14.2808865"><ele>41.166666666666664</ele><time>2026-04-26T08:30:31.284Z</time></trkpt><trkpt lat="42.3585663" lon="14.2808408"><ele>41.0</ele><time>2026-04-26T08:30:32.287Z</time></trkpt><trkpt lat="42.3586495" lon="14.2807827"><ele>41.0</ele><time>2026-04-26T08:30:33.285Z</time></trkpt><trkpt lat="42.3587368" lon="14.2807087"><ele>41.0</ele><time>2026-04-26T08:30:34.287Z</time></trkpt><trkpt lat="42.358831" lon="14.2806248"><ele>41.0</ele><time>2026-04-26T08:30:35.286Z</time></trkpt><trkpt lat="42.358925" lon="14.2805298"><ele>41.0</ele><time>2026-04-26T08:30:36.286Z</time></trkpt><trkpt lat="42.3590208" lon="14.2804268"><ele>41.199999999999996</ele><time>2026-04-26T08:30:37.287Z</time></trkpt><trkpt lat="42.3591042" lon="14.2803225"><ele>41.4</ele><time>2026-04-26T08:30:38.285Z</time></trkpt><trkpt lat="42.3591695" lon="14.2802298"><ele>41.6</ele><time>2026-04-26T08:30:39.285Z</time></trkpt><trkpt lat="42.3592187" lon="14.2801552"><ele>41.8</ele><time>2026-04-26T08:30:40.287Z</time></trkpt><trkpt lat="42.3592572" lon="14.2800822"><ele>42.0</ele><time>2026-04-26T08:30:41.286Z</time></trkpt><trkpt lat="42.3593122" lon="14.2799423"><ele>42.0</ele><time>2026-04-26T08:30:43.288Z</time></trkpt><trkpt lat="42.3593843" lon="14.2798515"><ele>42.0</ele><time>2026-04-26T08:30:45.286Z</time></trkpt><trkpt lat="42.3595017" lon="14.2798387"><ele>42.0</ele><time>2026-04-26T08:30:47.285Z</time></trkpt><trkpt lat="42.3595828" lon="14.2798285"><ele>42.0</ele><time>2026-04-26T08:30:48.286Z</time></trkpt><trkpt lat="42.3596778" lon="14.2798203"><ele>42.0</ele><time>2026-04-26T08:30:49.286Z</time></trkpt><trkpt lat="42.359781" lon="14.2798228"><ele>41.75</ele><time>2026-04-26T08:30:50.284Z</time></trkpt><trkpt lat="42.3598913" lon="14.2798452"><ele>41.5</ele><time>2026-04-26T08:30:51.285Z</time></trkpt><trkpt lat="42.3600133" lon="14.279886"><ele>41.25</ele><time>2026-04-26T08:30:52.288Z</time></trkpt><trkpt lat="42.360144" lon="14.2799248"><ele>41.0</ele><time>2026-04-26T08:30:53.288Z</time></trkpt><trkpt lat="42.360279" lon="14.2799578"><ele>41.0</ele><time>2026-04-26T08:30:54.284Z</time></trkpt><trkpt lat="42.3604222" lon="14.279989"><ele>41.0</ele><time>2026-04-26T08:30:55.283Z</time></trkpt><trkpt lat="42.3605705" lon="14.2800203"><ele>41.0</ele><time>2026-04-26T08:30:56.283Z</time></trkpt><trkpt lat="42.3607143" lon="14.2800555"><ele>41.0</ele><time>2026-04-26T08:30:57.285Z</time></trkpt><trkpt lat="42.3608442" lon="14.2800918"><ele>41.4</ele><time>2026-04-26T08:30:58.285Z</time></trkpt><trkpt lat="42.3609628" lon="14.2801095"><ele>41.8</ele><time>2026-04-26T08:30:59.287Z</time></trkpt><trkpt lat="42.3610632" lon="14.280087"><ele>42.199999999999996</ele><time>2026-04-26T08:31:00.287Z</time></trkpt><trkpt lat="42.3611608" lon="14.2800295"><ele>42.599999999999994</ele><time>2026-04-26T08:31:01.286Z</time></trkpt><trkpt lat="42.3612577" lon="14.2799457"><ele>43.0</ele><time>2026-04-26T08:31:02.286Z</time></trkpt><trkpt lat="42.3613468" lon="14.2798538"><ele>43.0</ele><time>2026-04-26T08:31:03.285Z</time></trkpt><trkpt lat="42.3614292" lon="14.279777"><ele>43.0</ele><time>2026-04-26T08:31:04.287Z</time></trkpt><trkpt lat="42.3615278" lon="14.2797303"><ele>43.0</ele><time>2026-04-26T08:31:05.285Z</time></trkpt><trkpt lat="42.3616347" lon="14.279683"><ele>43.0</ele><time>2026-04-26T08:31:06.286Z</time></trkpt><trkpt lat="42.3617443" lon="14.2796225"><ele>43.0</ele><time>2026-04-26T08:31:07.284Z</time></trkpt><trkpt lat="42.3618582" lon="14.2795632"><ele>43.0</ele><time>2026-04-26T08:31:08.284Z</time></trkpt><trkpt lat="42.3619722" lon="14.2795022"><ele>43.0</ele><time>2026-04-26T08:31:09.286Z</time></trkpt><trkpt lat="42.3620852" lon="14.279451"><ele>43.0</ele><time>2026-04-26T08:31:10.285Z</time></trkpt><trkpt lat="42.3621988" lon="14.279428"><ele>43.0</ele><time>2026-04-26T08:31:11.285Z</time></trkpt><trkpt lat="42.362302" lon="14.2794308"><ele>43.0</ele><time>2026-04-26T08:31:12.286Z</time></trkpt><trkpt lat="42.3623897" lon="14.2794602"><ele>43.0</ele><time>2026-04-26T08:31:13.289Z</time></trkpt><trkpt lat="42.362479" lon="14.2795113"><ele>43.0</ele><time>2026-04-26T08:31:14.286Z</time></trkpt><trkpt lat="42.3625768" lon="14.2795947"><ele>43.0</ele><time>2026-04-26T08:31:15.288Z</time></trkpt><trkpt lat="42.3626862" lon="14.279693"><ele>43.0</ele><time>2026-04-26T08:31:16.287Z</time></trkpt><trkpt lat="42.362807" lon="14.2797907"><ele>43.0</ele><time>2026-04-26T08:31:17.288Z</time></trkpt><trkpt lat="42.3629382" lon="14.279882"><ele>43.0</ele><time>2026-04-26T08:31:18.286Z</time></trkpt><trkpt lat="42.3630785" lon="14.279965"><ele>43.0</ele><time>2026-04-26T08:31:19.286Z</time></trkpt><trkpt lat="42.363228" lon="14.2800448"><ele>42.66666666666667</ele><time>2026-04-26T08:31:20.286Z</time></trkpt><trkpt lat="42.3633792" lon="14.28012"><ele>42.333333333333336</ele><time>2026-04-26T08:31:21.285Z</time></trkpt><trkpt lat="42.3635323" lon="14.2801925"><ele>42.0</ele><time>2026-04-26T08:31:22.289Z</time></trkpt><trkpt lat="42.3636785" lon="14.2802677"><ele>42.0</ele><time>2026-04-26T08:31:23.288Z</time></trkpt><trkpt lat="42.3638073" lon="14.2803563"><ele>42.0</ele><time>2026-04-26T08:31:24.289Z</time></trkpt><trkpt lat="42.3639115" lon="14.2804688"><ele>42.0</ele><time>2026-04-26T08:31:25.288Z</time></trkpt><trkpt lat="42.3639992" lon="14.2806077"><ele>42.0</ele><time>2026-04-26T08:31:26.288Z</time></trkpt><trkpt lat="42.3640692" lon="14.2807543"><ele>41.2</ele><time>2026-04-26T08:31:27.289Z</time></trkpt><trkpt lat="42.3641325" lon="14.2808872"><ele>40.400000000000006</ele><time>2026-04-26T08:31:28.288Z</time></trkpt><trkpt lat="42.3641915" lon="14.2810048"><ele>39.599999999999994</ele><time>2026-04-26T08:31:29.289Z</time></trkpt><trkpt lat="42.3642445" lon="14.2811102"><ele>38.8</ele><time>2026-04-26T08:31:30.289Z</time></trkpt><trkpt lat="42.3642923" lon="14.2812157"><ele>38.0</ele><time>2026-04-26T08:31:31.288Z</time></trkpt><trkpt lat="42.364327" lon="14.2813228"><ele>37.6</ele><time>2026-04-26T08:31:32.29Z</time></trkpt><trkpt lat="42.3643425" lon="14.281446"><ele>37.199999999999996</ele><time>2026-04-26T08:31:33.288Z</time></trkpt><trkpt lat="42.3643405" lon="14.2815865"><ele>36.8</ele><time>2026-04-26T08:31:34.288Z</time></trkpt><trkpt lat="42.3643242" lon="14.2817367"><ele>36.4</ele><time>2026-04-26T08:31:35.29Z</time></trkpt><trkpt lat="42.3642905" lon="14.281889"><ele>36.0</ele><time>2026-04-26T08:31:36.29Z</time></trkpt><trkpt lat="42.3642443" lon="14.2820358"><ele>36.0</ele><time>2026-04-26T08:31:37.29Z</time></trkpt><trkpt lat="42.3641857" lon="14.2821683"><ele>36.0</ele><time>2026-04-26T08:31:38.288Z</time></trkpt><trkpt lat="42.3641305" lon="14.2822955"><ele>36.0</ele><time>2026-04-26T08:31:39.287Z</time></trkpt><trkpt lat="42.3640993" lon="14.28242"><ele>36.0</ele><time>2026-04-26T08:31:40.287Z</time></trkpt><trkpt lat="42.3640965" lon="14.2825492"><ele>36.0</ele><time>2026-04-26T08:31:41.286Z</time></trkpt><trkpt lat="42.3641047" lon="14.2826898"><ele>36.0</ele><time>2026-04-26T08:31:42.287Z</time></trkpt><trkpt lat="42.3641192" lon="14.2828288"><ele>36.0</ele><time>2026-04-26T08:31:43.286Z</time></trkpt><trkpt lat="42.3641482" lon="14.2829463"><ele>36.0</ele><time>2026-04-26T08:31:44.284Z</time></trkpt><trkpt lat="42.3641942" lon="14.2830677"><ele>36.0</ele><time>2026-04-26T08:31:45.285Z</time></trkpt><trkpt lat="42.3642363" lon="14.2831937"><ele>36.0</ele><time>2026-04-26T08:31:46.286Z</time></trkpt><trkpt lat="42.3642615" lon="14.2833322"><ele>35.75</ele><time>2026-04-26T08:31:47.287Z</time></trkpt><trkpt lat="42.3642728" lon="14.2834867"><ele>35.5</ele><time>2026-04-26T08:31:48.289Z</time></trkpt><trkpt lat="42.3642803" lon="14.2836507"><ele>35.25</ele><time>2026-04-26T08:31:49.287Z</time></trkpt><trkpt lat="42.364282" lon="14.2838227"><ele>35.0</ele><time>2026-04-26T08:31:50.288Z</time></trkpt><trkpt lat="42.3642703" lon="14.2840093"><ele>34.5</ele><time>2026-04-26T08:31:51.289Z</time></trkpt><trkpt lat="42.364256" lon="14.2842017"><ele>34.0</ele><time>2026-04-26T08:31:52.294Z</time></trkpt><trkpt lat="42.3642408" lon="14.2843983"><ele>33.5</ele><time>2026-04-26T08:31:53.292Z</time></trkpt><trkpt lat="42.3642217" lon="14.2845888"><ele>33.0</ele><time>2026-04-26T08:31:54.288Z</time></trkpt><trkpt lat="42.3642037" lon="14.2847757"><ele>33.0</ele><time>2026-04-26T08:31:55.289Z</time></trkpt><trkpt lat="42.3641905" lon="14.2849582"><ele>33.0</ele><time>2026-04-26T08:31:56.287Z</time></trkpt><trkpt lat="42.3641778" lon="14.2851392"><ele>33.0</ele><time>2026-04-26T08:31:57.287Z</time></trkpt><trkpt lat="42.3641828" lon="14.285319"><ele>33.0</ele><time>2026-04-26T08:31:58.287Z</time></trkpt><trkpt lat="42.3642045" lon="14.2854987"><ele>33.75</ele><time>2026-04-26T08:31:59.286Z</time></trkpt><trkpt lat="42.364231" lon="14.2856708"><ele>34.5</ele><time>2026-04-26T08:32:00.286Z</time></trkpt><trkpt lat="42.3642678" lon="14.285841"><ele>35.25</ele><time>2026-04-26T08:32:01.287Z</time></trkpt><trkpt lat="42.3643222" lon="14.2859992"><ele>36.0</ele><time>2026-04-26T08:32:02.29Z</time></trkpt><trkpt lat="42.36439" lon="14.2861517"><ele>36.0</ele><time>2026-04-26T08:32:03.289Z</time></trkpt><trkpt lat="42.364465" lon="14.2863003"><ele>36.0</ele><time>2026-04-26T08:32:04.289Z</time></trkpt><trkpt lat="42.364546" lon="14.2864268"><ele>36.0</ele><time>2026-04-26T08:32:05.288Z</time></trkpt><trkpt lat="42.3646438" lon="14.2865363"><ele>36.0</ele><time>2026-04-26T08:32:06.288Z</time></trkpt><trkpt lat="42.364755" lon="14.2866448"><ele>35.666666666666664</ele><time>2026-04-26T08:32:07.286Z</time></trkpt><trkpt lat="42.3648737" lon="14.286756"><ele>35.33333333333333</ele><time>2026-04-26T08:32:08.285Z</time></trkpt><trkpt lat="42.3649972" lon="14.2868757"><ele>35.0</ele><time>2026-04-26T08:32:09.288Z</time></trkpt><trkpt lat="42.3651235" lon="14.2870073"><ele>35.0</ele><time>2026-04-26T08:32:10.286Z</time></trkpt><trkpt lat="42.365247" lon="14.2871278"><ele>35.0</ele><time>2026-04-26T08:32:11.287Z</time></trkpt><trkpt lat="42.3653638" lon="14.2872338"><ele>35.0</ele><time>2026-04-26T08:32:12.289Z</time></trkpt><trkpt lat="42.365466" lon="14.287307"><ele>35.0</ele><time>2026-04-26T08:32:13.289Z</time></trkpt><trkpt lat="42.3655527" lon="14.2873488"><ele>34.6</ele><time>2026-04-26T08:32:14.288Z</time></trkpt><trkpt lat="42.3656527" lon="14.2873683"><ele>34.2</ele><time>2026-04-26T08:32:15.288Z</time></trkpt><trkpt lat="42.3657457" lon="14.2873842"><ele>33.8</ele><time>2026-04-26T08:32:16.29Z</time></trkpt><trkpt lat="42.365811" lon="14.2873977"><ele>33.4</ele><time>2026-04-26T08:32:17.288Z</time></trkpt><trkpt lat="42.3658885" lon="14.2874027"><ele>33.0</ele><time>2026-04-26T08:32:20.288Z</time></trkpt><trkpt lat="42.3660148" lon="14.2873432"><ele>33.0</ele><time>2026-04-26T08:32:22.288Z</time></trkpt><trkpt lat="42.3661107" lon="14.2872835"><ele>33.0</ele><time>2026-04-26T08:32:23.29Z</time></trkpt><trkpt lat="42.366222" lon="14.2872225"><ele>33.0</ele><time>2026-04-26T08:32:24.289Z</time></trkpt><trkpt lat="42.3663343" lon="14.2871813"><ele>33.0</ele><time>2026-04-26T08:32:25.288Z</time></trkpt><trkpt lat="42.3664298" lon="14.2871785"><ele>33.0</ele><time>2026-04-26T08:32:26.288Z</time></trkpt><trkpt lat="42.3665038" lon="14.2872158"><ele>33.4</ele><time>2026-04-26T08:32:27.29Z</time></trkpt><trkpt lat="42.3665603" lon="14.2872897"><ele>33.8</ele><time>2026-04-26T08:32:28.288Z</time></trkpt><trkpt lat="42.3665998" lon="14.2873998"><ele>34.2</ele><time>2026-04-26T08:32:29.289Z</time></trkpt><trkpt lat="42.3666253" lon="14.2875402"><ele>34.6</ele><time>2026-04-26T08:32:30.289Z</time></trkpt><trkpt lat="42.3666463" lon="14.2877015"><ele>35.0</ele><time>2026-04-26T08:32:31.289Z</time></trkpt><trkpt lat="42.3666752" lon="14.2878785"><ele>35.0</ele><time>2026-04-26T08:32:32.285Z</time></trkpt><trkpt lat="42.3667137" lon="14.288067"><ele>35.0</ele><time>2026-04-26T08:32:33.287Z</time></trkpt><trkpt lat="42.366757" lon="14.2882647"><ele>35.0</ele><time>2026-04-26T08:32:34.287Z</time></trkpt><trkpt lat="42.3668087" lon="14.2884648"><ele>34.75</ele><time>2026-04-26T08:32:35.286Z</time></trkpt><trkpt lat="42.366856" lon="14.288665"><ele>34.5</ele><time>2026-04-26T08:32:36.289Z</time></trkpt><trkpt lat="42.3668833" lon="14.2888562"><ele>34.25</ele><time>2026-04-26T08:32:37.289Z</time></trkpt><trkpt lat="42.3669068" lon="14.289047"><ele>34.0</ele><time>2026-04-26T08:32:38.29Z</time></trkpt><trkpt lat="42.3669278" lon="14.2892443"><ele>33.66666666666667</ele><time>2026-04-26T08:32:39.289Z</time></trkpt><trkpt lat="42.3669398" lon="14.2894448"><ele>33.333333333333336</ele><time>2026-04-26T08:32:40.288Z</time></trkpt><trkpt lat="42.3669522" lon="14.289653"><ele>33.0</ele><time>2026-04-26T08:32:41.287Z</time></trkpt><trkpt lat="42.366968" lon="14.2898562"><ele>33.0</ele><time>2026-04-26T08:32:42.288Z</time></trkpt><trkpt lat="42.3669838" lon="14.2900468"><ele>33.0</ele><time>2026-04-26T08:32:43.288Z</time></trkpt><trkpt lat="42.3670107" lon="14.2902228"><ele>33.0</ele><time>2026-04-26T08:32:44.288Z</time></trkpt><trkpt lat="42.3670485" lon="14.2903827"><ele>33.0</ele><time>2026-04-26T08:32:45.288Z</time></trkpt><trkpt lat="42.3671037" lon="14.2905282"><ele>32.75</ele><time>2026-04-26T08:32:46.288Z</time></trkpt><trkpt lat="42.3671738" lon="14.290673"><ele>32.5</ele><time>2026-04-26T08:32:47.288Z</time></trkpt><trkpt lat="42.3672613" lon="14.2908033"><ele>32.25</ele><time>2026-04-26T08:32:48.289Z</time></trkpt><trkpt lat="42.3673657" lon="14.290926"><ele>32.0</ele><time>2026-04-26T08:32:49.289Z</time></trkpt><trkpt lat="42.3674715" lon="14.2910423"><ele>32.5</ele><time>2026-04-26T08:32:50.289Z</time></trkpt><trkpt lat="42.3675682" lon="14.2911777"><ele>33.0</ele><time>2026-04-26T08:32:51.288Z</time></trkpt><trkpt lat="42.3676565" lon="14.2913305"><ele>33.5</ele><time>2026-04-26T08:32:52.289Z</time></trkpt><trkpt lat="42.3677447" lon="14.2914975"><ele>34.0</ele><time>2026-04-26T08:32:53.29Z</time></trkpt><trkpt lat="42.3678342" lon="14.291672"><ele>32.66666666666667</ele><time>2026-04-26T08:32:54.288Z</time></trkpt><trkpt lat="42.3679222" lon="14.2918532"><ele>31.333333333333336</ele><time>2026-04-26T08:32:55.291Z</time></trkpt><trkpt lat="42.368" lon="14.2920453"><ele>30.0</ele><time>2026-04-26T08:32:56.288Z</time></trkpt><trkpt lat="42.3680608" lon="14.2922505"><ele>30.0</ele><time>2026-04-26T08:32:57.288Z</time></trkpt><trkpt lat="42.3681112" lon="14.2924658"><ele>30.0</ele><time>2026-04-26T08:32:58.287Z</time></trkpt><trkpt lat="42.3681577" lon="14.2926872"><ele>30.0</ele><time>2026-04-26T08:32:59.287Z</time></trkpt><trkpt lat="42.368205" lon="14.2929097"><ele>30.0</ele><time>2026-04-26T08:33:00.29Z</time></trkpt><trkpt lat="42.3682555" lon="14.2931333"><ele>30.0</ele><time>2026-04-26T08:33:01.288Z</time></trkpt><trkpt lat="42.36831" lon="14.2933578"><ele>30.0</ele><time>2026-04-26T08:33:02.289Z</time></trkpt><trkpt lat="42.3683652" lon="14.2935772"><ele>30.0</ele><time>2026-04-26T08:33:03.287Z</time></trkpt><trkpt lat="42.3684227" lon="14.2937812"><ele>30.0</ele><time>2026-04-26T08:33:04.29Z</time></trkpt><trkpt lat="42.3684748" lon="14.2939648"><ele>30.0</ele><time>2026-04-26T08:33:05.288Z</time></trkpt><trkpt lat="42.3685013" lon="14.2941612"><ele>29.75</ele><time>2026-04-26T08:33:06.289Z</time></trkpt><trkpt lat="42.3685258" lon="14.2943692"><ele>29.5</ele><time>2026-04-26T08:33:07.289Z</time></trkpt><trkpt lat="42.368549" lon="14.2945692"><ele>29.25</ele><time>2026-04-26T08:33:08.288Z</time></trkpt><trkpt lat="42.3685605" lon="14.2947512"><ele>29.0</ele><time>2026-04-26T08:33:09.289Z</time></trkpt><trkpt lat="42.3685525" lon="14.2949027"><ele>28.999999999999996</ele><time>2026-04-26T08:33:10.288Z</time></trkpt><trkpt lat="42.3685292" lon="14.295014"><ele>29.0</ele><time>2026-04-26T08:33:11.287Z</time></trkpt><trkpt lat="42.3685172" lon="14.2951227"><ele>29.0</ele><time>2026-04-26T08:33:13.289Z</time></trkpt><trkpt lat="42.3685567" lon="14.2952553"><ele>29.0</ele><time>2026-04-26T08:33:22.286Z</time></trkpt><trkpt lat="42.3685943" lon="14.2953452"><ele>28.999999999999996</ele><time>2026-04-26T08:33:23.287Z</time></trkpt><trkpt lat="42.3686398" lon="14.2954513"><ele>29.0</ele><time>2026-04-26T08:33:24.286Z</time></trkpt><trkpt lat="42.36868" lon="14.2955512"><ele>29.0</ele><time>2026-04-26T08:33:25.287Z</time></trkpt><trkpt lat="42.3687167" lon="14.2956548"><ele>29.0</ele><time>2026-04-26T08:33:26.287Z</time></trkpt><trkpt lat="42.3687625" lon="14.2957708"><ele>29.0</ele><time>2026-04-26T08:33:27.288Z</time></trkpt><trkpt lat="42.3688132" lon="14.2958948"><ele>29.0</ele><time>2026-04-26T08:33:28.288Z</time></trkpt><trkpt lat="42.3688678" lon="14.296029"><ele>29.0</ele><time>2026-04-26T08:33:29.292Z</time></trkpt><trkpt lat="42.3689365" lon="14.2961672"><ele>28.75</ele><time>2026-04-26T08:33:30.288Z</time></trkpt><trkpt lat="42.3690067" lon="14.2963152"><ele>28.5</ele><time>2026-04-26T08:33:31.287Z</time></trkpt><trkpt lat="42.3690782" lon="14.2964698"><ele>28.25</ele><time>2026-04-26T08:33:32.288Z</time></trkpt><trkpt lat="42.3691475" lon="14.2966205"><ele>28.0</ele><time>2026-04-26T08:33:33.288Z</time></trkpt><trkpt lat="42.3692178" lon="14.2967717"><ele>28.5</ele><time>2026-04-26T08:33:34.288Z</time></trkpt><trkpt lat="42.3692883" lon="14.2969237"><ele>29.0</ele><time>2026-04-26T08:33:35.293Z</time></trkpt><trkpt lat="42.369358" lon="14.2970768"><ele>29.5</ele><time>2026-04-26T08:33:36.29Z</time></trkpt><trkpt lat="42.369432" lon="14.2972327"><ele>30.0</ele><time>2026-04-26T08:33:37.288Z</time></trkpt><trkpt lat="42.3695088" lon="14.2973962"><ele>30.0</ele><time>2026-04-26T08:33:38.289Z</time></trkpt><trkpt lat="42.3695865" lon="14.2975655"><ele>30.0</ele><time>2026-04-26T08:33:39.288Z</time></trkpt><trkpt lat="42.3696632" lon="14.2977367"><ele>30.0</ele><time>2026-04-26T08:33:40.288Z</time></trkpt><trkpt lat="42.369743" lon="14.2979042"><ele>30.0</ele><time>2026-04-26T08:33:41.288Z</time></trkpt><trkpt lat="42.369829" lon="14.298065"><ele>29.75</ele><time>2026-04-26T08:33:42.289Z</time></trkpt><trkpt lat="42.3699193" lon="14.2982175"><ele>29.5</ele><time>2026-04-26T08:33:43.288Z</time></trkpt><trkpt lat="42.3700005" lon="14.2983497"><ele>29.25</ele><time>2026-04-26T08:33:44.29Z</time></trkpt><trkpt lat="42.3700903" lon="14.2984618"><ele>29.0</ele><time>2026-04-26T08:33:45.287Z</time></trkpt><trkpt lat="42.3701963" lon="14.2985718"><ele>29.0</ele><time>2026-04-26T08:33:46.284Z</time></trkpt><trkpt lat="42.370312" lon="14.2986832"><ele>29.0</ele><time>2026-04-26T08:33:47.285Z</time></trkpt><trkpt lat="42.3704322" lon="14.298797"><ele>29.0</ele><time>2026-04-26T08:33:48.285Z</time></trkpt><trkpt lat="42.3705572" lon="14.298916"><ele>29.0</ele><time>2026-04-26T08:33:49.286Z</time></trkpt><trkpt lat="42.370687" lon="14.2990378"><ele>28.5</ele><time>2026-04-26T08:33:50.289Z</time></trkpt><trkpt lat="42.3708122" lon="14.2991582"><ele>28.0</ele><time>2026-04-26T08:33:51.288Z</time></trkpt><trkpt lat="42.3709287" lon="14.2992635"><ele>27.5</ele><time>2026-04-26T08:33:52.288Z</time></trkpt><trkpt lat="42.3710493" lon="14.2993485"><ele>27.0</ele><time>2026-04-26T08:33:53.288Z</time></trkpt><trkpt lat="42.3711677" lon="14.2994003"><ele>27.0</ele><time>2026-04-26T08:33:54.291Z</time></trkpt><trkpt lat="42.3712803" lon="14.2994278"><ele>27.0</ele><time>2026-04-26T08:33:55.291Z</time></trkpt><trkpt lat="42.371394" lon="14.2994235"><ele>27.0</ele><time>2026-04-26T08:33:56.287Z</time></trkpt><trkpt lat="42.3715183" lon="14.2994098"><ele>27.0</ele><time>2026-04-26T08:33:57.288Z</time></trkpt><trkpt lat="42.3716552" lon="14.2994057"><ele>26.75</ele><time>2026-04-26T08:33:58.287Z</time></trkpt><trkpt lat="42.3717902" lon="14.2994177"><ele>26.5</ele><time>2026-04-26T08:33:59.286Z</time></trkpt><trkpt lat="42.3719205" lon="14.2994542"><ele>26.25</ele><time>2026-04-26T08:34:00.286Z</time></trkpt><trkpt lat="42.3720207" lon="14.2995072"><ele>26.0</ele><time>2026-04-26T08:34:01.286Z</time></trkpt><trkpt lat="42.3720945" lon="14.299582"><ele>26.0</ele><time>2026-04-26T08:34:02.287Z</time></trkpt><trkpt lat="42.372162" lon="14.2996755"><ele>26.0</ele><time>2026-04-26T08:34:03.286Z</time></trkpt><trkpt lat="42.3722322" lon="14.2997947"><ele>26.0</ele><time>2026-04-26T08:34:04.289Z</time></trkpt><trkpt lat="42.372299" lon="14.29993"><ele>26.0</ele><time>2026-04-26T08:34:05.287Z</time></trkpt><trkpt lat="42.3723608" lon="14.300071"><ele>25.75</ele><time>2026-04-26T08:34:06.288Z</time></trkpt><trkpt lat="42.3724212" lon="14.3002217"><ele>25.5</ele><time>2026-04-26T08:34:07.286Z</time></trkpt><trkpt lat="42.3724833" lon="14.300375"><ele>25.25</ele><time>2026-04-26T08:34:08.287Z</time></trkpt><trkpt lat="42.372545" lon="14.3005128"><ele>25.0</ele><time>2026-04-26T08:34:09.287Z</time></trkpt><trkpt lat="42.3726048" lon="14.3006385"><ele>24.666666666666668</ele><time>2026-04-26T08:34:10.286Z</time></trkpt><trkpt lat="42.3726663" lon="14.3007477"><ele>24.333333333333336</ele><time>2026-04-26T08:34:11.288Z</time></trkpt><trkpt lat="42.372734" lon="14.3008313"><ele>24.0</ele><time>2026-04-26T08:34:12.287Z</time></trkpt><trkpt lat="42.3728073" lon="14.3008915"><ele>23.666666666666668</ele><time>2026-04-26T08:34:13.287Z</time></trkpt><trkpt lat="42.3728782" lon="14.3009407"><ele>23.333333333333336</ele><time>2026-04-26T08:34:14.291Z</time></trkpt><trkpt lat="42.372958" lon="14.3009803"><ele>23.0</ele><time>2026-04-26T08:34:16.289Z</time></trkpt><trkpt lat="42.3728655" lon="14.3009533"><ele>23.0</ele><time>2026-04-26T08:34:41.287Z</time></trkpt><trkpt lat="42.3727983" lon="14.3009015"><ele>23.0</ele><time>2026-04-26T08:34:42.295Z</time></trkpt><trkpt lat="42.3727218" lon="14.3008198"><ele>23.0</ele><time>2026-04-26T08:34:43.288Z</time></trkpt><trkpt lat="42.3726523" lon="14.3007187"><ele>23.0</ele><time>2026-04-26T08:34:44.293Z</time></trkpt><trkpt lat="42.3725953" lon="14.300606"><ele>23.0</ele><time>2026-04-26T08:34:45.287Z</time></trkpt><trkpt lat="42.3725418" lon="14.3004858"><ele>23.5</ele><time>2026-04-26T08:34:46.287Z</time></trkpt><trkpt lat="42.3724797" lon="14.3003553"><ele>24.0</ele><time>2026-04-26T08:34:47.287Z</time></trkpt><trkpt lat="42.3724215" lon="14.3002138"><ele>24.5</ele><time>2026-04-26T08:34:48.288Z</time></trkpt><trkpt lat="42.372365" lon="14.300077"><ele>25.0</ele><time>2026-04-26T08:34:49.287Z</time></trkpt><trkpt lat="42.3723002" lon="14.2999388"><ele>25.25</ele><time>2026-04-26T08:34:50.287Z</time></trkpt><trkpt lat="42.3721865" lon="14.2997123"><ele>25.5</ele><time>2026-04-26T08:34:52.286Z</time></trkpt><trkpt lat="42.3721215" lon="14.2996417"><ele>25.75</ele><time>2026-04-26T08:34:53.287Z</time></trkpt><trkpt lat="42.3720537" lon="14.2995857"><ele>26.0</ele><time>2026-04-26T08:34:54.286Z</time></trkpt><trkpt lat="42.3719688" lon="14.2995368"><ele>25.999999999999996</ele><time>2026-04-26T08:34:55.287Z</time></trkpt><trkpt lat="42.3718937" lon="14.2995187"><ele>26.0</ele><time>2026-04-26T08:34:56.288Z</time></trkpt><trkpt lat="42.3718182" lon="14.2995037"><ele>26.0</ele><time>2026-04-26T08:34:57.288Z</time></trkpt><trkpt lat="42.3717285" lon="14.2994987"><ele>26.0</ele><time>2026-04-26T08:34:58.287Z</time></trkpt><trkpt lat="42.3716285" lon="14.2995003"><ele>25.999999999999996</ele><time>2026-04-26T08:34:59.285Z</time></trkpt><trkpt lat="42.3715352" lon="14.299508"><ele>26.0</ele><time>2026-04-26T08:35:00.286Z</time></trkpt><trkpt lat="42.3714522" lon="14.2995047"><ele>26.0</ele><time>2026-04-26T08:35:01.288Z</time></trkpt><trkpt lat="42.3713842" lon="14.2995055"><ele>26.0</ele><time>2026-04-26T08:35:02.285Z</time></trkpt><trkpt lat="42.3714798" lon="14.2994918"><ele>26.0</ele><time>2026-04-26T08:35:10.287Z</time></trkpt><trkpt lat="42.3715765" lon="14.2994795"><ele>26.0</ele><time>2026-04-26T08:35:11.288Z</time></trkpt><trkpt lat="42.3716867" lon="14.2994737"><ele>26.0</ele><time>2026-04-26T08:35:12.288Z</time></trkpt><trkpt lat="42.371792" lon="14.2994758"><ele>26.0</ele><time>2026-04-26T08:35:13.287Z</time></trkpt><trkpt lat="42.3718852" lon="14.2994898"><ele>26.0</ele><time>2026-04-26T08:35:14.286Z</time></trkpt><trkpt lat="42.3719528" lon="14.2995147"><ele>26.0</ele><time>2026-04-26T08:35:15.288Z</time></trkpt><trkpt lat="42.3720388" lon="14.2995298"><ele>26.0</ele><time>2026-04-26T08:38:18.285Z</time></trkpt><trkpt lat="42.3721307" lon="14.2996212"><ele>26.0</ele><time>2026-04-26T08:38:20.287Z</time></trkpt><trkpt lat="42.37222" lon="14.2997623"><ele>25.8</ele><time>2026-04-26T08:38:22.287Z</time></trkpt><trkpt lat="42.3722657" lon="14.2998647"><ele>25.6</ele><time>2026-04-26T08:38:23.287Z</time></trkpt><trkpt lat="42.372313" lon="14.299968"><ele>25.4</ele><time>2026-04-26T08:38:24.286Z</time></trkpt><trkpt lat="42.37237" lon="14.3000863"><ele>25.2</ele><time>2026-04-26T08:38:25.288Z</time></trkpt><trkpt lat="42.3724212" lon="14.3002087"><ele>25.0</ele><time>2026-04-26T08:38:26.286Z</time></trkpt><trkpt lat="42.3724652" lon="14.3003155"><ele>25.0</ele><time>2026-04-26T08:38:27.289Z</time></trkpt><trkpt lat="42.3725132" lon="14.3004148"><ele>25.0</ele><time>2026-04-26T08:38:28.286Z</time></trkpt><trkpt lat="42.3725663" lon="14.3005252"><ele>25.0</ele><time>2026-04-26T08:38:29.286Z</time></trkpt><trkpt lat="42.3726248" lon="14.3006405"><ele>25.0</ele><time>2026-04-26T08:38:30.288Z</time></trkpt><trkpt lat="42.3726917" lon="14.3007555"><ele>25.0</ele><time>2026-04-26T08:38:31.289Z</time></trkpt><trkpt lat="42.3727627" lon="14.3008425"><ele>24.666666666666668</ele><time>2026-04-26T08:38:32.288Z</time></trkpt><trkpt lat="42.3728368" lon="14.3009038"><ele>24.333333333333336</ele><time>2026-04-26T08:38:33.289Z</time></trkpt><trkpt lat="42.3729082" lon="14.300949"><ele>24.0</ele><time>2026-04-26T08:38:34.293Z</time></trkpt><trkpt lat="42.3729792" lon="14.3009737"><ele>23.666666666666668</ele><time>2026-04-26T08:38:35.289Z</time></trkpt><trkpt lat="42.373094" lon="14.3010002"><ele>23.333333333333336</ele><time>2026-04-26T08:38:37.29Z</time></trkpt><trkpt lat="42.3731633" lon="14.3010142"><ele>23.0</ele><time>2026-04-26T08:38:38.287Z</time></trkpt><trkpt lat="42.373247" lon="14.3010083"><ele>23.0</ele><time>2026-04-26T08:38:39.286Z</time></trkpt><trkpt lat="42.3733413" lon="14.3009802"><ele>23.0</ele><time>2026-04-26T08:38:40.286Z</time></trkpt><trkpt lat="42.373443" lon="14.300934"><ele>23.0</ele><time>2026-04-26T08:38:41.285Z</time></trkpt><trkpt lat="42.3735537" lon="14.3008763"><ele>23.0</ele><time>2026-04-26T08:38:42.288Z</time></trkpt><trkpt lat="42.3736665" lon="14.3008187"><ele>23.0</ele><time>2026-04-26T08:38:43.288Z</time></trkpt><trkpt lat="42.3737708" lon="14.3007635"><ele>23.0</ele><time>2026-04-26T08:38:44.289Z</time></trkpt><trkpt lat="42.3738735" lon="14.3007103"><ele>23.0</ele><time>2026-04-26T08:38:45.288Z</time></trkpt><trkpt lat="42.3739813" lon="14.3006547"><ele>23.0</ele><time>2026-04-26T08:38:46.286Z</time></trkpt><trkpt lat="42.3740935" lon="14.3005943"><ele>23.0</ele><time>2026-04-26T08:38:47.288Z</time></trkpt><trkpt lat="42.3742077" lon="14.300533"><ele>22.599999999999998</ele><time>2026-04-26T08:38:48.289Z</time></trkpt><trkpt lat="42.3743227" lon="14.3004792"><ele>22.2</ele><time>2026-04-26T08:38:49.289Z</time></trkpt><trkpt lat="42.374433" lon="14.3004452"><ele>21.8</ele><time>2026-04-26T08:38:50.287Z</time></trkpt><trkpt lat="42.3745355" lon="14.3004367"><ele>21.4</ele><time>2026-04-26T08:38:51.289Z</time></trkpt><trkpt lat="42.3746227" lon="14.3004568"><ele>21.0</ele><time>2026-04-26T08:38:52.288Z</time></trkpt><trkpt lat="42.3746965" lon="14.3005033"><ele>21.4</ele><time>2026-04-26T08:38:53.288Z</time></trkpt><trkpt lat="42.374772" lon="14.300574"><ele>21.8</ele><time>2026-04-26T08:38:54.29Z</time></trkpt><trkpt lat="42.3748437" lon="14.3006745"><ele>22.2</ele><time>2026-04-26T08:38:55.287Z</time></trkpt><trkpt lat="42.374897" lon="14.3007975"><ele>22.599999999999998</ele><time>2026-04-26T08:38:56.288Z</time></trkpt><trkpt lat="42.374929" lon="14.300941"><ele>23.0</ele><time>2026-04-26T08:38:57.288Z</time></trkpt><trkpt lat="42.3749383" lon="14.301097"><ele>23.0</ele><time>2026-04-26T08:38:58.289Z</time></trkpt><trkpt lat="42.374933" lon="14.3012637"><ele>23.0</ele><time>2026-04-26T08:38:59.289Z</time></trkpt><trkpt lat="42.3749285" lon="14.3014323"><ele>23.0</ele><time>2026-04-26T08:39:00.291Z</time></trkpt><trkpt lat="42.3749255" lon="14.3015877"><ele>23.0</ele><time>2026-04-26T08:39:01.288Z</time></trkpt><trkpt lat="42.37492" lon="14.3017277"><ele>23.2</ele><time>2026-04-26T08:39:02.288Z</time></trkpt><trkpt lat="42.3749182" lon="14.3018582"><ele>23.4</ele><time>2026-04-26T08:39:03.289Z</time></trkpt><trkpt lat="42.3749232" lon="14.301993"><ele>23.599999999999998</ele><time>2026-04-26T08:39:04.287Z</time></trkpt><trkpt lat="42.3749355" lon="14.3021253"><ele>23.799999999999997</ele><time>2026-04-26T08:39:05.288Z</time></trkpt><trkpt lat="42.3749595" lon="14.302254"><ele>24.0</ele><time>2026-04-26T08:39:06.287Z</time></trkpt><trkpt lat="42.3750058" lon="14.3023748"><ele>24.0</ele><time>2026-04-26T08:39:07.288Z</time></trkpt><trkpt lat="42.375063" lon="14.3024947"><ele>24.0</ele><time>2026-04-26T08:39:08.289Z</time></trkpt><trkpt lat="42.3751295" lon="14.3026062"><ele>24.0</ele><time>2026-04-26T08:39:09.289Z</time></trkpt><trkpt lat="42.375211" lon="14.302706"><ele>24.0</ele><time>2026-04-26T08:39:10.289Z</time></trkpt><trkpt lat="42.3752992" lon="14.3027897"><ele>24.0</ele><time>2026-04-26T08:39:11.286Z</time></trkpt><trkpt lat="42.375393" lon="14.302863"><ele>24.0</ele><time>2026-04-26T08:39:12.288Z</time></trkpt><trkpt lat="42.3754925" lon="14.30293"><ele>24.0</ele><time>2026-04-26T08:39:13.292Z</time></trkpt><trkpt lat="42.3755937" lon="14.3029963"><ele>24.0</ele><time>2026-04-26T08:39:14.287Z</time></trkpt><trkpt lat="42.3756888" lon="14.3030603"><ele>24.0</ele><time>2026-04-26T08:39:15.289Z</time></trkpt><trkpt lat="42.3757753" lon="14.3031155"><ele>24.0</ele><time>2026-04-26T08:39:16.29Z</time></trkpt><trkpt lat="42.375849" lon="14.3031667"><ele>23.666666666666668</ele><time>2026-04-26T08:39:17.289Z</time></trkpt><trkpt lat="42.3759323" lon="14.3032235"><ele>23.333333333333332</ele><time>2026-04-26T08:39:18.291Z</time></trkpt><trkpt lat="42.3760115" lon="14.3032902"><ele>23.0</ele><time>2026-04-26T08:39:19.289Z</time></trkpt><trkpt lat="42.3760817" lon="14.3033493"><ele>22.666666666666664</ele><time>2026-04-26T08:39:20.289Z</time></trkpt><trkpt lat="42.376147" lon="14.3033785"><ele>22.333333333333332</ele><time>2026-04-26T08:39:21.29Z</time></trkpt><trkpt lat="42.3762358" lon="14.3033243"><ele>22.0</ele><time>2026-04-26T08:39:23.29Z</time></trkpt><trkpt lat="42.3762808" lon="14.3031627"><ele>21.833333333333332</ele><time>2026-04-26T08:39:25.289Z</time></trkpt><trkpt lat="42.3762932" lon="14.30305"><ele>21.666666666666664</ele><time>2026-04-26T08:39:26.288Z</time></trkpt><trkpt lat="42.3763077" lon="14.302928"><ele>21.5</ele><time>2026-04-26T08:39:27.296Z</time></trkpt><trkpt lat="42.3763207" lon="14.3028127"><ele>21.333333333333332</ele><time>2026-04-26T08:39:28.287Z</time></trkpt><trkpt lat="42.3763145" lon="14.3027255"><ele>21.166666666666668</ele><time>2026-04-26T08:39:29.285Z</time></trkpt><trkpt lat="42.3762532" lon="14.3026448"><ele>21.0</ele><time>2026-04-26T08:39:31.286Z</time></trkpt><trkpt lat="42.3761317" lon="14.302646"><ele>21.0</ele><time>2026-04-26T08:39:33.289Z</time></trkpt><trkpt lat="42.3760585" lon="14.3026593"><ele>21.0</ele><time>2026-04-26T08:39:34.288Z</time></trkpt><trkpt lat="42.3759898" lon="14.3026662"><ele>21.0</ele><time>2026-04-26T08:39:35.289Z</time></trkpt><trkpt lat="42.3759265" lon="14.3026557"><ele>21.0</ele><time>2026-04-26T08:39:36.288Z</time></trkpt><trkpt lat="42.3758512" lon="14.3025758"><ele>21.0</ele><time>2026-04-26T08:39:38.289Z</time></trkpt><trkpt lat="42.3758527" lon="14.3024327"><ele>21.0</ele><time>2026-04-26T08:39:40.288Z</time></trkpt><trkpt lat="42.3758677" lon="14.3023397"><ele>21.8</ele><time>2026-04-26T08:39:41.29Z</time></trkpt><trkpt lat="42.3758845" lon="14.3022303"><ele>22.6</ele><time>2026-04-26T08:39:42.291Z</time></trkpt><trkpt lat="42.3759037" lon="14.3021052"><ele>23.4</ele><time>2026-04-26T08:39:43.288Z</time></trkpt><trkpt lat="42.3759292" lon="14.3019695"><ele>24.2</ele><time>2026-04-26T08:39:44.288Z</time></trkpt><trkpt lat="42.3759602" lon="14.3018285"><ele>25.0</ele><time>2026-04-26T08:39:45.29Z</time></trkpt><trkpt lat="42.3760003" lon="14.301686"><ele>25.0</ele><time>2026-04-26T08:39:46.289Z</time></trkpt><trkpt lat="42.37605" lon="14.3015432"><ele>25.0</ele><time>2026-04-26T08:39:47.288Z</time></trkpt><trkpt lat="42.3761057" lon="14.3013992"><ele>25.0</ele><time>2026-04-26T08:39:48.288Z</time></trkpt><trkpt lat="42.3761623" lon="14.3012525"><ele>25.0</ele><time>2026-04-26T08:39:49.288Z</time></trkpt><trkpt lat="42.376218" lon="14.301103"><ele>26.0</ele><time>2026-04-26T08:39:50.287Z</time></trkpt><trkpt lat="42.3762748" lon="14.3009502"><ele>27.0</ele><time>2026-04-26T08:39:51.287Z</time></trkpt><trkpt lat="42.3763298" lon="14.3008002"><ele>28.0</ele><time>2026-04-26T08:39:52.287Z</time></trkpt><trkpt lat="42.3763827" lon="14.3006615"><ele>29.0</ele><time>2026-04-26T08:39:53.284Z</time></trkpt><trkpt lat="42.3764295" lon="14.3005417"><ele>29.333333333333332</ele><time>2026-04-26T08:39:54.286Z</time></trkpt><trkpt lat="42.376467" lon="14.3004465"><ele>29.666666666666664</ele><time>2026-04-26T08:39:55.285Z</time></trkpt><trkpt lat="42.3765055" lon="14.3003627"><ele>30.0</ele><time>2026-04-26T08:39:57.288Z</time></trkpt><trkpt lat="42.3766073" lon="14.3004105"><ele>30.333333333333336</ele><time>2026-04-26T08:40:01.287Z</time></trkpt><trkpt lat="42.3766692" lon="14.3004842"><ele>30.666666666666668</ele><time>2026-04-26T08:40:02.288Z</time></trkpt><trkpt lat="42.3767447" lon="14.3005722"><ele>31.0</ele><time>2026-04-26T08:40:03.289Z</time></trkpt><trkpt lat="42.3768305" lon="14.3006697"><ele>31.0</ele><time>2026-04-26T08:40:04.295Z</time></trkpt><trkpt lat="42.376923" lon="14.3007642"><ele>31.0</ele><time>2026-04-26T08:40:05.289Z</time></trkpt><trkpt lat="42.3770112" lon="14.3008437"><ele>31.0</ele><time>2026-04-26T08:40:06.288Z</time></trkpt><trkpt lat="42.3771005" lon="14.3009138"><ele>31.0</ele><time>2026-04-26T08:40:07.289Z</time></trkpt><trkpt lat="42.3772038" lon="14.3009832"><ele>31.0</ele><time>2026-04-26T08:40:08.293Z</time></trkpt><trkpt lat="42.3773233" lon="14.3010432"><ele>30.75</ele><time>2026-04-26T08:40:09.29Z</time></trkpt><trkpt lat="42.3774582" lon="14.3010933"><ele>30.5</ele><time>2026-04-26T08:40:10.29Z</time></trkpt><trkpt lat="42.3776045" lon="14.3011405"><ele>30.25</ele><time>2026-04-26T08:40:11.289Z</time></trkpt><trkpt lat="42.377759" lon="14.3011878"><ele>30.0</ele><time>2026-04-26T08:40:12.289Z</time></trkpt><trkpt lat="42.3779177" lon="14.3012387"><ele>30.0</ele><time>2026-04-26T08:40:13.29Z</time></trkpt><trkpt lat="42.3780805" lon="14.3012895"><ele>30.0</ele><time>2026-04-26T08:40:14.289Z</time></trkpt><trkpt lat="42.3782465" lon="14.3013383"><ele>30.0</ele><time>2026-04-26T08:40:15.289Z</time></trkpt><trkpt lat="42.3784168" lon="14.3013865"><ele>29.0</ele><time>2026-04-26T08:40:16.289Z</time></trkpt><trkpt lat="42.3785922" lon="14.301435"><ele>28.0</ele><time>2026-04-26T08:40:17.288Z</time></trkpt><trkpt lat="42.3787712" lon="14.3014878"><ele>27.0</ele><time>2026-04-26T08:40:18.288Z</time></trkpt><trkpt lat="42.378954" lon="14.3015408"><ele>26.666666666666664</ele><time>2026-04-26T08:40:19.291Z</time></trkpt><trkpt lat="42.37914" lon="14.3015918"><ele>26.333333333333332</ele><time>2026-04-26T08:40:20.287Z</time></trkpt><trkpt lat="42.3793267" lon="14.3016432"><ele>26.0</ele><time>2026-04-26T08:40:21.289Z</time></trkpt><trkpt lat="42.3795138" lon="14.301694"><ele>26.0</ele><time>2026-04-26T08:40:22.291Z</time></trkpt><trkpt lat="42.3797005" lon="14.3017472"><ele>26.0</ele><time>2026-04-26T08:40:23.29Z</time></trkpt><trkpt lat="42.3798852" lon="14.3018057"><ele>26.0</ele><time>2026-04-26T08:40:24.289Z</time></trkpt><trkpt lat="42.3800675" lon="14.3018643"><ele>26.0</ele><time>2026-04-26T08:40:25.287Z</time></trkpt><trkpt lat="42.380248" lon="14.301921"><ele>26.0</ele><time>2026-04-26T08:40:26.29Z</time></trkpt><trkpt lat="42.3804275" lon="14.301976"><ele>26.0</ele><time>2026-04-26T08:40:27.29Z</time></trkpt><trkpt lat="42.380605" lon="14.3020305"><ele>25.666666666666664</ele><time>2026-04-26T08:40:28.292Z</time></trkpt><trkpt lat="42.3807797" lon="14.3020863"><ele>25.333333333333336</ele><time>2026-04-26T08:40:29.289Z</time></trkpt><trkpt lat="42.3809523" lon="14.3021418"><ele>25.0</ele><time>2026-04-26T08:40:30.289Z</time></trkpt><trkpt lat="42.3811225" lon="14.3021993"><ele>24.666666666666668</ele><time>2026-04-26T08:40:31.289Z</time></trkpt><trkpt lat="42.3812902" lon="14.3022578"><ele>24.333333333333336</ele><time>2026-04-26T08:40:32.289Z</time></trkpt><trkpt lat="42.3814545" lon="14.3023223"><ele>24.0</ele><time>2026-04-26T08:40:33.288Z</time></trkpt><trkpt lat="42.3816162" lon="14.3023943"><ele>23.333333333333332</ele><time>2026-04-26T08:40:34.288Z</time></trkpt><trkpt lat="42.3817742" lon="14.3024732"><ele>22.666666666666664</ele><time>2026-04-26T08:40:35.29Z</time></trkpt><trkpt lat="42.3819267" lon="14.3025615"><ele>22.0</ele><time>2026-04-26T08:40:36.287Z</time></trkpt><trkpt lat="42.3820705" lon="14.3026533"><ele>22.25</ele><time>2026-04-26T08:40:37.29Z</time></trkpt><trkpt lat="42.3822008" lon="14.3027467"><ele>22.5</ele><time>2026-04-26T08:40:38.292Z</time></trkpt><trkpt lat="42.3823195" lon="14.3028378"><ele>22.75</ele><time>2026-04-26T08:40:39.291Z</time></trkpt><trkpt lat="42.3824143" lon="14.3029165"><ele>23.0</ele><time>2026-04-26T08:40:40.29Z</time></trkpt><trkpt lat="42.3824817" lon="14.3029968"><ele>22.799999999999997</ele><time>2026-04-26T08:40:41.288Z</time></trkpt><trkpt lat="42.3825235" lon="14.3030928"><ele>22.6</ele><time>2026-04-26T08:40:42.286Z</time></trkpt><trkpt lat="42.3825375" lon="14.3032083"><ele>22.4</ele><time>2026-04-26T08:40:43.287Z</time></trkpt><trkpt lat="42.3825258" lon="14.3033438"><ele>22.200000000000003</ele><time>2026-04-26T08:40:44.288Z</time></trkpt><trkpt lat="42.3824972" lon="14.303501"><ele>22.0</ele><time>2026-04-26T08:40:45.288Z</time></trkpt><trkpt lat="42.3824635" lon="14.303678"><ele>22.0</ele><time>2026-04-26T08:40:46.289Z</time></trkpt><trkpt lat="42.38243" lon="14.3038707"><ele>22.0</ele><time>2026-04-26T08:40:47.289Z</time></trkpt><trkpt lat="42.3823997" lon="14.3040777"><ele>22.0</ele><time>2026-04-26T08:40:48.288Z</time></trkpt><trkpt lat="42.3823737" lon="14.3042957"><ele>21.666666666666664</ele><time>2026-04-26T08:40:49.292Z</time></trkpt><trkpt lat="42.3823517" lon="14.3045258"><ele>21.333333333333332</ele><time>2026-04-26T08:40:50.289Z</time></trkpt><trkpt lat="42.3823288" lon="14.3047615"><ele>21.0</ele><time>2026-04-26T08:40:51.29Z</time></trkpt><trkpt lat="42.3823037" lon="14.305004"><ele>20.333333333333332</ele><time>2026-04-26T08:40:52.289Z</time></trkpt><trkpt lat="42.3822727" lon="14.3052517"><ele>19.666666666666664</ele><time>2026-04-26T08:40:53.289Z</time></trkpt><trkpt lat="42.3822363" lon="14.3054967"><ele>19.0</ele><time>2026-04-26T08:40:54.29Z</time></trkpt><trkpt lat="42.382201" lon="14.30572"><ele>18.599999999999998</ele><time>2026-04-26T08:40:55.292Z</time></trkpt><trkpt lat="42.3821698" lon="14.3059027"><ele>18.2</ele><time>2026-04-26T08:40:56.29Z</time></trkpt><trkpt lat="42.3821402" lon="14.3060533"><ele>17.799999999999997</ele><time>2026-04-26T08:40:57.29Z</time></trkpt><trkpt lat="42.3821112" lon="14.3061772"><ele>17.4</ele><time>2026-04-26T08:40:58.293Z</time></trkpt><trkpt lat="42.3820852" lon="14.306267"><ele>17.0</ele><time>2026-04-26T08:40:59.292Z</time></trkpt><trkpt lat="42.3820685" lon="14.3063728"><ele>17.0</ele><time>2026-04-26T08:41:01.29Z</time></trkpt><trkpt lat="42.3821187" lon="14.3064973"><ele>17.0</ele><time>2026-04-26T08:41:03.29Z</time></trkpt><trkpt lat="42.3821595" lon="14.3065652"><ele>17.0</ele><time>2026-04-26T08:41:04.291Z</time></trkpt><trkpt lat="42.3821928" lon="14.3066475"><ele>17.0</ele><time>2026-04-26T08:41:06.288Z</time></trkpt><trkpt lat="42.3822425" lon="14.3067155"><ele>17.0</ele><time>2026-04-26T08:41:37.291Z</time></trkpt><trkpt lat="42.3823077" lon="14.3068333"><ele>17.0</ele><time>2026-04-26T08:41:39.291Z</time></trkpt><trkpt lat="42.3823547" lon="14.306926"><ele>17.0</ele><time>2026-04-26T08:41:40.289Z</time></trkpt><trkpt lat="42.3824082" lon="14.3070385"><ele>17.0</ele><time>2026-04-26T08:41:41.291Z</time></trkpt><trkpt lat="42.38247" lon="14.3071683"><ele>17.0</ele><time>2026-04-26T08:41:42.29Z</time></trkpt><trkpt lat="42.3825382" lon="14.307311"><ele>17.0</ele><time>2026-04-26T08:41:43.291Z</time></trkpt><trkpt lat="42.3826105" lon="14.3074678"><ele>16.666666666666668</ele><time>2026-04-26T08:41:44.295Z</time></trkpt><trkpt lat="42.3826862" lon="14.3076368"><ele>16.333333333333332</ele><time>2026-04-26T08:41:45.291Z</time></trkpt><trkpt lat="42.3827682" lon="14.3078113"><ele>16.0</ele><time>2026-04-26T08:41:46.291Z</time></trkpt><trkpt lat="42.3828528" lon="14.3079913"><ele>16.0</ele><time>2026-04-26T08:41:47.293Z</time></trkpt><trkpt lat="42.3829335" lon="14.3081703"><ele>16.0</ele><time>2026-04-26T08:41:48.29Z</time></trkpt><trkpt lat="42.3830097" lon="14.3083407"><ele>16.0</ele><time>2026-04-26T08:41:49.29Z</time></trkpt><trkpt lat="42.3830857" lon="14.3085107"><ele>16.0</ele><time>2026-04-26T08:41:50.288Z</time></trkpt><trkpt lat="42.3831635" lon="14.308683"><ele>16.0</ele><time>2026-04-26T08:41:51.29Z</time></trkpt><trkpt lat="42.3832438" lon="14.3088575"><ele>16.0</ele><time>2026-04-26T08:41:52.288Z</time></trkpt><trkpt lat="42.3833248" lon="14.3090347"><ele>16.0</ele><time>2026-04-26T08:41:53.292Z</time></trkpt><trkpt lat="42.3834067" lon="14.3092147"><ele>15.333333333333332</ele><time>2026-04-26T08:41:54.29Z</time></trkpt><trkpt lat="42.3834883" lon="14.309399"><ele>14.666666666666668</ele><time>2026-04-26T08:41:55.289Z</time></trkpt><trkpt lat="42.383573" lon="14.3095875"><ele>14.0</ele><time>2026-04-26T08:41:56.288Z</time></trkpt><trkpt lat="42.3836603" lon="14.3097778"><ele>14.0</ele><time>2026-04-26T08:41:57.289Z</time></trkpt><trkpt lat="42.383744" lon="14.3099598"><ele>14.0</ele><time>2026-04-26T08:41:58.289Z</time></trkpt><trkpt lat="42.3838215" lon="14.3101297"><ele>14.0</ele><time>2026-04-26T08:41:59.292Z</time></trkpt><trkpt lat="42.3838957" lon="14.310283"><ele>14.0</ele><time>2026-04-26T08:42:00.291Z</time></trkpt><trkpt lat="42.3839733" lon="14.3104182"><ele>14.25</ele><time>2026-04-26T08:42:01.29Z</time></trkpt><trkpt lat="42.3840637" lon="14.3105403"><ele>14.5</ele><time>2026-04-26T08:42:02.29Z</time></trkpt><trkpt lat="42.3841588" lon="14.3106492"><ele>14.75</ele><time>2026-04-26T08:42:03.29Z</time></trkpt><trkpt lat="42.384268" lon="14.3107432"><ele>15.0</ele><time>2026-04-26T08:42:04.291Z</time></trkpt><trkpt lat="42.3843928" lon="14.3108222"><ele>15.0</ele><time>2026-04-26T08:42:05.29Z</time></trkpt><trkpt lat="42.3845252" lon="14.3108917"><ele>15.0</ele><time>2026-04-26T08:42:06.292Z</time></trkpt><trkpt lat="42.3846595" lon="14.3109602"><ele>15.0</ele><time>2026-04-26T08:42:07.293Z</time></trkpt><trkpt lat="42.3847933" lon="14.3110283"><ele>15.0</ele><time>2026-04-26T08:42:08.29Z</time></trkpt><trkpt lat="42.3849255" lon="14.3110973"><ele>14.75</ele><time>2026-04-26T08:42:09.29Z</time></trkpt><trkpt lat="42.3850567" lon="14.311165"><ele>14.5</ele><time>2026-04-26T08:42:10.293Z</time></trkpt><trkpt lat="42.3851898" lon="14.3112322"><ele>14.25</ele><time>2026-04-26T08:42:11.29Z</time></trkpt><trkpt lat="42.3853265" lon="14.3113043"><ele>14.0</ele><time>2026-04-26T08:42:12.289Z</time></trkpt><trkpt lat="42.3854597" lon="14.3113782"><ele>14.0</ele><time>2026-04-26T08:42:13.291Z</time></trkpt><trkpt lat="42.3855795" lon="14.3114438"><ele>14.0</ele><time>2026-04-26T08:42:14.29Z</time></trkpt><trkpt lat="42.3857018" lon="14.3115093"><ele>14.0</ele><time>2026-04-26T08:42:15.29Z</time></trkpt><trkpt lat="42.38583" lon="14.3115785"><ele>14.0</ele><time>2026-04-26T08:42:16.291Z</time></trkpt><trkpt lat="42.3859623" lon="14.3116477"><ele>14.0</ele><time>2026-04-26T08:42:17.29Z</time></trkpt><trkpt lat="42.3860945" lon="14.3117195"><ele>14.0</ele><time>2026-04-26T08:42:18.289Z</time></trkpt><trkpt lat="42.3862257" lon="14.31179"><ele>14.0</ele><time>2026-04-26T08:42:19.288Z</time></trkpt><trkpt lat="42.3863448" lon="14.3118505"><ele>14.0</ele><time>2026-04-26T08:42:20.289Z</time></trkpt><trkpt lat="42.3864185" lon="14.311891"><ele>14.000000000000002</ele><time>2026-04-26T08:42:21.284Z</time></trkpt><trkpt lat="42.3864628" lon="14.3119682"><ele>14.0</ele><time>2026-04-26T08:42:25.29Z</time></trkpt><trkpt lat="42.38644" lon="14.312048"><ele>14.0</ele><time>2026-04-26T08:42:27.289Z</time></trkpt><trkpt lat="42.3864213" lon="14.3121368"><ele>14.0</ele><time>2026-04-26T08:42:29.289Z</time></trkpt><trkpt lat="42.3863943" lon="14.3122655"><ele>14.000000000000002</ele><time>2026-04-26T08:42:31.288Z</time></trkpt><trkpt lat="42.3863713" lon="14.3123603"><ele>14.0</ele><time>2026-04-26T08:42:32.289Z</time></trkpt><trkpt lat="42.3863448" lon="14.312472"><ele>13.799999999999999</ele><time>2026-04-26T08:42:33.29Z</time></trkpt><trkpt lat="42.3863155" lon="14.3125878"><ele>13.599999999999998</ele><time>2026-04-26T08:42:34.289Z</time></trkpt><trkpt lat="42.3862855" lon="14.3127075"><ele>13.4</ele><time>2026-04-26T08:42:35.29Z</time></trkpt><trkpt lat="42.386256" lon="14.3128352"><ele>13.2</ele><time>2026-04-26T08:42:36.293Z</time></trkpt><trkpt lat="42.3862247" lon="14.3129692"><ele>13.0</ele><time>2026-04-26T08:42:37.289Z</time></trkpt><trkpt lat="42.3861903" lon="14.3131102"><ele>13.0</ele><time>2026-04-26T08:42:38.29Z</time></trkpt><trkpt lat="42.3861538" lon="14.313257"><ele>13.0</ele><time>2026-04-26T08:42:39.292Z</time></trkpt><trkpt lat="42.3861183" lon="14.3134092"><ele>13.0</ele><time>2026-04-26T08:42:40.293Z</time></trkpt><trkpt lat="42.3860822" lon="14.3135645"><ele>13.0</ele><time>2026-04-26T08:42:41.289Z</time></trkpt><trkpt lat="42.3860453" lon="14.3137213"><ele>13.0</ele><time>2026-04-26T08:42:42.294Z</time></trkpt><trkpt lat="42.3860077" lon="14.3138787"><ele>13.0</ele><time>2026-04-26T08:42:43.289Z</time></trkpt><trkpt lat="42.3859703" lon="14.3140362"><ele>13.0</ele><time>2026-04-26T08:42:44.288Z</time></trkpt><trkpt lat="42.3859337" lon="14.3141952"><ele>13.0</ele><time>2026-04-26T08:42:45.289Z</time></trkpt><trkpt lat="42.3858973" lon="14.3143533"><ele>13.0</ele><time>2026-04-26T08:42:46.286Z</time></trkpt><trkpt lat="42.3858617" lon="14.3145105"><ele>13.0</ele><time>2026-04-26T08:42:47.288Z</time></trkpt><trkpt lat="42.3858268" lon="14.3146687"><ele>13.0</ele><time>2026-04-26T08:42:48.289Z</time></trkpt><trkpt lat="42.3857902" lon="14.3148302"><ele>13.0</ele><time>2026-04-26T08:42:49.294Z</time></trkpt><trkpt lat="42.3857498" lon="14.3149967"><ele>12.25</ele><time>2026-04-26T08:42:50.291Z</time></trkpt><trkpt lat="42.385709" lon="14.3151668"><ele>11.5</ele><time>2026-04-26T08:42:51.29Z</time></trkpt><trkpt lat="42.3856717" lon="14.3153335"><ele>10.75</ele><time>2026-04-26T08:42:52.291Z</time></trkpt><trkpt lat="42.3856355" lon="14.3154888"><ele>10.0</ele><time>2026-04-26T08:42:53.29Z</time></trkpt><trkpt lat="42.3856015" lon="14.3156302"><ele>9.833333333333334</ele><time>2026-04-26T08:42:54.288Z</time></trkpt><trkpt lat="42.385576" lon="14.3157552"><ele>9.666666666666668</ele><time>2026-04-26T08:42:55.29Z</time></trkpt><trkpt lat="42.3855593" lon="14.3158515"><ele>9.5</ele><time>2026-04-26T08:42:56.289Z</time></trkpt><trkpt lat="42.3855503" lon="14.3159448"><ele>9.333333333333334</ele><time>2026-04-26T08:42:58.292Z</time></trkpt><trkpt lat="42.3855118" lon="14.3160373"><ele>9.166666666666666</ele><time>2026-04-26T08:43:02.289Z</time></trkpt><trkpt lat="42.3854108" lon="14.316019"><ele>9.0</ele><time>2026-04-26T08:43:05.289Z</time></trkpt><trkpt lat="42.3853047" lon="14.31594"><ele>9.0</ele><time>2026-04-26T08:43:07.289Z</time></trkpt><trkpt lat="42.3852158" lon="14.3159053"><ele>9.0</ele><time>2026-04-26T08:43:09.287Z</time></trkpt><trkpt lat="42.3851455" lon="14.3159288"><ele>9.0</ele><time>2026-04-26T08:43:12.291Z</time></trkpt><trkpt lat="42.3852155" lon="14.315902"><ele>9.0</ele><time>2026-04-26T08:43:19.292Z</time></trkpt><trkpt lat="42.3853142" lon="14.3159548"><ele>9.0</ele><time>2026-04-26T08:43:21.29Z</time></trkpt><trkpt lat="42.3854182" lon="14.3160048"><ele>8.833333333333334</ele><time>2026-04-26T08:43:23.291Z</time></trkpt><trkpt lat="42.3855158" lon="14.316058"><ele>8.666666666666666</ele><time>2026-04-26T08:43:25.29Z</time></trkpt><trkpt lat="42.3855882" lon="14.3160848"><ele>8.5</ele><time>2026-04-26T08:43:27.289Z</time></trkpt><trkpt lat="42.3856877" lon="14.3161337"><ele>8.333333333333332</ele><time>2026-04-26T08:43:29.29Z</time></trkpt><trkpt lat="42.385752" lon="14.3161717"><ele>8.166666666666666</ele><time>2026-04-26T08:43:30.292Z</time></trkpt><trkpt lat="42.3858175" lon="14.316209"><ele>8.0</ele><time>2026-04-26T08:43:31.289Z</time></trkpt><trkpt lat="42.3859223" lon="14.3162688"><ele>7.999999999999999</ele><time>2026-04-26T08:43:33.287Z</time></trkpt><trkpt lat="42.3859518" lon="14.3163477"><ele>8.0</ele><time>2026-04-26T08:43:35.287Z</time></trkpt><trkpt lat="42.3859195" lon="14.3164578"><ele>8.0</ele><time>2026-04-26T08:43:37.291Z</time></trkpt><trkpt lat="42.3858735" lon="14.3166192"><ele>8.0</ele><time>2026-04-26T08:43:39.29Z</time></trkpt><trkpt lat="42.3858463" lon="14.3167118"><ele>7.999999999999999</ele><time>2026-04-26T08:43:40.29Z</time></trkpt><trkpt lat="42.3858162" lon="14.3168087"><ele>8.0</ele><time>2026-04-26T08:43:41.291Z</time></trkpt><trkpt lat="42.385782" lon="14.3169028"><ele>7.833333333333333</ele><time>2026-04-26T08:43:42.291Z</time></trkpt><trkpt lat="42.3857493" lon="14.3169983"><ele>7.666666666666666</ele><time>2026-04-26T08:43:43.291Z</time></trkpt><trkpt lat="42.3857152" lon="14.3170937"><ele>7.5</ele><time>2026-04-26T08:43:44.289Z</time></trkpt><trkpt lat="42.3856793" lon="14.3171912"><ele>7.333333333333334</ele><time>2026-04-26T08:43:45.29Z</time></trkpt><trkpt lat="42.3856432" lon="14.317294"><ele>7.166666666666667</ele><time>2026-04-26T08:43:46.288Z</time></trkpt><trkpt lat="42.3856045" lon="14.317399"><ele>7.0</ele><time>2026-04-26T08:43:47.289Z</time></trkpt><trkpt lat="42.3855692" lon="14.3175085"><ele>7.166666666666667</ele><time>2026-04-26T08:43:48.292Z</time></trkpt><trkpt lat="42.385537" lon="14.3176213"><ele>7.333333333333334</ele><time>2026-04-26T08:43:49.29Z</time></trkpt><trkpt lat="42.3855028" lon="14.3177243"><ele>7.5</ele><time>2026-04-26T08:43:50.29Z</time></trkpt><trkpt lat="42.3854677" lon="14.3178098"><ele>7.666666666666666</ele><time>2026-04-26T08:43:51.29Z</time></trkpt><trkpt lat="42.3854363" lon="14.3178902"><ele>7.833333333333333</ele><time>2026-04-26T08:43:52.289Z</time></trkpt><trkpt lat="42.385393" lon="14.3180545"><ele>8.0</ele><time>2026-04-26T08:43:54.287Z</time></trkpt><trkpt lat="42.385353" lon="14.3182095"><ele>8.4</ele><time>2026-04-26T08:43:56.29Z</time></trkpt><trkpt lat="42.3853435" lon="14.3183232"><ele>8.8</ele><time>2026-04-26T08:43:58.286Z</time></trkpt><trkpt lat="42.3854227" lon="14.318375"><ele>9.2</ele><time>2026-04-26T08:44:01.288Z</time></trkpt><trkpt lat="42.385548" lon="14.3183478"><ele>9.6</ele><time>2026-04-26T08:44:03.288Z</time></trkpt><trkpt lat="42.3856328" lon="14.3183092"><ele>10.0</ele><time>2026-04-26T08:44:04.289Z</time></trkpt><trkpt lat="42.3857233" lon="14.3182587"><ele>10.25</ele><time>2026-04-26T08:44:05.29Z</time></trkpt><trkpt lat="42.3858197" lon="14.3182035"><ele>10.5</ele><time>2026-04-26T08:44:06.29Z</time></trkpt><trkpt lat="42.3859285" lon="14.3181582"><ele>10.75</ele><time>2026-04-26T08:44:07.289Z</time></trkpt><trkpt lat="42.3860502" lon="14.3181215"><ele>11.0</ele><time>2026-04-26T08:44:08.288Z</time></trkpt><trkpt lat="42.38618" lon="14.3180948"><ele>11.0</ele><time>2026-04-26T08:44:09.29Z</time></trkpt><trkpt lat="42.3863198" lon="14.3180695"><ele>11.0</ele><time>2026-04-26T08:44:10.288Z</time></trkpt><trkpt lat="42.386459" lon="14.3180285"><ele>11.0</ele><time>2026-04-26T08:44:11.288Z</time></trkpt><trkpt lat="42.3865853" lon="14.3179862"><ele>11.0</ele><time>2026-04-26T08:44:12.288Z</time></trkpt><trkpt lat="42.3866978" lon="14.3179588"><ele>10.833333333333332</ele><time>2026-04-26T08:44:13.289Z</time></trkpt><trkpt lat="42.3867955" lon="14.3179592"><ele>10.666666666666666</ele><time>2026-04-26T08:44:14.288Z</time></trkpt><trkpt lat="42.3868697" lon="14.317987"><ele>10.5</ele><time>2026-04-26T08:44:15.288Z</time></trkpt><trkpt lat="42.3869197" lon="14.3180685"><ele>10.333333333333334</ele><time>2026-04-26T08:44:17.291Z</time></trkpt><trkpt lat="42.3868887" lon="14.3181578"><ele>10.166666666666668</ele><time>2026-04-26T08:44:19.289Z</time></trkpt><trkpt lat="42.3868647" lon="14.3182378"><ele>10.0</ele><time>2026-04-26T08:44:20.292Z</time></trkpt><trkpt lat="42.3868367" lon="14.3183468"><ele>10.0</ele><time>2026-04-26T08:44:21.291Z</time></trkpt><trkpt lat="42.3868052" lon="14.3184773"><ele>10.0</ele><time>2026-04-26T08:44:22.289Z</time></trkpt><trkpt lat="42.3867705" lon="14.3186198"><ele>10.0</ele><time>2026-04-26T08:44:23.287Z</time></trkpt><trkpt lat="42.3867402" lon="14.31875"><ele>10.0</ele><time>2026-04-26T08:44:24.287Z</time></trkpt><trkpt lat="42.3867107" lon="14.318841"><ele>10.0</ele><time>2026-04-26T08:44:25.285Z</time></trkpt><trkpt lat="42.3866313" lon="14.3188878"><ele>10.0</ele><time>2026-04-26T08:44:27.288Z</time></trkpt><trkpt lat="42.3865043" lon="14.3187958"><ele>10.0</ele><time>2026-04-26T08:44:29.288Z</time></trkpt><trkpt lat="42.3864145" lon="14.3187397"><ele>10.0</ele><time>2026-04-26T08:44:30.291Z</time></trkpt><trkpt lat="42.38631" lon="14.3187077"><ele>10.0</ele><time>2026-04-26T08:44:31.29Z</time></trkpt><trkpt lat="42.3862015" lon="14.3186995"><ele>10.2</ele><time>2026-04-26T08:44:32.288Z</time></trkpt><trkpt lat="42.3860927" lon="14.3187248"><ele>10.4</ele><time>2026-04-26T08:44:33.288Z</time></trkpt><trkpt lat="42.385981" lon="14.3187688"><ele>10.600000000000001</ele><time>2026-04-26T08:44:34.288Z</time></trkpt><trkpt lat="42.385883" lon="14.318815"><ele>10.8</ele><time>2026-04-26T08:44:35.287Z</time></trkpt><trkpt lat="42.3858082" lon="14.318851"><ele>11.0</ele><time>2026-04-26T08:44:36.288Z</time></trkpt><trkpt lat="42.3857137" lon="14.318897"><ele>11.0</ele><time>2026-04-26T08:44:38.287Z</time></trkpt><trkpt lat="42.3856552" lon="14.3189598"><ele>11.0</ele><time>2026-04-26T08:44:44.287Z</time></trkpt><trkpt lat="42.3857257" lon="14.318889"><ele>11.0</ele><time>2026-04-26T08:44:50.287Z</time></trkpt><trkpt lat="42.3858028" lon="14.318858"><ele>11.0</ele><time>2026-04-26T08:44:51.288Z</time></trkpt><trkpt lat="42.385898" lon="14.318816"><ele>11.0</ele><time>2026-04-26T08:44:52.289Z</time></trkpt><trkpt lat="42.3860062" lon="14.3187703"><ele>11.0</ele><time>2026-04-26T08:44:53.288Z</time></trkpt><trkpt lat="42.3861237" lon="14.3187322"><ele>11.0</ele><time>2026-04-26T08:44:54.287Z</time></trkpt><trkpt lat="42.3862358" lon="14.3187165"><ele>11.0</ele><time>2026-04-26T08:44:55.287Z</time></trkpt><trkpt lat="42.3863365" lon="14.3187245"><ele>11.0</ele><time>2026-04-26T08:44:56.287Z</time></trkpt><trkpt lat="42.38651" lon="14.3188073"><ele>10.833333333333332</ele><time>2026-04-26T08:44:58.289Z</time></trkpt><trkpt lat="42.3865768" lon="14.318857"><ele>10.666666666666666</ele><time>2026-04-26T08:44:59.289Z</time></trkpt><trkpt lat="42.3866648" lon="14.3189547"><ele>10.5</ele><time>2026-04-26T08:45:01.29Z</time></trkpt><trkpt lat="42.386675" lon="14.3190857"><ele>10.333333333333334</ele><time>2026-04-26T08:45:03.288Z</time></trkpt><trkpt lat="42.3866488" lon="14.3191687"><ele>10.166666666666668</ele><time>2026-04-26T08:45:05.289Z</time></trkpt><trkpt lat="42.3865635" lon="14.3191478"><ele>10.0</ele><time>2026-04-26T08:45:09.289Z</time></trkpt><trkpt lat="42.3864607" lon="14.3191043"><ele>9.833333333333334</ele><time>2026-04-26T08:45:11.288Z</time></trkpt><trkpt lat="42.3863423" lon="14.3190663"><ele>9.666666666666668</ele><time>2026-04-26T08:45:13.286Z</time></trkpt><trkpt lat="42.3862753" lon="14.3190468"><ele>9.5</ele><time>2026-04-26T08:45:14.285Z</time></trkpt><trkpt lat="42.3862102" lon="14.3190352"><ele>9.333333333333334</ele><time>2026-04-26T08:45:15.287Z</time></trkpt><trkpt lat="42.3861468" lon="14.3190317"><ele>9.166666666666666</ele><time>2026-04-26T08:45:16.287Z</time></trkpt><trkpt lat="42.386052" lon="14.3190378"><ele>9.0</ele><time>2026-04-26T08:45:18.29Z</time></trkpt><trkpt lat="42.3859792" lon="14.3190365"><ele>9.0</ele><time>2026-04-26T08:45:20.289Z</time></trkpt><trkpt lat="42.38591" lon="14.319055"><ele>9.0</ele><time>2026-04-26T08:45:22.288Z</time></trkpt><trkpt lat="42.3857997" lon="14.3190973"><ele>9.0</ele><time>2026-04-26T08:45:24.289Z</time></trkpt><trkpt lat="42.3857028" lon="14.319127"><ele>9.0</ele><time>2026-04-26T08:45:26.289Z</time></trkpt><trkpt lat="42.3856085" lon="14.3191552"><ele>9.0</ele><time>2026-04-26T08:45:28.288Z</time></trkpt><trkpt lat="42.3854945" lon="14.3191753"><ele>9.2</ele><time>2026-04-26T08:45:30.288Z</time></trkpt><trkpt lat="42.385404" lon="14.319183"><ele>9.4</ele><time>2026-04-26T08:45:31.288Z</time></trkpt><trkpt lat="42.3852922" lon="14.3191833"><ele>9.6</ele><time>2026-04-26T08:45:32.288Z</time></trkpt><trkpt lat="42.3851755" lon="14.3191715"><ele>9.8</ele><time>2026-04-26T08:45:33.289Z</time></trkpt><trkpt lat="42.3850567" lon="14.3191433"><ele>10.0</ele><time>2026-04-26T08:45:34.29Z</time></trkpt><trkpt lat="42.3849352" lon="14.319102"><ele>10.0</ele><time>2026-04-26T08:45:35.288Z</time></trkpt><trkpt lat="42.3848142" lon="14.3190467"><ele>10.0</ele><time>2026-04-26T08:45:36.287Z</time></trkpt><trkpt lat="42.3846898" lon="14.3189835"><ele>10.0</ele><time>2026-04-26T08:45:37.288Z</time></trkpt><trkpt lat="42.384564" lon="14.3189065"><ele>10.0</ele><time>2026-04-26T08:45:38.287Z</time></trkpt><trkpt lat="42.3844472" lon="14.3188137"><ele>10.0</ele><time>2026-04-26T08:45:39.287Z</time></trkpt><trkpt lat="42.3843517" lon="14.3186962"><ele>10.0</ele><time>2026-04-26T08:45:40.289Z</time></trkpt><trkpt lat="42.3842732" lon="14.3185468"><ele>10.0</ele><time>2026-04-26T08:45:41.291Z</time></trkpt><trkpt lat="42.3841988" lon="14.3183703"><ele>10.0</ele><time>2026-04-26T08:45:42.289Z</time></trkpt><trkpt lat="42.3841257" lon="14.3181797"><ele>10.0</ele><time>2026-04-26T08:45:43.29Z</time></trkpt><trkpt lat="42.3840548" lon="14.3179865"><ele>10.0</ele><time>2026-04-26T08:45:44.287Z</time></trkpt><trkpt lat="42.3839942" lon="14.317808"><ele>10.0</ele><time>2026-04-26T08:45:45.289Z</time></trkpt><trkpt lat="42.3839575" lon="14.3176392"><ele>10.0</ele><time>2026-04-26T08:45:46.288Z</time></trkpt><trkpt lat="42.3839417" lon="14.3174555"><ele>10.0</ele><time>2026-04-26T08:45:47.288Z</time></trkpt><trkpt lat="42.3839363" lon="14.3172545"><ele>10.0</ele><time>2026-04-26T08:45:48.29Z</time></trkpt><trkpt lat="42.3839338" lon="14.3170482"><ele>10.0</ele><time>2026-04-26T08:45:49.289Z</time></trkpt><trkpt lat="42.3839317" lon="14.3168537"><ele>10.0</ele><time>2026-04-26T08:45:50.289Z</time></trkpt><trkpt lat="42.383934" lon="14.3166728"><ele>10.0</ele><time>2026-04-26T08:45:51.29Z</time></trkpt><trkpt lat="42.3839273" lon="14.3165153"><ele>10.0</ele><time>2026-04-26T08:45:52.289Z</time></trkpt><trkpt lat="42.383899" lon="14.3163597"><ele>10.0</ele><time>2026-04-26T08:45:53.289Z</time></trkpt><trkpt lat="42.3838598" lon="14.3162023"><ele>10.0</ele><time>2026-04-26T08:45:54.291Z</time></trkpt><trkpt lat="42.3838105" lon="14.3160457"><ele>10.0</ele><time>2026-04-26T08:45:55.289Z</time></trkpt><trkpt lat="42.3837425" lon="14.3158918"><ele>10.0</ele><time>2026-04-26T08:45:56.287Z</time></trkpt><trkpt lat="42.3836523" lon="14.3157428"><ele>10.0</ele><time>2026-04-26T08:45:57.29Z</time></trkpt><trkpt lat="42.3835477" lon="14.3155933"><ele>10.0</ele><time>2026-04-26T08:45:58.29Z</time></trkpt><trkpt lat="42.3834348" lon="14.3154373"><ele>10.0</ele><time>2026-04-26T08:45:59.288Z</time></trkpt><trkpt lat="42.3833142" lon="14.3152772"><ele>10.0</ele><time>2026-04-26T08:46:00.291Z</time></trkpt><trkpt lat="42.3831895" lon="14.3151105"><ele>10.0</ele><time>2026-04-26T08:46:01.288Z</time></trkpt><trkpt lat="42.3830702" lon="14.3149462"><ele>10.0</ele><time>2026-04-26T08:46:02.288Z</time></trkpt><trkpt lat="42.3829648" lon="14.31479"><ele>10.0</ele><time>2026-04-26T08:46:03.287Z</time></trkpt><trkpt lat="42.3828808" lon="14.3146345"><ele>10.0</ele><time>2026-04-26T08:46:04.289Z</time></trkpt><trkpt lat="42.382812" lon="14.3144783"><ele>10.0</ele><time>2026-04-26T08:46:05.289Z</time></trkpt><trkpt lat="42.3827622" lon="14.3143233"><ele>10.0</ele><time>2026-04-26T08:46:06.289Z</time></trkpt><trkpt lat="42.3827262" lon="14.3141618"><ele>10.0</ele><time>2026-04-26T08:46:07.289Z</time></trkpt><trkpt lat="42.3827018" lon="14.3139925"><ele>10.0</ele><time>2026-04-26T08:46:08.29Z</time></trkpt><trkpt lat="42.3826922" lon="14.3138142"><ele>10.0</ele><time>2026-04-26T08:46:09.291Z</time></trkpt><trkpt lat="42.3826923" lon="14.3136277"><ele>10.25</ele><time>2026-04-26T08:46:10.288Z</time></trkpt><trkpt lat="42.382695" lon="14.313436"><ele>10.5</ele><time>2026-04-26T08:46:11.291Z</time></trkpt><trkpt lat="42.3826975" lon="14.3132407"><ele>10.75</ele><time>2026-04-26T08:46:12.289Z</time></trkpt><trkpt lat="42.3826978" lon="14.3130397"><ele>11.0</ele><time>2026-04-26T08:46:13.289Z</time></trkpt><trkpt lat="42.3826957" lon="14.3128343"><ele>11.0</ele><time>2026-04-26T08:46:14.288Z</time></trkpt><trkpt lat="42.3826923" lon="14.312626"><ele>11.0</ele><time>2026-04-26T08:46:15.291Z</time></trkpt><trkpt lat="42.3826925" lon="14.3124182"><ele>11.0</ele><time>2026-04-26T08:46:16.29Z</time></trkpt><trkpt lat="42.3826942" lon="14.3122238"><ele>11.200000000000001</ele><time>2026-04-26T08:46:17.289Z</time></trkpt><trkpt lat="42.3826963" lon="14.312046"><ele>11.4</ele><time>2026-04-26T08:46:18.291Z</time></trkpt><trkpt lat="42.3826922" lon="14.31189"><ele>11.6</ele><time>2026-04-26T08:46:19.289Z</time></trkpt><trkpt lat="42.3826682" lon="14.3117587"><ele>11.8</ele><time>2026-04-26T08:46:20.29Z</time></trkpt><trkpt lat="42.3826205" lon="14.3116423"><ele>12.0</ele><time>2026-04-26T08:46:21.293Z</time></trkpt><trkpt lat="42.3825565" lon="14.3115592"><ele>11.999999999999998</ele><time>2026-04-26T08:46:22.289Z</time></trkpt><trkpt lat="42.3824853" lon="14.3115127"><ele>12.0</ele><time>2026-04-26T08:46:23.289Z</time></trkpt><trkpt lat="42.3824127" lon="14.3114972"><ele>12.0</ele><time>2026-04-26T08:46:24.291Z</time></trkpt><trkpt lat="42.382341" lon="14.3115"><ele>12.0</ele><time>2026-04-26T08:46:25.287Z</time></trkpt><trkpt lat="42.3822652" lon="14.3115068"><ele>12.0</ele><time>2026-04-26T08:46:26.287Z</time></trkpt><trkpt lat="42.3821938" lon="14.3115257"><ele>11.999999999999998</ele><time>2026-04-26T08:46:27.286Z</time></trkpt><trkpt lat="42.382137" lon="14.3115655"><ele>12.0</ele><time>2026-04-26T08:46:28.29Z</time></trkpt><trkpt lat="42.3820887" lon="14.311635"><ele>12.25</ele><time>2026-04-26T08:46:29.288Z</time></trkpt><trkpt lat="42.382038" lon="14.3117373"><ele>12.5</ele><time>2026-04-26T08:46:30.29Z</time></trkpt><trkpt lat="42.3819743" lon="14.3118615"><ele>12.75</ele><time>2026-04-26T08:46:31.292Z</time></trkpt><trkpt lat="42.3818952" lon="14.3119955"><ele>13.0</ele><time>2026-04-26T08:46:32.289Z</time></trkpt><trkpt lat="42.381806" lon="14.3121272"><ele>13.0</ele><time>2026-04-26T08:46:33.293Z</time></trkpt><trkpt lat="42.3817193" lon="14.3122387"><ele>13.0</ele><time>2026-04-26T08:46:34.29Z</time></trkpt><trkpt lat="42.3816385" lon="14.3123388"><ele>13.0</ele><time>2026-04-26T08:46:35.289Z</time></trkpt><trkpt lat="42.3815568" lon="14.3124088"><ele>13.0</ele><time>2026-04-26T08:46:36.289Z</time></trkpt><trkpt lat="42.3814722" lon="14.3124343"><ele>13.0</ele><time>2026-04-26T08:46:37.29Z</time></trkpt><trkpt lat="42.3813842" lon="14.3124118"><ele>13.25</ele><time>2026-04-26T08:46:38.289Z</time></trkpt><trkpt lat="42.3812827" lon="14.3123587"><ele>13.5</ele><time>2026-04-26T08:46:39.288Z</time></trkpt><trkpt lat="42.3811648" lon="14.312294"><ele>13.75</ele><time>2026-04-26T08:46:40.289Z</time></trkpt><trkpt lat="42.3810328" lon="14.3122382"><ele>14.0</ele><time>2026-04-26T08:46:41.288Z</time></trkpt><trkpt lat="42.3808955" lon="14.3121905"><ele>14.0</ele><time>2026-04-26T08:46:42.291Z</time></trkpt><trkpt lat="42.3807723" lon="14.3121573"><ele>13.999999999999998</ele><time>2026-04-26T08:46:43.289Z</time></trkpt><trkpt lat="42.3806715" lon="14.3121438"><ele>13.999999999999998</ele><time>2026-04-26T08:46:44.289Z</time></trkpt><trkpt lat="42.380596" lon="14.312128"><ele>14.0</ele><time>2026-04-26T08:46:45.289Z</time></trkpt><trkpt lat="42.3805247" lon="14.3121052"><ele>14.0</ele><time>2026-04-26T08:46:46.29Z</time></trkpt><trkpt lat="42.3804388" lon="14.3120653"><ele>14.0</ele><time>2026-04-26T08:46:47.287Z</time></trkpt><trkpt lat="42.3803445" lon="14.3120018"><ele>14.0</ele><time>2026-04-26T08:46:48.29Z</time></trkpt><trkpt lat="42.3802423" lon="14.31192"><ele>14.0</ele><time>2026-04-26T08:46:49.287Z</time></trkpt><trkpt lat="42.38014" lon="14.3118385"><ele>14.0</ele><time>2026-04-26T08:46:50.287Z</time></trkpt><trkpt lat="42.3800483" lon="14.3117612"><ele>14.0</ele><time>2026-04-26T08:46:51.288Z</time></trkpt><trkpt lat="42.3799743" lon="14.3116807"><ele>13.999999999999998</ele><time>2026-04-26T08:46:52.289Z</time></trkpt><trkpt lat="42.379903" lon="14.3116162"><ele>13.999999999999998</ele><time>2026-04-26T08:46:53.287Z</time></trkpt><trkpt lat="42.3798152" lon="14.3115608"><ele>14.0</ele><time>2026-04-26T08:46:54.288Z</time></trkpt><trkpt lat="42.379713" lon="14.3115182"><ele>14.0</ele><time>2026-04-26T08:46:55.287Z</time></trkpt><trkpt lat="42.3796118" lon="14.3114948"><ele>14.0</ele><time>2026-04-26T08:46:56.287Z</time></trkpt><trkpt lat="42.3795122" lon="14.3114922"><ele>14.0</ele><time>2026-04-26T08:46:57.287Z</time></trkpt><trkpt lat="42.3793982" lon="14.3115083"><ele>14.0</ele><time>2026-04-26T08:46:58.291Z</time></trkpt><trkpt lat="42.3792742" lon="14.3115027"><ele>14.0</ele><time>2026-04-26T08:46:59.29Z</time></trkpt><trkpt lat="42.3791443" lon="14.3114855"><ele>14.0</ele><time>2026-04-26T08:47:00.291Z</time></trkpt><trkpt lat="42.3790068" lon="14.3114798"><ele>14.0</ele><time>2026-04-26T08:47:01.289Z</time></trkpt><trkpt lat="42.378872" lon="14.3114963"><ele>14.0</ele><time>2026-04-26T08:47:02.289Z</time></trkpt><trkpt lat="42.3787508" lon="14.3115168"><ele>14.0</ele><time>2026-04-26T08:47:03.289Z</time></trkpt><trkpt lat="42.3786448" lon="14.311507"><ele>14.2</ele><time>2026-04-26T08:47:04.286Z</time></trkpt><trkpt lat="42.3785558" lon="14.311466"><ele>14.399999999999999</ele><time>2026-04-26T08:47:05.286Z</time></trkpt><trkpt lat="42.3784682" lon="14.3114102"><ele>14.6</ele><time>2026-04-26T08:47:06.29Z</time></trkpt><trkpt lat="42.3783678" lon="14.31135"><ele>14.8</ele><time>2026-04-26T08:47:07.287Z</time></trkpt><trkpt lat="42.3782533" lon="14.311295"><ele>15.0</ele><time>2026-04-26T08:47:08.288Z</time></trkpt><trkpt lat="42.3781245" lon="14.3112433"><ele>15.25</ele><time>2026-04-26T08:47:09.288Z</time></trkpt><trkpt lat="42.377992" lon="14.3111873"><ele>15.5</ele><time>2026-04-26T08:47:10.289Z</time></trkpt><trkpt lat="42.37786" lon="14.3111112"><ele>15.75</ele><time>2026-04-26T08:47:11.29Z</time></trkpt><trkpt lat="42.37773" lon="14.3110218"><ele>16.0</ele><time>2026-04-26T08:47:12.288Z</time></trkpt><trkpt lat="42.3776" lon="14.3109257"><ele>16.0</ele><time>2026-04-26T08:47:13.287Z</time></trkpt><trkpt lat="42.3774757" lon="14.3108525"><ele>16.0</ele><time>2026-04-26T08:47:14.286Z</time></trkpt><trkpt lat="42.3773632" lon="14.3108085"><ele>16.0</ele><time>2026-04-26T08:47:15.288Z</time></trkpt><trkpt lat="42.3772675" lon="14.3107823"><ele>16.0</ele><time>2026-04-26T08:47:16.286Z</time></trkpt><trkpt lat="42.3771627" lon="14.3107612"><ele>16.400000000000002</ele><time>2026-04-26T08:47:17.285Z</time></trkpt><trkpt lat="42.3770518" lon="14.3107318"><ele>16.8</ele><time>2026-04-26T08:47:18.287Z</time></trkpt><trkpt lat="42.376946" lon="14.310703"><ele>17.200000000000003</ele><time>2026-04-26T08:47:19.289Z</time></trkpt><trkpt lat="42.3768437" lon="14.310691"><ele>17.6</ele><time>2026-04-26T08:47:20.292Z</time></trkpt><trkpt lat="42.3767377" lon="14.3106983"><ele>18.0</ele><time>2026-04-26T08:47:21.289Z</time></trkpt><trkpt lat="42.3766243" lon="14.3106977"><ele>18.0</ele><time>2026-04-26T08:47:22.288Z</time></trkpt><trkpt lat="42.3765075" lon="14.3106918"><ele>18.0</ele><time>2026-04-26T08:47:23.288Z</time></trkpt><trkpt lat="42.3763855" lon="14.3106802"><ele>18.0</ele><time>2026-04-26T08:47:24.288Z</time></trkpt><trkpt lat="42.3762607" lon="14.3106643"><ele>18.0</ele><time>2026-04-26T08:47:25.287Z</time></trkpt><trkpt lat="42.3761422" lon="14.3106323"><ele>17.6</ele><time>2026-04-26T08:47:26.286Z</time></trkpt><trkpt lat="42.3760318" lon="14.3105992"><ele>17.200000000000003</ele><time>2026-04-26T08:47:27.288Z</time></trkpt><trkpt lat="42.3759313" lon="14.3105877"><ele>16.8</ele><time>2026-04-26T08:47:28.287Z</time></trkpt><trkpt lat="42.3758398" lon="14.3105723"><ele>16.400000000000002</ele><time>2026-04-26T08:47:29.285Z</time></trkpt><trkpt lat="42.3757462" lon="14.3105505"><ele>16.0</ele><time>2026-04-26T08:47:30.288Z</time></trkpt><trkpt lat="42.3756518" lon="14.310523"><ele>16.0</ele><time>2026-04-26T08:47:31.289Z</time></trkpt><trkpt lat="42.3755513" lon="14.3104805"><ele>16.0</ele><time>2026-04-26T08:47:32.288Z</time></trkpt><trkpt lat="42.3754503" lon="14.3104228"><ele>16.0</ele><time>2026-04-26T08:47:33.288Z</time></trkpt><trkpt lat="42.3753417" lon="14.310349"><ele>16.0</ele><time>2026-04-26T08:47:34.289Z</time></trkpt><trkpt lat="42.3752302" lon="14.3102665"><ele>17.0</ele><time>2026-04-26T08:47:35.286Z</time></trkpt><trkpt lat="42.3751237" lon="14.3101757"><ele>18.0</ele><time>2026-04-26T08:47:36.288Z</time></trkpt><trkpt lat="42.3750252" lon="14.3100933"><ele>19.0</ele><time>2026-04-26T08:47:37.287Z</time></trkpt><trkpt lat="42.3749423" lon="14.3100222"><ele>20.0</ele><time>2026-04-26T08:47:38.286Z</time></trkpt><trkpt lat="42.3748787" lon="14.3099692"><ele>21.0</ele><time>2026-04-26T08:47:39.285Z</time></trkpt><trkpt lat="42.3748175" lon="14.3099333"><ele>21.0</ele><time>2026-04-26T08:47:41.286Z</time></trkpt><trkpt lat="42.374754" lon="14.3099592"><ele>21.0</ele><time>2026-04-26T08:49:31.288Z</time></trkpt><trkpt lat="42.3746377" lon="14.3100287"><ele>21.0</ele><time>2026-04-26T08:49:33.288Z</time></trkpt><trkpt lat="42.3745715" lon="14.3100708"><ele>21.0</ele><time>2026-04-26T08:49:34.289Z</time></trkpt><trkpt lat="42.3745" lon="14.3101087"><ele>21.0</ele><time>2026-04-26T08:49:35.287Z</time></trkpt><trkpt lat="42.3744247" lon="14.3101313"><ele>21.0</ele><time>2026-04-26T08:49:36.289Z</time></trkpt><trkpt lat="42.3743465" lon="14.3101275"><ele>21.200000000000003</ele><time>2026-04-26T08:49:37.287Z</time></trkpt><trkpt lat="42.3742638" lon="14.3100938"><ele>21.400000000000002</ele><time>2026-04-26T08:49:38.286Z</time></trkpt><trkpt lat="42.3741753" lon="14.3100337"><ele>21.6</ele><time>2026-04-26T08:49:39.288Z</time></trkpt><trkpt lat="42.3740825" lon="14.3099633"><ele>21.8</ele><time>2026-04-26T08:49:40.288Z</time></trkpt><trkpt lat="42.3739877" lon="14.3098787"><ele>22.0</ele><time>2026-04-26T08:49:41.285Z</time></trkpt><trkpt lat="42.3739025" lon="14.309784"><ele>23.8</ele><time>2026-04-26T08:49:42.284Z</time></trkpt><trkpt lat="42.3738355" lon="14.3096953"><ele>25.6</ele><time>2026-04-26T08:49:43.284Z</time></trkpt><trkpt lat="42.3737645" lon="14.309624"><ele>27.400000000000002</ele><time>2026-04-26T08:49:44.284Z</time></trkpt><trkpt lat="42.3736792" lon="14.3095562"><ele>29.200000000000003</ele><time>2026-04-26T08:49:45.286Z</time></trkpt><trkpt lat="42.3735838" lon="14.3094835"><ele>31.0</ele><time>2026-04-26T08:49:46.287Z</time></trkpt><trkpt lat="42.373479" lon="14.3094085"><ele>31.0</ele><time>2026-04-26T08:49:47.287Z</time></trkpt><trkpt lat="42.3733687" lon="14.3093343"><ele>31.0</ele><time>2026-04-26T08:49:48.286Z</time></trkpt><trkpt lat="42.3732553" lon="14.3092535"><ele>31.0</ele><time>2026-04-26T08:49:49.289Z</time></trkpt><trkpt lat="42.3731493" lon="14.3091773"><ele>31.0</ele><time>2026-04-26T08:49:50.288Z</time></trkpt><trkpt lat="42.3730443" lon="14.3091103"><ele>31.75</ele><time>2026-04-26T08:49:51.287Z</time></trkpt><trkpt lat="42.3729328" lon="14.3090623"><ele>32.5</ele><time>2026-04-26T08:49:52.286Z</time></trkpt><trkpt lat="42.3728117" lon="14.3090333"><ele>33.25</ele><time>2026-04-26T08:49:53.287Z</time></trkpt><trkpt lat="42.3726845" lon="14.3090022"><ele>34.0</ele><time>2026-04-26T08:49:54.287Z</time></trkpt><trkpt lat="42.372555" lon="14.3089542"><ele>33.5</ele><time>2026-04-26T08:49:55.286Z</time></trkpt><trkpt lat="42.372428" lon="14.3088828"><ele>33.0</ele><time>2026-04-26T08:49:56.288Z</time></trkpt><trkpt lat="42.3723015" lon="14.3087937"><ele>32.5</ele><time>2026-04-26T08:49:57.287Z</time></trkpt><trkpt lat="42.3721727" lon="14.308697"><ele>32.0</ele><time>2026-04-26T08:49:58.287Z</time></trkpt><trkpt lat="42.3720408" lon="14.3085965"><ele>32.0</ele><time>2026-04-26T08:49:59.287Z</time></trkpt><trkpt lat="42.3719052" lon="14.3084917"><ele>32.0</ele><time>2026-04-26T08:50:00.288Z</time></trkpt><trkpt lat="42.3717683" lon="14.3083832"><ele>32.0</ele><time>2026-04-26T08:50:01.288Z</time></trkpt><trkpt lat="42.3716267" lon="14.3082715"><ele>32.0</ele><time>2026-04-26T08:50:02.289Z</time></trkpt><trkpt lat="42.3714822" lon="14.3081583"><ele>32.0</ele><time>2026-04-26T08:50:03.287Z</time></trkpt><trkpt lat="42.3713363" lon="14.3080418"><ele>32.0</ele><time>2026-04-26T08:50:04.288Z</time></trkpt><trkpt lat="42.3711968" lon="14.30793"><ele>31.5</ele><time>2026-04-26T08:50:05.287Z</time></trkpt><trkpt lat="42.371068" lon="14.3078285"><ele>31.0</ele><time>2026-04-26T08:50:06.288Z</time></trkpt><trkpt lat="42.370951" lon="14.3077343"><ele>30.5</ele><time>2026-04-26T08:50:07.287Z</time></trkpt><trkpt lat="42.3708415" lon="14.3076465"><ele>30.0</ele><time>2026-04-26T08:50:08.286Z</time></trkpt><trkpt lat="42.3707328" lon="14.307562"><ele>30.0</ele><time>2026-04-26T08:50:09.286Z</time></trkpt><trkpt lat="42.3706173" lon="14.3074767"><ele>30.0</ele><time>2026-04-26T08:50:10.287Z</time></trkpt><trkpt lat="42.3704918" lon="14.3073955"><ele>30.0</ele><time>2026-04-26T08:50:11.288Z</time></trkpt><trkpt lat="42.3703633" lon="14.3073177"><ele>30.0</ele><time>2026-04-26T08:50:12.29Z</time></trkpt><trkpt lat="42.3702342" lon="14.3072313"><ele>29.5</ele><time>2026-04-26T08:50:13.286Z</time></trkpt><trkpt lat="42.370113" lon="14.3071563"><ele>29.0</ele><time>2026-04-26T08:50:14.287Z</time></trkpt><trkpt lat="42.3699945" lon="14.3070818"><ele>28.5</ele><time>2026-04-26T08:50:15.288Z</time></trkpt><trkpt lat="42.3698702" lon="14.3070087"><ele>28.0</ele><time>2026-04-26T08:50:16.289Z</time></trkpt><trkpt lat="42.3697408" lon="14.3069372"><ele>28.4</ele><time>2026-04-26T08:50:17.289Z</time></trkpt><trkpt lat="42.3696183" lon="14.3068617"><ele>28.799999999999997</ele><time>2026-04-26T08:50:18.289Z</time></trkpt><trkpt lat="42.3695145" lon="14.306783"><ele>29.2</ele><time>2026-04-26T08:50:19.29Z</time></trkpt><trkpt lat="42.3694413" lon="14.3066968"><ele>29.6</ele><time>2026-04-26T08:50:20.291Z</time></trkpt><trkpt lat="42.3693993" lon="14.3065985"><ele>30.0</ele><time>2026-04-26T08:50:21.29Z</time></trkpt><trkpt lat="42.3693802" lon="14.3064985"><ele>29.4</ele><time>2026-04-26T08:50:22.29Z</time></trkpt><trkpt lat="42.36938" lon="14.3063888"><ele>28.8</ele><time>2026-04-26T08:50:23.288Z</time></trkpt><trkpt lat="42.3694047" lon="14.3062622"><ele>28.200000000000003</ele><time>2026-04-26T08:50:24.289Z</time></trkpt><trkpt lat="42.369449" lon="14.3061223"><ele>27.6</ele><time>2026-04-26T08:50:25.288Z</time></trkpt><trkpt lat="42.369508" lon="14.305966"><ele>27.0</ele><time>2026-04-26T08:50:26.287Z</time></trkpt><trkpt lat="42.3695752" lon="14.3057987"><ele>27.0</ele><time>2026-04-26T08:50:27.288Z</time></trkpt><trkpt lat="42.3696398" lon="14.3056332"><ele>27.000000000000004</ele><time>2026-04-26T08:50:28.288Z</time></trkpt><trkpt lat="42.3696975" lon="14.3054807"><ele>27.000000000000004</ele><time>2026-04-26T08:50:29.289Z</time></trkpt><trkpt lat="42.3697405" lon="14.3053707"><ele>27.0</ele><time>2026-04-26T08:50:30.286Z</time></trkpt><trkpt lat="42.3697558" lon="14.305288"><ele>27.0</ele><time>2026-04-26T08:50:31.285Z</time></trkpt><trkpt lat="42.3696918" lon="14.305502"><ele>27.0</ele><time>2026-04-26T08:50:37.289Z</time></trkpt><trkpt lat="42.3696452" lon="14.3056273"><ele>27.0</ele><time>2026-04-26T08:50:38.291Z</time></trkpt><trkpt lat="42.3695908" lon="14.3057665"><ele>27.0</ele><time>2026-04-26T08:50:39.29Z</time></trkpt><trkpt lat="42.3695335" lon="14.3059087"><ele>27.0</ele><time>2026-04-26T08:50:40.289Z</time></trkpt><trkpt lat="42.3694762" lon="14.3060463"><ele>27.0</ele><time>2026-04-26T08:50:41.288Z</time></trkpt><trkpt lat="42.3694298" lon="14.3061692"><ele>27.000000000000004</ele><time>2026-04-26T08:50:42.289Z</time></trkpt><trkpt lat="42.369399" lon="14.3062685"><ele>27.000000000000004</ele><time>2026-04-26T08:50:43.289Z</time></trkpt><trkpt lat="42.3693355" lon="14.3063583"><ele>27.0</ele><time>2026-04-26T08:50:45.289Z</time></trkpt><trkpt lat="42.3692257" lon="14.306297"><ele>27.0</ele><time>2026-04-26T08:50:47.288Z</time></trkpt><trkpt lat="42.3691522" lon="14.3062337"><ele>27.0</ele><time>2026-04-26T08:50:48.29Z</time></trkpt><trkpt lat="42.3690713" lon="14.3061582"><ele>27.000000000000004</ele><time>2026-04-26T08:50:49.29Z</time></trkpt><trkpt lat="42.368983" lon="14.306077"><ele>27.000000000000004</ele><time>2026-04-26T08:50:50.287Z</time></trkpt><trkpt lat="42.3688887" lon="14.3059885"><ele>27.0</ele><time>2026-04-26T08:50:51.288Z</time></trkpt><trkpt lat="42.3687875" lon="14.3058938"><ele>27.0</ele><time>2026-04-26T08:50:52.289Z</time></trkpt><trkpt lat="42.3686848" lon="14.3057938"><ele>27.200000000000003</ele><time>2026-04-26T08:50:53.289Z</time></trkpt><trkpt lat="42.368585" lon="14.3056942"><ele>27.400000000000002</ele><time>2026-04-26T08:50:54.287Z</time></trkpt><trkpt lat="42.3684967" lon="14.3056013"><ele>27.599999999999998</ele><time>2026-04-26T08:50:55.287Z</time></trkpt><trkpt lat="42.3684222" lon="14.305524"><ele>27.799999999999997</ele><time>2026-04-26T08:50:56.286Z</time></trkpt><trkpt lat="42.368366" lon="14.305478"><ele>28.0</ele><time>2026-04-26T08:50:57.286Z</time></trkpt><trkpt lat="42.3682955" lon="14.3054993"><ele>28.25</ele><time>2026-04-26T08:50:59.288Z</time></trkpt><trkpt lat="42.3681987" lon="14.3056452"><ele>28.5</ele><time>2026-04-26T08:51:01.29Z</time></trkpt><trkpt lat="42.3681292" lon="14.3057488"><ele>28.75</ele><time>2026-04-26T08:51:02.288Z</time></trkpt><trkpt lat="42.368045" lon="14.305863"><ele>29.0</ele><time>2026-04-26T08:51:03.289Z</time></trkpt><trkpt lat="42.3679548" lon="14.3059695"><ele>29.0</ele><time>2026-04-26T08:51:04.288Z</time></trkpt><trkpt lat="42.3678667" lon="14.3060462"><ele>29.0</ele><time>2026-04-26T08:51:05.289Z</time></trkpt><trkpt lat="42.3677662" lon="14.3060883"><ele>29.0</ele><time>2026-04-26T08:51:06.289Z</time></trkpt><trkpt lat="42.3676507" lon="14.306111"><ele>29.0</ele><time>2026-04-26T08:51:07.288Z</time></trkpt><trkpt lat="42.3675277" lon="14.3061265"><ele>29.0</ele><time>2026-04-26T08:51:08.29Z</time></trkpt><trkpt lat="42.3673993" lon="14.3061308"><ele>29.0</ele><time>2026-04-26T08:51:09.289Z</time></trkpt><trkpt lat="42.3672667" lon="14.3061145"><ele>29.0</ele><time>2026-04-26T08:51:10.285Z</time></trkpt><trkpt lat="42.367143" lon="14.3060777"><ele>29.0</ele><time>2026-04-26T08:51:11.287Z</time></trkpt><trkpt lat="42.3670322" lon="14.306016"><ele>30.6</ele><time>2026-04-26T08:51:12.287Z</time></trkpt><trkpt lat="42.3669272" lon="14.3059575"><ele>32.2</ele><time>2026-04-26T08:51:13.285Z</time></trkpt><trkpt lat="42.366831" lon="14.3059365"><ele>33.800000000000004</ele><time>2026-04-26T08:51:14.287Z</time></trkpt><trkpt lat="42.3667282" lon="14.30595"><ele>35.4</ele><time>2026-04-26T08:51:15.287Z</time></trkpt><trkpt lat="42.3666165" lon="14.3059805"><ele>37.0</ele><time>2026-04-26T08:51:16.287Z</time></trkpt><trkpt lat="42.3664973" lon="14.3060082"><ele>37.0</ele><time>2026-04-26T08:51:17.286Z</time></trkpt><trkpt lat="42.3663908" lon="14.3060182"><ele>37.0</ele><time>2026-04-26T08:51:18.286Z</time></trkpt><trkpt lat="42.3663027" lon="14.306024"><ele>37.0</ele><time>2026-04-26T08:51:19.285Z</time></trkpt><trkpt lat="42.366236" lon="14.306053"><ele>37.0</ele><time>2026-04-26T08:51:20.286Z</time></trkpt><trkpt lat="42.3661618" lon="14.3061127"><ele>37.0</ele><time>2026-04-26T08:51:21.285Z</time></trkpt><trkpt lat="42.3660733" lon="14.3061863"><ele>37.0</ele><time>2026-04-26T08:51:22.285Z</time></trkpt><trkpt lat="42.3659798" lon="14.306226"><ele>37.0</ele><time>2026-04-26T08:51:23.285Z</time></trkpt><trkpt lat="42.3658767" lon="14.3062448"><ele>37.0</ele><time>2026-04-26T08:51:24.291Z</time></trkpt><trkpt lat="42.36576" lon="14.3062465"><ele>37.0</ele><time>2026-04-26T08:51:25.287Z</time></trkpt><trkpt lat="42.3656523" lon="14.3062368"><ele>37.0</ele><time>2026-04-26T08:51:26.287Z</time></trkpt><trkpt lat="42.3655477" lon="14.306225"><ele>37.5</ele><time>2026-04-26T08:51:27.286Z</time></trkpt><trkpt lat="42.3654395" lon="14.3062272"><ele>38.0</ele><time>2026-04-26T08:51:28.287Z</time></trkpt><trkpt lat="42.365333" lon="14.3062062"><ele>38.5</ele><time>2026-04-26T08:51:29.286Z</time></trkpt><trkpt lat="42.3652187" lon="14.3061688"><ele>39.0</ele><time>2026-04-26T08:51:30.288Z</time></trkpt><trkpt lat="42.3650978" lon="14.306149"><ele>39.0</ele><time>2026-04-26T08:51:31.288Z</time></trkpt><trkpt lat="42.364982" lon="14.3061528"><ele>39.0</ele><time>2026-04-26T08:51:32.288Z</time></trkpt><trkpt lat="42.3648595" lon="14.3061773"><ele>39.0</ele><time>2026-04-26T08:51:33.286Z</time></trkpt><trkpt lat="42.364729" lon="14.3062318"><ele>39.0</ele><time>2026-04-26T08:51:34.287Z</time></trkpt><trkpt lat="42.3645937" lon="14.3063048"><ele>38.75</ele><time>2026-04-26T08:51:35.287Z</time></trkpt><trkpt lat="42.3644688" lon="14.3063888"><ele>38.5</ele><time>2026-04-26T08:51:36.287Z</time></trkpt><trkpt lat="42.3643557" lon="14.3064898"><ele>38.25</ele><time>2026-04-26T08:51:37.286Z</time></trkpt><trkpt lat="42.3642498" lon="14.3065952"><ele>38.0</ele><time>2026-04-26T08:51:38.287Z</time></trkpt><trkpt lat="42.3641513" lon="14.3066965"><ele>38.25</ele><time>2026-04-26T08:51:39.286Z</time></trkpt><trkpt lat="42.36405" lon="14.3067963"><ele>38.5</ele><time>2026-04-26T08:51:40.285Z</time></trkpt><trkpt lat="42.3639395" lon="14.3068777"><ele>38.75</ele><time>2026-04-26T08:51:41.285Z</time></trkpt><trkpt lat="42.3638252" lon="14.306933"><ele>39.0</ele><time>2026-04-26T08:51:42.288Z</time></trkpt><trkpt lat="42.363699" lon="14.3069805"><ele>39.0</ele><time>2026-04-26T08:51:43.285Z</time></trkpt><trkpt lat="42.3635498" lon="14.3070208"><ele>39.0</ele><time>2026-04-26T08:51:44.283Z</time></trkpt><trkpt lat="42.3633933" lon="14.3070465"><ele>39.0</ele><time>2026-04-26T08:51:45.285Z</time></trkpt><trkpt lat="42.363239" lon="14.3070588"><ele>39.0</ele><time>2026-04-26T08:51:46.285Z</time></trkpt><trkpt lat="42.3630877" lon="14.3070548"><ele>39.0</ele><time>2026-04-26T08:51:47.285Z</time></trkpt><trkpt lat="42.3629308" lon="14.3070298"><ele>39.0</ele><time>2026-04-26T08:51:48.288Z</time></trkpt><trkpt lat="42.3627742" lon="14.3069953"><ele>38.666666666666664</ele><time>2026-04-26T08:51:49.286Z</time></trkpt><trkpt lat="42.3626152" lon="14.3069638"><ele>38.33333333333333</ele><time>2026-04-26T08:51:50.286Z</time></trkpt><trkpt lat="42.3624567" lon="14.3069493"><ele>38.0</ele><time>2026-04-26T08:51:51.287Z</time></trkpt><trkpt lat="42.3622953" lon="14.3069478"><ele>37.75</ele><time>2026-04-26T08:51:52.288Z</time></trkpt><trkpt lat="42.362137" lon="14.3069495"><ele>37.5</ele><time>2026-04-26T08:51:53.286Z</time></trkpt><trkpt lat="42.361989" lon="14.3069467"><ele>37.25</ele><time>2026-04-26T08:51:54.286Z</time></trkpt><trkpt lat="42.3618545" lon="14.3069488"><ele>37.0</ele><time>2026-04-26T08:51:55.285Z</time></trkpt><trkpt lat="42.3617253" lon="14.3069255"><ele>37.0</ele><time>2026-04-26T08:51:56.287Z</time></trkpt><trkpt lat="42.3616048" lon="14.3068828"><ele>37.0</ele><time>2026-04-26T08:51:57.285Z</time></trkpt><trkpt lat="42.3615015" lon="14.3068195"><ele>37.0</ele><time>2026-04-26T08:51:58.285Z</time></trkpt><trkpt lat="42.3614058" lon="14.3067157"><ele>37.0</ele><time>2026-04-26T08:51:59.284Z</time></trkpt><trkpt lat="42.3613055" lon="14.3066023"><ele>37.0</ele><time>2026-04-26T08:52:00.286Z</time></trkpt><trkpt lat="42.3612023" lon="14.3065227"><ele>37.0</ele><time>2026-04-26T08:52:01.285Z</time></trkpt><trkpt lat="42.361084" lon="14.3064833"><ele>37.0</ele><time>2026-04-26T08:52:02.286Z</time></trkpt><trkpt lat="42.3609437" lon="14.306457"><ele>37.0</ele><time>2026-04-26T08:52:03.286Z</time></trkpt><trkpt lat="42.3607825" lon="14.3064147"><ele>34.66666666666667</ele><time>2026-04-26T08:52:04.286Z</time></trkpt><trkpt lat="42.360607" lon="14.3063523"><ele>32.333333333333336</ele><time>2026-04-26T08:52:05.288Z</time></trkpt><trkpt lat="42.3604277" lon="14.3062643"><ele>30.0</ele><time>2026-04-26T08:52:06.289Z</time></trkpt><trkpt lat="42.3602567" lon="14.3061845"><ele>29.25</ele><time>2026-04-26T08:52:07.287Z</time></trkpt><trkpt lat="42.3601075" lon="14.3061422"><ele>28.5</ele><time>2026-04-26T08:52:08.284Z</time></trkpt><trkpt lat="42.3599808" lon="14.3061312"><ele>27.75</ele><time>2026-04-26T08:52:09.284Z</time></trkpt><trkpt lat="42.359884" lon="14.3061525"><ele>27.0</ele><time>2026-04-26T08:52:10.285Z</time></trkpt><trkpt lat="42.3597882" lon="14.3062022"><ele>28.25</ele><time>2026-04-26T08:52:11.285Z</time></trkpt><trkpt lat="42.3596737" lon="14.306253"><ele>29.5</ele><time>2026-04-26T08:52:12.287Z</time></trkpt><trkpt lat="42.3595408" lon="14.3062995"><ele>30.75</ele><time>2026-04-26T08:52:13.288Z</time></trkpt><trkpt lat="42.3594023" lon="14.306344"><ele>32.0</ele><time>2026-04-26T08:52:14.289Z</time></trkpt><trkpt lat="42.3592777" lon="14.3063848"><ele>32.2</ele><time>2026-04-26T08:52:15.286Z</time></trkpt><trkpt lat="42.3591845" lon="14.3064275"><ele>32.400000000000006</ele><time>2026-04-26T08:52:16.287Z</time></trkpt><trkpt lat="42.3591258" lon="14.3064693"><ele>32.599999999999994</ele><time>2026-04-26T08:52:17.286Z</time></trkpt><trkpt lat="42.3590622" lon="14.3065358"><ele>32.8</ele><time>2026-04-26T08:52:19.286Z</time></trkpt><trkpt lat="42.3589775" lon="14.3066898"><ele>33.0</ele><time>2026-04-26T08:52:21.291Z</time></trkpt><trkpt lat="42.3589167" lon="14.3067945"><ele>32.5</ele><time>2026-04-26T08:52:22.286Z</time></trkpt><trkpt lat="42.3588388" lon="14.3069082"><ele>32.0</ele><time>2026-04-26T08:52:23.286Z</time></trkpt><trkpt lat="42.3587455" lon="14.3070132"><ele>31.5</ele><time>2026-04-26T08:52:24.285Z</time></trkpt><trkpt lat="42.3586447" lon="14.3070947"><ele>31.0</ele><time>2026-04-26T08:52:25.285Z</time></trkpt><trkpt lat="42.3585423" lon="14.3071337"><ele>31.0</ele><time>2026-04-26T08:52:26.287Z</time></trkpt><trkpt lat="42.358446" lon="14.3071422"><ele>31.0</ele><time>2026-04-26T08:52:27.285Z</time></trkpt><trkpt lat="42.3583437" lon="14.3071043"><ele>31.0</ele><time>2026-04-26T08:52:28.286Z</time></trkpt><trkpt lat="42.3582275" lon="14.3070448"><ele>31.0</ele><time>2026-04-26T08:52:29.288Z</time></trkpt><trkpt lat="42.3580948" lon="14.3069857"><ele>31.333333333333336</ele><time>2026-04-26T08:52:30.287Z</time></trkpt><trkpt lat="42.3579408" lon="14.3069123"><ele>31.666666666666664</ele><time>2026-04-26T08:52:31.288Z</time></trkpt><trkpt lat="42.3577755" lon="14.3068263"><ele>32.0</ele><time>2026-04-26T08:52:32.284Z</time></trkpt><trkpt lat="42.3575985" lon="14.3067412"><ele>32.0</ele><time>2026-04-26T08:52:33.285Z</time></trkpt><trkpt lat="42.3574113" lon="14.3066568"><ele>32.0</ele><time>2026-04-26T08:52:34.286Z</time></trkpt><trkpt lat="42.357225" lon="14.3065695"><ele>32.0</ele><time>2026-04-26T08:52:35.285Z</time></trkpt><trkpt lat="42.3570563" lon="14.3064895"><ele>32.33333333333333</ele><time>2026-04-26T08:52:36.286Z</time></trkpt><trkpt lat="42.356898" lon="14.306433"><ele>32.666666666666664</ele><time>2026-04-26T08:52:37.288Z</time></trkpt><trkpt lat="42.3567348" lon="14.3063868"><ele>33.0</ele><time>2026-04-26T08:52:38.286Z</time></trkpt><trkpt lat="42.3565723" lon="14.3063655"><ele>33.0</ele><time>2026-04-26T08:52:39.288Z</time></trkpt><trkpt lat="42.356411" lon="14.3063735"><ele>33.0</ele><time>2026-04-26T08:52:40.287Z</time></trkpt><trkpt lat="42.3562385" lon="14.3064023"><ele>33.0</ele><time>2026-04-26T08:52:41.287Z</time></trkpt><trkpt lat="42.3560575" lon="14.3064473"><ele>33.666666666666664</ele><time>2026-04-26T08:52:42.287Z</time></trkpt><trkpt lat="42.3558647" lon="14.3065023"><ele>34.33333333333333</ele><time>2026-04-26T08:52:43.284Z</time></trkpt><trkpt lat="42.3556612" lon="14.3065633"><ele>35.0</ele><time>2026-04-26T08:52:44.285Z</time></trkpt><trkpt lat="42.355454" lon="14.3066392"><ele>35.0</ele><time>2026-04-26T08:52:45.287Z</time></trkpt><trkpt lat="42.3552443" lon="14.3067308"><ele>35.0</ele><time>2026-04-26T08:52:46.287Z</time></trkpt><trkpt lat="42.355038" lon="14.3068245"><ele>35.0</ele><time>2026-04-26T08:52:47.287Z</time></trkpt><trkpt lat="42.3548505" lon="14.3069048"><ele>35.0</ele><time>2026-04-26T08:52:48.286Z</time></trkpt><trkpt lat="42.3546668" lon="14.3069718"><ele>35.0</ele><time>2026-04-26T08:52:49.286Z</time></trkpt><trkpt lat="42.3544875" lon="14.3070392"><ele>35.0</ele><time>2026-04-26T08:52:50.286Z</time></trkpt><trkpt lat="42.3543255" lon="14.3071155"><ele>35.0</ele><time>2026-04-26T08:52:51.289Z</time></trkpt><trkpt lat="42.3541655" lon="14.3072082"><ele>35.0</ele><time>2026-04-26T08:52:52.286Z</time></trkpt><trkpt lat="42.3540105" lon="14.307314"><ele>35.0</ele><time>2026-04-26T08:52:53.284Z</time></trkpt><trkpt lat="42.3538658" lon="14.3074013"><ele>36.25</ele><time>2026-04-26T08:52:54.287Z</time></trkpt><trkpt lat="42.3537285" lon="14.3074323"><ele>37.5</ele><time>2026-04-26T08:52:55.284Z</time></trkpt><trkpt lat="42.3535908" lon="14.3074293"><ele>38.75</ele><time>2026-04-26T08:52:56.285Z</time></trkpt><trkpt lat="42.3534635" lon="14.3074317"><ele>40.0</ele><time>2026-04-26T08:52:57.283Z</time></trkpt><trkpt lat="42.3533605" lon="14.3074697"><ele>40.0</ele><time>2026-04-26T08:52:58.284Z</time></trkpt><trkpt lat="42.3532645" lon="14.3075495"><ele>40.0</ele><time>2026-04-26T08:52:59.284Z</time></trkpt><trkpt lat="42.3531582" lon="14.3076442"><ele>40.0</ele><time>2026-04-26T08:53:00.284Z</time></trkpt><trkpt lat="42.3530353" lon="14.3077247"><ele>40.0</ele><time>2026-04-26T08:53:01.285Z</time></trkpt><trkpt lat="42.352917" lon="14.3077697"><ele>39.5</ele><time>2026-04-26T08:53:02.286Z</time></trkpt><trkpt lat="42.3528058" lon="14.3077547"><ele>39.0</ele><time>2026-04-26T08:53:03.287Z</time></trkpt><trkpt lat="42.3526917" lon="14.3076905"><ele>38.5</ele><time>2026-04-26T08:53:04.286Z</time></trkpt><trkpt lat="42.3525677" lon="14.3076308"><ele>38.0</ele><time>2026-04-26T08:53:05.289Z</time></trkpt><trkpt lat="42.3524457" lon="14.3075967"><ele>38.0</ele><time>2026-04-26T08:53:06.288Z</time></trkpt><trkpt lat="42.3523112" lon="14.3075952"><ele>38.0</ele><time>2026-04-26T08:53:07.287Z</time></trkpt><trkpt lat="42.3521587" lon="14.3076222"><ele>38.0</ele><time>2026-04-26T08:53:08.285Z</time></trkpt><trkpt lat="42.3519927" lon="14.3076547"><ele>38.33333333333333</ele><time>2026-04-26T08:53:09.287Z</time></trkpt><trkpt lat="42.3518195" lon="14.3076833"><ele>38.666666666666664</ele><time>2026-04-26T08:53:10.287Z</time></trkpt><trkpt lat="42.3516427" lon="14.3077118"><ele>39.0</ele><time>2026-04-26T08:53:11.286Z</time></trkpt><trkpt lat="42.3514622" lon="14.3077407"><ele>40.333333333333336</ele><time>2026-04-26T08:53:12.287Z</time></trkpt><trkpt lat="42.3512798" lon="14.30777"><ele>41.66666666666667</ele><time>2026-04-26T08:53:13.288Z</time></trkpt><trkpt lat="42.3510967" lon="14.3077953"><ele>43.0</ele><time>2026-04-26T08:53:14.29Z</time></trkpt><trkpt lat="42.3509265" lon="14.3078152"><ele>43.0</ele><time>2026-04-26T08:53:15.287Z</time></trkpt><trkpt lat="42.3507698" lon="14.3078288"><ele>43.0</ele><time>2026-04-26T08:53:16.286Z</time></trkpt><trkpt lat="42.3506163" lon="14.3078403"><ele>43.0</ele><time>2026-04-26T08:53:17.289Z</time></trkpt><trkpt lat="42.3504532" lon="14.3078713"><ele>43.333333333333336</ele><time>2026-04-26T08:53:18.288Z</time></trkpt><trkpt lat="42.3502803" lon="14.3079302"><ele>43.666666666666664</ele><time>2026-04-26T08:53:19.287Z</time></trkpt><trkpt lat="42.3501035" lon="14.3080113"><ele>44.0</ele><time>2026-04-26T08:53:20.289Z</time></trkpt><trkpt lat="42.3499235" lon="14.3081047"><ele>44.0</ele><time>2026-04-26T08:53:21.287Z</time></trkpt><trkpt lat="42.3497582" lon="14.3081975"><ele>44.0</ele><time>2026-04-26T08:53:22.287Z</time></trkpt><trkpt lat="42.3496105" lon="14.3082797"><ele>44.0</ele><time>2026-04-26T08:53:23.286Z</time></trkpt><trkpt lat="42.3494827" lon="14.308342"><ele>43.800000000000004</ele><time>2026-04-26T08:53:24.285Z</time></trkpt><trkpt lat="42.3493715" lon="14.3083677"><ele>43.6</ele><time>2026-04-26T08:53:25.29Z</time></trkpt><trkpt lat="42.3492888" lon="14.3083535"><ele>43.4</ele><time>2026-04-26T08:53:26.288Z</time></trkpt><trkpt lat="42.3492388" lon="14.3082832"><ele>43.2</ele><time>2026-04-26T08:53:27.288Z</time></trkpt><trkpt lat="42.3492165" lon="14.3081575"><ele>43.0</ele><time>2026-04-26T08:53:28.288Z</time></trkpt><trkpt lat="42.3492008" lon="14.3080112"><ele>42.833333333333336</ele><time>2026-04-26T08:53:29.286Z</time></trkpt><trkpt lat="42.34916" lon="14.3079097"><ele>42.66666666666667</ele><time>2026-04-26T08:53:30.287Z</time></trkpt><trkpt lat="42.3490992" lon="14.3078693"><ele>42.5</ele><time>2026-04-26T08:53:31.288Z</time></trkpt><trkpt lat="42.3490157" lon="14.3078607"><ele>42.333333333333336</ele><time>2026-04-26T08:53:32.287Z</time></trkpt><trkpt lat="42.3489397" lon="14.3078258"><ele>42.166666666666664</ele><time>2026-04-26T08:53:33.289Z</time></trkpt><trkpt lat="42.3488958" lon="14.3077437"><ele>42.0</ele><time>2026-04-26T08:53:34.287Z</time></trkpt><trkpt lat="42.3488607" lon="14.3076192"><ele>42.0</ele><time>2026-04-26T08:53:35.287Z</time></trkpt><trkpt lat="42.3488277" lon="14.3074648"><ele>42.0</ele><time>2026-04-26T08:53:36.289Z</time></trkpt><trkpt lat="42.3487933" lon="14.3072873"><ele>42.0</ele><time>2026-04-26T08:53:37.288Z</time></trkpt><trkpt lat="42.3487533" lon="14.3070988"><ele>42.0</ele><time>2026-04-26T08:53:38.288Z</time></trkpt><trkpt lat="42.3487098" lon="14.3069252"><ele>42.0</ele><time>2026-04-26T08:53:39.288Z</time></trkpt><trkpt lat="42.34866" lon="14.3067708"><ele>42.0</ele><time>2026-04-26T08:53:40.288Z</time></trkpt><trkpt lat="42.3486115" lon="14.3066337"><ele>42.0</ele><time>2026-04-26T08:53:41.287Z</time></trkpt><trkpt lat="42.3485785" lon="14.3065048"><ele>42.0</ele><time>2026-04-26T08:53:42.287Z</time></trkpt><trkpt lat="42.3485748" lon="14.3063872"><ele>42.0</ele><time>2026-04-26T08:53:43.288Z</time></trkpt><trkpt lat="42.3486015" lon="14.3062802"><ele>43.2</ele><time>2026-04-26T08:53:44.288Z</time></trkpt><trkpt lat="42.348657" lon="14.3061825"><ele>44.400000000000006</ele><time>2026-04-26T08:53:45.286Z</time></trkpt><trkpt lat="42.3487293" lon="14.3060778"><ele>45.599999999999994</ele><time>2026-04-26T08:53:46.285Z</time></trkpt><trkpt lat="42.3488" lon="14.3059565"><ele>46.8</ele><time>2026-04-26T08:53:47.285Z</time></trkpt><trkpt lat="42.3488477" lon="14.3058427"><ele>48.0</ele><time>2026-04-26T08:53:48.285Z</time></trkpt><trkpt lat="42.3488662" lon="14.3057352"><ele>48.0</ele><time>2026-04-26T08:53:49.286Z</time></trkpt><trkpt lat="42.3488535" lon="14.3056315"><ele>48.0</ele><time>2026-04-26T08:53:50.288Z</time></trkpt><trkpt lat="42.3488113" lon="14.3055415"><ele>48.0</ele><time>2026-04-26T08:53:51.288Z</time></trkpt><trkpt lat="42.3487452" lon="14.305473"><ele>48.0</ele><time>2026-04-26T08:53:52.289Z</time></trkpt><trkpt lat="42.3486663" lon="14.3054215"><ele>48.0</ele><time>2026-04-26T08:53:53.288Z</time></trkpt><trkpt lat="42.3485967" lon="14.3054027"><ele>48.0</ele><time>2026-04-26T08:53:54.291Z</time></trkpt><trkpt lat="42.3485258" lon="14.3053988"><ele>48.0</ele><time>2026-04-26T08:53:56.288Z</time></trkpt><trkpt lat="42.3483992" lon="14.3054557"><ele>48.0</ele><time>2026-04-26T08:54:01.29Z</time></trkpt><trkpt lat="42.3483115" lon="14.3055293"><ele>48.0</ele><time>2026-04-26T08:54:02.288Z</time></trkpt><trkpt lat="42.3482087" lon="14.3056318"><ele>48.0</ele><time>2026-04-26T08:54:03.29Z</time></trkpt><trkpt lat="42.3480918" lon="14.305757"><ele>50.33333333333333</ele><time>2026-04-26T08:54:04.294Z</time></trkpt><trkpt lat="42.347965" lon="14.3058953"><ele>52.666666666666664</ele><time>2026-04-26T08:54:05.29Z</time></trkpt><trkpt lat="42.3478328" lon="14.3060377"><ele>55.0</ele><time>2026-04-26T08:54:06.29Z</time></trkpt><trkpt lat="42.3476982" lon="14.3061848"><ele>55.0</ele><time>2026-04-26T08:54:07.289Z</time></trkpt><trkpt lat="42.347568" lon="14.3063173"><ele>55.0</ele><time>2026-04-26T08:54:08.291Z</time></trkpt><trkpt lat="42.347433" lon="14.306435"><ele>55.0</ele><time>2026-04-26T08:54:09.288Z</time></trkpt><trkpt lat="42.3472855" lon="14.3065333"><ele>54.0</ele><time>2026-04-26T08:54:10.286Z</time></trkpt><trkpt lat="42.3471253" lon="14.3066172"><ele>53.0</ele><time>2026-04-26T08:54:11.288Z</time></trkpt><trkpt lat="42.3469578" lon="14.306699"><ele>52.0</ele><time>2026-04-26T08:54:12.286Z</time></trkpt><trkpt lat="42.3467855" lon="14.3067857"><ele>52.0</ele><time>2026-04-26T08:54:13.289Z</time></trkpt><trkpt lat="42.346609" lon="14.3068762"><ele>52.0</ele><time>2026-04-26T08:54:14.288Z</time></trkpt><trkpt lat="42.3464323" lon="14.3069665"><ele>52.0</ele><time>2026-04-26T08:54:15.288Z</time></trkpt><trkpt lat="42.3462625" lon="14.3070527"><ele>52.33333333333333</ele><time>2026-04-26T08:54:16.291Z</time></trkpt><trkpt lat="42.34609" lon="14.3071388"><ele>52.66666666666667</ele><time>2026-04-26T08:54:17.291Z</time></trkpt><trkpt lat="42.3459157" lon="14.3072277"><ele>53.0</ele><time>2026-04-26T08:54:18.289Z</time></trkpt><trkpt lat="42.3457405" lon="14.3073203"><ele>51.333333333333336</ele><time>2026-04-26T08:54:19.291Z</time></trkpt><trkpt lat="42.3455633" lon="14.3074198"><ele>49.66666666666667</ele><time>2026-04-26T08:54:20.289Z</time></trkpt><trkpt lat="42.3453863" lon="14.307522"><ele>48.0</ele><time>2026-04-26T08:54:21.289Z</time></trkpt><trkpt lat="42.3452105" lon="14.3076272"><ele>48.0</ele><time>2026-04-26T08:54:22.289Z</time></trkpt><trkpt lat="42.3450352" lon="14.3077343"><ele>48.0</ele><time>2026-04-26T08:54:23.288Z</time></trkpt><trkpt lat="42.344861" lon="14.3078382"><ele>48.0</ele><time>2026-04-26T08:54:24.29Z</time></trkpt><trkpt lat="42.3446898" lon="14.3079443"><ele>45.5</ele><time>2026-04-26T08:54:25.29Z</time></trkpt><trkpt lat="42.3443613" lon="14.308149"><ele>43.0</ele><time>2026-04-26T08:54:27.29Z</time></trkpt><trkpt lat="42.3438708" lon="14.3084308"><ele>43.0</ele><time>2026-04-26T08:54:31.289Z</time></trkpt><trkpt lat="42.3437938" lon="14.3084617"><ele>43.0</ele><time>2026-04-26T08:54:32.288Z</time></trkpt><trkpt lat="42.3435555" lon="14.3085252"><ele>43.0</ele><time>2026-04-26T08:54:36.288Z</time></trkpt><trkpt lat="42.343435" lon="14.3085512"><ele>43.0</ele><time>2026-04-26T08:54:38.287Z</time></trkpt><trkpt lat="42.343354" lon="14.3085415"><ele>43.0</ele><time>2026-04-26T08:54:39.288Z</time></trkpt><trkpt lat="42.343263" lon="14.3085008"><ele>43.0</ele><time>2026-04-26T08:54:40.288Z</time></trkpt><trkpt lat="42.3431747" lon="14.3084325"><ele>43.0</ele><time>2026-04-26T08:54:41.286Z</time></trkpt><trkpt lat="42.3430797" lon="14.3083425"><ele>43.0</ele><time>2026-04-26T08:54:42.287Z</time></trkpt><trkpt lat="42.3429717" lon="14.3082412"><ele>43.0</ele><time>2026-04-26T08:54:43.288Z</time></trkpt><trkpt lat="42.3428608" lon="14.308135"><ele>44.25</ele><time>2026-04-26T08:54:44.286Z</time></trkpt><trkpt lat="42.3427477" lon="14.3080183"><ele>45.5</ele><time>2026-04-26T08:54:45.289Z</time></trkpt><trkpt lat="42.3426358" lon="14.3079288"><ele>46.75</ele><time>2026-04-26T08:54:46.286Z</time></trkpt><trkpt lat="42.3425207" lon="14.3078675"><ele>48.0</ele><time>2026-04-26T08:54:47.285Z</time></trkpt><trkpt lat="42.3424095" lon="14.3078465"><ele>48.0</ele><time>2026-04-26T08:54:48.287Z</time></trkpt><trkpt lat="42.3422903" lon="14.3078635"><ele>48.0</ele><time>2026-04-26T08:54:49.288Z</time></trkpt><trkpt lat="42.3421537" lon="14.3079163"><ele>48.0</ele><time>2026-04-26T08:54:50.285Z</time></trkpt><trkpt lat="42.342012" lon="14.3079903"><ele>48.0</ele><time>2026-04-26T08:54:51.291Z</time></trkpt><trkpt lat="42.3418695" lon="14.3080768"><ele>47.333333333333336</ele><time>2026-04-26T08:54:52.287Z</time></trkpt><trkpt lat="42.3417187" lon="14.30817"><ele>46.66666666666667</ele><time>2026-04-26T08:54:53.286Z</time></trkpt><trkpt lat="42.3415663" lon="14.308251"><ele>46.0</ele><time>2026-04-26T08:54:54.286Z</time></trkpt><trkpt lat="42.3414062" lon="14.3083218"><ele>45.333333333333336</ele><time>2026-04-26T08:54:55.285Z</time></trkpt><trkpt lat="42.3412418" lon="14.3083965"><ele>44.666666666666664</ele><time>2026-04-26T08:54:56.284Z</time></trkpt><trkpt lat="42.3410752" lon="14.308466"><ele>44.0</ele><time>2026-04-26T08:54:57.286Z</time></trkpt><trkpt lat="42.3409093" lon="14.3085253"><ele>44.0</ele><time>2026-04-26T08:54:58.285Z</time></trkpt><trkpt lat="42.3407455" lon="14.3085695"><ele>44.0</ele><time>2026-04-26T08:54:59.287Z</time></trkpt><trkpt lat="42.3405735" lon="14.3086027"><ele>44.0</ele><time>2026-04-26T08:55:00.285Z</time></trkpt><trkpt lat="42.3404032" lon="14.3086178"><ele>44.5</ele><time>2026-04-26T08:55:01.285Z</time></trkpt><trkpt lat="42.340249" lon="14.3086247"><ele>45.0</ele><time>2026-04-26T08:55:02.284Z</time></trkpt><trkpt lat="42.3401098" lon="14.3086327"><ele>45.5</ele><time>2026-04-26T08:55:03.287Z</time></trkpt><trkpt lat="42.339977" lon="14.3086307"><ele>46.0</ele><time>2026-04-26T08:55:04.287Z</time></trkpt><trkpt lat="42.339852" lon="14.308594"><ele>46.0</ele><time>2026-04-26T08:55:05.287Z</time></trkpt><trkpt lat="42.339717" lon="14.3085262"><ele>46.0</ele><time>2026-04-26T08:55:06.286Z</time></trkpt><trkpt lat="42.3395743" lon="14.3084425"><ele>46.0</ele><time>2026-04-26T08:55:07.287Z</time></trkpt><trkpt lat="42.3394298" lon="14.308342"><ele>45.66666666666667</ele><time>2026-04-26T08:55:08.287Z</time></trkpt><trkpt lat="42.3392937" lon="14.3082195"><ele>45.333333333333336</ele><time>2026-04-26T08:55:09.286Z</time></trkpt><trkpt lat="42.3391732" lon="14.308076"><ele>45.0</ele><time>2026-04-26T08:55:10.285Z</time></trkpt><trkpt lat="42.339061" lon="14.3079037"><ele>45.666666666666664</ele><time>2026-04-26T08:55:11.286Z</time></trkpt><trkpt lat="42.338953" lon="14.307716"><ele>46.33333333333333</ele><time>2026-04-26T08:55:12.286Z</time></trkpt><trkpt lat="42.3388495" lon="14.3075392"><ele>47.0</ele><time>2026-04-26T08:55:13.287Z</time></trkpt><trkpt lat="42.338757" lon="14.3074022"><ele>47.0</ele><time>2026-04-26T08:55:14.286Z</time></trkpt><trkpt lat="42.3386662" lon="14.3072972"><ele>47.0</ele><time>2026-04-26T08:55:15.286Z</time></trkpt><trkpt lat="42.33856" lon="14.3071913"><ele>47.0</ele><time>2026-04-26T08:55:16.285Z</time></trkpt><trkpt lat="42.3384317" lon="14.3070762"><ele>47.0</ele><time>2026-04-26T08:55:17.285Z</time></trkpt><trkpt lat="42.3382952" lon="14.3069557"><ele>47.400000000000006</ele><time>2026-04-26T08:55:18.285Z</time></trkpt><trkpt lat="42.3381843" lon="14.3068425"><ele>47.800000000000004</ele><time>2026-04-26T08:55:19.288Z</time></trkpt><trkpt lat="42.3380925" lon="14.3067552"><ele>48.2</ele><time>2026-04-26T08:55:20.286Z</time></trkpt><trkpt lat="42.3380073" lon="14.306703"><ele>48.6</ele><time>2026-04-26T08:55:21.287Z</time></trkpt><trkpt lat="42.3379102" lon="14.306691"><ele>49.0</ele><time>2026-04-26T08:55:22.284Z</time></trkpt><trkpt lat="42.3378097" lon="14.3066915"><ele>49.0</ele><time>2026-04-26T08:55:23.285Z</time></trkpt><trkpt lat="42.3377123" lon="14.3067053"><ele>49.0</ele><time>2026-04-26T08:55:24.284Z</time></trkpt><trkpt lat="42.3376025" lon="14.3067243"><ele>49.0</ele><time>2026-04-26T08:55:25.282Z</time></trkpt><trkpt lat="42.3374815" lon="14.3067402"><ele>49.0</ele><time>2026-04-26T08:55:26.283Z</time></trkpt><trkpt lat="42.3373495" lon="14.306755"><ele>49.666666666666664</ele><time>2026-04-26T08:55:27.285Z</time></trkpt><trkpt lat="42.3372027" lon="14.30674"><ele>50.33333333333333</ele><time>2026-04-26T08:55:28.285Z</time></trkpt><trkpt lat="42.3370482" lon="14.3067108"><ele>51.0</ele><time>2026-04-26T08:55:29.287Z</time></trkpt><trkpt lat="42.3368875" lon="14.3066735"><ele>51.0</ele><time>2026-04-26T08:55:30.286Z</time></trkpt><trkpt lat="42.3367247" lon="14.3066302"><ele>51.0</ele><time>2026-04-26T08:55:31.286Z</time></trkpt><trkpt lat="42.3365783" lon="14.3065908"><ele>51.0</ele><time>2026-04-26T08:55:32.286Z</time></trkpt><trkpt lat="42.3364462" lon="14.306562"><ele>51.0</ele><time>2026-04-26T08:55:33.285Z</time></trkpt><trkpt lat="42.3363273" lon="14.3065322"><ele>51.25</ele><time>2026-04-26T08:55:34.286Z</time></trkpt><trkpt lat="42.3362192" lon="14.306474"><ele>51.5</ele><time>2026-04-26T08:55:35.285Z</time></trkpt><trkpt lat="42.3361135" lon="14.3063748"><ele>51.75</ele><time>2026-04-26T08:55:36.284Z</time></trkpt><trkpt lat="42.3360198" lon="14.3062518"><ele>52.0</ele><time>2026-04-26T08:55:37.286Z</time></trkpt><trkpt lat="42.3359343" lon="14.3061263"><ele>52.666666666666664</ele><time>2026-04-26T08:55:38.287Z</time></trkpt><trkpt lat="42.335868" lon="14.3060152"><ele>53.33333333333333</ele><time>2026-04-26T08:55:39.286Z</time></trkpt><trkpt lat="42.3357932" lon="14.3059272"><ele>54.0</ele><time>2026-04-26T08:55:40.286Z</time></trkpt><trkpt lat="42.3357152" lon="14.305872"><ele>54.66666666666667</ele><time>2026-04-26T08:55:41.286Z</time></trkpt><trkpt lat="42.3356533" lon="14.3058492"><ele>55.333333333333336</ele><time>2026-04-26T08:55:42.286Z</time></trkpt><trkpt lat="42.3355662" lon="14.3058223"><ele>56.0</ele><time>2026-04-26T08:55:44.286Z</time></trkpt><trkpt lat="42.335506" lon="14.3057697"><ele>56.00000000000001</ele><time>2026-04-26T09:04:56.285Z</time></trkpt><trkpt lat="42.3354442" lon="14.3057495"><ele>56.0</ele><time>2026-04-26T09:04:58.286Z</time></trkpt><trkpt lat="42.3353782" lon="14.3057348"><ele>56.0</ele><time>2026-04-26T09:05:00.287Z</time></trkpt><trkpt lat="42.3354712" lon="14.3057447"><ele>56.0</ele><time>2026-04-26T09:05:10.285Z</time></trkpt><trkpt lat="42.335554" lon="14.3057773"><ele>56.00000000000001</ele><time>2026-04-26T09:05:12.284Z</time></trkpt><trkpt lat="42.3356367" lon="14.3056582"><ele>56.0</ele><time>2026-04-26T09:05:25.286Z</time></trkpt><trkpt lat="42.3356875" lon="14.3055178"><ele>57.16666666666667</ele><time>2026-04-26T09:05:27.287Z</time></trkpt><trkpt lat="42.3357182" lon="14.3054307"><ele>58.333333333333336</ele><time>2026-04-26T09:05:28.287Z</time></trkpt><trkpt lat="42.3357508" lon="14.305343"><ele>59.5</ele><time>2026-04-26T09:05:29.287Z</time></trkpt><trkpt lat="42.3357852" lon="14.3052508"><ele>60.66666666666667</ele><time>2026-04-26T09:05:30.287Z</time></trkpt><trkpt lat="42.3358172" lon="14.3051625"><ele>61.833333333333336</ele><time>2026-04-26T09:05:31.286Z</time></trkpt><trkpt lat="42.3358453" lon="14.3050807"><ele>63.0</ele><time>2026-04-26T09:05:32.287Z</time></trkpt><trkpt lat="42.3358638" lon="14.3049435"><ele>63.0</ele><time>2026-04-26T09:05:34.287Z</time></trkpt><trkpt lat="42.3358315" lon="14.3047937"><ele>63.0</ele><time>2026-04-26T09:05:36.286Z</time></trkpt><trkpt lat="42.3358002" lon="14.3047045"><ele>63.0</ele><time>2026-04-26T09:05:37.285Z</time></trkpt><trkpt lat="42.335762" lon="14.3046125"><ele>63.0</ele><time>2026-04-26T09:05:38.286Z</time></trkpt><trkpt lat="42.3357233" lon="14.3045258"><ele>63.0</ele><time>2026-04-26T09:05:39.286Z</time></trkpt><trkpt lat="42.3356822" lon="14.3044545"><ele>63.0</ele><time>2026-04-26T09:05:40.286Z</time></trkpt><trkpt lat="42.335623" lon="14.3043947"><ele>64.16666666666667</ele><time>2026-04-26T09:05:41.287Z</time></trkpt><trkpt lat="42.3355557" lon="14.3043297"><ele>65.33333333333333</ele><time>2026-04-26T09:05:42.287Z</time></trkpt><trkpt lat="42.3354837" lon="14.3042692"><ele>66.5</ele><time>2026-04-26T09:05:43.287Z</time></trkpt><trkpt lat="42.3354273" lon="14.3042185"><ele>67.66666666666666</ele><time>2026-04-26T09:05:44.287Z</time></trkpt><trkpt lat="42.3353873" lon="14.3040638"><ele>68.83333333333333</ele><time>2026-04-26T09:05:46.287Z</time></trkpt><trkpt lat="42.3353687" lon="14.3039497"><ele>70.0</ele><time>2026-04-26T09:05:47.287Z</time></trkpt><trkpt lat="42.3353347" lon="14.3038682"><ele>72.33333333333333</ele><time>2026-04-26T09:05:48.288Z</time></trkpt><trkpt lat="42.3352792" lon="14.3038153"><ele>74.66666666666666</ele><time>2026-04-26T09:05:49.288Z</time></trkpt><trkpt lat="42.3352303" lon="14.303705"><ele>77.0</ele><time>2026-04-26T09:05:51.287Z</time></trkpt><trkpt lat="42.3352353" lon="14.303615"><ele>79.33333333333333</ele><time>2026-04-26T09:05:53.29Z</time></trkpt><trkpt lat="42.335171" lon="14.303559"><ele>81.66666666666667</ele><time>2026-04-26T09:06:05.287Z</time></trkpt><trkpt lat="42.3351058" lon="14.303556"><ele>84.0</ele><time>2026-04-26T09:06:06.288Z</time></trkpt><trkpt lat="42.3350188" lon="14.3035368"><ele>84.0</ele><time>2026-04-26T09:06:07.286Z</time></trkpt><trkpt lat="42.3349168" lon="14.3034882"><ele>84.0</ele><time>2026-04-26T09:06:08.287Z</time></trkpt><trkpt lat="42.3348082" lon="14.3034143"><ele>84.0</ele><time>2026-04-26T09:06:09.288Z</time></trkpt><trkpt lat="42.3346957" lon="14.3033283"><ele>84.0</ele><time>2026-04-26T09:06:10.288Z</time></trkpt><trkpt lat="42.3345945" lon="14.3032413"><ele>82.5</ele><time>2026-04-26T09:06:11.288Z</time></trkpt><trkpt lat="42.3345067" lon="14.3031475"><ele>81.0</ele><time>2026-04-26T09:06:12.289Z</time></trkpt><trkpt lat="42.3344245" lon="14.303031"><ele>79.5</ele><time>2026-04-26T09:06:13.29Z</time></trkpt><trkpt lat="42.3343487" lon="14.3028887"><ele>78.0</ele><time>2026-04-26T09:06:14.289Z</time></trkpt><trkpt lat="42.334273" lon="14.3027355"><ele>78.0</ele><time>2026-04-26T09:06:15.289Z</time></trkpt><trkpt lat="42.3342" lon="14.3025955"><ele>78.0</ele><time>2026-04-26T09:06:16.287Z</time></trkpt><trkpt lat="42.3341207" lon="14.3024617"><ele>78.0</ele><time>2026-04-26T09:06:17.287Z</time></trkpt><trkpt lat="42.3340185" lon="14.302332"><ele>78.0</ele><time>2026-04-26T09:06:18.286Z</time></trkpt><trkpt lat="42.333907" lon="14.3021852"><ele>76.25</ele><time>2026-04-26T09:06:19.286Z</time></trkpt><trkpt lat="42.3338072" lon="14.3020323"><ele>74.5</ele><time>2026-04-26T09:06:20.286Z</time></trkpt><trkpt lat="42.333718" lon="14.3018777"><ele>72.75</ele><time>2026-04-26T09:06:21.285Z</time></trkpt><trkpt lat="42.333634" lon="14.301737"><ele>71.0</ele><time>2026-04-26T09:06:22.286Z</time></trkpt><trkpt lat="42.3335398" lon="14.3016288"><ele>71.0</ele><time>2026-04-26T09:06:23.285Z</time></trkpt><trkpt lat="42.3334447" lon="14.3015595"><ele>71.0</ele><time>2026-04-26T09:06:24.287Z</time></trkpt><trkpt lat="42.3333638" lon="14.3015417"><ele>71.0</ele><time>2026-04-26T09:06:25.285Z</time></trkpt><trkpt lat="42.3332822" lon="14.3015715"><ele>71.0</ele><time>2026-04-26T09:06:26.286Z</time></trkpt><trkpt lat="42.333183" lon="14.3016435"><ele>71.0</ele><time>2026-04-26T09:06:27.285Z</time></trkpt><trkpt lat="42.333072" lon="14.3017322"><ele>70.0</ele><time>2026-04-26T09:06:28.285Z</time></trkpt><trkpt lat="42.332952" lon="14.3018002"><ele>69.0</ele><time>2026-04-26T09:06:29.287Z</time></trkpt><trkpt lat="42.3328247" lon="14.3018308"><ele>68.0</ele><time>2026-04-26T09:06:30.288Z</time></trkpt><trkpt lat="42.3326872" lon="14.3018227"><ele>67.0</ele><time>2026-04-26T09:06:31.287Z</time></trkpt><trkpt lat="42.3325375" lon="14.3017742"><ele>67.0</ele><time>2026-04-26T09:06:32.291Z</time></trkpt><trkpt lat="42.3323755" lon="14.3017037"><ele>67.0</ele><time>2026-04-26T09:06:33.289Z</time></trkpt><trkpt lat="42.3322018" lon="14.3016192"><ele>67.0</ele><time>2026-04-26T09:06:34.287Z</time></trkpt><trkpt lat="42.3320218" lon="14.3015233"><ele>64.0</ele><time>2026-04-26T09:06:35.289Z</time></trkpt><trkpt lat="42.3318385" lon="14.3014158"><ele>61.0</ele><time>2026-04-26T09:06:36.29Z</time></trkpt><trkpt lat="42.3316617" lon="14.3013123"><ele>58.0</ele><time>2026-04-26T09:06:37.287Z</time></trkpt><trkpt lat="42.3314878" lon="14.3012122"><ele>60.33333333333333</ele><time>2026-04-26T09:06:38.287Z</time></trkpt><trkpt lat="42.3313133" lon="14.3011092"><ele>62.66666666666667</ele><time>2026-04-26T09:06:39.287Z</time></trkpt><trkpt lat="42.3311338" lon="14.3009965"><ele>65.0</ele><time>2026-04-26T09:06:40.289Z</time></trkpt><trkpt lat="42.3309557" lon="14.3008745"><ele>65.0</ele><time>2026-04-26T09:06:41.288Z</time></trkpt><trkpt lat="42.3307903" lon="14.3007592"><ele>65.0</ele><time>2026-04-26T09:06:42.288Z</time></trkpt><trkpt lat="42.3306258" lon="14.3006618"><ele>65.0</ele><time>2026-04-26T09:06:43.288Z</time></trkpt><trkpt lat="42.3304542" lon="14.3005835"><ele>64.66666666666667</ele><time>2026-04-26T09:06:44.289Z</time></trkpt><trkpt lat="42.330269" lon="14.3005167"><ele>64.33333333333333</ele><time>2026-04-26T09:06:45.289Z</time></trkpt><trkpt lat="42.3300723" lon="14.3004603"><ele>64.0</ele><time>2026-04-26T09:06:46.288Z</time></trkpt><trkpt lat="42.3298682" lon="14.3004082"><ele>64.0</ele><time>2026-04-26T09:06:47.287Z</time></trkpt><trkpt lat="42.3296617" lon="14.3003555"><ele>64.0</ele><time>2026-04-26T09:06:48.287Z</time></trkpt><trkpt lat="42.329454" lon="14.3002968"><ele>64.0</ele><time>2026-04-26T09:06:49.287Z</time></trkpt><trkpt lat="42.3292452" lon="14.3002342"><ele>64.0</ele><time>2026-04-26T09:06:50.285Z</time></trkpt><trkpt lat="42.3290358" lon="14.300176"><ele>64.0</ele><time>2026-04-26T09:06:51.287Z</time></trkpt><trkpt lat="42.328834" lon="14.3001217"><ele>64.0</ele><time>2026-04-26T09:06:52.286Z</time></trkpt><trkpt lat="42.3286532" lon="14.3000698"><ele>63.33333333333333</ele><time>2026-04-26T09:06:53.286Z</time></trkpt><trkpt lat="42.3284868" lon="14.3000093"><ele>62.66666666666667</ele><time>2026-04-26T09:06:54.288Z</time></trkpt><trkpt lat="42.3283143" lon="14.299933"><ele>62.0</ele><time>2026-04-26T09:06:55.289Z</time></trkpt><trkpt lat="42.3281318" lon="14.2998447"><ele>63.66666666666667</ele><time>2026-04-26T09:06:56.287Z</time></trkpt><trkpt lat="42.3279398" lon="14.299747"><ele>65.33333333333333</ele><time>2026-04-26T09:06:57.287Z</time></trkpt><trkpt lat="42.3277388" lon="14.2996437"><ele>67.0</ele><time>2026-04-26T09:06:58.287Z</time></trkpt><trkpt lat="42.327533" lon="14.2995272"><ele>67.0</ele><time>2026-04-26T09:06:59.288Z</time></trkpt><trkpt lat="42.3273253" lon="14.2993993"><ele>67.0</ele><time>2026-04-26T09:07:00.287Z</time></trkpt><trkpt lat="42.3271168" lon="14.2992757"><ele>66.33333333333333</ele><time>2026-04-26T09:07:01.288Z</time></trkpt><trkpt lat="42.3269133" lon="14.2991575"><ele>65.66666666666667</ele><time>2026-04-26T09:07:02.289Z</time></trkpt><trkpt lat="42.3267255" lon="14.2990438"><ele>65.0</ele><time>2026-04-26T09:07:03.287Z</time></trkpt><trkpt lat="42.3265437" lon="14.2989282"><ele>67.0</ele><time>2026-04-26T09:07:04.288Z</time></trkpt><trkpt lat="42.326381" lon="14.2988208"><ele>69.0</ele><time>2026-04-26T09:07:05.288Z</time></trkpt><trkpt lat="42.326245" lon="14.298728"><ele>71.0</ele><time>2026-04-26T09:07:06.287Z</time></trkpt><trkpt lat="42.3261372" lon="14.2986358"><ele>71.0</ele><time>2026-04-26T09:07:07.285Z</time></trkpt><trkpt lat="42.3260668" lon="14.2985333"><ele>71.0</ele><time>2026-04-26T09:07:08.287Z</time></trkpt><trkpt lat="42.3260197" lon="14.2984025"><ele>71.0</ele><time>2026-04-26T09:07:09.288Z</time></trkpt><trkpt lat="42.3259805" lon="14.2982597"><ele>71.0</ele><time>2026-04-26T09:07:10.287Z</time></trkpt><trkpt lat="42.3259347" lon="14.2981417"><ele>71.0</ele><time>2026-04-26T09:07:11.286Z</time></trkpt><trkpt lat="42.3258643" lon="14.2980585"><ele>72.25</ele><time>2026-04-26T09:07:12.286Z</time></trkpt><trkpt lat="42.3257737" lon="14.2980113"><ele>73.5</ele><time>2026-04-26T09:07:13.289Z</time></trkpt><trkpt lat="42.3256652" lon="14.2980037"><ele>74.75</ele><time>2026-04-26T09:07:14.284Z</time></trkpt><trkpt lat="42.3255453" lon="14.2980357"><ele>76.0</ele><time>2026-04-26T09:07:15.283Z</time></trkpt><trkpt lat="42.3254138" lon="14.2980948"><ele>76.0</ele><time>2026-04-26T09:07:16.285Z</time></trkpt><trkpt lat="42.3252658" lon="14.2981702"><ele>76.0</ele><time>2026-04-26T09:07:17.285Z</time></trkpt><trkpt lat="42.3251047" lon="14.2982532"><ele>76.0</ele><time>2026-04-26T09:07:18.287Z</time></trkpt><trkpt lat="42.3249557" lon="14.2983318"><ele>76.0</ele><time>2026-04-26T09:07:19.289Z</time></trkpt><trkpt lat="42.3248292" lon="14.2983828"><ele>76.0</ele><time>2026-04-26T09:07:20.287Z</time></trkpt><trkpt lat="42.3247167" lon="14.298389"><ele>76.0</ele><time>2026-04-26T09:07:21.287Z</time></trkpt><trkpt lat="42.3246037" lon="14.2983523"><ele>76.0</ele><time>2026-04-26T09:07:22.288Z</time></trkpt><trkpt lat="42.3244845" lon="14.2982833"><ele>77.33333333333333</ele><time>2026-04-26T09:07:23.287Z</time></trkpt><trkpt lat="42.3243542" lon="14.2981913"><ele>78.66666666666667</ele><time>2026-04-26T09:07:24.287Z</time></trkpt><trkpt lat="42.324213" lon="14.2980882"><ele>80.0</ele><time>2026-04-26T09:07:25.286Z</time></trkpt><trkpt lat="42.3240708" lon="14.2979658"><ele>82.66666666666667</ele><time>2026-04-26T09:07:26.29Z</time></trkpt><trkpt lat="42.3239288" lon="14.2978235"><ele>85.33333333333333</ele><time>2026-04-26T09:07:27.288Z</time></trkpt><trkpt lat="42.3237845" lon="14.297688"><ele>88.0</ele><time>2026-04-26T09:07:28.287Z</time></trkpt><trkpt lat="42.3236302" lon="14.2975698"><ele>88.0</ele><time>2026-04-26T09:07:29.288Z</time></trkpt><trkpt lat="42.3234612" lon="14.297465"><ele>88.0</ele><time>2026-04-26T09:07:30.286Z</time></trkpt><trkpt lat="42.3232827" lon="14.2973587"><ele>88.0</ele><time>2026-04-26T09:07:31.286Z</time></trkpt><trkpt lat="42.3230992" lon="14.2972497"><ele>93.0</ele><time>2026-04-26T09:07:32.287Z</time></trkpt><trkpt lat="42.3229142" lon="14.2971468"><ele>98.0</ele><time>2026-04-26T09:07:33.288Z</time></trkpt><trkpt lat="42.3227317" lon="14.2970588"><ele>103.0</ele><time>2026-04-26T09:07:34.289Z</time></trkpt><trkpt lat="42.3225498" lon="14.2969863"><ele>103.0</ele><time>2026-04-26T09:07:35.287Z</time></trkpt><trkpt lat="42.322355" lon="14.296914"><ele>103.0</ele><time>2026-04-26T09:07:36.288Z</time></trkpt><trkpt lat="42.3221583" lon="14.2968428"><ele>103.0</ele><time>2026-04-26T09:07:37.287Z</time></trkpt><trkpt lat="42.3219665" lon="14.2967748"><ele>102.0</ele><time>2026-04-26T09:07:38.289Z</time></trkpt><trkpt lat="42.3217798" lon="14.2967028"><ele>101.0</ele><time>2026-04-26T09:07:39.285Z</time></trkpt><trkpt lat="42.3216093" lon="14.2966208"><ele>100.0</ele><time>2026-04-26T09:07:40.287Z</time></trkpt><trkpt lat="42.321452" lon="14.2965217"><ele>100.66666666666667</ele><time>2026-04-26T09:07:41.284Z</time></trkpt><trkpt lat="42.3213212" lon="14.2963927"><ele>101.33333333333334</ele><time>2026-04-26T09:07:42.287Z</time></trkpt><trkpt lat="42.3212008" lon="14.2962357"><ele>102.0</ele><time>2026-04-26T09:07:43.288Z</time></trkpt><trkpt lat="42.3210772" lon="14.2960723"><ele>102.0</ele><time>2026-04-26T09:07:44.286Z</time></trkpt><trkpt lat="42.3209422" lon="14.29594"><ele>102.0</ele><time>2026-04-26T09:07:45.288Z</time></trkpt><trkpt lat="42.3207883" lon="14.2958358"><ele>102.0</ele><time>2026-04-26T09:07:46.289Z</time></trkpt><trkpt lat="42.3206195" lon="14.2957427"><ele>100.33333333333334</ele><time>2026-04-26T09:07:47.29Z</time></trkpt><trkpt lat="42.3204418" lon="14.2956438"><ele>98.66666666666667</ele><time>2026-04-26T09:07:48.29Z</time></trkpt><trkpt lat="42.3202605" lon="14.2955443"><ele>97.0</ele><time>2026-04-26T09:07:49.29Z</time></trkpt><trkpt lat="42.3200893" lon="14.2954597"><ele>99.6</ele><time>2026-04-26T09:07:50.29Z</time></trkpt><trkpt lat="42.3199445" lon="14.2953907"><ele>102.19999999999999</ele><time>2026-04-26T09:07:51.289Z</time></trkpt><trkpt lat="42.3198423" lon="14.2953292"><ele>104.8</ele><time>2026-04-26T09:07:52.289Z</time></trkpt><trkpt lat="42.3197882" lon="14.295258"><ele>107.4</ele><time>2026-04-26T09:07:53.288Z</time></trkpt><trkpt lat="42.3197765" lon="14.2951657"><ele>110.0</ele><time>2026-04-26T09:07:54.29Z</time></trkpt><trkpt lat="42.3197893" lon="14.2950515"><ele>109.99999999999999</ele><time>2026-04-26T09:07:55.288Z</time></trkpt><trkpt lat="42.3197992" lon="14.2949243"><ele>110.0</ele><time>2026-04-26T09:07:56.288Z</time></trkpt><trkpt lat="42.3197838" lon="14.2948162"><ele>110.0</ele><time>2026-04-26T09:07:57.288Z</time></trkpt><trkpt lat="42.3197417" lon="14.2947507"><ele>110.0</ele><time>2026-04-26T09:07:58.288Z</time></trkpt><trkpt lat="42.3196388" lon="14.2947633"><ele>109.99999999999999</ele><time>2026-04-26T09:08:00.289Z</time></trkpt><trkpt lat="42.3195827" lon="14.294831"><ele>110.0</ele><time>2026-04-26T09:08:01.287Z</time></trkpt><trkpt lat="42.3195218" lon="14.2948848"><ele>110.0</ele><time>2026-04-26T09:08:02.287Z</time></trkpt><trkpt lat="42.3193942" lon="14.2948597"><ele>110.0</ele><time>2026-04-26T09:08:04.286Z</time></trkpt><trkpt lat="42.3193228" lon="14.2947793"><ele>110.0</ele><time>2026-04-26T09:08:05.287Z</time></trkpt><trkpt lat="42.3192535" lon="14.2946577"><ele>110.0</ele><time>2026-04-26T09:08:06.285Z</time></trkpt><trkpt lat="42.3191837" lon="14.294535"><ele>110.0</ele><time>2026-04-26T09:08:07.286Z</time></trkpt><trkpt lat="42.3190958" lon="14.2944302"><ele>110.0</ele><time>2026-04-26T09:08:08.289Z</time></trkpt><trkpt lat="42.3189965" lon="14.2943208"><ele>110.0</ele><time>2026-04-26T09:08:09.287Z</time></trkpt><trkpt lat="42.3189028" lon="14.294189"><ele>110.0</ele><time>2026-04-26T09:08:10.286Z</time></trkpt><trkpt lat="42.3188192" lon="14.2940353"><ele>109.5</ele><time>2026-04-26T09:08:11.287Z</time></trkpt><trkpt lat="42.3187375" lon="14.293869"><ele>109.0</ele><time>2026-04-26T09:08:12.287Z</time></trkpt><trkpt lat="42.3186658" lon="14.2937007"><ele>108.5</ele><time>2026-04-26T09:08:13.288Z</time></trkpt><trkpt lat="42.3186055" lon="14.2935462"><ele>108.0</ele><time>2026-04-26T09:08:14.286Z</time></trkpt><trkpt lat="42.3185412" lon="14.2934152"><ele>108.0</ele><time>2026-04-26T09:08:15.287Z</time></trkpt><trkpt lat="42.318458" lon="14.293308"><ele>108.0</ele><time>2026-04-26T09:08:16.287Z</time></trkpt><trkpt lat="42.318353" lon="14.2932235"><ele>108.0</ele><time>2026-04-26T09:08:17.286Z</time></trkpt><trkpt lat="42.318228" lon="14.2931428"><ele>108.0</ele><time>2026-04-26T09:08:18.287Z</time></trkpt><trkpt lat="42.318095" lon="14.2930577"><ele>108.5</ele><time>2026-04-26T09:08:19.288Z</time></trkpt><trkpt lat="42.317956" lon="14.2929747"><ele>109.0</ele><time>2026-04-26T09:08:20.286Z</time></trkpt><trkpt lat="42.3178223" lon="14.2929002"><ele>109.5</ele><time>2026-04-26T09:08:21.287Z</time></trkpt><trkpt lat="42.317702" lon="14.2928358"><ele>110.0</ele><time>2026-04-26T09:08:22.288Z</time></trkpt><trkpt lat="42.3175908" lon="14.2927723"><ele>110.0</ele><time>2026-04-26T09:08:23.287Z</time></trkpt><trkpt lat="42.3174903" lon="14.2926955"><ele>110.0</ele><time>2026-04-26T09:08:24.287Z</time></trkpt><trkpt lat="42.3173998" lon="14.292631"><ele>110.0</ele><time>2026-04-26T09:08:25.287Z</time></trkpt><trkpt lat="42.317299" lon="14.2926"><ele>110.0</ele><time>2026-04-26T09:08:26.286Z</time></trkpt><trkpt lat="42.3171827" lon="14.2926037"><ele>110.0</ele><time>2026-04-26T09:08:27.286Z</time></trkpt><trkpt lat="42.3170533" lon="14.2926307"><ele>107.5</ele><time>2026-04-26T09:08:28.283Z</time></trkpt><trkpt lat="42.3169155" lon="14.292651"><ele>105.0</ele><time>2026-04-26T09:08:29.285Z</time></trkpt><trkpt lat="42.3167657" lon="14.2926487"><ele>102.5</ele><time>2026-04-26T09:08:30.285Z</time></trkpt><trkpt lat="42.3166123" lon="14.2926282"><ele>100.0</ele><time>2026-04-26T09:08:31.284Z</time></trkpt><trkpt lat="42.3164727" lon="14.2925952"><ele>100.5</ele><time>2026-04-26T09:08:32.287Z</time></trkpt><trkpt lat="42.3163415" lon="14.2925358"><ele>101.0</ele><time>2026-04-26T09:08:33.29Z</time></trkpt><trkpt lat="42.3162122" lon="14.2924385"><ele>101.5</ele><time>2026-04-26T09:08:34.288Z</time></trkpt><trkpt lat="42.3160803" lon="14.292323"><ele>102.0</ele><time>2026-04-26T09:08:35.289Z</time></trkpt><trkpt lat="42.3159462" lon="14.2922207"><ele>102.0</ele><time>2026-04-26T09:08:36.288Z</time></trkpt><trkpt lat="42.3157977" lon="14.2921408"><ele>102.0</ele><time>2026-04-26T09:08:37.289Z</time></trkpt><trkpt lat="42.3156362" lon="14.2920735"><ele>102.0</ele><time>2026-04-26T09:08:38.287Z</time></trkpt><trkpt lat="42.3154647" lon="14.2920185"><ele>97.33333333333333</ele><time>2026-04-26T09:08:39.287Z</time></trkpt><trkpt lat="42.3152862" lon="14.2919715"><ele>92.66666666666666</ele><time>2026-04-26T09:08:40.287Z</time></trkpt><trkpt lat="42.315106" lon="14.2919198"><ele>88.0</ele><time>2026-04-26T09:08:41.288Z</time></trkpt><trkpt lat="42.3149202" lon="14.2918702"><ele>87.0</ele><time>2026-04-26T09:08:42.289Z</time></trkpt><trkpt lat="42.3147275" lon="14.291822"><ele>86.0</ele><time>2026-04-26T09:08:43.29Z</time></trkpt><trkpt lat="42.3145288" lon="14.291777"><ele>85.0</ele><time>2026-04-26T09:08:44.289Z</time></trkpt><trkpt lat="42.314326" lon="14.2917407"><ele>85.0</ele><time>2026-04-26T09:08:45.287Z</time></trkpt><trkpt lat="42.3141258" lon="14.2917167"><ele>85.0</ele><time>2026-04-26T09:08:46.286Z</time></trkpt><trkpt lat="42.3139425" lon="14.2917033"><ele>85.0</ele><time>2026-04-26T09:08:47.288Z</time></trkpt><trkpt lat="42.3137855" lon="14.291685"><ele>85.5</ele><time>2026-04-26T09:08:48.287Z</time></trkpt><trkpt lat="42.3136562" lon="14.2916442"><ele>86.0</ele><time>2026-04-26T09:08:49.286Z</time></trkpt><trkpt lat="42.3135437" lon="14.2915775"><ele>86.5</ele><time>2026-04-26T09:08:50.287Z</time></trkpt><trkpt lat="42.3134388" lon="14.2914747"><ele>87.0</ele><time>2026-04-26T09:08:51.289Z</time></trkpt><trkpt lat="42.3133505" lon="14.2913587"><ele>87.0</ele><time>2026-04-26T09:08:52.285Z</time></trkpt><trkpt lat="42.3132988" lon="14.2912792"><ele>87.0</ele><time>2026-04-26T09:08:53.285Z</time></trkpt><trkpt lat="42.3132443" lon="14.2912188"><ele>87.0</ele><time>2026-04-26T09:08:55.285Z</time></trkpt><trkpt lat="42.3132975" lon="14.2912848"><ele>87.0</ele><time>2026-04-26T09:09:03.287Z</time></trkpt><trkpt lat="42.3133483" lon="14.2913617"><ele>87.0</ele><time>2026-04-26T09:09:04.286Z</time></trkpt><trkpt lat="42.3134057" lon="14.2914522"><ele>87.0</ele><time>2026-04-26T09:09:05.286Z</time></trkpt><trkpt lat="42.3134685" lon="14.291526"><ele>87.0</ele><time>2026-04-26T09:09:06.287Z</time></trkpt><trkpt lat="42.3135345" lon="14.2915877"><ele>87.0</ele><time>2026-04-26T09:09:07.288Z</time></trkpt><trkpt lat="42.3136023" lon="14.2916318"><ele>87.0</ele><time>2026-04-26T09:09:08.287Z</time></trkpt><trkpt lat="42.3136872" lon="14.291712"><ele>87.0</ele><time>2026-04-26T09:09:10.287Z</time></trkpt><trkpt lat="42.3136278" lon="14.2918008"><ele>87.0</ele><time>2026-04-26T09:09:13.29Z</time></trkpt><trkpt lat="42.313483" lon="14.291796"><ele>87.0</ele><time>2026-04-26T09:09:15.287Z</time></trkpt><trkpt lat="42.3133803" lon="14.2917847"><ele>87.0</ele><time>2026-04-26T09:09:16.288Z</time></trkpt><trkpt lat="42.3132672" lon="14.2917778"><ele>87.0</ele><time>2026-04-26T09:09:17.286Z</time></trkpt><trkpt lat="42.3131718" lon="14.2917967"><ele>87.0</ele><time>2026-04-26T09:09:18.286Z</time></trkpt><trkpt lat="42.3131075" lon="14.2918117"><ele>87.0</ele><time>2026-04-26T09:09:19.286Z</time></trkpt><trkpt lat="42.3130107" lon="14.2917983"><ele>87.19999999999999</ele><time>2026-04-26T09:09:21.29Z</time></trkpt><trkpt lat="42.3129512" lon="14.2917662"><ele>87.4</ele><time>2026-04-26T09:09:22.288Z</time></trkpt><trkpt lat="42.3128673" lon="14.2916587"><ele>87.6</ele><time>2026-04-26T09:09:24.287Z</time></trkpt><trkpt lat="42.3128795" lon="14.29156"><ele>87.80000000000001</ele><time>2026-04-26T09:09:31.29Z</time></trkpt><trkpt lat="42.312836" lon="14.2914227"><ele>88.0</ele><time>2026-04-26T09:09:34.29Z</time></trkpt><trkpt lat="42.312791" lon="14.291279"><ele>91.0</ele><time>2026-04-26T09:09:36.288Z</time></trkpt><trkpt lat="42.3123732" lon="14.2910665"><ele>94.0</ele><time>2026-04-26T09:09:43.285Z</time></trkpt><trkpt lat="42.3122833" lon="14.2911053"><ele>94.33333333333333</ele><time>2026-04-26T09:09:44.287Z</time></trkpt><trkpt lat="42.3120182" lon="14.2912453"><ele>94.66666666666667</ele><time>2026-04-26T09:09:48.286Z</time></trkpt><trkpt lat="42.3119537" lon="14.2912648"><ele>95.0</ele><time>2026-04-26T09:09:49.287Z</time></trkpt><trkpt lat="42.3116667" lon="14.2912907"><ele>95.0</ele><time>2026-04-26T09:09:54.286Z</time></trkpt><trkpt lat="42.3116113" lon="14.2913358"><ele>95.0</ele><time>2026-04-26T09:09:55.286Z</time></trkpt><trkpt lat="42.3115387" lon="14.291395"><ele>95.0</ele><time>2026-04-26T09:09:56.288Z</time></trkpt><trkpt lat="42.3114515" lon="14.2914283"><ele>95.0</ele><time>2026-04-26T09:09:57.284Z</time></trkpt><trkpt lat="42.3113457" lon="14.291436"><ele>95.0</ele><time>2026-04-26T09:09:58.287Z</time></trkpt><trkpt lat="42.3112402" lon="14.2913823"><ele>95.75</ele><time>2026-04-26T09:09:59.285Z</time></trkpt><trkpt lat="42.3111485" lon="14.2912757"><ele>96.5</ele><time>2026-04-26T09:10:00.285Z</time></trkpt><trkpt lat="42.311064" lon="14.29115"><ele>97.25</ele><time>2026-04-26T09:10:01.286Z</time></trkpt><trkpt lat="42.3109802" lon="14.291033"><ele>98.0</ele><time>2026-04-26T09:10:02.286Z</time></trkpt><trkpt lat="42.3108773" lon="14.29093"><ele>98.0</ele><time>2026-04-26T09:10:03.287Z</time></trkpt><trkpt lat="42.310768" lon="14.2908565"><ele>98.0</ele><time>2026-04-26T09:10:04.289Z</time></trkpt><trkpt lat="42.3106475" lon="14.2908043"><ele>98.0</ele><time>2026-04-26T09:10:05.286Z</time></trkpt><trkpt lat="42.3105268" lon="14.2907578"><ele>98.0</ele><time>2026-04-26T09:10:06.285Z</time></trkpt><trkpt lat="42.3104008" lon="14.2907205"><ele>100.5</ele><time>2026-04-26T09:10:07.286Z</time></trkpt><trkpt lat="42.310268" lon="14.2907023"><ele>103.0</ele><time>2026-04-26T09:10:08.284Z</time></trkpt><trkpt lat="42.3101293" lon="14.2906982"><ele>105.5</ele><time>2026-04-26T09:10:09.285Z</time></trkpt><trkpt lat="42.3100045" lon="14.2906948"><ele>108.0</ele><time>2026-04-26T09:10:10.286Z</time></trkpt><trkpt lat="42.3098823" lon="14.2906772"><ele>108.0</ele><time>2026-04-26T09:10:11.286Z</time></trkpt><trkpt lat="42.3097703" lon="14.2906378"><ele>108.00000000000001</ele><time>2026-04-26T09:10:12.287Z</time></trkpt><trkpt lat="42.309698" lon="14.2906053"><ele>108.00000000000001</ele><time>2026-04-26T09:10:13.287Z</time></trkpt><trkpt lat="42.3096088" lon="14.2906175"><ele>108.0</ele><time>2026-04-26T09:10:15.287Z</time></trkpt><trkpt lat="42.3095045" lon="14.2907328"><ele>108.0</ele><time>2026-04-26T09:10:17.288Z</time></trkpt><trkpt lat="42.3094383" lon="14.2908255"><ele>109.75</ele><time>2026-04-26T09:10:18.29Z</time></trkpt><trkpt lat="42.309363" lon="14.2909233"><ele>111.5</ele><time>2026-04-26T09:10:19.289Z</time></trkpt><trkpt lat="42.3092735" lon="14.2910133"><ele>113.25</ele><time>2026-04-26T09:10:20.287Z</time></trkpt><trkpt lat="42.3091748" lon="14.291094"><ele>115.0</ele><time>2026-04-26T09:10:21.289Z</time></trkpt><trkpt lat="42.309063" lon="14.2911715"><ele>115.0</ele><time>2026-04-26T09:10:22.289Z</time></trkpt><trkpt lat="42.3089402" lon="14.2912452"><ele>115.0</ele><time>2026-04-26T09:10:23.287Z</time></trkpt><trkpt lat="42.3088055" lon="14.2913033"><ele>115.0</ele><time>2026-04-26T09:10:24.291Z</time></trkpt><trkpt lat="42.3086792" lon="14.2913625"><ele>115.0</ele><time>2026-04-26T09:10:25.288Z</time></trkpt><trkpt lat="42.3085653" lon="14.2914435"><ele>114.5</ele><time>2026-04-26T09:10:26.288Z</time></trkpt><trkpt lat="42.3084612" lon="14.2915512"><ele>114.0</ele><time>2026-04-26T09:10:27.289Z</time></trkpt><trkpt lat="42.3083557" lon="14.291676"><ele>113.5</ele><time>2026-04-26T09:10:28.288Z</time></trkpt><trkpt lat="42.3082485" lon="14.2918047"><ele>113.0</ele><time>2026-04-26T09:10:29.288Z</time></trkpt><trkpt lat="42.308143" lon="14.2919167"><ele>115.75</ele><time>2026-04-26T09:10:30.288Z</time></trkpt><trkpt lat="42.3080323" lon="14.2919987"><ele>118.5</ele><time>2026-04-26T09:10:31.286Z</time></trkpt><trkpt lat="42.307909" lon="14.2920553"><ele>121.25</ele><time>2026-04-26T09:10:32.29Z</time></trkpt><trkpt lat="42.3077767" lon="14.2921062"><ele>124.0</ele><time>2026-04-26T09:10:33.287Z</time></trkpt><trkpt lat="42.3076392" lon="14.292163"><ele>124.0</ele><time>2026-04-26T09:10:34.289Z</time></trkpt><trkpt lat="42.307503" lon="14.2922283"><ele>124.0</ele><time>2026-04-26T09:10:35.286Z</time></trkpt><trkpt lat="42.3073748" lon="14.2922828"><ele>124.0</ele><time>2026-04-26T09:10:36.289Z</time></trkpt><trkpt lat="42.3072413" lon="14.2923237"><ele>124.0</ele><time>2026-04-26T09:10:37.286Z</time></trkpt><trkpt lat="42.3071012" lon="14.2923493"><ele>121.75</ele><time>2026-04-26T09:10:38.287Z</time></trkpt><trkpt lat="42.3069652" lon="14.2923682"><ele>119.5</ele><time>2026-04-26T09:10:39.29Z</time></trkpt><trkpt lat="42.3068445" lon="14.2923985"><ele>117.25</ele><time>2026-04-26T09:10:40.291Z</time></trkpt><trkpt lat="42.306715" lon="14.292444"><ele>115.0</ele><time>2026-04-26T09:10:41.287Z</time></trkpt><trkpt lat="42.3065765" lon="14.2924983"><ele>115.0</ele><time>2026-04-26T09:10:42.288Z</time></trkpt><trkpt lat="42.3064388" lon="14.292553"><ele>115.0</ele><time>2026-04-26T09:10:43.288Z</time></trkpt><trkpt lat="42.3063082" lon="14.2925908"><ele>115.0</ele><time>2026-04-26T09:10:44.289Z</time></trkpt><trkpt lat="42.3061755" lon="14.2926043"><ele>115.0</ele><time>2026-04-26T09:10:45.288Z</time></trkpt><trkpt lat="42.3060372" lon="14.2925995"><ele>116.33333333333334</ele><time>2026-04-26T09:10:46.291Z</time></trkpt><trkpt lat="42.3058913" lon="14.2925873"><ele>117.66666666666666</ele><time>2026-04-26T09:10:47.287Z</time></trkpt><trkpt lat="42.3057407" lon="14.2925742"><ele>119.0</ele><time>2026-04-26T09:10:48.288Z</time></trkpt><trkpt lat="42.3055848" lon="14.2925552"><ele>119.75</ele><time>2026-04-26T09:10:49.289Z</time></trkpt><trkpt lat="42.3054348" lon="14.2925318"><ele>120.5</ele><time>2026-04-26T09:10:50.286Z</time></trkpt><trkpt lat="42.3052927" lon="14.2925072"><ele>121.25</ele><time>2026-04-26T09:10:51.287Z</time></trkpt><trkpt lat="42.3051533" lon="14.292493"><ele>122.0</ele><time>2026-04-26T09:10:52.287Z</time></trkpt><trkpt lat="42.3050283" lon="14.2924997"><ele>122.0</ele><time>2026-04-26T09:10:53.287Z</time></trkpt><trkpt lat="42.3049305" lon="14.292527"><ele>121.99999999999999</ele><time>2026-04-26T09:10:54.289Z</time></trkpt><trkpt lat="42.3048598" lon="14.2925718"><ele>121.99999999999999</ele><time>2026-04-26T09:10:55.284Z</time></trkpt><trkpt lat="42.3047845" lon="14.292644"><ele>122.0</ele><time>2026-04-26T09:10:56.284Z</time></trkpt><trkpt lat="42.304687" lon="14.2927432"><ele>122.0</ele><time>2026-04-26T09:10:57.284Z</time></trkpt><trkpt lat="42.3045717" lon="14.2928405"><ele>121.66666666666666</ele><time>2026-04-26T09:10:58.284Z</time></trkpt><trkpt lat="42.3044287" lon="14.2929102"><ele>121.33333333333334</ele><time>2026-04-26T09:10:59.285Z</time></trkpt><trkpt lat="42.304264" lon="14.2929597"><ele>121.0</ele><time>2026-04-26T09:11:00.286Z</time></trkpt><trkpt lat="42.3040907" lon="14.2929932"><ele>121.0</ele><time>2026-04-26T09:11:01.287Z</time></trkpt><trkpt lat="42.3039192" lon="14.2930093"><ele>121.0</ele><time>2026-04-26T09:11:02.287Z</time></trkpt><trkpt lat="42.3037408" lon="14.2930068"><ele>121.0</ele><time>2026-04-26T09:11:03.287Z</time></trkpt><trkpt lat="42.3035492" lon="14.2929965"><ele>119.33333333333334</ele><time>2026-04-26T09:11:04.288Z</time></trkpt><trkpt lat="42.303352" lon="14.2929813"><ele>117.66666666666666</ele><time>2026-04-26T09:11:05.286Z</time></trkpt><trkpt lat="42.3031523" lon="14.2929565"><ele>116.0</ele><time>2026-04-26T09:11:06.287Z</time></trkpt><trkpt lat="42.302951" lon="14.2929237"><ele>116.0</ele><time>2026-04-26T09:11:07.287Z</time></trkpt><trkpt lat="42.3027463" lon="14.2928895"><ele>116.0</ele><time>2026-04-26T09:11:08.287Z</time></trkpt><trkpt lat="42.3025343" lon="14.2928623"><ele>116.0</ele><time>2026-04-26T09:11:09.288Z</time></trkpt><trkpt lat="42.3023143" lon="14.2928292"><ele>116.33333333333333</ele><time>2026-04-26T09:11:10.287Z</time></trkpt><trkpt lat="42.30209" lon="14.2927943"><ele>116.66666666666666</ele><time>2026-04-26T09:11:11.287Z</time></trkpt><trkpt lat="42.3018787" lon="14.2927672"><ele>117.0</ele><time>2026-04-26T09:11:12.286Z</time></trkpt><trkpt lat="42.3016727" lon="14.2927397"><ele>117.0</ele><time>2026-04-26T09:11:13.287Z</time></trkpt><trkpt lat="42.3014703" lon="14.2927008"><ele>117.0</ele><time>2026-04-26T09:11:14.286Z</time></trkpt><trkpt lat="42.301273" lon="14.2926467"><ele>117.0</ele><time>2026-04-26T09:11:15.288Z</time></trkpt><trkpt lat="42.3010893" lon="14.292592"><ele>118.0</ele><time>2026-04-26T09:11:16.288Z</time></trkpt><trkpt lat="42.3009073" lon="14.2925547"><ele>119.0</ele><time>2026-04-26T09:11:17.287Z</time></trkpt><trkpt lat="42.3007347" lon="14.2925422"><ele>120.0</ele><time>2026-04-26T09:11:18.288Z</time></trkpt><trkpt lat="42.3005765" lon="14.2925467"><ele>120.25</ele><time>2026-04-26T09:11:19.286Z</time></trkpt><trkpt lat="42.3004408" lon="14.2925417"><ele>120.5</ele><time>2026-04-26T09:11:20.287Z</time></trkpt><trkpt lat="42.3003202" lon="14.2925075"><ele>120.75</ele><time>2026-04-26T09:11:21.285Z</time></trkpt><trkpt lat="42.300203" lon="14.2924413"><ele>121.0</ele><time>2026-04-26T09:11:22.287Z</time></trkpt><trkpt lat="42.300089" lon="14.29235"><ele>123.19999999999999</ele><time>2026-04-26T09:11:23.286Z</time></trkpt><trkpt lat="42.2999845" lon="14.2922522"><ele>125.39999999999999</ele><time>2026-04-26T09:11:24.291Z</time></trkpt><trkpt lat="42.2999008" lon="14.292171"><ele>127.6</ele><time>2026-04-26T09:11:25.286Z</time></trkpt><trkpt lat="42.2998468" lon="14.292125"><ele>129.79999999999998</ele><time>2026-04-26T09:11:26.288Z</time></trkpt><trkpt lat="42.2997315" lon="14.292111"><ele>132.0</ele><time>2026-04-26T09:11:28.288Z</time></trkpt><trkpt lat="42.2996358" lon="14.2921325"><ele>132.25</ele><time>2026-04-26T09:11:29.287Z</time></trkpt><trkpt lat="42.2995195" lon="14.2921607"><ele>132.5</ele><time>2026-04-26T09:11:30.287Z</time></trkpt><trkpt lat="42.2993845" lon="14.2921643"><ele>132.75</ele><time>2026-04-26T09:11:31.288Z</time></trkpt><trkpt lat="42.2992292" lon="14.292146"><ele>133.0</ele><time>2026-04-26T09:11:32.288Z</time></trkpt><trkpt lat="42.2990588" lon="14.2921248"><ele>133.33333333333334</ele><time>2026-04-26T09:11:33.288Z</time></trkpt><trkpt lat="42.2988767" lon="14.2921183"><ele>133.66666666666666</ele><time>2026-04-26T09:11:34.288Z</time></trkpt><trkpt lat="42.2986883" lon="14.2921248"><ele>134.0</ele><time>2026-04-26T09:11:35.287Z</time></trkpt><trkpt lat="42.2985002" lon="14.2921378"><ele>134.0</ele><time>2026-04-26T09:11:36.289Z</time></trkpt><trkpt lat="42.2983273" lon="14.2921533"><ele>134.0</ele><time>2026-04-26T09:11:37.286Z</time></trkpt><trkpt lat="42.2981865" lon="14.2921707"><ele>134.0</ele><time>2026-04-26T09:11:38.287Z</time></trkpt><trkpt lat="42.2980857" lon="14.2921923"><ele>134.0</ele><time>2026-04-26T09:11:39.285Z</time></trkpt><trkpt lat="42.2980148" lon="14.2922392"><ele>131.2</ele><time>2026-04-26T09:11:40.288Z</time></trkpt><trkpt lat="42.2979663" lon="14.2923243"><ele>128.4</ele><time>2026-04-26T09:11:41.287Z</time></trkpt><trkpt lat="42.2979397" lon="14.2924465"><ele>125.6</ele><time>2026-04-26T09:11:42.29Z</time></trkpt><trkpt lat="42.2979278" lon="14.2925987"><ele>122.8</ele><time>2026-04-26T09:11:43.288Z</time></trkpt><trkpt lat="42.2979215" lon="14.2927453"><ele>120.0</ele><time>2026-04-26T09:11:44.285Z</time></trkpt><trkpt lat="42.2979187" lon="14.2928637"><ele>120.0</ele><time>2026-04-26T09:11:45.287Z</time></trkpt><trkpt lat="42.2978992" lon="14.2930052"><ele>120.0</ele><time>2026-04-26T09:11:47.286Z</time></trkpt><trkpt lat="42.297817" lon="14.292975"><ele>120.0</ele><time>2026-04-26T09:11:50.287Z</time></trkpt><trkpt lat="42.2977618" lon="14.2929155"><ele>120.0</ele><time>2026-04-26T09:11:51.287Z</time></trkpt><trkpt lat="42.2976883" lon="14.2928355"><ele>120.0</ele><time>2026-04-26T09:11:52.287Z</time></trkpt><trkpt lat="42.2975983" lon="14.2927373"><ele>120.0</ele><time>2026-04-26T09:11:53.288Z</time></trkpt><trkpt lat="42.2974942" lon="14.2926297"><ele>120.0</ele><time>2026-04-26T09:11:54.291Z</time></trkpt><trkpt lat="42.2973805" lon="14.2925173"><ele>120.0</ele><time>2026-04-26T09:11:55.29Z</time></trkpt><trkpt lat="42.29726" lon="14.2924042"><ele>120.0</ele><time>2026-04-26T09:11:56.287Z</time></trkpt><trkpt lat="42.2971335" lon="14.2922882"><ele>125.0</ele><time>2026-04-26T09:11:57.286Z</time></trkpt><trkpt lat="42.2970173" lon="14.2921712"><ele>130.0</ele><time>2026-04-26T09:11:58.286Z</time></trkpt><trkpt lat="42.2968943" lon="14.2920548"><ele>135.0</ele><time>2026-04-26T09:11:59.286Z</time></trkpt><trkpt lat="42.2967523" lon="14.2919408"><ele>135.0</ele><time>2026-04-26T09:12:00.289Z</time></trkpt><trkpt lat="42.296601" lon="14.2918338"><ele>135.0</ele><time>2026-04-26T09:12:01.287Z</time></trkpt><trkpt lat="42.2964675" lon="14.291743"><ele>135.0</ele><time>2026-04-26T09:12:02.287Z</time></trkpt><trkpt lat="42.2963565" lon="14.2916802"><ele>135.0</ele><time>2026-04-26T09:12:03.289Z</time></trkpt><trkpt lat="42.2962718" lon="14.2916295"><ele>134.66666666666666</ele><time>2026-04-26T09:12:04.289Z</time></trkpt><trkpt lat="42.2962272" lon="14.2915507"><ele>134.33333333333334</ele><time>2026-04-26T09:12:07.288Z</time></trkpt><trkpt lat="42.296243" lon="14.2914307"><ele>134.0</ele><time>2026-04-26T09:12:09.286Z</time></trkpt><trkpt lat="42.2962665" lon="14.2913507"><ele>133.66666666666669</ele><time>2026-04-26T09:12:10.285Z</time></trkpt><trkpt lat="42.296297" lon="14.2912488"><ele>133.33333333333334</ele><time>2026-04-26T09:12:11.284Z</time></trkpt><trkpt lat="42.2963348" lon="14.291123"><ele>133.0</ele><time>2026-04-26T09:12:12.287Z</time></trkpt><trkpt lat="42.2963743" lon="14.2909818"><ele>133.0</ele><time>2026-04-26T09:12:13.288Z</time></trkpt><trkpt lat="42.2964175" lon="14.2908295"><ele>133.0</ele><time>2026-04-26T09:12:14.286Z</time></trkpt><trkpt lat="42.2964702" lon="14.2906707"><ele>133.0</ele><time>2026-04-26T09:12:15.286Z</time></trkpt><trkpt lat="42.296536" lon="14.290525"><ele>133.0</ele><time>2026-04-26T09:12:16.286Z</time></trkpt><trkpt lat="42.2966143" lon="14.290396"><ele>139.0</ele><time>2026-04-26T09:12:17.286Z</time></trkpt><trkpt lat="42.2966827" lon="14.2902657"><ele>145.0</ele><time>2026-04-26T09:12:18.286Z</time></trkpt><trkpt lat="42.296727" lon="14.2901508"><ele>151.0</ele><time>2026-04-26T09:12:19.286Z</time></trkpt><trkpt lat="42.2967713" lon="14.2900252"><ele>157.0</ele><time>2026-04-26T09:12:20.289Z</time></trkpt><trkpt lat="42.2968253" lon="14.289909"><ele>163.0</ele><time>2026-04-26T09:12:21.286Z</time></trkpt><trkpt lat="42.2968878" lon="14.2898032"><ele>165.60000000000002</ele><time>2026-04-26T09:12:22.285Z</time></trkpt><trkpt lat="42.2969525" lon="14.2896898"><ele>168.20000000000002</ele><time>2026-04-26T09:12:23.285Z</time></trkpt><trkpt lat="42.297016" lon="14.2895763"><ele>170.8</ele><time>2026-04-26T09:12:24.286Z</time></trkpt><trkpt lat="42.2970683" lon="14.289462"><ele>173.4</ele><time>2026-04-26T09:12:25.285Z</time></trkpt><trkpt lat="42.2971188" lon="14.2893377"><ele>176.0</ele><time>2026-04-26T09:12:26.284Z</time></trkpt><trkpt lat="42.2971748" lon="14.2892168"><ele>176.0</ele><time>2026-04-26T09:12:27.286Z</time></trkpt><trkpt lat="42.2972395" lon="14.2891137"><ele>176.0</ele><time>2026-04-26T09:12:28.286Z</time></trkpt><trkpt lat="42.2973143" lon="14.2890483"><ele>176.0</ele><time>2026-04-26T09:12:30.286Z</time></trkpt><trkpt lat="42.2973915" lon="14.2890837"><ele>176.0</ele><time>2026-04-26T09:12:32.286Z</time></trkpt><trkpt lat="42.29748" lon="14.2890898"><ele>176.0</ele><time>2026-04-26T09:12:34.285Z</time></trkpt><trkpt lat="42.2974452" lon="14.2890055"><ele>176.0</ele><time>2026-04-26T09:12:38.287Z</time></trkpt><trkpt lat="42.2973092" lon="14.288942"><ele>179.25</ele><time>2026-04-26T09:12:40.286Z</time></trkpt><trkpt lat="42.2972118" lon="14.2888818"><ele>182.5</ele><time>2026-04-26T09:12:41.287Z</time></trkpt><trkpt lat="42.2970935" lon="14.2888287"><ele>185.75</ele><time>2026-04-26T09:12:42.287Z</time></trkpt><trkpt lat="42.2969647" lon="14.2887837"><ele>189.0</ele><time>2026-04-26T09:12:43.287Z</time></trkpt><trkpt lat="42.2968227" lon="14.2887415"><ele>189.0</ele><time>2026-04-26T09:12:44.287Z</time></trkpt><trkpt lat="42.2966755" lon="14.288697"><ele>189.0</ele><time>2026-04-26T09:12:45.286Z</time></trkpt><trkpt lat="42.2965255" lon="14.2886627"><ele>189.0</ele><time>2026-04-26T09:12:46.288Z</time></trkpt><trkpt lat="42.2963788" lon="14.2886467"><ele>184.25</ele><time>2026-04-26T09:12:47.286Z</time></trkpt><trkpt lat="42.2962435" lon="14.2886312"><ele>179.5</ele><time>2026-04-26T09:12:48.285Z</time></trkpt><trkpt lat="42.2961175" lon="14.2885913"><ele>174.75</ele><time>2026-04-26T09:12:49.287Z</time></trkpt><trkpt lat="42.2960035" lon="14.2885188"><ele>170.0</ele><time>2026-04-26T09:12:50.287Z</time></trkpt><trkpt lat="42.2958943" lon="14.2884123"><ele>170.0</ele><time>2026-04-26T09:12:51.287Z</time></trkpt><trkpt lat="42.2958038" lon="14.2882798"><ele>170.0</ele><time>2026-04-26T09:12:52.287Z</time></trkpt><trkpt lat="42.2957335" lon="14.288132"><ele>170.0</ele><time>2026-04-26T09:12:53.286Z</time></trkpt><trkpt lat="42.2956667" lon="14.2879947"><ele>170.0</ele><time>2026-04-26T09:12:54.289Z</time></trkpt><trkpt lat="42.2955872" lon="14.287883"><ele>166.0</ele><time>2026-04-26T09:12:55.287Z</time></trkpt><trkpt lat="42.2954945" lon="14.2878055"><ele>162.0</ele><time>2026-04-26T09:12:56.287Z</time></trkpt><trkpt lat="42.2953997" lon="14.287742"><ele>158.0</ele><time>2026-04-26T09:12:57.286Z</time></trkpt><trkpt lat="42.2953097" lon="14.2876538"><ele>154.0</ele><time>2026-04-26T09:12:58.283Z</time></trkpt><trkpt lat="42.2952208" lon="14.2875358"><ele>154.0</ele><time>2026-04-26T09:12:59.287Z</time></trkpt><trkpt lat="42.2951218" lon="14.2874055"><ele>154.0</ele><time>2026-04-26T09:13:00.285Z</time></trkpt><trkpt lat="42.295023" lon="14.2872733"><ele>154.0</ele><time>2026-04-26T09:13:01.285Z</time></trkpt><trkpt lat="42.2949345" lon="14.2871272"><ele>154.0</ele><time>2026-04-26T09:13:02.286Z</time></trkpt><trkpt lat="42.2948572" lon="14.2869567"><ele>152.33333333333334</ele><time>2026-04-26T09:13:03.287Z</time></trkpt><trkpt lat="42.2947902" lon="14.2867705"><ele>150.66666666666666</ele><time>2026-04-26T09:13:04.288Z</time></trkpt><trkpt lat="42.2947167" lon="14.2865853"><ele>149.0</ele><time>2026-04-26T09:13:05.287Z</time></trkpt><trkpt lat="42.2946323" lon="14.28641"><ele>149.0</ele><time>2026-04-26T09:13:06.286Z</time></trkpt><trkpt lat="42.2945482" lon="14.2862518"><ele>149.0</ele><time>2026-04-26T09:13:07.288Z</time></trkpt><trkpt lat="42.2944583" lon="14.2861213"><ele>149.0</ele><time>2026-04-26T09:13:08.286Z</time></trkpt><trkpt lat="42.2943473" lon="14.286014"><ele>149.0</ele><time>2026-04-26T09:13:09.286Z</time></trkpt><trkpt lat="42.2942207" lon="14.2859133"><ele>149.0</ele><time>2026-04-26T09:13:10.284Z</time></trkpt><trkpt lat="42.2940963" lon="14.285822"><ele>149.0</ele><time>2026-04-26T09:13:11.286Z</time></trkpt><trkpt lat="42.2939887" lon="14.2857463"><ele>149.0</ele><time>2026-04-26T09:13:12.285Z</time></trkpt><trkpt lat="42.2938835" lon="14.2856735"><ele>149.0</ele><time>2026-04-26T09:13:13.285Z</time></trkpt><trkpt lat="42.2937823" lon="14.2855925"><ele>147.5</ele><time>2026-04-26T09:13:14.287Z</time></trkpt><trkpt lat="42.293683" lon="14.2854938"><ele>146.0</ele><time>2026-04-26T09:13:15.286Z</time></trkpt><trkpt lat="42.2935855" lon="14.285391"><ele>144.5</ele><time>2026-04-26T09:13:16.284Z</time></trkpt><trkpt lat="42.29349" lon="14.2852943"><ele>143.0</ele><time>2026-04-26T09:13:17.285Z</time></trkpt><trkpt lat="42.2934028" lon="14.285191"><ele>143.0</ele><time>2026-04-26T09:13:18.286Z</time></trkpt><trkpt lat="42.2933247" lon="14.2850993"><ele>143.0</ele><time>2026-04-26T09:13:19.284Z</time></trkpt><trkpt lat="42.2932422" lon="14.2850238"><ele>143.0</ele><time>2026-04-26T09:13:20.285Z</time></trkpt><trkpt lat="42.2931487" lon="14.2849615"><ele>143.0</ele><time>2026-04-26T09:13:21.284Z</time></trkpt><trkpt lat="42.2930427" lon="14.2848945"><ele>143.0</ele><time>2026-04-26T09:13:22.282Z</time></trkpt><trkpt lat="42.2929375" lon="14.2848257"><ele>141.0</ele><time>2026-04-26T09:13:23.283Z</time></trkpt><trkpt lat="42.2928217" lon="14.2847588"><ele>139.0</ele><time>2026-04-26T09:13:24.282Z</time></trkpt><trkpt lat="42.2927102" lon="14.2846903"><ele>137.0</ele><time>2026-04-26T09:13:25.282Z</time></trkpt><trkpt lat="42.292608" lon="14.2846032"><ele>135.0</ele><time>2026-04-26T09:13:26.284Z</time></trkpt><trkpt lat="42.292513" lon="14.2844938"><ele>135.0</ele><time>2026-04-26T09:13:27.285Z</time></trkpt><trkpt lat="42.2924142" lon="14.2843668"><ele>135.0</ele><time>2026-04-26T09:13:28.286Z</time></trkpt><trkpt lat="42.2923143" lon="14.2842333"><ele>135.0</ele><time>2026-04-26T09:13:29.285Z</time></trkpt><trkpt lat="42.29222" lon="14.2840932"><ele>135.0</ele><time>2026-04-26T09:13:30.286Z</time></trkpt><trkpt lat="42.2921293" lon="14.2839513"><ele>137.75</ele><time>2026-04-26T09:13:31.284Z</time></trkpt><trkpt lat="42.292035" lon="14.2838315"><ele>140.5</ele><time>2026-04-26T09:13:32.284Z</time></trkpt><trkpt lat="42.2919482" lon="14.2837408"><ele>143.25</ele><time>2026-04-26T09:13:33.284Z</time></trkpt><trkpt lat="42.291855" lon="14.2836515"><ele>146.0</ele><time>2026-04-26T09:13:34.285Z</time></trkpt><trkpt lat="42.2917592" lon="14.283555"><ele>146.0</ele><time>2026-04-26T09:13:35.287Z</time></trkpt><trkpt lat="42.2916607" lon="14.2834547"><ele>146.0</ele><time>2026-04-26T09:13:36.287Z</time></trkpt><trkpt lat="42.2915535" lon="14.283355"><ele>146.0</ele><time>2026-04-26T09:13:37.287Z</time></trkpt><trkpt lat="42.2914412" lon="14.2832608"><ele>146.0</ele><time>2026-04-26T09:13:38.285Z</time></trkpt><trkpt lat="42.2913342" lon="14.2831595"><ele>147.0</ele><time>2026-04-26T09:13:39.286Z</time></trkpt><trkpt lat="42.2912402" lon="14.2830313"><ele>148.0</ele><time>2026-04-26T09:13:40.287Z</time></trkpt><trkpt lat="42.2911687" lon="14.282877"><ele>149.0</ele><time>2026-04-26T09:13:41.287Z</time></trkpt><trkpt lat="42.2911325" lon="14.282701"><ele>150.0</ele><time>2026-04-26T09:13:42.287Z</time></trkpt><trkpt lat="42.2911157" lon="14.2825265"><ele>150.0</ele><time>2026-04-26T09:13:43.287Z</time></trkpt><trkpt lat="42.291091" lon="14.2823768"><ele>150.0</ele><time>2026-04-26T09:13:44.286Z</time></trkpt><trkpt lat="42.2910485" lon="14.2822493"><ele>150.0</ele><time>2026-04-26T09:13:45.287Z</time></trkpt><trkpt lat="42.2909872" lon="14.2821275"><ele>150.0</ele><time>2026-04-26T09:13:46.284Z</time></trkpt><trkpt lat="42.2909135" lon="14.2819925"><ele>154.0</ele><time>2026-04-26T09:13:47.284Z</time></trkpt><trkpt lat="42.2908458" lon="14.2818393"><ele>158.0</ele><time>2026-04-26T09:13:48.282Z</time></trkpt><trkpt lat="42.2908063" lon="14.281683"><ele>162.0</ele><time>2026-04-26T09:13:49.284Z</time></trkpt><trkpt lat="42.2907967" lon="14.2815182"><ele>166.0</ele><time>2026-04-26T09:13:50.286Z</time></trkpt><trkpt lat="42.2908087" lon="14.2813432"><ele>169.25</ele><time>2026-04-26T09:13:51.286Z</time></trkpt><trkpt lat="42.2908217" lon="14.2811553"><ele>172.5</ele><time>2026-04-26T09:13:52.286Z</time></trkpt><trkpt lat="42.2908267" lon="14.280957"><ele>175.75</ele><time>2026-04-26T09:13:53.285Z</time></trkpt><trkpt lat="42.290822" lon="14.2807755"><ele>179.0</ele><time>2026-04-26T09:13:54.289Z</time></trkpt><trkpt lat="42.2908108" lon="14.2806008"><ele>182.5</ele><time>2026-04-26T09:13:55.287Z</time></trkpt><trkpt lat="42.2907832" lon="14.2804355"><ele>186.0</ele><time>2026-04-26T09:13:56.287Z</time></trkpt><trkpt lat="42.2907367" lon="14.280289"><ele>189.5</ele><time>2026-04-26T09:13:57.289Z</time></trkpt><trkpt lat="42.2906722" lon="14.2801462"><ele>193.0</ele><time>2026-04-26T09:13:58.286Z</time></trkpt><trkpt lat="42.2905962" lon="14.2800003"><ele>193.0</ele><time>2026-04-26T09:13:59.287Z</time></trkpt><trkpt lat="42.2905292" lon="14.279844"><ele>193.0</ele><time>2026-04-26T09:14:00.287Z</time></trkpt><trkpt lat="42.2904835" lon="14.2796763"><ele>193.0</ele><time>2026-04-26T09:14:01.286Z</time></trkpt><trkpt lat="42.290457" lon="14.279535"><ele>193.0</ele><time>2026-04-26T09:14:02.287Z</time></trkpt><trkpt lat="42.2904413" lon="14.2794325"><ele>193.0</ele><time>2026-04-26T09:14:03.287Z</time></trkpt><trkpt lat="42.2904" lon="14.2792762"><ele>193.0</ele><time>2026-04-26T09:14:05.286Z</time></trkpt><trkpt lat="42.2903007" lon="14.279172"><ele>193.0</ele><time>2026-04-26T09:14:07.286Z</time></trkpt><trkpt lat="42.2902172" lon="14.2791198"><ele>193.0</ele><time>2026-04-26T09:14:08.287Z</time></trkpt><trkpt lat="42.2901158" lon="14.2790437"><ele>193.0</ele><time>2026-04-26T09:14:09.286Z</time></trkpt><trkpt lat="42.290023" lon="14.2789462"><ele>193.0</ele><time>2026-04-26T09:14:10.285Z</time></trkpt><trkpt lat="42.2899602" lon="14.278811"><ele>193.0</ele><time>2026-04-26T09:14:11.284Z</time></trkpt><trkpt lat="42.2899103" lon="14.27865"><ele>193.0</ele><time>2026-04-26T09:14:12.284Z</time></trkpt><trkpt lat="42.2898655" lon="14.2784712"><ele>194.5</ele><time>2026-04-26T09:14:13.285Z</time></trkpt><trkpt lat="42.2898302" lon="14.2782857"><ele>196.0</ele><time>2026-04-26T09:14:14.285Z</time></trkpt><trkpt lat="42.2898095" lon="14.2781153"><ele>197.5</ele><time>2026-04-26T09:14:15.289Z</time></trkpt><trkpt lat="42.289783" lon="14.2779618"><ele>199.0</ele><time>2026-04-26T09:14:16.287Z</time></trkpt><trkpt lat="42.289747" lon="14.2778252"><ele>199.0</ele><time>2026-04-26T09:14:17.287Z</time></trkpt><trkpt lat="42.2897062" lon="14.2776737"><ele>199.0</ele><time>2026-04-26T09:14:18.287Z</time></trkpt><trkpt lat="42.2896658" lon="14.2774998"><ele>199.0</ele><time>2026-04-26T09:14:19.287Z</time></trkpt><trkpt lat="42.2896253" lon="14.2773108"><ele>199.0</ele><time>2026-04-26T09:14:20.289Z</time></trkpt><trkpt lat="42.28959" lon="14.2771208"><ele>201.25</ele><time>2026-04-26T09:14:21.289Z</time></trkpt><trkpt lat="42.2895718" lon="14.2769328"><ele>203.5</ele><time>2026-04-26T09:14:22.289Z</time></trkpt><trkpt lat="42.2895658" lon="14.2767412"><ele>205.75</ele><time>2026-04-26T09:14:23.287Z</time></trkpt><trkpt lat="42.289551" lon="14.27655"><ele>208.0</ele><time>2026-04-26T09:14:24.289Z</time></trkpt><trkpt lat="42.2895228" lon="14.2763803"><ele>209.2</ele><time>2026-04-26T09:14:25.288Z</time></trkpt><trkpt lat="42.2894978" lon="14.2762283"><ele>210.4</ele><time>2026-04-26T09:14:26.287Z</time></trkpt><trkpt lat="42.2894898" lon="14.2760998"><ele>211.59999999999997</ele><time>2026-04-26T09:14:27.289Z</time></trkpt><trkpt lat="42.289492" lon="14.2760007"><ele>212.79999999999998</ele><time>2026-04-26T09:14:28.289Z</time></trkpt><trkpt lat="42.2894233" lon="14.2759002"><ele>214.0</ele><time>2026-04-26T09:14:30.29Z</time></trkpt><trkpt lat="42.2893448" lon="14.275898"><ele>214.0</ele><time>2026-04-26T09:14:31.288Z</time></trkpt><trkpt lat="42.2892467" lon="14.2758962"><ele>213.99999999999997</ele><time>2026-04-26T09:14:32.287Z</time></trkpt><trkpt lat="42.2891452" lon="14.2758943"><ele>213.99999999999997</ele><time>2026-04-26T09:14:33.288Z</time></trkpt><trkpt lat="42.2890373" lon="14.2758978"><ele>214.0</ele><time>2026-04-26T09:14:34.288Z</time></trkpt><trkpt lat="42.288959" lon="14.2758912"><ele>214.0</ele><time>2026-04-26T09:14:35.29Z</time></trkpt><trkpt lat="42.2888635" lon="14.2758212"><ele>214.39999999999998</ele><time>2026-04-26T09:14:37.286Z</time></trkpt><trkpt lat="42.2887848" lon="14.2757825"><ele>214.79999999999998</ele><time>2026-04-26T09:14:38.287Z</time></trkpt><trkpt lat="42.2886793" lon="14.2757383"><ele>215.20000000000002</ele><time>2026-04-26T09:14:39.287Z</time></trkpt><trkpt lat="42.288574" lon="14.2756628"><ele>215.60000000000002</ele><time>2026-04-26T09:14:40.289Z</time></trkpt><trkpt lat="42.2884805" lon="14.2755695"><ele>216.0</ele><time>2026-04-26T09:14:41.286Z</time></trkpt><trkpt lat="42.288395" lon="14.2754943"><ele>216.0</ele><time>2026-04-26T09:14:42.286Z</time></trkpt><trkpt lat="42.2882995" lon="14.275452"><ele>216.00000000000003</ele><time>2026-04-26T09:14:43.287Z</time></trkpt><trkpt lat="42.2881957" lon="14.2754427"><ele>216.00000000000003</ele><time>2026-04-26T09:14:44.287Z</time></trkpt><trkpt lat="42.2880765" lon="14.2754742"><ele>216.0</ele><time>2026-04-26T09:14:45.29Z</time></trkpt><trkpt lat="42.2879593" lon="14.2755142"><ele>216.0</ele><time>2026-04-26T09:14:46.287Z</time></trkpt><trkpt lat="42.287844" lon="14.2755442"><ele>213.60000000000002</ele><time>2026-04-26T09:14:47.286Z</time></trkpt><trkpt lat="42.2877292" lon="14.2755465"><ele>211.20000000000002</ele><time>2026-04-26T09:14:48.288Z</time></trkpt><trkpt lat="42.2876337" lon="14.27551"><ele>208.8</ele><time>2026-04-26T09:14:49.287Z</time></trkpt><trkpt lat="42.2875643" lon="14.2754395"><ele>206.39999999999998</ele><time>2026-04-26T09:14:50.285Z</time></trkpt><trkpt lat="42.2875137" lon="14.2753453"><ele>204.0</ele><time>2026-04-26T09:14:51.285Z</time></trkpt><trkpt lat="42.2874673" lon="14.2752255"><ele>204.0</ele><time>2026-04-26T09:14:52.286Z</time></trkpt><trkpt lat="42.2874205" lon="14.2750777"><ele>204.0</ele><time>2026-04-26T09:14:53.286Z</time></trkpt><trkpt lat="42.2873663" lon="14.2749202"><ele>204.0</ele><time>2026-04-26T09:14:54.286Z</time></trkpt><trkpt lat="42.2873157" lon="14.2747897"><ele>204.0</ele><time>2026-04-26T09:14:55.288Z</time></trkpt><trkpt lat="42.2872625" lon="14.2747025"><ele>204.0</ele><time>2026-04-26T09:14:56.285Z</time></trkpt><trkpt lat="42.2871998" lon="14.2746702"><ele>204.2</ele><time>2026-04-26T09:14:57.286Z</time></trkpt><trkpt lat="42.287119" lon="14.2746908"><ele>204.39999999999998</ele><time>2026-04-26T09:14:58.286Z</time></trkpt><trkpt lat="42.2870233" lon="14.27473"><ele>204.6</ele><time>2026-04-26T09:14:59.285Z</time></trkpt><trkpt lat="42.286933" lon="14.2747553"><ele>204.8</ele><time>2026-04-26T09:15:00.285Z</time></trkpt><trkpt lat="42.2868477" lon="14.2747745"><ele>205.0</ele><time>2026-04-26T09:15:01.284Z</time></trkpt><trkpt lat="42.2867497" lon="14.274812"><ele>204.2</ele><time>2026-04-26T09:15:02.284Z</time></trkpt><trkpt lat="42.2866535" lon="14.2748478"><ele>203.4</ele><time>2026-04-26T09:15:03.285Z</time></trkpt><trkpt lat="42.2865743" lon="14.2748633"><ele>202.60000000000002</ele><time>2026-04-26T09:15:04.287Z</time></trkpt><trkpt lat="42.2865062" lon="14.2748438"><ele>201.8</ele><time>2026-04-26T09:15:05.29Z</time></trkpt><trkpt lat="42.2864283" lon="14.2747812"><ele>201.0</ele><time>2026-04-26T09:15:06.287Z</time></trkpt><trkpt lat="42.2863363" lon="14.2746937"><ele>201.0</ele><time>2026-04-26T09:15:07.287Z</time></trkpt><trkpt lat="42.2862463" lon="14.2745862"><ele>201.0</ele><time>2026-04-26T09:15:08.286Z</time></trkpt><trkpt lat="42.2861682" lon="14.2744505"><ele>201.0</ele><time>2026-04-26T09:15:09.286Z</time></trkpt><trkpt lat="42.286111" lon="14.2743258"><ele>201.0</ele><time>2026-04-26T09:15:10.286Z</time></trkpt><trkpt lat="42.286084" lon="14.2741965"><ele>201.0</ele><time>2026-04-26T09:15:11.287Z</time></trkpt><trkpt lat="42.28609" lon="14.2740633"><ele>201.0</ele><time>2026-04-26T09:15:12.286Z</time></trkpt><trkpt lat="42.2861287" lon="14.27392"><ele>201.0</ele><time>2026-04-26T09:15:13.287Z</time></trkpt><trkpt lat="42.2861688" lon="14.2737872"><ele>201.0</ele><time>2026-04-26T09:15:14.286Z</time></trkpt><trkpt lat="42.2861747" lon="14.2736833"><ele>201.0</ele><time>2026-04-26T09:15:15.285Z</time></trkpt><trkpt lat="42.2861632" lon="14.2735732"><ele>204.25</ele><time>2026-04-26T09:15:16.285Z</time></trkpt><trkpt lat="42.2861272" lon="14.2734602"><ele>207.5</ele><time>2026-04-26T09:15:17.284Z</time></trkpt><trkpt lat="42.2860677" lon="14.2733497"><ele>210.75</ele><time>2026-04-26T09:15:18.287Z</time></trkpt><trkpt lat="42.2859828" lon="14.2732222"><ele>214.0</ele><time>2026-04-26T09:15:19.287Z</time></trkpt><trkpt lat="42.285893" lon="14.2730872"><ele>213.25</ele><time>2026-04-26T09:15:20.287Z</time></trkpt><trkpt lat="42.2858005" lon="14.2729538"><ele>212.5</ele><time>2026-04-26T09:15:21.286Z</time></trkpt><trkpt lat="42.2857113" lon="14.272847"><ele>211.75</ele><time>2026-04-26T09:15:22.287Z</time></trkpt><trkpt lat="42.2856187" lon="14.2727447"><ele>211.0</ele><time>2026-04-26T09:15:23.286Z</time></trkpt><trkpt lat="42.2855408" lon="14.2726358"><ele>211.0</ele><time>2026-04-26T09:15:24.285Z</time></trkpt><trkpt lat="42.28548" lon="14.2725058"><ele>211.0</ele><time>2026-04-26T09:15:25.286Z</time></trkpt><trkpt lat="42.2854285" lon="14.2723443"><ele>211.0</ele><time>2026-04-26T09:15:26.285Z</time></trkpt><trkpt lat="42.2853832" lon="14.272166"><ele>211.0</ele><time>2026-04-26T09:15:27.284Z</time></trkpt><trkpt lat="42.2853557" lon="14.2719812"><ele>215.0</ele><time>2026-04-26T09:15:28.285Z</time></trkpt><trkpt lat="42.2853508" lon="14.271782"><ele>219.0</ele><time>2026-04-26T09:15:29.287Z</time></trkpt><trkpt lat="42.2853453" lon="14.2715747"><ele>223.0</ele><time>2026-04-26T09:15:30.286Z</time></trkpt><trkpt lat="42.285332" lon="14.2713703"><ele>225.75</ele><time>2026-04-26T09:15:31.284Z</time></trkpt><trkpt lat="42.28533" lon="14.2711703"><ele>228.5</ele><time>2026-04-26T09:15:32.283Z</time></trkpt><trkpt lat="42.2853337" lon="14.2709723"><ele>231.25</ele><time>2026-04-26T09:15:33.285Z</time></trkpt><trkpt lat="42.28535" lon="14.2707728"><ele>234.0</ele><time>2026-04-26T09:15:34.285Z</time></trkpt><trkpt lat="42.285362" lon="14.2705787"><ele>236.25</ele><time>2026-04-26T09:15:35.285Z</time></trkpt><trkpt lat="42.285369" lon="14.27038"><ele>238.5</ele><time>2026-04-26T09:15:36.288Z</time></trkpt><trkpt lat="42.2853765" lon="14.2701783"><ele>240.75</ele><time>2026-04-26T09:15:37.284Z</time></trkpt><trkpt lat="42.2854032" lon="14.2699888"><ele>243.0</ele><time>2026-04-26T09:15:38.284Z</time></trkpt><trkpt lat="42.2854357" lon="14.2698118"><ele>245.0</ele><time>2026-04-26T09:15:39.285Z</time></trkpt><trkpt lat="42.2854718" lon="14.2696427"><ele>247.0</ele><time>2026-04-26T09:15:40.285Z</time></trkpt><trkpt lat="42.2855042" lon="14.2694748"><ele>249.0</ele><time>2026-04-26T09:15:41.283Z</time></trkpt><trkpt lat="42.2855377" lon="14.2693048"><ele>251.0</ele><time>2026-04-26T09:15:42.284Z</time></trkpt><trkpt lat="42.2855778" lon="14.2691365"><ele>256.25</ele><time>2026-04-26T09:15:43.284Z</time></trkpt><trkpt lat="42.2856097" lon="14.2689663"><ele>261.5</ele><time>2026-04-26T09:15:44.286Z</time></trkpt><trkpt lat="42.2856287" lon="14.268801"><ele>266.75</ele><time>2026-04-26T09:15:45.285Z</time></trkpt><trkpt lat="42.2856443" lon="14.2686425"><ele>272.0</ele><time>2026-04-26T09:15:46.284Z</time></trkpt><trkpt lat="42.2856593" lon="14.2684872"><ele>273.1666666666667</ele><time>2026-04-26T09:15:47.285Z</time></trkpt><trkpt lat="42.285665" lon="14.2683583"><ele>274.33333333333337</ele><time>2026-04-26T09:15:48.285Z</time></trkpt><trkpt lat="42.2856692" lon="14.2682718"><ele>275.5</ele><time>2026-04-26T09:15:49.285Z</time></trkpt><trkpt lat="42.2856637" lon="14.2681867"><ele>276.6666666666667</ele><time>2026-04-26T09:15:52.286Z</time></trkpt><trkpt lat="42.2856615" lon="14.2680395"><ele>277.8333333333333</ele><time>2026-04-26T09:16:01.288Z</time></trkpt><trkpt lat="42.2856337" lon="14.2679525"><ele>279.0</ele><time>2026-04-26T09:16:02.288Z</time></trkpt><trkpt lat="42.2855865" lon="14.2678553"><ele>279.0</ele><time>2026-04-26T09:16:03.288Z</time></trkpt><trkpt lat="42.285527" lon="14.2677482"><ele>279.0</ele><time>2026-04-26T09:16:04.287Z</time></trkpt><trkpt lat="42.285458" lon="14.267629"><ele>279.0</ele><time>2026-04-26T09:16:05.287Z</time></trkpt><trkpt lat="42.2853802" lon="14.2674988"><ele>279.0</ele><time>2026-04-26T09:16:06.288Z</time></trkpt><trkpt lat="42.285299" lon="14.2673627"><ele>280.2</ele><time>2026-04-26T09:16:07.288Z</time></trkpt><trkpt lat="42.28522" lon="14.2672368"><ele>281.4</ele><time>2026-04-26T09:16:08.288Z</time></trkpt><trkpt lat="42.2851437" lon="14.2671293"><ele>282.6</ele><time>2026-04-26T09:16:09.287Z</time></trkpt><trkpt lat="42.2850672" lon="14.2670445"><ele>283.8</ele><time>2026-04-26T09:16:10.287Z</time></trkpt><trkpt lat="42.2849928" lon="14.2669818"><ele>285.0</ele><time>2026-04-26T09:16:11.286Z</time></trkpt><trkpt lat="42.2849292" lon="14.2669225"><ele>285.0</ele><time>2026-04-26T09:16:12.289Z</time></trkpt><trkpt lat="42.2848797" lon="14.2668568"><ele>285.0</ele><time>2026-04-26T09:16:13.286Z</time></trkpt><trkpt lat="42.2848285" lon="14.26679"><ele>285.0</ele><time>2026-04-26T09:16:14.285Z</time></trkpt><trkpt lat="42.2847832" lon="14.2667212"><ele>285.0</ele><time>2026-04-26T09:16:15.287Z</time></trkpt><trkpt lat="42.2847708" lon="14.2665748"><ele>285.0</ele><time>2026-04-26T09:16:17.286Z</time></trkpt><trkpt lat="42.2848012" lon="14.2664932"><ele>285.0</ele><time>2026-04-26T09:16:18.288Z</time></trkpt><trkpt lat="42.2848423" lon="14.2663997"><ele>284.8</ele><time>2026-04-26T09:16:19.287Z</time></trkpt><trkpt lat="42.2848823" lon="14.2663043"><ele>284.6</ele><time>2026-04-26T09:16:20.287Z</time></trkpt><trkpt lat="42.2849315" lon="14.2662033"><ele>284.4</ele><time>2026-04-26T09:16:21.287Z</time></trkpt><trkpt lat="42.2849908" lon="14.2660935"><ele>284.2</ele><time>2026-04-26T09:16:22.287Z</time></trkpt><trkpt lat="42.2850463" lon="14.2659822"><ele>284.0</ele><time>2026-04-26T09:16:23.285Z</time></trkpt><trkpt lat="42.2851003" lon="14.2658775"><ele>284.0</ele><time>2026-04-26T09:16:24.287Z</time></trkpt><trkpt lat="42.2851537" lon="14.2657787"><ele>284.0</ele><time>2026-04-26T09:16:25.288Z</time></trkpt><trkpt lat="42.28521" lon="14.2656852"><ele>284.0</ele><time>2026-04-26T09:16:26.285Z</time></trkpt><trkpt lat="42.2852667" lon="14.2655982"><ele>284.0</ele><time>2026-04-26T09:16:27.287Z</time></trkpt><trkpt lat="42.2853227" lon="14.2655158"><ele>284.0</ele><time>2026-04-26T09:16:28.284Z</time></trkpt><trkpt lat="42.2853765" lon="14.265426"><ele>284.0</ele><time>2026-04-26T09:16:29.286Z</time></trkpt><trkpt lat="42.2854317" lon="14.2653333"><ele>282.4</ele><time>2026-04-26T09:16:30.285Z</time></trkpt><trkpt lat="42.2854945" lon="14.265246"><ele>280.79999999999995</ele><time>2026-04-26T09:16:31.286Z</time></trkpt><trkpt lat="42.2855713" lon="14.2651703"><ele>279.20000000000005</ele><time>2026-04-26T09:16:32.285Z</time></trkpt><trkpt lat="42.2856565" lon="14.2651135"><ele>277.6</ele><time>2026-04-26T09:16:33.287Z</time></trkpt><trkpt lat="42.2857217" lon="14.2650612"><ele>276.0</ele><time>2026-04-26T09:16:34.286Z</time></trkpt><trkpt lat="42.2857745" lon="14.2649327"><ele>272.25</ele><time>2026-04-26T09:16:36.287Z</time></trkpt><trkpt lat="42.2857345" lon="14.2647428"><ele>268.5</ele><time>2026-04-26T09:16:38.284Z</time></trkpt><trkpt lat="42.2856883" lon="14.2646062"><ele>264.75</ele><time>2026-04-26T09:16:39.284Z</time></trkpt><trkpt lat="42.28562" lon="14.2644533"><ele>261.0</ele><time>2026-04-26T09:16:40.284Z</time></trkpt><trkpt lat="42.2855373" lon="14.264285"><ele>261.0</ele><time>2026-04-26T09:16:41.284Z</time></trkpt><trkpt lat="42.2854522" lon="14.264106"><ele>261.0</ele><time>2026-04-26T09:16:42.287Z</time></trkpt><trkpt lat="42.285373" lon="14.2639302"><ele>261.0</ele><time>2026-04-26T09:16:43.286Z</time></trkpt><trkpt lat="42.2853017" lon="14.2637635"><ele>260.5</ele><time>2026-04-26T09:16:44.286Z</time></trkpt><trkpt lat="42.2852482" lon="14.2636043"><ele>260.0</ele><time>2026-04-26T09:16:45.287Z</time></trkpt><trkpt lat="42.2852253" lon="14.2634417"><ele>259.5</ele><time>2026-04-26T09:16:46.286Z</time></trkpt><trkpt lat="42.2852353" lon="14.2632758"><ele>259.0</ele><time>2026-04-26T09:16:47.287Z</time></trkpt><trkpt lat="42.285269" lon="14.2631193"><ele>258.0</ele><time>2026-04-26T09:16:48.288Z</time></trkpt><trkpt lat="42.2853008" lon="14.2629705"><ele>257.0</ele><time>2026-04-26T09:16:49.287Z</time></trkpt><trkpt lat="42.2853055" lon="14.2628258"><ele>256.0</ele><time>2026-04-26T09:16:50.285Z</time></trkpt><trkpt lat="42.285277" lon="14.2626775"><ele>255.0</ele><time>2026-04-26T09:16:51.286Z</time></trkpt><trkpt lat="42.285221" lon="14.2625225"><ele>255.0</ele><time>2026-04-26T09:16:52.287Z</time></trkpt><trkpt lat="42.2851443" lon="14.262361"><ele>255.0</ele><time>2026-04-26T09:16:53.287Z</time></trkpt><trkpt lat="42.2850545" lon="14.2621883"><ele>255.0</ele><time>2026-04-26T09:16:54.286Z</time></trkpt><trkpt lat="42.2849597" lon="14.2620057"><ele>257.3333333333333</ele><time>2026-04-26T09:16:55.286Z</time></trkpt><trkpt lat="42.2848638" lon="14.2618187"><ele>259.66666666666663</ele><time>2026-04-26T09:16:56.286Z</time></trkpt><trkpt lat="42.2847725" lon="14.2616387"><ele>262.0</ele><time>2026-04-26T09:16:57.286Z</time></trkpt><trkpt lat="42.2846873" lon="14.261466"><ele>259.0</ele><time>2026-04-26T09:16:58.286Z</time></trkpt><trkpt lat="42.2846122" lon="14.2612977"><ele>256.0</ele><time>2026-04-26T09:16:59.288Z</time></trkpt><trkpt lat="42.2845622" lon="14.2611385"><ele>253.0</ele><time>2026-04-26T09:17:00.287Z</time></trkpt><trkpt lat="42.284539" lon="14.2609965"><ele>250.0</ele><time>2026-04-26T09:17:01.286Z</time></trkpt><trkpt lat="42.2845543" lon="14.2608693"><ele>250.0</ele><time>2026-04-26T09:17:02.284Z</time></trkpt><trkpt lat="42.2846007" lon="14.2607642"><ele>250.0</ele><time>2026-04-26T09:17:03.285Z</time></trkpt><trkpt lat="42.2846752" lon="14.260693"><ele>250.0</ele><time>2026-04-26T09:17:04.285Z</time></trkpt><trkpt lat="42.2847755" lon="14.2606465"><ele>250.0</ele><time>2026-04-26T09:17:05.285Z</time></trkpt><trkpt lat="42.2848983" lon="14.2606188"><ele>250.0</ele><time>2026-04-26T09:17:06.286Z</time></trkpt><trkpt lat="42.2850385" lon="14.260597"><ele>248.33333333333331</ele><time>2026-04-26T09:17:07.288Z</time></trkpt><trkpt lat="42.2851902" lon="14.2605757"><ele>246.66666666666669</ele><time>2026-04-26T09:17:08.287Z</time></trkpt><trkpt lat="42.2853485" lon="14.2605537"><ele>245.0</ele><time>2026-04-26T09:17:09.288Z</time></trkpt><trkpt lat="42.2855068" lon="14.2605333"><ele>248.66666666666669</ele><time>2026-04-26T09:17:10.287Z</time></trkpt><trkpt lat="42.2856642" lon="14.260524"><ele>252.33333333333331</ele><time>2026-04-26T09:17:11.285Z</time></trkpt><trkpt lat="42.285817" lon="14.2605368"><ele>256.0</ele><time>2026-04-26T09:17:12.287Z</time></trkpt><trkpt lat="42.2859653" lon="14.2605798"><ele>254.0</ele><time>2026-04-26T09:17:13.287Z</time></trkpt><trkpt lat="42.2861118" lon="14.2606355"><ele>252.0</ele><time>2026-04-26T09:17:14.287Z</time></trkpt><trkpt lat="42.2862588" lon="14.2606877"><ele>250.0</ele><time>2026-04-26T09:17:15.287Z</time></trkpt><trkpt lat="42.2863985" lon="14.260714"><ele>248.0</ele><time>2026-04-26T09:17:16.287Z</time></trkpt><trkpt lat="42.2865342" lon="14.2607123"><ele>248.0</ele><time>2026-04-26T09:17:17.29Z</time></trkpt><trkpt lat="42.2866535" lon="14.2606872"><ele>248.0</ele><time>2026-04-26T09:17:18.288Z</time></trkpt><trkpt lat="42.2867508" lon="14.260639"><ele>248.0</ele><time>2026-04-26T09:17:19.288Z</time></trkpt><trkpt lat="42.2868287" lon="14.2605675"><ele>248.0</ele><time>2026-04-26T09:17:20.289Z</time></trkpt><trkpt lat="42.2868823" lon="14.2604752"><ele>248.0</ele><time>2026-04-26T09:17:21.289Z</time></trkpt><trkpt lat="42.286908" lon="14.260363"><ele>251.0</ele><time>2026-04-26T09:17:22.289Z</time></trkpt><trkpt lat="42.2869092" lon="14.2602355"><ele>254.0</ele><time>2026-04-26T09:17:23.291Z</time></trkpt><trkpt lat="42.2868858" lon="14.2601005"><ele>257.0</ele><time>2026-04-26T09:17:24.295Z</time></trkpt><trkpt lat="42.286842" lon="14.2599612"><ele>260.0</ele><time>2026-04-26T09:17:25.287Z</time></trkpt><trkpt lat="42.286777" lon="14.2598238"><ele>263.0</ele><time>2026-04-26T09:17:26.286Z</time></trkpt><trkpt lat="42.2866913" lon="14.2596935"><ele>264.25</ele><time>2026-04-26T09:17:27.284Z</time></trkpt><trkpt lat="42.2865822" lon="14.2595817"><ele>265.5</ele><time>2026-04-26T09:17:28.286Z</time></trkpt><trkpt lat="42.2864615" lon="14.2594955"><ele>266.75</ele><time>2026-04-26T09:17:29.286Z</time></trkpt><trkpt lat="42.2863317" lon="14.2594317"><ele>268.0</ele><time>2026-04-26T09:17:30.287Z</time></trkpt><trkpt lat="42.2862063" lon="14.259367"><ele>268.0</ele><time>2026-04-26T09:17:31.288Z</time></trkpt><trkpt lat="42.2860857" lon="14.2592913"><ele>268.0</ele><time>2026-04-26T09:17:32.288Z</time></trkpt><trkpt lat="42.2859693" lon="14.2592048"><ele>268.0</ele><time>2026-04-26T09:17:33.289Z</time></trkpt><trkpt lat="42.2858602" lon="14.2591073"><ele>268.0</ele><time>2026-04-26T09:17:34.29Z</time></trkpt><trkpt lat="42.285771" lon="14.2590008"><ele>270.66666666666663</ele><time>2026-04-26T09:17:35.287Z</time></trkpt><trkpt lat="42.2857077" lon="14.258897"><ele>273.3333333333333</ele><time>2026-04-26T09:17:36.292Z</time></trkpt><trkpt lat="42.285661" lon="14.2587982"><ele>276.0</ele><time>2026-04-26T09:17:37.289Z</time></trkpt><trkpt lat="42.285627" lon="14.2586915"><ele>278.6666666666667</ele><time>2026-04-26T09:17:38.288Z</time></trkpt><trkpt lat="42.2856227" lon="14.25858"><ele>281.33333333333337</ele><time>2026-04-26T09:17:39.288Z</time></trkpt><trkpt lat="42.2856538" lon="14.2584832"><ele>284.0</ele><time>2026-04-26T09:17:40.288Z</time></trkpt><trkpt lat="42.2857167" lon="14.2584115"><ele>284.0</ele><time>2026-04-26T09:17:41.288Z</time></trkpt><trkpt lat="42.2858015" lon="14.2583732"><ele>284.0</ele><time>2026-04-26T09:17:42.289Z</time></trkpt><trkpt lat="42.2859032" lon="14.2583743"><ele>284.0</ele><time>2026-04-26T09:17:43.29Z</time></trkpt><trkpt lat="42.2860102" lon="14.2584153"><ele>284.0</ele><time>2026-04-26T09:17:44.29Z</time></trkpt><trkpt lat="42.286115" lon="14.2584798"><ele>284.0</ele><time>2026-04-26T09:17:45.29Z</time></trkpt><trkpt lat="42.2862165" lon="14.2585545"><ele>284.0</ele><time>2026-04-26T09:17:46.29Z</time></trkpt><trkpt lat="42.2863122" lon="14.2586337"><ele>284.0</ele><time>2026-04-26T09:17:47.289Z</time></trkpt><trkpt lat="42.286414" lon="14.2587155"><ele>284.0</ele><time>2026-04-26T09:17:48.29Z</time></trkpt><trkpt lat="42.286527" lon="14.2587958"><ele>284.0</ele><time>2026-04-26T09:17:49.29Z</time></trkpt><trkpt lat="42.2866512" lon="14.2588772"><ele>282.25</ele><time>2026-04-26T09:17:50.289Z</time></trkpt><trkpt lat="42.2867818" lon="14.2589585"><ele>280.5</ele><time>2026-04-26T09:17:51.286Z</time></trkpt><trkpt lat="42.2869157" lon="14.2590402"><ele>278.75</ele><time>2026-04-26T09:17:52.286Z</time></trkpt><trkpt lat="42.2870425" lon="14.2591158"><ele>277.0</ele><time>2026-04-26T09:17:53.288Z</time></trkpt><trkpt lat="42.2871588" lon="14.259185"><ele>279.0</ele><time>2026-04-26T09:17:54.287Z</time></trkpt><trkpt lat="42.2872653" lon="14.2592442"><ele>281.0</ele><time>2026-04-26T09:17:55.289Z</time></trkpt><trkpt lat="42.2873652" lon="14.259298"><ele>283.0</ele><time>2026-04-26T09:17:56.288Z</time></trkpt><trkpt lat="42.2874682" lon="14.2593437"><ele>285.0</ele><time>2026-04-26T09:17:57.289Z</time></trkpt><trkpt lat="42.287578" lon="14.259368"><ele>287.0</ele><time>2026-04-26T09:17:58.287Z</time></trkpt><trkpt lat="42.2876933" lon="14.25937"><ele>287.0</ele><time>2026-04-26T09:17:59.286Z</time></trkpt><trkpt lat="42.2878072" lon="14.2593512"><ele>287.0</ele><time>2026-04-26T09:18:00.287Z</time></trkpt><trkpt lat="42.2879102" lon="14.2593135"><ele>287.0</ele><time>2026-04-26T09:18:01.287Z</time></trkpt><trkpt lat="42.288011" lon="14.2592637"><ele>287.0</ele><time>2026-04-26T09:18:02.287Z</time></trkpt><trkpt lat="42.2881103" lon="14.2592045"><ele>287.0</ele><time>2026-04-26T09:18:03.289Z</time></trkpt><trkpt lat="42.2882057" lon="14.2591338"><ele>288.0</ele><time>2026-04-26T09:18:04.287Z</time></trkpt><trkpt lat="42.2882942" lon="14.259054"><ele>289.0</ele><time>2026-04-26T09:18:05.287Z</time></trkpt><trkpt lat="42.2883735" lon="14.2589667"><ele>290.0</ele><time>2026-04-26T09:18:06.29Z</time></trkpt><trkpt lat="42.2884477" lon="14.2588782"><ele>291.0</ele><time>2026-04-26T09:18:07.288Z</time></trkpt><trkpt lat="42.2885248" lon="14.2587933"><ele>292.0</ele><time>2026-04-26T09:18:08.287Z</time></trkpt><trkpt lat="42.2886035" lon="14.2587065"><ele>293.0</ele><time>2026-04-26T09:18:09.287Z</time></trkpt><trkpt lat="42.2886837" lon="14.2586155"><ele>294.0</ele><time>2026-04-26T09:18:10.286Z</time></trkpt><trkpt lat="42.2887683" lon="14.2585228"><ele>295.0</ele><time>2026-04-26T09:18:11.286Z</time></trkpt><trkpt lat="42.288847" lon="14.2584252"><ele>296.0</ele><time>2026-04-26T09:18:12.286Z</time></trkpt><trkpt lat="42.2889143" lon="14.2583302"><ele>297.0</ele><time>2026-04-26T09:18:13.288Z</time></trkpt><trkpt lat="42.28897" lon="14.258238"><ele>297.0</ele><time>2026-04-26T09:18:14.287Z</time></trkpt><trkpt lat="42.2890168" lon="14.2581562"><ele>297.0</ele><time>2026-04-26T09:18:15.286Z</time></trkpt><trkpt lat="42.289091" lon="14.2580577"><ele>297.0</ele><time>2026-04-26T09:18:17.287Z</time></trkpt><trkpt lat="42.2891417" lon="14.2579925"><ele>297.0</ele><time>2026-04-26T09:18:21.287Z</time></trkpt><trkpt lat="42.2891352" lon="14.2579028"><ele>297.0</ele><time>2026-04-26T09:18:24.288Z</time></trkpt><trkpt lat="42.289054" lon="14.257792"><ele>297.0</ele><time>2026-04-26T09:18:26.287Z</time></trkpt><trkpt lat="42.2889868" lon="14.257723"><ele>298.25</ele><time>2026-04-26T09:18:27.287Z</time></trkpt><trkpt lat="42.2889078" lon="14.2576383"><ele>299.5</ele><time>2026-04-26T09:18:28.287Z</time></trkpt><trkpt lat="42.2888207" lon="14.2575413"><ele>300.75</ele><time>2026-04-26T09:18:29.288Z</time></trkpt><trkpt lat="42.2887265" lon="14.2574373"><ele>302.0</ele><time>2026-04-26T09:18:30.287Z</time></trkpt><trkpt lat="42.288631" lon="14.2573348"><ele>302.0</ele><time>2026-04-26T09:18:31.287Z</time></trkpt><trkpt lat="42.2885435" lon="14.257242"><ele>302.0</ele><time>2026-04-26T09:18:32.287Z</time></trkpt><trkpt lat="42.2884513" lon="14.2571567"><ele>302.0</ele><time>2026-04-26T09:18:33.287Z</time></trkpt><trkpt lat="42.2883472" lon="14.257084"><ele>302.0</ele><time>2026-04-26T09:18:34.287Z</time></trkpt><trkpt lat="42.2882277" lon="14.2570178"><ele>302.0</ele><time>2026-04-26T09:18:35.287Z</time></trkpt><trkpt lat="42.2880977" lon="14.2569515"><ele>302.0</ele><time>2026-04-26T09:18:36.29Z</time></trkpt><trkpt lat="42.2879655" lon="14.2568838"><ele>302.0</ele><time>2026-04-26T09:18:37.288Z</time></trkpt><trkpt lat="42.2878345" lon="14.2568138"><ele>302.0</ele><time>2026-04-26T09:18:38.288Z</time></trkpt><trkpt lat="42.287704" lon="14.2567485"><ele>302.75</ele><time>2026-04-26T09:18:39.291Z</time></trkpt><trkpt lat="42.2875808" lon="14.2566815"><ele>303.5</ele><time>2026-04-26T09:18:40.286Z</time></trkpt><trkpt lat="42.2874578" lon="14.256604"><ele>304.25</ele><time>2026-04-26T09:18:41.284Z</time></trkpt><trkpt lat="42.2873287" lon="14.2565092"><ele>305.0</ele><time>2026-04-26T09:18:42.286Z</time></trkpt><trkpt lat="42.2871833" lon="14.256397"><ele>306.6666666666667</ele><time>2026-04-26T09:18:43.285Z</time></trkpt><trkpt lat="42.2870305" lon="14.2562592"><ele>308.3333333333333</ele><time>2026-04-26T09:18:44.288Z</time></trkpt><trkpt lat="42.2868728" lon="14.2561028"><ele>310.0</ele><time>2026-04-26T09:18:45.289Z</time></trkpt><trkpt lat="42.2867125" lon="14.255933"><ele>310.0</ele><time>2026-04-26T09:18:46.288Z</time></trkpt><trkpt lat="42.2865607" lon="14.2557765"><ele>310.0</ele><time>2026-04-26T09:18:47.288Z</time></trkpt><trkpt lat="42.2864202" lon="14.2556357"><ele>310.0</ele><time>2026-04-26T09:18:48.289Z</time></trkpt><trkpt lat="42.2862868" lon="14.255512"><ele>311.0</ele><time>2026-04-26T09:18:49.289Z</time></trkpt><trkpt lat="42.2861553" lon="14.2554008"><ele>312.0</ele><time>2026-04-26T09:18:50.289Z</time></trkpt><trkpt lat="42.2860242" lon="14.2553015"><ele>313.0</ele><time>2026-04-26T09:18:51.288Z</time></trkpt><trkpt lat="42.2858962" lon="14.2552062"><ele>313.0</ele><time>2026-04-26T09:18:52.287Z</time></trkpt><trkpt lat="42.2857707" lon="14.2551175"><ele>313.0</ele><time>2026-04-26T09:18:53.288Z</time></trkpt><trkpt lat="42.285648" lon="14.2550303"><ele>313.0</ele><time>2026-04-26T09:18:54.287Z</time></trkpt><trkpt lat="42.2855293" lon="14.2549427"><ele>313.0</ele><time>2026-04-26T09:18:55.289Z</time></trkpt><trkpt lat="42.2854102" lon="14.2548568"><ele>313.25</ele><time>2026-04-26T09:18:56.289Z</time></trkpt><trkpt lat="42.2852887" lon="14.2547745"><ele>313.5</ele><time>2026-04-26T09:18:57.289Z</time></trkpt><trkpt lat="42.2851682" lon="14.2546902"><ele>313.75</ele><time>2026-04-26T09:18:58.288Z</time></trkpt><trkpt lat="42.2850487" lon="14.254604"><ele>314.0</ele><time>2026-04-26T09:18:59.287Z</time></trkpt><trkpt lat="42.2849273" lon="14.2545218"><ele>314.0</ele><time>2026-04-26T09:19:00.289Z</time></trkpt><trkpt lat="42.284806" lon="14.2544392"><ele>314.0</ele><time>2026-04-26T09:19:01.289Z</time></trkpt><trkpt lat="42.2846848" lon="14.254356"><ele>314.0</ele><time>2026-04-26T09:19:02.289Z</time></trkpt><trkpt lat="42.2845628" lon="14.2542753"><ele>314.0</ele><time>2026-04-26T09:19:03.289Z</time></trkpt><trkpt lat="42.2844382" lon="14.2542035"><ele>314.0</ele><time>2026-04-26T09:19:04.29Z</time></trkpt><trkpt lat="42.2843123" lon="14.2541375"><ele>314.0</ele><time>2026-04-26T09:19:05.286Z</time></trkpt><trkpt lat="42.2841853" lon="14.2540727"><ele>314.0</ele><time>2026-04-26T09:19:06.288Z</time></trkpt><trkpt lat="42.2840572" lon="14.254011"><ele>314.0</ele><time>2026-04-26T09:19:07.287Z</time></trkpt><trkpt lat="42.2839293" lon="14.2539473"><ele>314.0</ele><time>2026-04-26T09:19:08.287Z</time></trkpt><trkpt lat="42.2838028" lon="14.2538757"><ele>314.0</ele><time>2026-04-26T09:19:09.289Z</time></trkpt><trkpt lat="42.2836778" lon="14.2537938"><ele>314.0</ele><time>2026-04-26T09:19:10.289Z</time></trkpt><trkpt lat="42.2835497" lon="14.2537123"><ele>314.0</ele><time>2026-04-26T09:19:11.289Z</time></trkpt><trkpt lat="42.2834167" lon="14.2536297"><ele>314.0</ele><time>2026-04-26T09:19:12.287Z</time></trkpt><trkpt lat="42.2832785" lon="14.2535482"><ele>314.0</ele><time>2026-04-26T09:19:13.291Z</time></trkpt><trkpt lat="42.2831378" lon="14.253468"><ele>314.0</ele><time>2026-04-26T09:19:14.289Z</time></trkpt><trkpt lat="42.2829945" lon="14.2533877"><ele>313.33333333333337</ele><time>2026-04-26T09:19:15.289Z</time></trkpt><trkpt lat="42.2828497" lon="14.2533073"><ele>312.6666666666667</ele><time>2026-04-26T09:19:16.289Z</time></trkpt><trkpt lat="42.282702" lon="14.2532277"><ele>312.0</ele><time>2026-04-26T09:19:17.289Z</time></trkpt><trkpt lat="42.2825523" lon="14.2531505"><ele>312.3333333333333</ele><time>2026-04-26T09:19:18.29Z</time></trkpt><trkpt lat="42.2823992" lon="14.2530782"><ele>312.66666666666663</ele><time>2026-04-26T09:19:19.289Z</time></trkpt><trkpt lat="42.2822443" lon="14.2530103"><ele>313.0</ele><time>2026-04-26T09:19:20.288Z</time></trkpt><trkpt lat="42.2820877" lon="14.2529473"><ele>313.0</ele><time>2026-04-26T09:19:21.29Z</time></trkpt><trkpt lat="42.2819303" lon="14.2528837"><ele>313.0</ele><time>2026-04-26T09:19:22.29Z</time></trkpt><trkpt lat="42.2817728" lon="14.2528185"><ele>313.0</ele><time>2026-04-26T09:19:23.289Z</time></trkpt><trkpt lat="42.2816143" lon="14.2527548"><ele>313.0</ele><time>2026-04-26T09:19:24.287Z</time></trkpt><trkpt lat="42.2814557" lon="14.252691"><ele>313.0</ele><time>2026-04-26T09:19:25.288Z</time></trkpt><trkpt lat="42.2812957" lon="14.2526258"><ele>313.0</ele><time>2026-04-26T09:19:26.291Z</time></trkpt><trkpt lat="42.2811347" lon="14.2525592"><ele>314.0</ele><time>2026-04-26T09:19:27.289Z</time></trkpt><trkpt lat="42.2809722" lon="14.2524912"><ele>315.0</ele><time>2026-04-26T09:19:28.289Z</time></trkpt><trkpt lat="42.2808062" lon="14.2524248"><ele>316.0</ele><time>2026-04-26T09:19:29.286Z</time></trkpt><trkpt lat="42.2806387" lon="14.2523598"><ele>316.0</ele><time>2026-04-26T09:19:30.285Z</time></trkpt><trkpt lat="42.2804708" lon="14.2522915"><ele>316.0</ele><time>2026-04-26T09:19:31.286Z</time></trkpt><trkpt lat="42.2803037" lon="14.2522187"><ele>316.0</ele><time>2026-04-26T09:19:32.285Z</time></trkpt><trkpt lat="42.2801358" lon="14.252144"><ele>316.0</ele><time>2026-04-26T09:19:33.287Z</time></trkpt><trkpt lat="42.2799678" lon="14.2520648"><ele>316.0</ele><time>2026-04-26T09:19:34.289Z</time></trkpt><trkpt lat="42.2798013" lon="14.2519798"><ele>316.0</ele><time>2026-04-26T09:19:35.289Z</time></trkpt><trkpt lat="42.2796355" lon="14.2518912"><ele>317.0</ele><time>2026-04-26T09:19:36.29Z</time></trkpt><trkpt lat="42.2794698" lon="14.2518028"><ele>318.0</ele><time>2026-04-26T09:19:37.289Z</time></trkpt><trkpt lat="42.279306" lon="14.2517163"><ele>319.0</ele><time>2026-04-26T09:19:38.289Z</time></trkpt><trkpt lat="42.2791462" lon="14.2516345"><ele>319.0</ele><time>2026-04-26T09:19:39.288Z</time></trkpt><trkpt lat="42.2789995" lon="14.2515648"><ele>319.0</ele><time>2026-04-26T09:19:40.287Z</time></trkpt><trkpt lat="42.2788698" lon="14.2515107"><ele>319.0</ele><time>2026-04-26T09:19:41.287Z</time></trkpt><trkpt lat="42.2787413" lon="14.2514657"><ele>319.0</ele><time>2026-04-26T09:19:42.289Z</time></trkpt><trkpt lat="42.2785993" lon="14.2514123"><ele>320.3333333333333</ele><time>2026-04-26T09:19:43.289Z</time></trkpt><trkpt lat="42.278443" lon="14.2513462"><ele>321.6666666666667</ele><time>2026-04-26T09:19:44.288Z</time></trkpt><trkpt lat="42.2782762" lon="14.2512712"><ele>323.0</ele><time>2026-04-26T09:19:45.29Z</time></trkpt><trkpt lat="42.2780997" lon="14.2511963"><ele>324.33333333333337</ele><time>2026-04-26T09:19:46.291Z</time></trkpt><trkpt lat="42.2779163" lon="14.2511245"><ele>325.6666666666667</ele><time>2026-04-26T09:19:47.289Z</time></trkpt><trkpt lat="42.2777298" lon="14.251055"><ele>327.0</ele><time>2026-04-26T09:19:48.29Z</time></trkpt><trkpt lat="42.277548" lon="14.2509893"><ele>327.0</ele><time>2026-04-26T09:19:49.29Z</time></trkpt><trkpt lat="42.2773822" lon="14.2509342"><ele>327.0</ele><time>2026-04-26T09:19:50.289Z</time></trkpt><trkpt lat="42.277229" lon="14.2508957"><ele>327.0</ele><time>2026-04-26T09:19:51.289Z</time></trkpt><trkpt lat="42.277088" lon="14.2508788"><ele>328.0</ele><time>2026-04-26T09:19:52.288Z</time></trkpt><trkpt lat="42.2769593" lon="14.2508602"><ele>329.0</ele><time>2026-04-26T09:19:53.288Z</time></trkpt><trkpt lat="42.2768435" lon="14.2508247"><ele>330.0</ele><time>2026-04-26T09:19:54.287Z</time></trkpt><trkpt lat="42.2767367" lon="14.2507577"><ele>331.0</ele><time>2026-04-26T09:19:55.286Z</time></trkpt><trkpt lat="42.2766298" lon="14.2506618"><ele>330.5</ele><time>2026-04-26T09:19:56.288Z</time></trkpt><trkpt lat="42.2765203" lon="14.2505522"><ele>330.0</ele><time>2026-04-26T09:19:57.285Z</time></trkpt><trkpt lat="42.276419" lon="14.2504328"><ele>329.5</ele><time>2026-04-26T09:19:58.288Z</time></trkpt><trkpt lat="42.2763228" lon="14.2502953"><ele>329.0</ele><time>2026-04-26T09:19:59.287Z</time></trkpt><trkpt lat="42.2762437" lon="14.2501335"><ele>329.0</ele><time>2026-04-26T09:20:00.288Z</time></trkpt><trkpt lat="42.276171" lon="14.2499757"><ele>329.0</ele><time>2026-04-26T09:20:01.289Z</time></trkpt><trkpt lat="42.276089" lon="14.2498458"><ele>329.0</ele><time>2026-04-26T09:20:02.286Z</time></trkpt><trkpt lat="42.275993" lon="14.2497402"><ele>329.0</ele><time>2026-04-26T09:20:03.288Z</time></trkpt><trkpt lat="42.2758733" lon="14.2496533"><ele>326.33333333333337</ele><time>2026-04-26T09:20:04.289Z</time></trkpt><trkpt lat="42.2757363" lon="14.2495713"><ele>323.6666666666667</ele><time>2026-04-26T09:20:05.287Z</time></trkpt><trkpt lat="42.2755955" lon="14.24949"><ele>321.0</ele><time>2026-04-26T09:20:06.289Z</time></trkpt><trkpt lat="42.2754585" lon="14.2494018"><ele>321.0</ele><time>2026-04-26T09:20:07.288Z</time></trkpt><trkpt lat="42.2753345" lon="14.2492963"><ele>321.0</ele><time>2026-04-26T09:20:08.287Z</time></trkpt><trkpt lat="42.2752202" lon="14.2491865"><ele>321.0</ele><time>2026-04-26T09:20:09.286Z</time></trkpt><trkpt lat="42.2750988" lon="14.2490968"><ele>321.0</ele><time>2026-04-26T09:20:10.287Z</time></trkpt><trkpt lat="42.2749592" lon="14.249021"><ele>312.6666666666667</ele><time>2026-04-26T09:20:11.287Z</time></trkpt><trkpt lat="42.2748038" lon="14.2489542"><ele>304.33333333333337</ele><time>2026-04-26T09:20:12.287Z</time></trkpt><trkpt lat="42.2746363" lon="14.2488822"><ele>296.0</ele><time>2026-04-26T09:20:13.287Z</time></trkpt><trkpt lat="42.2744657" lon="14.2488108"><ele>296.0</ele><time>2026-04-26T09:20:14.287Z</time></trkpt><trkpt lat="42.2742952" lon="14.248742"><ele>296.0</ele><time>2026-04-26T09:20:15.287Z</time></trkpt><trkpt lat="42.2741243" lon="14.2486605"><ele>296.0</ele><time>2026-04-26T09:20:16.286Z</time></trkpt><trkpt lat="42.273962" lon="14.2485617"><ele>300.0</ele><time>2026-04-26T09:20:17.286Z</time></trkpt><trkpt lat="42.2738078" lon="14.2484595"><ele>304.0</ele><time>2026-04-26T09:20:18.285Z</time></trkpt><trkpt lat="42.2736645" lon="14.2483503"><ele>308.0</ele><time>2026-04-26T09:20:19.282Z</time></trkpt><trkpt lat="42.273527" lon="14.2482422"><ele>308.0</ele><time>2026-04-26T09:20:20.282Z</time></trkpt><trkpt lat="42.2734" lon="14.2481317"><ele>308.0</ele><time>2026-04-26T09:20:21.285Z</time></trkpt><trkpt lat="42.2732843" lon="14.2480057"><ele>308.0</ele><time>2026-04-26T09:20:22.285Z</time></trkpt><trkpt lat="42.2731867" lon="14.247858"><ele>308.0</ele><time>2026-04-26T09:20:23.285Z</time></trkpt><trkpt lat="42.273118" lon="14.2476888"><ele>307.0</ele><time>2026-04-26T09:20:24.286Z</time></trkpt><trkpt lat="42.2730685" lon="14.2475015"><ele>306.0</ele><time>2026-04-26T09:20:25.286Z</time></trkpt><trkpt lat="42.2730252" lon="14.2472933"><ele>305.0</ele><time>2026-04-26T09:20:26.288Z</time></trkpt><trkpt lat="42.2729897" lon="14.2470775"><ele>297.6666666666667</ele><time>2026-04-26T09:20:27.287Z</time></trkpt><trkpt lat="42.2729547" lon="14.246866"><ele>290.3333333333333</ele><time>2026-04-26T09:20:28.285Z</time></trkpt><trkpt lat="42.2729232" lon="14.2466558"><ele>283.0</ele><time>2026-04-26T09:20:29.285Z</time></trkpt><trkpt lat="42.2728957" lon="14.2464572"><ele>280.75</ele><time>2026-04-26T09:20:30.286Z</time></trkpt><trkpt lat="42.2728778" lon="14.2462922"><ele>278.5</ele><time>2026-04-26T09:20:31.287Z</time></trkpt><trkpt lat="42.2728552" lon="14.2461458"><ele>276.25</ele><time>2026-04-26T09:20:32.286Z</time></trkpt><trkpt lat="42.2728125" lon="14.2459975"><ele>274.0</ele><time>2026-04-26T09:20:33.286Z</time></trkpt><trkpt lat="42.2727428" lon="14.245842"><ele>274.0</ele><time>2026-04-26T09:20:34.285Z</time></trkpt><trkpt lat="42.2726463" lon="14.2456797"><ele>274.0</ele><time>2026-04-26T09:20:35.286Z</time></trkpt><trkpt lat="42.272536" lon="14.2455032"><ele>274.0</ele><time>2026-04-26T09:20:36.286Z</time></trkpt><trkpt lat="42.2724235" lon="14.2453142"><ele>274.3333333333333</ele><time>2026-04-26T09:20:37.287Z</time></trkpt><trkpt lat="42.2723253" lon="14.2451062"><ele>274.6666666666667</ele><time>2026-04-26T09:20:38.286Z</time></trkpt><trkpt lat="42.272231" lon="14.244899"><ele>275.0</ele><time>2026-04-26T09:20:39.287Z</time></trkpt><trkpt lat="42.2721305" lon="14.2447153"><ele>277.5</ele><time>2026-04-26T09:20:40.287Z</time></trkpt><trkpt lat="42.2720293" lon="14.24457"><ele>280.0</ele><time>2026-04-26T09:20:41.286Z</time></trkpt><trkpt lat="42.271915" lon="14.244452"><ele>282.5</ele><time>2026-04-26T09:20:42.287Z</time></trkpt><trkpt lat="42.2718002" lon="14.2443678"><ele>285.0</ele><time>2026-04-26T09:20:43.285Z</time></trkpt><trkpt lat="42.2716928" lon="14.244321"><ele>285.0</ele><time>2026-04-26T09:20:44.285Z</time></trkpt><trkpt lat="42.2715875" lon="14.244301"><ele>285.0</ele><time>2026-04-26T09:20:45.287Z</time></trkpt><trkpt lat="42.2714718" lon="14.2442847"><ele>285.0</ele><time>2026-04-26T09:20:46.286Z</time></trkpt><trkpt lat="42.2713437" lon="14.2442508"><ele>285.0</ele><time>2026-04-26T09:20:47.289Z</time></trkpt><trkpt lat="42.2712125" lon="14.2441838"><ele>283.6666666666667</ele><time>2026-04-26T09:20:48.29Z</time></trkpt><trkpt lat="42.2710727" lon="14.2440843"><ele>282.33333333333337</ele><time>2026-04-26T09:20:49.287Z</time></trkpt><trkpt lat="42.2709183" lon="14.2439747"><ele>281.0</ele><time>2026-04-26T09:20:50.288Z</time></trkpt><trkpt lat="42.2707555" lon="14.2438548"><ele>283.33333333333337</ele><time>2026-04-26T09:20:51.288Z</time></trkpt><trkpt lat="42.2705952" lon="14.2437155"><ele>285.6666666666667</ele><time>2026-04-26T09:20:52.289Z</time></trkpt><trkpt lat="42.2704457" lon="14.24355"><ele>288.0</ele><time>2026-04-26T09:20:53.288Z</time></trkpt><trkpt lat="42.2703025" lon="14.243374"><ele>288.0</ele><time>2026-04-26T09:20:54.287Z</time></trkpt><trkpt lat="42.2701693" lon="14.243214"><ele>288.0</ele><time>2026-04-26T09:20:55.287Z</time></trkpt><trkpt lat="42.2700508" lon="14.243085"><ele>288.0</ele><time>2026-04-26T09:20:56.289Z</time></trkpt><trkpt lat="42.2699428" lon="14.2429733"><ele>289.25</ele><time>2026-04-26T09:20:57.287Z</time></trkpt><trkpt lat="42.2698327" lon="14.2428643"><ele>290.5</ele><time>2026-04-26T09:20:58.286Z</time></trkpt><trkpt lat="42.2697133" lon="14.2427488"><ele>291.75</ele><time>2026-04-26T09:20:59.287Z</time></trkpt><trkpt lat="42.2695825" lon="14.2426277"><ele>293.0</ele><time>2026-04-26T09:21:00.288Z</time></trkpt><trkpt lat="42.269447" lon="14.2425135"><ele>293.0</ele><time>2026-04-26T09:21:01.288Z</time></trkpt><trkpt lat="42.269321" lon="14.2424087"><ele>293.0</ele><time>2026-04-26T09:21:02.287Z</time></trkpt><trkpt lat="42.269202" lon="14.2422847"><ele>293.0</ele><time>2026-04-26T09:21:03.288Z</time></trkpt><trkpt lat="42.2691005" lon="14.2421313"><ele>295.0</ele><time>2026-04-26T09:21:04.289Z</time></trkpt><trkpt lat="42.269017" lon="14.2419575"><ele>297.0</ele><time>2026-04-26T09:21:05.286Z</time></trkpt><trkpt lat="42.2689412" lon="14.2417903"><ele>299.0</ele><time>2026-04-26T09:21:06.291Z</time></trkpt><trkpt lat="42.2688745" lon="14.241665"><ele>301.0</ele><time>2026-04-26T09:21:07.285Z</time></trkpt><trkpt lat="42.2688013" lon="14.2415857"><ele>301.25</ele><time>2026-04-26T09:21:08.286Z</time></trkpt><trkpt lat="42.2687077" lon="14.2415343"><ele>301.5</ele><time>2026-04-26T09:21:09.284Z</time></trkpt><trkpt lat="42.268598" lon="14.241489"><ele>301.75</ele><time>2026-04-26T09:21:10.285Z</time></trkpt><trkpt lat="42.2684747" lon="14.2414432"><ele>302.0</ele><time>2026-04-26T09:21:11.288Z</time></trkpt><trkpt lat="42.268335" lon="14.2413927"><ele>304.0</ele><time>2026-04-26T09:21:12.289Z</time></trkpt><trkpt lat="42.2681852" lon="14.241328"><ele>306.0</ele><time>2026-04-26T09:21:13.289Z</time></trkpt><trkpt lat="42.2680497" lon="14.2412522"><ele>308.0</ele><time>2026-04-26T09:21:14.286Z</time></trkpt><trkpt lat="42.2679287" lon="14.241161"><ele>310.0</ele><time>2026-04-26T09:21:15.288Z</time></trkpt><trkpt lat="42.2678182" lon="14.2410485"><ele>310.0</ele><time>2026-04-26T09:21:16.287Z</time></trkpt><trkpt lat="42.2677128" lon="14.2409132"><ele>310.0</ele><time>2026-04-26T09:21:17.287Z</time></trkpt><trkpt lat="42.2676203" lon="14.240772"><ele>310.0</ele><time>2026-04-26T09:21:18.287Z</time></trkpt><trkpt lat="42.2675435" lon="14.2406233"><ele>310.0</ele><time>2026-04-26T09:21:19.287Z</time></trkpt><trkpt lat="42.2674767" lon="14.2404575"><ele>311.25</ele><time>2026-04-26T09:21:20.285Z</time></trkpt><trkpt lat="42.2674063" lon="14.2402842"><ele>312.5</ele><time>2026-04-26T09:21:21.287Z</time></trkpt><trkpt lat="42.2673232" lon="14.2401245"><ele>313.75</ele><time>2026-04-26T09:21:22.286Z</time></trkpt><trkpt lat="42.267254" lon="14.239972"><ele>315.0</ele><time>2026-04-26T09:21:23.285Z</time></trkpt><trkpt lat="42.2672092" lon="14.2398093"><ele>319.0</ele><time>2026-04-26T09:21:24.286Z</time></trkpt><trkpt lat="42.2671877" lon="14.2396335"><ele>323.0</ele><time>2026-04-26T09:21:25.287Z</time></trkpt><trkpt lat="42.2671562" lon="14.2394563"><ele>327.0</ele><time>2026-04-26T09:21:26.285Z</time></trkpt><trkpt lat="42.2671202" lon="14.2392963"><ele>331.0</ele><time>2026-04-26T09:21:27.286Z</time></trkpt><trkpt lat="42.2670817" lon="14.2391435"><ele>331.0</ele><time>2026-04-26T09:21:28.286Z</time></trkpt><trkpt lat="42.267024" lon="14.239017"><ele>331.0</ele><time>2026-04-26T09:21:29.285Z</time></trkpt><trkpt lat="42.2669475" lon="14.2389207"><ele>331.0</ele><time>2026-04-26T09:21:30.285Z</time></trkpt><trkpt lat="42.2668568" lon="14.2388432"><ele>331.0</ele><time>2026-04-26T09:21:31.285Z</time></trkpt><trkpt lat="42.2667698" lon="14.2387652"><ele>331.0</ele><time>2026-04-26T09:21:32.285Z</time></trkpt><trkpt lat="42.2666958" lon="14.2386787"><ele>331.20000000000005</ele><time>2026-04-26T09:21:33.285Z</time></trkpt><trkpt lat="42.2666145" lon="14.2385685"><ele>331.40000000000003</ele><time>2026-04-26T09:21:34.282Z</time></trkpt><trkpt lat="42.2665358" lon="14.2384758"><ele>331.6</ele><time>2026-04-26T09:21:35.283Z</time></trkpt><trkpt lat="42.266463" lon="14.2383842"><ele>331.8</ele><time>2026-04-26T09:21:36.286Z</time></trkpt><trkpt lat="42.2663777" lon="14.2382727"><ele>332.0</ele><time>2026-04-26T09:21:37.286Z</time></trkpt><trkpt lat="42.2662758" lon="14.2381587"><ele>333.25</ele><time>2026-04-26T09:21:38.284Z</time></trkpt><trkpt lat="42.2661503" lon="14.238053"><ele>334.5</ele><time>2026-04-26T09:21:39.286Z</time></trkpt><trkpt lat="42.2660207" lon="14.2379665"><ele>335.75</ele><time>2026-04-26T09:21:40.286Z</time></trkpt><trkpt lat="42.2658987" lon="14.2378859"><ele>337.0</ele><time>2026-04-26T09:21:41.286Z</time></trkpt><trkpt lat="42.2657868" lon="14.2377994"><ele>337.0</ele><time>2026-04-26T09:21:42.287Z</time></trkpt><trkpt lat="42.2656854" lon="14.2377002"><ele>337.0</ele><time>2026-04-26T09:21:43.287Z</time></trkpt><trkpt lat="42.2655896" lon="14.237574"><ele>337.0</ele><time>2026-04-26T09:21:44.287Z</time></trkpt><trkpt lat="42.2655028" lon="14.2374166"><ele>337.0</ele><time>2026-04-26T09:21:45.287Z</time></trkpt><trkpt lat="42.2652971" lon="14.2368646"><ele>339.0</ele><time>2026-04-26T09:21:48.287Z</time></trkpt><trkpt lat="42.2652392" lon="14.2367047"><ele>341.0</ele><time>2026-04-26T09:21:49.287Z</time></trkpt><trkpt lat="42.2651006" lon="14.2364153"><ele>343.0</ele><time>2026-04-26T09:21:52.289Z</time></trkpt><trkpt lat="42.2650502" lon="14.2363138"><ele>343.0</ele><time>2026-04-26T09:21:53.288Z</time></trkpt><trkpt lat="42.2648923" lon="14.2360957"><ele>343.0</ele><time>2026-04-26T09:21:56.285Z</time></trkpt><trkpt lat="42.264808" lon="14.2360329"><ele>343.0</ele><time>2026-04-26T09:21:58.285Z</time></trkpt><trkpt lat="42.2647463" lon="14.2360155"><ele>343.0</ele><time>2026-04-26T09:22:09.287Z</time></trkpt><trkpt lat="42.2646816" lon="14.2360711"><ele>344.2</ele><time>2026-04-26T09:22:11.286Z</time></trkpt><trkpt lat="42.2646297" lon="14.2361306"><ele>345.4</ele><time>2026-04-26T09:22:12.287Z</time></trkpt><trkpt lat="42.2645712" lon="14.2362094"><ele>346.59999999999997</ele><time>2026-04-26T09:22:13.287Z</time></trkpt><trkpt lat="42.264505" lon="14.2362982"><ele>347.79999999999995</ele><time>2026-04-26T09:22:14.286Z</time></trkpt><trkpt lat="42.2643422" lon="14.2364539"><ele>349.0</ele><time>2026-04-26T09:22:16.288Z</time></trkpt><trkpt lat="42.2640718" lon="14.2366093"><ele>347.66666666666663</ele><time>2026-04-26T09:22:19.287Z</time></trkpt><trkpt lat="42.2637778" lon="14.2368042"><ele>346.3333333333333</ele><time>2026-04-26T09:22:22.285Z</time></trkpt><trkpt lat="42.2636838" lon="14.236809"><ele>345.0</ele><time>2026-04-26T09:22:23.286Z</time></trkpt><trkpt lat="42.2634935" lon="14.2367552"><ele>345.0</ele><time>2026-04-26T09:22:26.286Z</time></trkpt><trkpt lat="42.2632283" lon="14.2367615"><ele>345.0</ele><time>2026-04-26T09:22:45.287Z</time></trkpt><trkpt lat="42.2631395" lon="14.2368117"><ele>345.0</ele><time>2026-04-26T09:22:46.285Z</time></trkpt><trkpt lat="42.2630395" lon="14.2368767"><ele>344.5</ele><time>2026-04-26T09:22:47.287Z</time></trkpt><trkpt lat="42.2629298" lon="14.2369403"><ele>344.0</ele><time>2026-04-26T09:22:48.286Z</time></trkpt><trkpt lat="42.2628112" lon="14.236996"><ele>343.5</ele><time>2026-04-26T09:22:49.287Z</time></trkpt><trkpt lat="42.2626923" lon="14.2370425"><ele>343.0</ele><time>2026-04-26T09:22:50.291Z</time></trkpt><trkpt lat="42.2625857" lon="14.2370873"><ele>343.0</ele><time>2026-04-26T09:22:51.288Z</time></trkpt><trkpt lat="42.2623753" lon="14.2371623"><ele>343.0</ele><time>2026-04-26T09:22:53.287Z</time></trkpt><trkpt lat="42.261936" lon="14.2372023"><ele>346.0</ele><time>2026-04-26T09:22:57.287Z</time></trkpt><trkpt lat="42.26182" lon="14.2372303"><ele>349.0</ele><time>2026-04-26T09:22:58.286Z</time></trkpt><trkpt lat="42.2614425" lon="14.2374085"><ele>349.0</ele><time>2026-04-26T09:23:02.286Z</time></trkpt><trkpt lat="42.2612513" lon="14.2375157"><ele>349.0</ele><time>2026-04-26T09:23:04.287Z</time></trkpt><trkpt lat="42.2608652" lon="14.2379912"><ele>347.3333333333333</ele><time>2026-04-26T09:23:09.286Z</time></trkpt><trkpt lat="42.2607897" lon="14.2381577"><ele>345.6666666666667</ele><time>2026-04-26T09:23:10.285Z</time></trkpt><trkpt lat="42.2607095" lon="14.2383375"><ele>344.0</ele><time>2026-04-26T09:23:11.283Z</time></trkpt><trkpt lat="42.2606347" lon="14.2385368"><ele>345.5</ele><time>2026-04-26T09:23:12.285Z</time></trkpt><trkpt lat="42.2605655" lon="14.238722"><ele>347.0</ele><time>2026-04-26T09:23:13.285Z</time></trkpt><trkpt lat="42.2604947" lon="14.2388698"><ele>348.5</ele><time>2026-04-26T09:23:14.286Z</time></trkpt><trkpt lat="42.26042" lon="14.2389697"><ele>350.0</ele><time>2026-04-26T09:23:15.286Z</time></trkpt><trkpt lat="42.2603232" lon="14.2390468"><ele>351.2</ele><time>2026-04-26T09:23:16.287Z</time></trkpt><trkpt lat="42.2602092" lon="14.2391342"><ele>352.4</ele><time>2026-04-26T09:23:17.285Z</time></trkpt><trkpt lat="42.2601012" lon="14.2392143"><ele>353.6</ele><time>2026-04-26T09:23:18.289Z</time></trkpt><trkpt lat="42.2600057" lon="14.239253"><ele>354.8</ele><time>2026-04-26T09:23:19.287Z</time></trkpt><trkpt lat="42.2599295" lon="14.2392525"><ele>356.0</ele><time>2026-04-26T09:23:20.287Z</time></trkpt><trkpt lat="42.2598553" lon="14.2392298"><ele>357.25</ele><time>2026-04-26T09:23:21.286Z</time></trkpt><trkpt lat="42.2597653" lon="14.2391955"><ele>358.5</ele><time>2026-04-26T09:23:22.286Z</time></trkpt><trkpt lat="42.2596625" lon="14.2391578"><ele>359.75</ele><time>2026-04-26T09:23:23.285Z</time></trkpt><trkpt lat="42.2595415" lon="14.2391282"><ele>361.0</ele><time>2026-04-26T09:23:24.285Z</time></trkpt><trkpt lat="42.2594145" lon="14.2391033"><ele>361.0</ele><time>2026-04-26T09:23:25.285Z</time></trkpt><trkpt lat="42.259308" lon="14.2391058"><ele>361.0</ele><time>2026-04-26T09:23:26.286Z</time></trkpt><trkpt lat="42.2592435" lon="14.2391412"><ele>361.0</ele><time>2026-04-26T09:23:27.287Z</time></trkpt><trkpt lat="42.2591825" lon="14.2391858"><ele>361.0</ele><time>2026-04-26T09:23:28.287Z</time></trkpt><trkpt lat="42.2590982" lon="14.2391992"><ele>361.0</ele><time>2026-04-26T09:23:29.286Z</time></trkpt><trkpt lat="42.2589885" lon="14.2391993"><ele>361.0</ele><time>2026-04-26T09:23:30.285Z</time></trkpt><trkpt lat="42.2588712" lon="14.2391763"><ele>362.6</ele><time>2026-04-26T09:23:31.289Z</time></trkpt><trkpt lat="42.2587672" lon="14.2391643"><ele>364.20000000000005</ele><time>2026-04-26T09:23:32.286Z</time></trkpt><trkpt lat="42.2586715" lon="14.2391913"><ele>365.79999999999995</ele><time>2026-04-26T09:23:33.289Z</time></trkpt><trkpt lat="42.2585622" lon="14.2392395"><ele>367.4</ele><time>2026-04-26T09:23:34.286Z</time></trkpt><trkpt lat="42.258449" lon="14.2393055"><ele>369.0</ele><time>2026-04-26T09:23:35.285Z</time></trkpt><trkpt lat="42.2583323" lon="14.2393858"><ele>369.0</ele><time>2026-04-26T09:23:36.287Z</time></trkpt><trkpt lat="42.2582105" lon="14.2394748"><ele>369.0</ele><time>2026-04-26T09:23:37.287Z</time></trkpt><trkpt lat="42.2580898" lon="14.2395797"><ele>369.0</ele><time>2026-04-26T09:23:38.287Z</time></trkpt><trkpt lat="42.257975" lon="14.2396993"><ele>369.0</ele><time>2026-04-26T09:23:39.287Z</time></trkpt><trkpt lat="42.2578795" lon="14.2398087"><ele>367.25</ele><time>2026-04-26T09:23:40.288Z</time></trkpt><trkpt lat="42.2577983" lon="14.239899"><ele>365.5</ele><time>2026-04-26T09:23:41.291Z</time></trkpt><trkpt lat="42.2577215" lon="14.2399618"><ele>363.75</ele><time>2026-04-26T09:23:42.287Z</time></trkpt><trkpt lat="42.2576372" lon="14.2400083"><ele>362.0</ele><time>2026-04-26T09:23:43.287Z</time></trkpt><trkpt lat="42.2573547" lon="14.2400245"><ele>360.33333333333337</ele><time>2026-04-26T09:23:46.287Z</time></trkpt><trkpt lat="42.2572668" lon="14.239979"><ele>358.6666666666667</ele><time>2026-04-26T09:23:47.289Z</time></trkpt><trkpt lat="42.2570135" lon="14.2397447"><ele>357.0</ele><time>2026-04-26T09:23:50.287Z</time></trkpt><trkpt lat="42.2569315" lon="14.2396623"><ele>357.0</ele><time>2026-04-26T09:23:51.289Z</time></trkpt><trkpt lat="42.2564773" lon="14.2393662"><ele>354.0</ele><time>2026-04-26T09:23:57.288Z</time></trkpt><trkpt lat="42.256371" lon="14.2392762"><ele>351.0</ele><time>2026-04-26T09:23:58.285Z</time></trkpt><trkpt lat="42.2562602" lon="14.2391818"><ele>348.0</ele><time>2026-04-26T09:23:59.285Z</time></trkpt><trkpt lat="42.2561533" lon="14.239086"><ele>345.0</ele><time>2026-04-26T09:24:00.286Z</time></trkpt><trkpt lat="42.2560502" lon="14.2389965"><ele>345.0</ele><time>2026-04-26T09:24:01.285Z</time></trkpt><trkpt lat="42.2559522" lon="14.2389123"><ele>345.0</ele><time>2026-04-26T09:24:02.286Z</time></trkpt><trkpt lat="42.2555747" lon="14.2386795"><ele>344.6666666666667</ele><time>2026-04-26T09:24:08.287Z</time></trkpt><trkpt lat="42.2554272" lon="14.2390355"><ele>344.33333333333337</ele><time>2026-04-26T09:24:15.289Z</time></trkpt><trkpt lat="42.2553442" lon="14.2391723"><ele>344.0</ele><time>2026-04-26T09:24:17.287Z</time></trkpt><trkpt lat="42.255268" lon="14.2392423"><ele>344.0</ele><time>2026-04-26T09:24:19.29Z</time></trkpt><trkpt lat="42.2553672" lon="14.2392"><ele>344.0</ele><time>2026-04-26T09:24:25.285Z</time></trkpt><trkpt lat="42.2554173" lon="14.2391377"><ele>344.0</ele><time>2026-04-26T09:24:26.284Z</time></trkpt><trkpt lat="42.2554652" lon="14.2390512"><ele>344.0</ele><time>2026-04-26T09:24:27.287Z</time></trkpt><trkpt lat="42.2555028" lon="14.2389453"><ele>344.0</ele><time>2026-04-26T09:24:28.287Z</time></trkpt><trkpt lat="42.2555283" lon="14.2388412"><ele>344.0</ele><time>2026-04-26T09:24:29.287Z</time></trkpt><trkpt lat="42.2555402" lon="14.2387462"><ele>344.5</ele><time>2026-04-26T09:24:30.287Z</time></trkpt><trkpt lat="42.255541" lon="14.2386478"><ele>345.0</ele><time>2026-04-26T09:24:31.287Z</time></trkpt><trkpt lat="42.2548153" lon="14.2380733"><ele>336.0</ele><time>2026-04-26T09:24:41.285Z</time></trkpt><trkpt lat="42.2544623" lon="14.2379995"><ele>327.0</ele><time>2026-04-26T09:24:44.286Z</time></trkpt><trkpt lat="42.2543442" lon="14.237955"><ele>342.0</ele><time>2026-04-26T09:24:45.285Z</time></trkpt><trkpt lat="42.2536975" lon="14.2374083"><ele>338.0</ele><time>2026-04-26T09:24:50.283Z</time></trkpt><trkpt lat="42.2535887" lon="14.2372442"><ele>334.0</ele><time>2026-04-26T09:24:51.285Z</time></trkpt><trkpt lat="42.2534998" lon="14.2370577"><ele>330.0</ele><time>2026-04-26T09:24:52.287Z</time></trkpt><trkpt lat="42.2534237" lon="14.2368507"><ele>330.0</ele><time>2026-04-26T09:24:53.284Z</time></trkpt><trkpt lat="42.2533542" lon="14.236638"><ele>330.0</ele><time>2026-04-26T09:24:54.287Z</time></trkpt><trkpt lat="42.253285" lon="14.2364165"><ele>330.0</ele><time>2026-04-26T09:24:55.287Z</time></trkpt><trkpt lat="42.2532132" lon="14.2361892"><ele>330.6666666666667</ele><time>2026-04-26T09:24:56.286Z</time></trkpt><trkpt lat="42.2531437" lon="14.2359682"><ele>331.33333333333337</ele><time>2026-04-26T09:24:57.288Z</time></trkpt><trkpt lat="42.2530803" lon="14.2357623"><ele>332.0</ele><time>2026-04-26T09:24:58.287Z</time></trkpt><trkpt lat="42.2530113" lon="14.2355723"><ele>327.5</ele><time>2026-04-26T09:24:59.289Z</time></trkpt><trkpt lat="42.252926" lon="14.2354035"><ele>323.0</ele><time>2026-04-26T09:25:00.287Z</time></trkpt><trkpt lat="42.2528183" lon="14.2352702"><ele>318.5</ele><time>2026-04-26T09:25:01.286Z</time></trkpt><trkpt lat="42.252686" lon="14.2351733"><ele>314.0</ele><time>2026-04-26T09:25:02.286Z</time></trkpt><trkpt lat="42.2525445" lon="14.2350905"><ele>314.0</ele><time>2026-04-26T09:25:03.288Z</time></trkpt><trkpt lat="42.2524128" lon="14.234994"><ele>314.0</ele><time>2026-04-26T09:25:04.287Z</time></trkpt><trkpt lat="42.2522843" lon="14.2348673"><ele>314.0</ele><time>2026-04-26T09:25:05.287Z</time></trkpt><trkpt lat="42.2521625" lon="14.2347132"><ele>315.33333333333337</ele><time>2026-04-26T09:25:06.285Z</time></trkpt><trkpt lat="42.2520465" lon="14.2345367"><ele>316.6666666666667</ele><time>2026-04-26T09:25:07.285Z</time></trkpt><trkpt lat="42.2519445" lon="14.234359"><ele>318.0</ele><time>2026-04-26T09:25:08.286Z</time></trkpt><trkpt lat="42.2518568" lon="14.2341832"><ele>318.0</ele><time>2026-04-26T09:25:09.286Z</time></trkpt><trkpt lat="42.251795" lon="14.2340185"><ele>318.0</ele><time>2026-04-26T09:25:10.285Z</time></trkpt><trkpt lat="42.2517723" lon="14.2338667"><ele>318.0</ele><time>2026-04-26T09:25:11.285Z</time></trkpt><trkpt lat="42.2517927" lon="14.2337352"><ele>318.0</ele><time>2026-04-26T09:25:12.285Z</time></trkpt><trkpt lat="42.2518507" lon="14.2336375"><ele>318.0</ele><time>2026-04-26T09:25:13.285Z</time></trkpt><trkpt lat="42.2519277" lon="14.2335982"><ele>318.0</ele><time>2026-04-26T09:25:14.283Z</time></trkpt><trkpt lat="42.2520028" lon="14.2336168"><ele>318.0</ele><time>2026-04-26T09:25:15.285Z</time></trkpt><trkpt lat="42.252076" lon="14.2336837"><ele>318.0</ele><time>2026-04-26T09:25:16.288Z</time></trkpt><trkpt lat="42.2521437" lon="14.2337935"><ele>318.0</ele><time>2026-04-26T09:25:17.287Z</time></trkpt><trkpt lat="42.2522065" lon="14.2339327"><ele>318.0</ele><time>2026-04-26T09:25:18.289Z</time></trkpt><trkpt lat="42.2522785" lon="14.2340802"><ele>312.5</ele><time>2026-04-26T09:25:19.29Z</time></trkpt><trkpt lat="42.2523638" lon="14.2342073"><ele>307.0</ele><time>2026-04-26T09:25:20.288Z</time></trkpt><trkpt lat="42.2524725" lon="14.2343118"><ele>301.5</ele><time>2026-04-26T09:25:21.286Z</time></trkpt><trkpt lat="42.252603" lon="14.2343823"><ele>296.0</ele><time>2026-04-26T09:25:22.287Z</time></trkpt><trkpt lat="42.2527487" lon="14.2344175"><ele>296.0</ele><time>2026-04-26T09:25:23.288Z</time></trkpt><trkpt lat="42.2529058" lon="14.2344285"><ele>296.0</ele><time>2026-04-26T09:25:24.287Z</time></trkpt><trkpt lat="42.2530725" lon="14.2344285"><ele>296.0</ele><time>2026-04-26T09:25:25.287Z</time></trkpt><trkpt lat="42.253247" lon="14.2344297"><ele>293.6666666666667</ele><time>2026-04-26T09:25:26.289Z</time></trkpt><trkpt lat="42.2534207" lon="14.2344415"><ele>291.3333333333333</ele><time>2026-04-26T09:25:27.29Z</time></trkpt><trkpt lat="42.253587" lon="14.2344732"><ele>289.0</ele><time>2026-04-26T09:25:28.289Z</time></trkpt><trkpt lat="42.2537492" lon="14.2345343"><ele>289.0</ele><time>2026-04-26T09:25:29.289Z</time></trkpt><trkpt lat="42.2539102" lon="14.2346188"><ele>289.0</ele><time>2026-04-26T09:25:30.29Z</time></trkpt><trkpt lat="42.2540738" lon="14.2347155"><ele>289.0</ele><time>2026-04-26T09:25:31.287Z</time></trkpt><trkpt lat="42.2542397" lon="14.234817"><ele>290.3333333333333</ele><time>2026-04-26T09:25:32.287Z</time></trkpt><trkpt lat="42.2544037" lon="14.2349227"><ele>291.6666666666667</ele><time>2026-04-26T09:25:33.288Z</time></trkpt><trkpt lat="42.2545588" lon="14.235024"><ele>293.0</ele><time>2026-04-26T09:25:34.288Z</time></trkpt><trkpt lat="42.2547163" lon="14.235116"><ele>290.0</ele><time>2026-04-26T09:25:35.288Z</time></trkpt><trkpt lat="42.2548835" lon="14.2351917"><ele>287.0</ele><time>2026-04-26T09:25:36.285Z</time></trkpt><trkpt lat="42.2550617" lon="14.2352435"><ele>284.0</ele><time>2026-04-26T09:25:37.283Z</time></trkpt><trkpt lat="42.2552457" lon="14.2352703"><ele>284.0</ele><time>2026-04-26T09:25:38.286Z</time></trkpt><trkpt lat="42.255424" lon="14.2352838"><ele>284.0</ele><time>2026-04-26T09:25:39.285Z</time></trkpt><trkpt lat="42.2556048" lon="14.2352987"><ele>284.0</ele><time>2026-04-26T09:25:40.285Z</time></trkpt><trkpt lat="42.2557823" lon="14.2352972"><ele>281.33333333333337</ele><time>2026-04-26T09:25:41.286Z</time></trkpt><trkpt lat="42.2559452" lon="14.2352665"><ele>278.6666666666667</ele><time>2026-04-26T09:25:42.287Z</time></trkpt><trkpt lat="42.2560897" lon="14.2351972"><ele>276.0</ele><time>2026-04-26T09:25:43.286Z</time></trkpt><trkpt lat="42.2562283" lon="14.2350862"><ele>276.0</ele><time>2026-04-26T09:25:44.286Z</time></trkpt><trkpt lat="42.256368" lon="14.234951"><ele>276.0</ele><time>2026-04-26T09:25:45.289Z</time></trkpt><trkpt lat="42.256504" lon="14.2348208"><ele>276.0</ele><time>2026-04-26T09:25:46.287Z</time></trkpt><trkpt lat="42.2566308" lon="14.234704"><ele>274.0</ele><time>2026-04-26T09:25:47.289Z</time></trkpt><trkpt lat="42.2567433" lon="14.234601"><ele>272.0</ele><time>2026-04-26T09:25:48.287Z</time></trkpt><trkpt lat="42.2568318" lon="14.2345162"><ele>270.0</ele><time>2026-04-26T09:25:49.287Z</time></trkpt><trkpt lat="42.2568917" lon="14.2344542"><ele>268.0</ele><time>2026-04-26T09:25:50.287Z</time></trkpt><trkpt lat="42.256933" lon="14.2343443"><ele>266.0</ele><time>2026-04-26T09:25:52.29Z</time></trkpt><trkpt lat="42.2568842" lon="14.234263"><ele>266.0</ele><time>2026-04-26T09:25:54.287Z</time></trkpt><trkpt lat="42.2567627" lon="14.2342602"><ele>266.0</ele><time>2026-04-26T09:25:56.288Z</time></trkpt><trkpt lat="42.2566772" lon="14.2342695"><ele>266.0</ele><time>2026-04-26T09:25:57.287Z</time></trkpt><trkpt lat="42.2565785" lon="14.2342877"><ele>266.0</ele><time>2026-04-26T09:25:58.289Z</time></trkpt><trkpt lat="42.2563705" lon="14.234313"><ele>266.0</ele><time>2026-04-26T09:26:00.287Z</time></trkpt><trkpt lat="42.2560405" lon="14.2343172"><ele>266.0</ele><time>2026-04-26T09:26:03.287Z</time></trkpt><trkpt lat="42.25592" lon="14.2342692"><ele>256.0</ele><time>2026-04-26T09:26:04.286Z</time></trkpt><trkpt lat="42.255605" lon="14.2335162"><ele>256.0</ele><time>2026-04-26T09:26:09.287Z</time></trkpt><trkpt lat="42.2555918" lon="14.2333275"><ele>256.0</ele><time>2026-04-26T09:26:10.289Z</time></trkpt><trkpt lat="42.2555913" lon="14.2331572"><ele>256.0</ele><time>2026-04-26T09:26:11.288Z</time></trkpt><trkpt lat="42.2558532" lon="14.2326277"><ele>248.0</ele><time>2026-04-26T09:26:15.289Z</time></trkpt><trkpt lat="42.2564315" lon="14.2322885"><ele>246.0</ele><time>2026-04-26T09:26:19.288Z</time></trkpt><trkpt lat="42.2565777" lon="14.2322535"><ele>244.0</ele><time>2026-04-26T09:26:20.291Z</time></trkpt><trkpt lat="42.2571605" lon="14.2320667"><ele>244.0</ele><time>2026-04-26T09:26:25.285Z</time></trkpt><trkpt lat="42.257263" lon="14.2319538"><ele>244.0</ele><time>2026-04-26T09:26:26.286Z</time></trkpt><trkpt lat="42.2573685" lon="14.2318127"><ele>244.0</ele><time>2026-04-26T09:26:27.286Z</time></trkpt><trkpt lat="42.2574842" lon="14.2316463"><ele>221.0</ele><time>2026-04-26T09:26:28.289Z</time></trkpt><trkpt lat="42.258203" lon="14.2305975"><ele>221.0</ele><time>2026-04-26T09:26:34.29Z</time></trkpt><trkpt lat="42.2582673" lon="14.2303827"><ele>221.0</ele><time>2026-04-26T09:26:35.287Z</time></trkpt><trkpt lat="42.2583153" lon="14.230143"><ele>221.0</ele><time>2026-04-26T09:26:36.288Z</time></trkpt><trkpt lat="42.2583587" lon="14.2299012"><ele>220.0</ele><time>2026-04-26T09:26:37.287Z</time></trkpt><trkpt lat="42.2584017" lon="14.2296742"><ele>219.0</ele><time>2026-04-26T09:26:38.291Z</time></trkpt><trkpt lat="42.2584338" lon="14.229466"><ele>218.0</ele><time>2026-04-26T09:26:39.289Z</time></trkpt><trkpt lat="42.2584422" lon="14.2292812"><ele>218.0</ele><time>2026-04-26T09:26:40.289Z</time></trkpt><trkpt lat="42.2584143" lon="14.2291193"><ele>218.0</ele><time>2026-04-26T09:26:41.289Z</time></trkpt><trkpt lat="42.2583505" lon="14.2289892"><ele>218.0</ele><time>2026-04-26T09:26:42.287Z</time></trkpt><trkpt lat="42.2582563" lon="14.2288947"><ele>218.0</ele><time>2026-04-26T09:26:43.287Z</time></trkpt><trkpt lat="42.258139" lon="14.2288467"><ele>216.25</ele><time>2026-04-26T09:26:44.29Z</time></trkpt><trkpt lat="42.2580092" lon="14.2288503"><ele>214.5</ele><time>2026-04-26T09:26:45.289Z</time></trkpt><trkpt lat="42.2578715" lon="14.2289067"><ele>212.75</ele><time>2026-04-26T09:26:46.29Z</time></trkpt><trkpt lat="42.2577262" lon="14.2290063"><ele>211.0</ele><time>2026-04-26T09:26:47.288Z</time></trkpt><trkpt lat="42.2575732" lon="14.2291283"><ele>211.0</ele><time>2026-04-26T09:26:48.29Z</time></trkpt><trkpt lat="42.2574212" lon="14.2292443"><ele>211.0</ele><time>2026-04-26T09:26:49.289Z</time></trkpt><trkpt lat="42.2572733" lon="14.2293342"><ele>211.0</ele><time>2026-04-26T09:26:50.287Z</time></trkpt><trkpt lat="42.2571378" lon="14.2293752"><ele>210.75</ele><time>2026-04-26T09:26:51.286Z</time></trkpt><trkpt lat="42.2570138" lon="14.2293537"><ele>210.5</ele><time>2026-04-26T09:26:52.285Z</time></trkpt><trkpt lat="42.2569075" lon="14.2292793"><ele>210.25</ele><time>2026-04-26T09:26:53.285Z</time></trkpt><trkpt lat="42.2568288" lon="14.2291588"><ele>210.0</ele><time>2026-04-26T09:26:54.289Z</time></trkpt><trkpt lat="42.2567868" lon="14.2290065"><ele>209.75</ele><time>2026-04-26T09:26:55.288Z</time></trkpt><trkpt lat="42.2567808" lon="14.2288408"><ele>209.5</ele><time>2026-04-26T09:26:56.287Z</time></trkpt><trkpt lat="42.2568033" lon="14.2286665"><ele>209.25</ele><time>2026-04-26T09:26:57.287Z</time></trkpt><trkpt lat="42.2568593" lon="14.2285035"><ele>209.0</ele><time>2026-04-26T09:26:58.287Z</time></trkpt><trkpt lat="42.2569455" lon="14.2283538"><ele>209.0</ele><time>2026-04-26T09:26:59.288Z</time></trkpt><trkpt lat="42.2570448" lon="14.2282048"><ele>209.0</ele><time>2026-04-26T09:27:00.289Z</time></trkpt><trkpt lat="42.257146" lon="14.2280472"><ele>209.0</ele><time>2026-04-26T09:27:01.289Z</time></trkpt><trkpt lat="42.2572405" lon="14.2278817"><ele>206.33333333333334</ele><time>2026-04-26T09:27:02.286Z</time></trkpt><trkpt lat="42.257321" lon="14.2277082"><ele>203.66666666666669</ele><time>2026-04-26T09:27:03.287Z</time></trkpt><trkpt lat="42.2573832" lon="14.227519"><ele>201.0</ele><time>2026-04-26T09:27:04.287Z</time></trkpt><trkpt lat="42.2574303" lon="14.2273207"><ele>198.75</ele><time>2026-04-26T09:27:05.285Z</time></trkpt><trkpt lat="42.2574543" lon="14.227121"><ele>196.5</ele><time>2026-04-26T09:27:06.287Z</time></trkpt><trkpt lat="42.2574587" lon="14.2269463"><ele>194.25</ele><time>2026-04-26T09:27:07.285Z</time></trkpt><trkpt lat="42.2574455" lon="14.2267975"><ele>192.0</ele><time>2026-04-26T09:27:08.289Z</time></trkpt><trkpt lat="42.25741" lon="14.2266677"><ele>192.0</ele><time>2026-04-26T09:27:09.288Z</time></trkpt><trkpt lat="42.2573417" lon="14.2265532"><ele>192.0</ele><time>2026-04-26T09:27:10.288Z</time></trkpt><trkpt lat="42.2572383" lon="14.2264518"><ele>192.0</ele><time>2026-04-26T09:27:11.287Z</time></trkpt><trkpt lat="42.2571127" lon="14.2263625"><ele>192.0</ele><time>2026-04-26T09:27:12.291Z</time></trkpt><trkpt lat="42.2569748" lon="14.2262835"><ele>189.75</ele><time>2026-04-26T09:27:13.288Z</time></trkpt><trkpt lat="42.2568462" lon="14.2262078"><ele>187.5</ele><time>2026-04-26T09:27:14.289Z</time></trkpt><trkpt lat="42.2567435" lon="14.2261265"><ele>185.25</ele><time>2026-04-26T09:27:15.283Z</time></trkpt><trkpt lat="42.2566725" lon="14.2260295"><ele>183.0</ele><time>2026-04-26T09:27:16.285Z</time></trkpt><trkpt lat="42.2566385" lon="14.2259123"><ele>183.0</ele><time>2026-04-26T09:27:17.283Z</time></trkpt><trkpt lat="42.2566433" lon="14.2257807"><ele>183.0</ele><time>2026-04-26T09:27:18.285Z</time></trkpt><trkpt lat="42.2566867" lon="14.2256572"><ele>183.0</ele><time>2026-04-26T09:27:19.287Z</time></trkpt><trkpt lat="42.2567618" lon="14.2255767"><ele>183.0</ele><time>2026-04-26T09:27:20.286Z</time></trkpt><trkpt lat="42.2568632" lon="14.2255312"><ele>183.0</ele><time>2026-04-26T09:27:21.287Z</time></trkpt><trkpt lat="42.2569852" lon="14.225519"><ele>180.5</ele><time>2026-04-26T09:27:22.287Z</time></trkpt><trkpt lat="42.2571242" lon="14.2255268"><ele>178.0</ele><time>2026-04-26T09:27:23.287Z</time></trkpt><trkpt lat="42.2572757" lon="14.2255402"><ele>175.5</ele><time>2026-04-26T09:27:24.286Z</time></trkpt><trkpt lat="42.2574322" lon="14.225551"><ele>173.0</ele><time>2026-04-26T09:27:25.286Z</time></trkpt><trkpt lat="42.2575838" lon="14.2255587"><ele>173.0</ele><time>2026-04-26T09:27:26.286Z</time></trkpt><trkpt lat="42.2577222" lon="14.2255615"><ele>173.0</ele><time>2026-04-26T09:27:27.286Z</time></trkpt><trkpt lat="42.257836" lon="14.2255473"><ele>173.0</ele><time>2026-04-26T09:27:28.287Z</time></trkpt><trkpt lat="42.2579278" lon="14.2255027"><ele>173.0</ele><time>2026-04-26T09:27:29.286Z</time></trkpt><trkpt lat="42.2579967" lon="14.2254233"><ele>173.0</ele><time>2026-04-26T09:27:30.286Z</time></trkpt><trkpt lat="42.2580322" lon="14.2253132"><ele>173.0</ele><time>2026-04-26T09:27:31.287Z</time></trkpt><trkpt lat="42.25803" lon="14.2251868"><ele>173.0</ele><time>2026-04-26T09:27:32.285Z</time></trkpt><trkpt lat="42.2579887" lon="14.225071"><ele>173.0</ele><time>2026-04-26T09:27:33.287Z</time></trkpt><trkpt lat="42.257911" lon="14.224972"><ele>173.0</ele><time>2026-04-26T09:27:34.285Z</time></trkpt><trkpt lat="42.2578017" lon="14.2248987"><ele>173.0</ele><time>2026-04-26T09:27:35.287Z</time></trkpt><trkpt lat="42.2576728" lon="14.2248397"><ele>170.66666666666666</ele><time>2026-04-26T09:27:36.287Z</time></trkpt><trkpt lat="42.2575318" lon="14.2247768"><ele>168.33333333333334</ele><time>2026-04-26T09:27:37.285Z</time></trkpt><trkpt lat="42.2573837" lon="14.2247093"><ele>166.0</ele><time>2026-04-26T09:27:38.283Z</time></trkpt><trkpt lat="42.257239" lon="14.2246405"><ele>165.4</ele><time>2026-04-26T09:27:39.287Z</time></trkpt><trkpt lat="42.2571117" lon="14.2245678"><ele>164.8</ele><time>2026-04-26T09:27:40.283Z</time></trkpt><trkpt lat="42.2570152" lon="14.2244778"><ele>164.20000000000002</ele><time>2026-04-26T09:27:41.284Z</time></trkpt><trkpt lat="42.2569587" lon="14.2243778"><ele>163.60000000000002</ele><time>2026-04-26T09:27:42.285Z</time></trkpt><trkpt lat="42.2569398" lon="14.2242792"><ele>163.0</ele><time>2026-04-26T09:27:43.286Z</time></trkpt><trkpt lat="42.2569498" lon="14.2241893"><ele>163.0</ele><time>2026-04-26T09:27:44.289Z</time></trkpt><trkpt lat="42.2569843" lon="14.2241062"><ele>163.0</ele><time>2026-04-26T09:27:45.284Z</time></trkpt><trkpt lat="42.2570498" lon="14.2240328"><ele>163.0</ele><time>2026-04-26T09:27:46.287Z</time></trkpt><trkpt lat="42.2571412" lon="14.2239668"><ele>163.0</ele><time>2026-04-26T09:27:47.287Z</time></trkpt><trkpt lat="42.2572518" lon="14.2238977"><ele>163.0</ele><time>2026-04-26T09:27:48.287Z</time></trkpt><trkpt lat="42.257369" lon="14.2238257"><ele>162.20000000000002</ele><time>2026-04-26T09:27:49.286Z</time></trkpt><trkpt lat="42.2574823" lon="14.223757"><ele>161.4</ele><time>2026-04-26T09:27:50.285Z</time></trkpt><trkpt lat="42.257589" lon="14.2236862"><ele>160.60000000000002</ele><time>2026-04-26T09:27:51.286Z</time></trkpt><trkpt lat="42.2576753" lon="14.2235985"><ele>159.8</ele><time>2026-04-26T09:27:52.285Z</time></trkpt><trkpt lat="42.2577373" lon="14.2234962"><ele>159.0</ele><time>2026-04-26T09:27:53.285Z</time></trkpt><trkpt lat="42.2577607" lon="14.223374"><ele>159.0</ele><time>2026-04-26T09:27:54.286Z</time></trkpt><trkpt lat="42.2577457" lon="14.2232343"><ele>159.0</ele><time>2026-04-26T09:27:55.287Z</time></trkpt><trkpt lat="42.2577017" lon="14.2230802"><ele>159.0</ele><time>2026-04-26T09:27:56.289Z</time></trkpt><trkpt lat="42.2576425" lon="14.2229102"><ele>159.0</ele><time>2026-04-26T09:27:57.288Z</time></trkpt><trkpt lat="42.2575787" lon="14.2227255"><ele>158.33333333333334</ele><time>2026-04-26T09:27:58.286Z</time></trkpt><trkpt lat="42.2575105" lon="14.2225293"><ele>157.66666666666669</ele><time>2026-04-26T09:27:59.286Z</time></trkpt><trkpt lat="42.2574375" lon="14.2223277"><ele>157.0</ele><time>2026-04-26T09:28:00.287Z</time></trkpt><trkpt lat="42.2573627" lon="14.222124"><ele>158.33333333333334</ele><time>2026-04-26T09:28:01.286Z</time></trkpt><trkpt lat="42.2572907" lon="14.2219192"><ele>159.66666666666666</ele><time>2026-04-26T09:28:02.287Z</time></trkpt><trkpt lat="42.2572257" lon="14.2217172"><ele>161.0</ele><time>2026-04-26T09:28:03.289Z</time></trkpt><trkpt lat="42.2571863" lon="14.2215312"><ele>162.25</ele><time>2026-04-26T09:28:04.285Z</time></trkpt><trkpt lat="42.2571905" lon="14.221368"><ele>163.5</ele><time>2026-04-26T09:28:05.287Z</time></trkpt><trkpt lat="42.257233" lon="14.2212157"><ele>164.75</ele><time>2026-04-26T09:28:06.287Z</time></trkpt><trkpt lat="42.2573068" lon="14.2210783"><ele>166.0</ele><time>2026-04-26T09:28:07.289Z</time></trkpt><trkpt lat="42.2574088" lon="14.2209688"><ele>166.0</ele><time>2026-04-26T09:28:08.288Z</time></trkpt><trkpt lat="42.2575327" lon="14.220889"><ele>166.0</ele><time>2026-04-26T09:28:09.289Z</time></trkpt><trkpt lat="42.2576698" lon="14.2208262"><ele>166.0</ele><time>2026-04-26T09:28:10.291Z</time></trkpt><trkpt lat="42.2578052" lon="14.2207645"><ele>166.0</ele><time>2026-04-26T09:28:11.287Z</time></trkpt><trkpt lat="42.2579218" lon="14.2207"><ele>168.8</ele><time>2026-04-26T09:28:12.288Z</time></trkpt><trkpt lat="42.2580122" lon="14.2206265"><ele>171.60000000000002</ele><time>2026-04-26T09:28:13.288Z</time></trkpt><trkpt lat="42.2580723" lon="14.2205372"><ele>174.4</ele><time>2026-04-26T09:28:14.286Z</time></trkpt><trkpt lat="42.2580955" lon="14.2204342"><ele>177.2</ele><time>2026-04-26T09:28:15.286Z</time></trkpt><trkpt lat="42.2580795" lon="14.2203245"><ele>180.0</ele><time>2026-04-26T09:28:16.288Z</time></trkpt><trkpt lat="42.2580243" lon="14.2202245"><ele>180.0</ele><time>2026-04-26T09:28:17.287Z</time></trkpt><trkpt lat="42.2579342" lon="14.220152"><ele>180.0</ele><time>2026-04-26T09:28:18.289Z</time></trkpt><trkpt lat="42.2578152" lon="14.2201092"><ele>180.0</ele><time>2026-04-26T09:28:19.288Z</time></trkpt><trkpt lat="42.2576733" lon="14.2200828"><ele>180.0</ele><time>2026-04-26T09:28:20.288Z</time></trkpt><trkpt lat="42.2575178" lon="14.2200555"><ele>180.0</ele><time>2026-04-26T09:28:21.288Z</time></trkpt><trkpt lat="42.2573523" lon="14.220018"><ele>180.0</ele><time>2026-04-26T09:28:22.287Z</time></trkpt><trkpt lat="42.2571805" lon="14.2199778"><ele>180.0</ele><time>2026-04-26T09:28:23.288Z</time></trkpt><trkpt lat="42.2570222" lon="14.2199313"><ele>179.6</ele><time>2026-04-26T09:28:24.287Z</time></trkpt><trkpt lat="42.2568872" lon="14.219865"><ele>179.2</ele><time>2026-04-26T09:28:25.286Z</time></trkpt><trkpt lat="42.2568038" lon="14.2197862"><ele>178.8</ele><time>2026-04-26T09:28:26.288Z</time></trkpt><trkpt lat="42.256772" lon="14.2197115"><ele>178.4</ele><time>2026-04-26T09:28:27.286Z</time></trkpt><trkpt lat="42.25674" lon="14.219598"><ele>178.0</ele><time>2026-04-26T09:28:29.284Z</time></trkpt><trkpt lat="42.2566762" lon="14.2195873"><ele>180.4</ele><time>2026-04-26T09:28:32.289Z</time></trkpt><trkpt lat="42.2566168" lon="14.2196183"><ele>182.8</ele><time>2026-04-26T09:28:34.286Z</time></trkpt><trkpt lat="42.2564998" lon="14.2196472"><ele>185.2</ele><time>2026-04-26T09:28:36.29Z</time></trkpt><trkpt lat="42.2564288" lon="14.2196465"><ele>187.6</ele><time>2026-04-26T09:28:37.286Z</time></trkpt><trkpt lat="42.2563595" lon="14.2196295"><ele>190.0</ele><time>2026-04-26T09:28:38.289Z</time></trkpt><trkpt lat="42.2561428" lon="14.219428"><ele>190.0</ele><time>2026-04-26T09:28:42.286Z</time></trkpt><trkpt lat="42.2560768" lon="14.2194208"><ele>190.0</ele><time>2026-04-26T09:28:43.286Z</time></trkpt><trkpt lat="42.2559215" lon="14.220267"><ele>187.25</ele><time>2026-04-26T09:28:51.288Z</time></trkpt><trkpt lat="42.255898" lon="14.2204497"><ele>184.5</ele><time>2026-04-26T09:28:52.287Z</time></trkpt><trkpt lat="42.2558663" lon="14.2206235"><ele>181.75</ele><time>2026-04-26T09:28:53.285Z</time></trkpt><trkpt lat="42.2558193" lon="14.2207808"><ele>179.0</ele><time>2026-04-26T09:28:54.286Z</time></trkpt><trkpt lat="42.2557548" lon="14.2209053"><ele>178.5</ele><time>2026-04-26T09:28:55.286Z</time></trkpt><trkpt lat="42.2556682" lon="14.2209977"><ele>178.0</ele><time>2026-04-26T09:28:56.285Z</time></trkpt><trkpt lat="42.2555615" lon="14.2210748"><ele>177.5</ele><time>2026-04-26T09:28:57.287Z</time></trkpt><trkpt lat="42.2554427" lon="14.2211497"><ele>177.0</ele><time>2026-04-26T09:28:58.29Z</time></trkpt><trkpt lat="42.2553155" lon="14.2212297"><ele>177.0</ele><time>2026-04-26T09:28:59.287Z</time></trkpt><trkpt lat="42.2551813" lon="14.2213135"><ele>177.0</ele><time>2026-04-26T09:29:00.288Z</time></trkpt><trkpt lat="42.255043" lon="14.2214"><ele>177.0</ele><time>2026-04-26T09:29:01.287Z</time></trkpt><trkpt lat="42.254911" lon="14.2214845"><ele>177.0</ele><time>2026-04-26T09:29:02.288Z</time></trkpt><trkpt lat="42.254794" lon="14.2215478"><ele>175.39999999999998</ele><time>2026-04-26T09:29:03.288Z</time></trkpt><trkpt lat="42.2546885" lon="14.2215698"><ele>173.79999999999998</ele><time>2026-04-26T09:29:04.288Z</time></trkpt><trkpt lat="42.2545893" lon="14.2215425"><ele>172.2</ele><time>2026-04-26T09:29:05.287Z</time></trkpt><trkpt lat="42.2544957" lon="14.2214708"><ele>170.6</ele><time>2026-04-26T09:29:06.287Z</time></trkpt><trkpt lat="42.2544167" lon="14.2213652"><ele>169.0</ele><time>2026-04-26T09:29:07.288Z</time></trkpt><trkpt lat="42.2543565" lon="14.2212548"><ele>169.0</ele><time>2026-04-26T09:29:08.289Z</time></trkpt><trkpt lat="42.2542993" lon="14.221177"><ele>169.0</ele><time>2026-04-26T09:29:09.287Z</time></trkpt><trkpt lat="42.2542358" lon="14.221135"><ele>169.0</ele><time>2026-04-26T09:29:10.287Z</time></trkpt><trkpt lat="42.2541597" lon="14.2211282"><ele>169.0</ele><time>2026-04-26T09:29:11.287Z</time></trkpt><trkpt lat="42.2540728" lon="14.2211385"><ele>169.0</ele><time>2026-04-26T09:29:12.287Z</time></trkpt><trkpt lat="42.2539888" lon="14.2211415"><ele>169.0</ele><time>2026-04-26T09:29:13.287Z</time></trkpt><trkpt lat="42.2539177" lon="14.2211148"><ele>169.2</ele><time>2026-04-26T09:29:14.287Z</time></trkpt><trkpt lat="42.2538642" lon="14.2210457"><ele>169.39999999999998</ele><time>2026-04-26T09:29:15.287Z</time></trkpt><trkpt lat="42.2538153" lon="14.2209423"><ele>169.6</ele><time>2026-04-26T09:29:16.287Z</time></trkpt><trkpt lat="42.2537565" lon="14.2208215"><ele>169.8</ele><time>2026-04-26T09:29:17.285Z</time></trkpt><trkpt lat="42.253688" lon="14.220713"><ele>170.0</ele><time>2026-04-26T09:29:18.285Z</time></trkpt><trkpt lat="42.2536073" lon="14.2206458"><ele>170.25</ele><time>2026-04-26T09:29:19.285Z</time></trkpt><trkpt lat="42.2535068" lon="14.2206155"><ele>170.5</ele><time>2026-04-26T09:29:20.285Z</time></trkpt><trkpt lat="42.2533888" lon="14.2206098"><ele>170.75</ele><time>2026-04-26T09:29:21.287Z</time></trkpt><trkpt lat="42.2532563" lon="14.2206105"><ele>171.0</ele><time>2026-04-26T09:29:22.288Z</time></trkpt><trkpt lat="42.2531135" lon="14.2206093"><ele>173.0</ele><time>2026-04-26T09:29:23.287Z</time></trkpt><trkpt lat="42.252965" lon="14.220605"><ele>175.0</ele><time>2026-04-26T09:29:24.287Z</time></trkpt><trkpt lat="42.2528135" lon="14.2205932"><ele>177.0</ele><time>2026-04-26T09:29:25.288Z</time></trkpt><trkpt lat="42.2526582" lon="14.2205707"><ele>177.0</ele><time>2026-04-26T09:29:26.287Z</time></trkpt><trkpt lat="42.2524995" lon="14.2205388"><ele>177.0</ele><time>2026-04-26T09:29:27.288Z</time></trkpt><trkpt lat="42.2523352" lon="14.2204922"><ele>177.0</ele><time>2026-04-26T09:29:28.29Z</time></trkpt><trkpt lat="42.2521683" lon="14.2204287"><ele>179.66666666666666</ele><time>2026-04-26T09:29:29.288Z</time></trkpt><trkpt lat="42.2520007" lon="14.2203535"><ele>182.33333333333331</ele><time>2026-04-26T09:29:30.288Z</time></trkpt><trkpt lat="42.251831" lon="14.2202763"><ele>185.0</ele><time>2026-04-26T09:29:31.29Z</time></trkpt><trkpt lat="42.2516562" lon="14.2202103"><ele>185.0</ele><time>2026-04-26T09:29:32.287Z</time></trkpt><trkpt lat="42.2514738" lon="14.220164"><ele>185.0</ele><time>2026-04-26T09:29:33.289Z</time></trkpt><trkpt lat="42.2512858" lon="14.2201313"><ele>185.0</ele><time>2026-04-26T09:29:34.289Z</time></trkpt><trkpt lat="42.2510963" lon="14.2201115"><ele>187.66666666666666</ele><time>2026-04-26T09:29:35.29Z</time></trkpt><trkpt lat="42.250919" lon="14.2201143"><ele>190.33333333333331</ele><time>2026-04-26T09:29:36.291Z</time></trkpt><trkpt lat="42.2507598" lon="14.2201348"><ele>193.0</ele><time>2026-04-26T09:29:37.288Z</time></trkpt><trkpt lat="42.250614" lon="14.2201388"><ele>194.66666666666666</ele><time>2026-04-26T09:29:38.289Z</time></trkpt><trkpt lat="42.2504657" lon="14.2201097"><ele>196.33333333333331</ele><time>2026-04-26T09:29:39.291Z</time></trkpt><trkpt lat="42.2503178" lon="14.2200422"><ele>198.0</ele><time>2026-04-26T09:29:40.287Z</time></trkpt><trkpt lat="42.2501853" lon="14.2199572"><ele>198.0</ele><time>2026-04-26T09:29:41.286Z</time></trkpt><trkpt lat="42.2500668" lon="14.2198912"><ele>198.0</ele><time>2026-04-26T09:29:42.285Z</time></trkpt><trkpt lat="42.2499563" lon="14.2198595"><ele>198.0</ele><time>2026-04-26T09:29:43.285Z</time></trkpt><trkpt lat="42.2498622" lon="14.2198348"><ele>198.0</ele><time>2026-04-26T09:29:44.284Z</time></trkpt><trkpt lat="42.2497902" lon="14.219781"><ele>198.0</ele><time>2026-04-26T09:29:45.287Z</time></trkpt><trkpt lat="42.2497375" lon="14.2196912"><ele>202.0</ele><time>2026-04-26T09:29:46.287Z</time></trkpt><trkpt lat="42.2496963" lon="14.2195732"><ele>206.0</ele><time>2026-04-26T09:29:47.287Z</time></trkpt><trkpt lat="42.2496592" lon="14.2194415"><ele>210.0</ele><time>2026-04-26T09:29:48.287Z</time></trkpt><trkpt lat="42.249625" lon="14.2193317"><ele>214.0</ele><time>2026-04-26T09:29:49.287Z</time></trkpt><trkpt lat="42.2495618" lon="14.2192352"><ele>218.0</ele><time>2026-04-26T09:29:51.288Z</time></trkpt><trkpt lat="42.2494828" lon="14.219319"><ele>218.0</ele><time>2026-04-26T09:29:58.286Z</time></trkpt><trkpt lat="42.2494455" lon="14.2194402"><ele>218.0</ele><time>2026-04-26T09:30:00.287Z</time></trkpt><trkpt lat="42.2494172" lon="14.2195175"><ele>218.0</ele><time>2026-04-26T09:30:03.287Z</time></trkpt><trkpt lat="42.2493183" lon="14.2195002"><ele>218.0</ele><time>2026-04-26T09:30:07.284Z</time></trkpt><trkpt lat="42.2492098" lon="14.2194433"><ele>218.0</ele><time>2026-04-26T09:30:09.284Z</time></trkpt><trkpt lat="42.249088" lon="14.2194393"><ele>218.0</ele><time>2026-04-26T09:30:11.284Z</time></trkpt><trkpt lat="42.2490258" lon="14.219412"><ele>218.0</ele><time>2026-04-26T09:30:12.286Z</time></trkpt><trkpt lat="42.2489713" lon="14.2193527"><ele>218.0</ele><time>2026-04-26T09:30:13.286Z</time></trkpt><trkpt lat="42.2489298" lon="14.2192782"><ele>218.0</ele><time>2026-04-26T09:30:14.287Z</time></trkpt><trkpt lat="42.2488923" lon="14.2191877"><ele>218.0</ele><time>2026-04-26T09:30:15.287Z</time></trkpt><trkpt lat="42.248865" lon="14.2190882"><ele>218.0</ele><time>2026-04-26T09:30:16.29Z</time></trkpt><trkpt lat="42.248859" lon="14.2189847"><ele>218.0</ele><time>2026-04-26T09:30:17.286Z</time></trkpt><trkpt lat="42.248868" lon="14.2188742"><ele>218.2</ele><time>2026-04-26T09:30:18.292Z</time></trkpt><trkpt lat="42.248882" lon="14.218757"><ele>218.4</ele><time>2026-04-26T09:30:19.29Z</time></trkpt><trkpt lat="42.2488857" lon="14.218633"><ele>218.59999999999997</ele><time>2026-04-26T09:30:20.289Z</time></trkpt><trkpt lat="42.2488715" lon="14.2185028"><ele>218.79999999999998</ele><time>2026-04-26T09:30:21.287Z</time></trkpt><trkpt lat="42.2488465" lon="14.2183747"><ele>219.0</ele><time>2026-04-26T09:30:22.289Z</time></trkpt><trkpt lat="42.2488202" lon="14.2182505"><ele>222.2</ele><time>2026-04-26T09:30:23.288Z</time></trkpt><trkpt lat="42.2487947" lon="14.218132"><ele>225.39999999999998</ele><time>2026-04-26T09:30:24.288Z</time></trkpt><trkpt lat="42.2487725" lon="14.218011"><ele>228.6</ele><time>2026-04-26T09:30:25.286Z</time></trkpt><trkpt lat="42.2487495" lon="14.2178778"><ele>231.8</ele><time>2026-04-26T09:30:26.287Z</time></trkpt><trkpt lat="42.2487245" lon="14.217736"><ele>235.0</ele><time>2026-04-26T09:30:27.287Z</time></trkpt><trkpt lat="42.2486995" lon="14.2175865"><ele>235.0</ele><time>2026-04-26T09:30:28.29Z</time></trkpt><trkpt lat="42.248677" lon="14.2174328"><ele>235.0</ele><time>2026-04-26T09:30:29.286Z</time></trkpt><trkpt lat="42.2486555" lon="14.2172777"><ele>235.0</ele><time>2026-04-26T09:30:30.288Z</time></trkpt><trkpt lat="42.2486243" lon="14.2171327"><ele>235.0</ele><time>2026-04-26T09:30:31.286Z</time></trkpt><trkpt lat="42.2485753" lon="14.2169888"><ele>238.75</ele><time>2026-04-26T09:30:32.284Z</time></trkpt><trkpt lat="42.24852" lon="14.2168445"><ele>242.5</ele><time>2026-04-26T09:30:33.29Z</time></trkpt><trkpt lat="42.2484685" lon="14.2166978"><ele>246.25</ele><time>2026-04-26T09:30:34.283Z</time></trkpt><trkpt lat="42.24842" lon="14.216541"><ele>250.0</ele><time>2026-04-26T09:30:35.283Z</time></trkpt><trkpt lat="42.248377" lon="14.2163805"><ele>252.75</ele><time>2026-04-26T09:30:36.286Z</time></trkpt><trkpt lat="42.2483337" lon="14.2162158"><ele>255.5</ele><time>2026-04-26T09:30:37.286Z</time></trkpt><trkpt lat="42.2482902" lon="14.2160612"><ele>258.25</ele><time>2026-04-26T09:30:38.287Z</time></trkpt><trkpt lat="42.248254" lon="14.2159198"><ele>261.0</ele><time>2026-04-26T09:30:39.287Z</time></trkpt><trkpt lat="42.248207" lon="14.2157872"><ele>261.0</ele><time>2026-04-26T09:30:40.288Z</time></trkpt><trkpt lat="42.2481422" lon="14.2156545"><ele>261.0</ele><time>2026-04-26T09:30:41.287Z</time></trkpt><trkpt lat="42.2480753" lon="14.215516"><ele>261.0</ele><time>2026-04-26T09:30:42.287Z</time></trkpt><trkpt lat="42.2480178" lon="14.2153617"><ele>261.0</ele><time>2026-04-26T09:30:43.287Z</time></trkpt><trkpt lat="42.2479608" lon="14.2152065"><ele>261.6</ele><time>2026-04-26T09:30:44.287Z</time></trkpt><trkpt lat="42.2479192" lon="14.2150645"><ele>262.20000000000005</ele><time>2026-04-26T09:30:45.29Z</time></trkpt><trkpt lat="42.2479087" lon="14.2149395"><ele>262.79999999999995</ele><time>2026-04-26T09:30:46.288Z</time></trkpt><trkpt lat="42.2479198" lon="14.2148127"><ele>263.4</ele><time>2026-04-26T09:30:47.287Z</time></trkpt><trkpt lat="42.2479313" lon="14.2146658"><ele>264.0</ele><time>2026-04-26T09:30:48.289Z</time></trkpt><trkpt lat="42.247926" lon="14.2145093"><ele>264.0</ele><time>2026-04-26T09:30:49.289Z</time></trkpt><trkpt lat="42.2479017" lon="14.2143487"><ele>264.0</ele><time>2026-04-26T09:30:50.289Z</time></trkpt><trkpt lat="42.247866" lon="14.2141857"><ele>264.0</ele><time>2026-04-26T09:30:51.289Z</time></trkpt><trkpt lat="42.2478185" lon="14.2140277"><ele>264.0</ele><time>2026-04-26T09:30:52.288Z</time></trkpt><trkpt lat="42.2477617" lon="14.213884"><ele>266.0</ele><time>2026-04-26T09:30:53.288Z</time></trkpt><trkpt lat="42.2476982" lon="14.2137693"><ele>268.0</ele><time>2026-04-26T09:30:54.288Z</time></trkpt><trkpt lat="42.2476428" lon="14.2136872"><ele>270.0</ele><time>2026-04-26T09:30:55.286Z</time></trkpt><trkpt lat="42.2476073" lon="14.213612"><ele>272.0</ele><time>2026-04-26T09:30:56.284Z</time></trkpt><trkpt lat="42.2475857" lon="14.2134345"><ele>274.0</ele><time>2026-04-26T09:30:58.286Z</time></trkpt><trkpt lat="42.2475687" lon="14.2133067"><ele>274.5</ele><time>2026-04-26T09:30:59.288Z</time></trkpt><trkpt lat="42.247545" lon="14.213153"><ele>275.0</ele><time>2026-04-26T09:31:00.288Z</time></trkpt><trkpt lat="42.2475247" lon="14.2129817"><ele>275.5</ele><time>2026-04-26T09:31:01.289Z</time></trkpt><trkpt lat="42.24751" lon="14.2128015"><ele>276.0</ele><time>2026-04-26T09:31:02.289Z</time></trkpt><trkpt lat="42.2475027" lon="14.2126157"><ele>276.0</ele><time>2026-04-26T09:31:03.288Z</time></trkpt><trkpt lat="42.247487" lon="14.2124335"><ele>276.0</ele><time>2026-04-26T09:31:04.288Z</time></trkpt><trkpt lat="42.2474613" lon="14.2122455"><ele>276.0</ele><time>2026-04-26T09:31:05.287Z</time></trkpt><trkpt lat="42.2474306" lon="14.2120558"><ele>276.0</ele><time>2026-04-26T09:31:06.288Z</time></trkpt><trkpt lat="42.2473918" lon="14.2118838"><ele>277.0</ele><time>2026-04-26T09:31:07.288Z</time></trkpt><trkpt lat="42.2473392" lon="14.2117313"><ele>278.0</ele><time>2026-04-26T09:31:08.288Z</time></trkpt><trkpt lat="42.2472808" lon="14.2116044"><ele>279.0</ele><time>2026-04-26T09:31:09.287Z</time></trkpt><trkpt lat="42.2472412" lon="14.2115046"><ele>280.0</ele><time>2026-04-26T09:31:10.286Z</time></trkpt><trkpt lat="42.2472821" lon="14.2113249"><ele>282.4</ele><time>2026-04-26T09:31:12.292Z</time></trkpt><trkpt lat="42.2473288" lon="14.2112035"><ele>284.8</ele><time>2026-04-26T09:31:13.287Z</time></trkpt><trkpt lat="42.2473609" lon="14.2110701"><ele>287.2</ele><time>2026-04-26T09:31:14.286Z</time></trkpt><trkpt lat="42.2473719" lon="14.2109216"><ele>289.6</ele><time>2026-04-26T09:31:15.287Z</time></trkpt><trkpt lat="42.2473632" lon="14.2107645"><ele>292.0</ele><time>2026-04-26T09:31:16.288Z</time></trkpt><trkpt lat="42.2473445" lon="14.2106109"><ele>294.6</ele><time>2026-04-26T09:31:17.286Z</time></trkpt><trkpt lat="42.2473353" lon="14.2104719"><ele>297.2</ele><time>2026-04-26T09:31:18.287Z</time></trkpt><trkpt lat="42.2473404" lon="14.2103317"><ele>299.8</ele><time>2026-04-26T09:31:19.288Z</time></trkpt><trkpt lat="42.2473564" lon="14.210181"><ele>302.4</ele><time>2026-04-26T09:31:20.284Z</time></trkpt><trkpt lat="42.2473795" lon="14.2100222"><ele>305.0</ele><time>2026-04-26T09:31:21.285Z</time></trkpt><trkpt lat="42.2473937" lon="14.2098592"><ele>307.0</ele><time>2026-04-26T09:31:22.285Z</time></trkpt><trkpt lat="42.2473975" lon="14.2096935"><ele>309.0</ele><time>2026-04-26T09:31:23.285Z</time></trkpt><trkpt lat="42.2473887" lon="14.2095379"><ele>311.0</ele><time>2026-04-26T09:31:24.289Z</time></trkpt><trkpt lat="42.2473666" lon="14.2094054"><ele>313.0</ele><time>2026-04-26T09:31:25.286Z</time></trkpt><trkpt lat="42.2473423" lon="14.209281"><ele>315.0</ele><time>2026-04-26T09:31:26.285Z</time></trkpt><trkpt lat="42.2473225" lon="14.2091596"><ele>315.0</ele><time>2026-04-26T09:31:27.286Z</time></trkpt><trkpt lat="42.2472978" lon="14.209059"><ele>315.0</ele><time>2026-04-26T09:31:28.287Z</time></trkpt><trkpt lat="42.2472036" lon="14.2089535"><ele>315.0</ele><time>2026-04-26T09:31:30.286Z</time></trkpt><trkpt lat="42.2471275" lon="14.2089418"><ele>315.0</ele><time>2026-04-26T09:31:31.286Z</time></trkpt><trkpt lat="42.2470398" lon="14.2089434"><ele>315.0</ele><time>2026-04-26T09:31:32.287Z</time></trkpt><trkpt lat="42.2469478" lon="14.2089371"><ele>317.6666666666667</ele><time>2026-04-26T09:31:33.287Z</time></trkpt><trkpt lat="42.246866" lon="14.2089009"><ele>320.3333333333333</ele><time>2026-04-26T09:31:34.288Z</time></trkpt><trkpt lat="42.2468144" lon="14.2088349"><ele>323.0</ele><time>2026-04-26T09:31:35.287Z</time></trkpt><trkpt lat="42.2467789" lon="14.2087409"><ele>325.66666666666663</ele><time>2026-04-26T09:31:36.287Z</time></trkpt><trkpt lat="42.2467424" lon="14.208637"><ele>328.3333333333333</ele><time>2026-04-26T09:31:37.286Z</time></trkpt><trkpt lat="42.2466919" lon="14.2085364"><ele>331.0</ele><time>2026-04-26T09:31:38.285Z</time></trkpt><trkpt lat="42.2466272" lon="14.2084284"><ele>331.0</ele><time>2026-04-26T09:31:39.287Z</time></trkpt><trkpt lat="42.2465533" lon="14.2083133"><ele>331.0</ele><time>2026-04-26T09:31:40.288Z</time></trkpt><trkpt lat="42.2464762" lon="14.2081959"><ele>331.0</ele><time>2026-04-26T09:31:41.286Z</time></trkpt><trkpt lat="42.2464153" lon="14.208092"><ele>331.0</ele><time>2026-04-26T09:31:42.288Z</time></trkpt><trkpt lat="42.2463805" lon="14.2080105"><ele>331.0</ele><time>2026-04-26T09:31:43.287Z</time></trkpt><trkpt lat="42.2463692" lon="14.2079201"><ele>330.5</ele><time>2026-04-26T09:31:47.285Z</time></trkpt><trkpt lat="42.2463118" lon="14.2077315"><ele>330.0</ele><time>2026-04-26T09:37:59.288Z</time></trkpt><trkpt lat="42.2462907" lon="14.2071817"><ele>334.6666666666667</ele><time>2026-04-26T09:38:05.287Z</time></trkpt><trkpt lat="42.2462652" lon="14.2068733"><ele>339.33333333333337</ele><time>2026-04-26T09:38:08.293Z</time></trkpt><trkpt lat="42.246262" lon="14.2067563"><ele>344.0</ele><time>2026-04-26T09:38:09.286Z</time></trkpt><trkpt lat="42.2463898" lon="14.2061175"><ele>346.0</ele><time>2026-04-26T09:38:15.288Z</time></trkpt><trkpt lat="42.2464387" lon="14.2060125"><ele>348.0</ele><time>2026-04-26T09:38:16.286Z</time></trkpt><trkpt lat="42.2464802" lon="14.2059213"><ele>350.0</ele><time>2026-04-26T09:38:17.286Z</time></trkpt><trkpt lat="42.2465003" lon="14.2057737"><ele>352.0</ele><time>2026-04-26T09:38:19.285Z</time></trkpt><trkpt lat="42.2464357" lon="14.2056512"><ele>354.0</ele><time>2026-04-26T09:38:21.292Z</time></trkpt><trkpt lat="42.246382" lon="14.2055858"><ele>358.6</ele><time>2026-04-26T09:38:22.288Z</time></trkpt><trkpt lat="42.2463205" lon="14.2055078"><ele>363.2</ele><time>2026-04-26T09:38:23.289Z</time></trkpt><trkpt lat="42.2462572" lon="14.205418"><ele>367.8</ele><time>2026-04-26T09:38:24.286Z</time></trkpt><trkpt lat="42.2461872" lon="14.2053245"><ele>372.40000000000003</ele><time>2026-04-26T09:38:25.289Z</time></trkpt><trkpt lat="42.2461172" lon="14.2052227"><ele>377.0</ele><time>2026-04-26T09:38:26.288Z</time></trkpt><trkpt lat="42.2460517" lon="14.2051322"><ele>377.0</ele><time>2026-04-26T09:38:27.289Z</time></trkpt><trkpt lat="42.2460013" lon="14.2050725"><ele>377.0</ele><time>2026-04-26T09:38:28.288Z</time></trkpt><trkpt lat="42.2459195" lon="14.2049242"><ele>377.0</ele><time>2026-04-26T09:38:30.288Z</time></trkpt><trkpt lat="42.2458778" lon="14.2048178"><ele>377.0</ele><time>2026-04-26T09:38:31.289Z</time></trkpt><trkpt lat="42.24585" lon="14.2047007"><ele>377.0</ele><time>2026-04-26T09:38:32.288Z</time></trkpt><trkpt lat="42.2458533" lon="14.204592"><ele>377.8</ele><time>2026-04-26T09:38:33.288Z</time></trkpt><trkpt lat="42.2458862" lon="14.204492"><ele>378.6</ele><time>2026-04-26T09:38:34.287Z</time></trkpt><trkpt lat="42.2459322" lon="14.2043773"><ele>379.40000000000003</ele><time>2026-04-26T09:38:35.287Z</time></trkpt><trkpt lat="42.245983" lon="14.204248"><ele>380.20000000000005</ele><time>2026-04-26T09:38:36.287Z</time></trkpt><trkpt lat="42.246024" lon="14.2041222"><ele>381.0</ele><time>2026-04-26T09:38:37.289Z</time></trkpt><trkpt lat="42.2460528" lon="14.2039972"><ele>382.75</ele><time>2026-04-26T09:38:38.29Z</time></trkpt><trkpt lat="42.2460695" lon="14.2038568"><ele>384.5</ele><time>2026-04-26T09:38:39.29Z</time></trkpt><trkpt lat="42.2460718" lon="14.2037"><ele>386.25</ele><time>2026-04-26T09:38:40.291Z</time></trkpt><trkpt lat="42.246061" lon="14.2035357"><ele>388.0</ele><time>2026-04-26T09:38:41.288Z</time></trkpt><trkpt lat="42.2460403" lon="14.2033773"><ele>388.0</ele><time>2026-04-26T09:38:42.287Z</time></trkpt><trkpt lat="42.2460035" lon="14.2032318"><ele>388.0</ele><time>2026-04-26T09:38:43.285Z</time></trkpt><trkpt lat="42.2459493" lon="14.2030912"><ele>388.0</ele><time>2026-04-26T09:38:44.287Z</time></trkpt><trkpt lat="42.245898" lon="14.202967"><ele>388.0</ele><time>2026-04-26T09:38:45.288Z</time></trkpt><trkpt lat="42.245848" lon="14.2028782"><ele>388.0</ele><time>2026-04-26T09:38:46.288Z</time></trkpt><trkpt lat="42.2457827" lon="14.2028282"><ele>389.00000000000006</ele><time>2026-04-26T09:38:47.288Z</time></trkpt><trkpt lat="42.24572" lon="14.2027977"><ele>390.0</ele><time>2026-04-26T09:38:48.288Z</time></trkpt><trkpt lat="42.2456385" lon="14.2027252"><ele>391.0</ele><time>2026-04-26T09:38:50.288Z</time></trkpt><trkpt lat="42.2455577" lon="14.2025987"><ele>392.0</ele><time>2026-04-26T09:38:52.287Z</time></trkpt><trkpt lat="42.2455102" lon="14.2025087"><ele>393.00000000000006</ele><time>2026-04-26T09:38:53.289Z</time></trkpt><trkpt lat="42.2454768" lon="14.2024207"><ele>394.0</ele><time>2026-04-26T09:38:54.288Z</time></trkpt><trkpt lat="42.2454305" lon="14.2023487"><ele>395.6</ele><time>2026-04-26T09:38:56.287Z</time></trkpt><trkpt lat="42.2453748" lon="14.2024215"><ele>397.2</ele><time>2026-04-26T09:38:58.289Z</time></trkpt><trkpt lat="42.2453432" lon="14.2025093"><ele>398.8</ele><time>2026-04-26T09:38:59.289Z</time></trkpt><trkpt lat="42.245297" lon="14.2026175"><ele>400.40000000000003</ele><time>2026-04-26T09:39:00.289Z</time></trkpt><trkpt lat="42.2452287" lon="14.2027257"><ele>402.0</ele><time>2026-04-26T09:39:01.28Z</time></trkpt><trkpt lat="42.245136" lon="14.2028202"><ele>402.0</ele><time>2026-04-26T09:39:02.289Z</time></trkpt><trkpt lat="42.2450208" lon="14.2028937"><ele>402.0</ele><time>2026-04-26T09:39:03.291Z</time></trkpt><trkpt lat="42.2448953" lon="14.2029527"><ele>402.0</ele><time>2026-04-26T09:39:04.289Z</time></trkpt><trkpt lat="42.2447717" lon="14.2030082"><ele>402.0</ele><time>2026-04-26T09:39:05.286Z</time></trkpt><trkpt lat="42.244665" lon="14.2030837"><ele>401.5</ele><time>2026-04-26T09:39:06.288Z</time></trkpt><trkpt lat="42.2445733" lon="14.203189"><ele>401.0</ele><time>2026-04-26T09:39:07.286Z</time></trkpt><trkpt lat="42.2444997" lon="14.2033248"><ele>400.5</ele><time>2026-04-26T09:39:08.287Z</time></trkpt><trkpt lat="42.2444487" lon="14.2034935"><ele>400.0</ele><time>2026-04-26T09:39:09.289Z</time></trkpt><trkpt lat="42.2444133" lon="14.2036837"><ele>400.0</ele><time>2026-04-26T09:39:10.288Z</time></trkpt><trkpt lat="42.244387" lon="14.2038803"><ele>400.0</ele><time>2026-04-26T09:39:11.289Z</time></trkpt><trkpt lat="42.2443587" lon="14.2040623"><ele>400.0</ele><time>2026-04-26T09:39:12.289Z</time></trkpt><trkpt lat="42.2443198" lon="14.204214"><ele>400.0</ele><time>2026-04-26T09:39:13.29Z</time></trkpt><trkpt lat="42.2442612" lon="14.2043478"><ele>398.75</ele><time>2026-04-26T09:39:14.288Z</time></trkpt><trkpt lat="42.2441783" lon="14.2044792"><ele>397.5</ele><time>2026-04-26T09:39:15.288Z</time></trkpt><trkpt lat="42.244078" lon="14.2046123"><ele>396.25</ele><time>2026-04-26T09:39:16.288Z</time></trkpt><trkpt lat="42.2439658" lon="14.2047512"><ele>395.0</ele><time>2026-04-26T09:39:17.288Z</time></trkpt><trkpt lat="42.2438543" lon="14.2048922"><ele>395.0</ele><time>2026-04-26T09:39:18.29Z</time></trkpt><trkpt lat="42.243756" lon="14.2050518"><ele>395.0</ele><time>2026-04-26T09:39:19.284Z</time></trkpt><trkpt lat="42.243682" lon="14.2052277"><ele>395.0</ele><time>2026-04-26T09:39:20.285Z</time></trkpt><trkpt lat="42.2436222" lon="14.2054062"><ele>395.0</ele><time>2026-04-26T09:39:21.286Z</time></trkpt><trkpt lat="42.2435612" lon="14.2055773"><ele>392.0</ele><time>2026-04-26T09:39:22.286Z</time></trkpt><trkpt lat="42.243489" lon="14.2057342"><ele>389.0</ele><time>2026-04-26T09:39:23.286Z</time></trkpt><trkpt lat="42.2433933" lon="14.2058817"><ele>386.0</ele><time>2026-04-26T09:39:24.289Z</time></trkpt><trkpt lat="42.243277" lon="14.2060113"><ele>383.0</ele><time>2026-04-26T09:39:25.29Z</time></trkpt><trkpt lat="42.243145" lon="14.2061343"><ele>380.0</ele><time>2026-04-26T09:39:26.289Z</time></trkpt><trkpt lat="42.2430048" lon="14.2062615"><ele>377.0</ele><time>2026-04-26T09:39:27.289Z</time></trkpt><trkpt lat="42.2428592" lon="14.2063873"><ele>374.0</ele><time>2026-04-26T09:39:28.289Z</time></trkpt><trkpt lat="42.242708" lon="14.2065127"><ele>374.0</ele><time>2026-04-26T09:39:29.288Z</time></trkpt><trkpt lat="42.2425603" lon="14.2066322"><ele>374.0</ele><time>2026-04-26T09:39:30.288Z</time></trkpt><trkpt lat="42.2424197" lon="14.2067327"><ele>374.0</ele><time>2026-04-26T09:39:31.286Z</time></trkpt><trkpt lat="42.2422762" lon="14.206809"><ele>375.33333333333337</ele><time>2026-04-26T09:39:32.286Z</time></trkpt><trkpt lat="42.2421208" lon="14.2068615"><ele>376.6666666666667</ele><time>2026-04-26T09:39:33.288Z</time></trkpt><trkpt lat="42.2419557" lon="14.2068973"><ele>378.0</ele><time>2026-04-26T09:39:34.291Z</time></trkpt><trkpt lat="42.2417857" lon="14.2069182"><ele>378.0</ele><time>2026-04-26T09:39:35.289Z</time></trkpt><trkpt lat="42.2416103" lon="14.2069307"><ele>378.0</ele><time>2026-04-26T09:39:36.291Z</time></trkpt><trkpt lat="42.241435" lon="14.2069332"><ele>378.0</ele><time>2026-04-26T09:39:37.288Z</time></trkpt><trkpt lat="42.2412657" lon="14.2069198"><ele>375.0</ele><time>2026-04-26T09:39:38.288Z</time></trkpt><trkpt lat="42.2411057" lon="14.2068827"><ele>372.0</ele><time>2026-04-26T09:39:39.29Z</time></trkpt><trkpt lat="42.240957" lon="14.2068332"><ele>369.0</ele><time>2026-04-26T09:39:40.288Z</time></trkpt><trkpt lat="42.240827" lon="14.2067878"><ele>369.0</ele><time>2026-04-26T09:39:41.289Z</time></trkpt><trkpt lat="42.2407147" lon="14.2067665"><ele>369.0</ele><time>2026-04-26T09:39:42.29Z</time></trkpt><trkpt lat="42.2406118" lon="14.2067925"><ele>369.0</ele><time>2026-04-26T09:39:43.29Z</time></trkpt><trkpt lat="42.2405103" lon="14.206852"><ele>369.0</ele><time>2026-04-26T09:39:44.289Z</time></trkpt><trkpt lat="42.2404082" lon="14.2069072"><ele>369.0</ele><time>2026-04-26T09:39:45.291Z</time></trkpt><trkpt lat="42.2403067" lon="14.2069312"><ele>367.5</ele><time>2026-04-26T09:39:46.29Z</time></trkpt><trkpt lat="42.2402123" lon="14.2069082"><ele>366.0</ele><time>2026-04-26T09:39:47.289Z</time></trkpt><trkpt lat="42.2401248" lon="14.2068628"><ele>364.5</ele><time>2026-04-26T09:39:48.291Z</time></trkpt><trkpt lat="42.2400427" lon="14.2068328"><ele>363.0</ele><time>2026-04-26T09:39:49.29Z</time></trkpt><trkpt lat="42.2399742" lon="14.2068345"><ele>361.5</ele><time>2026-04-26T09:39:50.289Z</time></trkpt><trkpt lat="42.2399035" lon="14.2068352"><ele>360.0</ele><time>2026-04-26T09:39:52.29Z</time></trkpt><trkpt lat="42.2398252" lon="14.2067778"><ele>359.2</ele><time>2026-04-26T09:39:54.288Z</time></trkpt><trkpt lat="42.2397513" lon="14.2067002"><ele>358.4</ele><time>2026-04-26T09:39:56.286Z</time></trkpt><trkpt lat="42.2396488" lon="14.2065808"><ele>357.6</ele><time>2026-04-26T09:39:58.288Z</time></trkpt><trkpt lat="42.2395742" lon="14.2065035"><ele>356.8</ele><time>2026-04-26T09:39:59.291Z</time></trkpt><trkpt lat="42.2394868" lon="14.2064177"><ele>356.0</ele><time>2026-04-26T09:40:00.29Z</time></trkpt><trkpt lat="42.2393957" lon="14.2063233"><ele>356.0</ele><time>2026-04-26T09:40:01.291Z</time></trkpt><trkpt lat="42.2393078" lon="14.2062183"><ele>356.0</ele><time>2026-04-26T09:40:02.29Z</time></trkpt><trkpt lat="42.2392313" lon="14.2060998"><ele>356.0</ele><time>2026-04-26T09:40:03.29Z</time></trkpt><trkpt lat="42.2391665" lon="14.2059648"><ele>356.0</ele><time>2026-04-26T09:40:04.291Z</time></trkpt><trkpt lat="42.2391042" lon="14.2058145"><ele>353.25</ele><time>2026-04-26T09:40:05.292Z</time></trkpt><trkpt lat="42.2390385" lon="14.2056592"><ele>350.5</ele><time>2026-04-26T09:40:06.292Z</time></trkpt><trkpt lat="42.2389652" lon="14.2055035"><ele>347.75</ele><time>2026-04-26T09:40:07.288Z</time></trkpt><trkpt lat="42.2388855" lon="14.2053667"><ele>345.0</ele><time>2026-04-26T09:40:08.287Z</time></trkpt><trkpt lat="42.2388065" lon="14.205238"><ele>345.0</ele><time>2026-04-26T09:40:09.289Z</time></trkpt><trkpt lat="42.238735" lon="14.2051108"><ele>345.0</ele><time>2026-04-26T09:40:10.289Z</time></trkpt><trkpt lat="42.2386555" lon="14.205018"><ele>345.0</ele><time>2026-04-26T09:40:11.289Z</time></trkpt><trkpt lat="42.2385757" lon="14.2049487"><ele>345.0</ele><time>2026-04-26T09:40:12.29Z</time></trkpt><trkpt lat="42.2385047" lon="14.2048577"><ele>345.0</ele><time>2026-04-26T09:40:13.289Z</time></trkpt><trkpt lat="42.2384423" lon="14.204744"><ele>346.6</ele><time>2026-04-26T09:40:14.29Z</time></trkpt><trkpt lat="42.2383888" lon="14.204641"><ele>348.2</ele><time>2026-04-26T09:40:15.289Z</time></trkpt><trkpt lat="42.2383522" lon="14.2045713"><ele>349.79999999999995</ele><time>2026-04-26T09:40:16.289Z</time></trkpt><trkpt lat="42.2383055" lon="14.204469"><ele>351.4</ele><time>2026-04-26T09:40:20.286Z</time></trkpt><trkpt lat="42.2382482" lon="14.2043102"><ele>353.0</ele><time>2026-04-26T09:40:22.287Z</time></trkpt><trkpt lat="42.2382142" lon="14.2041942"><ele>353.0</ele><time>2026-04-26T09:40:23.289Z</time></trkpt><trkpt lat="42.2381807" lon="14.2040715"><ele>353.0</ele><time>2026-04-26T09:40:24.289Z</time></trkpt><trkpt lat="42.238146" lon="14.2039567"><ele>353.0</ele><time>2026-04-26T09:40:25.287Z</time></trkpt><trkpt lat="42.2381112" lon="14.2038472"><ele>353.0</ele><time>2026-04-26T09:40:26.291Z</time></trkpt><trkpt lat="42.2380908" lon="14.203737"><ele>353.0</ele><time>2026-04-26T09:40:27.288Z</time></trkpt><trkpt lat="42.2380863" lon="14.2036205"><ele>353.0</ele><time>2026-04-26T09:40:28.287Z</time></trkpt><trkpt lat="42.2380927" lon="14.2034972"><ele>350.0</ele><time>2026-04-26T09:40:29.287Z</time></trkpt><trkpt lat="42.2380867" lon="14.2033833"><ele>347.0</ele><time>2026-04-26T09:40:30.288Z</time></trkpt><trkpt lat="42.238054" lon="14.203291"><ele>344.0</ele><time>2026-04-26T09:40:31.287Z</time></trkpt><trkpt lat="42.2379965" lon="14.2032172"><ele>341.0</ele><time>2026-04-26T09:40:32.286Z</time></trkpt><trkpt lat="42.2379172" lon="14.2031495"><ele>338.0</ele><time>2026-04-26T09:40:33.287Z</time></trkpt><trkpt lat="42.2378495" lon="14.2030568"><ele>335.0</ele><time>2026-04-26T09:40:34.288Z</time></trkpt><trkpt lat="42.2378078" lon="14.202943"><ele>335.0</ele><time>2026-04-26T09:40:35.285Z</time></trkpt><trkpt lat="42.2377625" lon="14.2028242"><ele>335.0</ele><time>2026-04-26T09:40:36.287Z</time></trkpt><trkpt lat="42.237699" lon="14.20272"><ele>335.0</ele><time>2026-04-26T09:40:37.286Z</time></trkpt><trkpt lat="42.237643" lon="14.2026267"><ele>335.0</ele><time>2026-04-26T09:40:38.286Z</time></trkpt><trkpt lat="42.2376067" lon="14.2025355"><ele>335.0</ele><time>2026-04-26T09:40:39.287Z</time></trkpt><trkpt lat="42.2375655" lon="14.202429"><ele>336.2</ele><time>2026-04-26T09:40:40.288Z</time></trkpt><trkpt lat="42.2375402" lon="14.202328"><ele>337.4</ele><time>2026-04-26T09:40:41.287Z</time></trkpt><trkpt lat="42.237519" lon="14.2022108"><ele>338.6</ele><time>2026-04-26T09:40:42.288Z</time></trkpt><trkpt lat="42.2374913" lon="14.2020827"><ele>339.8</ele><time>2026-04-26T09:40:43.286Z</time></trkpt><trkpt lat="42.237462" lon="14.2019358"><ele>341.0</ele><time>2026-04-26T09:40:44.285Z</time></trkpt><trkpt lat="42.237431" lon="14.2017802"><ele>341.0</ele><time>2026-04-26T09:40:45.286Z</time></trkpt><trkpt lat="42.2374052" lon="14.2016345"><ele>341.0</ele><time>2026-04-26T09:40:46.285Z</time></trkpt><trkpt lat="42.2373835" lon="14.2014933"><ele>341.0</ele><time>2026-04-26T09:40:47.286Z</time></trkpt><trkpt lat="42.2373643" lon="14.2013562"><ele>341.0</ele><time>2026-04-26T09:40:48.289Z</time></trkpt><trkpt lat="42.2373497" lon="14.2012387"><ele>341.0</ele><time>2026-04-26T09:40:49.288Z</time></trkpt><trkpt lat="42.2373468" lon="14.2011365"><ele>341.6</ele><time>2026-04-26T09:40:50.287Z</time></trkpt><trkpt lat="42.2373568" lon="14.201026"><ele>342.20000000000005</ele><time>2026-04-26T09:40:51.288Z</time></trkpt><trkpt lat="42.2373692" lon="14.200889"><ele>342.79999999999995</ele><time>2026-04-26T09:40:52.287Z</time></trkpt><trkpt lat="42.2373842" lon="14.2007377"><ele>343.4</ele><time>2026-04-26T09:40:53.288Z</time></trkpt><trkpt lat="42.2373963" lon="14.2005855"><ele>344.0</ele><time>2026-04-26T09:40:54.288Z</time></trkpt><trkpt lat="42.2374088" lon="14.2004397"><ele>344.79999999999995</ele><time>2026-04-26T09:40:55.289Z</time></trkpt><trkpt lat="42.2374278" lon="14.2002978"><ele>345.59999999999997</ele><time>2026-04-26T09:40:56.29Z</time></trkpt><trkpt lat="42.2374522" lon="14.2001467"><ele>346.4</ele><time>2026-04-26T09:40:57.288Z</time></trkpt><trkpt lat="42.237476" lon="14.1999947"><ele>347.2</ele><time>2026-04-26T09:40:58.289Z</time></trkpt><trkpt lat="42.2374992" lon="14.1998682"><ele>348.0</ele><time>2026-04-26T09:40:59.288Z</time></trkpt><trkpt lat="42.237504" lon="14.1997625"><ele>348.0</ele><time>2026-04-26T09:41:01.288Z</time></trkpt><trkpt lat="42.2374337" lon="14.1997237"><ele>348.0</ele><time>2026-04-26T09:41:03.289Z</time></trkpt><trkpt lat="42.237363" lon="14.1996945"><ele>348.0</ele><time>2026-04-26T09:41:04.291Z</time></trkpt><trkpt lat="42.2372722" lon="14.1996513"><ele>348.0</ele><time>2026-04-26T09:41:05.289Z</time></trkpt><trkpt lat="42.2371665" lon="14.199604"><ele>348.0</ele><time>2026-04-26T09:41:06.288Z</time></trkpt><trkpt lat="42.2370565" lon="14.1995663"><ele>342.75</ele><time>2026-04-26T09:41:07.29Z</time></trkpt><trkpt lat="42.2369472" lon="14.1995282"><ele>337.5</ele><time>2026-04-26T09:41:08.286Z</time></trkpt><trkpt lat="42.2368402" lon="14.199481"><ele>332.25</ele><time>2026-04-26T09:41:09.285Z</time></trkpt><trkpt lat="42.2367327" lon="14.1994282"><ele>327.0</ele><time>2026-04-26T09:41:10.287Z</time></trkpt><trkpt lat="42.2366225" lon="14.19938"><ele>327.0</ele><time>2026-04-26T09:41:11.288Z</time></trkpt><trkpt lat="42.2365108" lon="14.199339"><ele>327.0</ele><time>2026-04-26T09:41:12.291Z</time></trkpt><trkpt lat="42.2364087" lon="14.1992983"><ele>327.0</ele><time>2026-04-26T09:41:13.288Z</time></trkpt><trkpt lat="42.2363212" lon="14.1992625"><ele>327.0</ele><time>2026-04-26T09:41:14.288Z</time></trkpt><trkpt lat="42.2362448" lon="14.1992392"><ele>327.0</ele><time>2026-04-26T09:41:15.29Z</time></trkpt><trkpt lat="42.2361807" lon="14.199242"><ele>322.20000000000005</ele><time>2026-04-26T09:41:16.29Z</time></trkpt><trkpt lat="42.23611" lon="14.1993415"><ele>317.40000000000003</ele><time>2026-04-26T09:41:18.29Z</time></trkpt><trkpt lat="42.2360837" lon="14.1994335"><ele>312.6</ele><time>2026-04-26T09:41:19.29Z</time></trkpt><trkpt lat="42.2360535" lon="14.1995502"><ele>307.8</ele><time>2026-04-26T09:41:20.289Z</time></trkpt><trkpt lat="42.2360248" lon="14.1996845"><ele>303.0</ele><time>2026-04-26T09:41:21.289Z</time></trkpt><trkpt lat="42.2360005" lon="14.1998137"><ele>303.1666666666667</ele><time>2026-04-26T09:41:22.288Z</time></trkpt><trkpt lat="42.2359707" lon="14.1999355"><ele>303.3333333333333</ele><time>2026-04-26T09:41:23.288Z</time></trkpt><trkpt lat="42.2359328" lon="14.2000432"><ele>303.5</ele><time>2026-04-26T09:41:24.288Z</time></trkpt><trkpt lat="42.2358863" lon="14.2001073"><ele>303.66666666666663</ele><time>2026-04-26T09:41:25.288Z</time></trkpt><trkpt lat="42.235778" lon="14.2001025"><ele>303.8333333333333</ele><time>2026-04-26T09:41:27.288Z</time></trkpt><trkpt lat="42.2357003" lon="14.2000692"><ele>304.0</ele><time>2026-04-26T09:41:28.287Z</time></trkpt><trkpt lat="42.235598" lon="14.2000252"><ele>300.0</ele><time>2026-04-26T09:41:29.287Z</time></trkpt><trkpt lat="42.2354823" lon="14.1999665"><ele>296.0</ele><time>2026-04-26T09:41:30.287Z</time></trkpt><trkpt lat="42.235369" lon="14.199913"><ele>292.0</ele><time>2026-04-26T09:41:31.287Z</time></trkpt><trkpt lat="42.2352675" lon="14.1998582"><ele>288.0</ele><time>2026-04-26T09:41:32.285Z</time></trkpt><trkpt lat="42.2351817" lon="14.1997953"><ele>287.75</ele><time>2026-04-26T09:41:33.284Z</time></trkpt><trkpt lat="42.235093" lon="14.1997052"><ele>287.5</ele><time>2026-04-26T09:41:34.284Z</time></trkpt><trkpt lat="42.2349923" lon="14.1995987"><ele>287.25</ele><time>2026-04-26T09:41:35.284Z</time></trkpt><trkpt lat="42.2348868" lon="14.1994943"><ele>287.0</ele><time>2026-04-26T09:41:36.287Z</time></trkpt><trkpt lat="42.2347847" lon="14.1993882"><ele>285.0</ele><time>2026-04-26T09:41:37.287Z</time></trkpt><trkpt lat="42.2346937" lon="14.1992847"><ele>283.0</ele><time>2026-04-26T09:41:38.287Z</time></trkpt><trkpt lat="42.2346147" lon="14.1991698"><ele>281.0</ele><time>2026-04-26T09:41:39.286Z</time></trkpt><trkpt lat="42.2345453" lon="14.199054"><ele>279.0</ele><time>2026-04-26T09:41:40.286Z</time></trkpt><trkpt lat="42.2344758" lon="14.198945"><ele>278.2</ele><time>2026-04-26T09:41:41.286Z</time></trkpt><trkpt lat="42.2343973" lon="14.1988672"><ele>277.4</ele><time>2026-04-26T09:41:42.286Z</time></trkpt><trkpt lat="42.2343065" lon="14.1988088"><ele>276.6</ele><time>2026-04-26T09:41:43.285Z</time></trkpt><trkpt lat="42.2342143" lon="14.1987338"><ele>275.8</ele><time>2026-04-26T09:41:44.286Z</time></trkpt><trkpt lat="42.2341293" lon="14.198645"><ele>275.0</ele><time>2026-04-26T09:41:45.286Z</time></trkpt><trkpt lat="42.234056" lon="14.1985588"><ele>275.0</ele><time>2026-04-26T09:41:46.285Z</time></trkpt><trkpt lat="42.2339828" lon="14.1985205"><ele>275.0</ele><time>2026-04-26T09:41:47.285Z</time></trkpt><trkpt lat="42.2339225" lon="14.1985557"><ele>275.0</ele><time>2026-04-26T09:41:48.285Z</time></trkpt><trkpt lat="42.2338655" lon="14.1986233"><ele>275.0</ele><time>2026-04-26T09:41:49.284Z</time></trkpt><trkpt lat="42.2338047" lon="14.1986755"><ele>275.0</ele><time>2026-04-26T09:41:50.285Z</time></trkpt><trkpt lat="42.233677" lon="14.1986322"><ele>275.0</ele><time>2026-04-26T09:41:52.288Z</time></trkpt><trkpt lat="42.2335995" lon="14.1985483"><ele>273.75</ele><time>2026-04-26T09:41:53.287Z</time></trkpt><trkpt lat="42.2335037" lon="14.1984422"><ele>272.5</ele><time>2026-04-26T09:41:54.287Z</time></trkpt><trkpt lat="42.2334112" lon="14.1983288"><ele>271.25</ele><time>2026-04-26T09:41:55.286Z</time></trkpt><trkpt lat="42.2333268" lon="14.1982057"><ele>270.0</ele><time>2026-04-26T09:41:56.285Z</time></trkpt><trkpt lat="42.233266" lon="14.198077"><ele>269.4</ele><time>2026-04-26T09:41:57.283Z</time></trkpt><trkpt lat="42.2332357" lon="14.197976"><ele>268.8</ele><time>2026-04-26T09:41:58.287Z</time></trkpt><trkpt lat="42.2332187" lon="14.1978755"><ele>268.2</ele><time>2026-04-26T09:42:01.285Z</time></trkpt><trkpt lat="42.2333165" lon="14.19779"><ele>267.6</ele><time>2026-04-26T09:42:04.287Z</time></trkpt><trkpt lat="42.2333872" lon="14.1977243"><ele>267.0</ele><time>2026-04-26T09:42:05.286Z</time></trkpt><trkpt lat="42.2334675" lon="14.1976563"><ele>267.0</ele><time>2026-04-26T09:42:06.286Z</time></trkpt><trkpt lat="42.2335503" lon="14.1976038"><ele>267.0</ele><time>2026-04-26T09:42:07.285Z</time></trkpt><trkpt lat="42.2336193" lon="14.1975535"><ele>267.0</ele><time>2026-04-26T09:42:08.285Z</time></trkpt><trkpt lat="42.2336722" lon="14.197481"><ele>267.0</ele><time>2026-04-26T09:42:10.286Z</time></trkpt><trkpt lat="42.2337025" lon="14.1973947"><ele>267.0</ele><time>2026-04-26T09:42:13.287Z</time></trkpt><trkpt lat="42.2336448" lon="14.1974653"><ele>267.0</ele><time>2026-04-26T09:42:18.287Z</time></trkpt><trkpt lat="42.2335665" lon="14.1975328"><ele>267.0</ele><time>2026-04-26T09:42:20.286Z</time></trkpt><trkpt lat="42.2334447" lon="14.1976278"><ele>267.0</ele><time>2026-04-26T09:42:22.285Z</time></trkpt><trkpt lat="42.2333703" lon="14.1976922"><ele>267.0</ele><time>2026-04-26T09:42:23.283Z</time></trkpt><trkpt lat="42.2332953" lon="14.1977572"><ele>267.0</ele><time>2026-04-26T09:42:24.284Z</time></trkpt><trkpt lat="42.2332298" lon="14.1978053"><ele>267.0</ele><time>2026-04-26T09:42:25.285Z</time></trkpt><trkpt lat="42.2331637" lon="14.1978373"><ele>267.0</ele><time>2026-04-26T09:42:26.286Z</time></trkpt><trkpt lat="42.2330945" lon="14.1978507"><ele>267.0</ele><time>2026-04-26T09:42:27.286Z</time></trkpt><trkpt lat="42.2330138" lon="14.1978337"><ele>267.0</ele><time>2026-04-26T09:42:29.287Z</time></trkpt><trkpt lat="42.2329707" lon="14.197765"><ele>267.0</ele><time>2026-04-26T09:42:37.286Z</time></trkpt><trkpt lat="42.232987" lon="14.197661"><ele>267.0</ele><time>2026-04-26T09:42:42.288Z</time></trkpt><trkpt lat="42.2329902" lon="14.1975263"><ele>267.0</ele><time>2026-04-26T09:42:45.288Z</time></trkpt><trkpt lat="42.2329958" lon="14.1974207"><ele>267.00000000000006</ele><time>2026-04-26T09:42:47.285Z</time></trkpt><trkpt lat="42.2329838" lon="14.1973362"><ele>267.0</ele><time>2026-04-26T09:42:54.287Z</time></trkpt><trkpt lat="42.2329593" lon="14.197254"><ele>267.0</ele><time>2026-04-26T09:43:03.287Z</time></trkpt><trkpt lat="42.2329477" lon="14.1971698"><ele>267.0</ele><time>2026-04-26T09:43:06.288Z</time></trkpt><trkpt lat="42.2328544" lon="14.1971507"><ele>267.0</ele><time>2026-04-26T09:49:18.569Z</time></trkpt><trkpt lat="42.2328968" lon="14.1970789"><ele>267.00000000000006</ele><time>2026-04-26T09:51:05.754Z</time></trkpt><trkpt lat="42.2328806" lon="14.1969612"><ele>267.0</ele><time>2026-04-26T09:51:08.756Z</time></trkpt><trkpt lat="42.23285" lon="14.1968135"><ele>267.42857142857144</ele><time>2026-04-26T09:51:10.755Z</time></trkpt><trkpt lat="42.2328336" lon="14.1967306"><ele>267.8571428571429</ele><time>2026-04-26T09:51:11.755Z</time></trkpt><trkpt lat="42.232816" lon="14.1966441"><ele>268.2857142857143</ele><time>2026-04-26T09:51:12.756Z</time></trkpt><trkpt lat="42.2328062" lon="14.1965499"><ele>268.7142857142857</ele><time>2026-04-26T09:51:13.756Z</time></trkpt><trkpt lat="42.2328046" lon="14.1964531"><ele>269.1428571428571</ele><time>2026-04-26T09:51:14.755Z</time></trkpt><trkpt lat="42.2328036" lon="14.1963643"><ele>269.57142857142856</ele><time>2026-04-26T09:51:15.757Z</time></trkpt><trkpt lat="42.2327944" lon="14.1962757"><ele>270.0</ele><time>2026-04-26T09:51:16.755Z</time></trkpt><trkpt lat="42.232772" lon="14.196187"><ele>270.1666666666667</ele><time>2026-04-26T09:51:17.755Z</time></trkpt><trkpt lat="42.2327338" lon="14.1961164"><ele>270.3333333333333</ele><time>2026-04-26T09:51:18.757Z</time></trkpt><trkpt lat="42.2326282" lon="14.196029"><ele>270.5</ele><time>2026-04-26T09:51:20.755Z</time></trkpt><trkpt lat="42.2325583" lon="14.1960099"><ele>270.66666666666663</ele><time>2026-04-26T09:51:21.756Z</time></trkpt><trkpt lat="42.2324832" lon="14.1960065"><ele>270.8333333333333</ele><time>2026-04-26T09:51:22.757Z</time></trkpt><trkpt lat="42.2324061" lon="14.1960134"><ele>271.0</ele><time>2026-04-26T09:51:23.754Z</time></trkpt><trkpt lat="42.2323262" lon="14.1960254"><ele>271.6</ele><time>2026-04-26T09:51:24.756Z</time></trkpt><trkpt lat="42.232236" lon="14.1960652"><ele>272.20000000000005</ele><time>2026-04-26T09:51:25.754Z</time></trkpt><trkpt lat="42.232146" lon="14.1960972"><ele>272.79999999999995</ele><time>2026-04-26T09:51:26.754Z</time></trkpt><trkpt lat="42.2320505" lon="14.1961145"><ele>273.4</ele><time>2026-04-26T09:51:27.753Z</time></trkpt><trkpt lat="42.2319547" lon="14.1961267"><ele>274.0</ele><time>2026-04-26T09:51:28.755Z</time></trkpt><trkpt lat="42.2318642" lon="14.1961357"><ele>274.0</ele><time>2026-04-26T09:51:29.755Z</time></trkpt><trkpt lat="42.2317912" lon="14.1961467"><ele>274.0</ele><time>2026-04-26T09:51:30.756Z</time></trkpt><trkpt lat="42.2316945" lon="14.1961725"><ele>274.0</ele><time>2026-04-26T09:51:32.755Z</time></trkpt><trkpt lat="42.2315917" lon="14.196188"><ele>274.0</ele><time>2026-04-26T09:51:34.754Z</time></trkpt><trkpt lat="42.2315287" lon="14.1961937"><ele>274.0</ele><time>2026-04-26T09:51:35.756Z</time></trkpt><trkpt lat="42.231458" lon="14.1962015"><ele>274.0</ele><time>2026-04-26T09:51:36.757Z</time></trkpt><trkpt lat="42.2313822" lon="14.1962038"><ele>274.4</ele><time>2026-04-26T09:51:37.755Z</time></trkpt><trkpt lat="42.2312998" lon="14.1962017"><ele>274.79999999999995</ele><time>2026-04-26T09:51:38.756Z</time></trkpt><trkpt lat="42.2312315" lon="14.1961968"><ele>275.20000000000005</ele><time>2026-04-26T09:51:39.757Z</time></trkpt><trkpt lat="42.2311363" lon="14.1961807"><ele>275.6</ele><time>2026-04-26T09:51:41.755Z</time></trkpt><trkpt lat="42.23101" lon="14.1961485"><ele>276.0</ele><time>2026-04-26T09:51:43.756Z</time></trkpt><trkpt lat="42.2309242" lon="14.1961193"><ele>276.0</ele><time>2026-04-26T09:51:44.756Z</time></trkpt><trkpt lat="42.2307385" lon="14.1960385"><ele>276.0</ele><time>2026-04-26T09:51:46.757Z</time></trkpt><trkpt lat="42.2306407" lon="14.195982"><ele>276.0</ele><time>2026-04-26T09:51:47.754Z</time></trkpt><trkpt lat="42.2305482" lon="14.1959078"><ele>276.0</ele><time>2026-04-26T09:51:48.757Z</time></trkpt><trkpt lat="42.2304577" lon="14.1958117"><ele>276.0</ele><time>2026-04-26T09:51:49.754Z</time></trkpt><trkpt lat="42.2303695" lon="14.195718"><ele>276.0</ele><time>2026-04-26T09:51:50.753Z</time></trkpt><trkpt lat="42.2302788" lon="14.1956522"><ele>276.0</ele><time>2026-04-26T09:51:51.753Z</time></trkpt><trkpt lat="42.230171" lon="14.1955987"><ele>276.0</ele><time>2026-04-26T09:51:52.754Z</time></trkpt><trkpt lat="42.2300558" lon="14.1955607"><ele>276.0</ele><time>2026-04-26T09:51:53.754Z</time></trkpt><trkpt lat="42.2299528" lon="14.1955243"><ele>277.0</ele><time>2026-04-26T09:51:54.756Z</time></trkpt><trkpt lat="42.2298752" lon="14.1954635"><ele>278.0</ele><time>2026-04-26T09:51:55.756Z</time></trkpt><trkpt lat="42.2298053" lon="14.1953702"><ele>279.0</ele><time>2026-04-26T09:51:56.756Z</time></trkpt><trkpt lat="42.2297463" lon="14.1952402"><ele>280.0</ele><time>2026-04-26T09:51:57.756Z</time></trkpt><trkpt lat="42.2296777" lon="14.195089"><ele>281.0</ele><time>2026-04-26T09:51:58.756Z</time></trkpt><trkpt lat="42.229591" lon="14.1949293"><ele>283.0</ele><time>2026-04-26T09:51:59.756Z</time></trkpt><trkpt lat="42.229491" lon="14.1947667"><ele>285.0</ele><time>2026-04-26T09:52:00.757Z</time></trkpt><trkpt lat="42.2293827" lon="14.1946008"><ele>287.0</ele><time>2026-04-26T09:52:01.755Z</time></trkpt><trkpt lat="42.2292747" lon="14.1944317"><ele>287.0</ele><time>2026-04-26T09:52:02.755Z</time></trkpt><trkpt lat="42.2291535" lon="14.1942745"><ele>287.0</ele><time>2026-04-26T09:52:03.755Z</time></trkpt><trkpt lat="42.2290282" lon="14.1941197"><ele>287.0</ele><time>2026-04-26T09:52:04.756Z</time></trkpt><trkpt lat="42.2289088" lon="14.1939797"><ele>289.25</ele><time>2026-04-26T09:52:05.758Z</time></trkpt><trkpt lat="42.2288035" lon="14.1938803"><ele>291.5</ele><time>2026-04-26T09:52:06.758Z</time></trkpt><trkpt lat="42.2287007" lon="14.1938323"><ele>293.75</ele><time>2026-04-26T09:52:07.756Z</time></trkpt><trkpt lat="42.2285913" lon="14.1938157"><ele>296.0</ele><time>2026-04-26T09:52:08.758Z</time></trkpt><trkpt lat="42.2284767" lon="14.1937863"><ele>296.0</ele><time>2026-04-26T09:52:09.757Z</time></trkpt><trkpt lat="42.2283538" lon="14.1937327"><ele>296.0</ele><time>2026-04-26T09:52:10.757Z</time></trkpt><trkpt lat="42.2282342" lon="14.1936493"><ele>296.0</ele><time>2026-04-26T09:52:11.756Z</time></trkpt><trkpt lat="42.2281328" lon="14.1935353"><ele>296.0</ele><time>2026-04-26T09:52:12.755Z</time></trkpt><trkpt lat="42.2280272" lon="14.193415"><ele>294.75</ele><time>2026-04-26T09:52:13.756Z</time></trkpt><trkpt lat="42.2279128" lon="14.1932963"><ele>293.5</ele><time>2026-04-26T09:52:14.753Z</time></trkpt><trkpt lat="42.2277932" lon="14.1931887"><ele>292.25</ele><time>2026-04-26T09:52:15.754Z</time></trkpt><trkpt lat="42.227661" lon="14.1930805"><ele>291.0</ele><time>2026-04-26T09:52:16.753Z</time></trkpt><trkpt lat="42.2275233" lon="14.1929648"><ele>293.25</ele><time>2026-04-26T09:52:17.753Z</time></trkpt><trkpt lat="42.2273878" lon="14.1928497"><ele>295.5</ele><time>2026-04-26T09:52:18.754Z</time></trkpt><trkpt lat="42.2272568" lon="14.192746"><ele>297.75</ele><time>2026-04-26T09:52:19.757Z</time></trkpt><trkpt lat="42.2271385" lon="14.1926708"><ele>300.0</ele><time>2026-04-26T09:52:20.755Z</time></trkpt><trkpt lat="42.2270128" lon="14.192626"><ele>300.0</ele><time>2026-04-26T09:52:21.758Z</time></trkpt><trkpt lat="42.2268758" lon="14.1925935"><ele>300.0</ele><time>2026-04-26T09:52:22.756Z</time></trkpt><trkpt lat="42.2267293" lon="14.1925715"><ele>300.0</ele><time>2026-04-26T09:52:23.756Z</time></trkpt><trkpt lat="42.2265757" lon="14.1925628"><ele>300.0</ele><time>2026-04-26T09:52:24.756Z</time></trkpt><trkpt lat="42.2264265" lon="14.1925652"><ele>300.5</ele><time>2026-04-26T09:52:25.756Z</time></trkpt><trkpt lat="42.2262853" lon="14.1925918"><ele>301.0</ele><time>2026-04-26T09:52:26.757Z</time></trkpt><trkpt lat="42.2261427" lon="14.1926407"><ele>301.5</ele><time>2026-04-26T09:52:27.757Z</time></trkpt><trkpt lat="42.2259922" lon="14.1927005"><ele>302.0</ele><time>2026-04-26T09:52:28.756Z</time></trkpt><trkpt lat="42.2258388" lon="14.1927592"><ele>302.0</ele><time>2026-04-26T09:52:29.757Z</time></trkpt><trkpt lat="42.2256788" lon="14.1928055"><ele>302.0</ele><time>2026-04-26T09:52:30.756Z</time></trkpt><trkpt lat="42.2255145" lon="14.1928343"><ele>302.0</ele><time>2026-04-26T09:52:31.759Z</time></trkpt><trkpt lat="42.2253488" lon="14.1928478"><ele>303.0</ele><time>2026-04-26T09:52:32.755Z</time></trkpt><trkpt lat="42.2251817" lon="14.1928553"><ele>304.0</ele><time>2026-04-26T09:52:33.757Z</time></trkpt><trkpt lat="42.2250125" lon="14.1928827"><ele>305.0</ele><time>2026-04-26T09:52:34.755Z</time></trkpt><trkpt lat="42.2248425" lon="14.192913"><ele>305.6666666666667</ele><time>2026-04-26T09:52:35.756Z</time></trkpt><trkpt lat="42.2246718" lon="14.1929293"><ele>306.3333333333333</ele><time>2026-04-26T09:52:36.757Z</time></trkpt><trkpt lat="42.2244997" lon="14.1929357"><ele>307.0</ele><time>2026-04-26T09:52:37.757Z</time></trkpt><trkpt lat="42.2243422" lon="14.1929238"><ele>307.0</ele><time>2026-04-26T09:52:38.756Z</time></trkpt><trkpt lat="42.2242067" lon="14.1928763"><ele>307.0</ele><time>2026-04-26T09:52:39.755Z</time></trkpt><trkpt lat="42.2240913" lon="14.1927925"><ele>307.0</ele><time>2026-04-26T09:52:40.753Z</time></trkpt><trkpt lat="42.2239895" lon="14.1926853"><ele>307.0</ele><time>2026-04-26T09:52:41.755Z</time></trkpt><trkpt lat="42.2238973" lon="14.1925912"><ele>308.0</ele><time>2026-04-26T09:52:42.756Z</time></trkpt><trkpt lat="42.2238027" lon="14.1925183"><ele>309.0</ele><time>2026-04-26T09:52:43.757Z</time></trkpt><trkpt lat="42.2237095" lon="14.1924802"><ele>310.0</ele><time>2026-04-26T09:52:44.76Z</time></trkpt><trkpt lat="42.2236202" lon="14.1924842"><ele>311.0</ele><time>2026-04-26T09:52:45.757Z</time></trkpt><trkpt lat="42.223527" lon="14.1925223"><ele>312.0</ele><time>2026-04-26T09:52:46.755Z</time></trkpt><trkpt lat="42.2234207" lon="14.1925748"><ele>312.0</ele><time>2026-04-26T09:52:47.758Z</time></trkpt><trkpt lat="42.2232977" lon="14.1926223"><ele>312.0</ele><time>2026-04-26T09:52:48.758Z</time></trkpt><trkpt lat="42.2231587" lon="14.1926665"><ele>312.0</ele><time>2026-04-26T09:52:49.758Z</time></trkpt><trkpt lat="42.2230058" lon="14.1927025"><ele>312.0</ele><time>2026-04-26T09:52:50.758Z</time></trkpt><trkpt lat="42.222844" lon="14.192733"><ele>312.6666666666667</ele><time>2026-04-26T09:52:51.758Z</time></trkpt><trkpt lat="42.2226753" lon="14.1927543"><ele>313.33333333333337</ele><time>2026-04-26T09:52:52.755Z</time></trkpt><trkpt lat="42.2225062" lon="14.1927538"><ele>314.0</ele><time>2026-04-26T09:52:53.758Z</time></trkpt><trkpt lat="42.2223528" lon="14.1927265"><ele>315.33333333333337</ele><time>2026-04-26T09:52:54.757Z</time></trkpt><trkpt lat="42.222197" lon="14.1926887"><ele>316.6666666666667</ele><time>2026-04-26T09:52:55.755Z</time></trkpt><trkpt lat="42.2220313" lon="14.1926363"><ele>318.0</ele><time>2026-04-26T09:52:56.755Z</time></trkpt><trkpt lat="42.2218588" lon="14.1925793"><ele>318.0</ele><time>2026-04-26T09:52:57.755Z</time></trkpt><trkpt lat="42.221704" lon="14.1925225"><ele>318.0</ele><time>2026-04-26T09:52:58.755Z</time></trkpt><trkpt lat="42.2215715" lon="14.1924452"><ele>318.0</ele><time>2026-04-26T09:52:59.756Z</time></trkpt><trkpt lat="42.2214517" lon="14.192348"><ele>318.0</ele><time>2026-04-26T09:53:00.758Z</time></trkpt><trkpt lat="42.2213465" lon="14.1922635"><ele>319.2</ele><time>2026-04-26T09:53:01.757Z</time></trkpt><trkpt lat="42.2212617" lon="14.1922038"><ele>320.4</ele><time>2026-04-26T09:53:02.755Z</time></trkpt><trkpt lat="42.2211742" lon="14.1921803"><ele>321.59999999999997</ele><time>2026-04-26T09:53:04.742Z</time></trkpt><trkpt lat="42.2212495" lon="14.1923125"><ele>322.8</ele><time>2026-04-26T09:53:07.757Z</time></trkpt><trkpt lat="42.2213297" lon="14.1923825"><ele>324.0</ele><time>2026-04-26T09:53:08.758Z</time></trkpt><trkpt lat="42.2214265" lon="14.1924753"><ele>322.5</ele><time>2026-04-26T09:53:09.757Z</time></trkpt><trkpt lat="42.221533" lon="14.1925895"><ele>321.0</ele><time>2026-04-26T09:53:10.758Z</time></trkpt><trkpt lat="42.2216495" lon="14.192716"><ele>319.5</ele><time>2026-04-26T09:53:11.757Z</time></trkpt><trkpt lat="42.2217757" lon="14.1928483"><ele>318.0</ele><time>2026-04-26T09:53:12.758Z</time></trkpt><trkpt lat="42.2219038" lon="14.1929767"><ele>318.0</ele><time>2026-04-26T09:53:13.756Z</time></trkpt><trkpt lat="42.222026" lon="14.1930923"><ele>318.0</ele><time>2026-04-26T09:53:14.757Z</time></trkpt><trkpt lat="42.2221377" lon="14.1931957"><ele>318.0</ele><time>2026-04-26T09:53:15.757Z</time></trkpt><trkpt lat="42.2222488" lon="14.1932915"><ele>318.0</ele><time>2026-04-26T09:53:16.755Z</time></trkpt><trkpt lat="42.2223722" lon="14.1933873"><ele>315.3333333333333</ele><time>2026-04-26T09:53:17.755Z</time></trkpt><trkpt lat="42.222508" lon="14.1934845"><ele>312.66666666666663</ele><time>2026-04-26T09:53:18.756Z</time></trkpt><trkpt lat="42.2226478" lon="14.193583"><ele>310.0</ele><time>2026-04-26T09:53:19.755Z</time></trkpt><trkpt lat="42.2227852" lon="14.1936782"><ele>310.0</ele><time>2026-04-26T09:53:20.755Z</time></trkpt><trkpt lat="42.2229217" lon="14.1937687"><ele>310.0</ele><time>2026-04-26T09:53:21.756Z</time></trkpt><trkpt lat="42.2230493" lon="14.1938557"><ele>310.0</ele><time>2026-04-26T09:53:22.755Z</time></trkpt><trkpt lat="42.2231727" lon="14.1939458"><ele>310.0</ele><time>2026-04-26T09:53:23.756Z</time></trkpt><trkpt lat="42.2232993" lon="14.1940223"><ele>308.5</ele><time>2026-04-26T09:53:24.756Z</time></trkpt><trkpt lat="42.2234252" lon="14.1940928"><ele>307.0</ele><time>2026-04-26T09:53:25.755Z</time></trkpt><trkpt lat="42.2235457" lon="14.1941577"><ele>305.5</ele><time>2026-04-26T09:53:26.755Z</time></trkpt><trkpt lat="42.2236635" lon="14.194223"><ele>304.0</ele><time>2026-04-26T09:53:27.756Z</time></trkpt><trkpt lat="42.2237755" lon="14.1943137"><ele>304.0</ele><time>2026-04-26T09:53:28.753Z</time></trkpt><trkpt lat="42.2238853" lon="14.1944233"><ele>304.0</ele><time>2026-04-26T09:53:29.754Z</time></trkpt><trkpt lat="42.2239985" lon="14.1945353"><ele>304.0</ele><time>2026-04-26T09:53:30.753Z</time></trkpt><trkpt lat="42.2241102" lon="14.1946308"><ele>304.0</ele><time>2026-04-26T09:53:31.752Z</time></trkpt><trkpt lat="42.2242238" lon="14.1947105"><ele>303.5</ele><time>2026-04-26T09:53:32.753Z</time></trkpt><trkpt lat="42.2243443" lon="14.1947865"><ele>303.0</ele><time>2026-04-26T09:53:33.753Z</time></trkpt><trkpt lat="42.224466" lon="14.1948547"><ele>302.5</ele><time>2026-04-26T09:53:34.754Z</time></trkpt><trkpt lat="42.2245807" lon="14.1949"><ele>302.0</ele><time>2026-04-26T09:53:35.755Z</time></trkpt><trkpt lat="42.2246897" lon="14.1949158"><ele>301.5</ele><time>2026-04-26T09:53:36.755Z</time></trkpt><trkpt lat="42.2248092" lon="14.194915"><ele>301.0</ele><time>2026-04-26T09:53:37.753Z</time></trkpt><trkpt lat="42.2249292" lon="14.1949168"><ele>300.5</ele><time>2026-04-26T09:53:38.756Z</time></trkpt><trkpt lat="42.225053" lon="14.1949305"><ele>300.0</ele><time>2026-04-26T09:53:39.756Z</time></trkpt><trkpt lat="42.2251685" lon="14.1949652"><ele>298.6</ele><time>2026-04-26T09:53:40.755Z</time></trkpt><trkpt lat="42.2252548" lon="14.195023"><ele>297.2</ele><time>2026-04-26T09:53:41.755Z</time></trkpt><trkpt lat="42.2253223" lon="14.195113"><ele>295.8</ele><time>2026-04-26T09:53:42.756Z</time></trkpt><trkpt lat="42.2253698" lon="14.1952292"><ele>294.4</ele><time>2026-04-26T09:53:43.757Z</time></trkpt><trkpt lat="42.2253997" lon="14.1953635"><ele>293.0</ele><time>2026-04-26T09:53:44.755Z</time></trkpt><trkpt lat="42.2254387" lon="14.1954832"><ele>293.0</ele><time>2026-04-26T09:53:45.756Z</time></trkpt><trkpt lat="42.2254977" lon="14.1955648"><ele>293.0</ele><time>2026-04-26T09:53:46.753Z</time></trkpt><trkpt lat="42.2255737" lon="14.1956168"><ele>293.0</ele><time>2026-04-26T09:53:47.754Z</time></trkpt><trkpt lat="42.225663" lon="14.1956453"><ele>293.0</ele><time>2026-04-26T09:53:48.756Z</time></trkpt><trkpt lat="42.2257403" lon="14.1956767"><ele>293.0</ele><time>2026-04-26T09:53:49.754Z</time></trkpt><trkpt lat="42.2258387" lon="14.1957318"><ele>293.0</ele><time>2026-04-26T09:53:51.754Z</time></trkpt><trkpt lat="42.2258818" lon="14.1958407"><ele>294.4</ele><time>2026-04-26T09:53:53.754Z</time></trkpt><trkpt lat="42.225903" lon="14.1959617"><ele>295.8</ele><time>2026-04-26T09:53:55.752Z</time></trkpt><trkpt lat="42.2259508" lon="14.1960497"><ele>297.2</ele><time>2026-04-26T09:55:39.757Z</time></trkpt><trkpt lat="42.2259783" lon="14.1961598"><ele>298.6</ele><time>2026-04-26T09:55:42.754Z</time></trkpt><trkpt lat="42.2260217" lon="14.1963167"><ele>300.0</ele><time>2026-04-26T09:55:44.754Z</time></trkpt><trkpt lat="42.226048" lon="14.1964237"><ele>302.1666666666667</ele><time>2026-04-26T09:55:45.756Z</time></trkpt><trkpt lat="42.2260732" lon="14.1965377"><ele>304.3333333333333</ele><time>2026-04-26T09:55:46.753Z</time></trkpt><trkpt lat="42.2261057" lon="14.1966303"><ele>306.5</ele><time>2026-04-26T09:55:47.754Z</time></trkpt><trkpt lat="42.226153" lon="14.1967152"><ele>308.66666666666663</ele><time>2026-04-26T09:55:48.757Z</time></trkpt><trkpt lat="42.2262198" lon="14.1967863"><ele>310.8333333333333</ele><time>2026-04-26T09:55:49.754Z</time></trkpt><trkpt lat="42.2263038" lon="14.1968473"><ele>313.0</ele><time>2026-04-26T09:55:50.755Z</time></trkpt><trkpt lat="42.226403" lon="14.1969178"><ele>313.75</ele><time>2026-04-26T09:55:51.754Z</time></trkpt><trkpt lat="42.2265013" lon="14.1970125"><ele>314.5</ele><time>2026-04-26T09:55:52.754Z</time></trkpt><trkpt lat="42.2265867" lon="14.1971297"><ele>315.25</ele><time>2026-04-26T09:55:53.756Z</time></trkpt><trkpt lat="42.2266715" lon="14.1972552"><ele>316.0</ele><time>2026-04-26T09:55:54.755Z</time></trkpt><trkpt lat="42.2267662" lon="14.1973645"><ele>316.0</ele><time>2026-04-26T09:55:55.752Z</time></trkpt><trkpt lat="42.2268753" lon="14.1974672"><ele>316.0</ele><time>2026-04-26T09:55:56.752Z</time></trkpt><trkpt lat="42.2269905" lon="14.1975645"><ele>316.0</ele><time>2026-04-26T09:55:57.753Z</time></trkpt><trkpt lat="42.2271065" lon="14.197677"><ele>316.0</ele><time>2026-04-26T09:55:58.755Z</time></trkpt><trkpt lat="42.227204" lon="14.197787"><ele>316.0</ele><time>2026-04-26T09:55:59.755Z</time></trkpt><trkpt lat="42.227283" lon="14.1979078"><ele>316.0</ele><time>2026-04-26T09:56:00.758Z</time></trkpt><trkpt lat="42.2273433" lon="14.1980532"><ele>316.0</ele><time>2026-04-26T09:56:01.757Z</time></trkpt><trkpt lat="42.2273968" lon="14.1982178"><ele>316.0</ele><time>2026-04-26T09:56:02.756Z</time></trkpt><trkpt lat="42.2274328" lon="14.1983997"><ele>315.75</ele><time>2026-04-26T09:56:03.756Z</time></trkpt><trkpt lat="42.2274502" lon="14.1985758"><ele>315.5</ele><time>2026-04-26T09:56:04.756Z</time></trkpt><trkpt lat="42.2274512" lon="14.1987577"><ele>315.25</ele><time>2026-04-26T09:56:05.755Z</time></trkpt><trkpt lat="42.2274415" lon="14.1989287"><ele>315.0</ele><time>2026-04-26T09:56:06.755Z</time></trkpt><trkpt lat="42.2274442" lon="14.199075"><ele>314.2</ele><time>2026-04-26T09:56:07.756Z</time></trkpt><trkpt lat="42.2274707" lon="14.1991833"><ele>313.4</ele><time>2026-04-26T09:56:08.756Z</time></trkpt><trkpt lat="42.2275218" lon="14.1992962"><ele>312.6</ele><time>2026-04-26T09:56:09.754Z</time></trkpt><trkpt lat="42.2275897" lon="14.1994347"><ele>311.8</ele><time>2026-04-26T09:56:10.757Z</time></trkpt><trkpt lat="42.227653" lon="14.1995673"><ele>311.0</ele><time>2026-04-26T09:56:11.755Z</time></trkpt><trkpt lat="42.2276915" lon="14.199686"><ele>311.0</ele><time>2026-04-26T09:56:12.756Z</time></trkpt><trkpt lat="42.2276973" lon="14.199793"><ele>311.0</ele><time>2026-04-26T09:56:13.757Z</time></trkpt><trkpt lat="42.2276762" lon="14.199904"><ele>311.0</ele><time>2026-04-26T09:56:14.755Z</time></trkpt><trkpt lat="42.2276327" lon="14.2000338"><ele>311.0</ele><time>2026-04-26T09:56:15.754Z</time></trkpt><trkpt lat="42.2275777" lon="14.2001903"><ele>311.0</ele><time>2026-04-26T09:56:16.755Z</time></trkpt><trkpt lat="42.227515" lon="14.200353"><ele>310.6</ele><time>2026-04-26T09:56:17.755Z</time></trkpt><trkpt lat="42.2274308" lon="14.200508"><ele>310.20000000000005</ele><time>2026-04-26T09:56:18.756Z</time></trkpt><trkpt lat="42.227354" lon="14.2006383"><ele>309.79999999999995</ele><time>2026-04-26T09:56:19.756Z</time></trkpt><trkpt lat="42.2273062" lon="14.2007413"><ele>309.4</ele><time>2026-04-26T09:56:20.754Z</time></trkpt><trkpt lat="42.2272877" lon="14.2008258"><ele>309.0</ele><time>2026-04-26T09:56:21.753Z</time></trkpt><trkpt lat="42.2273435" lon="14.2009407"><ele>308.3333333333333</ele><time>2026-04-26T09:56:23.754Z</time></trkpt><trkpt lat="42.2273945" lon="14.2009987"><ele>307.6666666666667</ele><time>2026-04-26T09:56:24.754Z</time></trkpt><trkpt lat="42.2274755" lon="14.2010775"><ele>307.0</ele><time>2026-04-26T09:56:25.751Z</time></trkpt><trkpt lat="42.2275308" lon="14.2011317"><ele>306.33333333333337</ele><time>2026-04-26T09:56:26.754Z</time></trkpt><trkpt lat="42.2275358" lon="14.2012472"><ele>305.6666666666667</ele><time>2026-04-26T09:56:28.753Z</time></trkpt><trkpt lat="42.2274985" lon="14.2013188"><ele>305.0</ele><time>2026-04-26T09:56:29.754Z</time></trkpt><trkpt lat="42.227442" lon="14.2014148"><ele>304.0</ele><time>2026-04-26T09:56:30.756Z</time></trkpt><trkpt lat="42.2273702" lon="14.2015353"><ele>303.0</ele><time>2026-04-26T09:56:31.755Z</time></trkpt><trkpt lat="42.2272903" lon="14.2016668"><ele>302.0</ele><time>2026-04-26T09:56:32.756Z</time></trkpt><trkpt lat="42.2272235" lon="14.2018033"><ele>301.0</ele><time>2026-04-26T09:56:33.756Z</time></trkpt><trkpt lat="42.227159" lon="14.2019172"><ele>302.6</ele><time>2026-04-26T09:56:34.757Z</time></trkpt><trkpt lat="42.2270833" lon="14.2020165"><ele>304.20000000000005</ele><time>2026-04-26T09:56:35.756Z</time></trkpt><trkpt lat="42.2270187" lon="14.2021183"><ele>305.79999999999995</ele><time>2026-04-26T09:56:36.755Z</time></trkpt><trkpt lat="42.2269575" lon="14.2022348"><ele>307.4</ele><time>2026-04-26T09:56:37.756Z</time></trkpt><trkpt lat="42.22689" lon="14.202356"><ele>309.0</ele><time>2026-04-26T09:56:38.754Z</time></trkpt><trkpt lat="42.2268092" lon="14.202467"><ele>309.0</ele><time>2026-04-26T09:56:39.756Z</time></trkpt><trkpt lat="42.2267338" lon="14.2025645"><ele>309.0</ele><time>2026-04-26T09:56:40.757Z</time></trkpt><trkpt lat="42.2266845" lon="14.2026625"><ele>309.0</ele><time>2026-04-26T09:56:41.756Z</time></trkpt><trkpt lat="42.2266467" lon="14.2027643"><ele>309.0</ele><time>2026-04-26T09:56:42.756Z</time></trkpt><trkpt lat="42.2266005" lon="14.202842"><ele>309.0</ele><time>2026-04-26T09:56:43.753Z</time></trkpt><trkpt lat="42.2265308" lon="14.202918"><ele>309.0</ele><time>2026-04-26T09:56:44.754Z</time></trkpt><trkpt lat="42.2264518" lon="14.202999"><ele>309.2</ele><time>2026-04-26T09:56:45.756Z</time></trkpt><trkpt lat="42.2263673" lon="14.2030778"><ele>309.4</ele><time>2026-04-26T09:56:46.753Z</time></trkpt><trkpt lat="42.226306" lon="14.2031547"><ele>309.6</ele><time>2026-04-26T09:56:47.754Z</time></trkpt><trkpt lat="42.2262568" lon="14.2032562"><ele>309.8</ele><time>2026-04-26T09:56:48.754Z</time></trkpt><trkpt lat="42.2261962" lon="14.2033738"><ele>310.0</ele><time>2026-04-26T09:56:49.755Z</time></trkpt><trkpt lat="42.2261397" lon="14.2034897"><ele>310.0</ele><time>2026-04-26T09:56:50.755Z</time></trkpt><trkpt lat="42.22608" lon="14.2035852"><ele>310.0</ele><time>2026-04-26T09:56:51.755Z</time></trkpt><trkpt lat="42.2260032" lon="14.2036813"><ele>310.0</ele><time>2026-04-26T09:56:52.755Z</time></trkpt><trkpt lat="42.2259118" lon="14.2037637"><ele>310.0</ele><time>2026-04-26T09:56:53.755Z</time></trkpt><trkpt lat="42.2258093" lon="14.2038343"><ele>310.0</ele><time>2026-04-26T09:56:54.756Z</time></trkpt><trkpt lat="42.2257123" lon="14.2038873"><ele>309.6</ele><time>2026-04-26T09:56:55.755Z</time></trkpt><trkpt lat="42.2256325" lon="14.2039535"><ele>309.2</ele><time>2026-04-26T09:56:56.754Z</time></trkpt><trkpt lat="42.2255572" lon="14.2040283"><ele>308.8</ele><time>2026-04-26T09:56:57.756Z</time></trkpt><trkpt lat="42.2254882" lon="14.2040983"><ele>308.4</ele><time>2026-04-26T09:56:58.755Z</time></trkpt><trkpt lat="42.2254042" lon="14.2041537"><ele>308.0</ele><time>2026-04-26T09:56:59.755Z</time></trkpt><trkpt lat="42.2253082" lon="14.2041973"><ele>308.0</ele><time>2026-04-26T09:57:00.754Z</time></trkpt><trkpt lat="42.225212" lon="14.2042492"><ele>308.0</ele><time>2026-04-26T09:57:01.755Z</time></trkpt><trkpt lat="42.225133" lon="14.2042973"><ele>308.0</ele><time>2026-04-26T09:57:02.757Z</time></trkpt><trkpt lat="42.2250558" lon="14.2043368"><ele>308.0</ele><time>2026-04-26T09:57:03.755Z</time></trkpt><trkpt lat="42.22499" lon="14.2043907"><ele>308.0</ele><time>2026-04-26T09:57:04.756Z</time></trkpt><trkpt lat="42.2249285" lon="14.20445"><ele>308.0</ele><time>2026-04-26T09:57:05.757Z</time></trkpt><trkpt lat="42.2248693" lon="14.2045082"><ele>308.0</ele><time>2026-04-26T09:57:06.756Z</time></trkpt><trkpt lat="42.2248205" lon="14.2045657"><ele>308.0</ele><time>2026-04-26T09:57:07.753Z</time></trkpt><trkpt lat="42.224766" lon="14.2046218"><ele>308.0</ele><time>2026-04-26T09:57:08.753Z</time></trkpt><trkpt lat="42.2247103" lon="14.2046875"><ele>308.0</ele><time>2026-04-26T09:57:09.753Z</time></trkpt><trkpt lat="42.2246422" lon="14.2047445"><ele>308.0</ele><time>2026-04-26T09:57:10.752Z</time></trkpt><trkpt lat="42.224564" lon="14.2047903"><ele>308.0</ele><time>2026-04-26T09:57:11.754Z</time></trkpt><trkpt lat="42.224479" lon="14.2048302"><ele>308.6666666666667</ele><time>2026-04-26T09:57:12.755Z</time></trkpt><trkpt lat="42.2243972" lon="14.2048823"><ele>309.33333333333337</ele><time>2026-04-26T09:57:13.754Z</time></trkpt><trkpt lat="42.224339" lon="14.2049293"><ele>310.0</ele><time>2026-04-26T09:57:14.757Z</time></trkpt><trkpt lat="42.2242923" lon="14.2049912"><ele>310.6666666666667</ele><time>2026-04-26T09:57:15.756Z</time></trkpt><trkpt lat="42.2242395" lon="14.2050537"><ele>311.3333333333333</ele><time>2026-04-26T09:57:16.756Z</time></trkpt><trkpt lat="42.2241687" lon="14.2051013"><ele>312.0</ele><time>2026-04-26T09:57:17.758Z</time></trkpt><trkpt lat="42.224076" lon="14.2051515"><ele>313.4</ele><time>2026-04-26T09:57:18.757Z</time></trkpt><trkpt lat="42.2239738" lon="14.2052037"><ele>314.79999999999995</ele><time>2026-04-26T09:57:19.757Z</time></trkpt><trkpt lat="42.2238773" lon="14.2052637"><ele>316.2</ele><time>2026-04-26T09:57:20.756Z</time></trkpt><trkpt lat="42.2237865" lon="14.2053447"><ele>317.59999999999997</ele><time>2026-04-26T09:57:21.758Z</time></trkpt><trkpt lat="42.2236867" lon="14.2054275"><ele>319.0</ele><time>2026-04-26T09:57:22.758Z</time></trkpt><trkpt lat="42.2235712" lon="14.2055023"><ele>319.0</ele><time>2026-04-26T09:57:23.757Z</time></trkpt><trkpt lat="42.2234525" lon="14.2055917"><ele>319.0</ele><time>2026-04-26T09:57:24.758Z</time></trkpt><trkpt lat="42.22333" lon="14.205683"><ele>319.0</ele><time>2026-04-26T09:57:25.755Z</time></trkpt><trkpt lat="42.223207" lon="14.2057688"><ele>319.0</ele><time>2026-04-26T09:57:26.755Z</time></trkpt><trkpt lat="42.2230873" lon="14.2058762"><ele>320.25</ele><time>2026-04-26T09:57:27.757Z</time></trkpt><trkpt lat="42.2229785" lon="14.206002"><ele>321.5</ele><time>2026-04-26T09:57:28.756Z</time></trkpt><trkpt lat="42.2228753" lon="14.2061245"><ele>322.75</ele><time>2026-04-26T09:57:29.759Z</time></trkpt><trkpt lat="42.222776" lon="14.2062292"><ele>324.0</ele><time>2026-04-26T09:57:30.757Z</time></trkpt><trkpt lat="42.2226837" lon="14.2063205"><ele>324.0</ele><time>2026-04-26T09:57:31.757Z</time></trkpt><trkpt lat="42.2225895" lon="14.2064002"><ele>324.0</ele><time>2026-04-26T09:57:32.754Z</time></trkpt><trkpt lat="42.2224902" lon="14.2064798"><ele>324.0</ele><time>2026-04-26T09:57:33.753Z</time></trkpt><trkpt lat="42.2223972" lon="14.2065475"><ele>324.0</ele><time>2026-04-26T09:57:34.754Z</time></trkpt><trkpt lat="42.2223217" lon="14.2066065"><ele>324.0</ele><time>2026-04-26T09:57:35.753Z</time></trkpt><trkpt lat="42.2222508" lon="14.2066668"><ele>323.8333333333333</ele><time>2026-04-26T09:57:36.754Z</time></trkpt><trkpt lat="42.2221898" lon="14.2067128"><ele>323.6666666666667</ele><time>2026-04-26T09:57:37.754Z</time></trkpt><trkpt lat="42.2221263" lon="14.2067548"><ele>323.5</ele><time>2026-04-26T09:57:38.755Z</time></trkpt><trkpt lat="42.2220558" lon="14.206794"><ele>323.33333333333337</ele><time>2026-04-26T09:57:39.758Z</time></trkpt><trkpt lat="42.2219835" lon="14.2068438"><ele>323.1666666666667</ele><time>2026-04-26T09:57:40.756Z</time></trkpt><trkpt lat="42.2219017" lon="14.2069025"><ele>323.0</ele><time>2026-04-26T09:57:41.757Z</time></trkpt><trkpt lat="42.2218183" lon="14.2069628"><ele>323.0</ele><time>2026-04-26T09:57:42.758Z</time></trkpt><trkpt lat="42.2217385" lon="14.207039"><ele>323.0</ele><time>2026-04-26T09:57:43.757Z</time></trkpt><trkpt lat="42.2216607" lon="14.2071252"><ele>323.0</ele><time>2026-04-26T09:57:44.757Z</time></trkpt><trkpt lat="42.221579" lon="14.207216"><ele>323.0</ele><time>2026-04-26T09:57:45.758Z</time></trkpt><trkpt lat="42.221494" lon="14.2073048"><ele>323.0</ele><time>2026-04-26T09:57:46.756Z</time></trkpt><trkpt lat="42.2214097" lon="14.2073825"><ele>324.4</ele><time>2026-04-26T09:57:47.756Z</time></trkpt><trkpt lat="42.2213302" lon="14.2074532"><ele>325.79999999999995</ele><time>2026-04-26T09:57:48.756Z</time></trkpt><trkpt lat="42.2212497" lon="14.2075267"><ele>327.2</ele><time>2026-04-26T09:57:49.755Z</time></trkpt><trkpt lat="42.2211638" lon="14.2076037"><ele>328.6</ele><time>2026-04-26T09:57:50.754Z</time></trkpt><trkpt lat="42.2210777" lon="14.2076805"><ele>330.0</ele><time>2026-04-26T09:57:51.754Z</time></trkpt><trkpt lat="42.2209887" lon="14.2077562"><ele>330.0</ele><time>2026-04-26T09:57:52.756Z</time></trkpt><trkpt lat="42.220892" lon="14.2078308"><ele>330.0</ele><time>2026-04-26T09:57:53.754Z</time></trkpt><trkpt lat="42.2207893" lon="14.207896"><ele>330.0</ele><time>2026-04-26T09:57:54.756Z</time></trkpt><trkpt lat="42.220685" lon="14.2079715"><ele>330.0</ele><time>2026-04-26T09:57:55.756Z</time></trkpt><trkpt lat="42.220579" lon="14.2080482"><ele>330.75</ele><time>2026-04-26T09:57:56.755Z</time></trkpt><trkpt lat="42.2204708" lon="14.2081388"><ele>331.5</ele><time>2026-04-26T09:57:57.754Z</time></trkpt><trkpt lat="42.2203643" lon="14.2082378"><ele>332.25</ele><time>2026-04-26T09:57:58.754Z</time></trkpt><trkpt lat="42.2202538" lon="14.2083365"><ele>333.0</ele><time>2026-04-26T09:57:59.755Z</time></trkpt><trkpt lat="42.2201422" lon="14.2084347"><ele>333.0</ele><time>2026-04-26T09:58:00.754Z</time></trkpt><trkpt lat="42.2200232" lon="14.2085283"><ele>333.0</ele><time>2026-04-26T09:58:01.756Z</time></trkpt><trkpt lat="42.2199043" lon="14.2086172"><ele>333.0</ele><time>2026-04-26T09:58:02.756Z</time></trkpt><trkpt lat="42.2197843" lon="14.208699"><ele>333.0</ele><time>2026-04-26T09:58:03.756Z</time></trkpt><trkpt lat="42.2196592" lon="14.2087757"><ele>335.0</ele><time>2026-04-26T09:58:04.757Z</time></trkpt><trkpt lat="42.219531" lon="14.2088435"><ele>337.0</ele><time>2026-04-26T09:58:05.759Z</time></trkpt><trkpt lat="42.2194002" lon="14.2088938"><ele>339.0</ele><time>2026-04-26T09:58:06.758Z</time></trkpt><trkpt lat="42.2192682" lon="14.2089225"><ele>341.0</ele><time>2026-04-26T09:58:07.759Z</time></trkpt><trkpt lat="42.2191397" lon="14.208926"><ele>341.0</ele><time>2026-04-26T09:58:08.758Z</time></trkpt><trkpt lat="42.2190138" lon="14.2089105"><ele>341.0</ele><time>2026-04-26T09:58:09.758Z</time></trkpt><trkpt lat="42.2188948" lon="14.2088743"><ele>341.0</ele><time>2026-04-26T09:58:10.755Z</time></trkpt><trkpt lat="42.2187885" lon="14.208819"><ele>341.0</ele><time>2026-04-26T09:58:11.755Z</time></trkpt><trkpt lat="42.2186963" lon="14.2087442"><ele>339.5</ele><time>2026-04-26T09:58:12.758Z</time></trkpt><trkpt lat="42.2186015" lon="14.2086693"><ele>338.0</ele><time>2026-04-26T09:58:13.757Z</time></trkpt><trkpt lat="42.2184937" lon="14.208607"><ele>336.5</ele><time>2026-04-26T09:58:14.756Z</time></trkpt><trkpt lat="42.2183782" lon="14.2085447"><ele>335.0</ele><time>2026-04-26T09:58:15.757Z</time></trkpt><trkpt lat="42.2182533" lon="14.208469"><ele>335.6666666666667</ele><time>2026-04-26T09:58:16.757Z</time></trkpt><trkpt lat="42.2181185" lon="14.2083928"><ele>336.3333333333333</ele><time>2026-04-26T09:58:17.759Z</time></trkpt><trkpt lat="42.2179713" lon="14.2083247"><ele>337.0</ele><time>2026-04-26T09:58:18.757Z</time></trkpt><trkpt lat="42.2178143" lon="14.2082685"><ele>337.0</ele><time>2026-04-26T09:58:19.757Z</time></trkpt><trkpt lat="42.217659" lon="14.2082163"><ele>337.0</ele><time>2026-04-26T09:58:20.757Z</time></trkpt><trkpt lat="42.2175188" lon="14.2081593"><ele>337.0</ele><time>2026-04-26T09:58:21.756Z</time></trkpt><trkpt lat="42.2173957" lon="14.2080842"><ele>337.0</ele><time>2026-04-26T09:58:22.754Z</time></trkpt><trkpt lat="42.2172893" lon="14.2079798"><ele>339.25</ele><time>2026-04-26T09:58:23.754Z</time></trkpt><trkpt lat="42.2171845" lon="14.2078652"><ele>341.5</ele><time>2026-04-26T09:58:24.755Z</time></trkpt><trkpt lat="42.2170785" lon="14.2077493"><ele>343.75</ele><time>2026-04-26T09:58:25.756Z</time></trkpt><trkpt lat="42.2169777" lon="14.2076315"><ele>346.0</ele><time>2026-04-26T09:58:26.758Z</time></trkpt><trkpt lat="42.216868" lon="14.207529"><ele>346.0</ele><time>2026-04-26T09:58:27.756Z</time></trkpt><trkpt lat="42.2167518" lon="14.2074343"><ele>346.0</ele><time>2026-04-26T09:58:28.755Z</time></trkpt><trkpt lat="42.2166285" lon="14.207345"><ele>346.0</ele><time>2026-04-26T09:58:29.756Z</time></trkpt><trkpt lat="42.2164975" lon="14.2072617"><ele>346.0</ele><time>2026-04-26T09:58:30.756Z</time></trkpt><trkpt lat="42.2163627" lon="14.2071863"><ele>347.25</ele><time>2026-04-26T09:58:31.754Z</time></trkpt><trkpt lat="42.2162337" lon="14.2071218"><ele>348.5</ele><time>2026-04-26T09:58:32.758Z</time></trkpt><trkpt lat="42.2160973" lon="14.207062"><ele>349.75</ele><time>2026-04-26T09:58:33.757Z</time></trkpt><trkpt lat="42.2159563" lon="14.2070102"><ele>351.0</ele><time>2026-04-26T09:58:34.755Z</time></trkpt><trkpt lat="42.2158113" lon="14.2069655"><ele>351.0</ele><time>2026-04-26T09:58:35.754Z</time></trkpt><trkpt lat="42.2156637" lon="14.2069192"><ele>351.0</ele><time>2026-04-26T09:58:36.756Z</time></trkpt><trkpt lat="42.215518" lon="14.2068693"><ele>351.0</ele><time>2026-04-26T09:58:37.756Z</time></trkpt><trkpt lat="42.2153738" lon="14.2068247"><ele>352.0</ele><time>2026-04-26T09:58:38.757Z</time></trkpt><trkpt lat="42.2152333" lon="14.2067788"><ele>353.0</ele><time>2026-04-26T09:58:39.755Z</time></trkpt><trkpt lat="42.2150927" lon="14.2067343"><ele>354.0</ele><time>2026-04-26T09:58:40.754Z</time></trkpt><trkpt lat="42.214954" lon="14.2066912"><ele>355.0</ele><time>2026-04-26T09:58:41.756Z</time></trkpt><trkpt lat="42.2148135" lon="14.2066577"><ele>356.25</ele><time>2026-04-26T09:58:42.757Z</time></trkpt><trkpt lat="42.2146767" lon="14.2066258"><ele>357.5</ele><time>2026-04-26T09:58:43.759Z</time></trkpt><trkpt lat="42.2145447" lon="14.206589"><ele>358.75</ele><time>2026-04-26T09:58:44.756Z</time></trkpt><trkpt lat="42.2144143" lon="14.2065487"><ele>360.0</ele><time>2026-04-26T09:58:45.755Z</time></trkpt><trkpt lat="42.2142822" lon="14.20651"><ele>361.25</ele><time>2026-04-26T09:58:46.753Z</time></trkpt><trkpt lat="42.2141512" lon="14.2064738"><ele>362.5</ele><time>2026-04-26T09:58:47.754Z</time></trkpt><trkpt lat="42.2140165" lon="14.2064387"><ele>363.75</ele><time>2026-04-26T09:58:48.754Z</time></trkpt><trkpt lat="42.2138768" lon="14.2063977"><ele>365.0</ele><time>2026-04-26T09:58:49.754Z</time></trkpt><trkpt lat="42.2137357" lon="14.2063505"><ele>366.0</ele><time>2026-04-26T09:58:50.755Z</time></trkpt><trkpt lat="42.2135917" lon="14.2063028"><ele>367.0</ele><time>2026-04-26T09:58:51.757Z</time></trkpt><trkpt lat="42.2134445" lon="14.2062562"><ele>368.0</ele><time>2026-04-26T09:58:52.756Z</time></trkpt><trkpt lat="42.2132953" lon="14.2062068"><ele>369.33333333333337</ele><time>2026-04-26T09:58:53.758Z</time></trkpt><trkpt lat="42.2131453" lon="14.2061608"><ele>370.6666666666667</ele><time>2026-04-26T09:58:54.757Z</time></trkpt><trkpt lat="42.2129957" lon="14.2061145"><ele>372.0</ele><time>2026-04-26T09:58:55.754Z</time></trkpt><trkpt lat="42.2128552" lon="14.2060757"><ele>372.0</ele><time>2026-04-26T09:58:56.755Z</time></trkpt><trkpt lat="42.2127445" lon="14.2060475"><ele>372.0</ele><time>2026-04-26T09:58:57.757Z</time></trkpt><trkpt lat="42.2126615" lon="14.2060275"><ele>372.0</ele><time>2026-04-26T09:58:58.757Z</time></trkpt><trkpt lat="42.2125633" lon="14.2060028"><ele>372.0</ele><time>2026-04-26T09:59:00.757Z</time></trkpt><trkpt lat="42.212468" lon="14.205991"><ele>372.0</ele><time>2026-04-26T09:59:04.756Z</time></trkpt><trkpt lat="42.212319" lon="14.2059588"><ele>373.0</ele><time>2026-04-26T09:59:06.759Z</time></trkpt><trkpt lat="42.2122178" lon="14.2059292"><ele>374.0</ele><time>2026-04-26T09:59:07.755Z</time></trkpt><trkpt lat="42.2121075" lon="14.2059053"><ele>375.0</ele><time>2026-04-26T09:59:08.755Z</time></trkpt><trkpt lat="42.2119923" lon="14.205884"><ele>376.0</ele><time>2026-04-26T09:59:09.756Z</time></trkpt><trkpt lat="42.2118712" lon="14.205858"><ele>376.0</ele><time>2026-04-26T09:59:10.756Z</time></trkpt><trkpt lat="42.2117568" lon="14.205828"><ele>376.0</ele><time>2026-04-26T09:59:11.755Z</time></trkpt><trkpt lat="42.2116565" lon="14.2057998"><ele>376.0</ele><time>2026-04-26T09:59:12.756Z</time></trkpt><trkpt lat="42.2115597" lon="14.2057698"><ele>376.0</ele><time>2026-04-26T09:59:13.755Z</time></trkpt><trkpt lat="42.2114742" lon="14.2057428"><ele>376.0</ele><time>2026-04-26T09:59:14.755Z</time></trkpt><trkpt lat="42.211405" lon="14.2057227"><ele>376.8</ele><time>2026-04-26T09:59:15.756Z</time></trkpt><trkpt lat="42.2112897" lon="14.205681"><ele>377.6</ele><time>2026-04-26T09:59:17.755Z</time></trkpt><trkpt lat="42.2111607" lon="14.205637"><ele>378.4</ele><time>2026-04-26T09:59:19.755Z</time></trkpt><trkpt lat="42.2110768" lon="14.2056073"><ele>379.2</ele><time>2026-04-26T09:59:20.755Z</time></trkpt><trkpt lat="42.2109845" lon="14.205582"><ele>380.0</ele><time>2026-04-26T09:59:21.759Z</time></trkpt><trkpt lat="42.2108838" lon="14.2055618"><ele>381.75</ele><time>2026-04-26T09:59:22.754Z</time></trkpt><trkpt lat="42.2107802" lon="14.2055357"><ele>383.5</ele><time>2026-04-26T09:59:23.757Z</time></trkpt><trkpt lat="42.2106707" lon="14.2055045"><ele>385.25</ele><time>2026-04-26T09:59:24.756Z</time></trkpt><trkpt lat="42.2105497" lon="14.2054718"><ele>387.0</ele><time>2026-04-26T09:59:25.756Z</time></trkpt><trkpt lat="42.2104198" lon="14.2054373"><ele>387.25</ele><time>2026-04-26T09:59:26.756Z</time></trkpt><trkpt lat="42.2102887" lon="14.2054033"><ele>387.5</ele><time>2026-04-26T09:59:27.757Z</time></trkpt><trkpt lat="42.2101645" lon="14.205378"><ele>387.75</ele><time>2026-04-26T09:59:28.756Z</time></trkpt><trkpt lat="42.2100423" lon="14.2053463"><ele>388.0</ele><time>2026-04-26T09:59:29.757Z</time></trkpt><trkpt lat="42.2099087" lon="14.2053037"><ele>388.75</ele><time>2026-04-26T09:59:30.758Z</time></trkpt><trkpt lat="42.2097763" lon="14.2052612"><ele>389.5</ele><time>2026-04-26T09:59:31.756Z</time></trkpt><trkpt lat="42.2096552" lon="14.2052218"><ele>390.25</ele><time>2026-04-26T09:59:32.755Z</time></trkpt><trkpt lat="42.2095278" lon="14.2051782"><ele>391.0</ele><time>2026-04-26T09:59:33.756Z</time></trkpt><trkpt lat="42.2093935" lon="14.2051343"><ele>391.0</ele><time>2026-04-26T09:59:34.755Z</time></trkpt><trkpt lat="42.2092535" lon="14.2050832"><ele>391.0</ele><time>2026-04-26T09:59:35.754Z</time></trkpt><trkpt lat="42.209121" lon="14.205028"><ele>391.0</ele><time>2026-04-26T09:59:36.754Z</time></trkpt><trkpt lat="42.2089938" lon="14.2049753"><ele>391.0</ele><time>2026-04-26T09:59:37.752Z</time></trkpt><trkpt lat="42.2088657" lon="14.2049195"><ele>391.0</ele><time>2026-04-26T09:59:38.757Z</time></trkpt><trkpt lat="42.2087335" lon="14.2048553"><ele>391.0</ele><time>2026-04-26T09:59:39.755Z</time></trkpt><trkpt lat="42.2086075" lon="14.2047923"><ele>391.0</ele><time>2026-04-26T09:59:40.756Z</time></trkpt><trkpt lat="42.2084803" lon="14.2047302"><ele>391.0</ele><time>2026-04-26T09:59:41.755Z</time></trkpt><trkpt lat="42.208352" lon="14.204666"><ele>394.0</ele><time>2026-04-26T09:59:42.756Z</time></trkpt><trkpt lat="42.2082235" lon="14.2045952"><ele>397.0</ele><time>2026-04-26T09:59:43.755Z</time></trkpt><trkpt lat="42.2080962" lon="14.2045108"><ele>400.0</ele><time>2026-04-26T09:59:44.755Z</time></trkpt><trkpt lat="42.2079702" lon="14.204424"><ele>403.0</ele><time>2026-04-26T09:59:45.756Z</time></trkpt><trkpt lat="42.2078465" lon="14.2043295"><ele>403.0</ele><time>2026-04-26T09:59:46.756Z</time></trkpt><trkpt lat="42.2077265" lon="14.2042472"><ele>403.0</ele><time>2026-04-26T09:59:47.754Z</time></trkpt><trkpt lat="42.2076022" lon="14.2041568"><ele>403.0</ele><time>2026-04-26T09:59:48.754Z</time></trkpt><trkpt lat="42.2074735" lon="14.2040588"><ele>403.0</ele><time>2026-04-26T09:59:49.758Z</time></trkpt><trkpt lat="42.2073402" lon="14.203962"><ele>405.33333333333337</ele><time>2026-04-26T09:59:50.753Z</time></trkpt><trkpt lat="42.2072057" lon="14.2038693"><ele>407.66666666666663</ele><time>2026-04-26T09:59:51.755Z</time></trkpt><trkpt lat="42.2070713" lon="14.2037682"><ele>410.0</ele><time>2026-04-26T09:59:52.753Z</time></trkpt><trkpt lat="42.2069225" lon="14.2036662"><ele>410.0</ele><time>2026-04-26T09:59:53.756Z</time></trkpt><trkpt lat="42.2067693" lon="14.2035627"><ele>410.0</ele><time>2026-04-26T09:59:54.756Z</time></trkpt><trkpt lat="42.2066243" lon="14.2034623"><ele>410.0</ele><time>2026-04-26T09:59:55.755Z</time></trkpt><trkpt lat="42.2064802" lon="14.2033677"><ele>409.5</ele><time>2026-04-26T09:59:56.755Z</time></trkpt><trkpt lat="42.2063448" lon="14.2032653"><ele>409.0</ele><time>2026-04-26T09:59:57.756Z</time></trkpt><trkpt lat="42.2062277" lon="14.203171"><ele>408.5</ele><time>2026-04-26T09:59:58.755Z</time></trkpt><trkpt lat="42.2061247" lon="14.203095"><ele>408.0</ele><time>2026-04-26T09:59:59.755Z</time></trkpt><trkpt lat="42.2060368" lon="14.2030398"><ele>409.79999999999995</ele><time>2026-04-26T10:00:00.753Z</time></trkpt><trkpt lat="42.2059598" lon="14.2030002"><ele>411.6</ele><time>2026-04-26T10:00:01.755Z</time></trkpt><trkpt lat="42.2058675" lon="14.2029587"><ele>413.4</ele><time>2026-04-26T10:00:02.755Z</time></trkpt><trkpt lat="42.2057555" lon="14.2028945"><ele>415.20000000000005</ele><time>2026-04-26T10:00:03.754Z</time></trkpt><trkpt lat="42.205628" lon="14.2028168"><ele>417.0</ele><time>2026-04-26T10:00:04.756Z</time></trkpt><trkpt lat="42.2054935" lon="14.2027282"><ele>417.0</ele><time>2026-04-26T10:00:05.756Z</time></trkpt><trkpt lat="42.205357" lon="14.2026382"><ele>417.0</ele><time>2026-04-26T10:00:06.756Z</time></trkpt><trkpt lat="42.2052148" lon="14.2025462"><ele>417.0</ele><time>2026-04-26T10:00:07.755Z</time></trkpt><trkpt lat="42.2050723" lon="14.2024608"><ele>417.0</ele><time>2026-04-26T10:00:08.755Z</time></trkpt><trkpt lat="42.2049283" lon="14.2023793"><ele>417.0</ele><time>2026-04-26T10:00:09.758Z</time></trkpt><trkpt lat="42.2047848" lon="14.2023003"><ele>417.0</ele><time>2026-04-26T10:00:10.755Z</time></trkpt><trkpt lat="42.2046463" lon="14.2022157"><ele>419.40000000000003</ele><time>2026-04-26T10:00:11.754Z</time></trkpt><trkpt lat="42.2045198" lon="14.2021342"><ele>421.8</ele><time>2026-04-26T10:00:12.755Z</time></trkpt><trkpt lat="42.2044152" lon="14.2020652"><ele>424.2</ele><time>2026-04-26T10:00:13.754Z</time></trkpt><trkpt lat="42.2043505" lon="14.2020223"><ele>426.6</ele><time>2026-04-26T10:00:14.756Z</time></trkpt><trkpt lat="42.2042787" lon="14.2019862"><ele>429.0</ele><time>2026-04-26T10:00:16.754Z</time></trkpt><trkpt lat="42.2042138" lon="14.2019652"><ele>429.0</ele><time>2026-04-26T10:00:18.756Z</time></trkpt><trkpt lat="42.2041405" lon="14.201927"><ele>429.0</ele><time>2026-04-26T10:00:21.756Z</time></trkpt><trkpt lat="42.204077" lon="14.2018872"><ele>429.0</ele><time>2026-04-26T10:00:23.755Z</time></trkpt><trkpt lat="42.2039702" lon="14.2018458"><ele>429.0</ele><time>2026-04-26T10:00:25.753Z</time></trkpt><trkpt lat="42.2038947" lon="14.2018167"><ele>429.0</ele><time>2026-04-26T10:00:26.753Z</time></trkpt><trkpt lat="42.2038085" lon="14.2017768"><ele>429.0</ele><time>2026-04-26T10:00:27.754Z</time></trkpt><trkpt lat="42.2037162" lon="14.201738"><ele>427.79999999999995</ele><time>2026-04-26T10:00:28.756Z</time></trkpt><trkpt lat="42.2036167" lon="14.2017017"><ele>426.59999999999997</ele><time>2026-04-26T10:00:29.755Z</time></trkpt><trkpt lat="42.2035088" lon="14.2016802"><ele>425.4</ele><time>2026-04-26T10:00:30.754Z</time></trkpt><trkpt lat="42.2034033" lon="14.2016625"><ele>424.2</ele><time>2026-04-26T10:00:31.756Z</time></trkpt><trkpt lat="42.2032993" lon="14.2016407"><ele>423.0</ele><time>2026-04-26T10:00:32.756Z</time></trkpt><trkpt lat="42.2032" lon="14.2015955"><ele>423.75</ele><time>2026-04-26T10:00:33.757Z</time></trkpt><trkpt lat="42.2030922" lon="14.2015455"><ele>424.5</ele><time>2026-04-26T10:00:34.754Z</time></trkpt><trkpt lat="42.2029877" lon="14.201489"><ele>425.25</ele><time>2026-04-26T10:00:35.755Z</time></trkpt><trkpt lat="42.2028878" lon="14.201428"><ele>426.0</ele><time>2026-04-26T10:00:36.755Z</time></trkpt><trkpt lat="42.2027788" lon="14.2013708"><ele>426.0</ele><time>2026-04-26T10:00:37.753Z</time></trkpt><trkpt lat="42.2026523" lon="14.2013307"><ele>426.0</ele><time>2026-04-26T10:00:38.754Z</time></trkpt><trkpt lat="42.2025213" lon="14.2012967"><ele>426.0</ele><time>2026-04-26T10:00:39.759Z</time></trkpt><trkpt lat="42.2024062" lon="14.201268"><ele>426.0</ele><time>2026-04-26T10:00:40.756Z</time></trkpt><trkpt lat="42.2023127" lon="14.201254"><ele>426.8333333333333</ele><time>2026-04-26T10:00:41.755Z</time></trkpt><trkpt lat="42.2022428" lon="14.2012342"><ele>427.66666666666663</ele><time>2026-04-26T10:00:42.757Z</time></trkpt><trkpt lat="42.2021433" lon="14.2011388"><ele>428.5</ele><time>2026-04-26T10:00:44.755Z</time></trkpt><trkpt lat="42.202087" lon="14.2010862"><ele>429.3333333333333</ele><time>2026-04-26T10:00:45.756Z</time></trkpt><trkpt lat="42.202019" lon="14.2010635"><ele>430.16666666666663</ele><time>2026-04-26T10:00:46.753Z</time></trkpt><trkpt lat="42.2019518" lon="14.2010483"><ele>431.0</ele><time>2026-04-26T10:00:47.754Z</time></trkpt><trkpt lat="42.201881" lon="14.2010283"><ele>430.99999999999994</ele><time>2026-04-26T10:00:48.754Z</time></trkpt><trkpt lat="42.2018122" lon="14.2009973"><ele>431.0</ele><time>2026-04-26T10:00:49.754Z</time></trkpt><trkpt lat="42.20174" lon="14.2009788"><ele>431.0</ele><time>2026-04-26T10:00:50.753Z</time></trkpt><trkpt lat="42.2016632" lon="14.2009903"><ele>431.0</ele><time>2026-04-26T10:00:51.753Z</time></trkpt><trkpt lat="42.2015565" lon="14.200997"><ele>430.99999999999994</ele><time>2026-04-26T10:00:53.756Z</time></trkpt><trkpt lat="42.201498" lon="14.2009623"><ele>431.0</ele><time>2026-04-26T10:01:01.755Z</time></trkpt><trkpt lat="42.201442" lon="14.2009088"><ele>452.0</ele><time>2026-04-26T10:02:04.755Z</time></trkpt><trkpt lat="42.2003175" lon="14.2005092"><ele>452.0</ele><time>2026-04-26T10:02:35.758Z</time></trkpt><trkpt lat="42.2002185" lon="14.2004777"><ele>452.00000000000006</ele><time>2026-04-26T10:02:41.755Z</time></trkpt><trkpt lat="42.2001547" lon="14.2004508"><ele>452.00000000000006</ele><time>2026-04-26T10:02:42.758Z</time></trkpt><trkpt lat="42.2000855" lon="14.2004043"><ele>452.0</ele><time>2026-04-26T10:02:43.758Z</time></trkpt><trkpt lat="42.1999542" lon="14.2002827"><ele>452.0</ele><time>2026-04-26T10:02:45.757Z</time></trkpt><trkpt lat="42.1998808" lon="14.200238"><ele>454.0</ele><time>2026-04-26T10:02:46.757Z</time></trkpt><trkpt lat="42.1997935" lon="14.2002058"><ele>456.0</ele><time>2026-04-26T10:02:47.758Z</time></trkpt><trkpt lat="42.1997032" lon="14.200164"><ele>458.0</ele><time>2026-04-26T10:02:48.758Z</time></trkpt><trkpt lat="42.1995435" lon="14.2000552"><ele>460.0</ele><time>2026-04-26T10:02:50.756Z</time></trkpt><trkpt lat="42.1994575" lon="14.200038"><ele>460.0</ele><time>2026-04-26T10:02:51.753Z</time></trkpt><trkpt lat="42.1993577" lon="14.2000318"><ele>460.0</ele><time>2026-04-26T10:02:52.757Z</time></trkpt><trkpt lat="42.1992453" lon="14.2000233"><ele>460.0</ele><time>2026-04-26T10:02:53.755Z</time></trkpt><trkpt lat="42.1991258" lon="14.2000187"><ele>460.0</ele><time>2026-04-26T10:02:54.756Z</time></trkpt><trkpt lat="42.1990013" lon="14.2000212"><ele>462.0</ele><time>2026-04-26T10:02:55.758Z</time></trkpt><trkpt lat="42.1988788" lon="14.2000373"><ele>464.0</ele><time>2026-04-26T10:02:56.76Z</time></trkpt><trkpt lat="42.1987507" lon="14.2000392"><ele>466.0</ele><time>2026-04-26T10:02:57.757Z</time></trkpt><trkpt lat="42.1986328" lon="14.2000442"><ele>468.0</ele><time>2026-04-26T10:02:58.757Z</time></trkpt><trkpt lat="42.1985242" lon="14.2000573"><ele>468.0</ele><time>2026-04-26T10:02:59.757Z</time></trkpt><trkpt lat="42.1984173" lon="14.2000793"><ele>467.99999999999994</ele><time>2026-04-26T10:03:00.76Z</time></trkpt><trkpt lat="42.1983138" lon="14.20011"><ele>467.99999999999994</ele><time>2026-04-26T10:03:01.758Z</time></trkpt><trkpt lat="42.1982123" lon="14.2001323"><ele>468.0</ele><time>2026-04-26T10:03:02.76Z</time></trkpt><trkpt lat="42.1981218" lon="14.2001337"><ele>468.0</ele><time>2026-04-26T10:03:03.762Z</time></trkpt><trkpt lat="42.1980452" lon="14.2001157"><ele>469.0</ele><time>2026-04-26T10:03:04.758Z</time></trkpt><trkpt lat="42.1979713" lon="14.2000888"><ele>469.99999999999994</ele><time>2026-04-26T10:03:05.758Z</time></trkpt><trkpt lat="42.1978837" lon="14.2000713"><ele>470.99999999999994</ele><time>2026-04-26T10:03:06.757Z</time></trkpt><trkpt lat="42.1977842" lon="14.2000632"><ele>472.0</ele><time>2026-04-26T10:03:07.757Z</time></trkpt><trkpt lat="42.1976773" lon="14.2000607"><ele>473.0</ele><time>2026-04-26T10:03:08.758Z</time></trkpt><trkpt lat="42.1975682" lon="14.2000713"><ele>472.99999999999994</ele><time>2026-04-26T10:03:09.76Z</time></trkpt><trkpt lat="42.1974658" lon="14.2000948"><ele>473.0</ele><time>2026-04-26T10:03:10.756Z</time></trkpt><trkpt lat="42.197377" lon="14.2001153"><ele>473.0</ele><time>2026-04-26T10:03:11.757Z</time></trkpt><trkpt lat="42.1973005" lon="14.2001232"><ele>473.0</ele><time>2026-04-26T10:03:12.757Z</time></trkpt><trkpt lat="42.1972363" lon="14.2001248"><ele>472.99999999999994</ele><time>2026-04-26T10:03:13.758Z</time></trkpt><trkpt lat="42.197139" lon="14.2001125"><ele>473.0</ele><time>2026-04-26T10:03:15.758Z</time></trkpt><trkpt lat="42.1971073" lon="14.199996"><ele>474.4</ele><time>2026-04-26T10:03:18.756Z</time></trkpt><trkpt lat="42.197152" lon="14.1998387"><ele>475.79999999999995</ele><time>2026-04-26T10:03:20.756Z</time></trkpt><trkpt lat="42.1971812" lon="14.1997282"><ele>477.2</ele><time>2026-04-26T10:03:21.758Z</time></trkpt><trkpt lat="42.197216" lon="14.1996033"><ele>478.6</ele><time>2026-04-26T10:03:22.76Z</time></trkpt><trkpt lat="42.197259" lon="14.1994705"><ele>480.0</ele><time>2026-04-26T10:03:23.761Z</time></trkpt><trkpt lat="42.197306" lon="14.1993423"><ele>479.8</ele><time>2026-04-26T10:03:24.757Z</time></trkpt><trkpt lat="42.197346" lon="14.1992275"><ele>479.6</ele><time>2026-04-26T10:03:25.759Z</time></trkpt><trkpt lat="42.197371" lon="14.199126"><ele>479.4</ele><time>2026-04-26T10:03:26.758Z</time></trkpt><trkpt lat="42.197375" lon="14.1990357"><ele>479.2</ele><time>2026-04-26T10:03:27.758Z</time></trkpt><trkpt lat="42.19731" lon="14.1988885"><ele>479.0</ele><time>2026-04-26T10:03:29.758Z</time></trkpt><trkpt lat="42.1972485" lon="14.1988113"><ele>479.3333333333333</ele><time>2026-04-26T10:03:30.757Z</time></trkpt><trkpt lat="42.1971872" lon="14.1987225"><ele>479.66666666666663</ele><time>2026-04-26T10:03:31.756Z</time></trkpt><trkpt lat="42.197147" lon="14.1986272"><ele>480.0</ele><time>2026-04-26T10:03:32.758Z</time></trkpt><trkpt lat="42.1971373" lon="14.19854"><ele>480.33333333333337</ele><time>2026-04-26T10:03:33.758Z</time></trkpt><trkpt lat="42.1971788" lon="14.198431"><ele>480.6666666666667</ele><time>2026-04-26T10:03:35.756Z</time></trkpt><trkpt lat="42.1972682" lon="14.198383"><ele>481.0</ele><time>2026-04-26T10:03:39.757Z</time></trkpt><trkpt lat="42.1973412" lon="14.1983795"><ele>481.00000000000006</ele><time>2026-04-26T10:03:41.758Z</time></trkpt><trkpt lat="42.1974063" lon="14.1983583"><ele>481.0</ele><time>2026-04-26T10:03:44.758Z</time></trkpt><trkpt lat="42.1974585" lon="14.1982728"><ele>481.0</ele><time>2026-04-26T10:03:47.756Z</time></trkpt><trkpt lat="42.1975085" lon="14.1981887"><ele>481.0</ele><time>2026-04-26T10:03:49.757Z</time></trkpt><trkpt lat="42.1975692" lon="14.1981042"><ele>481.00000000000006</ele><time>2026-04-26T10:03:51.757Z</time></trkpt><trkpt lat="42.1976077" lon="14.1980113"><ele>481.0</ele><time>2026-04-26T10:03:59.755Z</time></trkpt><trkpt lat="42.1976662" lon="14.1978968"><ele>481.33333333333337</ele><time>2026-04-26T10:04:01.756Z</time></trkpt><trkpt lat="42.1977298" lon="14.1977862"><ele>481.6666666666667</ele><time>2026-04-26T10:04:03.757Z</time></trkpt><trkpt lat="42.1977103" lon="14.1976918"><ele>482.0</ele><time>2026-04-26T10:04:06.755Z</time></trkpt><trkpt lat="42.1976222" lon="14.1976092"><ele>482.33333333333337</ele><time>2026-04-26T10:04:08.753Z</time></trkpt><trkpt lat="42.1975818" lon="14.1975382"><ele>482.6666666666667</ele><time>2026-04-26T10:04:09.756Z</time></trkpt><trkpt lat="42.1975332" lon="14.1974718"><ele>483.0</ele><time>2026-04-26T10:04:10.757Z</time></trkpt><trkpt lat="42.197466" lon="14.1974248"><ele>483.0</ele><time>2026-04-26T10:04:11.755Z</time></trkpt><trkpt lat="42.1973917" lon="14.1973762"><ele>482.99999999999994</ele><time>2026-04-26T10:04:12.759Z</time></trkpt><trkpt lat="42.1973182" lon="14.19731"><ele>482.99999999999994</ele><time>2026-04-26T10:04:13.757Z</time></trkpt><trkpt lat="42.1972433" lon="14.197223"><ele>483.0</ele><time>2026-04-26T10:04:14.76Z</time></trkpt><trkpt lat="42.197164" lon="14.1971507"><ele>483.0</ele><time>2026-04-26T10:04:15.756Z</time></trkpt><trkpt lat="42.1970797" lon="14.197101"><ele>484.6666666666667</ele><time>2026-04-26T10:04:16.756Z</time></trkpt><trkpt lat="42.1970112" lon="14.1970405"><ele>486.33333333333337</ele><time>2026-04-26T10:04:17.756Z</time></trkpt><trkpt lat="42.1969747" lon="14.1969557"><ele>488.0</ele><time>2026-04-26T10:04:18.757Z</time></trkpt><trkpt lat="42.1969675" lon="14.1968505"><ele>489.6666666666667</ele><time>2026-04-26T10:04:19.757Z</time></trkpt><trkpt lat="42.1969563" lon="14.1967357"><ele>491.33333333333337</ele><time>2026-04-26T10:04:20.756Z</time></trkpt><trkpt lat="42.1969118" lon="14.1966252"><ele>493.0</ele><time>2026-04-26T10:04:21.756Z</time></trkpt><trkpt lat="42.1968388" lon="14.1965197"><ele>493.4</ele><time>2026-04-26T10:04:22.757Z</time></trkpt><trkpt lat="42.196766" lon="14.1963985"><ele>493.79999999999995</ele><time>2026-04-26T10:04:23.756Z</time></trkpt><trkpt lat="42.1967177" lon="14.1962782"><ele>494.2</ele><time>2026-04-26T10:04:24.757Z</time></trkpt><trkpt lat="42.1966975" lon="14.1961605"><ele>494.6</ele><time>2026-04-26T10:04:25.756Z</time></trkpt><trkpt lat="42.1966612" lon="14.1960677"><ele>495.0</ele><time>2026-04-26T10:04:26.755Z</time></trkpt><trkpt lat="42.196589" lon="14.195999"><ele>496.5</ele><time>2026-04-26T10:04:27.759Z</time></trkpt><trkpt lat="42.1965023" lon="14.1959102"><ele>498.0</ele><time>2026-04-26T10:04:28.757Z</time></trkpt><trkpt lat="42.1964132" lon="14.1957968"><ele>499.5</ele><time>2026-04-26T10:04:29.754Z</time></trkpt><trkpt lat="42.1963182" lon="14.1956718"><ele>501.0</ele><time>2026-04-26T10:04:30.757Z</time></trkpt><trkpt lat="42.1962287" lon="14.195552"><ele>501.0</ele><time>2026-04-26T10:04:31.754Z</time></trkpt><trkpt lat="42.1961438" lon="14.1954542"><ele>501.0</ele><time>2026-04-26T10:04:32.755Z</time></trkpt><trkpt lat="42.1960508" lon="14.1953695"><ele>501.0</ele><time>2026-04-26T10:04:33.756Z</time></trkpt><trkpt lat="42.1959417" lon="14.1952925"><ele>501.0</ele><time>2026-04-26T10:04:34.756Z</time></trkpt><trkpt lat="42.1958473" lon="14.1952088"><ele>501.0</ele><time>2026-04-26T10:04:35.757Z</time></trkpt><trkpt lat="42.1957693" lon="14.1951348"><ele>501.0</ele><time>2026-04-26T10:04:36.756Z</time></trkpt><trkpt lat="42.1956908" lon="14.1951002"><ele>501.0</ele><time>2026-04-26T10:04:37.757Z</time></trkpt><trkpt lat="42.1956258" lon="14.1950485"><ele>501.0</ele><time>2026-04-26T10:04:38.757Z</time></trkpt><trkpt lat="42.195576" lon="14.1949588"><ele>501.0</ele><time>2026-04-26T10:04:39.756Z</time></trkpt><trkpt lat="42.1955168" lon="14.1948615"><ele>501.0</ele><time>2026-04-26T10:04:40.758Z</time></trkpt><trkpt lat="42.1954468" lon="14.1947795"><ele>502.8333333333333</ele><time>2026-04-26T10:04:41.758Z</time></trkpt><trkpt lat="42.1953873" lon="14.1947062"><ele>504.66666666666663</ele><time>2026-04-26T10:04:42.758Z</time></trkpt><trkpt lat="42.1953545" lon="14.1946168"><ele>506.5</ele><time>2026-04-26T10:04:43.756Z</time></trkpt><trkpt lat="42.1953437" lon="14.1945182"><ele>508.3333333333333</ele><time>2026-04-26T10:04:44.755Z</time></trkpt><trkpt lat="42.195301" lon="14.1944328"><ele>510.16666666666663</ele><time>2026-04-26T10:04:45.758Z</time></trkpt><trkpt lat="42.1952275" lon="14.1943585"><ele>512.0</ele><time>2026-04-26T10:04:46.756Z</time></trkpt><trkpt lat="42.1951485" lon="14.1942978"><ele>511.99999999999994</ele><time>2026-04-26T10:04:47.756Z</time></trkpt><trkpt lat="42.1950643" lon="14.1942833"><ele>512.0</ele><time>2026-04-26T10:04:48.758Z</time></trkpt><trkpt lat="42.1949788" lon="14.1942908"><ele>512.0</ele><time>2026-04-26T10:04:49.758Z</time></trkpt><trkpt lat="42.1949022" lon="14.1942623"><ele>512.0</ele><time>2026-04-26T10:04:50.759Z</time></trkpt><trkpt lat="42.1948212" lon="14.1942018"><ele>511.99999999999994</ele><time>2026-04-26T10:04:51.757Z</time></trkpt><trkpt lat="42.1947573" lon="14.194118"><ele>512.0</ele><time>2026-04-26T10:04:52.757Z</time></trkpt><trkpt lat="42.194729" lon="14.1939927"><ele>511.8</ele><time>2026-04-26T10:04:53.755Z</time></trkpt><trkpt lat="42.194746" lon="14.1938672"><ele>511.6</ele><time>2026-04-26T10:04:54.757Z</time></trkpt><trkpt lat="42.1947925" lon="14.1937355"><ele>511.40000000000003</ele><time>2026-04-26T10:04:55.755Z</time></trkpt><trkpt lat="42.1948422" lon="14.1935973"><ele>511.20000000000005</ele><time>2026-04-26T10:04:56.755Z</time></trkpt><trkpt lat="42.1948702" lon="14.1934735"><ele>511.0</ele><time>2026-04-26T10:04:57.756Z</time></trkpt><trkpt lat="42.1948588" lon="14.1933527"><ele>513.25</ele><time>2026-04-26T10:04:58.757Z</time></trkpt><trkpt lat="42.1948247" lon="14.1932208"><ele>515.5</ele><time>2026-04-26T10:04:59.757Z</time></trkpt><trkpt lat="42.1947777" lon="14.193073"><ele>517.75</ele><time>2026-04-26T10:05:00.757Z</time></trkpt><trkpt lat="42.1947405" lon="14.1929143"><ele>520.0</ele><time>2026-04-26T10:05:01.758Z</time></trkpt><trkpt lat="42.1947222" lon="14.1927518"><ele>520.0</ele><time>2026-04-26T10:05:02.758Z</time></trkpt><trkpt lat="42.1946995" lon="14.1926167"><ele>520.0</ele><time>2026-04-26T10:05:03.757Z</time></trkpt><trkpt lat="42.1946532" lon="14.1925157"><ele>520.0</ele><time>2026-04-26T10:05:04.759Z</time></trkpt><trkpt lat="42.1945848" lon="14.1924218"><ele>520.0</ele><time>2026-04-26T10:05:05.757Z</time></trkpt><trkpt lat="42.1944915" lon="14.1923263"><ele>520.0</ele><time>2026-04-26T10:05:06.759Z</time></trkpt><trkpt lat="42.1943872" lon="14.1922458"><ele>520.0</ele><time>2026-04-26T10:05:07.757Z</time></trkpt><trkpt lat="42.1942803" lon="14.1922132"><ele>520.0</ele><time>2026-04-26T10:05:08.756Z</time></trkpt><trkpt lat="42.1941907" lon="14.1922115"><ele>520.0</ele><time>2026-04-26T10:05:09.757Z</time></trkpt><trkpt lat="42.194125" lon="14.1921775"><ele>520.0</ele><time>2026-04-26T10:05:10.756Z</time></trkpt><trkpt lat="42.1940818" lon="14.1921007"><ele>520.0</ele><time>2026-04-26T10:05:11.757Z</time></trkpt><trkpt lat="42.1940345" lon="14.1920257"><ele>520.0</ele><time>2026-04-26T10:05:12.757Z</time></trkpt><trkpt lat="42.1939708" lon="14.1919968"><ele>522.0</ele><time>2026-04-26T10:05:13.756Z</time></trkpt><trkpt lat="42.1938818" lon="14.1920028"><ele>524.0</ele><time>2026-04-26T10:05:14.756Z</time></trkpt><trkpt lat="42.1937867" lon="14.1920288"><ele>526.0</ele><time>2026-04-26T10:05:15.757Z</time></trkpt><trkpt lat="42.1937033" lon="14.1920498"><ele>528.0</ele><time>2026-04-26T10:05:16.758Z</time></trkpt><trkpt lat="42.1936408" lon="14.1919955"><ele>530.0</ele><time>2026-04-26T10:05:18.757Z</time></trkpt><trkpt lat="42.1935955" lon="14.1918435"><ele>530.0</ele><time>2026-04-26T10:05:20.753Z</time></trkpt><trkpt lat="42.1935357" lon="14.1917603"><ele>530.0</ele><time>2026-04-26T10:05:21.755Z</time></trkpt><trkpt lat="42.1934702" lon="14.1916505"><ele>530.0</ele><time>2026-04-26T10:05:22.757Z</time></trkpt><trkpt lat="42.1933995" lon="14.1915328"><ele>530.0</ele><time>2026-04-26T10:05:23.756Z</time></trkpt><trkpt lat="42.1933273" lon="14.1914252"><ele>530.0</ele><time>2026-04-26T10:05:24.758Z</time></trkpt><trkpt lat="42.193249" lon="14.1913542"><ele>531.2</ele><time>2026-04-26T10:05:25.757Z</time></trkpt><trkpt lat="42.1931562" lon="14.1912962"><ele>532.4</ele><time>2026-04-26T10:05:26.758Z</time></trkpt><trkpt lat="42.1930512" lon="14.1912468"><ele>533.6</ele><time>2026-04-26T10:05:27.757Z</time></trkpt><trkpt lat="42.1929442" lon="14.1911972"><ele>534.8</ele><time>2026-04-26T10:05:28.757Z</time></trkpt><trkpt lat="42.1928377" lon="14.1911513"><ele>536.0</ele><time>2026-04-26T10:05:29.757Z</time></trkpt><trkpt lat="42.1927278" lon="14.1911143"><ele>536.0</ele><time>2026-04-26T10:05:30.757Z</time></trkpt><trkpt lat="42.1926222" lon="14.1910765"><ele>536.0</ele><time>2026-04-26T10:05:31.756Z</time></trkpt><trkpt lat="42.19251" lon="14.1910242"><ele>536.0</ele><time>2026-04-26T10:05:32.758Z</time></trkpt><trkpt lat="42.1924078" lon="14.1909765"><ele>536.0</ele><time>2026-04-26T10:05:33.758Z</time></trkpt><trkpt lat="42.1923183" lon="14.1909373"><ele>536.0</ele><time>2026-04-26T10:05:34.757Z</time></trkpt><trkpt lat="42.1922235" lon="14.1909112"><ele>537.8</ele><time>2026-04-26T10:05:35.756Z</time></trkpt><trkpt lat="42.1921225" lon="14.1908852"><ele>539.6</ele><time>2026-04-26T10:05:36.757Z</time></trkpt><trkpt lat="42.1920175" lon="14.190868"><ele>541.4</ele><time>2026-04-26T10:05:37.757Z</time></trkpt><trkpt lat="42.1919262" lon="14.1908628"><ele>543.2</ele><time>2026-04-26T10:05:38.758Z</time></trkpt><trkpt lat="42.1918457" lon="14.1908553"><ele>545.0</ele><time>2026-04-26T10:05:39.759Z</time></trkpt><trkpt lat="42.1917675" lon="14.1908158"><ele>545.0</ele><time>2026-04-26T10:05:40.758Z</time></trkpt><trkpt lat="42.1916832" lon="14.1907522"><ele>545.0</ele><time>2026-04-26T10:05:41.758Z</time></trkpt><trkpt lat="42.1915918" lon="14.1906758"><ele>545.0</ele><time>2026-04-26T10:05:42.756Z</time></trkpt><trkpt lat="42.1915047" lon="14.1905812"><ele>545.0</ele><time>2026-04-26T10:05:43.757Z</time></trkpt><trkpt lat="42.1914148" lon="14.1904775"><ele>545.0</ele><time>2026-04-26T10:05:44.755Z</time></trkpt><trkpt lat="42.1913275" lon="14.1903623"><ele>546.6</ele><time>2026-04-26T10:05:45.757Z</time></trkpt><trkpt lat="42.1912455" lon="14.190236"><ele>548.2</ele><time>2026-04-26T10:05:46.757Z</time></trkpt><trkpt lat="42.1911712" lon="14.190127"><ele>549.8</ele><time>2026-04-26T10:05:47.755Z</time></trkpt><trkpt lat="42.1910865" lon="14.1900433"><ele>551.4</ele><time>2026-04-26T10:05:48.756Z</time></trkpt><trkpt lat="42.191007" lon="14.1899623"><ele>553.0</ele><time>2026-04-26T10:05:49.758Z</time></trkpt><trkpt lat="42.1909445" lon="14.1898582"><ele>552.6</ele><time>2026-04-26T10:05:50.758Z</time></trkpt><trkpt lat="42.1908627" lon="14.1897672"><ele>552.1999999999999</ele><time>2026-04-26T10:05:51.759Z</time></trkpt><trkpt lat="42.190774" lon="14.1896703"><ele>551.8</ele><time>2026-04-26T10:05:52.758Z</time></trkpt><trkpt lat="42.1906977" lon="14.1895593"><ele>551.4</ele><time>2026-04-26T10:05:53.758Z</time></trkpt><trkpt lat="42.1906247" lon="14.1894852"><ele>551.0</ele><time>2026-04-26T10:05:54.758Z</time></trkpt><trkpt lat="42.190542" lon="14.1894488"><ele>552.6666666666666</ele><time>2026-04-26T10:05:55.758Z</time></trkpt><trkpt lat="42.1904598" lon="14.1894135"><ele>554.3333333333333</ele><time>2026-04-26T10:05:56.759Z</time></trkpt><trkpt lat="42.1903975" lon="14.1893558"><ele>556.0</ele><time>2026-04-26T10:05:57.761Z</time></trkpt><trkpt lat="42.190344" lon="14.1892672"><ele>557.6666666666666</ele><time>2026-04-26T10:05:58.757Z</time></trkpt><trkpt lat="42.1903027" lon="14.1891505"><ele>559.3333333333334</ele><time>2026-04-26T10:05:59.756Z</time></trkpt><trkpt lat="42.190255" lon="14.1890258"><ele>561.0</ele><time>2026-04-26T10:06:00.757Z</time></trkpt><trkpt lat="42.1901993" lon="14.1888882"><ele>561.4</ele><time>2026-04-26T10:06:01.757Z</time></trkpt><trkpt lat="42.1901343" lon="14.1887493"><ele>561.8</ele><time>2026-04-26T10:06:02.758Z</time></trkpt><trkpt lat="42.1900617" lon="14.1886142"><ele>562.1999999999999</ele><time>2026-04-26T10:06:03.759Z</time></trkpt><trkpt lat="42.1899991" lon="14.1885019"><ele>562.6</ele><time>2026-04-26T10:06:04.756Z</time></trkpt><trkpt lat="42.1899704" lon="14.1883768"><ele>563.0</ele><time>2026-04-26T10:06:05.758Z</time></trkpt><trkpt lat="42.1899577" lon="14.1882339"><ele>564.0</ele><time>2026-04-26T10:06:06.757Z</time></trkpt><trkpt lat="42.189931" lon="14.1880854"><ele>565.0</ele><time>2026-04-26T10:06:07.754Z</time></trkpt><trkpt lat="42.1898882" lon="14.1879388"><ele>566.0</ele><time>2026-04-26T10:06:08.755Z</time></trkpt><trkpt lat="42.1898393" lon="14.1877953"><ele>567.0</ele><time>2026-04-26T10:06:09.754Z</time></trkpt><trkpt lat="42.1897751" lon="14.1876713"><ele>569.75</ele><time>2026-04-26T10:06:10.754Z</time></trkpt><trkpt lat="42.1897072" lon="14.187545"><ele>572.5</ele><time>2026-04-26T10:06:11.757Z</time></trkpt><trkpt lat="42.1896514" lon="14.1873979"><ele>575.25</ele><time>2026-04-26T10:06:12.758Z</time></trkpt><trkpt lat="42.189598" lon="14.1872382"><ele>578.0</ele><time>2026-04-26T10:06:13.758Z</time></trkpt><trkpt lat="42.1895454" lon="14.1870764"><ele>578.0</ele><time>2026-04-26T10:06:14.757Z</time></trkpt><trkpt lat="42.1894944" lon="14.1869375"><ele>578.0</ele><time>2026-04-26T10:06:15.758Z</time></trkpt><trkpt lat="42.1894356" lon="14.1868502"><ele>578.0</ele><time>2026-04-26T10:06:16.758Z</time></trkpt><trkpt lat="42.189375" lon="14.1868225"><ele>578.0</ele><time>2026-04-26T10:06:17.756Z</time></trkpt><trkpt lat="42.1892504" lon="14.1868703"><ele>578.0</ele><time>2026-04-26T10:06:19.756Z</time></trkpt><trkpt lat="42.1891703" lon="14.1869088"><ele>578.0</ele><time>2026-04-26T10:06:20.756Z</time></trkpt><trkpt lat="42.1890869" lon="14.1869401"><ele>578.0</ele><time>2026-04-26T10:06:21.756Z</time></trkpt><trkpt lat="42.1890046" lon="14.1869585"><ele>578.0</ele><time>2026-04-26T10:06:22.758Z</time></trkpt><trkpt lat="42.1889247" lon="14.1869521"><ele>578.0</ele><time>2026-04-26T10:06:23.756Z</time></trkpt><trkpt lat="42.1888509" lon="14.1869343"><ele>578.0</ele><time>2026-04-26T10:06:24.762Z</time></trkpt><trkpt lat="42.1887805" lon="14.1869125"><ele>578.0</ele><time>2026-04-26T10:06:25.756Z</time></trkpt><trkpt lat="42.1887066" lon="14.1868912"><ele>579.6</ele><time>2026-04-26T10:06:26.757Z</time></trkpt><trkpt lat="42.1886278" lon="14.1868834"><ele>581.1999999999999</ele><time>2026-04-26T10:06:27.759Z</time></trkpt><trkpt lat="42.1885428" lon="14.1868966"><ele>582.8</ele><time>2026-04-26T10:06:28.758Z</time></trkpt><trkpt lat="42.1884529" lon="14.1869253"><ele>584.4</ele><time>2026-04-26T10:06:29.758Z</time></trkpt><trkpt lat="42.188362" lon="14.1869685"><ele>586.0</ele><time>2026-04-26T10:06:30.759Z</time></trkpt><trkpt lat="42.1882748" lon="14.1870277"><ele>586.0</ele><time>2026-04-26T10:06:31.756Z</time></trkpt><trkpt lat="42.1881967" lon="14.1870904"><ele>586.0</ele><time>2026-04-26T10:06:32.755Z</time></trkpt><trkpt lat="42.1881345" lon="14.1871414"><ele>586.0</ele><time>2026-04-26T10:06:33.756Z</time></trkpt><trkpt lat="42.1880585" lon="14.1871602"><ele>586.0</ele><time>2026-04-26T10:06:35.755Z</time></trkpt><trkpt lat="42.1880156" lon="14.1870798"><ele>586.0</ele><time>2026-04-26T10:06:37.756Z</time></trkpt><trkpt lat="42.1879439" lon="14.1869279"><ele>586.0</ele><time>2026-04-26T10:06:39.757Z</time></trkpt><trkpt lat="42.187878" lon="14.1868403"><ele>588.0</ele><time>2026-04-26T10:06:40.757Z</time></trkpt><trkpt lat="42.1878008" lon="14.1867377"><ele>590.0</ele><time>2026-04-26T10:06:41.757Z</time></trkpt><trkpt lat="42.1877278" lon="14.1866163"><ele>592.0</ele><time>2026-04-26T10:06:42.759Z</time></trkpt><trkpt lat="42.1876621" lon="14.1864761"><ele>594.0</ele><time>2026-04-26T10:06:43.757Z</time></trkpt><trkpt lat="42.1875933" lon="14.1863288"><ele>594.5</ele><time>2026-04-26T10:06:44.759Z</time></trkpt><trkpt lat="42.1875125" lon="14.1862063"><ele>595.0</ele><time>2026-04-26T10:06:45.757Z</time></trkpt><trkpt lat="42.1874183" lon="14.1860903"><ele>595.5</ele><time>2026-04-26T10:06:46.758Z</time></trkpt><trkpt lat="42.1873258" lon="14.1859698"><ele>596.0</ele><time>2026-04-26T10:06:47.761Z</time></trkpt><trkpt lat="42.187232" lon="14.1858712"><ele>598.25</ele><time>2026-04-26T10:06:48.756Z</time></trkpt><trkpt lat="42.1871473" lon="14.1857803"><ele>600.5</ele><time>2026-04-26T10:06:49.756Z</time></trkpt><trkpt lat="42.1870652" lon="14.1856728"><ele>602.75</ele><time>2026-04-26T10:06:50.756Z</time></trkpt><trkpt lat="42.186977" lon="14.1855587"><ele>605.0</ele><time>2026-04-26T10:06:51.757Z</time></trkpt><trkpt lat="42.1868837" lon="14.1854355"><ele>605.0</ele><time>2026-04-26T10:06:52.757Z</time></trkpt><trkpt lat="42.1867892" lon="14.1852977"><ele>605.0</ele><time>2026-04-26T10:06:53.758Z</time></trkpt><trkpt lat="42.1866953" lon="14.1851467"><ele>605.0</ele><time>2026-04-26T10:06:54.76Z</time></trkpt><trkpt lat="42.1865983" lon="14.184991"><ele>605.0</ele><time>2026-04-26T10:06:55.757Z</time></trkpt><trkpt lat="42.1864965" lon="14.1848325"><ele>608.5</ele><time>2026-04-26T10:06:56.756Z</time></trkpt><trkpt lat="42.186395" lon="14.1846777"><ele>612.0</ele><time>2026-04-26T10:06:57.755Z</time></trkpt><trkpt lat="42.186308" lon="14.1845455"><ele>615.5</ele><time>2026-04-26T10:06:58.754Z</time></trkpt><trkpt lat="42.1862477" lon="14.1844508"><ele>619.0</ele><time>2026-04-26T10:06:59.755Z</time></trkpt><trkpt lat="42.1862037" lon="14.1843707"><ele>619.0</ele><time>2026-04-26T10:07:00.756Z</time></trkpt><trkpt lat="42.1861612" lon="14.1842637"><ele>619.0</ele><time>2026-04-26T10:07:01.757Z</time></trkpt><trkpt lat="42.186099" lon="14.1841677"><ele>619.0</ele><time>2026-04-26T10:07:02.755Z</time></trkpt><trkpt lat="42.1860227" lon="14.18407"><ele>619.0</ele><time>2026-04-26T10:07:03.756Z</time></trkpt><trkpt lat="42.1859465" lon="14.1839868"><ele>619.0</ele><time>2026-04-26T10:07:04.756Z</time></trkpt><trkpt lat="42.1858808" lon="14.1839478"><ele>619.0</ele><time>2026-04-26T10:07:05.757Z</time></trkpt><trkpt lat="42.1857692" lon="14.1839873"><ele>619.0</ele><time>2026-04-26T10:07:07.758Z</time></trkpt><trkpt lat="42.1856987" lon="14.1840393"><ele>619.0</ele><time>2026-04-26T10:07:08.757Z</time></trkpt><trkpt lat="42.1856305" lon="14.1840697"><ele>619.0</ele><time>2026-04-26T10:07:09.757Z</time></trkpt><trkpt lat="42.1855392" lon="14.1840532"><ele>619.0</ele><time>2026-04-26T10:07:11.756Z</time></trkpt><trkpt lat="42.1854848" lon="14.183973"><ele>619.0</ele><time>2026-04-26T10:07:13.756Z</time></trkpt><trkpt lat="42.1853928" lon="14.1838795"><ele>620.5</ele><time>2026-04-26T10:07:15.759Z</time></trkpt><trkpt lat="42.1853217" lon="14.1838315"><ele>622.0</ele><time>2026-04-26T10:07:16.756Z</time></trkpt><trkpt lat="42.1852668" lon="14.1837792"><ele>623.5</ele><time>2026-04-26T10:07:17.757Z</time></trkpt><trkpt lat="42.185227" lon="14.1836962"><ele>625.0</ele><time>2026-04-26T10:07:18.757Z</time></trkpt><trkpt lat="42.185198" lon="14.1835908"><ele>626.5</ele><time>2026-04-26T10:07:19.758Z</time></trkpt><trkpt lat="42.1851878" lon="14.1834755"><ele>628.0</ele><time>2026-04-26T10:07:20.755Z</time></trkpt><trkpt lat="42.1852127" lon="14.1833643"><ele>628.0</ele><time>2026-04-26T10:07:21.754Z</time></trkpt><trkpt lat="42.1852488" lon="14.1832337"><ele>628.0</ele><time>2026-04-26T10:07:22.756Z</time></trkpt><trkpt lat="42.1852828" lon="14.1830858"><ele>628.0</ele><time>2026-04-26T10:07:23.754Z</time></trkpt><trkpt lat="42.1853112" lon="14.1829293"><ele>628.0</ele><time>2026-04-26T10:07:24.761Z</time></trkpt><trkpt lat="42.1853373" lon="14.1827637"><ele>628.25</ele><time>2026-04-26T10:07:25.757Z</time></trkpt><trkpt lat="42.1853612" lon="14.1825922"><ele>628.5</ele><time>2026-04-26T10:07:26.758Z</time></trkpt><trkpt lat="42.1853805" lon="14.1824178"><ele>628.75</ele><time>2026-04-26T10:07:27.757Z</time></trkpt><trkpt lat="42.1853957" lon="14.1822592"><ele>629.0</ele><time>2026-04-26T10:07:28.76Z</time></trkpt><trkpt lat="42.1854047" lon="14.1821147"><ele>629.4</ele><time>2026-04-26T10:07:29.758Z</time></trkpt><trkpt lat="42.1853982" lon="14.1819965"><ele>629.8</ele><time>2026-04-26T10:07:30.759Z</time></trkpt><trkpt lat="42.185334" lon="14.1818872"><ele>630.2</ele><time>2026-04-26T10:07:32.757Z</time></trkpt><trkpt lat="42.185206" lon="14.1818492"><ele>630.6</ele><time>2026-04-26T10:07:34.758Z</time></trkpt><trkpt lat="42.1851247" lon="14.181834"><ele>631.0</ele><time>2026-04-26T10:07:35.757Z</time></trkpt><trkpt lat="42.1850435" lon="14.1818157"><ele>631.0</ele><time>2026-04-26T10:07:36.761Z</time></trkpt><trkpt lat="42.1849832" lon="14.1817893"><ele>631.0</ele><time>2026-04-26T10:07:37.758Z</time></trkpt><trkpt lat="42.1849802" lon="14.1816612"><ele>631.0</ele><time>2026-04-26T10:07:40.757Z</time></trkpt><trkpt lat="42.1849888" lon="14.1815673"><ele>631.0</ele><time>2026-04-26T10:07:41.757Z</time></trkpt><trkpt lat="42.1849967" lon="14.181446"><ele>631.0</ele><time>2026-04-26T10:07:42.756Z</time></trkpt><trkpt lat="42.184998" lon="14.1813127"><ele>631.0</ele><time>2026-04-26T10:07:43.759Z</time></trkpt><trkpt lat="42.184982" lon="14.1811972"><ele>632.0</ele><time>2026-04-26T10:07:44.757Z</time></trkpt><trkpt lat="42.184945" lon="14.1811075"><ele>633.0</ele><time>2026-04-26T10:07:45.756Z</time></trkpt><trkpt lat="42.1849002" lon="14.1810173"><ele>634.0</ele><time>2026-04-26T10:07:46.755Z</time></trkpt><trkpt lat="42.1848672" lon="14.1809355"><ele>635.0</ele><time>2026-04-26T10:07:50.758Z</time></trkpt><trkpt lat="42.1849117" lon="14.1808247"><ele>636.0</ele><time>2026-04-26T10:07:53.755Z</time></trkpt><trkpt lat="42.1849443" lon="14.180713"><ele>637.0</ele><time>2026-04-26T10:07:55.756Z</time></trkpt><trkpt lat="42.1849218" lon="14.1806037"><ele>637.8</ele><time>2026-04-26T10:07:59.756Z</time></trkpt><trkpt lat="42.1848353" lon="14.1805927"><ele>638.6</ele><time>2026-04-26T10:08:01.756Z</time></trkpt><trkpt lat="42.1847425" lon="14.1805922"><ele>639.4</ele><time>2026-04-26T10:08:03.756Z</time></trkpt><trkpt lat="42.184631" lon="14.1806063"><ele>640.1999999999999</ele><time>2026-04-26T10:08:05.757Z</time></trkpt><trkpt lat="42.1845205" lon="14.1806315"><ele>641.0</ele><time>2026-04-26T10:08:07.757Z</time></trkpt><trkpt lat="42.1843998" lon="14.1806837"><ele>641.0</ele><time>2026-04-26T10:08:09.756Z</time></trkpt><trkpt lat="42.1843405" lon="14.1807197"><ele>641.0</ele><time>2026-04-26T10:08:10.754Z</time></trkpt><trkpt lat="42.1842515" lon="14.1807795"><ele>641.0</ele><time>2026-04-26T10:08:12.756Z</time></trkpt><trkpt lat="42.184189" lon="14.1808402"><ele>641.0</ele><time>2026-04-26T10:08:14.758Z</time></trkpt><trkpt lat="42.184109" lon="14.1808935"><ele>641.0</ele><time>2026-04-26T10:08:17.756Z</time></trkpt><trkpt lat="42.1840298" lon="14.1809233"><ele>641.0</ele><time>2026-04-26T10:08:47.758Z</time></trkpt><trkpt lat="42.1839688" lon="14.1808455"><ele>641.6666666666666</ele><time>2026-04-26T10:08:49.757Z</time></trkpt><trkpt lat="42.1839307" lon="14.1807357"><ele>642.3333333333333</ele><time>2026-04-26T10:08:51.757Z</time></trkpt><trkpt lat="42.1838553" lon="14.1807058"><ele>643.0</ele><time>2026-04-26T10:08:54.759Z</time></trkpt><trkpt lat="42.183788" lon="14.180771"><ele>643.6666666666666</ele><time>2026-04-26T10:08:57.758Z</time></trkpt><trkpt lat="42.1837338" lon="14.1808332"><ele>644.3333333333334</ele><time>2026-04-26T10:09:00.757Z</time></trkpt><trkpt lat="42.1836788" lon="14.1809135"><ele>645.0</ele><time>2026-04-26T10:09:03.758Z</time></trkpt><trkpt lat="42.1836175" lon="14.1809865"><ele>645.0</ele><time>2026-04-26T10:09:06.757Z</time></trkpt><trkpt lat="42.1835495" lon="14.1810445"><ele>645.0</ele><time>2026-04-26T10:35:15.758Z</time></trkpt><trkpt lat="42.1835703" lon="14.1809455"><ele>645.0</ele><time>2026-04-26T10:35:21.759Z</time></trkpt><trkpt lat="42.1836457" lon="14.1808757"><ele>645.0</ele><time>2026-04-26T10:35:24.76Z</time></trkpt><trkpt lat="42.1836915" lon="14.1808102"><ele>645.0</ele><time>2026-04-26T10:35:26.76Z</time></trkpt><trkpt lat="42.1837488" lon="14.1807505"><ele>645.0</ele><time>2026-04-26T10:35:28.76Z</time></trkpt><trkpt lat="42.1838085" lon="14.180695"><ele>645.0</ele><time>2026-04-26T10:35:30.76Z</time></trkpt><trkpt lat="42.1838747" lon="14.1806738"><ele>645.0</ele><time>2026-04-26T10:35:33.756Z</time></trkpt><trkpt lat="42.183899" lon="14.1807765"><ele>645.0</ele><time>2026-04-26T10:35:36.762Z</time></trkpt><trkpt lat="42.1839103" lon="14.1808917"><ele>645.0</ele><time>2026-04-26T10:35:39.761Z</time></trkpt><trkpt lat="42.1839188" lon="14.1810045"><ele>645.0</ele><time>2026-04-26T10:35:42.76Z</time></trkpt><trkpt lat="42.1839177" lon="14.1811012"><ele>645.0</ele><time>2026-04-26T10:35:45.762Z</time></trkpt><trkpt lat="42.1839275" lon="14.181199"><ele>645.0</ele><time>2026-04-26T10:36:09.76Z</time></trkpt><trkpt lat="42.1839097" lon="14.181309"><ele>645.0</ele><time>2026-04-26T10:36:13.761Z</time></trkpt><trkpt lat="42.1838757" lon="14.1814168"><ele>645.0</ele><time>2026-04-26T10:36:15.76Z</time></trkpt><trkpt lat="42.1838147" lon="14.1815452"><ele>645.0</ele><time>2026-04-26T10:36:17.759Z</time></trkpt><trkpt lat="42.1837537" lon="14.1816728"><ele>645.0</ele><time>2026-04-26T10:36:19.758Z</time></trkpt><trkpt lat="42.183712" lon="14.1817507"><ele>644.6666666666666</ele><time>2026-04-26T10:36:21.758Z</time></trkpt><trkpt lat="42.1836795" lon="14.1818237"><ele>644.3333333333334</ele><time>2026-04-26T10:36:24.759Z</time></trkpt><trkpt lat="42.1836443" lon="14.1819063"><ele>644.0</ele><time>2026-04-26T10:36:26.758Z</time></trkpt><trkpt lat="42.1835695" lon="14.1820055"><ele>643.6666666666667</ele><time>2026-04-26T10:36:28.758Z</time></trkpt><trkpt lat="42.183472" lon="14.1820647"><ele>643.3333333333334</ele><time>2026-04-26T10:36:30.76Z</time></trkpt><trkpt lat="42.1833883" lon="14.1820787"><ele>643.0</ele><time>2026-04-26T10:36:32.761Z</time></trkpt><trkpt lat="42.1833627" lon="14.1821737"><ele>643.0</ele><time>2026-04-26T10:36:35.758Z</time></trkpt><trkpt lat="42.1834345" lon="14.1822913"><ele>643.0</ele><time>2026-04-26T10:36:37.76Z</time></trkpt><trkpt lat="42.1834868" lon="14.1823712"><ele>643.0</ele><time>2026-04-26T10:36:38.76Z</time></trkpt><trkpt lat="42.1835432" lon="14.1824608"><ele>643.0</ele><time>2026-04-26T10:36:39.761Z</time></trkpt><trkpt lat="42.1835967" lon="14.1825558"><ele>643.0</ele><time>2026-04-26T10:36:40.758Z</time></trkpt><trkpt lat="42.1836498" lon="14.1826535"><ele>640.8</ele><time>2026-04-26T10:36:41.758Z</time></trkpt><trkpt lat="42.1836997" lon="14.1827622"><ele>638.5999999999999</ele><time>2026-04-26T10:36:42.758Z</time></trkpt><trkpt lat="42.1837447" lon="14.182884"><ele>636.4000000000001</ele><time>2026-04-26T10:36:43.756Z</time></trkpt><trkpt lat="42.183782" lon="14.18302"><ele>634.2</ele><time>2026-04-26T10:36:44.755Z</time></trkpt><trkpt lat="42.1838218" lon="14.1831618"><ele>632.0</ele><time>2026-04-26T10:36:45.754Z</time></trkpt><trkpt lat="42.1838698" lon="14.1833063"><ele>631.75</ele><time>2026-04-26T10:36:46.755Z</time></trkpt><trkpt lat="42.1839297" lon="14.183448"><ele>631.5</ele><time>2026-04-26T10:36:47.754Z</time></trkpt><trkpt lat="42.183996" lon="14.1835907"><ele>631.25</ele><time>2026-04-26T10:36:48.761Z</time></trkpt><trkpt lat="42.1840635" lon="14.1837353"><ele>631.0</ele><time>2026-04-26T10:36:49.758Z</time></trkpt><trkpt lat="42.1841308" lon="14.1838853"><ele>628.75</ele><time>2026-04-26T10:36:50.756Z</time></trkpt><trkpt lat="42.184195" lon="14.184043"><ele>626.5</ele><time>2026-04-26T10:36:51.759Z</time></trkpt><trkpt lat="42.1842532" lon="14.1842067"><ele>624.25</ele><time>2026-04-26T10:36:52.759Z</time></trkpt><trkpt lat="42.1843088" lon="14.1843748"><ele>622.0</ele><time>2026-04-26T10:36:53.758Z</time></trkpt><trkpt lat="42.184367" lon="14.1845462"><ele>622.0</ele><time>2026-04-26T10:36:54.757Z</time></trkpt><trkpt lat="42.1844297" lon="14.1847178"><ele>622.0</ele><time>2026-04-26T10:36:55.757Z</time></trkpt><trkpt lat="42.1844942" lon="14.1848888"><ele>622.0</ele><time>2026-04-26T10:36:56.756Z</time></trkpt><trkpt lat="42.1845575" lon="14.1850582"><ele>622.0</ele><time>2026-04-26T10:36:57.758Z</time></trkpt><trkpt lat="42.1846223" lon="14.1852212"><ele>620.75</ele><time>2026-04-26T10:36:58.757Z</time></trkpt><trkpt lat="42.184692" lon="14.185376"><ele>619.5</ele><time>2026-04-26T10:36:59.757Z</time></trkpt><trkpt lat="42.1847717" lon="14.1855225"><ele>618.25</ele><time>2026-04-26T10:37:00.76Z</time></trkpt><trkpt lat="42.184863" lon="14.1856638"><ele>617.0</ele><time>2026-04-26T10:37:01.759Z</time></trkpt><trkpt lat="42.1849623" lon="14.1858023"><ele>615.25</ele><time>2026-04-26T10:37:02.758Z</time></trkpt><trkpt lat="42.1850657" lon="14.185942"><ele>613.5</ele><time>2026-04-26T10:37:03.757Z</time></trkpt><trkpt lat="42.1851695" lon="14.1860838"><ele>611.75</ele><time>2026-04-26T10:37:04.757Z</time></trkpt><trkpt lat="42.1852717" lon="14.1862305"><ele>610.0</ele><time>2026-04-26T10:37:05.755Z</time></trkpt><trkpt lat="42.1853652" lon="14.186382"><ele>605.5</ele><time>2026-04-26T10:37:06.758Z</time></trkpt><trkpt lat="42.18545" lon="14.1865403"><ele>601.0</ele><time>2026-04-26T10:37:07.756Z</time></trkpt><trkpt lat="42.1855255" lon="14.1867095"><ele>596.5</ele><time>2026-04-26T10:37:08.756Z</time></trkpt><trkpt lat="42.185592" lon="14.1868882"><ele>592.0</ele><time>2026-04-26T10:37:09.754Z</time></trkpt><trkpt lat="42.1856512" lon="14.1870615"><ele>591.75</ele><time>2026-04-26T10:37:10.755Z</time></trkpt><trkpt lat="42.1857048" lon="14.1872283"><ele>591.5</ele><time>2026-04-26T10:37:11.754Z</time></trkpt><trkpt lat="42.1857513" lon="14.187381"><ele>591.25</ele><time>2026-04-26T10:37:12.756Z</time></trkpt><trkpt lat="42.1857903" lon="14.1875147"><ele>591.0</ele><time>2026-04-26T10:37:13.756Z</time></trkpt><trkpt lat="42.1858192" lon="14.1876262"><ele>591.0</ele><time>2026-04-26T10:37:14.758Z</time></trkpt><trkpt lat="42.1858435" lon="14.187727"><ele>591.0</ele><time>2026-04-26T10:37:15.759Z</time></trkpt><trkpt lat="42.1858667" lon="14.1878193"><ele>591.0</ele><time>2026-04-26T10:37:16.756Z</time></trkpt><trkpt lat="42.185892" lon="14.1878972"><ele>591.0</ele><time>2026-04-26T10:37:17.76Z</time></trkpt><trkpt lat="42.1858273" lon="14.187883"><ele>591.0</ele><time>2026-04-26T10:37:22.755Z</time></trkpt><trkpt lat="42.1857937" lon="14.1877978"><ele>591.0</ele><time>2026-04-26T10:37:23.754Z</time></trkpt><trkpt lat="42.1857535" lon="14.1876887"><ele>591.0</ele><time>2026-04-26T10:37:24.757Z</time></trkpt><trkpt lat="42.1857062" lon="14.1875715"><ele>591.25</ele><time>2026-04-26T10:37:25.756Z</time></trkpt><trkpt lat="42.185646" lon="14.1874438"><ele>591.5</ele><time>2026-04-26T10:37:26.756Z</time></trkpt><trkpt lat="42.1855718" lon="14.1873268"><ele>591.75</ele><time>2026-04-26T10:37:27.755Z</time></trkpt><trkpt lat="42.1854978" lon="14.1871942"><ele>592.0</ele><time>2026-04-26T10:37:28.757Z</time></trkpt><trkpt lat="42.1854192" lon="14.187078"><ele>592.0</ele><time>2026-04-26T10:37:29.757Z</time></trkpt><trkpt lat="42.1853367" lon="14.1869675"><ele>592.0</ele><time>2026-04-26T10:37:30.755Z</time></trkpt><trkpt lat="42.1852503" lon="14.1868607"><ele>592.0</ele><time>2026-04-26T10:37:31.755Z</time></trkpt><trkpt lat="42.1851457" lon="14.1867675"><ele>592.0</ele><time>2026-04-26T10:37:32.754Z</time></trkpt><trkpt lat="42.1850327" lon="14.186676"><ele>592.0</ele><time>2026-04-26T10:37:33.754Z</time></trkpt><trkpt lat="42.1849178" lon="14.1865883"><ele>592.0</ele><time>2026-04-26T10:37:34.751Z</time></trkpt><trkpt lat="42.1848088" lon="14.186513"><ele>592.0</ele><time>2026-04-26T10:37:35.752Z</time></trkpt><trkpt lat="42.1847088" lon="14.1864855"><ele>592.0</ele><time>2026-04-26T10:37:36.753Z</time></trkpt><trkpt lat="42.1846013" lon="14.186495"><ele>588.75</ele><time>2026-04-26T10:37:37.754Z</time></trkpt><trkpt lat="42.1844833" lon="14.1865168"><ele>585.5</ele><time>2026-04-26T10:37:38.756Z</time></trkpt><trkpt lat="42.1843663" lon="14.1865428"><ele>582.25</ele><time>2026-04-26T10:37:39.757Z</time></trkpt><trkpt lat="42.1842542" lon="14.1865375"><ele>579.0</ele><time>2026-04-26T10:37:40.759Z</time></trkpt><trkpt lat="42.1841345" lon="14.1865137"><ele>579.75</ele><time>2026-04-26T10:37:41.756Z</time></trkpt><trkpt lat="42.1840092" lon="14.1865023"><ele>580.5</ele><time>2026-04-26T10:37:42.759Z</time></trkpt><trkpt lat="42.1838782" lon="14.186504"><ele>581.25</ele><time>2026-04-26T10:37:43.757Z</time></trkpt><trkpt lat="42.183749" lon="14.1865162"><ele>582.0</ele><time>2026-04-26T10:37:44.758Z</time></trkpt><trkpt lat="42.183632" lon="14.1865422"><ele>582.0</ele><time>2026-04-26T10:37:45.758Z</time></trkpt><trkpt lat="42.1835152" lon="14.1865965"><ele>582.0</ele><time>2026-04-26T10:37:46.757Z</time></trkpt><trkpt lat="42.1833948" lon="14.1866717"><ele>582.0</ele><time>2026-04-26T10:37:47.757Z</time></trkpt><trkpt lat="42.1832707" lon="14.1867552"><ele>582.0</ele><time>2026-04-26T10:37:48.757Z</time></trkpt><trkpt lat="42.183143" lon="14.1868408"><ele>582.0</ele><time>2026-04-26T10:37:49.758Z</time></trkpt><trkpt lat="42.1830125" lon="14.1869117"><ele>582.0</ele><time>2026-04-26T10:37:50.758Z</time></trkpt><trkpt lat="42.182885" lon="14.1869605"><ele>582.0</ele><time>2026-04-26T10:37:51.758Z</time></trkpt><trkpt lat="42.182768" lon="14.1869915"><ele>582.0</ele><time>2026-04-26T10:37:52.759Z</time></trkpt><trkpt lat="42.1826708" lon="14.1870155"><ele>582.0</ele><time>2026-04-26T10:37:53.762Z</time></trkpt><trkpt lat="42.1826037" lon="14.1870378"><ele>582.0</ele><time>2026-04-26T10:37:54.761Z</time></trkpt><trkpt lat="42.1825538" lon="14.1871177"><ele>582.0</ele><time>2026-04-26T10:37:57.758Z</time></trkpt><trkpt lat="42.1826247" lon="14.1872408"><ele>582.0</ele><time>2026-04-26T10:37:59.756Z</time></trkpt><trkpt lat="42.1826937" lon="14.1873418"><ele>582.0</ele><time>2026-04-26T10:38:00.756Z</time></trkpt><trkpt lat="42.1827795" lon="14.1874625"><ele>581.25</ele><time>2026-04-26T10:38:01.755Z</time></trkpt><trkpt lat="42.1828838" lon="14.1875922"><ele>580.5</ele><time>2026-04-26T10:38:02.758Z</time></trkpt><trkpt lat="42.1829963" lon="14.1877195"><ele>579.75</ele><time>2026-04-26T10:38:03.759Z</time></trkpt><trkpt lat="42.1831087" lon="14.1878475"><ele>579.0</ele><time>2026-04-26T10:38:04.761Z</time></trkpt><trkpt lat="42.183217" lon="14.187982"><ele>579.0</ele><time>2026-04-26T10:38:05.758Z</time></trkpt><trkpt lat="42.1833213" lon="14.1881285"><ele>579.0</ele><time>2026-04-26T10:38:06.759Z</time></trkpt><trkpt lat="42.18342" lon="14.1882938"><ele>579.0</ele><time>2026-04-26T10:38:07.759Z</time></trkpt><trkpt lat="42.183513" lon="14.188478"><ele>577.6666666666666</ele><time>2026-04-26T10:38:08.76Z</time></trkpt><trkpt lat="42.183602" lon="14.1886723"><ele>576.3333333333333</ele><time>2026-04-26T10:38:09.758Z</time></trkpt><trkpt lat="42.18369" lon="14.1888618"><ele>575.0</ele><time>2026-04-26T10:38:10.763Z</time></trkpt><trkpt lat="42.1837717" lon="14.1890378"><ele>573.5</ele><time>2026-04-26T10:38:11.761Z</time></trkpt><trkpt lat="42.183844" lon="14.1892058"><ele>572.0</ele><time>2026-04-26T10:38:12.76Z</time></trkpt><trkpt lat="42.1838998" lon="14.1893803"><ele>570.5</ele><time>2026-04-26T10:38:13.758Z</time></trkpt><trkpt lat="42.1839393" lon="14.1895697"><ele>569.0</ele><time>2026-04-26T10:38:14.76Z</time></trkpt><trkpt lat="42.1839603" lon="14.1897628"><ele>568.0</ele><time>2026-04-26T10:38:15.758Z</time></trkpt><trkpt lat="42.1839648" lon="14.1899488"><ele>567.0</ele><time>2026-04-26T10:38:16.758Z</time></trkpt><trkpt lat="42.1839658" lon="14.1901258"><ele>566.0</ele><time>2026-04-26T10:38:17.758Z</time></trkpt><trkpt lat="42.18397" lon="14.1902957"><ele>565.0</ele><time>2026-04-26T10:38:18.759Z</time></trkpt><trkpt lat="42.1839777" lon="14.190467"><ele>565.0</ele><time>2026-04-26T10:38:19.759Z</time></trkpt><trkpt lat="42.1839832" lon="14.1906328"><ele>565.0</ele><time>2026-04-26T10:38:20.755Z</time></trkpt><trkpt lat="42.1839927" lon="14.1907908"><ele>565.0</ele><time>2026-04-26T10:38:21.756Z</time></trkpt><trkpt lat="42.1840063" lon="14.190946"><ele>565.0</ele><time>2026-04-26T10:38:22.754Z</time></trkpt><trkpt lat="42.184017" lon="14.191108"><ele>563.8</ele><time>2026-04-26T10:38:23.757Z</time></trkpt><trkpt lat="42.184014" lon="14.1912693"><ele>562.6</ele><time>2026-04-26T10:38:24.755Z</time></trkpt><trkpt lat="42.1840063" lon="14.1914213"><ele>561.4</ele><time>2026-04-26T10:38:25.757Z</time></trkpt><trkpt lat="42.1840005" lon="14.1915652"><ele>560.2</ele><time>2026-04-26T10:38:26.756Z</time></trkpt><trkpt lat="42.1840033" lon="14.1917015"><ele>559.0</ele><time>2026-04-26T10:38:27.757Z</time></trkpt><trkpt lat="42.1840173" lon="14.191833"><ele>558.2</ele><time>2026-04-26T10:38:28.758Z</time></trkpt><trkpt lat="42.1840395" lon="14.1919445"><ele>557.4</ele><time>2026-04-26T10:38:29.756Z</time></trkpt><trkpt lat="42.1840808" lon="14.192051"><ele>556.6</ele><time>2026-04-26T10:38:30.756Z</time></trkpt><trkpt lat="42.1841373" lon="14.1921647"><ele>555.8</ele><time>2026-04-26T10:38:31.756Z</time></trkpt><trkpt lat="42.184195" lon="14.1922835"><ele>555.0</ele><time>2026-04-26T10:38:32.756Z</time></trkpt><trkpt lat="42.1842502" lon="14.1924143"><ele>552.75</ele><time>2026-04-26T10:38:33.757Z</time></trkpt><trkpt lat="42.1842975" lon="14.1925617"><ele>550.5</ele><time>2026-04-26T10:38:34.757Z</time></trkpt><trkpt lat="42.184334" lon="14.1927203"><ele>548.25</ele><time>2026-04-26T10:38:35.758Z</time></trkpt><trkpt lat="42.1843588" lon="14.192876"><ele>546.0</ele><time>2026-04-26T10:38:36.757Z</time></trkpt><trkpt lat="42.1843793" lon="14.1930027"><ele>546.0</ele><time>2026-04-26T10:38:37.758Z</time></trkpt><trkpt lat="42.1843957" lon="14.1931123"><ele>546.0</ele><time>2026-04-26T10:38:39.758Z</time></trkpt><trkpt lat="42.184332" lon="14.1932398"><ele>546.0</ele><time>2026-04-26T10:38:45.758Z</time></trkpt><trkpt lat="42.1842947" lon="14.1933332"><ele>546.0</ele><time>2026-04-26T10:38:46.757Z</time></trkpt><trkpt lat="42.1842577" lon="14.1934352"><ele>546.0</ele><time>2026-04-26T10:38:47.756Z</time></trkpt><trkpt lat="42.1842287" lon="14.1935167"><ele>546.0</ele><time>2026-04-26T10:38:48.756Z</time></trkpt><trkpt lat="42.1842065" lon="14.1935988"><ele>545.1666666666666</ele><time>2026-04-26T10:38:50.756Z</time></trkpt><trkpt lat="42.1841588" lon="14.1936942"><ele>544.3333333333334</ele><time>2026-04-26T10:38:56.757Z</time></trkpt><trkpt lat="42.1841373" lon="14.1937912"><ele>543.5</ele><time>2026-04-26T10:38:58.756Z</time></trkpt><trkpt lat="42.1841172" lon="14.1939058"><ele>542.6666666666667</ele><time>2026-04-26T10:39:00.759Z</time></trkpt><trkpt lat="42.1841103" lon="14.194029"><ele>541.8333333333334</ele><time>2026-04-26T10:39:02.76Z</time></trkpt><trkpt lat="42.1841003" lon="14.1941727"><ele>541.0</ele><time>2026-04-26T10:39:04.755Z</time></trkpt><trkpt lat="42.1841067" lon="14.194278"><ele>540.3333333333334</ele><time>2026-04-26T10:39:06.755Z</time></trkpt><trkpt lat="42.1841397" lon="14.1943582"><ele>539.6666666666667</ele><time>2026-04-26T10:39:08.754Z</time></trkpt><trkpt lat="42.1841945" lon="14.194449"><ele>539.0</ele><time>2026-04-26T10:39:10.756Z</time></trkpt><trkpt lat="42.1842683" lon="14.1945463"><ele>538.3333333333334</ele><time>2026-04-26T10:39:12.753Z</time></trkpt><trkpt lat="42.184348" lon="14.1946073"><ele>537.6666666666666</ele><time>2026-04-26T10:39:14.751Z</time></trkpt><trkpt lat="42.1842958" lon="14.1946747"><ele>537.0</ele><time>2026-04-26T10:39:18.755Z</time></trkpt><trkpt lat="42.1842272" lon="14.1946332"><ele>536.9999999999999</ele><time>2026-04-26T10:39:20.754Z</time></trkpt><trkpt lat="42.1841733" lon="14.1946888"><ele>537.0</ele><time>2026-04-26T10:39:23.754Z</time></trkpt><trkpt lat="42.18421" lon="14.1947632"><ele>537.0</ele><time>2026-04-26T10:39:26.754Z</time></trkpt><trkpt lat="42.1842727" lon="14.1948352"><ele>537.0</ele><time>2026-04-26T10:39:28.754Z</time></trkpt><trkpt lat="42.184316" lon="14.1949033"><ele>537.0</ele><time>2026-04-26T10:39:31.755Z</time></trkpt><trkpt lat="42.1843022" lon="14.1949977"><ele>536.9999999999999</ele><time>2026-04-26T10:39:37.753Z</time></trkpt><trkpt lat="42.1843107" lon="14.1950913"><ele>537.0</ele><time>2026-04-26T10:39:39.754Z</time></trkpt><trkpt lat="42.1843868" lon="14.1951507"><ele>535.3333333333334</ele><time>2026-04-26T10:39:41.755Z</time></trkpt><trkpt lat="42.1844453" lon="14.1951823"><ele>533.6666666666666</ele><time>2026-04-26T10:39:42.755Z</time></trkpt><trkpt lat="42.184512" lon="14.1952158"><ele>532.0</ele><time>2026-04-26T10:39:43.753Z</time></trkpt><trkpt lat="42.1845792" lon="14.1952605"><ele>530.3333333333333</ele><time>2026-04-26T10:39:44.756Z</time></trkpt><trkpt lat="42.1846515" lon="14.1953155"><ele>528.6666666666666</ele><time>2026-04-26T10:39:45.755Z</time></trkpt><trkpt lat="42.1847225" lon="14.1953862"><ele>527.0</ele><time>2026-04-26T10:39:46.754Z</time></trkpt><trkpt lat="42.1847885" lon="14.1954813"><ele>526.8000000000001</ele><time>2026-04-26T10:39:47.755Z</time></trkpt><trkpt lat="42.1848535" lon="14.1955782"><ele>526.6</ele><time>2026-04-26T10:39:48.756Z</time></trkpt><trkpt lat="42.1849182" lon="14.1956705"><ele>526.4000000000001</ele><time>2026-04-26T10:39:49.757Z</time></trkpt><trkpt lat="42.1849788" lon="14.1957492"><ele>526.2</ele><time>2026-04-26T10:39:50.756Z</time></trkpt><trkpt lat="42.1850277" lon="14.1958093"><ele>526.0</ele><time>2026-04-26T10:39:51.756Z</time></trkpt><trkpt lat="42.1851055" lon="14.195936"><ele>525.2</ele><time>2026-04-26T10:39:53.755Z</time></trkpt><trkpt lat="42.1851368" lon="14.1960297"><ele>524.4000000000001</ele><time>2026-04-26T10:39:54.757Z</time></trkpt><trkpt lat="42.1851598" lon="14.1961482"><ele>523.6</ele><time>2026-04-26T10:39:55.756Z</time></trkpt><trkpt lat="42.1851852" lon="14.1962855"><ele>522.8000000000001</ele><time>2026-04-26T10:39:56.756Z</time></trkpt><trkpt lat="42.1852142" lon="14.1964288"><ele>522.0</ele><time>2026-04-26T10:39:57.756Z</time></trkpt><trkpt lat="42.185244" lon="14.1965748"><ele>524.5</ele><time>2026-04-26T10:39:58.757Z</time></trkpt><trkpt lat="42.1852715" lon="14.1967263"><ele>527.0</ele><time>2026-04-26T10:39:59.759Z</time></trkpt><trkpt lat="42.185293" lon="14.1968797"><ele>529.5</ele><time>2026-04-26T10:40:00.756Z</time></trkpt><trkpt lat="42.1853087" lon="14.1970278"><ele>532.0</ele><time>2026-04-26T10:40:01.756Z</time></trkpt><trkpt lat="42.1853338" lon="14.1973278"><ele>533.6666666666667</ele><time>2026-04-26T10:40:03.757Z</time></trkpt><trkpt lat="42.1853447" lon="14.1974787"><ele>535.3333333333334</ele><time>2026-04-26T10:40:04.757Z</time></trkpt><trkpt lat="42.1853547" lon="14.1976075"><ele>537.0</ele><time>2026-04-26T10:40:05.758Z</time></trkpt><trkpt lat="42.1853657" lon="14.197715"><ele>538.6666666666666</ele><time>2026-04-26T10:40:06.758Z</time></trkpt><trkpt lat="42.1853743" lon="14.1978008"><ele>540.3333333333333</ele><time>2026-04-26T10:40:07.757Z</time></trkpt><trkpt lat="42.1853862" lon="14.1979197"><ele>542.0</ele><time>2026-04-26T10:40:09.761Z</time></trkpt><trkpt lat="42.185396" lon="14.1980042"><ele>542.0</ele><time>2026-04-26T10:40:12.762Z</time></trkpt><trkpt lat="42.1853973" lon="14.1980917"><ele>542.0</ele><time>2026-04-26T10:40:15.76Z</time></trkpt><trkpt lat="42.1853595" lon="14.1980033"><ele>542.0</ele><time>2026-04-26T10:40:31.759Z</time></trkpt><trkpt lat="42.1853555" lon="14.197863"><ele>542.0</ele><time>2026-04-26T10:40:33.759Z</time></trkpt><trkpt lat="42.1853513" lon="14.1976952"><ele>542.0</ele><time>2026-04-26T10:40:35.762Z</time></trkpt><trkpt lat="42.185344" lon="14.1975972"><ele>542.0</ele><time>2026-04-26T10:40:36.759Z</time></trkpt><trkpt lat="42.1853362" lon="14.1975095"><ele>542.0</ele><time>2026-04-26T10:40:37.758Z</time></trkpt><trkpt lat="42.18532" lon="14.1973687"><ele>542.0</ele><time>2026-04-26T10:40:39.761Z</time></trkpt><trkpt lat="42.1852863" lon="14.1970955"><ele>542.0</ele><time>2026-04-26T10:40:43.758Z</time></trkpt><trkpt lat="42.1852825" lon="14.1970043"><ele>542.0</ele><time>2026-04-26T10:40:44.758Z</time></trkpt><trkpt lat="42.1852732" lon="14.1969048"><ele>539.5</ele><time>2026-04-26T10:40:45.757Z</time></trkpt><trkpt lat="42.185241" lon="14.1966868"><ele>537.0</ele><time>2026-04-26T10:40:47.757Z</time></trkpt><trkpt lat="42.1852173" lon="14.1965585"><ele>534.5</ele><time>2026-04-26T10:40:48.757Z</time></trkpt><trkpt lat="42.1851897" lon="14.196431"><ele>532.0</ele><time>2026-04-26T10:40:49.755Z</time></trkpt><trkpt lat="42.1851647" lon="14.1963132"><ele>530.3333333333334</ele><time>2026-04-26T10:40:50.754Z</time></trkpt><trkpt lat="42.1851402" lon="14.1962033"><ele>528.6666666666667</ele><time>2026-04-26T10:40:51.757Z</time></trkpt><trkpt lat="42.1851213" lon="14.1961152"><ele>527.0</ele><time>2026-04-26T10:40:52.755Z</time></trkpt><trkpt lat="42.1850977" lon="14.1960167"><ele>525.3333333333334</ele><time>2026-04-26T10:40:54.759Z</time></trkpt><trkpt lat="42.185046" lon="14.1959627"><ele>523.6666666666666</ele><time>2026-04-26T10:41:08.761Z</time></trkpt><trkpt lat="42.1851022" lon="14.1960603"><ele>522.0</ele><time>2026-04-26T10:41:15.755Z</time></trkpt><trkpt lat="42.185143" lon="14.1962108"><ele>522.0</ele><time>2026-04-26T10:41:17.755Z</time></trkpt><trkpt lat="42.1851905" lon="14.1962788"><ele>522.0</ele><time>2026-04-26T10:41:20.757Z</time></trkpt><trkpt lat="42.1852708" lon="14.1962912"><ele>522.0</ele><time>2026-04-26T10:41:27.759Z</time></trkpt><trkpt lat="42.1853397" lon="14.1963048"><ele>522.0</ele><time>2026-04-26T10:41:29.757Z</time></trkpt><trkpt lat="42.185405" lon="14.1963625"><ele>522.0</ele><time>2026-04-26T10:41:31.757Z</time></trkpt><trkpt lat="42.1854947" lon="14.196364"><ele>522.0</ele><time>2026-04-26T10:41:34.756Z</time></trkpt><trkpt lat="42.1855655" lon="14.1964543"><ele>521.6666666666666</ele><time>2026-04-26T10:41:37.757Z</time></trkpt><trkpt lat="42.1856288" lon="14.196516"><ele>521.3333333333334</ele><time>2026-04-26T10:41:39.754Z</time></trkpt><trkpt lat="42.1856897" lon="14.1965778"><ele>521.0</ele><time>2026-04-26T10:41:41.754Z</time></trkpt><trkpt lat="42.1857547" lon="14.1966567"><ele>520.6666666666667</ele><time>2026-04-26T10:41:43.758Z</time></trkpt><trkpt lat="42.1858172" lon="14.1967192"><ele>520.3333333333334</ele><time>2026-04-26T10:41:45.756Z</time></trkpt><trkpt lat="42.1858968" lon="14.1967732"><ele>520.0</ele><time>2026-04-26T10:41:48.756Z</time></trkpt><trkpt lat="42.1859678" lon="14.1967955"><ele>520.0</ele><time>2026-04-26T10:42:00.757Z</time></trkpt><trkpt lat="42.1860565" lon="14.196812"><ele>520.0</ele><time>2026-04-26T10:42:03.754Z</time></trkpt><trkpt lat="42.186141" lon="14.1968263"><ele>520.0</ele><time>2026-04-26T10:42:05.754Z</time></trkpt><trkpt lat="42.1862513" lon="14.1968092"><ele>520.0</ele><time>2026-04-26T10:42:07.757Z</time></trkpt><trkpt lat="42.1863177" lon="14.196784"><ele>520.0</ele><time>2026-04-26T10:42:08.756Z</time></trkpt><trkpt lat="42.1863895" lon="14.1967592"><ele>520.0</ele><time>2026-04-26T10:42:09.758Z</time></trkpt><trkpt lat="42.186463" lon="14.1967502"><ele>518.0</ele><time>2026-04-26T10:42:10.756Z</time></trkpt><trkpt lat="42.186531" lon="14.1967557"><ele>516.0</ele><time>2026-04-26T10:42:11.755Z</time></trkpt><trkpt lat="42.1865942" lon="14.1967498"><ele>514.0</ele><time>2026-04-26T10:42:12.757Z</time></trkpt><trkpt lat="42.1866992" lon="14.1967142"><ele>512.0</ele><time>2026-04-26T10:42:14.754Z</time></trkpt><trkpt lat="42.1868007" lon="14.1968072"><ele>510.0</ele><time>2026-04-26T10:42:16.755Z</time></trkpt><trkpt lat="42.1868687" lon="14.1969008"><ele>510.0</ele><time>2026-04-26T10:42:17.755Z</time></trkpt><trkpt lat="42.1869412" lon="14.1969972"><ele>510.0</ele><time>2026-04-26T10:42:18.755Z</time></trkpt><trkpt lat="42.1870017" lon="14.1970925"><ele>510.0</ele><time>2026-04-26T10:42:19.755Z</time></trkpt><trkpt lat="42.1870557" lon="14.1971847"><ele>510.0</ele><time>2026-04-26T10:42:20.756Z</time></trkpt><trkpt lat="42.1871163" lon="14.1972513"><ele>510.0</ele><time>2026-04-26T10:42:21.755Z</time></trkpt><trkpt lat="42.1871877" lon="14.1973355"><ele>512.0</ele><time>2026-04-26T10:42:22.754Z</time></trkpt><trkpt lat="42.1872442" lon="14.197433"><ele>514.0</ele><time>2026-04-26T10:42:23.756Z</time></trkpt><trkpt lat="42.1872908" lon="14.1975158"><ele>516.0</ele><time>2026-04-26T10:42:24.756Z</time></trkpt><trkpt lat="42.1873177" lon="14.1976182"><ele>518.0</ele><time>2026-04-26T10:42:26.757Z</time></trkpt><trkpt lat="42.1873228" lon="14.1977847"><ele>520.0</ele><time>2026-04-26T10:42:28.754Z</time></trkpt><trkpt lat="42.1873263" lon="14.1978983"><ele>520.0</ele><time>2026-04-26T10:42:29.756Z</time></trkpt><trkpt lat="42.1873363" lon="14.198028"><ele>520.0</ele><time>2026-04-26T10:42:30.755Z</time></trkpt><trkpt lat="42.1873572" lon="14.1981685"><ele>520.0</ele><time>2026-04-26T10:42:31.756Z</time></trkpt><trkpt lat="42.187379" lon="14.1983187"><ele>520.0</ele><time>2026-04-26T10:42:32.757Z</time></trkpt><trkpt lat="42.1873962" lon="14.198475"><ele>520.0</ele><time>2026-04-26T10:42:33.757Z</time></trkpt><trkpt lat="42.1874172" lon="14.1986347"><ele>518.75</ele><time>2026-04-26T10:42:34.757Z</time></trkpt><trkpt lat="42.1874442" lon="14.1987937"><ele>517.5</ele><time>2026-04-26T10:42:35.758Z</time></trkpt><trkpt lat="42.1874772" lon="14.198949"><ele>516.25</ele><time>2026-04-26T10:42:36.756Z</time></trkpt><trkpt lat="42.1875203" lon="14.199092"><ele>515.0</ele><time>2026-04-26T10:42:37.761Z</time></trkpt><trkpt lat="42.1875662" lon="14.1992193"><ele>515.0</ele><time>2026-04-26T10:42:38.757Z</time></trkpt><trkpt lat="42.1876085" lon="14.1993437"><ele>515.0</ele><time>2026-04-26T10:42:39.758Z</time></trkpt><trkpt lat="42.1876427" lon="14.1994737"><ele>515.0</ele><time>2026-04-26T10:42:40.76Z</time></trkpt><trkpt lat="42.1876588" lon="14.1996123"><ele>515.0</ele><time>2026-04-26T10:42:41.757Z</time></trkpt><trkpt lat="42.18766" lon="14.1997588"><ele>515.0</ele><time>2026-04-26T10:42:42.758Z</time></trkpt><trkpt lat="42.187661" lon="14.1999103"><ele>515.75</ele><time>2026-04-26T10:42:43.759Z</time></trkpt><trkpt lat="42.1876695" lon="14.2000655"><ele>516.5</ele><time>2026-04-26T10:42:44.758Z</time></trkpt><trkpt lat="42.1876917" lon="14.2002217"><ele>517.25</ele><time>2026-04-26T10:42:45.76Z</time></trkpt><trkpt lat="42.1877305" lon="14.200378"><ele>518.0</ele><time>2026-04-26T10:42:46.758Z</time></trkpt><trkpt lat="42.1877823" lon="14.2005385"><ele>519.5</ele><time>2026-04-26T10:42:47.757Z</time></trkpt><trkpt lat="42.1878423" lon="14.2007013"><ele>521.0</ele><time>2026-04-26T10:42:48.757Z</time></trkpt><trkpt lat="42.1879072" lon="14.2008737"><ele>522.5</ele><time>2026-04-26T10:42:49.761Z</time></trkpt><trkpt lat="42.1879752" lon="14.201055"><ele>524.0</ele><time>2026-04-26T10:42:50.758Z</time></trkpt><trkpt lat="42.1880442" lon="14.2012383"><ele>524.0</ele><time>2026-04-26T10:42:51.758Z</time></trkpt><trkpt lat="42.188112" lon="14.2014198"><ele>524.0</ele><time>2026-04-26T10:42:52.756Z</time></trkpt><trkpt lat="42.1881793" lon="14.2015975"><ele>524.0</ele><time>2026-04-26T10:42:53.756Z</time></trkpt><trkpt lat="42.1882538" lon="14.2017663"><ele>524.0</ele><time>2026-04-26T10:42:54.755Z</time></trkpt><trkpt lat="42.1883403" lon="14.2019255"><ele>523.0</ele><time>2026-04-26T10:42:55.755Z</time></trkpt><trkpt lat="42.1884372" lon="14.2020802"><ele>522.0</ele><time>2026-04-26T10:42:56.756Z</time></trkpt><trkpt lat="42.1885402" lon="14.2022358"><ele>521.0</ele><time>2026-04-26T10:42:57.758Z</time></trkpt><trkpt lat="42.1886415" lon="14.202393"><ele>526.25</ele><time>2026-04-26T10:42:58.758Z</time></trkpt><trkpt lat="42.1887288" lon="14.2025433"><ele>531.5</ele><time>2026-04-26T10:42:59.761Z</time></trkpt><trkpt lat="42.1888025" lon="14.2026997"><ele>536.75</ele><time>2026-04-26T10:43:00.758Z</time></trkpt><trkpt lat="42.1888608" lon="14.2028692"><ele>542.0</ele><time>2026-04-26T10:43:01.758Z</time></trkpt><trkpt lat="42.1889118" lon="14.2030533"><ele>538.6666666666666</ele><time>2026-04-26T10:43:02.757Z</time></trkpt><trkpt lat="42.1889588" lon="14.2032478"><ele>535.3333333333334</ele><time>2026-04-26T10:43:03.757Z</time></trkpt><trkpt lat="42.189007" lon="14.2034477"><ele>532.0</ele><time>2026-04-26T10:43:04.757Z</time></trkpt><trkpt lat="42.1890552" lon="14.2036507"><ele>532.0</ele><time>2026-04-26T10:43:05.757Z</time></trkpt><trkpt lat="42.1891033" lon="14.2038562"><ele>532.0</ele><time>2026-04-26T10:43:06.757Z</time></trkpt><trkpt lat="42.1891507" lon="14.2040587"><ele>532.0</ele><time>2026-04-26T10:43:07.757Z</time></trkpt><trkpt lat="42.1891977" lon="14.2042562"><ele>534.75</ele><time>2026-04-26T10:43:08.757Z</time></trkpt><trkpt lat="42.1892365" lon="14.2044505"><ele>537.5</ele><time>2026-04-26T10:43:09.759Z</time></trkpt><trkpt lat="42.1892642" lon="14.204642"><ele>540.25</ele><time>2026-04-26T10:43:10.759Z</time></trkpt><trkpt lat="42.1892797" lon="14.2048293"><ele>543.0</ele><time>2026-04-26T10:43:11.758Z</time></trkpt><trkpt lat="42.1892978" lon="14.2050117"><ele>544.5</ele><time>2026-04-26T10:43:12.758Z</time></trkpt><trkpt lat="42.1893323" lon="14.2051835"><ele>546.0</ele><time>2026-04-26T10:43:13.761Z</time></trkpt><trkpt lat="42.1893875" lon="14.2053363"><ele>547.5</ele><time>2026-04-26T10:43:14.759Z</time></trkpt><trkpt lat="42.1894487" lon="14.2054605"><ele>549.0</ele><time>2026-04-26T10:43:15.76Z</time></trkpt><trkpt lat="42.1895015" lon="14.2055557"><ele>549.0</ele><time>2026-04-26T10:43:16.756Z</time></trkpt><trkpt lat="42.189541" lon="14.2056238"><ele>549.0</ele><time>2026-04-26T10:43:17.756Z</time></trkpt><trkpt lat="42.1895925" lon="14.205692"><ele>549.0</ele><time>2026-04-26T10:43:19.756Z</time></trkpt><trkpt lat="42.1896628" lon="14.2056655"><ele>549.0</ele><time>2026-04-26T10:43:32.758Z</time></trkpt><trkpt lat="42.1897652" lon="14.2056437"><ele>549.0</ele><time>2026-04-26T10:43:35.758Z</time></trkpt><trkpt lat="42.1898543" lon="14.2056667"><ele>549.0</ele><time>2026-04-26T10:43:37.759Z</time></trkpt><trkpt lat="42.1899477" lon="14.2056915"><ele>548.0</ele><time>2026-04-26T10:43:39.76Z</time></trkpt><trkpt lat="42.1900423" lon="14.2057425"><ele>547.0</ele><time>2026-04-26T10:43:41.756Z</time></trkpt><trkpt lat="42.190139" lon="14.2058242"><ele>546.0</ele><time>2026-04-26T10:43:43.756Z</time></trkpt><trkpt lat="42.1901858" lon="14.2058842"><ele>545.0</ele><time>2026-04-26T10:43:44.756Z</time></trkpt><trkpt lat="42.1902298" lon="14.2059588"><ele>544.0</ele><time>2026-04-26T10:43:45.756Z</time></trkpt><trkpt lat="42.1902742" lon="14.2060478"><ele>543.0</ele><time>2026-04-26T10:43:46.758Z</time></trkpt><trkpt lat="42.1903248" lon="14.2061633"><ele>543.0</ele><time>2026-04-26T10:43:47.758Z</time></trkpt><trkpt lat="42.1903795" lon="14.2063082"><ele>543.0</ele><time>2026-04-26T10:43:48.758Z</time></trkpt><trkpt lat="42.1904317" lon="14.2064827"><ele>543.0</ele><time>2026-04-26T10:43:49.761Z</time></trkpt><trkpt lat="42.1904763" lon="14.2066802"><ele>543.0</ele><time>2026-04-26T10:43:50.758Z</time></trkpt><trkpt lat="42.1905107" lon="14.206891"><ele>546.0</ele><time>2026-04-26T10:43:51.76Z</time></trkpt><trkpt lat="42.1905337" lon="14.2070933"><ele>549.0</ele><time>2026-04-26T10:43:52.758Z</time></trkpt><trkpt lat="42.1905488" lon="14.2072832"><ele>552.0</ele><time>2026-04-26T10:43:53.759Z</time></trkpt><trkpt lat="42.1905608" lon="14.2074618"><ele>555.0</ele><time>2026-04-26T10:43:54.757Z</time></trkpt><trkpt lat="42.190569" lon="14.2076285"><ele>556.0</ele><time>2026-04-26T10:43:55.759Z</time></trkpt><trkpt lat="42.1905748" lon="14.2077815"><ele>557.0</ele><time>2026-04-26T10:43:56.758Z</time></trkpt><trkpt lat="42.1905805" lon="14.2079073"><ele>558.0</ele><time>2026-04-26T10:43:57.759Z</time></trkpt><trkpt lat="42.1905997" lon="14.2079982"><ele>559.0</ele><time>2026-04-26T10:43:58.761Z</time></trkpt><trkpt lat="42.1907033" lon="14.208086"><ele>560.0</ele><time>2026-04-26T10:44:00.759Z</time></trkpt><trkpt lat="42.1907817" lon="14.2080902"><ele>553.5</ele><time>2026-04-26T10:44:01.758Z</time></trkpt><trkpt lat="42.1908832" lon="14.2080943"><ele>547.0</ele><time>2026-04-26T10:44:02.757Z</time></trkpt><trkpt lat="42.1910017" lon="14.2081078"><ele>540.5</ele><time>2026-04-26T10:44:03.757Z</time></trkpt><trkpt lat="42.1911207" lon="14.2081238"><ele>534.0</ele><time>2026-04-26T10:44:04.755Z</time></trkpt><trkpt lat="42.1912458" lon="14.2081365"><ele>534.0</ele><time>2026-04-26T10:44:05.757Z</time></trkpt><trkpt lat="42.1913792" lon="14.2081432"><ele>534.0</ele><time>2026-04-26T10:44:06.757Z</time></trkpt><trkpt lat="42.1915185" lon="14.2081455"><ele>534.0</ele><time>2026-04-26T10:44:07.755Z</time></trkpt><trkpt lat="42.1916527" lon="14.2081485"><ele>534.0</ele><time>2026-04-26T10:44:08.756Z</time></trkpt><trkpt lat="42.1917765" lon="14.2081525"><ele>532.2</ele><time>2026-04-26T10:44:09.756Z</time></trkpt><trkpt lat="42.1918887" lon="14.2081543"><ele>530.4</ele><time>2026-04-26T10:44:10.757Z</time></trkpt><trkpt lat="42.1919898" lon="14.2081598"><ele>528.6</ele><time>2026-04-26T10:44:11.757Z</time></trkpt><trkpt lat="42.1920862" lon="14.2081607"><ele>526.8</ele><time>2026-04-26T10:44:12.757Z</time></trkpt><trkpt lat="42.1921845" lon="14.2081465"><ele>525.0</ele><time>2026-04-26T10:44:13.757Z</time></trkpt><trkpt lat="42.1922827" lon="14.208129"><ele>522.4</ele><time>2026-04-26T10:44:14.757Z</time></trkpt><trkpt lat="42.1923843" lon="14.2081113"><ele>519.8</ele><time>2026-04-26T10:44:15.759Z</time></trkpt><trkpt lat="42.1924883" lon="14.2080912"><ele>517.2</ele><time>2026-04-26T10:44:16.756Z</time></trkpt><trkpt lat="42.1925842" lon="14.208064"><ele>514.6</ele><time>2026-04-26T10:44:17.757Z</time></trkpt><trkpt lat="42.1926857" lon="14.2080388"><ele>512.0</ele><time>2026-04-26T10:44:18.757Z</time></trkpt><trkpt lat="42.192797" lon="14.2080142"><ele>512.0</ele><time>2026-04-26T10:44:19.757Z</time></trkpt><trkpt lat="42.1929122" lon="14.207991"><ele>512.0</ele><time>2026-04-26T10:44:20.758Z</time></trkpt><trkpt lat="42.1930262" lon="14.207972"><ele>512.0</ele><time>2026-04-26T10:44:21.756Z</time></trkpt><trkpt lat="42.1931422" lon="14.2079522"><ele>512.0</ele><time>2026-04-26T10:44:22.755Z</time></trkpt><trkpt lat="42.1932652" lon="14.2079495"><ele>510.0</ele><time>2026-04-26T10:44:23.757Z</time></trkpt><trkpt lat="42.1934017" lon="14.2079607"><ele>508.0</ele><time>2026-04-26T10:44:24.756Z</time></trkpt><trkpt lat="42.1935453" lon="14.2079832"><ele>506.0</ele><time>2026-04-26T10:44:25.755Z</time></trkpt><trkpt lat="42.1936935" lon="14.2080107"><ele>504.0</ele><time>2026-04-26T10:44:26.758Z</time></trkpt><trkpt lat="42.1938412" lon="14.2080383"><ele>504.0</ele><time>2026-04-26T10:44:27.757Z</time></trkpt><trkpt lat="42.193988" lon="14.2080733"><ele>504.0</ele><time>2026-04-26T10:44:28.757Z</time></trkpt><trkpt lat="42.1941315" lon="14.2081235"><ele>504.0</ele><time>2026-04-26T10:44:29.754Z</time></trkpt><trkpt lat="42.1942642" lon="14.2081893"><ele>504.0</ele><time>2026-04-26T10:44:30.754Z</time></trkpt><trkpt lat="42.1943838" lon="14.2082722"><ele>501.75</ele><time>2026-04-26T10:44:31.754Z</time></trkpt><trkpt lat="42.1944968" lon="14.2083813"><ele>499.5</ele><time>2026-04-26T10:44:32.757Z</time></trkpt><trkpt lat="42.19461" lon="14.2085037"><ele>497.25</ele><time>2026-04-26T10:44:33.756Z</time></trkpt><trkpt lat="42.1947213" lon="14.2086292"><ele>495.0</ele><time>2026-04-26T10:44:34.757Z</time></trkpt><trkpt lat="42.1948185" lon="14.208752"><ele>492.5</ele><time>2026-04-26T10:44:35.756Z</time></trkpt><trkpt lat="42.1949008" lon="14.208855"><ele>490.0</ele><time>2026-04-26T10:44:36.757Z</time></trkpt><trkpt lat="42.1949705" lon="14.2089273"><ele>487.5</ele><time>2026-04-26T10:44:37.756Z</time></trkpt><trkpt lat="42.1950345" lon="14.2089593"><ele>485.0</ele><time>2026-04-26T10:44:38.754Z</time></trkpt><trkpt lat="42.1951028" lon="14.20895"><ele>482.5</ele><time>2026-04-26T10:44:39.756Z</time></trkpt><trkpt lat="42.1951828" lon="14.2089067"><ele>480.0</ele><time>2026-04-26T10:44:40.755Z</time></trkpt><trkpt lat="42.1952778" lon="14.2088422"><ele>480.0</ele><time>2026-04-26T10:44:41.759Z</time></trkpt><trkpt lat="42.1953868" lon="14.2087722"><ele>480.0</ele><time>2026-04-26T10:44:42.759Z</time></trkpt><trkpt lat="42.1954947" lon="14.2086983"><ele>480.0</ele><time>2026-04-26T10:44:43.758Z</time></trkpt><trkpt lat="42.195592" lon="14.2086175"><ele>480.0</ele><time>2026-04-26T10:44:44.757Z</time></trkpt><trkpt lat="42.1956782" lon="14.2085302"><ele>478.8</ele><time>2026-04-26T10:44:45.757Z</time></trkpt><trkpt lat="42.1957602" lon="14.2084397"><ele>477.6</ele><time>2026-04-26T10:44:46.757Z</time></trkpt><trkpt lat="42.1958458" lon="14.2083602"><ele>476.4</ele><time>2026-04-26T10:44:47.757Z</time></trkpt><trkpt lat="42.1959375" lon="14.2083123"><ele>475.2</ele><time>2026-04-26T10:44:48.758Z</time></trkpt><trkpt lat="42.1960312" lon="14.2083058"><ele>474.0</ele><time>2026-04-26T10:44:49.757Z</time></trkpt><trkpt lat="42.1961293" lon="14.2083187"><ele>474.0</ele><time>2026-04-26T10:44:50.757Z</time></trkpt><trkpt lat="42.1962283" lon="14.2083213"><ele>474.0</ele><time>2026-04-26T10:44:51.759Z</time></trkpt><trkpt lat="42.1963378" lon="14.2082965"><ele>474.0</ele><time>2026-04-26T10:44:52.756Z</time></trkpt><trkpt lat="42.1964547" lon="14.208256"><ele>474.0</ele><time>2026-04-26T10:44:53.756Z</time></trkpt><trkpt lat="42.1965838" lon="14.208217"><ele>470.75</ele><time>2026-04-26T10:44:54.755Z</time></trkpt><trkpt lat="42.1967157" lon="14.2081783"><ele>467.5</ele><time>2026-04-26T10:44:55.753Z</time></trkpt><trkpt lat="42.1968447" lon="14.2081245"><ele>464.25</ele><time>2026-04-26T10:44:56.753Z</time></trkpt><trkpt lat="42.1969707" lon="14.2080602"><ele>461.0</ele><time>2026-04-26T10:44:57.755Z</time></trkpt><trkpt lat="42.1970913" lon="14.208007"><ele>459.0</ele><time>2026-04-26T10:44:58.756Z</time></trkpt><trkpt lat="42.1972093" lon="14.2079938"><ele>457.0</ele><time>2026-04-26T10:44:59.756Z</time></trkpt><trkpt lat="42.1973228" lon="14.2079967"><ele>455.0</ele><time>2026-04-26T10:45:00.758Z</time></trkpt><trkpt lat="42.197431" lon="14.2080355"><ele>453.0</ele><time>2026-04-26T10:45:01.756Z</time></trkpt><trkpt lat="42.1975415" lon="14.2081007"><ele>452.0</ele><time>2026-04-26T10:45:02.757Z</time></trkpt><trkpt lat="42.1976543" lon="14.2081558"><ele>451.0</ele><time>2026-04-26T10:45:03.757Z</time></trkpt><trkpt lat="42.1977778" lon="14.2082027"><ele>450.0</ele><time>2026-04-26T10:45:04.755Z</time></trkpt><trkpt lat="42.1979057" lon="14.2082442"><ele>449.0</ele><time>2026-04-26T10:45:05.756Z</time></trkpt><trkpt lat="42.1980372" lon="14.2082827"><ele>445.25</ele><time>2026-04-26T10:45:06.755Z</time></trkpt><trkpt lat="42.198171" lon="14.2083205"><ele>441.5</ele><time>2026-04-26T10:45:07.755Z</time></trkpt><trkpt lat="42.1983052" lon="14.2083523"><ele>437.75</ele><time>2026-04-26T10:45:08.754Z</time></trkpt><trkpt lat="42.1984432" lon="14.2083763"><ele>434.0</ele><time>2026-04-26T10:45:09.756Z</time></trkpt><trkpt lat="42.198588" lon="14.2083828"><ele>434.0</ele><time>2026-04-26T10:45:10.756Z</time></trkpt><trkpt lat="42.1987203" lon="14.2083827"><ele>434.0</ele><time>2026-04-26T10:45:11.756Z</time></trkpt><trkpt lat="42.1988295" lon="14.2083957"><ele>434.0</ele><time>2026-04-26T10:45:12.755Z</time></trkpt><trkpt lat="42.198918" lon="14.2084082"><ele>434.0</ele><time>2026-04-26T10:45:13.755Z</time></trkpt><trkpt lat="42.198985" lon="14.2083928"><ele>434.0</ele><time>2026-04-26T10:45:14.756Z</time></trkpt><trkpt lat="42.1990472" lon="14.2082745"><ele>431.99999999999994</ele><time>2026-04-26T10:45:16.756Z</time></trkpt><trkpt lat="42.1990025" lon="14.2081037"><ele>430.0</ele><time>2026-04-26T10:45:18.755Z</time></trkpt><trkpt lat="42.198969" lon="14.2080073"><ele>428.0</ele><time>2026-04-26T10:45:19.753Z</time></trkpt><trkpt lat="42.1989457" lon="14.2079068"><ele>426.0</ele><time>2026-04-26T10:45:20.753Z</time></trkpt><trkpt lat="42.1989368" lon="14.2078033"><ele>423.99999999999994</ele><time>2026-04-26T10:45:21.755Z</time></trkpt><trkpt lat="42.1989363" lon="14.2077167"><ele>422.0</ele><time>2026-04-26T10:45:22.755Z</time></trkpt><trkpt lat="42.198962" lon="14.2075357"><ele>421.6</ele><time>2026-04-26T10:45:24.756Z</time></trkpt><trkpt lat="42.1990038" lon="14.2074303"><ele>421.20000000000005</ele><time>2026-04-26T10:45:25.755Z</time></trkpt><trkpt lat="42.1990553" lon="14.2073157"><ele>420.8</ele><time>2026-04-26T10:45:26.757Z</time></trkpt><trkpt lat="42.1991197" lon="14.207194"><ele>420.4</ele><time>2026-04-26T10:45:27.756Z</time></trkpt><trkpt lat="42.1991903" lon="14.2070822"><ele>420.0</ele><time>2026-04-26T10:45:28.756Z</time></trkpt><trkpt lat="42.1992628" lon="14.206996"><ele>420.0</ele><time>2026-04-26T10:45:29.756Z</time></trkpt><trkpt lat="42.1993332" lon="14.206948"><ele>420.0</ele><time>2026-04-26T10:45:30.754Z</time></trkpt><trkpt lat="42.199403" lon="14.2069333"><ele>420.0</ele><time>2026-04-26T10:45:31.754Z</time></trkpt><trkpt lat="42.1994742" lon="14.2069432"><ele>420.0</ele><time>2026-04-26T10:45:32.754Z</time></trkpt><trkpt lat="42.1995527" lon="14.206957"><ele>420.0</ele><time>2026-04-26T10:45:33.755Z</time></trkpt><trkpt lat="42.1996357" lon="14.2069795"><ele>420.0</ele><time>2026-04-26T10:45:34.754Z</time></trkpt><trkpt lat="42.199721" lon="14.2070095"><ele>420.0</ele><time>2026-04-26T10:45:35.753Z</time></trkpt><trkpt lat="42.199802" lon="14.207059"><ele>420.0</ele><time>2026-04-26T10:45:36.755Z</time></trkpt><trkpt lat="42.1998777" lon="14.2071193"><ele>420.0</ele><time>2026-04-26T10:45:37.753Z</time></trkpt><trkpt lat="42.199953" lon="14.2071817"><ele>420.0</ele><time>2026-04-26T10:45:38.756Z</time></trkpt><trkpt lat="42.2000282" lon="14.207224"><ele>420.0</ele><time>2026-04-26T10:45:39.757Z</time></trkpt><trkpt lat="42.2000963" lon="14.2072365"><ele>420.0</ele><time>2026-04-26T10:45:40.758Z</time></trkpt><trkpt lat="42.2001648" lon="14.2072387"><ele>419.8</ele><time>2026-04-26T10:45:42.757Z</time></trkpt><trkpt lat="42.2002403" lon="14.207269"><ele>419.6</ele><time>2026-04-26T10:45:45.755Z</time></trkpt><trkpt lat="42.200336" lon="14.207321"><ele>419.4</ele><time>2026-04-26T10:45:47.755Z</time></trkpt><trkpt lat="42.2004613" lon="14.2073322"><ele>419.2</ele><time>2026-04-26T10:45:49.755Z</time></trkpt><trkpt lat="42.2005673" lon="14.2073162"><ele>419.0</ele><time>2026-04-26T10:45:51.755Z</time></trkpt><trkpt lat="42.2006313" lon="14.2073685"><ele>418.99999999999994</ele><time>2026-04-26T10:45:54.755Z</time></trkpt><trkpt lat="42.2006357" lon="14.2074977"><ele>419.0</ele><time>2026-04-26T10:45:56.755Z</time></trkpt><trkpt lat="42.2006745" lon="14.2076318"><ele>419.0</ele><time>2026-04-26T10:45:58.756Z</time></trkpt><trkpt lat="42.2006893" lon="14.2077197"><ele>419.0</ele><time>2026-04-26T10:46:00.756Z</time></trkpt><trkpt lat="42.2006173" lon="14.2077717"><ele>418.99999999999994</ele><time>2026-04-26T10:46:03.756Z</time></trkpt><trkpt lat="42.2005548" lon="14.2078142"><ele>419.0</ele><time>2026-04-26T10:46:05.755Z</time></trkpt><trkpt lat="42.2005323" lon="14.2079533"><ele>419.0</ele><time>2026-04-26T10:46:08.754Z</time></trkpt><trkpt lat="42.2005827" lon="14.2080875"><ele>419.0</ele><time>2026-04-26T10:46:10.754Z</time></trkpt><trkpt lat="42.2006172" lon="14.2082358"><ele>419.0</ele><time>2026-04-26T10:46:12.758Z</time></trkpt><trkpt lat="42.2005972" lon="14.2084043"><ele>419.0</ele><time>2026-04-26T10:46:14.757Z</time></trkpt><trkpt lat="42.2005887" lon="14.208496"><ele>419.0</ele><time>2026-04-26T10:46:15.758Z</time></trkpt><trkpt lat="42.2005917" lon="14.2085823"><ele>418.49999999999994</ele><time>2026-04-26T10:46:16.757Z</time></trkpt><trkpt lat="42.2006007" lon="14.2086728"><ele>418.0</ele><time>2026-04-26T10:46:17.758Z</time></trkpt><trkpt lat="42.2006087" lon="14.2087683"><ele>417.5</ele><time>2026-04-26T10:46:18.759Z</time></trkpt><trkpt lat="42.200614" lon="14.2088638"><ele>417.0</ele><time>2026-04-26T10:46:19.758Z</time></trkpt><trkpt lat="42.2006248" lon="14.2089497"><ele>416.49999999999994</ele><time>2026-04-26T10:46:20.76Z</time></trkpt><trkpt lat="42.2006793" lon="14.2090828"><ele>416.0</ele><time>2026-04-26T10:46:22.757Z</time></trkpt><trkpt lat="42.2007015" lon="14.2092207"><ele>416.0</ele><time>2026-04-26T10:46:24.757Z</time></trkpt><trkpt lat="42.2007307" lon="14.2093585"><ele>416.0</ele><time>2026-04-26T10:46:26.757Z</time></trkpt><trkpt lat="42.2008157" lon="14.2094043"><ele>416.0</ele><time>2026-04-26T10:46:28.755Z</time></trkpt><trkpt lat="42.2009478" lon="14.2093887"><ele>416.0</ele><time>2026-04-26T10:46:30.755Z</time></trkpt><trkpt lat="42.2010298" lon="14.2093658"><ele>416.0</ele><time>2026-04-26T10:46:31.755Z</time></trkpt><trkpt lat="42.2011158" lon="14.2093498"><ele>415.99999999999994</ele><time>2026-04-26T10:46:32.753Z</time></trkpt><trkpt lat="42.2012015" lon="14.2093385"><ele>416.0</ele><time>2026-04-26T10:46:33.753Z</time></trkpt><trkpt lat="42.201285" lon="14.2093362"><ele>416.0</ele><time>2026-04-26T10:46:34.753Z</time></trkpt><trkpt lat="42.2013708" lon="14.209351"><ele>416.0</ele><time>2026-04-26T10:46:35.753Z</time></trkpt><trkpt lat="42.2014577" lon="14.2093708"><ele>415.99999999999994</ele><time>2026-04-26T10:46:36.754Z</time></trkpt><trkpt lat="42.2015443" lon="14.2093825"><ele>416.0</ele><time>2026-04-26T10:46:37.758Z</time></trkpt><trkpt lat="42.2016308" lon="14.2093722"><ele>415.66666666666663</ele><time>2026-04-26T10:46:38.757Z</time></trkpt><trkpt lat="42.201718" lon="14.2093513"><ele>415.3333333333333</ele><time>2026-04-26T10:46:39.758Z</time></trkpt><trkpt lat="42.2018077" lon="14.2093355"><ele>415.0</ele><time>2026-04-26T10:46:40.757Z</time></trkpt><trkpt lat="42.2018917" lon="14.2093222"><ele>414.66666666666663</ele><time>2026-04-26T10:46:41.756Z</time></trkpt><trkpt lat="42.2019685" lon="14.2093108"><ele>414.3333333333333</ele><time>2026-04-26T10:46:42.756Z</time></trkpt><trkpt lat="42.2020372" lon="14.2093023"><ele>414.0</ele><time>2026-04-26T10:46:43.756Z</time></trkpt><trkpt lat="42.2021663" lon="14.2093137"><ele>414.0</ele><time>2026-04-26T10:46:45.756Z</time></trkpt><trkpt lat="42.2022333" lon="14.2093472"><ele>414.0</ele><time>2026-04-26T10:46:46.755Z</time></trkpt><trkpt lat="42.2023088" lon="14.2093802"><ele>414.0</ele><time>2026-04-26T10:46:47.756Z</time></trkpt><trkpt lat="42.202392" lon="14.209413"><ele>414.0</ele><time>2026-04-26T10:46:48.757Z</time></trkpt><trkpt lat="42.2024742" lon="14.2094377"><ele>414.0</ele><time>2026-04-26T10:46:49.755Z</time></trkpt><trkpt lat="42.2025395" lon="14.2094632"><ele>414.0</ele><time>2026-04-26T10:46:50.754Z</time></trkpt><trkpt lat="42.2026072" lon="14.2094803"><ele>413.5</ele><time>2026-04-26T10:46:51.756Z</time></trkpt><trkpt lat="42.2026787" lon="14.2094928"><ele>413.0</ele><time>2026-04-26T10:46:52.757Z</time></trkpt><trkpt lat="42.2027575" lon="14.2095122"><ele>412.5</ele><time>2026-04-26T10:46:53.757Z</time></trkpt><trkpt lat="42.2028327" lon="14.2095358"><ele>412.0</ele><time>2026-04-26T10:46:54.756Z</time></trkpt><trkpt lat="42.2029055" lon="14.2095738"><ele>411.5</ele><time>2026-04-26T10:46:55.754Z</time></trkpt><trkpt lat="42.2029807" lon="14.2096188"><ele>411.0</ele><time>2026-04-26T10:46:56.754Z</time></trkpt><trkpt lat="42.2030557" lon="14.2096543"><ele>411.0</ele><time>2026-04-26T10:46:57.755Z</time></trkpt><trkpt lat="42.203136" lon="14.2096813"><ele>411.0</ele><time>2026-04-26T10:46:58.753Z</time></trkpt><trkpt lat="42.203221" lon="14.2096943"><ele>411.0</ele><time>2026-04-26T10:46:59.754Z</time></trkpt><trkpt lat="42.2033148" lon="14.2097112"><ele>411.0</ele><time>2026-04-26T10:47:00.752Z</time></trkpt><trkpt lat="42.2034175" lon="14.2097315"><ele>411.0</ele><time>2026-04-26T10:47:01.755Z</time></trkpt><trkpt lat="42.2035188" lon="14.2097402"><ele>410.6666666666667</ele><time>2026-04-26T10:47:02.756Z</time></trkpt><trkpt lat="42.203608" lon="14.2097522"><ele>410.33333333333337</ele><time>2026-04-26T10:47:03.756Z</time></trkpt><trkpt lat="42.203682" lon="14.2097487"><ele>410.0</ele><time>2026-04-26T10:47:04.756Z</time></trkpt><trkpt lat="42.2037477" lon="14.2097263"><ele>409.6666666666667</ele><time>2026-04-26T10:47:05.756Z</time></trkpt><trkpt lat="42.2038133" lon="14.209684"><ele>409.33333333333337</ele><time>2026-04-26T10:47:06.756Z</time></trkpt><trkpt lat="42.203877" lon="14.2096283"><ele>409.0</ele><time>2026-04-26T10:47:07.756Z</time></trkpt><trkpt lat="42.2039363" lon="14.2095677"><ele>408.33333333333337</ele><time>2026-04-26T10:47:08.756Z</time></trkpt><trkpt lat="42.2039982" lon="14.2095185"><ele>407.6666666666667</ele><time>2026-04-26T10:47:09.757Z</time></trkpt><trkpt lat="42.2040732" lon="14.2094882"><ele>407.0</ele><time>2026-04-26T10:47:10.76Z</time></trkpt><trkpt lat="42.2041497" lon="14.2094793"><ele>406.33333333333337</ele><time>2026-04-26T10:47:11.757Z</time></trkpt><trkpt lat="42.2042185" lon="14.2094965"><ele>405.6666666666667</ele><time>2026-04-26T10:47:12.759Z</time></trkpt><trkpt lat="42.2042855" lon="14.2095313"><ele>405.0</ele><time>2026-04-26T10:47:13.758Z</time></trkpt><trkpt lat="42.2043585" lon="14.20958"><ele>405.0</ele><time>2026-04-26T10:47:14.757Z</time></trkpt><trkpt lat="42.2044318" lon="14.2096407"><ele>405.0</ele><time>2026-04-26T10:47:15.759Z</time></trkpt><trkpt lat="42.204505" lon="14.2097165"><ele>405.0</ele><time>2026-04-26T10:47:16.756Z</time></trkpt><trkpt lat="42.2045778" lon="14.2097965"><ele>405.0</ele><time>2026-04-26T10:47:17.755Z</time></trkpt><trkpt lat="42.2046468" lon="14.209873"><ele>405.0</ele><time>2026-04-26T10:47:18.756Z</time></trkpt><trkpt lat="42.204706" lon="14.2099528"><ele>405.0</ele><time>2026-04-26T10:47:19.755Z</time></trkpt><trkpt lat="42.2047517" lon="14.2100132"><ele>403.8333333333333</ele><time>2026-04-26T10:47:20.756Z</time></trkpt><trkpt lat="42.2048468" lon="14.2101222"><ele>402.66666666666663</ele><time>2026-04-26T10:47:22.754Z</time></trkpt><trkpt lat="42.2049043" lon="14.2101905"><ele>401.5</ele><time>2026-04-26T10:47:23.754Z</time></trkpt><trkpt lat="42.204963" lon="14.2102517"><ele>400.3333333333333</ele><time>2026-04-26T10:47:24.755Z</time></trkpt><trkpt lat="42.205027" lon="14.2103062"><ele>399.16666666666663</ele><time>2026-04-26T10:47:25.756Z</time></trkpt><trkpt lat="42.2050932" lon="14.2103427"><ele>398.0</ele><time>2026-04-26T10:47:26.759Z</time></trkpt><trkpt lat="42.2051623" lon="14.2103603"><ele>397.99999999999994</ele><time>2026-04-26T10:47:27.758Z</time></trkpt><trkpt lat="42.2052422" lon="14.2103565"><ele>398.0</ele><time>2026-04-26T10:47:28.757Z</time></trkpt><trkpt lat="42.2053362" lon="14.2103532"><ele>398.0</ele><time>2026-04-26T10:47:29.756Z</time></trkpt><trkpt lat="42.2054297" lon="14.2103618"><ele>398.0</ele><time>2026-04-26T10:47:30.76Z</time></trkpt><trkpt lat="42.205501" lon="14.210395"><ele>397.99999999999994</ele><time>2026-04-26T10:47:31.757Z</time></trkpt><trkpt lat="42.2055655" lon="14.2104488"><ele>398.0</ele><time>2026-04-26T10:47:32.756Z</time></trkpt><trkpt lat="42.2056392" lon="14.2104937"><ele>396.79999999999995</ele><time>2026-04-26T10:47:33.763Z</time></trkpt><trkpt lat="42.2057197" lon="14.2105415"><ele>395.6</ele><time>2026-04-26T10:47:34.756Z</time></trkpt><trkpt lat="42.205801" lon="14.2106163"><ele>394.4</ele><time>2026-04-26T10:47:35.759Z</time></trkpt><trkpt lat="42.2058775" lon="14.2106978"><ele>393.20000000000005</ele><time>2026-04-26T10:47:36.758Z</time></trkpt><trkpt lat="42.2059522" lon="14.2107663"><ele>392.0</ele><time>2026-04-26T10:47:37.756Z</time></trkpt><trkpt lat="42.206023" lon="14.2108017"><ele>391.99999999999994</ele><time>2026-04-26T10:47:38.756Z</time></trkpt><trkpt lat="42.2061018" lon="14.2108087"><ele>392.0</ele><time>2026-04-26T10:47:39.756Z</time></trkpt><trkpt lat="42.2061798" lon="14.2107952"><ele>392.0</ele><time>2026-04-26T10:47:40.757Z</time></trkpt><trkpt lat="42.2062357" lon="14.2107547"><ele>392.0</ele><time>2026-04-26T10:47:41.757Z</time></trkpt><trkpt lat="42.2062823" lon="14.210685"><ele>391.99999999999994</ele><time>2026-04-26T10:47:42.758Z</time></trkpt><trkpt lat="42.2063355" lon="14.210603"><ele>392.0</ele><time>2026-04-26T10:47:43.756Z</time></trkpt><trkpt lat="42.2064067" lon="14.2105248"><ele>391.99999999999994</ele><time>2026-04-26T10:47:44.755Z</time></trkpt><trkpt lat="42.2064897" lon="14.2104868"><ele>392.0</ele><time>2026-04-26T10:47:45.755Z</time></trkpt><trkpt lat="42.206582" lon="14.2104768"><ele>392.0</ele><time>2026-04-26T10:47:46.754Z</time></trkpt><trkpt lat="42.2066605" lon="14.2104942"><ele>392.0</ele><time>2026-04-26T10:47:47.754Z</time></trkpt><trkpt lat="42.2067237" lon="14.2105407"><ele>391.99999999999994</ele><time>2026-04-26T10:47:48.754Z</time></trkpt><trkpt lat="42.2067885" lon="14.21061"><ele>392.0</ele><time>2026-04-26T10:47:49.754Z</time></trkpt><trkpt lat="42.2068645" lon="14.2106813"><ele>390.16666666666663</ele><time>2026-04-26T10:47:50.756Z</time></trkpt><trkpt lat="42.2069448" lon="14.2107603"><ele>388.3333333333333</ele><time>2026-04-26T10:47:51.757Z</time></trkpt><trkpt lat="42.2070212" lon="14.2108513"><ele>386.5</ele><time>2026-04-26T10:47:52.758Z</time></trkpt><trkpt lat="42.2070822" lon="14.2109483"><ele>384.66666666666663</ele><time>2026-04-26T10:47:53.757Z</time></trkpt><trkpt lat="42.2071427" lon="14.2110275"><ele>382.8333333333333</ele><time>2026-04-26T10:47:54.756Z</time></trkpt><trkpt lat="42.2072035" lon="14.2110667"><ele>381.0</ele><time>2026-04-26T10:47:55.756Z</time></trkpt><trkpt lat="42.2072707" lon="14.211074"><ele>381.0</ele><time>2026-04-26T10:47:56.756Z</time></trkpt><trkpt lat="42.2073368" lon="14.211091"><ele>381.0</ele><time>2026-04-26T10:47:57.758Z</time></trkpt><trkpt lat="42.2074032" lon="14.2111285"><ele>381.0</ele><time>2026-04-26T10:47:58.756Z</time></trkpt><trkpt lat="42.2074688" lon="14.2111583"><ele>381.0</ele><time>2026-04-26T10:47:59.757Z</time></trkpt><trkpt lat="42.207539" lon="14.2111698"><ele>381.0</ele><time>2026-04-26T10:48:00.756Z</time></trkpt><trkpt lat="42.2076145" lon="14.2111668"><ele>381.0</ele><time>2026-04-26T10:48:01.757Z</time></trkpt><trkpt lat="42.2076832" lon="14.2111783"><ele>381.0</ele><time>2026-04-26T10:48:02.756Z</time></trkpt><trkpt lat="42.2077513" lon="14.2112132"><ele>381.0</ele><time>2026-04-26T10:48:03.758Z</time></trkpt><trkpt lat="42.2078318" lon="14.2112518"><ele>381.0</ele><time>2026-04-26T10:48:04.755Z</time></trkpt><trkpt lat="42.2079193" lon="14.2112855"><ele>381.0</ele><time>2026-04-26T10:48:05.754Z</time></trkpt><trkpt lat="42.2080115" lon="14.2113278"><ele>381.0</ele><time>2026-04-26T10:48:06.756Z</time></trkpt><trkpt lat="42.2081078" lon="14.2113785"><ele>381.0</ele><time>2026-04-26T10:48:07.755Z</time></trkpt><trkpt lat="42.2082063" lon="14.2114243"><ele>380.6666666666667</ele><time>2026-04-26T10:48:08.754Z</time></trkpt><trkpt lat="42.2082918" lon="14.211465"><ele>380.3333333333333</ele><time>2026-04-26T10:48:09.756Z</time></trkpt><trkpt lat="42.2083628" lon="14.2114952"><ele>380.0</ele><time>2026-04-26T10:48:10.753Z</time></trkpt><trkpt lat="42.2084282" lon="14.2115008"><ele>379.66666666666663</ele><time>2026-04-26T10:48:11.754Z</time></trkpt><trkpt lat="42.2085023" lon="14.2114828"><ele>379.3333333333333</ele><time>2026-04-26T10:48:12.754Z</time></trkpt><trkpt lat="42.208582" lon="14.2114742"><ele>379.0</ele><time>2026-04-26T10:48:13.755Z</time></trkpt><trkpt lat="42.2086627" lon="14.2114947"><ele>377.8571428571429</ele><time>2026-04-26T10:48:14.755Z</time></trkpt><trkpt lat="42.2087465" lon="14.2115383"><ele>376.7142857142857</ele><time>2026-04-26T10:48:15.756Z</time></trkpt><trkpt lat="42.2088115" lon="14.211605"><ele>375.57142857142856</ele><time>2026-04-26T10:48:16.757Z</time></trkpt><trkpt lat="42.208855" lon="14.2116862"><ele>374.42857142857144</ele><time>2026-04-26T10:48:17.756Z</time></trkpt><trkpt lat="42.2088908" lon="14.211761"><ele>373.2857142857143</ele><time>2026-04-26T10:48:18.758Z</time></trkpt><trkpt lat="42.2089353" lon="14.2118227"><ele>372.14285714285717</ele><time>2026-04-26T10:48:19.757Z</time></trkpt><trkpt lat="42.2089937" lon="14.2118812"><ele>371.0</ele><time>2026-04-26T10:48:20.757Z</time></trkpt><trkpt lat="42.2090677" lon="14.2119368"><ele>370.8</ele><time>2026-04-26T10:48:21.758Z</time></trkpt><trkpt lat="42.2091542" lon="14.2119872"><ele>370.6</ele><time>2026-04-26T10:48:22.758Z</time></trkpt><trkpt lat="42.2092497" lon="14.2120325"><ele>370.4</ele><time>2026-04-26T10:48:23.756Z</time></trkpt><trkpt lat="42.2093472" lon="14.2120732"><ele>370.2</ele><time>2026-04-26T10:48:24.756Z</time></trkpt><trkpt lat="42.2094405" lon="14.2121145"><ele>370.0</ele><time>2026-04-26T10:48:25.756Z</time></trkpt><trkpt lat="42.2095233" lon="14.2121455"><ele>370.0</ele><time>2026-04-26T10:48:26.757Z</time></trkpt><trkpt lat="42.2096042" lon="14.212178"><ele>370.0</ele><time>2026-04-26T10:48:27.756Z</time></trkpt><trkpt lat="42.2096798" lon="14.2122093"><ele>370.0</ele><time>2026-04-26T10:48:28.755Z</time></trkpt><trkpt lat="42.2097478" lon="14.212221"><ele>370.0</ele><time>2026-04-26T10:48:29.756Z</time></trkpt><trkpt lat="42.2098498" lon="14.2121975"><ele>370.0</ele><time>2026-04-26T10:48:31.758Z</time></trkpt><trkpt lat="42.2099103" lon="14.2122342"><ele>370.0</ele><time>2026-04-26T10:48:34.757Z</time></trkpt><trkpt lat="42.2099048" lon="14.2123845"><ele>369.2</ele><time>2026-04-26T10:48:36.756Z</time></trkpt><trkpt lat="42.2098862" lon="14.2124915"><ele>368.4</ele><time>2026-04-26T10:48:37.756Z</time></trkpt><trkpt lat="42.2098418" lon="14.2126003"><ele>367.6</ele><time>2026-04-26T10:48:38.757Z</time></trkpt><trkpt lat="42.209771" lon="14.212682"><ele>366.8</ele><time>2026-04-26T10:48:39.756Z</time></trkpt><trkpt lat="42.2096853" lon="14.21275"><ele>366.0</ele><time>2026-04-26T10:48:40.758Z</time></trkpt><trkpt lat="42.2096145" lon="14.2128272"><ele>366.0</ele><time>2026-04-26T10:48:41.757Z</time></trkpt><trkpt lat="42.209569" lon="14.2129217"><ele>366.0</ele><time>2026-04-26T10:48:42.757Z</time></trkpt><trkpt lat="42.2095578" lon="14.2130332"><ele>366.0</ele><time>2026-04-26T10:48:43.757Z</time></trkpt><trkpt lat="42.2095788" lon="14.2131595"><ele>366.0</ele><time>2026-04-26T10:48:44.757Z</time></trkpt><trkpt lat="42.2096317" lon="14.213299"><ele>366.0</ele><time>2026-04-26T10:48:45.758Z</time></trkpt><trkpt lat="42.2097007" lon="14.2134615"><ele>364.6666666666667</ele><time>2026-04-26T10:48:46.757Z</time></trkpt><trkpt lat="42.209764" lon="14.213656"><ele>363.33333333333337</ele><time>2026-04-26T10:48:47.759Z</time></trkpt><trkpt lat="42.2098072" lon="14.213863"><ele>362.0</ele><time>2026-04-26T10:48:48.76Z</time></trkpt><trkpt lat="42.2098495" lon="14.2140445"><ele>361.20000000000005</ele><time>2026-04-26T10:48:49.758Z</time></trkpt><trkpt lat="42.2099108" lon="14.2141793"><ele>360.4</ele><time>2026-04-26T10:48:50.758Z</time></trkpt><trkpt lat="42.2099917" lon="14.2142725"><ele>359.6</ele><time>2026-04-26T10:48:51.758Z</time></trkpt><trkpt lat="42.2100842" lon="14.2143538"><ele>358.79999999999995</ele><time>2026-04-26T10:48:52.759Z</time></trkpt><trkpt lat="42.2101657" lon="14.2144485"><ele>358.0</ele><time>2026-04-26T10:48:53.759Z</time></trkpt><trkpt lat="42.2102123" lon="14.2145588"><ele>358.0</ele><time>2026-04-26T10:48:54.758Z</time></trkpt><trkpt lat="42.2102185" lon="14.2146778"><ele>358.0</ele><time>2026-04-26T10:48:55.758Z</time></trkpt><trkpt lat="42.2102035" lon="14.2147858"><ele>358.0</ele><time>2026-04-26T10:48:56.758Z</time></trkpt><trkpt lat="42.2101875" lon="14.2148735"><ele>358.0</ele><time>2026-04-26T10:48:57.76Z</time></trkpt><trkpt lat="42.210127" lon="14.2149632"><ele>358.0</ele><time>2026-04-26T10:48:59.756Z</time></trkpt><trkpt lat="42.2100235" lon="14.2149535"><ele>358.0</ele><time>2026-04-26T10:49:01.755Z</time></trkpt><trkpt lat="42.2099465" lon="14.2149528"><ele>359.79999999999995</ele><time>2026-04-26T10:49:02.754Z</time></trkpt><trkpt lat="42.2098548" lon="14.2149487"><ele>361.6</ele><time>2026-04-26T10:49:03.757Z</time></trkpt><trkpt lat="42.2097515" lon="14.2149357"><ele>363.4</ele><time>2026-04-26T10:49:04.757Z</time></trkpt><trkpt lat="42.209638" lon="14.2149142"><ele>365.20000000000005</ele><time>2026-04-26T10:49:05.757Z</time></trkpt><trkpt lat="42.2095188" lon="14.214896"><ele>367.0</ele><time>2026-04-26T10:49:06.757Z</time></trkpt><trkpt lat="42.2093977" lon="14.2148925"><ele>369.75</ele><time>2026-04-26T10:49:07.757Z</time></trkpt><trkpt lat="42.2092737" lon="14.2148862"><ele>372.5</ele><time>2026-04-26T10:49:08.757Z</time></trkpt><trkpt lat="42.2091523" lon="14.2148667"><ele>375.25</ele><time>2026-04-26T10:49:09.758Z</time></trkpt><trkpt lat="42.2090415" lon="14.2148338"><ele>378.0</ele><time>2026-04-26T10:49:10.758Z</time></trkpt><trkpt lat="42.2089502" lon="14.214789"><ele>379.0</ele><time>2026-04-26T10:49:11.757Z</time></trkpt><trkpt lat="42.2088968" lon="14.214709"><ele>380.0</ele><time>2026-04-26T10:49:12.758Z</time></trkpt><trkpt lat="42.2088612" lon="14.2146333"><ele>381.0</ele><time>2026-04-26T10:49:13.757Z</time></trkpt><trkpt lat="42.208834" lon="14.2145285"><ele>382.0</ele><time>2026-04-26T10:49:15.758Z</time></trkpt><trkpt lat="42.2088273" lon="14.2143887"><ele>383.0</ele><time>2026-04-26T10:49:17.756Z</time></trkpt><trkpt lat="42.2088077" lon="14.2142578"><ele>384.0</ele><time>2026-04-26T10:49:19.756Z</time></trkpt><trkpt lat="42.2088045" lon="14.2141503"><ele>382.79999999999995</ele><time>2026-04-26T10:49:21.759Z</time></trkpt><trkpt lat="42.2087848" lon="14.2139832"><ele>381.59999999999997</ele><time>2026-04-26T10:49:23.755Z</time></trkpt><trkpt lat="42.2087425" lon="14.213907"><ele>380.4</ele><time>2026-04-26T10:49:24.754Z</time></trkpt><trkpt lat="42.2086838" lon="14.2138282"><ele>379.2</ele><time>2026-04-26T10:49:25.753Z</time></trkpt><trkpt lat="42.2086082" lon="14.2137488"><ele>378.0</ele><time>2026-04-26T10:49:26.753Z</time></trkpt><trkpt lat="42.2085255" lon="14.2136692"><ele>378.0</ele><time>2026-04-26T10:49:27.757Z</time></trkpt><trkpt lat="42.2084403" lon="14.2135873"><ele>378.0</ele><time>2026-04-26T10:49:28.756Z</time></trkpt><trkpt lat="42.2083665" lon="14.213494"><ele>378.0</ele><time>2026-04-26T10:49:29.756Z</time></trkpt><trkpt lat="42.2082918" lon="14.2134178"><ele>378.0</ele><time>2026-04-26T10:49:30.755Z</time></trkpt><trkpt lat="42.2082162" lon="14.2133612"><ele>378.0</ele><time>2026-04-26T10:49:31.755Z</time></trkpt><trkpt lat="42.2081297" lon="14.2133413"><ele>380.59999999999997</ele><time>2026-04-26T10:49:32.755Z</time></trkpt><trkpt lat="42.2080328" lon="14.213322"><ele>383.2</ele><time>2026-04-26T10:49:33.756Z</time></trkpt><trkpt lat="42.20792" lon="14.2133122"><ele>385.8</ele><time>2026-04-26T10:49:34.755Z</time></trkpt><trkpt lat="42.2078048" lon="14.21331"><ele>388.4</ele><time>2026-04-26T10:49:35.756Z</time></trkpt><trkpt lat="42.2077073" lon="14.2132912"><ele>391.0</ele><time>2026-04-26T10:49:36.757Z</time></trkpt><trkpt lat="42.207615" lon="14.2132358"><ele>391.0</ele><time>2026-04-26T10:49:37.758Z</time></trkpt><trkpt lat="42.2075233" lon="14.2132117"><ele>391.0</ele><time>2026-04-26T10:49:38.755Z</time></trkpt><trkpt lat="42.2074242" lon="14.2132073"><ele>391.0</ele><time>2026-04-26T10:49:39.756Z</time></trkpt><trkpt lat="42.2073425" lon="14.2132162"><ele>391.0</ele><time>2026-04-26T10:49:40.755Z</time></trkpt><trkpt lat="42.2072592" lon="14.213263"><ele>391.0</ele><time>2026-04-26T10:49:42.756Z</time></trkpt><trkpt lat="42.207143" lon="14.2133507"><ele>393.20000000000005</ele><time>2026-04-26T10:49:44.757Z</time></trkpt><trkpt lat="42.2070557" lon="14.2133587"><ele>395.40000000000003</ele><time>2026-04-26T10:49:45.757Z</time></trkpt><trkpt lat="42.2069607" lon="14.2133635"><ele>397.6</ele><time>2026-04-26T10:49:46.755Z</time></trkpt><trkpt lat="42.2068583" lon="14.2133767"><ele>399.8</ele><time>2026-04-26T10:49:47.756Z</time></trkpt><trkpt lat="42.2067493" lon="14.213408"><ele>402.0</ele><time>2026-04-26T10:49:48.755Z</time></trkpt><trkpt lat="42.206637" lon="14.213453"><ele>402.0</ele><time>2026-04-26T10:49:49.754Z</time></trkpt><trkpt lat="42.2065343" lon="14.2134915"><ele>402.0</ele><time>2026-04-26T10:49:50.754Z</time></trkpt><trkpt lat="42.2064285" lon="14.213496"><ele>402.0</ele><time>2026-04-26T10:49:51.755Z</time></trkpt><trkpt lat="42.2063192" lon="14.2134632"><ele>402.0</ele><time>2026-04-26T10:49:52.756Z</time></trkpt><trkpt lat="42.2062182" lon="14.2134388"><ele>402.0</ele><time>2026-04-26T10:49:53.756Z</time></trkpt><trkpt lat="42.206123" lon="14.2134488"><ele>404.0</ele><time>2026-04-26T10:49:54.757Z</time></trkpt><trkpt lat="42.2060113" lon="14.2134688"><ele>406.0</ele><time>2026-04-26T10:49:55.756Z</time></trkpt><trkpt lat="42.2058915" lon="14.2134875"><ele>408.0</ele><time>2026-04-26T10:49:56.755Z</time></trkpt><trkpt lat="42.2057682" lon="14.2134805"><ele>410.0</ele><time>2026-04-26T10:49:57.757Z</time></trkpt><trkpt lat="42.2056477" lon="14.2134557"><ele>411.25</ele><time>2026-04-26T10:49:58.754Z</time></trkpt><trkpt lat="42.2055365" lon="14.2134437"><ele>412.5</ele><time>2026-04-26T10:49:59.755Z</time></trkpt><trkpt lat="42.2054178" lon="14.2134457"><ele>413.75</ele><time>2026-04-26T10:50:00.756Z</time></trkpt><trkpt lat="42.2052983" lon="14.2134498"><ele>415.0</ele><time>2026-04-26T10:50:01.756Z</time></trkpt><trkpt lat="42.2051907" lon="14.2134485"><ele>415.00000000000006</ele><time>2026-04-26T10:50:02.755Z</time></trkpt><trkpt lat="42.2050983" lon="14.2134483"><ele>415.0</ele><time>2026-04-26T10:50:03.757Z</time></trkpt><trkpt lat="42.2050277" lon="14.2134507"><ele>415.0</ele><time>2026-04-26T10:50:04.756Z</time></trkpt><trkpt lat="42.2049622" lon="14.2134427"><ele>415.0</ele><time>2026-04-26T10:50:05.755Z</time></trkpt><trkpt lat="42.204847" lon="14.2134468"><ele>415.00000000000006</ele><time>2026-04-26T10:50:07.755Z</time></trkpt><trkpt lat="42.204782" lon="14.2134633"><ele>415.0</ele><time>2026-04-26T10:50:08.755Z</time></trkpt><trkpt lat="42.2047078" lon="14.2134882"><ele>416.0</ele><time>2026-04-26T10:50:09.757Z</time></trkpt><trkpt lat="42.2046312" lon="14.213521"><ele>417.0</ele><time>2026-04-26T10:50:10.755Z</time></trkpt><trkpt lat="42.2045533" lon="14.2135472"><ele>418.0</ele><time>2026-04-26T10:50:11.757Z</time></trkpt><trkpt lat="42.2044838" lon="14.2135623"><ele>419.0</ele><time>2026-04-26T10:50:12.756Z</time></trkpt><trkpt lat="42.2044192" lon="14.2135688"><ele>420.0</ele><time>2026-04-26T10:50:13.754Z</time></trkpt><trkpt lat="42.2043527" lon="14.2135748"><ele>421.0</ele><time>2026-04-26T10:50:14.754Z</time></trkpt><trkpt lat="42.2042825" lon="14.213573"><ele>422.0</ele><time>2026-04-26T10:50:15.753Z</time></trkpt><trkpt lat="42.2042082" lon="14.2135805"><ele>422.0</ele><time>2026-04-26T10:50:16.754Z</time></trkpt><trkpt lat="42.2041273" lon="14.2135763"><ele>422.0</ele><time>2026-04-26T10:50:17.756Z</time></trkpt><trkpt lat="42.2040392" lon="14.2135683"><ele>422.0</ele><time>2026-04-26T10:50:18.756Z</time></trkpt><trkpt lat="42.2039462" lon="14.2135678"><ele>422.0</ele><time>2026-04-26T10:50:19.757Z</time></trkpt><trkpt lat="42.203852" lon="14.2135798"><ele>422.0</ele><time>2026-04-26T10:50:20.756Z</time></trkpt><trkpt lat="42.2037568" lon="14.2135925"><ele>423.8</ele><time>2026-04-26T10:50:21.756Z</time></trkpt><trkpt lat="42.2036542" lon="14.2136047"><ele>425.6</ele><time>2026-04-26T10:50:22.755Z</time></trkpt><trkpt lat="42.2035478" lon="14.2136075"><ele>427.40000000000003</ele><time>2026-04-26T10:50:23.756Z</time></trkpt><trkpt lat="42.2034443" lon="14.213592"><ele>429.20000000000005</ele><time>2026-04-26T10:50:24.757Z</time></trkpt><trkpt lat="42.2033433" lon="14.2135702"><ele>431.0</ele><time>2026-04-26T10:50:25.757Z</time></trkpt><trkpt lat="42.2032397" lon="14.2135632"><ele>432.8</ele><time>2026-04-26T10:50:26.755Z</time></trkpt><trkpt lat="42.203134" lon="14.2135678"><ele>434.6</ele><time>2026-04-26T10:50:27.755Z</time></trkpt><trkpt lat="42.2030287" lon="14.2135693"><ele>436.4</ele><time>2026-04-26T10:50:28.757Z</time></trkpt><trkpt lat="42.2029208" lon="14.2135625"><ele>438.2</ele><time>2026-04-26T10:50:29.756Z</time></trkpt><trkpt lat="42.2028115" lon="14.213556"><ele>440.0</ele><time>2026-04-26T10:50:30.757Z</time></trkpt><trkpt lat="42.2027003" lon="14.2135422"><ele>440.0</ele><time>2026-04-26T10:50:31.756Z</time></trkpt><trkpt lat="42.202589" lon="14.2135238"><ele>440.0</ele><time>2026-04-26T10:50:32.756Z</time></trkpt><trkpt lat="42.2024782" lon="14.2135072"><ele>440.0</ele><time>2026-04-26T10:50:33.756Z</time></trkpt><trkpt lat="42.2023692" lon="14.2134932"><ele>440.0</ele><time>2026-04-26T10:50:34.757Z</time></trkpt><trkpt lat="42.2022648" lon="14.2134892"><ele>440.0</ele><time>2026-04-26T10:50:35.756Z</time></trkpt><trkpt lat="42.2021677" lon="14.213497"><ele>442.8</ele><time>2026-04-26T10:50:36.758Z</time></trkpt><trkpt lat="42.2020758" lon="14.2135192"><ele>445.6</ele><time>2026-04-26T10:50:37.755Z</time></trkpt><trkpt lat="42.2019845" lon="14.2135482"><ele>448.4</ele><time>2026-04-26T10:50:38.754Z</time></trkpt><trkpt lat="42.201892" lon="14.2135762"><ele>451.2</ele><time>2026-04-26T10:50:39.754Z</time></trkpt><trkpt lat="42.2017937" lon="14.2135917"><ele>454.0</ele><time>2026-04-26T10:50:40.755Z</time></trkpt><trkpt lat="42.2016905" lon="14.2136088"><ele>454.0</ele><time>2026-04-26T10:50:41.754Z</time></trkpt><trkpt lat="42.2015855" lon="14.2136333"><ele>454.0</ele><time>2026-04-26T10:50:42.756Z</time></trkpt><trkpt lat="42.2014673" lon="14.2136413"><ele>454.0</ele><time>2026-04-26T10:50:43.757Z</time></trkpt><trkpt lat="42.201334" lon="14.2136448"><ele>454.0</ele><time>2026-04-26T10:50:44.757Z</time></trkpt><trkpt lat="42.201193" lon="14.2136375"><ele>456.25</ele><time>2026-04-26T10:50:45.756Z</time></trkpt><trkpt lat="42.2010465" lon="14.2136157"><ele>458.5</ele><time>2026-04-26T10:50:46.756Z</time></trkpt><trkpt lat="42.2008903" lon="14.2135743"><ele>460.75</ele><time>2026-04-26T10:50:47.756Z</time></trkpt><trkpt lat="42.2007543" lon="14.213534"><ele>463.0</ele><time>2026-04-26T10:50:48.757Z</time></trkpt><trkpt lat="42.2006265" lon="14.2135075"><ele>463.0</ele><time>2026-04-26T10:50:49.756Z</time></trkpt><trkpt lat="42.2004942" lon="14.2135043"><ele>463.0</ele><time>2026-04-26T10:50:50.756Z</time></trkpt><trkpt lat="42.2003645" lon="14.2134897"><ele>463.0</ele><time>2026-04-26T10:50:51.755Z</time></trkpt><trkpt lat="42.2002233" lon="14.2134747"><ele>463.0</ele><time>2026-04-26T10:50:52.758Z</time></trkpt><trkpt lat="42.2000968" lon="14.2134903"><ele>463.0</ele><time>2026-04-26T10:50:53.754Z</time></trkpt><trkpt lat="42.199977" lon="14.21353"><ele>463.0</ele><time>2026-04-26T10:50:54.757Z</time></trkpt><trkpt lat="42.199858" lon="14.2136093"><ele>463.0</ele><time>2026-04-26T10:50:55.755Z</time></trkpt><trkpt lat="42.199741" lon="14.213714"><ele>463.0</ele><time>2026-04-26T10:50:56.758Z</time></trkpt><trkpt lat="42.1996398" lon="14.213828"><ele>465.0</ele><time>2026-04-26T10:50:57.757Z</time></trkpt><trkpt lat="42.1995338" lon="14.2139263"><ele>467.0</ele><time>2026-04-26T10:50:58.756Z</time></trkpt><trkpt lat="42.1994287" lon="14.2139948"><ele>469.0</ele><time>2026-04-26T10:50:59.758Z</time></trkpt><trkpt lat="42.1993258" lon="14.2140502"><ele>471.0</ele><time>2026-04-26T10:51:00.755Z</time></trkpt><trkpt lat="42.1992338" lon="14.2141177"><ele>471.0</ele><time>2026-04-26T10:51:01.753Z</time></trkpt><trkpt lat="42.1991355" lon="14.214208"><ele>471.0</ele><time>2026-04-26T10:51:02.753Z</time></trkpt><trkpt lat="42.1990372" lon="14.2143172"><ele>471.0</ele><time>2026-04-26T10:51:03.754Z</time></trkpt><trkpt lat="42.1989413" lon="14.2144312"><ele>471.0</ele><time>2026-04-26T10:51:04.754Z</time></trkpt><trkpt lat="42.1988632" lon="14.21455"><ele>470.8333333333333</ele><time>2026-04-26T10:51:05.753Z</time></trkpt><trkpt lat="42.1987987" lon="14.214664"><ele>470.66666666666663</ele><time>2026-04-26T10:51:06.754Z</time></trkpt><trkpt lat="42.198736" lon="14.2147708"><ele>470.5</ele><time>2026-04-26T10:51:07.754Z</time></trkpt><trkpt lat="42.1986678" lon="14.2148515"><ele>470.3333333333333</ele><time>2026-04-26T10:51:08.754Z</time></trkpt><trkpt lat="42.1986122" lon="14.2149193"><ele>470.16666666666663</ele><time>2026-04-26T10:51:09.758Z</time></trkpt><trkpt lat="42.1985695" lon="14.214996"><ele>470.0</ele><time>2026-04-26T10:51:10.756Z</time></trkpt><trkpt lat="42.1985302" lon="14.2150625"><ele>469.99999999999994</ele><time>2026-04-26T10:51:11.755Z</time></trkpt><trkpt lat="42.1984322" lon="14.2151497"><ele>470.0</ele><time>2026-04-26T10:51:13.755Z</time></trkpt><trkpt lat="42.1983598" lon="14.2151845"><ele>470.0</ele><time>2026-04-26T10:51:14.755Z</time></trkpt><trkpt lat="42.19828" lon="14.2152217"><ele>470.0</ele><time>2026-04-26T10:51:15.757Z</time></trkpt><trkpt lat="42.1982182" lon="14.2152612"><ele>469.99999999999994</ele><time>2026-04-26T10:51:16.755Z</time></trkpt><trkpt lat="42.1981717" lon="14.215323"><ele>470.0</ele><time>2026-04-26T10:51:17.756Z</time></trkpt><trkpt lat="42.1981068" lon="14.2154533"><ele>470.99999999999994</ele><time>2026-04-26T10:51:19.755Z</time></trkpt><trkpt lat="42.1980817" lon="14.2155402"><ele>472.0</ele><time>2026-04-26T10:51:21.756Z</time></trkpt><trkpt lat="42.1980623" lon="14.2156498"><ele>473.0</ele><time>2026-04-26T10:51:23.756Z</time></trkpt><trkpt lat="42.1980523" lon="14.2157688"><ele>474.0</ele><time>2026-04-26T10:51:25.755Z</time></trkpt><trkpt lat="42.1980067" lon="14.2158725"><ele>474.99999999999994</ele><time>2026-04-26T10:51:27.753Z</time></trkpt><trkpt lat="42.1979465" lon="14.2159287"><ele>476.0</ele><time>2026-04-26T10:53:07.753Z</time></trkpt><trkpt lat="42.1978558" lon="14.2160187"><ele>476.0</ele><time>2026-04-26T10:53:09.755Z</time></trkpt><trkpt lat="42.1977643" lon="14.2161415"><ele>476.0</ele><time>2026-04-26T10:53:11.755Z</time></trkpt><trkpt lat="42.1977188" lon="14.2162095"><ele>476.0</ele><time>2026-04-26T10:53:12.756Z</time></trkpt><trkpt lat="42.1976727" lon="14.2162848"><ele>476.0</ele><time>2026-04-26T10:53:13.757Z</time></trkpt><trkpt lat="42.1975975" lon="14.2164003"><ele>476.0</ele><time>2026-04-26T10:53:15.757Z</time></trkpt><trkpt lat="42.197548" lon="14.2165312"><ele>479.6</ele><time>2026-04-26T10:53:17.758Z</time></trkpt><trkpt lat="42.1975353" lon="14.2166912"><ele>483.20000000000005</ele><time>2026-04-26T10:53:19.756Z</time></trkpt><trkpt lat="42.1975187" lon="14.2167742"><ele>486.79999999999995</ele><time>2026-04-26T10:53:20.757Z</time></trkpt><trkpt lat="42.1974607" lon="14.216898"><ele>490.4</ele><time>2026-04-26T10:53:22.755Z</time></trkpt><trkpt lat="42.1973978" lon="14.2169618"><ele>494.0</ele><time>2026-04-26T10:53:24.756Z</time></trkpt><trkpt lat="42.1972925" lon="14.2169822"><ele>493.99999999999994</ele><time>2026-04-26T10:53:26.756Z</time></trkpt><trkpt lat="42.1972192" lon="14.2169983"><ele>494.0</ele><time>2026-04-26T10:53:27.756Z</time></trkpt><trkpt lat="42.1971373" lon="14.2170198"><ele>494.0</ele><time>2026-04-26T10:53:28.754Z</time></trkpt><trkpt lat="42.197049" lon="14.217045"><ele>494.0</ele><time>2026-04-26T10:53:29.754Z</time></trkpt><trkpt lat="42.1969535" lon="14.217079"><ele>493.99999999999994</ele><time>2026-04-26T10:53:30.756Z</time></trkpt><trkpt lat="42.1968578" lon="14.217114"><ele>494.0</ele><time>2026-04-26T10:53:31.753Z</time></trkpt><trkpt lat="42.1967605" lon="14.2171498"><ele>494.0</ele><time>2026-04-26T10:53:32.755Z</time></trkpt><trkpt lat="42.1966598" lon="14.2171838"><ele>494.0</ele><time>2026-04-26T10:53:33.757Z</time></trkpt><trkpt lat="42.1965625" lon="14.2172175"><ele>494.0</ele><time>2026-04-26T10:53:34.756Z</time></trkpt><trkpt lat="42.1964653" lon="14.2172485"><ele>494.0</ele><time>2026-04-26T10:53:35.755Z</time></trkpt><trkpt lat="42.1963712" lon="14.21728"><ele>494.0</ele><time>2026-04-26T10:53:36.755Z</time></trkpt><trkpt lat="42.1962773" lon="14.2173055"><ele>496.66666666666663</ele><time>2026-04-26T10:53:37.753Z</time></trkpt><trkpt lat="42.1961877" lon="14.2173338"><ele>499.3333333333333</ele><time>2026-04-26T10:53:38.752Z</time></trkpt><trkpt lat="42.1961002" lon="14.217366"><ele>502.0</ele><time>2026-04-26T10:53:39.755Z</time></trkpt><trkpt lat="42.196016" lon="14.2173952"><ele>504.66666666666663</ele><time>2026-04-26T10:53:40.754Z</time></trkpt><trkpt lat="42.195934" lon="14.217422"><ele>507.3333333333333</ele><time>2026-04-26T10:53:41.755Z</time></trkpt><trkpt lat="42.1958535" lon="14.2174532"><ele>510.0</ele><time>2026-04-26T10:53:42.756Z</time></trkpt><trkpt lat="42.1957732" lon="14.2174765"><ele>510.0</ele><time>2026-04-26T10:53:43.756Z</time></trkpt><trkpt lat="42.1956933" lon="14.2175013"><ele>510.0</ele><time>2026-04-26T10:53:44.755Z</time></trkpt><trkpt lat="42.1956152" lon="14.2175315"><ele>510.0</ele><time>2026-04-26T10:53:45.755Z</time></trkpt><trkpt lat="42.1955402" lon="14.2175643"><ele>510.0</ele><time>2026-04-26T10:53:46.755Z</time></trkpt><trkpt lat="42.1954722" lon="14.2176065"><ele>510.0</ele><time>2026-04-26T10:53:47.754Z</time></trkpt><trkpt lat="42.1954143" lon="14.2176487"><ele>510.0</ele><time>2026-04-26T10:53:48.757Z</time></trkpt><trkpt lat="42.1953138" lon="14.2177357"><ele>510.8</ele><time>2026-04-26T10:53:50.757Z</time></trkpt><trkpt lat="42.1952395" lon="14.2178322"><ele>511.6</ele><time>2026-04-26T10:53:52.756Z</time></trkpt><trkpt lat="42.1951522" lon="14.2179498"><ele>512.4</ele><time>2026-04-26T10:53:54.757Z</time></trkpt><trkpt lat="42.1950902" lon="14.2180082"><ele>513.2</ele><time>2026-04-26T10:53:55.754Z</time></trkpt><trkpt lat="42.195019" lon="14.2180637"><ele>514.0</ele><time>2026-04-26T10:53:56.752Z</time></trkpt><trkpt lat="42.1949547" lon="14.2181167"><ele>515.0</ele><time>2026-04-26T10:53:57.754Z</time></trkpt><trkpt lat="42.1949043" lon="14.2182538"><ele>516.0</ele><time>2026-04-26T10:53:59.756Z</time></trkpt><trkpt lat="42.1949162" lon="14.218382"><ele>517.0</ele><time>2026-04-26T10:54:01.756Z</time></trkpt><trkpt lat="42.1948973" lon="14.2184867"><ele>518.0</ele><time>2026-04-26T10:54:03.757Z</time></trkpt><trkpt lat="42.1948372" lon="14.2186138"><ele>519.0</ele><time>2026-04-26T10:54:05.759Z</time></trkpt><trkpt lat="42.194824" lon="14.218702"><ele>519.3333333333334</ele><time>2026-04-26T10:54:06.755Z</time></trkpt><trkpt lat="42.1948252" lon="14.2188065"><ele>519.6666666666666</ele><time>2026-04-26T10:54:07.757Z</time></trkpt><trkpt lat="42.194834" lon="14.2189228"><ele>520.0</ele><time>2026-04-26T10:54:08.757Z</time></trkpt><trkpt lat="42.1948408" lon="14.2190437"><ele>520.3333333333333</ele><time>2026-04-26T10:54:09.756Z</time></trkpt><trkpt lat="42.1948498" lon="14.2191658"><ele>520.6666666666666</ele><time>2026-04-26T10:54:10.755Z</time></trkpt><trkpt lat="42.1948652" lon="14.2192868"><ele>521.0</ele><time>2026-04-26T10:54:11.756Z</time></trkpt><trkpt lat="42.194876" lon="14.2194068"><ele>521.0</ele><time>2026-04-26T10:54:12.756Z</time></trkpt><trkpt lat="42.1948885" lon="14.2195275"><ele>521.0</ele><time>2026-04-26T10:54:13.757Z</time></trkpt><trkpt lat="42.1949005" lon="14.2196547"><ele>521.0</ele><time>2026-04-26T10:54:14.755Z</time></trkpt><trkpt lat="42.1949128" lon="14.2197815"><ele>521.0</ele><time>2026-04-26T10:54:15.757Z</time></trkpt><trkpt lat="42.1949238" lon="14.2199072"><ele>521.0</ele><time>2026-04-26T10:54:16.755Z</time></trkpt><trkpt lat="42.194932" lon="14.2200335"><ele>521.5</ele><time>2026-04-26T10:54:17.756Z</time></trkpt><trkpt lat="42.1949315" lon="14.2201598"><ele>522.0</ele><time>2026-04-26T10:54:18.754Z</time></trkpt><trkpt lat="42.1949157" lon="14.2202805"><ele>522.5</ele><time>2026-04-26T10:54:19.754Z</time></trkpt><trkpt lat="42.1948823" lon="14.2203797"><ele>523.0</ele><time>2026-04-26T10:54:20.754Z</time></trkpt><trkpt lat="42.1948277" lon="14.2204477"><ele>523.5</ele><time>2026-04-26T10:54:21.758Z</time></trkpt><trkpt lat="42.1947582" lon="14.2204778"><ele>524.0</ele><time>2026-04-26T10:54:22.757Z</time></trkpt><trkpt lat="42.1946847" lon="14.2204758"><ele>525.7142857142858</ele><time>2026-04-26T10:54:23.757Z</time></trkpt><trkpt lat="42.194622" lon="14.2204347"><ele>527.4285714285714</ele><time>2026-04-26T10:54:24.76Z</time></trkpt><trkpt lat="42.1945803" lon="14.2203607"><ele>529.1428571428571</ele><time>2026-04-26T10:54:25.754Z</time></trkpt><trkpt lat="42.1945542" lon="14.2202733"><ele>530.8571428571429</ele><time>2026-04-26T10:54:26.756Z</time></trkpt><trkpt lat="42.1945283" lon="14.2201827"><ele>532.5714285714286</ele><time>2026-04-26T10:54:27.758Z</time></trkpt><trkpt lat="42.1945002" lon="14.2200862"><ele>534.2857142857143</ele><time>2026-04-26T10:54:28.754Z</time></trkpt><trkpt lat="42.1944655" lon="14.2199882"><ele>536.0</ele><time>2026-04-26T10:54:29.756Z</time></trkpt><trkpt lat="42.1944193" lon="14.219896"><ele>535.3333333333333</ele><time>2026-04-26T10:54:30.757Z</time></trkpt><trkpt lat="42.1943617" lon="14.2198157"><ele>534.6666666666666</ele><time>2026-04-26T10:54:31.754Z</time></trkpt><trkpt lat="42.1942972" lon="14.2197457"><ele>534.0</ele><time>2026-04-26T10:54:32.758Z</time></trkpt><trkpt lat="42.1942282" lon="14.2196832"><ele>533.3333333333334</ele><time>2026-04-26T10:54:33.756Z</time></trkpt><trkpt lat="42.194157" lon="14.2196248"><ele>532.6666666666667</ele><time>2026-04-26T10:54:34.755Z</time></trkpt><trkpt lat="42.1940842" lon="14.2195718"><ele>532.0</ele><time>2026-04-26T10:54:35.754Z</time></trkpt><trkpt lat="42.1940123" lon="14.219516"><ele>533.5</ele><time>2026-04-26T10:54:36.754Z</time></trkpt><trkpt lat="42.1939378" lon="14.2194622"><ele>535.0</ele><time>2026-04-26T10:54:37.754Z</time></trkpt><trkpt lat="42.1938602" lon="14.2194077"><ele>536.5</ele><time>2026-04-26T10:54:38.755Z</time></trkpt><trkpt lat="42.193781" lon="14.219355"><ele>538.0</ele><time>2026-04-26T10:54:39.758Z</time></trkpt><trkpt lat="42.1937017" lon="14.2193052"><ele>539.5</ele><time>2026-04-26T10:54:40.756Z</time></trkpt><trkpt lat="42.1936203" lon="14.219257"><ele>541.0</ele><time>2026-04-26T10:54:41.754Z</time></trkpt><trkpt lat="42.1935373" lon="14.219218"><ele>541.0</ele><time>2026-04-26T10:54:42.754Z</time></trkpt><trkpt lat="42.1934512" lon="14.2191872"><ele>541.0</ele><time>2026-04-26T10:54:43.754Z</time></trkpt><trkpt lat="42.1933683" lon="14.219173"><ele>541.0</ele><time>2026-04-26T10:54:44.753Z</time></trkpt><trkpt lat="42.1932798" lon="14.219201"><ele>541.0</ele><time>2026-04-26T10:54:45.753Z</time></trkpt><trkpt lat="42.1932" lon="14.2192475"><ele>541.0</ele><time>2026-04-26T10:54:46.754Z</time></trkpt><trkpt lat="42.1931202" lon="14.2193063"><ele>541.0</ele><time>2026-04-26T10:54:47.758Z</time></trkpt><trkpt lat="42.1930475" lon="14.2193793"><ele>540.5714285714287</ele><time>2026-04-26T10:54:48.755Z</time></trkpt><trkpt lat="42.1929925" lon="14.2194687"><ele>540.1428571428571</ele><time>2026-04-26T10:54:49.756Z</time></trkpt><trkpt lat="42.1929567" lon="14.219563"><ele>539.7142857142858</ele><time>2026-04-26T10:54:50.755Z</time></trkpt><trkpt lat="42.1929447" lon="14.2196582"><ele>539.2857142857143</ele><time>2026-04-26T10:54:51.761Z</time></trkpt><trkpt lat="42.1929582" lon="14.2197415"><ele>538.8571428571429</ele><time>2026-04-26T10:54:52.756Z</time></trkpt><trkpt lat="42.19299" lon="14.2198203"><ele>538.4285714285714</ele><time>2026-04-26T10:54:53.756Z</time></trkpt><trkpt lat="42.1930348" lon="14.2198928"><ele>538.0</ele><time>2026-04-26T10:54:54.756Z</time></trkpt><trkpt lat="42.1930928" lon="14.219951"><ele>540.0</ele><time>2026-04-26T10:54:55.755Z</time></trkpt><trkpt lat="42.1931633" lon="14.2199942"><ele>542.0</ele><time>2026-04-26T10:54:56.755Z</time></trkpt><trkpt lat="42.1932388" lon="14.2200375"><ele>544.0</ele><time>2026-04-26T10:54:57.756Z</time></trkpt><trkpt lat="42.1933175" lon="14.2200828"><ele>546.0</ele><time>2026-04-26T10:54:58.755Z</time></trkpt><trkpt lat="42.1933962" lon="14.2201255"><ele>548.0</ele><time>2026-04-26T10:54:59.756Z</time></trkpt><trkpt lat="42.1934737" lon="14.2201628"><ele>550.0</ele><time>2026-04-26T10:55:00.755Z</time></trkpt><trkpt lat="42.1935512" lon="14.2202018"><ele>550.0</ele><time>2026-04-26T10:55:01.755Z</time></trkpt><trkpt lat="42.1936295" lon="14.2202437"><ele>550.0</ele><time>2026-04-26T10:55:02.758Z</time></trkpt><trkpt lat="42.1937055" lon="14.2202898"><ele>550.0</ele><time>2026-04-26T10:55:03.756Z</time></trkpt><trkpt lat="42.1937657" lon="14.220344"><ele>550.0</ele><time>2026-04-26T10:55:04.756Z</time></trkpt><trkpt lat="42.1938043" lon="14.2204828"><ele>550.0</ele><time>2026-04-26T10:55:06.755Z</time></trkpt><trkpt lat="42.1937368" lon="14.2205477"><ele>550.0</ele><time>2026-04-26T10:55:08.755Z</time></trkpt><trkpt lat="42.1936353" lon="14.220516"><ele>550.0</ele><time>2026-04-26T10:55:10.754Z</time></trkpt><trkpt lat="42.1935068" lon="14.2204842"><ele>550.0</ele><time>2026-04-26T10:55:12.756Z</time></trkpt><trkpt lat="42.1934395" lon="14.2204635"><ele>550.0</ele><time>2026-04-26T10:55:13.756Z</time></trkpt><trkpt lat="42.1933745" lon="14.2204413"><ele>550.0</ele><time>2026-04-26T10:55:14.76Z</time></trkpt><trkpt lat="42.1932803" lon="14.220389"><ele>550.0</ele><time>2026-04-26T10:55:16.755Z</time></trkpt><trkpt lat="42.1932383" lon="14.2202948"><ele>550.0</ele><time>2026-04-26T10:55:19.757Z</time></trkpt><trkpt lat="42.1931808" lon="14.2202347"><ele>550.0</ele><time>2026-04-26T10:55:23.755Z</time></trkpt></trkseg></trk></gpx>